<?xml version="1.0" encoding="UTF-8" standalone="no" ?>
  <gpx version="1.0" creator="Loctome.com">
  <metadata>
  <link href="https://play.google.com/store/apps/details?id=com.loctome.app.loctome">
      <text>Loctome Live Track GPS</text>
  </link>
  <desc>File created by Loctome Android Client No Limits Edition</desc>
  <time>2016-07-09T12:33:48Z</time>
  </metadata>
  <trk>
    <name>2016-07-09T12:33:48Z</name>
    <trkseg>
      <trkpt lat="39.214364564120125" lon="-6.12322719196903"><ele>982</ele><speed>0.00</speed><time>2016-07-09T12:33:48Z</time><pdop>32.0</pdop><geoidheight>50.60</geoidheight><course>0.0</course><type>1</type></trkpt>
      <trkpt lat="39.214422730445605" lon="-6.1231586212885984"><ele>975</ele><speed>0.00</speed><time>2016-07-09T12:34:49Z</time><pdop>8.0</pdop><geoidheight>50.60</geoidheight><course>0.0</course><type>1</type></trkpt>
      <trkpt lat="39.214422730445605" lon="-6.1231586212885984"><ele>981</ele><speed>0.00</speed><time>2016-07-09T12:35:50Z</time><pdop>12.0</pdop><geoidheight>50.60</geoidheight><course>0.0</course><type>1</type></trkpt>
      <trkpt lat="39.21444775379641" lon="-6.1229742624962435"><ele>987</ele><speed>0.00</speed><time>2016-07-09T12:36:50Z</time><pdop>16.0</pdop><geoidheight>50.60</geoidheight><course>155.51758</course><type>1</type></trkpt>
      <trkpt lat="39.21444775379641" lon="-6.1229742624962435"><ele>988</ele><speed>0.00</speed><time>2016-07-09T12:37:50Z</time><pdop>12.0</pdop><geoidheight>50.60</geoidheight><course>0.0</course><type>1</type></trkpt>
      <trkpt lat="39.21445108619679" lon="-6.122987759328684"><ele>989</ele><speed>0.00</speed><time>2016-07-09T12:38:50Z</time><pdop>6.0</pdop><geoidheight>50.60</geoidheight><course>0.0</course><type>1</type></trkpt>
      <trkpt lat="39.21428479571677" lon="-6.1227893174854"><ele>990</ele><speed>2.52</speed><time>2016-07-09T12:39:13Z</time><pdop>16.0</pdop><geoidheight>50.60</geoidheight><course>121.833435</course><type>1</type></trkpt>
      <trkpt lat="39.21416651527768" lon="-6.12249836370855"><ele>986</ele><speed>7.47</speed><time>2016-07-09T12:39:17Z</time><pdop>12.0</pdop><geoidheight>50.60</geoidheight><course>124.89587</course><type>1</type></trkpt>
      <trkpt lat="39.21405342491908" lon="-6.122297599116443"><ele>981</ele><speed>7.07</speed><time>2016-07-09T12:39:20Z</time><pdop>8.0</pdop><geoidheight>50.60</geoidheight><course>122.315575</course><type>1</type></trkpt>
      <trkpt lat="39.213937895185516" lon="-6.122075211870035"><ele>978</ele><speed>6.65</speed><time>2016-07-09T12:39:23Z</time><pdop>12.0</pdop><geoidheight>50.60</geoidheight><course>122.58667</course><type>1</type></trkpt>
      <trkpt lat="39.21385037439618" lon="-6.121815372488422"><ele>974</ele><speed>8.29</speed><time>2016-07-09T12:39:26Z</time><pdop>8.0</pdop><geoidheight>50.60</geoidheight><course>108.9191</course><type>1</type></trkpt>
      <trkpt lat="39.21376852149704" lon="-6.12163653747882"><ele>973</ele><speed>7.67</speed><time>2016-07-09T12:39:27Z</time><pdop>8.0</pdop><geoidheight>50.60</geoidheight><course>116.35333</course><type>1</type></trkpt>
      <trkpt lat="39.21368068626553" lon="-6.121477872896892"><ele>971</ele><speed>7.18</speed><time>2016-07-09T12:39:30Z</time><pdop>8.0</pdop><geoidheight>50.60</geoidheight><course>121.901436</course><type>1</type></trkpt>
      <trkpt lat="39.213547554739186" lon="-6.121343172454554"><ele>968</ele><speed>6.35</speed><time>2016-07-09T12:39:33Z</time><pdop>8.0</pdop><geoidheight>50.60</geoidheight><course>140.42822</course><type>1</type></trkpt>
      <trkpt lat="39.21337563626613" lon="-6.121198671752565"><ele>966</ele><speed>5.87</speed><time>2016-07-09T12:39:37Z</time><pdop>12.0</pdop><geoidheight>50.60</geoidheight><course>149.12918</course><type>1</type></trkpt>
      <trkpt lat="39.21311086289804" lon="-6.121143464172294"><ele>965</ele><speed>7.11</speed><time>2016-07-09T12:39:42Z</time><pdop>12.0</pdop><geoidheight>50.60</geoidheight><course>170.84378</course><type>1</type></trkpt>
      <trkpt lat="39.21287465831795" lon="-6.1210996666008946"><ele>964</ele><speed>6.90</speed><time>2016-07-09T12:39:46Z</time><pdop>8.0</pdop><geoidheight>50.60</geoidheight><course>171.36717</course><type>1</type></trkpt>
      <trkpt lat="39.212664947080874" lon="-6.121053898785579"><ele>964</ele><speed>5.49</speed><time>2016-07-09T12:39:50Z</time><pdop>8.0</pdop><geoidheight>50.60</geoidheight><course>167.47496</course><type>1</type></trkpt>
      <trkpt lat="39.21246360385263" lon="-6.121009094822125"><ele>961</ele><speed>7.47</speed><time>2016-07-09T12:39:53Z</time><pdop>12.0</pdop><geoidheight>50.60</geoidheight><course>169.71936</course><type>1</type></trkpt>
      <trkpt lat="39.21224374046902" lon="-6.120969913271156"><ele>956</ele><speed>6.17</speed><time>2016-07-09T12:39:57Z</time><pdop>8.0</pdop><geoidheight>50.60</geoidheight><course>172.64874</course><type>1</type></trkpt>
      <trkpt lat="39.21203335874333" lon="-6.120943851693873"><ele>953</ele><speed>7.57</speed><time>2016-07-09T12:40:00Z</time><pdop>8.0</pdop><geoidheight>50.60</geoidheight><course>174.2168</course><type>1</type></trkpt>
      <trkpt lat="39.211884184587596" lon="-6.120948795987262"><ele>952</ele><speed>6.66</speed><time>2016-07-09T12:40:02Z</time><pdop>8.0</pdop><geoidheight>50.60</geoidheight><course>178.53273</course><type>1</type></trkpt>
      <trkpt lat="39.211663767873894" lon="-6.120873391501843"><ele>952</ele><speed>7.27</speed><time>2016-07-09T12:40:06Z</time><pdop>12.0</pdop><geoidheight>50.60</geoidheight><course>156.54865</course><type>1</type></trkpt>
      <trkpt lat="39.21144536712592" lon="-6.120765900469192"><ele>950</ele><speed>7.10</speed><time>2016-07-09T12:40:09Z</time><pdop>12.0</pdop><geoidheight>50.60</geoidheight><course>160.74397</course><type>1</type></trkpt>
      <trkpt lat="39.21123044402798" lon="-6.120710451160856"><ele>948</ele><speed>9.97</speed><time>2016-07-09T12:40:12Z</time><pdop>12.0</pdop><geoidheight>50.60</geoidheight><course>166.5158</course><type>1</type></trkpt>
      <trkpt lat="39.210999119531024" lon="-6.120643793083445"><ele>941</ele><speed>9.37</speed><time>2016-07-09T12:40:15Z</time><pdop>12.0</pdop><geoidheight>50.60</geoidheight><course>163.00206</course><type>1</type></trkpt>
      <trkpt lat="39.21074371216124" lon="-6.120594589243735"><ele>935</ele><speed>8.54</speed><time>2016-07-09T12:40:18Z</time><pdop>8.0</pdop><geoidheight>50.60</geoidheight><course>168.29118</course><type>1</type></trkpt>
      <trkpt lat="39.210551153880196" lon="-6.120568047252978"><ele>932</ele><speed>11.28</speed><time>2016-07-09T12:40:20Z</time><pdop>8.0</pdop><geoidheight>50.60</geoidheight><course>169.68947</course><type>1</type></trkpt>
      <trkpt lat="39.210372986239186" lon="-6.120511852519122"><ele>931</ele><speed>9.38</speed><time>2016-07-09T12:40:22Z</time><pdop>12.0</pdop><geoidheight>50.60</geoidheight><course>164.37868</course><type>1</type></trkpt>
      <trkpt lat="39.21016067761703" lon="-6.12047415346121"><ele>930</ele><speed>7.92</speed><time>2016-07-09T12:40:25Z</time><pdop>8.0</pdop><geoidheight>50.60</geoidheight><course>187.07805</course><type>1</type></trkpt>
      <trkpt lat="39.21001226865211" lon="-6.120494057519557"><ele>930</ele><speed>7.37</speed><time>2016-07-09T12:40:27Z</time><pdop>8.0</pdop><geoidheight>50.60</geoidheight><course>189.78592</course><type>1</type></trkpt>
      <trkpt lat="39.20980066562266" lon="-6.120537445843404"><ele>931</ele><speed>9.88</speed><time>2016-07-09T12:40:30Z</time><pdop>8.0</pdop><geoidheight>50.60</geoidheight><course>186.99576</course><type>1</type></trkpt>
      <trkpt lat="39.209624120183925" lon="-6.1204941245218265"><ele>930</ele><speed>11.73</speed><time>2016-07-09T12:40:31Z</time><pdop>12.0</pdop><geoidheight>50.60</geoidheight><course>169.24792</course><type>1</type></trkpt>
      <trkpt lat="39.20938161182292" lon="-6.1204629765807"><ele>928</ele><speed>8.37</speed><time>2016-07-09T12:40:35Z</time><pdop>12.0</pdop><geoidheight>50.60</geoidheight><course>176.11821</course><type>1</type></trkpt>
      <trkpt lat="39.20915053864728" lon="-6.1204357666874545"><ele>927</ele><speed>8.02</speed><time>2016-07-09T12:40:38Z</time><pdop>12.0</pdop><geoidheight>50.60</geoidheight><course>169.79095</course><type>1</type></trkpt>
      <trkpt lat="39.20889200814455" lon="-6.12036780621702"><ele>926</ele><speed>11.07</speed><time>2016-07-09T12:40:41Z</time><pdop>12.0</pdop><geoidheight>50.60</geoidheight><course>170.47366</course><type>1</type></trkpt>
      <trkpt lat="39.20867350611093" lon="-6.12034847855526"><ele>929</ele><speed>7.00</speed><time>2016-07-09T12:40:44Z</time><pdop>12.0</pdop><geoidheight>50.60</geoidheight><course>177.63481</course><type>1</type></trkpt>
      <trkpt lat="39.20847174924865" lon="-6.12035187765348"><ele>932</ele><speed>6.65</speed><time>2016-07-09T12:40:47Z</time><pdop>8.0</pdop><geoidheight>50.60</geoidheight><course>179.40315</course><type>1</type></trkpt>
      <trkpt lat="39.20829945240731" lon="-6.12034167311895"><ele>933</ele><speed>5.98</speed><time>2016-07-09T12:40:50Z</time><pdop>8.0</pdop><geoidheight>50.60</geoidheight><course>179.75789</course><type>1</type></trkpt>
      <trkpt lat="39.20811321184008" lon="-6.120338962589785"><ele>934</ele><speed>7.26</speed><time>2016-07-09T12:40:53Z</time><pdop>8.0</pdop><geoidheight>50.60</geoidheight><course>178.26588</course><type>1</type></trkpt>
      <trkpt lat="39.207963321129135" lon="-6.120319724046676"><ele>932</ele><speed>8.16</speed><time>2016-07-09T12:40:55Z</time><pdop>8.0</pdop><geoidheight>50.60</geoidheight><course>176.41551</course><type>1</type></trkpt>
      <trkpt lat="39.207768079114885" lon="-6.120307701991585"><ele>929</ele><speed>5.45</speed><time>2016-07-09T12:40:58Z</time><pdop>8.0</pdop><geoidheight>50.60</geoidheight><course>179.72615</course><type>1</type></trkpt>
      <trkpt lat="39.207540460360256" lon="-6.120318018190093"><ele>928</ele><speed>7.48</speed><time>2016-07-09T12:41:02Z</time><pdop>12.0</pdop><geoidheight>50.60</geoidheight><course>183.37141</course><type>1</type></trkpt>
      <trkpt lat="39.20727839393478" lon="-6.120353311882896"><ele>927</ele><speed>5.27</speed><time>2016-07-09T12:41:06Z</time><pdop>12.0</pdop><geoidheight>50.60</geoidheight><course>187.17711</course><type>1</type></trkpt>
      <trkpt lat="39.20701163906823" lon="-6.120375506425367"><ele>932</ele><speed>8.68</speed><time>2016-07-09T12:41:12Z</time><pdop>16.0</pdop><geoidheight>50.60</geoidheight><course>185.15776</course><type>1</type></trkpt>
      <trkpt lat="39.206750530019185" lon="-6.120384064332134"><ele>941</ele><speed>9.63</speed><time>2016-07-09T12:41:18Z</time><pdop>12.0</pdop><geoidheight>50.60</geoidheight><course>168.85774</course><type>1</type></trkpt>
      <trkpt lat="39.2064426354865" lon="-6.120393662429344"><ele>945</ele><speed>5.95</speed><time>2016-07-09T12:41:22Z</time><pdop>16.0</pdop><geoidheight>50.60</geoidheight><course>197.8075</course><type>1</type></trkpt>
      <trkpt lat="39.206165342476545" lon="-6.1204041046749"><ele>952</ele><speed>4.51</speed><time>2016-07-09T12:41:28Z</time><pdop>12.0</pdop><geoidheight>50.60</geoidheight><course>172.55353</course><type>1</type></trkpt>
      <trkpt lat="39.206383151865175" lon="-6.120175705670585"><ele>952</ele><speed>13.23</speed><time>2016-07-09T12:41:31Z</time><pdop>12.0</pdop><geoidheight>50.60</geoidheight><course>355.9968</course><type>1</type></trkpt>
      <trkpt lat="39.20661785482571" lon="-6.120358495480307"><ele>953</ele><speed>12.69</speed><time>2016-07-09T12:41:34Z</time><pdop>8.0</pdop><geoidheight>50.60</geoidheight><course>319.46964</course><type>1</type></trkpt>
      <trkpt lat="39.206849869272645" lon="-6.1205666638765255"><ele>953</ele><speed>13.40</speed><time>2016-07-09T12:41:36Z</time><pdop>8.0</pdop><geoidheight>50.60</geoidheight><course>318.6761</course><type>1</type></trkpt>
      <trkpt lat="39.20703763513332" lon="-6.120781612455688"><ele>954</ele><speed>11.82</speed><time>2016-07-09T12:41:38Z</time><pdop>6.0</pdop><geoidheight>50.60</geoidheight><course>317.05362</course><type>1</type></trkpt>
      <trkpt lat="39.20719215575765" lon="-6.120967290845621"><ele>955</ele><speed>11.74</speed><time>2016-07-09T12:41:40Z</time><pdop>8.0</pdop><geoidheight>50.60</geoidheight><course>316.84467</course><type>1</type></trkpt>
      <trkpt lat="39.207383148598915" lon="-6.12107272622608"><ele>955</ele><speed>11.32</speed><time>2016-07-09T12:41:42Z</time><pdop>8.0</pdop><geoidheight>50.60</geoidheight><course>339.39453</course><type>1</type></trkpt>
      <trkpt lat="39.20756155810192" lon="-6.12114304157416"><ele>957</ele><speed>9.75</speed><time>2016-07-09T12:41:44Z</time><pdop>8.0</pdop><geoidheight>50.60</geoidheight><course>345.80783</course><type>1</type></trkpt>
      <trkpt lat="39.207728826098176" lon="-6.121117284356691"><ele>959</ele><speed>9.76</speed><time>2016-07-09T12:41:45Z</time><pdop>8.0</pdop><geoidheight>50.60</geoidheight><course>16.836308</course><type>1</type></trkpt>
      <trkpt lat="39.20786922908755" lon="-6.121037082689995"><ele>961</ele><speed>8.66</speed><time>2016-07-09T12:41:48Z</time><pdop>8.0</pdop><geoidheight>50.60</geoidheight><course>28.24895</course><type>1</type></trkpt>
      <trkpt lat="39.2080333670038" lon="-6.120870565838289"><ele>963</ele><speed>6.36</speed><time>2016-07-09T12:41:51Z</time><pdop>8.0</pdop><geoidheight>50.60</geoidheight><course>47.10199</course><type>1</type></trkpt>
      <trkpt lat="39.207929356463985" lon="-6.120638354667568"><ele>960</ele><speed>5.46</speed><time>2016-07-09T12:41:58Z</time><pdop>8.0</pdop><geoidheight>50.60</geoidheight><course>165.4629</course><type>1</type></trkpt>
      <trkpt lat="39.20773170460476" lon="-6.120593430437315"><ele>954</ele><speed>7.34</speed><time>2016-07-09T12:42:02Z</time><pdop>8.0</pdop><geoidheight>50.60</geoidheight><course>166.51254</course><type>1</type></trkpt>
      <trkpt lat="39.207553814787175" lon="-6.12055156926324"><ele>951</ele><speed>6.62</speed><time>2016-07-09T12:42:05Z</time><pdop>8.0</pdop><geoidheight>50.60</geoidheight><course>167.63762</course><type>1</type></trkpt>
      <trkpt lat="39.20740493213559" lon="-6.120542199411085"><ele>947</ele><speed>7.61</speed><time>2016-07-09T12:42:08Z</time><pdop>8.0</pdop><geoidheight>50.60</geoidheight><course>174.65738</course><type>1</type></trkpt>
      <trkpt lat="39.20724876660573" lon="-6.12054538873031"><ele>944</ele><speed>7.39</speed><time>2016-07-09T12:42:10Z</time><pdop>8.0</pdop><geoidheight>50.60</geoidheight><course>176.30708</course><type>1</type></trkpt>
      <trkpt lat="39.20710176538783" lon="-6.120533772374789"><ele>942</ele><speed>7.63</speed><time>2016-07-09T12:42:12Z</time><pdop>8.0</pdop><geoidheight>50.60</geoidheight><course>171.92453</course><type>1</type></trkpt>
      <trkpt lat="39.20692061930834" lon="-6.120478146312999"><ele>938</ele><speed>7.10</speed><time>2016-07-09T12:42:15Z</time><pdop>8.0</pdop><geoidheight>50.60</geoidheight><course>167.0675</course><type>1</type></trkpt>
      <trkpt lat="39.20674657375152" lon="-6.12043525319097"><ele>936</ele><speed>7.96</speed><time>2016-07-09T12:42:18Z</time><pdop>8.0</pdop><geoidheight>50.60</geoidheight><course>170.39433</course><type>1</type></trkpt>
      <trkpt lat="39.20659255760366" lon="-6.120404090294065"><ele>936</ele><speed>7.90</speed><time>2016-07-09T12:42:20Z</time><pdop>8.0</pdop><geoidheight>50.60</geoidheight><course>168.80646</course><type>1</type></trkpt>
      <trkpt lat="39.20643736899762" lon="-6.12036881014462"><ele>936</ele><speed>7.82</speed><time>2016-07-09T12:42:22Z</time><pdop>8.0</pdop><geoidheight>50.60</geoidheight><course>169.2529</course><type>1</type></trkpt>
      <trkpt lat="39.206269487317414" lon="-6.1203327651293975"><ele>935</ele><speed>10.04</speed><time>2016-07-09T12:42:24Z</time><pdop>8.0</pdop><geoidheight>50.60</geoidheight><course>169.3097</course><type>1</type></trkpt>
      <trkpt lat="39.20609699884912" lon="-6.120297537327907"><ele>934</ele><speed>9.64</speed><time>2016-07-09T12:42:26Z</time><pdop>8.0</pdop><geoidheight>50.60</geoidheight><course>171.09953</course><type>1</type></trkpt>
      <trkpt lat="39.205920538869094" lon="-6.120284437928698"><ele>933</ele><speed>9.87</speed><time>2016-07-09T12:42:28Z</time><pdop>8.0</pdop><geoidheight>50.60</geoidheight><course>175.29341</course><type>1</type></trkpt>
      <trkpt lat="39.20563950543974" lon="-6.120286695356817"><ele>930</ele><speed>10.78</speed><time>2016-07-09T12:42:31Z</time><pdop>8.0</pdop><geoidheight>50.60</geoidheight><course>176.83261</course><type>1</type></trkpt>
      <trkpt lat="39.205442510712864" lon="-6.1202948161903565"><ele>928</ele><speed>10.20</speed><time>2016-07-09T12:42:32Z</time><pdop>8.0</pdop><geoidheight>50.60</geoidheight><course>178.96515</course><type>1</type></trkpt>
      <trkpt lat="39.205272899412435" lon="-6.120308921123296"><ele>927</ele><speed>8.88</speed><time>2016-07-09T12:42:35Z</time><pdop>8.0</pdop><geoidheight>50.60</geoidheight><course>181.04709</course><type>1</type></trkpt>
      <trkpt lat="39.2051129657507" lon="-6.120332456066878"><ele>926</ele><speed>10.08</speed><time>2016-07-09T12:42:36Z</time><pdop>8.0</pdop><geoidheight>50.60</geoidheight><course>184.03049</course><type>1</type></trkpt>
      <trkpt lat="39.204933925861184" lon="-6.120372694727365"><ele>925</ele><speed>10.18</speed><time>2016-07-09T12:42:39Z</time><pdop>8.0</pdop><geoidheight>50.60</geoidheight><course>186.29681</course><type>1</type></trkpt>
      <trkpt lat="39.20476246752569" lon="-6.120413848234381"><ele>926</ele><speed>9.87</speed><time>2016-07-09T12:42:41Z</time><pdop>8.0</pdop><geoidheight>50.60</geoidheight><course>186.87332</course><type>1</type></trkpt>
      <trkpt lat="39.204565177905444" lon="-6.120463926258426"><ele>927</ele><speed>10.33</speed><time>2016-07-09T12:42:43Z</time><pdop>8.0</pdop><geoidheight>50.60</geoidheight><course>189.43848</course><type>1</type></trkpt>
      <trkpt lat="39.20438272942682" lon="-6.120528991557857"><ele>929</ele><speed>9.41</speed><time>2016-07-09T12:42:44Z</time><pdop>8.0</pdop><geoidheight>50.60</geoidheight><course>194.80168</course><type>1</type></trkpt>
      <trkpt lat="39.204144662919376" lon="-6.120603581992177"><ele>930</ele><speed>9.56</speed><time>2016-07-09T12:42:48Z</time><pdop>8.0</pdop><geoidheight>50.60</geoidheight><course>192.48079</course><type>1</type></trkpt>
      <trkpt lat="39.203969598837865" lon="-6.120651414482974"><ele>931</ele><speed>9.94</speed><time>2016-07-09T12:42:50Z</time><pdop>8.0</pdop><geoidheight>50.60</geoidheight><course>190.80943</course><type>1</type></trkpt>
      <trkpt lat="39.20381356626575" lon="-6.120688922695185"><ele>933</ele><speed>10.35</speed><time>2016-07-09T12:42:52Z</time><pdop>8.0</pdop><geoidheight>50.60</geoidheight><course>189.39798</course><type>1</type></trkpt>
      <trkpt lat="39.20364291584901" lon="-6.120723845026199"><ele>936</ele><speed>11.15</speed><time>2016-07-09T12:42:54Z</time><pdop>8.0</pdop><geoidheight>50.60</geoidheight><course>188.24944</course><type>1</type></trkpt>
      <trkpt lat="39.20346714235897" lon="-6.120732719882298"><ele>940</ele><speed>9.38</speed><time>2016-07-09T12:42:56Z</time><pdop>8.0</pdop><geoidheight>50.60</geoidheight><course>183.11108</course><type>1</type></trkpt>
      <trkpt lat="39.203307817142004" lon="-6.120728425820418"><ele>944</ele><speed>8.71</speed><time>2016-07-09T12:42:58Z</time><pdop>8.0</pdop><geoidheight>50.60</geoidheight><course>181.86935</course><type>1</type></trkpt>
      <trkpt lat="39.203138792059065" lon="-6.120844145193371"><ele>949</ele><speed>9.27</speed><time>2016-07-09T12:43:01Z</time><pdop>12.0</pdop><geoidheight>50.60</geoidheight><course>234.12025</course><type>1</type></trkpt>
      <trkpt lat="39.203145026499406" lon="-6.121168499911416"><ele>952</ele><speed>11.18</speed><time>2016-07-09T12:43:03Z</time><pdop>12.0</pdop><geoidheight>50.60</geoidheight><course>295.0205</course><type>1</type></trkpt>
      <trkpt lat="39.20336828640206" lon="-6.121367449775766"><ele>954</ele><speed>10.98</speed><time>2016-07-09T12:43:07Z</time><pdop>12.0</pdop><geoidheight>50.60</geoidheight><course>342.2714</course><type>1</type></trkpt>
      <trkpt lat="39.20361073612081" lon="-6.121332076884988"><ele>954</ele><speed>9.73</speed><time>2016-07-09T12:43:10Z</time><pdop>12.0</pdop><geoidheight>50.60</geoidheight><course>18.232239</course><type>1</type></trkpt>
      <trkpt lat="39.20377216615161" lon="-6.121167638812081"><ele>954</ele><speed>7.63</speed><time>2016-07-09T12:43:13Z</time><pdop>8.0</pdop><geoidheight>50.60</geoidheight><course>62.368587</course><type>1</type></trkpt>
      <trkpt lat="39.203812884179364" lon="-6.120942219248831"><ele>956</ele><speed>6.75</speed><time>2016-07-09T12:43:16Z</time><pdop>8.0</pdop><geoidheight>50.60</geoidheight><course>85.01571</course><type>1</type></trkpt>
      <trkpt lat="39.203824575604145" lon="-6.120737558975929"><ele>958</ele><speed>6.90</speed><time>2016-07-09T12:43:19Z</time><pdop>8.0</pdop><geoidheight>50.60</geoidheight><course>83.87356</course><type>1</type></trkpt>
      <trkpt lat="39.20380857408799" lon="-6.12051668711001"><ele>961</ele><speed>6.20</speed><time>2016-07-09T12:43:22Z</time><pdop>8.0</pdop><geoidheight>50.60</geoidheight><course>105.90106</course><type>1</type></trkpt>
      <trkpt lat="39.20370517909223" lon="-6.120249677552069"><ele>965</ele><speed>6.85</speed><time>2016-07-09T12:43:26Z</time><pdop>12.0</pdop><geoidheight>50.60</geoidheight><course>122.129395</course><type>1</type></trkpt>
      <trkpt lat="39.203571523976414" lon="-6.120063843399799"><ele>968</ele><speed>7.98</speed><time>2016-07-09T12:43:29Z</time><pdop>8.0</pdop><geoidheight>50.60</geoidheight><course>149.93918</course><type>1</type></trkpt>
      <trkpt lat="39.203386986078264" lon="-6.120093860176308"><ele>970</ele><speed>11.39</speed><time>2016-07-09T12:43:31Z</time><pdop>12.0</pdop><geoidheight>50.60</geoidheight><course>206.73099</course><type>1</type></trkpt>
      <trkpt lat="39.20330582278178" lon="-6.120435777744847"><ele>975</ele><speed>7.27</speed><time>2016-07-09T12:43:35Z</time><pdop>12.0</pdop><geoidheight>50.60</geoidheight><course>289.85196</course><type>1</type></trkpt>
      <trkpt lat="39.20347191954548" lon="-6.120700817179399"><ele>983</ele><speed>12.08</speed><time>2016-07-09T12:43:37Z</time><pdop>8.0</pdop><geoidheight>50.60</geoidheight><course>321.26282</course><type>1</type></trkpt>
      <trkpt lat="39.203679660328966" lon="-6.1207786877814305"><ele>989</ele><speed>10.00</speed><time>2016-07-09T12:43:40Z</time><pdop>8.0</pdop><geoidheight>50.60</geoidheight><course>358.00934</course><type>1</type></trkpt>
      <trkpt lat="39.20381530359843" lon="-6.120712379216018"><ele>994</ele><speed>7.88</speed><time>2016-07-09T12:43:42Z</time><pdop>8.0</pdop><geoidheight>50.60</geoidheight><course>41.291573</course><type>1</type></trkpt>
      <trkpt lat="39.20382395386144" lon="-6.120508171766538"><ele>996</ele><speed>7.70</speed><time>2016-07-09T12:43:45Z</time><pdop>8.0</pdop><geoidheight>50.60</geoidheight><course>108.66506</course><type>1</type></trkpt>
      <trkpt lat="39.20368079797697" lon="-6.1203699436677015"><ele>998</ele><speed>6.66</speed><time>2016-07-09T12:43:48Z</time><pdop>8.0</pdop><geoidheight>50.60</geoidheight><course>149.59373</course><type>1</type></trkpt>
      <trkpt lat="39.20351927796326" lon="-6.120299668435131"><ele>1000</ele><speed>8.64</speed><time>2016-07-09T12:43:51Z</time><pdop>8.0</pdop><geoidheight>50.60</geoidheight><course>173.46075</course><type>1</type></trkpt>
      <trkpt lat="39.20339163912947" lon="-6.120522107357264"><ele>1005</ele><speed>10.20</speed><time>2016-07-09T12:43:54Z</time><pdop>12.0</pdop><geoidheight>50.60</geoidheight><course>270.7377</course><type>1</type></trkpt>
      <trkpt lat="39.203565739088035" lon="-6.120758664965236"><ele>1014</ele><speed>12.43</speed><time>2016-07-09T12:43:58Z</time><pdop>12.0</pdop><geoidheight>50.60</geoidheight><course>330.51453</course><type>1</type></trkpt>
      <trkpt lat="39.203764376353554" lon="-6.12076711806029"><ele>1023</ele><speed>9.54</speed><time>2016-07-09T12:44:00Z</time><pdop>8.0</pdop><geoidheight>50.60</geoidheight><course>10.724384</course><type>1</type></trkpt>
      <trkpt lat="39.203905850642194" lon="-6.120661762952208"><ele>1030</ele><speed>8.57</speed><time>2016-07-09T12:44:01Z</time><pdop>8.0</pdop><geoidheight>50.60</geoidheight><course>47.34496</course><type>1</type></trkpt>
      <trkpt lat="39.203836620099125" lon="-6.120417058831935"><ele>1037</ele><speed>8.28</speed><time>2016-07-09T12:44:06Z</time><pdop>12.0</pdop><geoidheight>50.60</geoidheight><course>157.54219</course><type>1</type></trkpt>
      <trkpt lat="39.20357071710345" lon="-6.120509976208759"><ele>1040</ele><speed>12.92</speed><time>2016-07-09T12:44:09Z</time><pdop>16.0</pdop><geoidheight>50.60</geoidheight><course>210.24084</course><type>1</type></trkpt>
      <trkpt lat="39.20336265164014" lon="-6.120772656546452"><ele>1044</ele><speed>7.61</speed><time>2016-07-09T12:44:13Z</time><pdop>16.0</pdop><geoidheight>50.60</geoidheight><course>229.015</course><type>1</type></trkpt>
      <trkpt lat="39.20332970466109" lon="-6.121077528006374"><ele>1053</ele><speed>12.42</speed><time>2016-07-09T12:44:15Z</time><pdop>8.0</pdop><geoidheight>50.60</geoidheight><course>266.06085</course><type>1</type></trkpt>
      <trkpt lat="39.20344127308332" lon="-6.121307521101534"><ele>1058</ele><speed>11.99</speed><time>2016-07-09T12:44:18Z</time><pdop>12.0</pdop><geoidheight>50.60</geoidheight><course>311.27615</course><type>1</type></trkpt>
      <trkpt lat="39.2037281873692" lon="-6.121423823073012"><ele>1066</ele><speed>10.81</speed><time>2016-07-09T12:44:20Z</time><pdop>8.0</pdop><geoidheight>50.60</geoidheight><course>6.2890706</course><type>1</type></trkpt>
      <trkpt lat="39.203891260763356" lon="-6.12137193670824"><ele>1071</ele><speed>8.52</speed><time>2016-07-09T12:44:22Z</time><pdop>8.0</pdop><geoidheight>50.60</geoidheight><course>25.970615</course><type>1</type></trkpt>
      <trkpt lat="39.203864261326224" lon="-6.121114915125857"><ele>1081</ele><speed>6.57</speed><time>2016-07-09T12:44:27Z</time><pdop>12.0</pdop><geoidheight>50.60</geoidheight><course>89.15998</course><type>1</type></trkpt>
      <trkpt lat="39.203650037561154" lon="-6.1210241259686935"><ele>1079</ele><speed>7.60</speed><time>2016-07-09T12:44:31Z</time><pdop>12.0</pdop><geoidheight>50.60</geoidheight><course>165.01642</course><type>1</type></trkpt>
      <trkpt lat="39.20339724185456" lon="-6.120940562661437"><ele>1076</ele><speed>7.11</speed><time>2016-07-09T12:44:36Z</time><pdop>12.0</pdop><geoidheight>50.60</geoidheight><course>168.39365</course><type>1</type></trkpt>
      <trkpt lat="39.20317562099375" lon="-6.120889338205795"><ele>1080</ele><speed>8.09</speed><time>2016-07-09T12:44:39Z</time><pdop>12.0</pdop><geoidheight>50.60</geoidheight><course>176.64804</course><type>1</type></trkpt>
      <trkpt lat="39.202936956015485" lon="-6.120837216713286"><ele>1091</ele><speed>3.90</speed><time>2016-07-09T12:44:45Z</time><pdop>12.0</pdop><geoidheight>50.60</geoidheight><course>181.95012</course><type>1</type></trkpt>
      <trkpt lat="39.20291915220394" lon="-6.121227353292829"><ele>1101</ele><speed>15.05</speed><time>2016-07-09T12:44:49Z</time><pdop>16.0</pdop><geoidheight>50.60</geoidheight><course>292.05045</course><type>1</type></trkpt>
      <trkpt lat="39.20319038705403" lon="-6.121455354756962"><ele>1104</ele><speed>12.34</speed><time>2016-07-09T12:44:51Z</time><pdop>12.0</pdop><geoidheight>50.60</geoidheight><course>347.53503</course><type>1</type></trkpt>
      <trkpt lat="39.20340460550813" lon="-6.121395939347416"><ele>1107</ele><speed>11.58</speed><time>2016-07-09T12:44:54Z</time><pdop>12.0</pdop><geoidheight>50.60</geoidheight><course>12.215502</course><type>1</type></trkpt>
      <trkpt lat="39.203514871995026" lon="-6.121141426982045"><ele>1114</ele><speed>5.63</speed><time>2016-07-09T12:44:57Z</time><pdop>12.0</pdop><geoidheight>50.60</geoidheight><course>109.73845</course><type>1</type></trkpt>
      <trkpt lat="39.20335596105881" lon="-6.1209916170211605"><ele>1118</ele><speed>4.81</speed><time>2016-07-09T12:45:01Z</time><pdop>8.0</pdop><geoidheight>50.60</geoidheight><course>166.81158</course><type>1</type></trkpt>
      <trkpt lat="39.20315746609448" lon="-6.121036558049797"><ele>1122</ele><speed>5.43</speed><time>2016-07-09T12:45:07Z</time><pdop>8.0</pdop><geoidheight>50.60</geoidheight><course>204.57205</course><type>1</type></trkpt>
      <trkpt lat="39.20299099909326" lon="-6.121002149527287"><ele>1124</ele><speed>4.68</speed><time>2016-07-09T12:45:10Z</time><pdop>6.0</pdop><geoidheight>50.60</geoidheight><course>153.77643</course><type>1</type></trkpt>
      <trkpt lat="39.20288476570193" lon="-6.120904484985634"><ele>1122</ele><speed>5.61</speed><time>2016-07-09T12:45:14Z</time><pdop>8.0</pdop><geoidheight>50.60</geoidheight><course>159.88644</course><type>1</type></trkpt>
      <trkpt lat="39.20271611373951" lon="-6.120835664331925"><ele>1120</ele><speed>3.96</speed><time>2016-07-09T12:45:18Z</time><pdop>8.0</pdop><geoidheight>50.60</geoidheight><course>148.66566</course><type>1</type></trkpt>
      <trkpt lat="39.202695324500056" lon="-6.1206425164308635"><ele>1118</ele><speed>8.81</speed><time>2016-07-09T12:45:22Z</time><pdop>8.0</pdop><geoidheight>50.60</geoidheight><course>62.402775</course><type>1</type></trkpt>
      <trkpt lat="39.202897871394875" lon="-6.120526492321371"><ele>1117</ele><speed>11.09</speed><time>2016-07-09T12:45:25Z</time><pdop>12.0</pdop><geoidheight>50.60</geoidheight><course>5.9779487</course><type>1</type></trkpt>
      <trkpt lat="39.20307318854598" lon="-6.120598839993792"><ele>1116</ele><speed>12.14</speed><time>2016-07-09T12:45:26Z</time><pdop>8.0</pdop><geoidheight>50.60</geoidheight><course>336.06216</course><type>1</type></trkpt>
      <trkpt lat="39.20323607157672" lon="-6.120717114842293"><ele>1115</ele><speed>11.67</speed><time>2016-07-09T12:45:29Z</time><pdop>8.0</pdop><geoidheight>50.60</geoidheight><course>329.965</course><type>1</type></trkpt>
      <trkpt lat="39.20336234754208" lon="-6.120892037962759"><ele>1116</ele><speed>10.80</speed><time>2016-07-09T12:45:31Z</time><pdop>6.0</pdop><geoidheight>50.60</geoidheight><course>314.90253</course><type>1</type></trkpt>
      <trkpt lat="39.20350818111942" lon="-6.12107480140992"><ele>1117</ele><speed>10.89</speed><time>2016-07-09T12:45:33Z</time><pdop>6.0</pdop><geoidheight>50.60</geoidheight><course>315.698</course><type>1</type></trkpt>
      <trkpt lat="39.20367412911878" lon="-6.121206662802845"><ele>1118</ele><speed>10.28</speed><time>2016-07-09T12:45:34Z</time><pdop>6.0</pdop><geoidheight>50.60</geoidheight><course>337.29602</course><type>1</type></trkpt>
      <trkpt lat="39.20386574042927" lon="-6.121271887727573"><ele>1120</ele><speed>9.92</speed><time>2016-07-09T12:45:37Z</time><pdop>8.0</pdop><geoidheight>50.60</geoidheight><course>353.42795</course><type>1</type></trkpt>
      <trkpt lat="39.20404276346786" lon="-6.12129262851478"><ele>1121</ele><speed>9.78</speed><time>2016-07-09T12:45:39Z</time><pdop>8.0</pdop><geoidheight>50.60</geoidheight><course>356.00266</course><type>1</type></trkpt>
      <trkpt lat="39.20422699986718" lon="-6.121292827289968"><ele>1124</ele><speed>10.18</speed><time>2016-07-09T12:45:41Z</time><pdop>6.0</pdop><geoidheight>50.60</geoidheight><course>359.41342</course><type>1</type></trkpt>
      <trkpt lat="39.204404354333846" lon="-6.12125247336166"><ele>1129</ele><speed>8.58</speed><time>2016-07-09T12:45:43Z</time><pdop>6.0</pdop><geoidheight>50.60</geoidheight><course>4.8464894</course><type>1</type></trkpt>
      <trkpt lat="39.204551587430224" lon="-6.121191922920916"><ele>1134</ele><speed>5.91</speed><time>2016-07-09T12:45:45Z</time><pdop>6.0</pdop><geoidheight>50.60</geoidheight><course>27.144608</course><type>1</type></trkpt>
      <trkpt lat="39.20446037525867" lon="-6.120956306554789"><ele>1138</ele><speed>8.57</speed><time>2016-07-09T12:45:50Z</time><pdop>12.0</pdop><geoidheight>50.60</geoidheight><course>137.97205</course><type>1</type></trkpt>
      <trkpt lat="39.204273271461325" lon="-6.121245056905411"><ele>1145</ele><speed>12.00</speed><time>2016-07-09T12:45:53Z</time><pdop>16.0</pdop><geoidheight>50.60</geoidheight><course>258.99023</course><type>1</type></trkpt>
      <trkpt lat="39.20450367894957" lon="-6.121569912784537"><ele>1150</ele><speed>10.91</speed><time>2016-07-09T12:45:56Z</time><pdop>12.0</pdop><geoidheight>50.60</geoidheight><course>346.90454</course><type>1</type></trkpt>
      <trkpt lat="39.204436477665226" lon="-6.121815342274543"><ele>1164</ele><speed>11.96</speed><time>2016-07-09T12:46:08Z</time><pdop>8.0</pdop><geoidheight>50.60</geoidheight><course>296.0891</course><type>1</type></trkpt>
      <trkpt lat="39.20457977939882" lon="-6.12201518039112"><ele>1167</ele><speed>10.96</speed><time>2016-07-09T12:46:10Z</time><pdop>8.0</pdop><geoidheight>50.60</geoidheight><course>325.99948</course><type>1</type></trkpt>
      <trkpt lat="39.2047452070466" lon="-6.122157489124389"><ele>1172</ele><speed>9.89</speed><time>2016-07-09T12:46:12Z</time><pdop>8.0</pdop><geoidheight>50.60</geoidheight><course>346.74426</course><type>1</type></trkpt>
      <trkpt lat="39.20490270993267" lon="-6.122184086784191"><ele>1175</ele><speed>9.32</speed><time>2016-07-09T12:46:14Z</time><pdop>6.0</pdop><geoidheight>50.60</geoidheight><course>12.518894</course><type>1</type></trkpt>
      <trkpt lat="39.20500832003755" lon="-6.122064929043892"><ele>1178</ele><speed>5.00</speed><time>2016-07-09T12:46:17Z</time><pdop>8.0</pdop><geoidheight>50.60</geoidheight><course>70.009766</course><type>1</type></trkpt>
      <trkpt lat="39.20489232364682" lon="-6.121939619778204"><ele>1181</ele><speed>6.93</speed><time>2016-07-09T12:46:20Z</time><pdop>8.0</pdop><geoidheight>50.60</geoidheight><course>163.80655</course><type>1</type></trkpt>
      <trkpt lat="39.2046975850437" lon="-6.121976397799651"><ele>1182</ele><speed>7.80</speed><time>2016-07-09T12:46:23Z</time><pdop>12.0</pdop><geoidheight>50.60</geoidheight><course>191.59187</course><type>1</type></trkpt>
      <trkpt lat="39.204574312915675" lon="-6.122249076930412"><ele>1186</ele><speed>11.04</speed><time>2016-07-09T12:46:26Z</time><pdop>12.0</pdop><geoidheight>50.60</geoidheight><course>273.9816</course><type>1</type></trkpt>
      <trkpt lat="39.20477508682445" lon="-6.122605791548876"><ele>1189</ele><speed>15.85</speed><time>2016-07-09T12:46:30Z</time><pdop>12.0</pdop><geoidheight>50.60</geoidheight><course>326.23538</course><type>1</type></trkpt>
      <trkpt lat="39.205045983487516" lon="-6.1227262580775"><ele>1191</ele><speed>13.81</speed><time>2016-07-09T12:46:31Z</time><pdop>8.0</pdop><geoidheight>50.60</geoidheight><course>348.4657</course><type>1</type></trkpt>
      <trkpt lat="39.205244259608186" lon="-6.122772653254139"><ele>1193</ele><speed>8.62</speed><time>2016-07-09T12:46:33Z</time><pdop>8.0</pdop><geoidheight>50.60</geoidheight><course>350.38702</course><type>1</type></trkpt>
      <trkpt lat="39.20549091796718" lon="-6.1226984483067115"><ele>1195</ele><speed>9.27</speed><time>2016-07-09T12:46:37Z</time><pdop>8.0</pdop><geoidheight>50.60</geoidheight><course>28.191183</course><type>1</type></trkpt>
      <trkpt lat="39.205588388736665" lon="-6.122501392030375"><ele>1199</ele><speed>5.31</speed><time>2016-07-09T12:46:40Z</time><pdop>12.0</pdop><geoidheight>50.60</geoidheight><course>86.1051</course><type>1</type></trkpt>
      <trkpt lat="39.20543322924732" lon="-6.1223419874181815"><ele>1202</ele><speed>4.92</speed><time>2016-07-09T12:46:45Z</time><pdop>8.0</pdop><geoidheight>50.60</geoidheight><course>168.94829</course><type>1</type></trkpt>
      <trkpt lat="39.205268587142974" lon="-6.122471727568272"><ele>1208</ele><speed>9.38</speed><time>2016-07-09T12:46:49Z</time><pdop>12.0</pdop><geoidheight>50.60</geoidheight><course>244.44379</course><type>1</type></trkpt>
      <trkpt lat="39.20530812778736" lon="-6.122730692000014"><ele>1215</ele><speed>11.56</speed><time>2016-07-09T12:46:52Z</time><pdop>8.0</pdop><geoidheight>50.60</geoidheight><course>287.8414</course><type>1</type></trkpt>
      <trkpt lat="39.205421845661164" lon="-6.122945425276873"><ele>1221</ele><speed>12.62</speed><time>2016-07-09T12:46:54Z</time><pdop>12.0</pdop><geoidheight>50.60</geoidheight><course>311.23508</course><type>1</type></trkpt>
      <trkpt lat="39.205646660514624" lon="-6.123031321137319"><ele>1225</ele><speed>12.34</speed><time>2016-07-09T12:46:56Z</time><pdop>8.0</pdop><geoidheight>50.60</geoidheight><course>354.2232</course><type>1</type></trkpt>
      <trkpt lat="39.20582340994779" lon="-6.122993811733569"><ele>1229</ele><speed>9.29</speed><time>2016-07-09T12:46:58Z</time><pdop>8.0</pdop><geoidheight>50.60</geoidheight><course>23.151773</course><type>1</type></trkpt>
      <trkpt lat="39.20597336402342" lon="-6.123299077646729"><ele>1251</ele><speed>13.10</speed><time>2016-07-09T12:47:09Z</time><pdop>16.0</pdop><geoidheight>50.60</geoidheight><course>333.01175</course><type>1</type></trkpt>
      <trkpt lat="39.20628243942507" lon="-6.123400352418732"><ele>1256</ele><speed>10.69</speed><time>2016-07-09T12:47:12Z</time><pdop>12.0</pdop><geoidheight>50.60</geoidheight><course>10.409633</course><type>1</type></trkpt>
      <trkpt lat="39.20650599882882" lon="-6.123269410077148"><ele>1264</ele><speed>6.52</speed><time>2016-07-09T12:47:14Z</time><pdop>12.0</pdop><geoidheight>50.60</geoidheight><course>45.657944</course><type>1</type></trkpt>
      <trkpt lat="39.20626217424438" lon="-6.123181648573529"><ele>1280</ele><speed>8.44</speed><time>2016-07-09T12:47:21Z</time><pdop>16.0</pdop><geoidheight>50.60</geoidheight><course>215.94524</course><type>1</type></trkpt>
      <trkpt lat="39.20629852757766" lon="-6.123544816319983"><ele>1283</ele><speed>13.33</speed><time>2016-07-09T12:47:25Z</time><pdop>12.0</pdop><geoidheight>50.60</geoidheight><course>298.68503</course><type>1</type></trkpt>
      <trkpt lat="39.206587053050455" lon="-6.123782248731457"><ele>1287</ele><speed>13.64</speed><time>2016-07-09T12:47:28Z</time><pdop>12.0</pdop><geoidheight>50.60</geoidheight><course>344.72375</course><type>1</type></trkpt>
      <trkpt lat="39.20684492988079" lon="-6.123676446698289"><ele>1292</ele><speed>9.41</speed><time>2016-07-09T12:47:31Z</time><pdop>12.0</pdop><geoidheight>50.60</geoidheight><course>43.080505</course><type>1</type></trkpt>
      <trkpt lat="39.20658130780388" lon="-6.123531658069438"><ele>1328</ele><speed>7.67</speed><time>2016-07-09T12:47:39Z</time><pdop>16.0</pdop><geoidheight>50.60</geoidheight><course>209.29025</course><type>1</type></trkpt>
      <trkpt lat="39.20661033994249" lon="-6.123981055290783"><ele>1345</ele><speed>12.94</speed><time>2016-07-09T12:47:43Z</time><pdop>16.0</pdop><geoidheight>50.60</geoidheight><course>295.76184</course><type>1</type></trkpt>
      <trkpt lat="39.206880840639656" lon="-6.124095073613224"><ele>1356</ele><speed>13.34</speed><time>2016-07-09T12:47:44Z</time><pdop>12.0</pdop><geoidheight>50.60</geoidheight><course>352.11868</course><type>1</type></trkpt>
      <trkpt lat="39.20716260657849" lon="-6.124068644135331"><ele>1367</ele><speed>10.57</speed><time>2016-07-09T12:47:47Z</time><pdop>8.0</pdop><geoidheight>50.60</geoidheight><course>14.051601</course><type>1</type></trkpt>
      <trkpt lat="39.207258787895476" lon="-6.123841857400027"><ele>1378</ele><speed>7.15</speed><time>2016-07-09T12:47:50Z</time><pdop>12.0</pdop><geoidheight>50.60</geoidheight><course>103.235855</course><type>1</type></trkpt>
      <trkpt lat="39.20704798332222" lon="-6.123675949980858"><ele>1391</ele><speed>8.09</speed><time>2016-07-09T12:47:53Z</time><pdop>12.0</pdop><geoidheight>50.60</geoidheight><course>159.79037</course><type>1</type></trkpt>
      <trkpt lat="39.207103617241735" lon="-6.124139381349097"><ele>1410</ele><speed>12.38</speed><time>2016-07-09T12:47:58Z</time><pdop>24.0</pdop><geoidheight>50.60</geoidheight><course>318.2291</course><type>1</type></trkpt>
      <trkpt lat="39.207419859577186" lon="-6.12427796826535"><ele>1424</ele><speed>10.00</speed><time>2016-07-09T12:48:01Z</time><pdop>12.0</pdop><geoidheight>50.60</geoidheight><course>18.192282</course><type>1</type></trkpt>
      <trkpt lat="39.20761807857956" lon="-6.124152602255956"><ele>1435</ele><speed>7.03</speed><time>2016-07-09T12:48:04Z</time><pdop>12.0</pdop><geoidheight>50.60</geoidheight><course>50.070774</course><type>1</type></trkpt>
      <trkpt lat="39.20758539758215" lon="-6.123824501417901"><ele>1446</ele><speed>8.96</speed><time>2016-07-09T12:48:09Z</time><pdop>12.0</pdop><geoidheight>50.60</geoidheight><course>98.40772</course><type>1</type></trkpt>
      <trkpt lat="39.20735601918844" lon="-6.123888149825608"><ele>1457</ele><speed>7.44</speed><time>2016-07-09T12:48:12Z</time><pdop>12.0</pdop><geoidheight>50.60</geoidheight><course>238.09537</course><type>1</type></trkpt>
      <trkpt lat="39.207435341101416" lon="-6.124231972743407"><ele>1467</ele><speed>10.14</speed><time>2016-07-09T12:48:14Z</time><pdop>12.0</pdop><geoidheight>50.60</geoidheight><course>328.5622</course><type>1</type></trkpt>
      <trkpt lat="39.207678130174685" lon="-6.124152228885311"><ele>1476</ele><speed>7.80</speed><time>2016-07-09T12:48:18Z</time><pdop>12.0</pdop><geoidheight>50.60</geoidheight><course>56.226463</course><type>1</type></trkpt>
      <trkpt lat="39.20759451581272" lon="-6.123835022076669"><ele>1495</ele><speed>8.34</speed><time>2016-07-09T12:48:23Z</time><pdop>16.0</pdop><geoidheight>50.60</geoidheight><course>125.11407</course><type>1</type></trkpt>
      <trkpt lat="39.20746907234848" lon="-6.124156433023979"><ele>1516</ele><speed>7.37</speed><time>2016-07-09T12:48:27Z</time><pdop>12.0</pdop><geoidheight>50.60</geoidheight><course>202.71863</course><type>1</type></trkpt>
      <trkpt lat="39.207719522474456" lon="-6.124308619883691"><ele>1532</ele><speed>7.78</speed><time>2016-07-09T12:48:29Z</time><pdop>12.0</pdop><geoidheight>50.60</geoidheight><course>19.923027</course><type>1</type></trkpt>
      <trkpt lat="39.20789129091495" lon="-6.124132483944261"><ele>1549</ele><speed>8.23</speed><time>2016-07-09T12:48:32Z</time><pdop>12.0</pdop><geoidheight>50.60</geoidheight><course>75.870865</course><type>1</type></trkpt>
      <trkpt lat="39.20769152088593" lon="-6.12396472664335"><ele>1563</ele><speed>7.64</speed><time>2016-07-09T12:48:38Z</time><pdop>12.0</pdop><geoidheight>50.60</geoidheight><course>195.93417</course><type>1</type></trkpt>
      <trkpt lat="39.20762404546702" lon="-6.124197779536345"><ele>1572</ele><speed>8.89</speed><time>2016-07-09T12:48:41Z</time><pdop>8.0</pdop><geoidheight>50.60</geoidheight><course>272.9778</course><type>1</type></trkpt>
      <trkpt lat="39.20785489424103" lon="-6.1243829005942825"><ele>1585</ele><speed>9.52</speed><time>2016-07-09T12:48:44Z</time><pdop>12.0</pdop><geoidheight>50.60</geoidheight><course>350.266</course><type>1</type></trkpt>
      <trkpt lat="39.20806129757284" lon="-6.12434535694518"><ele>1598</ele><speed>9.69</speed><time>2016-07-09T12:48:46Z</time><pdop>8.0</pdop><geoidheight>50.60</geoidheight><course>28.345852</course><type>1</type></trkpt>
      <trkpt lat="39.20819425392192" lon="-6.124219173766533"><ele>1608</ele><speed>8.74</speed><time>2016-07-09T12:48:49Z</time><pdop>8.0</pdop><geoidheight>50.60</geoidheight><course>57.840683</course><type>1</type></trkpt>
      <trkpt lat="39.208151990132336" lon="-6.123957064624542"><ele>1622</ele><speed>7.72</speed><time>2016-07-09T12:48:53Z</time><pdop>12.0</pdop><geoidheight>50.60</geoidheight><course>132.92857</course><type>1</type></trkpt>
      <trkpt lat="39.20792096636998" lon="-6.123947663008817"><ele>1636</ele><speed>12.91</speed><time>2016-07-09T12:48:58Z</time><pdop>8.0</pdop><geoidheight>50.60</geoidheight><course>262.01044</course><type>1</type></trkpt>
      <trkpt lat="39.207927105411144" lon="-6.124322183033635"><ele>1645</ele><speed>8.82</speed><time>2016-07-09T12:49:01Z</time><pdop>16.0</pdop><geoidheight>50.60</geoidheight><course>285.17807</course><type>1</type></trkpt>
      <trkpt lat="39.2081817003801" lon="-6.124438571491585"><ele>1657</ele><speed>8.68</speed><time>2016-07-09T12:49:04Z</time><pdop>8.0</pdop><geoidheight>50.60</geoidheight><course>4.2844625</course><type>1</type></trkpt>
      <trkpt lat="39.20841277986652" lon="-6.124317315905661"><ele>1667</ele><speed>8.98</speed><time>2016-07-09T12:49:07Z</time><pdop>8.0</pdop><geoidheight>50.60</geoidheight><course>17.138107</course><type>1</type></trkpt>
      <trkpt lat="39.20822343716141" lon="-6.124116115893675"><ele>1677</ele><speed>7.04</speed><time>2016-07-09T12:49:10Z</time><pdop>16.0</pdop><geoidheight>50.60</geoidheight><course>181.12558</course><type>1</type></trkpt>
      <trkpt lat="39.207975772837244" lon="-6.124398083243513"><ele>1693</ele><speed>14.84</speed><time>2016-07-09T12:49:14Z</time><pdop>12.0</pdop><geoidheight>50.60</geoidheight><course>248.33755</course><type>1</type></trkpt>
      <trkpt lat="39.20795553922466" lon="-6.124684458552549"><ele>1700</ele><speed>11.45</speed><time>2016-07-09T12:49:17Z</time><pdop>12.0</pdop><geoidheight>50.60</geoidheight><course>275.98172</course><type>1</type></trkpt>
      <trkpt lat="39.20811670872181" lon="-6.124882866343989"><ele>1711</ele><speed>8.39</speed><time>2016-07-09T12:49:20Z</time><pdop>12.0</pdop><geoidheight>50.60</geoidheight><course>322.07928</course><type>1</type></trkpt>
      <trkpt lat="39.20836205101699" lon="-6.124903163800413"><ele>1722</ele><speed>10.93</speed><time>2016-07-09T12:49:22Z</time><pdop>12.0</pdop><geoidheight>50.60</geoidheight><course>26.3006</course><type>1</type></trkpt>
      <trkpt lat="39.208357594913785" lon="-6.12462057139604"><ele>1731</ele><speed>6.33</speed><time>2016-07-09T12:49:26Z</time><pdop>12.0</pdop><geoidheight>50.60</geoidheight><course>149.04738</course><type>1</type></trkpt>
      <trkpt lat="39.20813772287928" lon="-6.124600208061478"><ele>1737</ele><speed>9.67</speed><time>2016-07-09T12:49:29Z</time><pdop>12.0</pdop><geoidheight>50.60</geoidheight><course>181.9033</course><type>1</type></trkpt>
      <trkpt lat="39.20794220525569" lon="-6.124869731652038"><ele>1745</ele><speed>10.75</speed><time>2016-07-09T12:49:32Z</time><pdop>8.0</pdop><geoidheight>50.60</geoidheight><course>247.732</course><type>1</type></trkpt>
      <trkpt lat="39.20802273672821" lon="-6.125115733490427"><ele>1749</ele><speed>11.93</speed><time>2016-07-09T12:49:34Z</time><pdop>8.0</pdop><geoidheight>50.60</geoidheight><course>308.03983</course><type>1</type></trkpt>
      <trkpt lat="39.208202776530925" lon="-6.1252428922674405"><ele>1754</ele><speed>10.33</speed><time>2016-07-09T12:49:36Z</time><pdop>12.0</pdop><geoidheight>50.60</geoidheight><course>340.84167</course><type>1</type></trkpt>
      <trkpt lat="39.2084409694016" lon="-6.125265319564542"><ele>1764</ele><speed>8.61</speed><time>2016-07-09T12:49:40Z</time><pdop>8.0</pdop><geoidheight>50.60</geoidheight><course>27.064983</course><type>1</type></trkpt>
      <trkpt lat="39.20861149507025" lon="-6.125086228064798"><ele>1775</ele><speed>7.47</speed><time>2016-07-09T12:49:42Z</time><pdop>12.0</pdop><geoidheight>50.60</geoidheight><course>52.67182</course><type>1</type></trkpt>
      <trkpt lat="39.20873346539512" lon="-6.1248886263151325"><ele>1783</ele><speed>7.34</speed><time>2016-07-09T12:49:45Z</time><pdop>8.0</pdop><geoidheight>50.60</geoidheight><course>51.92277</course><type>1</type></trkpt>
      <trkpt lat="39.20882158188283" lon="-6.12473099618841"><ele>1787</ele><speed>8.02</speed><time>2016-07-09T12:49:47Z</time><pdop>8.0</pdop><geoidheight>50.60</geoidheight><course>56.563396</course><type>1</type></trkpt>
      <trkpt lat="39.2088784829819" lon="-6.124533534621976"><ele>1790</ele><speed>7.56</speed><time>2016-07-09T12:49:50Z</time><pdop>8.0</pdop><geoidheight>50.60</geoidheight><course>72.84109</course><type>1</type></trkpt>
      <trkpt lat="39.20893452563332" lon="-6.124348619921775"><ele>1794</ele><speed>7.30</speed><time>2016-07-09T12:49:51Z</time><pdop>8.0</pdop><geoidheight>50.60</geoidheight><course>69.55498</course><type>1</type></trkpt>
      <trkpt lat="39.208760346547535" lon="-6.1241484120145095"><ele>1801</ele><speed>10.27</speed><time>2016-07-09T12:49:57Z</time><pdop>16.0</pdop><geoidheight>50.60</geoidheight><course>194.25632</course><type>1</type></trkpt>
      <trkpt lat="39.208551039830354" lon="-6.12434015524493"><ele>1807</ele><speed>10.30</speed><time>2016-07-09T12:49:59Z</time><pdop>8.0</pdop><geoidheight>50.60</geoidheight><course>229.53247</course><type>1</type></trkpt>
      <trkpt lat="39.20845417940807" lon="-6.124544548955396"><ele>1813</ele><speed>10.85</speed><time>2016-07-09T12:50:02Z</time><pdop>8.0</pdop><geoidheight>50.60</geoidheight><course>251.87254</course><type>1</type></trkpt>
      <trkpt lat="39.2084573524682" lon="-6.124796976747227"><ele>1819</ele><speed>11.09</speed><time>2016-07-09T12:50:03Z</time><pdop>8.0</pdop><geoidheight>50.60</geoidheight><course>282.95657</course><type>1</type></trkpt>
      <trkpt lat="39.20854556826881" lon="-6.125016503363609"><ele>1824</ele><speed>10.46</speed><time>2016-07-09T12:50:05Z</time><pdop>8.0</pdop><geoidheight>50.60</geoidheight><course>314.64102</course><type>1</type></trkpt>
      <trkpt lat="39.208691805024294" lon="-6.125121030211914"><ele>1829</ele><speed>9.52</speed><time>2016-07-09T12:50:08Z</time><pdop>8.0</pdop><geoidheight>50.60</geoidheight><course>335.432</course><type>1</type></trkpt>
      <trkpt lat="39.20885374901023" lon="-6.1251293678520735"><ele>1835</ele><speed>8.36</speed><time>2016-07-09T12:50:09Z</time><pdop>8.0</pdop><geoidheight>50.60</geoidheight><course>10.281747</course><type>1</type></trkpt>
      <trkpt lat="39.2089978511837" lon="-6.124987131994787"><ele>1843</ele><speed>6.89</speed><time>2016-07-09T12:50:12Z</time><pdop>8.0</pdop><geoidheight>50.60</geoidheight><course>70.65797</course><type>1</type></trkpt>
      <trkpt lat="39.208837316892655" lon="-6.124782012026641"><ele>1845</ele><speed>9.11</speed><time>2016-07-09T12:50:17Z</time><pdop>12.0</pdop><geoidheight>50.60</geoidheight><course>161.6972</course><type>1</type></trkpt>
      <trkpt lat="39.20860487237389" lon="-6.124809562943424"><ele>1847</ele><speed>8.86</speed><time>2016-07-09T12:50:19Z</time><pdop>8.0</pdop><geoidheight>50.60</geoidheight><course>207.2311</course><type>1</type></trkpt>
      <trkpt lat="39.20846748561767" lon="-6.124906084807186"><ele>1850</ele><speed>8.89</speed><time>2016-07-09T12:50:22Z</time><pdop>8.0</pdop><geoidheight>50.60</geoidheight><course>211.47438</course><type>1</type></trkpt>
      <trkpt lat="39.2083805682905" lon="-6.125066363154558"><ele>1854</ele><speed>11.07</speed><time>2016-07-09T12:50:23Z</time><pdop>8.0</pdop><geoidheight>50.60</geoidheight><course>244.29352</course><type>1</type></trkpt>
      <trkpt lat="39.208383452974246" lon="-6.1252830346930764"><ele>1860</ele><speed>11.45</speed><time>2016-07-09T12:50:25Z</time><pdop>8.0</pdop><geoidheight>50.60</geoidheight><course>285.49063</course><type>1</type></trkpt>
      <trkpt lat="39.20847572462522" lon="-6.125491186155746"><ele>1865</ele><speed>10.55</speed><time>2016-07-09T12:50:27Z</time><pdop>8.0</pdop><geoidheight>50.60</geoidheight><course>307.03342</course><type>1</type></trkpt>
      <trkpt lat="39.20864731576057" lon="-6.1255765157502395"><ele>1869</ele><speed>9.59</speed><time>2016-07-09T12:50:30Z</time><pdop>8.0</pdop><geoidheight>50.60</geoidheight><course>353.04233</course><type>1</type></trkpt>
      <trkpt lat="39.208824480470206" lon="-6.125595631982261"><ele>1873</ele><speed>8.21</speed><time>2016-07-09T12:50:31Z</time><pdop>8.0</pdop><geoidheight>50.60</geoidheight><course>357.72522</course><type>1</type></trkpt>
      <trkpt lat="39.20901105320052" lon="-6.125545147178346"><ele>1880</ele><speed>7.02</speed><time>2016-07-09T12:50:34Z</time><pdop>8.0</pdop><geoidheight>50.60</geoidheight><course>26.68001</course><type>1</type></trkpt>
      <trkpt lat="39.209066636284604" lon="-6.12534772972229"><ele>1885</ele><speed>7.53</speed><time>2016-07-09T12:50:37Z</time><pdop>8.0</pdop><geoidheight>50.60</geoidheight><course>108.42762</course><type>1</type></trkpt>
      <trkpt lat="39.20884518077914" lon="-6.125251588382665"><ele>1889</ele><speed>10.23</speed><time>2016-07-09T12:50:40Z</time><pdop>16.0</pdop><geoidheight>50.60</geoidheight><course>184.8805</course><type>1</type></trkpt>
      <trkpt lat="39.20859437793366" lon="-6.125400417398951"><ele>1895</ele><speed>9.90</speed><time>2016-07-09T12:50:44Z</time><pdop>8.0</pdop><geoidheight>50.60</geoidheight><course>223.39366</course><type>1</type></trkpt>
      <trkpt lat="39.20852021284417" lon="-6.125572639254473"><ele>1899</ele><speed>8.23</speed><time>2016-07-09T12:50:46Z</time><pdop>8.0</pdop><geoidheight>50.60</geoidheight><course>244.38745</course><type>1</type></trkpt>
      <trkpt lat="39.20849695418966" lon="-6.125815522289935"><ele>1902</ele><speed>12.03</speed><time>2016-07-09T12:50:49Z</time><pdop>8.0</pdop><geoidheight>50.60</geoidheight><course>266.09802</course><type>1</type></trkpt>
      <trkpt lat="39.208560969250314" lon="-6.1260692992091474"><ele>1905</ele><speed>11.69</speed><time>2016-07-09T12:50:50Z</time><pdop>12.0</pdop><geoidheight>50.60</geoidheight><course>290.7835</course><type>1</type></trkpt>
      <trkpt lat="39.208768058467626" lon="-6.126271226785833"><ele>1909</ele><speed>8.68</speed><time>2016-07-09T12:50:54Z</time><pdop>12.0</pdop><geoidheight>50.60</geoidheight><course>344.89816</course><type>1</type></trkpt>
      <trkpt lat="39.20899542501091" lon="-6.126283638669893"><ele>1915</ele><speed>8.64</speed><time>2016-07-09T12:50:56Z</time><pdop>8.0</pdop><geoidheight>50.60</geoidheight><course>11.063957</course><type>1</type></trkpt>
      <trkpt lat="39.20901888223903" lon="-6.126030447843278"><ele>1917</ele><speed>9.17</speed><time>2016-07-09T12:50:59Z</time><pdop>8.0</pdop><geoidheight>50.60</geoidheight><course>113.05546</course><type>1</type></trkpt>
      <trkpt lat="39.20885442373985" lon="-6.125887415469915"><ele>1919</ele><speed>8.67</speed><time>2016-07-09T12:51:02Z</time><pdop>12.0</pdop><geoidheight>50.60</geoidheight><course>166.44623</course><type>1</type></trkpt>
      <trkpt lat="39.208538846612456" lon="-6.125747891529479"><ele>1924</ele><speed>8.14</speed><time>2016-07-09T12:51:06Z</time><pdop>16.0</pdop><geoidheight>50.60</geoidheight><course>155.45068</course><type>1</type></trkpt>
      <trkpt lat="39.20826100886106" lon="-6.125539291010372"><ele>1926</ele><speed>8.96</speed><time>2016-07-09T12:51:11Z</time><pdop>8.0</pdop><geoidheight>50.60</geoidheight><course>147.79005</course><type>1</type></trkpt>
      <trkpt lat="39.20812539428316" lon="-6.125412584753325"><ele>1927</ele><speed>9.42</speed><time>2016-07-09T12:51:12Z</time><pdop>8.0</pdop><geoidheight>50.60</geoidheight><course>146.1294</course><type>1</type></trkpt>
      <trkpt lat="39.20798838809135" lon="-6.125285998965117"><ele>1929</ele><speed>8.36</speed><time>2016-07-09T12:51:15Z</time><pdop>8.0</pdop><geoidheight>50.60</geoidheight><course>147.9263</course><type>1</type></trkpt>
      <trkpt lat="39.20784585917455" lon="-6.125210391180648"><ele>1931</ele><speed>8.01</speed><time>2016-07-09T12:51:16Z</time><pdop>8.0</pdop><geoidheight>50.60</geoidheight><course>171.29166</course><type>1</type></trkpt>
      <trkpt lat="39.20768080368971" lon="-6.1252400965945"><ele>1934</ele><speed>11.01</speed><time>2016-07-09T12:51:19Z</time><pdop>8.0</pdop><geoidheight>50.60</geoidheight><course>203.24844</course><type>1</type></trkpt>
      <trkpt lat="39.207663620056515" lon="-6.125526600871329"><ele>1939</ele><speed>12.42</speed><time>2016-07-09T12:51:22Z</time><pdop>8.0</pdop><geoidheight>50.60</geoidheight><course>284.3326</course><type>1</type></trkpt>
      <trkpt lat="39.20769665072143" lon="-6.125744271437276"><ele>1942</ele><speed>9.75</speed><time>2016-07-09T12:51:24Z</time><pdop>8.0</pdop><geoidheight>50.60</geoidheight><course>286.59222</course><type>1</type></trkpt>
      <trkpt lat="39.207762018650804" lon="-6.125933224819833"><ele>1943</ele><speed>10.17</speed><time>2016-07-09T12:51:26Z</time><pdop>8.0</pdop><geoidheight>50.60</geoidheight><course>301.7738</course><type>1</type></trkpt>
      <trkpt lat="39.20786179004737" lon="-6.126130395459512"><ele>1946</ele><speed>8.91</speed><time>2016-07-09T12:51:27Z</time><pdop>8.0</pdop><geoidheight>50.60</geoidheight><course>307.36877</course><type>1</type></trkpt>
      <trkpt lat="39.207955318478966" lon="-6.1263015066640305"><ele>1950</ele><speed>7.96</speed><time>2016-07-09T12:51:29Z</time><pdop>8.0</pdop><geoidheight>50.60</geoidheight><course>304.57028</course><type>1</type></trkpt>
      <trkpt lat="39.208031702144645" lon="-6.126464036558906"><ele>1952</ele><speed>8.44</speed><time>2016-07-09T12:51:31Z</time><pdop>8.0</pdop><geoidheight>50.60</geoidheight><course>305.04385</course><type>1</type></trkpt>
      <trkpt lat="39.208129587728386" lon="-6.1266548083318755"><ele>1954</ele><speed>9.34</speed><time>2016-07-09T12:51:33Z</time><pdop>8.0</pdop><geoidheight>50.60</geoidheight><course>305.4448</course><type>1</type></trkpt>
      <trkpt lat="39.20823399414917" lon="-6.126866582074119"><ele>1957</ele><speed>9.75</speed><time>2016-07-09T12:51:35Z</time><pdop>8.0</pdop><geoidheight>50.60</geoidheight><course>303.43094</course><type>1</type></trkpt>
      <trkpt lat="39.20834302426538" lon="-6.127091853667121"><ele>1960</ele><speed>11.11</speed><time>2016-07-09T12:51:37Z</time><pdop>8.0</pdop><geoidheight>50.60</geoidheight><course>304.63214</course><type>1</type></trkpt>
      <trkpt lat="39.20845480843118" lon="-6.127303611917759"><ele>1962</ele><speed>10.23</speed><time>2016-07-09T12:51:39Z</time><pdop>8.0</pdop><geoidheight>50.60</geoidheight><course>306.5232</course><type>1</type></trkpt>
      <trkpt lat="39.20857066194621" lon="-6.127484890226874"><ele>1963</ele><speed>10.22</speed><time>2016-07-09T12:51:42Z</time><pdop>8.0</pdop><geoidheight>50.60</geoidheight><course>310.49426</course><type>1</type></trkpt>
      <trkpt lat="39.20868574354638" lon="-6.127640066330715"><ele>1965</ele><speed>8.44</speed><time>2016-07-09T12:51:43Z</time><pdop>8.0</pdop><geoidheight>50.60</geoidheight><course>314.17</course><type>1</type></trkpt>
      <trkpt lat="39.20880530730882" lon="-6.127814617689895"><ele>1967</ele><speed>9.66</speed><time>2016-07-09T12:51:45Z</time><pdop>8.0</pdop><geoidheight>50.60</geoidheight><course>311.6561</course><type>1</type></trkpt>
      <trkpt lat="39.20894448502193" lon="-6.128026083331674"><ele>1970</ele><speed>12.06</speed><time>2016-07-09T12:51:47Z</time><pdop>12.0</pdop><geoidheight>50.60</geoidheight><course>311.4421</course><type>1</type></trkpt>
      <trkpt lat="39.20909365625636" lon="-6.128231113455536"><ele>1973</ele><speed>10.93</speed><time>2016-07-09T12:51:49Z</time><pdop>12.0</pdop><geoidheight>50.60</geoidheight><course>316.25198</course><type>1</type></trkpt>
      <trkpt lat="39.209231433566664" lon="-6.128406309008926"><ele>1975</ele><speed>10.60</speed><time>2016-07-09T12:51:51Z</time><pdop>8.0</pdop><geoidheight>50.60</geoidheight><course>316.41058</course><type>1</type></trkpt>
      <trkpt lat="39.209372182254924" lon="-6.128567662943907"><ele>1977</ele><speed>10.60</speed><time>2016-07-09T12:51:53Z</time><pdop>8.0</pdop><geoidheight>50.60</geoidheight><course>319.21213</course><type>1</type></trkpt>
      <trkpt lat="39.2095367654634" lon="-6.1287304675557275"><ele>1979</ele><speed>11.17</speed><time>2016-07-09T12:51:55Z</time><pdop>8.0</pdop><geoidheight>50.60</geoidheight><course>324.5711</course><type>1</type></trkpt>
      <trkpt lat="39.209707712648125" lon="-6.12888421118341"><ele>1982</ele><speed>10.04</speed><time>2016-07-09T12:51:57Z</time><pdop>8.0</pdop><geoidheight>50.60</geoidheight><course>324.9583</course><type>1</type></trkpt>
      <trkpt lat="39.20987123217372" lon="-6.129030647257093"><ele>1985</ele><speed>9.36</speed><time>2016-07-09T12:51:59Z</time><pdop>6.0</pdop><geoidheight>50.60</geoidheight><course>325.15982</course><type>1</type></trkpt>
      <trkpt lat="39.21001638681952" lon="-6.129147154370323"><ele>1990</ele><speed>8.94</speed><time>2016-07-09T12:52:01Z</time><pdop>6.0</pdop><geoidheight>50.60</geoidheight><course>329.6389</course><type>1</type></trkpt>
      <trkpt lat="39.21018412243274" lon="-6.129188256266288"><ele>1993</ele><speed>9.82</speed><time>2016-07-09T12:52:03Z</time><pdop>12.0</pdop><geoidheight>50.60</geoidheight><course>352.5197</course><type>1</type></trkpt>
      <trkpt lat="39.21037932203124" lon="-6.129181666693474"><ele>1996</ele><speed>10.65</speed><time>2016-07-09T12:52:05Z</time><pdop>8.0</pdop><geoidheight>50.60</geoidheight><course>11.207993</course><type>1</type></trkpt>
      <trkpt lat="39.21053768386147" lon="-6.1291550606381096"><ele>1999</ele><speed>7.80</speed><time>2016-07-09T12:52:07Z</time><pdop>8.0</pdop><geoidheight>50.60</geoidheight><course>14.338436</course><type>1</type></trkpt>
      <trkpt lat="39.21068726341244" lon="-6.129050767208747"><ele>2003</ele><speed>9.14</speed><time>2016-07-09T12:52:10Z</time><pdop>8.0</pdop><geoidheight>50.60</geoidheight><course>33.885197</course><type>1</type></trkpt>
      <trkpt lat="39.21074833479597" lon="-6.128880857198559"><ele>2007</ele><speed>9.23</speed><time>2016-07-09T12:52:11Z</time><pdop>8.0</pdop><geoidheight>50.60</geoidheight><course>80.01064</course><type>1</type></trkpt>
      <trkpt lat="39.210700853487204" lon="-6.1286487283583355"><ele>2012</ele><speed>10.66</speed><time>2016-07-09T12:52:15Z</time><pdop>8.0</pdop><geoidheight>50.60</geoidheight><course>156.9908</course><type>1</type></trkpt>
      <trkpt lat="39.2105449094246" lon="-6.128646528079167"><ele>2015</ele><speed>7.14</speed><time>2016-07-09T12:52:16Z</time><pdop>8.0</pdop><geoidheight>50.60</geoidheight><course>213.07939</course><type>1</type></trkpt>
      <trkpt lat="39.21035317013671" lon="-6.128904172159293"><ele>2022</ele><speed>10.13</speed><time>2016-07-09T12:52:19Z</time><pdop>12.0</pdop><geoidheight>50.60</geoidheight><course>249.39978</course><type>1</type></trkpt>
      <trkpt lat="39.21036406384036" lon="-6.1291884155165794"><ele>2029</ele><speed>8.15</speed><time>2016-07-09T12:52:22Z</time><pdop>8.0</pdop><geoidheight>50.60</geoidheight><course>294.88284</course><type>1</type></trkpt>
      <trkpt lat="39.21044377705385" lon="-6.129367184570285"><ele>2035</ele><speed>7.96</speed><time>2016-07-09T12:52:25Z</time><pdop>8.0</pdop><geoidheight>50.60</geoidheight><course>302.68478</course><type>1</type></trkpt>
      <trkpt lat="39.21061504529277" lon="-6.129475455174996"><ele>2042</ele><speed>10.55</speed><time>2016-07-09T12:52:27Z</time><pdop>6.0</pdop><geoidheight>50.60</geoidheight><course>355.19528</course><type>1</type></trkpt>
      <trkpt lat="39.210802496394315" lon="-6.129477595365847"><ele>2050</ele><speed>11.09</speed><time>2016-07-09T12:52:29Z</time><pdop>6.0</pdop><geoidheight>50.60</geoidheight><course>19.384245</course><type>1</type></trkpt>
      <trkpt lat="39.21091341958434" lon="-6.1293513953382455"><ele>2057</ele><speed>9.05</speed><time>2016-07-09T12:52:30Z</time><pdop>8.0</pdop><geoidheight>50.60</geoidheight><course>57.34359</course><type>1</type></trkpt>
      <trkpt lat="39.210935767272375" lon="-6.129078889764577"><ele>2063</ele><speed>9.99</speed><time>2016-07-09T12:52:33Z</time><pdop>8.0</pdop><geoidheight>50.60</geoidheight><course>105.55947</course><type>1</type></trkpt>
      <trkpt lat="39.21083844817222" lon="-6.12889031972317"><ele>2066</ele><speed>10.59</speed><time>2016-07-09T12:52:35Z</time><pdop>8.0</pdop><geoidheight>50.60</geoidheight><course>127.780045</course><type>1</type></trkpt>
      <trkpt lat="39.21068032994605" lon="-6.128806380721809"><ele>2071</ele><speed>8.51</speed><time>2016-07-09T12:52:37Z</time><pdop>8.0</pdop><geoidheight>50.60</geoidheight><course>181.2735</course><type>1</type></trkpt>
      <trkpt lat="39.210497673682745" lon="-6.128889755533823"><ele>2079</ele><speed>8.51</speed><time>2016-07-09T12:52:40Z</time><pdop>8.0</pdop><geoidheight>50.60</geoidheight><course>213.94255</course><type>1</type></trkpt>
      <trkpt lat="39.210386293051556" lon="-6.129042762636632"><ele>2084</ele><speed>10.59</speed><time>2016-07-09T12:52:42Z</time><pdop>8.0</pdop><geoidheight>50.60</geoidheight><course>235.16354</course><type>1</type></trkpt>
      <trkpt lat="39.210362903924185" lon="-6.129245700061525"><ele>2088</ele><speed>10.94</speed><time>2016-07-09T12:52:44Z</time><pdop>8.0</pdop><geoidheight>50.60</geoidheight><course>283.52948</course><type>1</type></trkpt>
      <trkpt lat="39.2104896130773" lon="-6.129389366574959"><ele>2092</ele><speed>9.27</speed><time>2016-07-09T12:52:46Z</time><pdop>8.0</pdop><geoidheight>50.60</geoidheight><course>321.95807</course><type>1</type></trkpt>
      <trkpt lat="39.2107430714274" lon="-6.129452887825926"><ele>2097</ele><speed>9.41</speed><time>2016-07-09T12:52:50Z</time><pdop>8.0</pdop><geoidheight>50.60</geoidheight><course>1.2011195</course><type>1</type></trkpt>
      <trkpt lat="39.21097602975975" lon="-6.129254839246938"><ele>2102</ele><speed>10.09</speed><time>2016-07-09T12:52:52Z</time><pdop>16.0</pdop><geoidheight>50.60</geoidheight><course>48.0498</course><type>1</type></trkpt>
      <trkpt lat="39.211083201982206" lon="-6.128910085433253"><ele>2106</ele><speed>9.89</speed><time>2016-07-09T12:52:56Z</time><pdop>16.0</pdop><geoidheight>50.60</geoidheight><course>87.35914</course><type>1</type></trkpt>
      <trkpt lat="39.2108598991657" lon="-6.128646567408494"><ele>2114</ele><speed>8.03</speed><time>2016-07-09T12:53:01Z</time><pdop>16.0</pdop><geoidheight>50.60</geoidheight><course>138.50392</course><type>1</type></trkpt>
      <trkpt lat="39.210587612015935" lon="-6.128793323792129"><ele>2124</ele><speed>10.90</speed><time>2016-07-09T12:53:05Z</time><pdop>12.0</pdop><geoidheight>50.60</geoidheight><course>233.90192</course><type>1</type></trkpt>
      <trkpt lat="39.210557067319606" lon="-6.129103493173814"><ele>2133</ele><speed>8.55</speed><time>2016-07-09T12:53:08Z</time><pdop>8.0</pdop><geoidheight>50.60</geoidheight><course>289.64502</course><type>1</type></trkpt>
      <trkpt lat="39.21074666560841" lon="-6.129303187335928"><ele>2142</ele><speed>9.13</speed><time>2016-07-09T12:53:11Z</time><pdop>16.0</pdop><geoidheight>50.60</geoidheight><course>328.31287</course><type>1</type></trkpt>
      <trkpt lat="39.21099999587587" lon="-6.129430151664744"><ele>2149</ele><speed>9.51</speed><time>2016-07-09T12:53:14Z</time><pdop>8.0</pdop><geoidheight>50.60</geoidheight><course>349.29865</course><type>1</type></trkpt>
      <trkpt lat="39.21118157904793" lon="-6.1294416115705666"><ele>2153</ele><speed>9.70</speed><time>2016-07-09T12:53:16Z</time><pdop>8.0</pdop><geoidheight>50.60</geoidheight><course>5.079629</course><type>1</type></trkpt>
      <trkpt lat="39.21134028137386" lon="-6.129399692978571"><ele>2156</ele><speed>8.74</speed><time>2016-07-09T12:53:18Z</time><pdop>8.0</pdop><geoidheight>50.60</geoidheight><course>24.15713</course><type>1</type></trkpt>
      <trkpt lat="39.21144983489909" lon="-6.129255303515291"><ele>2160</ele><speed>9.81</speed><time>2016-07-09T12:53:21Z</time><pdop>8.0</pdop><geoidheight>50.60</geoidheight><course>60.060516</course><type>1</type></trkpt>
      <trkpt lat="39.21144241211313" lon="-6.129021432417304"><ele>2163</ele><speed>11.59</speed><time>2016-07-09T12:53:22Z</time><pdop>8.0</pdop><geoidheight>50.60</geoidheight><course>104.45323</course><type>1</type></trkpt>
      <trkpt lat="39.21134988843173" lon="-6.12880919277483"><ele>2165</ele><speed>9.76</speed><time>2016-07-09T12:53:24Z</time><pdop>12.0</pdop><geoidheight>50.60</geoidheight><course>142.2475</course><type>1</type></trkpt>
      <trkpt lat="39.21115105410672" lon="-6.128683844028424"><ele>2169</ele><speed>9.11</speed><time>2016-07-09T12:53:27Z</time><pdop>8.0</pdop><geoidheight>50.60</geoidheight><course>177.10866</course><type>1</type></trkpt>
      <trkpt lat="39.21101745308393" lon="-6.128754737526387"><ele>2171</ele><speed>10.00</speed><time>2016-07-09T12:53:29Z</time><pdop>8.0</pdop><geoidheight>50.60</geoidheight><course>218.02722</course><type>1</type></trkpt>
      <trkpt lat="39.2109301683623" lon="-6.128939042062959"><ele>2171</ele><speed>9.82</speed><time>2016-07-09T12:53:31Z</time><pdop>6.0</pdop><geoidheight>50.60</geoidheight><course>253.03407</course><type>1</type></trkpt>
      <trkpt lat="39.2109384234806" lon="-6.129111530946576"><ele>2173</ele><speed>7.70</speed><time>2016-07-09T12:53:34Z</time><pdop>8.0</pdop><geoidheight>50.60</geoidheight><course>293.60135</course><type>1</type></trkpt>
      <trkpt lat="39.21110339620312" lon="-6.129267173751453"><ele>2177</ele><speed>9.53</speed><time>2016-07-09T12:53:37Z</time><pdop>8.0</pdop><geoidheight>50.60</geoidheight><course>353.0727</course><type>1</type></trkpt>
      <trkpt lat="39.211338421661345" lon="-6.129137299792614"><ele>2180</ele><speed>11.46</speed><time>2016-07-09T12:53:39Z</time><pdop>12.0</pdop><geoidheight>50.60</geoidheight><course>52.26887</course><type>1</type></trkpt>
      <trkpt lat="39.21146151117186" lon="-6.128878820743021"><ele>2183</ele><speed>8.28</speed><time>2016-07-09T12:53:42Z</time><pdop>12.0</pdop><geoidheight>50.60</geoidheight><course>60.26992</course><type>1</type></trkpt>
      <trkpt lat="39.21144639075352" lon="-6.128545878182532"><ele>2186</ele><speed>11.28</speed><time>2016-07-09T12:53:46Z</time><pdop>12.0</pdop><geoidheight>50.60</geoidheight><course>111.350006</course><type>1</type></trkpt>
      <trkpt lat="39.21123041632007" lon="-6.128301638013886"><ele>2187</ele><speed>10.20</speed><time>2016-07-09T12:53:48Z</time><pdop>12.0</pdop><geoidheight>50.60</geoidheight><course>146.58719</course><type>1</type></trkpt>
      <trkpt lat="39.21098694312003" lon="-6.1281445662052585"><ele>2188</ele><speed>10.30</speed><time>2016-07-09T12:53:51Z</time><pdop>12.0</pdop><geoidheight>50.60</geoidheight><course>169.41603</course><type>1</type></trkpt>
      <trkpt lat="39.210765005620374" lon="-6.128290690417757"><ele>2191</ele><speed>11.18</speed><time>2016-07-09T12:53:55Z</time><pdop>8.0</pdop><geoidheight>50.60</geoidheight><course>244.06209</course><type>1</type></trkpt>
      <trkpt lat="39.210754658068645" lon="-6.1285104619801105"><ele>2191</ele><speed>10.58</speed><time>2016-07-09T12:53:56Z</time><pdop>8.0</pdop><geoidheight>50.60</geoidheight><course>285.3476</course><type>1</type></trkpt>
      <trkpt lat="39.21090901651602" lon="-6.12864302824127"><ele>2192</ele><speed>7.66</speed><time>2016-07-09T12:54:00Z</time><pdop>12.0</pdop><geoidheight>50.60</geoidheight><course>337.59912</course><type>1</type></trkpt>
      <trkpt lat="39.21110347410008" lon="-6.128630832063642"><ele>2194</ele><speed>9.10</speed><time>2016-07-09T12:54:02Z</time><pdop>8.0</pdop><geoidheight>50.60</geoidheight><course>15.137452</course><type>1</type></trkpt>
      <trkpt lat="39.211354141385854" lon="-6.128514643986517"><ele>2195</ele><speed>10.34</speed><time>2016-07-09T12:54:05Z</time><pdop>8.0</pdop><geoidheight>50.60</geoidheight><course>33.557312</course><type>1</type></trkpt>
      <trkpt lat="39.21150769029854" lon="-6.128375194872519"><ele>2194</ele><speed>9.95</speed><time>2016-07-09T12:54:07Z</time><pdop>8.0</pdop><geoidheight>50.60</geoidheight><course>38.214413</course><type>1</type></trkpt>
      <trkpt lat="39.211640037924916" lon="-6.12824911691445"><ele>2194</ele><speed>8.76</speed><time>2016-07-09T12:54:10Z</time><pdop>8.0</pdop><geoidheight>50.60</geoidheight><course>35.585144</course><type>1</type></trkpt>
      <trkpt lat="39.211791090697744" lon="-6.128121923136704"><ele>2194</ele><speed>10.82</speed><time>2016-07-09T12:54:11Z</time><pdop>8.0</pdop><geoidheight>50.60</geoidheight><course>34.241108</course><type>1</type></trkpt>
      <trkpt lat="39.21195879400215" lon="-6.1279747731359295"><ele>2194</ele><speed>11.16</speed><time>2016-07-09T12:54:13Z</time><pdop>8.0</pdop><geoidheight>50.60</geoidheight><course>34.092575</course><type>1</type></trkpt>
      <trkpt lat="39.21212994474325" lon="-6.1278368171029545"><ele>2193</ele><speed>10.63</speed><time>2016-07-09T12:54:15Z</time><pdop>8.0</pdop><geoidheight>50.60</geoidheight><course>31.936697</course><type>1</type></trkpt>
      <trkpt lat="39.2122999848342" lon="-6.127703047638881"><ele>2192</ele><speed>10.86</speed><time>2016-07-09T12:54:17Z</time><pdop>6.0</pdop><geoidheight>50.60</geoidheight><course>33.442154</course><type>1</type></trkpt>
      <trkpt lat="39.21246640448187" lon="-6.1275679598044155"><ele>2191</ele><speed>10.90</speed><time>2016-07-09T12:54:19Z</time><pdop>6.0</pdop><geoidheight>50.60</geoidheight><course>33.872383</course><type>1</type></trkpt>
      <trkpt lat="39.21263072208671" lon="-6.1274128861100765"><ele>2190</ele><speed>11.59</speed><time>2016-07-09T12:54:21Z</time><pdop>6.0</pdop><geoidheight>50.60</geoidheight><course>37.66335</course><type>1</type></trkpt>
      <trkpt lat="39.212797529199314" lon="-6.127246956590377"><ele>2189</ele><speed>11.53</speed><time>2016-07-09T12:54:23Z</time><pdop>6.0</pdop><geoidheight>50.60</geoidheight><course>36.41803</course><type>1</type></trkpt>
      <trkpt lat="39.21295602827074" lon="-6.127101443597534"><ele>2188</ele><speed>10.45</speed><time>2016-07-09T12:54:25Z</time><pdop>8.0</pdop><geoidheight>50.60</geoidheight><course>36.16507</course><type>1</type></trkpt>
      <trkpt lat="39.21309589739437" lon="-6.126947747855067"><ele>2186</ele><speed>10.29</speed><time>2016-07-09T12:54:27Z</time><pdop>8.0</pdop><geoidheight>50.60</geoidheight><course>40.269707</course><type>1</type></trkpt>
      <trkpt lat="39.21321305592517" lon="-6.126816480018416"><ele>2184</ele><speed>7.89</speed><time>2016-07-09T12:54:29Z</time><pdop>8.0</pdop><geoidheight>50.60</geoidheight><course>38.3146</course><type>1</type></trkpt>
      <trkpt lat="39.213323829840114" lon="-6.126700873249631"><ele>2181</ele><speed>8.75</speed><time>2016-07-09T12:54:31Z</time><pdop>6.0</pdop><geoidheight>50.60</geoidheight><course>39.22128</course><type>1</type></trkpt>
      <trkpt lat="39.21344029738361" lon="-6.126565795098294"><ele>2178</ele><speed>9.99</speed><time>2016-07-09T12:54:33Z</time><pdop>6.0</pdop><geoidheight>50.60</geoidheight><course>40.61888</course><type>1</type></trkpt>
      <trkpt lat="39.213568221554624" lon="-6.126422147188719"><ele>2175</ele><speed>8.79</speed><time>2016-07-09T12:54:35Z</time><pdop>6.0</pdop><geoidheight>50.60</geoidheight><course>40.749157</course><type>1</type></trkpt>
      <trkpt lat="39.21367959287532" lon="-6.1262834513665805"><ele>2173</ele><speed>8.12</speed><time>2016-07-09T12:54:37Z</time><pdop>6.0</pdop><geoidheight>50.60</geoidheight><course>44.13649</course><type>1</type></trkpt>
      <trkpt lat="39.21378128107809" lon="-6.126154309646659"><ele>2171</ele><speed>8.51</speed><time>2016-07-09T12:54:39Z</time><pdop>6.0</pdop><geoidheight>50.60</geoidheight><course>42.31194</course><type>1</type></trkpt>
      <trkpt lat="39.213902593805976" lon="-6.126026723119218"><ele>2170</ele><speed>8.69</speed><time>2016-07-09T12:54:41Z</time><pdop>6.0</pdop><geoidheight>50.60</geoidheight><course>38.378445</course><type>1</type></trkpt>
      <trkpt lat="39.21403120811042" lon="-6.125922814152495"><ele>2168</ele><speed>8.64</speed><time>2016-07-09T12:54:43Z</time><pdop>6.0</pdop><geoidheight>50.60</geoidheight><course>33.658833</course><type>1</type></trkpt>
      <trkpt lat="39.21416158207569" lon="-6.1258232695111525"><ele>2166</ele><speed>7.78</speed><time>2016-07-09T12:54:45Z</time><pdop>6.0</pdop><geoidheight>50.60</geoidheight><course>33.789883</course><type>1</type></trkpt>
      <trkpt lat="39.2142967619702" lon="-6.125722941110821"><ele>2164</ele><speed>8.71</speed><time>2016-07-09T12:54:47Z</time><pdop>6.0</pdop><geoidheight>50.60</geoidheight><course>30.846373</course><type>1</type></trkpt>
      <trkpt lat="39.214438688459936" lon="-6.125629461905171"><ele>2164</ele><speed>8.90</speed><time>2016-07-09T12:54:49Z</time><pdop>6.0</pdop><geoidheight>50.60</geoidheight><course>29.98676</course><type>1</type></trkpt>
      <trkpt lat="39.21458013462011" lon="-6.125523335939524"><ele>2165</ele><speed>8.88</speed><time>2016-07-09T12:54:51Z</time><pdop>6.0</pdop><geoidheight>50.60</geoidheight><course>30.36215</course><type>1</type></trkpt>
      <trkpt lat="39.214717599852726" lon="-6.125426404746724"><ele>2166</ele><speed>8.77</speed><time>2016-07-09T12:54:53Z</time><pdop>6.0</pdop><geoidheight>50.60</geoidheight><course>29.600332</course><type>1</type></trkpt>
      <trkpt lat="39.21485170422222" lon="-6.125316697823119"><ele>2168</ele><speed>8.83</speed><time>2016-07-09T12:54:55Z</time><pdop>6.0</pdop><geoidheight>50.60</geoidheight><course>33.02367</course><type>1</type></trkpt>
      <trkpt lat="39.21498483592133" lon="-6.125190817442517"><ele>2170</ele><speed>9.36</speed><time>2016-07-09T12:54:57Z</time><pdop>6.0</pdop><geoidheight>50.60</geoidheight><course>35.82132</course><type>1</type></trkpt>
      <trkpt lat="39.21510945936936" lon="-6.125019961383299"><ele>2171</ele><speed>10.12</speed><time>2016-07-09T12:54:59Z</time><pdop>12.0</pdop><geoidheight>50.60</geoidheight><course>52.235134</course><type>1</type></trkpt>
      <trkpt lat="39.215222343982624" lon="-6.124827822254809"><ele>2173</ele><speed>10.03</speed><time>2016-07-09T12:55:01Z</time><pdop>8.0</pdop><geoidheight>50.60</geoidheight><course>51.535423</course><type>1</type></trkpt>
      <trkpt lat="39.2153236427751" lon="-6.124639589868354"><ele>2176</ele><speed>9.32</speed><time>2016-07-09T12:55:03Z</time><pdop>8.0</pdop><geoidheight>50.60</geoidheight><course>55.04053</course><type>1</type></trkpt>
      <trkpt lat="39.21538335773353" lon="-6.124415365405544"><ele>2179</ele><speed>10.47</speed><time>2016-07-09T12:55:05Z</time><pdop>12.0</pdop><geoidheight>50.60</geoidheight><course>69.1355</course><type>1</type></trkpt>
      <trkpt lat="39.21544057409213" lon="-6.124187234382683"><ele>2181</ele><speed>9.69</speed><time>2016-07-09T12:55:07Z</time><pdop>8.0</pdop><geoidheight>50.60</geoidheight><course>71.651276</course><type>1</type></trkpt>
      <trkpt lat="39.215427690489015" lon="-6.123979488645959"><ele>2182</ele><speed>9.84</speed><time>2016-07-09T12:55:09Z</time><pdop>8.0</pdop><geoidheight>50.60</geoidheight><course>99.660126</course><type>1</type></trkpt>
      <trkpt lat="39.2153128189622" lon="-6.123640738116071"><ele>2183</ele><speed>9.92</speed><time>2016-07-09T12:55:12Z</time><pdop>12.0</pdop><geoidheight>50.60</geoidheight><course>118.985916</course><type>1</type></trkpt>
      <trkpt lat="39.21515812419178" lon="-6.1233521914762665"><ele>2184</ele><speed>10.30</speed><time>2016-07-09T12:55:15Z</time><pdop>8.0</pdop><geoidheight>50.60</geoidheight><course>125.909744</course><type>1</type></trkpt>
      <trkpt lat="39.21497275806915" lon="-6.123214066876429"><ele>2183</ele><speed>12.54</speed><time>2016-07-09T12:55:17Z</time><pdop>8.0</pdop><geoidheight>50.60</geoidheight><course>154.68694</course><type>1</type></trkpt>
      <trkpt lat="39.21475054885441" lon="-6.123175974296432"><ele>2183</ele><speed>11.55</speed><time>2016-07-09T12:55:19Z</time><pdop>8.0</pdop><geoidheight>50.60</geoidheight><course>174.88646</course><type>1</type></trkpt>
      <trkpt lat="39.214560142646526" lon="-6.123166971565894"><ele>2182</ele><speed>11.02</speed><time>2016-07-09T12:55:21Z</time><pdop>8.0</pdop><geoidheight>50.60</geoidheight><course>176.03479</course><type>1</type></trkpt>
      <trkpt lat="39.214356990074094" lon="-6.123133270114072"><ele>2180</ele><speed>12.36</speed><time>2016-07-09T12:55:24Z</time><pdop>8.0</pdop><geoidheight>50.60</geoidheight><course>171.45647</course><type>1</type></trkpt>
      <trkpt lat="39.21419661372223" lon="-6.122957188463774"><ele>2178</ele><speed>11.53</speed><time>2016-07-09T12:55:25Z</time><pdop>12.0</pdop><geoidheight>50.60</geoidheight><course>132.78171</course><type>1</type></trkpt>
      <trkpt lat="39.2140729558045" lon="-6.1226745240512495"><ele>2173</ele><speed>10.05</speed><time>2016-07-09T12:55:28Z</time><pdop>12.0</pdop><geoidheight>50.60</geoidheight><course>115.54514</course><type>1</type></trkpt>
      <trkpt lat="39.21396822076874" lon="-6.122350453957805"><ele>2168</ele><speed>11.70</speed><time>2016-07-09T12:55:31Z</time><pdop>12.0</pdop><geoidheight>50.60</geoidheight><course>111.56713</course><type>1</type></trkpt>
      <trkpt lat="39.213902972636525" lon="-6.122005410185417"><ele>2163</ele><speed>10.21</speed><time>2016-07-09T12:55:34Z</time><pdop>12.0</pdop><geoidheight>50.60</geoidheight><course>104.449905</course><type>1</type></trkpt>
      <trkpt lat="39.213875037204296" lon="-6.121699680550858"><ele>2157</ele><speed>9.43</speed><time>2016-07-09T12:55:38Z</time><pdop>8.0</pdop><geoidheight>50.60</geoidheight><course>102.02009</course><type>1</type></trkpt>
      <trkpt lat="39.213853363066825" lon="-6.121480143616054"><ele>2152</ele><speed>10.43</speed><time>2016-07-09T12:55:40Z</time><pdop>8.0</pdop><geoidheight>50.60</geoidheight><course>100.133156</course><type>1</type></trkpt>
      <trkpt lat="39.21383804524472" lon="-6.121252141731272"><ele>2146</ele><speed>11.14</speed><time>2016-07-09T12:55:41Z</time><pdop>8.0</pdop><geoidheight>50.60</geoidheight><course>97.29439</course><type>1</type></trkpt>
      <trkpt lat="39.21382896549793" lon="-6.121028472402075"><ele>2139</ele><speed>10.43</speed><time>2016-07-09T12:55:43Z</time><pdop>8.0</pdop><geoidheight>50.60</geoidheight><course>94.38583</course><type>1</type></trkpt>
      <trkpt lat="39.21388416382112" lon="-6.120709940728573"><ele>2130</ele><speed>9.33</speed><time>2016-07-09T12:55:47Z</time><pdop>12.0</pdop><geoidheight>50.60</geoidheight><course>69.28768</course><type>1</type></trkpt>
      <trkpt lat="39.214051903280286" lon="-6.120405768744463"><ele>2119</ele><speed>12.77</speed><time>2016-07-09T12:55:49Z</time><pdop>12.0</pdop><geoidheight>50.60</geoidheight><course>47.33448</course><type>1</type></trkpt>
      <trkpt lat="39.21432773211719" lon="-6.120322594939946"><ele>2110</ele><speed>11.22</speed><time>2016-07-09T12:55:52Z</time><pdop>12.0</pdop><geoidheight>50.60</geoidheight><course>8.676544</course><type>1</type></trkpt>
      <trkpt lat="39.21463689276394" lon="-6.120285583602155"><ele>2102</ele><speed>10.73</speed><time>2016-07-09T12:55:55Z</time><pdop>12.0</pdop><geoidheight>50.60</geoidheight><course>12.499732</course><type>1</type></trkpt>
      <trkpt lat="39.21488292911387" lon="-6.120242183494937"><ele>2093</ele><speed>9.82</speed><time>2016-07-09T12:55:58Z</time><pdop>8.0</pdop><geoidheight>50.60</geoidheight><course>7.8209763</course><type>1</type></trkpt>
      <trkpt lat="39.21504250268074" lon="-6.120231290493099"><ele>2086</ele><speed>9.96</speed><time>2016-07-09T12:56:01Z</time><pdop>6.0</pdop><geoidheight>50.60</geoidheight><course>6.8407145</course><type>1</type></trkpt>
      <trkpt lat="39.2151920639303" lon="-6.120206198609816"><ele>2079</ele><speed>8.15</speed><time>2016-07-09T12:56:02Z</time><pdop>6.0</pdop><geoidheight>50.60</geoidheight><course>10.388397</course><type>1</type></trkpt>
      <trkpt lat="39.2153378247033" lon="-6.120148261571021"><ele>2073</ele><speed>9.34</speed><time>2016-07-09T12:56:05Z</time><pdop>8.0</pdop><geoidheight>50.60</geoidheight><course>17.026958</course><type>1</type></trkpt>
      <trkpt lat="39.21552235899244" lon="-6.120056474483202"><ele>2064</ele><speed>10.57</speed><time>2016-07-09T12:56:06Z</time><pdop>8.0</pdop><geoidheight>50.60</geoidheight><course>18.051144</course><type>1</type></trkpt>
      <trkpt lat="39.21569532999874" lon="-6.1199696498419085"><ele>2057</ele><speed>9.91</speed><time>2016-07-09T12:56:08Z</time><pdop>6.0</pdop><geoidheight>50.60</geoidheight><course>20.376554</course><type>1</type></trkpt>
      <trkpt lat="39.215859973111044" lon="-6.119881569933157"><ele>2050</ele><speed>10.47</speed><time>2016-07-09T12:56:10Z</time><pdop>6.0</pdop><geoidheight>50.60</geoidheight><course>20.785313</course><type>1</type></trkpt>
      <trkpt lat="39.21604903023819" lon="-6.119795568154699"><ele>2044</ele><speed>12.62</speed><time>2016-07-09T12:56:12Z</time><pdop>6.0</pdop><geoidheight>50.60</geoidheight><course>18.902136</course><type>1</type></trkpt>
      <trkpt lat="39.2162106095286" lon="-6.119714183783539"><ele>2041</ele><speed>7.71</speed><time>2016-07-09T12:56:14Z</time><pdop>6.0</pdop><geoidheight>50.60</geoidheight><course>23.43612</course><type>1</type></trkpt>
      <trkpt lat="39.21633265028025" lon="-6.119627460238303"><ele>2040</ele><speed>7.43</speed><time>2016-07-09T12:56:16Z</time><pdop>8.0</pdop><geoidheight>50.60</geoidheight><course>28.58113</course><type>1</type></trkpt>
      <trkpt lat="39.216504997559994" lon="-6.119482262159799"><ele>2038</ele><speed>15.12</speed><time>2016-07-09T12:56:18Z</time><pdop>8.0</pdop><geoidheight>50.60</geoidheight><course>31.167477</course><type>1</type></trkpt>
      <trkpt lat="39.21667225685022" lon="-6.119341808887954"><ele>2036</ele><speed>8.45</speed><time>2016-07-09T12:56:20Z</time><pdop>12.0</pdop><geoidheight>50.60</geoidheight><course>32.687607</course><type>1</type></trkpt>
      <trkpt lat="39.21686563823596" lon="-6.11912982443583"><ele>2033</ele><speed>7.31</speed><time>2016-07-09T12:56:25Z</time><pdop>12.0</pdop><geoidheight>50.60</geoidheight><course>50.76287</course><type>1</type></trkpt>
      <trkpt lat="39.2170032732499" lon="-6.1188043009622115"><ele>2028</ele><speed>10.85</speed><time>2016-07-09T12:56:27Z</time><pdop>16.0</pdop><geoidheight>50.60</geoidheight><course>50.73591</course><type>1</type></trkpt>
      <trkpt lat="39.21721694473941" lon="-6.118559662839929"><ele>2022</ele><speed>10.59</speed><time>2016-07-09T12:56:30Z</time><pdop>12.0</pdop><geoidheight>50.60</geoidheight><course>50.71407</course><type>1</type></trkpt>
      <trkpt lat="39.21735171996398" lon="-6.118340462748175"><ele>2018</ele><speed>7.99</speed><time>2016-07-09T12:56:33Z</time><pdop>12.0</pdop><geoidheight>50.60</geoidheight><course>51.431744</course><type>1</type></trkpt>
      <trkpt lat="39.217544200838" lon="-6.118128220541615"><ele>2018</ele><speed>9.33</speed><time>2016-07-09T12:56:37Z</time><pdop>8.0</pdop><geoidheight>50.60</geoidheight><course>48.88568</course><type>1</type></trkpt>
      <trkpt lat="39.21761455860938" lon="-6.117949197511646"><ele>2017</ele><speed>8.62</speed><time>2016-07-09T12:56:38Z</time><pdop>8.0</pdop><geoidheight>50.60</geoidheight><course>74.223465</course><type>1</type></trkpt>
      <trkpt lat="39.21754482948036" lon="-6.117704640293829"><ele>2015</ele><speed>9.34</speed><time>2016-07-09T12:56:41Z</time><pdop>8.0</pdop><geoidheight>50.60</geoidheight><course>126.84376</course><type>1</type></trkpt>
      <trkpt lat="39.217414696376956" lon="-6.117578731953563"><ele>2014</ele><speed>9.44</speed><time>2016-07-09T12:56:43Z</time><pdop>8.0</pdop><geoidheight>50.60</geoidheight><course>146.46536</course><type>1</type></trkpt>
      <trkpt lat="39.21726685707124" lon="-6.117478174276787"><ele>2013</ele><speed>9.33</speed><time>2016-07-09T12:56:45Z</time><pdop>6.0</pdop><geoidheight>50.60</geoidheight><course>153.70158</course><type>1</type></trkpt>
      <trkpt lat="39.21708992987721" lon="-6.117387326282706"><ele>2012</ele><speed>10.86</speed><time>2016-07-09T12:56:48Z</time><pdop>12.0</pdop><geoidheight>50.60</geoidheight><course>158.31677</course><type>1</type></trkpt>
      <trkpt lat="39.2168530814583" lon="-6.117286521151775"><ele>2012</ele><speed>8.07</speed><time>2016-07-09T12:56:50Z</time><pdop>8.0</pdop><geoidheight>50.60</geoidheight><course>160.5452</course><type>1</type></trkpt>
      <trkpt lat="39.216607295948116" lon="-6.117206018654914"><ele>2014</ele><speed>10.22</speed><time>2016-07-09T12:56:54Z</time><pdop>8.0</pdop><geoidheight>50.60</geoidheight><course>163.01256</course><type>1</type></trkpt>
      <trkpt lat="39.21639511277545" lon="-6.117103612892611"><ele>2013</ele><speed>7.34</speed><time>2016-07-09T12:56:56Z</time><pdop>8.0</pdop><geoidheight>50.60</geoidheight><course>158.24397</course><type>1</type></trkpt>
      <trkpt lat="39.21619141598343" lon="-6.117010812550413"><ele>2010</ele><speed>8.28</speed><time>2016-07-09T12:57:00Z</time><pdop>8.0</pdop><geoidheight>50.60</geoidheight><course>162.5744</course><type>1</type></trkpt>
      <trkpt lat="39.21603966060697" lon="-6.116980679746713"><ele>2008</ele><speed>8.86</speed><time>2016-07-09T12:57:01Z</time><pdop>8.0</pdop><geoidheight>50.60</geoidheight><course>178.22462</course><type>1</type></trkpt>
      <trkpt lat="39.21589031545622" lon="-6.1169791525621715"><ele>2005</ele><speed>8.17</speed><time>2016-07-09T12:57:03Z</time><pdop>6.0</pdop><geoidheight>50.60</geoidheight><course>178.6296</course><type>1</type></trkpt>
      <trkpt lat="39.215754681635836" lon="-6.116974039520166"><ele>2004</ele><speed>7.81</speed><time>2016-07-09T12:57:05Z</time><pdop>6.0</pdop><geoidheight>50.60</geoidheight><course>177.65285</course><type>1</type></trkpt>
      <trkpt lat="39.215627520972916" lon="-6.116991157337919"><ele>2000</ele><speed>7.87</speed><time>2016-07-09T12:57:07Z</time><pdop>6.0</pdop><geoidheight>50.60</geoidheight><course>192.51337</course><type>1</type></trkpt>
      <trkpt lat="39.21551028998021" lon="-6.1170507189356425"><ele>1996</ele><speed>7.90</speed><time>2016-07-09T12:57:10Z</time><pdop>6.0</pdop><geoidheight>50.60</geoidheight><course>211.13185</course><type>1</type></trkpt>
      <trkpt lat="39.21541571755248" lon="-6.117160524603692"><ele>1990</ele><speed>8.93</speed><time>2016-07-09T12:57:11Z</time><pdop>6.0</pdop><geoidheight>50.60</geoidheight><course>230.22752</course><type>1</type></trkpt>
      <trkpt lat="39.215328436738645" lon="-6.117302083892138"><ele>1984</ele><speed>8.79</speed><time>2016-07-09T12:57:13Z</time><pdop>6.0</pdop><geoidheight>50.60</geoidheight><course>228.20181</course><type>1</type></trkpt>
      <trkpt lat="39.21521069041343" lon="-6.11741754827783"><ele>1978</ele><speed>8.99</speed><time>2016-07-09T12:57:15Z</time><pdop>6.0</pdop><geoidheight>50.60</geoidheight><course>213.74748</course><type>1</type></trkpt>
      <trkpt lat="39.215086962608325" lon="-6.1175446610584245"><ele>1973</ele><speed>9.81</speed><time>2016-07-09T12:57:17Z</time><pdop>6.0</pdop><geoidheight>50.60</geoidheight><course>216.61165</course><type>1</type></trkpt>
      <trkpt lat="39.21495980175366" lon="-6.117669562122389"><ele>1968</ele><speed>9.82</speed><time>2016-07-09T12:57:19Z</time><pdop>4.0</pdop><geoidheight>50.60</geoidheight><course>213.36166</course><type>1</type></trkpt>
      <trkpt lat="39.21481205304983" lon="-6.117778444666251"><ele>1964</ele><speed>9.59</speed><time>2016-07-09T12:57:21Z</time><pdop>8.0</pdop><geoidheight>50.60</geoidheight><course>210.67732</course><type>1</type></trkpt>
      <trkpt lat="39.21464447334624" lon="-6.117934387429187"><ele>1959</ele><speed>8.39</speed><time>2016-07-09T12:57:24Z</time><pdop>6.0</pdop><geoidheight>50.60</geoidheight><course>216.87149</course><type>1</type></trkpt>
      <trkpt lat="39.21451934477116" lon="-6.1180998808404725"><ele>1954</ele><speed>12.25</speed><time>2016-07-09T12:57:26Z</time><pdop>6.0</pdop><geoidheight>50.60</geoidheight><course>223.91824</course><type>1</type></trkpt>
      <trkpt lat="39.21437404185125" lon="-6.11830974390681"><ele>1949</ele><speed>10.98</speed><time>2016-07-09T12:57:28Z</time><pdop>8.0</pdop><geoidheight>50.60</geoidheight><course>226.78723</course><type>1</type></trkpt>
      <trkpt lat="39.214263121177495" lon="-6.118497966094654"><ele>1944</ele><speed>10.32</speed><time>2016-07-09T12:57:30Z</time><pdop>6.0</pdop><geoidheight>50.60</geoidheight><course>229.27971</course><type>1</type></trkpt>
      <trkpt lat="39.214156162074595" lon="-6.118693133140945"><ele>1940</ele><speed>10.88</speed><time>2016-07-09T12:57:32Z</time><pdop>6.0</pdop><geoidheight>50.60</geoidheight><course>230.8337</course><type>1</type></trkpt>
      <trkpt lat="39.214026733701544" lon="-6.118892498389963"><ele>1936</ele><speed>12.15</speed><time>2016-07-09T12:57:34Z</time><pdop>6.0</pdop><geoidheight>50.60</geoidheight><course>226.74126</course><type>1</type></trkpt>
      <trkpt lat="39.21390390804424" lon="-6.119091846327554"><ele>1932</ele><speed>10.99</speed><time>2016-07-09T12:57:36Z</time><pdop>6.0</pdop><geoidheight>50.60</geoidheight><course>231.42336</course><type>1</type></trkpt>
      <trkpt lat="39.21380525204692" lon="-6.119301480321517"><ele>1929</ele><speed>10.23</speed><time>2016-07-09T12:57:38Z</time><pdop>6.0</pdop><geoidheight>50.60</geoidheight><course>235.5953</course><type>1</type></trkpt>
      <trkpt lat="39.21368583284223" lon="-6.119474257458264"><ele>1928</ele><speed>10.22</speed><time>2016-07-09T12:57:40Z</time><pdop>6.0</pdop><geoidheight>50.60</geoidheight><course>217.97813</course><type>1</type></trkpt>
      <trkpt lat="39.21354753592246" lon="-6.119617396262593"><ele>1926</ele><speed>10.49</speed><time>2016-07-09T12:57:42Z</time><pdop>6.0</pdop><geoidheight>50.60</geoidheight><course>216.5705</course><type>1</type></trkpt>
      <trkpt lat="39.21338819953045" lon="-6.1197617376758044"><ele>1924</ele><speed>11.76</speed><time>2016-07-09T12:57:44Z</time><pdop>6.0</pdop><geoidheight>50.60</geoidheight><course>213.82419</course><type>1</type></trkpt>
      <trkpt lat="39.21322665802529" lon="-6.119882424329254"><ele>1922</ele><speed>10.36</speed><time>2016-07-09T12:57:46Z</time><pdop>6.0</pdop><geoidheight>50.60</geoidheight><course>209.6862</course><type>1</type></trkpt>
      <trkpt lat="39.21308113375336" lon="-6.120029926459006"><ele>1921</ele><speed>10.77</speed><time>2016-07-09T12:57:48Z</time><pdop>6.0</pdop><geoidheight>50.60</geoidheight><course>227.08719</course><type>1</type></trkpt>
      <trkpt lat="39.21294829367137" lon="-6.1202282356839675"><ele>1919</ele><speed>12.11</speed><time>2016-07-09T12:57:50Z</time><pdop>6.0</pdop><geoidheight>50.60</geoidheight><course>230.19952</course><type>1</type></trkpt>
      <trkpt lat="39.2128105810579" lon="-6.120422178012626"><ele>1916</ele><speed>11.70</speed><time>2016-07-09T12:57:52Z</time><pdop>6.0</pdop><geoidheight>50.60</geoidheight><course>225.30145</course><type>1</type></trkpt>
      <trkpt lat="39.212663052511736" lon="-6.120578711116109"><ele>1912</ele><speed>11.38</speed><time>2016-07-09T12:57:54Z</time><pdop>8.0</pdop><geoidheight>50.60</geoidheight><course>221.02438</course><type>1</type></trkpt>
      <trkpt lat="39.21252545807831" lon="-6.120736533906172"><ele>1908</ele><speed>10.25</speed><time>2016-07-09T12:57:56Z</time><pdop>8.0</pdop><geoidheight>50.60</geoidheight><course>224.59077</course><type>1</type></trkpt>
      <trkpt lat="39.21240228833945" lon="-6.120899681079064"><ele>1904</ele><speed>10.42</speed><time>2016-07-09T12:57:58Z</time><pdop>6.0</pdop><geoidheight>50.60</geoidheight><course>225.92302</course><type>1</type></trkpt>
      <trkpt lat="39.212267609049604" lon="-6.121077019684469"><ele>1899</ele><speed>11.23</speed><time>2016-07-09T12:58:00Z</time><pdop>6.0</pdop><geoidheight>50.60</geoidheight><course>222.74776</course><type>1</type></trkpt>
      <trkpt lat="39.21210387339602" lon="-6.1211944872462025"><ele>1895</ele><speed>10.04</speed><time>2016-07-09T12:58:02Z</time><pdop>6.0</pdop><geoidheight>50.60</geoidheight><course>206.0615</course><type>1</type></trkpt>
      <trkpt lat="39.21194714411161" lon="-6.121303294161494"><ele>1890</ele><speed>10.73</speed><time>2016-07-09T12:58:04Z</time><pdop>6.0</pdop><geoidheight>50.60</geoidheight><course>209.38467</course><type>1</type></trkpt>
      <trkpt lat="39.21176292315844" lon="-6.121472798248586"><ele>1886</ele><speed>12.90</speed><time>2016-07-09T12:58:06Z</time><pdop>8.0</pdop><geoidheight>50.60</geoidheight><course>215.55276</course><type>1</type></trkpt>
      <trkpt lat="39.211583522567324" lon="-6.121654636807642"><ele>1881</ele><speed>12.72</speed><time>2016-07-09T12:58:08Z</time><pdop>8.0</pdop><geoidheight>50.60</geoidheight><course>214.86125</course><type>1</type></trkpt>
      <trkpt lat="39.2114146291408" lon="-6.121810421573375"><ele>1877</ele><speed>12.90</speed><time>2016-07-09T12:58:10Z</time><pdop>8.0</pdop><geoidheight>50.60</geoidheight><course>213.24489</course><type>1</type></trkpt>
      <trkpt lat="39.21122620570104" lon="-6.121978234876052"><ele>1873</ele><speed>13.85</speed><time>2016-07-09T12:58:12Z</time><pdop>8.0</pdop><geoidheight>50.60</geoidheight><course>212.08853</course><type>1</type></trkpt>
      <trkpt lat="39.21103518977939" lon="-6.122119093371508"><ele>1868</ele><speed>13.65</speed><time>2016-07-09T12:58:15Z</time><pdop>8.0</pdop><geoidheight>50.60</geoidheight><course>206.99545</course><type>1</type></trkpt>
      <trkpt lat="39.21085201227884" lon="-6.122232273449838"><ele>1863</ele><speed>11.57</speed><time>2016-07-09T12:58:16Z</time><pdop>8.0</pdop><geoidheight>50.60</geoidheight><course>204.73178</course><type>1</type></trkpt>
      <trkpt lat="39.21065880443899" lon="-6.12232265568641"><ele>1859</ele><speed>13.35</speed><time>2016-07-09T12:58:18Z</time><pdop>8.0</pdop><geoidheight>50.60</geoidheight><course>198.91557</course><type>1</type></trkpt>
      <trkpt lat="39.210424703794025" lon="-6.122400661282261"><ele>1854</ele><speed>14.96</speed><time>2016-07-09T12:58:20Z</time><pdop>8.0</pdop><geoidheight>50.60</geoidheight><course>194.78984</course><type>1</type></trkpt>
      <trkpt lat="39.21017765125196" lon="-6.122420942313332"><ele>1850</ele><speed>10.76</speed><time>2016-07-09T12:58:22Z</time><pdop>12.0</pdop><geoidheight>50.60</geoidheight><course>177.4991</course><type>1</type></trkpt>
      <trkpt lat="39.20992344261075" lon="-6.122425033150443"><ele>1846</ele><speed>8.51</speed><time>2016-07-09T12:58:25Z</time><pdop>8.0</pdop><geoidheight>50.60</geoidheight><course>181.72603</course><type>1</type></trkpt>
      <trkpt lat="39.209706662496686" lon="-6.122447918229406"><ele>1840</ele><speed>14.81</speed><time>2016-07-09T12:58:27Z</time><pdop>8.0</pdop><geoidheight>50.60</geoidheight><course>183.0371</course><type>1</type></trkpt>
      <trkpt lat="39.20944985581297" lon="-6.122489845056051"><ele>1833</ele><speed>15.99</speed><time>2016-07-09T12:58:29Z</time><pdop>8.0</pdop><geoidheight>50.60</geoidheight><course>186.46167</course><type>1</type></trkpt>
      <trkpt lat="39.20922572660549" lon="-6.122540357972619"><ele>1824</ele><speed>12.80</speed><time>2016-07-09T12:58:31Z</time><pdop>8.0</pdop><geoidheight>50.60</geoidheight><course>187.30644</course><type>1</type></trkpt>
      <trkpt lat="39.20901455595315" lon="-6.122616018841076"><ele>1818</ele><speed>12.55</speed><time>2016-07-09T12:58:33Z</time><pdop>12.0</pdop><geoidheight>50.60</geoidheight><course>194.28584</course><type>1</type></trkpt>
      <trkpt lat="39.20880230273729" lon="-6.12272827549762"><ele>1811</ele><speed>13.44</speed><time>2016-07-09T12:58:35Z</time><pdop>12.0</pdop><geoidheight>50.60</geoidheight><course>196.27667</course><type>1</type></trkpt>
      <trkpt lat="39.208575217845095" lon="-6.122836127259991"><ele>1804</ele><speed>14.91</speed><time>2016-07-09T12:58:37Z</time><pdop>8.0</pdop><geoidheight>50.60</geoidheight><course>196.0911</course><type>1</type></trkpt>
      <trkpt lat="39.208357232883394" lon="-6.1229438616410095"><ele>1799</ele><speed>13.01</speed><time>2016-07-09T12:58:39Z</time><pdop>8.0</pdop><geoidheight>50.60</geoidheight><course>198.35869</course><type>1</type></trkpt>
      <trkpt lat="39.208137717092534" lon="-6.123046481748424"><ele>1793</ele><speed>14.27</speed><time>2016-07-09T12:58:41Z</time><pdop>12.0</pdop><geoidheight>50.60</geoidheight><course>197.17851</course><type>1</type></trkpt>
      <trkpt lat="39.207915109389" lon="-6.123128716298283"><ele>1787</ele><speed>15.26</speed><time>2016-07-09T12:58:43Z</time><pdop>12.0</pdop><geoidheight>50.60</geoidheight><course>195.75829</course><type>1</type></trkpt>
      <trkpt lat="39.20770154693404" lon="-6.123226419186074"><ele>1779</ele><speed>13.38</speed><time>2016-07-09T12:58:45Z</time><pdop>12.0</pdop><geoidheight>50.60</geoidheight><course>200.21526</course><type>1</type></trkpt>
      <trkpt lat="39.207468388062175" lon="-6.123356032400745"><ele>1773</ele><speed>15.30</speed><time>2016-07-09T12:58:47Z</time><pdop>8.0</pdop><geoidheight>50.60</geoidheight><course>201.95866</course><type>1</type></trkpt>
      <trkpt lat="39.20722612725701" lon="-6.123517234614857"><ele>1767</ele><speed>15.41</speed><time>2016-07-09T12:58:49Z</time><pdop>8.0</pdop><geoidheight>50.60</geoidheight><course>206.86243</course><type>1</type></trkpt>
      <trkpt lat="39.20711383163875" lon="-6.1236165928466955"><ele>1764</ele><speed>15.92</speed><time>2016-07-09T12:58:50Z</time><pdop>6.0</pdop><geoidheight>50.60</geoidheight><course>210.33086</course><type>1</type></trkpt>
      <trkpt lat="39.20700776750203" lon="-6.123726643409481"><ele>1761</ele><speed>16.01</speed><time>2016-07-09T12:58:51Z</time><pdop>6.0</pdop><geoidheight>50.60</geoidheight><course>213.72244</course><type>1</type></trkpt>
      <trkpt lat="39.206904596236654" lon="-6.123848499805726"><ele>1759</ele><speed>16.25</speed><time>2016-07-09T12:58:52Z</time><pdop>6.0</pdop><geoidheight>50.60</geoidheight><course>217.31444</course><type>1</type></trkpt>
      <trkpt lat="39.206803447174124" lon="-6.12398610407186"><ele>1756</ele><speed>16.84</speed><time>2016-07-09T12:58:53Z</time><pdop>6.0</pdop><geoidheight>50.60</geoidheight><course>221.34921</course><type>1</type></trkpt>
      <trkpt lat="39.206703589729536" lon="-6.124138314817477"><ele>1753</ele><speed>17.72</speed><time>2016-07-09T12:58:54Z</time><pdop>6.0</pdop><geoidheight>50.60</geoidheight><course>224.44466</course><type>1</type></trkpt>
      <trkpt lat="39.20660598210481" lon="-6.124295165490457"><ele>1750</ele><speed>17.32</speed><time>2016-07-09T12:58:55Z</time><pdop>6.0</pdop><geoidheight>50.60</geoidheight><course>225.90468</course><type>1</type></trkpt>
      <trkpt lat="39.20651302533737" lon="-6.124443313659897"><ele>1747</ele><speed>16.60</speed><time>2016-07-09T12:58:56Z</time><pdop>6.0</pdop><geoidheight>50.60</geoidheight><course>226.40381</course><type>1</type></trkpt>
      <trkpt lat="39.20642472748669" lon="-6.1245889507248785"><ele>1744</ele><speed>16.05</speed><time>2016-07-09T12:58:57Z</time><pdop>6.0</pdop><geoidheight>50.60</geoidheight><course>227.63449</course><type>1</type></trkpt>
      <trkpt lat="39.20634018267173" lon="-6.124740027232709"><ele>1741</ele><speed>16.29</speed><time>2016-07-09T12:58:58Z</time><pdop>6.0</pdop><geoidheight>50.60</geoidheight><course>230.20432</course><type>1</type></trkpt>
      <trkpt lat="39.20626001737763" lon="-6.124904341529353"><ele>1738</ele><speed>16.93</speed><time>2016-07-09T12:58:59Z</time><pdop>6.0</pdop><geoidheight>50.60</geoidheight><course>233.82448</course><type>1</type></trkpt>
      <trkpt lat="39.20618466080375" lon="-6.125079456962932"><ele>1735</ele><speed>17.46</speed><time>2016-07-09T12:59:00Z</time><pdop>6.0</pdop><geoidheight>50.60</geoidheight><course>236.68735</course><type>1</type></trkpt>
      <trkpt lat="39.2061118326104" lon="-6.125250842708178"><ele>1732</ele><speed>16.90</speed><time>2016-07-09T12:59:02Z</time><pdop>6.0</pdop><geoidheight>50.60</geoidheight><course>237.9071</course><type>1</type></trkpt>
      <trkpt lat="39.2060410385335" lon="-6.125417694660597"><ele>1730</ele><speed>16.34</speed><time>2016-07-09T12:59:03Z</time><pdop>6.0</pdop><geoidheight>50.60</geoidheight><course>238.42047</course><type>1</type></trkpt>
      <trkpt lat="39.20597305222157" lon="-6.125581852232073"><ele>1727</ele><speed>15.32</speed><time>2016-07-09T12:59:03Z</time><pdop>6.0</pdop><geoidheight>50.60</geoidheight><course>239.29425</course><type>1</type></trkpt>
      <trkpt lat="39.20591497371329" lon="-6.12573780263849"><ele>1725</ele><speed>14.35</speed><time>2016-07-09T12:59:04Z</time><pdop>6.0</pdop><geoidheight>50.60</geoidheight><course>242.00475</course><type>1</type></trkpt>
      <trkpt lat="39.20587076846533" lon="-6.12588933948449"><ele>1723</ele><speed>14.91</speed><time>2016-07-09T12:59:05Z</time><pdop>6.0</pdop><geoidheight>50.60</geoidheight><course>245.41656</course><type>1</type></trkpt>
      <trkpt lat="39.205825560602854" lon="-6.126042157755001"><ele>1721</ele><speed>14.41</speed><time>2016-07-09T12:59:06Z</time><pdop>4.0</pdop><geoidheight>50.60</geoidheight><course>246.54407</course><type>1</type></trkpt>
      <trkpt lat="39.20577974584061" lon="-6.126198785880415"><ele>1719</ele><speed>16.08</speed><time>2016-07-09T12:59:07Z</time><pdop>4.0</pdop><geoidheight>50.60</geoidheight><course>245.83829</course><type>1</type></trkpt>
      <trkpt lat="39.205726559316034" lon="-6.126357038268031"><ele>1716</ele><speed>17.17</speed><time>2016-07-09T12:59:08Z</time><pdop>6.0</pdop><geoidheight>50.60</geoidheight><course>244.91977</course><type>1</type></trkpt>
      <trkpt lat="39.20566988214613" lon="-6.126513141440498"><ele>1713</ele><speed>16.32</speed><time>2016-07-09T12:59:09Z</time><pdop>6.0</pdop><geoidheight>50.60</geoidheight><course>243.76498</course><type>1</type></trkpt>
      <trkpt lat="39.20561461992494" lon="-6.12665927885022"><ele>1710</ele><speed>13.98</speed><time>2016-07-09T12:59:10Z</time><pdop>6.0</pdop><geoidheight>50.60</geoidheight><course>242.9996</course><type>1</type></trkpt>
      <trkpt lat="39.20556248843836" lon="-6.126793344386384"><ele>1708</ele><speed>11.50</speed><time>2016-07-09T12:59:11Z</time><pdop>6.0</pdop><geoidheight>50.60</geoidheight><course>243.87456</course><type>1</type></trkpt>
      <trkpt lat="39.20548129871667" lon="-6.127034605502391"><ele>1706</ele><speed>12.03</speed><time>2016-07-09T12:59:13Z</time><pdop>6.0</pdop><geoidheight>50.60</geoidheight><course>246.46397</course><type>1</type></trkpt>
      <trkpt lat="39.205396476683255" lon="-6.127296077184173"><ele>1702</ele><speed>14.28</speed><time>2016-07-09T12:59:16Z</time><pdop>8.0</pdop><geoidheight>50.60</geoidheight><course>245.93068</course><type>1</type></trkpt>
      <trkpt lat="39.205295211567126" lon="-6.1275533113150304"><ele>1698</ele><speed>13.11</speed><time>2016-07-09T12:59:17Z</time><pdop>8.0</pdop><geoidheight>50.60</geoidheight><course>243.59798</course><type>1</type></trkpt>
      <trkpt lat="39.205209202107284" lon="-6.127808948818065"><ele>1692</ele><speed>12.72</speed><time>2016-07-09T12:59:19Z</time><pdop>6.0</pdop><geoidheight>50.60</geoidheight><course>248.25327</course><type>1</type></trkpt>
      <trkpt lat="39.205176108649255" lon="-6.127953552725625"><ele>1690</ele><speed>13.67</speed><time>2016-07-09T12:59:20Z</time><pdop>6.0</pdop><geoidheight>50.60</geoidheight><course>251.3249</course><type>1</type></trkpt>
      <trkpt lat="39.20514525917881" lon="-6.128098586533315"><ele>1687</ele><speed>13.97</speed><time>2016-07-09T12:59:21Z</time><pdop>6.0</pdop><geoidheight>50.60</geoidheight><course>252.5243</course><type>1</type></trkpt>
      <trkpt lat="39.20506990125805" lon="-6.128380319079135"><ele>1682</ele><speed>14.78</speed><time>2016-07-09T12:59:23Z</time><pdop>8.0</pdop><geoidheight>50.60</geoidheight><course>249.95232</course><type>1</type></trkpt>
      <trkpt lat="39.20496832816561" lon="-6.128673873567119"><ele>1677</ele><speed>14.66</speed><time>2016-07-09T12:59:25Z</time><pdop>6.0</pdop><geoidheight>50.60</geoidheight><course>246.89716</course><type>1</type></trkpt>
      <trkpt lat="39.204912689299405" lon="-6.12881201869431"><ele>1676</ele><speed>13.27</speed><time>2016-07-09T12:59:26Z</time><pdop>6.0</pdop><geoidheight>50.60</geoidheight><course>244.32692</course><type>1</type></trkpt>
      <trkpt lat="39.20485087239823" lon="-6.128939509141231"><ele>1674</ele><speed>13.07</speed><time>2016-07-09T12:59:27Z</time><pdop>6.0</pdop><geoidheight>50.60</geoidheight><course>240.63567</course><type>1</type></trkpt>
      <trkpt lat="39.20476328446928" lon="-6.129033519984401"><ele>1671</ele><speed>12.93</speed><time>2016-07-09T12:59:28Z</time><pdop>6.0</pdop><geoidheight>50.60</geoidheight><course>223.61894</course><type>1</type></trkpt>
      <trkpt lat="39.20467406334338" lon="-6.129123166763646"><ele>1668</ele><speed>12.93</speed><time>2016-07-09T12:59:29Z</time><pdop>6.0</pdop><geoidheight>50.60</geoidheight><course>220.47275</course><type>1</type></trkpt>
      <trkpt lat="39.204478065312415" lon="-6.129222312161639"><ele>1662</ele><speed>12.00</speed><time>2016-07-09T12:59:31Z</time><pdop>8.0</pdop><geoidheight>50.60</geoidheight><course>201.55215</course><type>1</type></trkpt>
      <trkpt lat="39.20426976122375" lon="-6.129247266388574"><ele>1655</ele><speed>11.69</speed><time>2016-07-09T12:59:33Z</time><pdop>8.0</pdop><geoidheight>50.60</geoidheight><course>185.88095</course><type>1</type></trkpt>
      <trkpt lat="39.20407664427495" lon="-6.129224998064364"><ele>1650</ele><speed>9.71</speed><time>2016-07-09T12:59:35Z</time><pdop>8.0</pdop><geoidheight>50.60</geoidheight><course>167.29768</course><type>1</type></trkpt>
      <trkpt lat="39.20391063347421" lon="-6.129144337769202"><ele>1644</ele><speed>7.81</speed><time>2016-07-09T12:59:37Z</time><pdop>8.0</pdop><geoidheight>50.60</geoidheight><course>143.26114</course><type>1</type></trkpt>
      <trkpt lat="39.203816443752196" lon="-6.129003724473323"><ele>1637</ele><speed>8.93</speed><time>2016-07-09T12:59:39Z</time><pdop>8.0</pdop><geoidheight>50.60</geoidheight><course>123.756256</course><type>1</type></trkpt>
      <trkpt lat="39.20376584201565" lon="-6.128737789800925"><ele>1626</ele><speed>7.99</speed><time>2016-07-09T12:59:42Z</time><pdop>12.0</pdop><geoidheight>50.60</geoidheight><course>94.51066</course><type>1</type></trkpt>
      <trkpt lat="39.203743800381126" lon="-6.128465768109976"><ele>1616</ele><speed>6.96</speed><time>2016-07-09T12:59:46Z</time><pdop>8.0</pdop><geoidheight>50.60</geoidheight><course>94.03781</course><type>1</type></trkpt>
      <trkpt lat="39.20373241240677" lon="-6.128240026528472"><ele>1611</ele><speed>6.27</speed><time>2016-07-09T12:59:49Z</time><pdop>8.0</pdop><geoidheight>50.60</geoidheight><course>94.06905</course><type>1</type></trkpt>
      <trkpt lat="39.20373018525873" lon="-6.128020352327832"><ele>1604</ele><speed>8.31</speed><time>2016-07-09T12:59:52Z</time><pdop>8.0</pdop><geoidheight>50.60</geoidheight><course>87.44105</course><type>1</type></trkpt>
      <trkpt lat="39.203842811760424" lon="-6.127806006664747"><ele>1597</ele><speed>7.30</speed><time>2016-07-09T12:59:55Z</time><pdop>8.0</pdop><geoidheight>50.60</geoidheight><course>38.24901</course><type>1</type></trkpt>
      <trkpt lat="39.20396854183258" lon="-6.127651818996191"><ele>1591</ele><speed>7.05</speed><time>2016-07-09T12:59:58Z</time><pdop>8.0</pdop><geoidheight>50.60</geoidheight><course>45.61355</course><type>1</type></trkpt>
      <trkpt lat="39.2041229843455" lon="-6.127484798690594"><ele>1584</ele><speed>7.90</speed><time>2016-07-09T13:00:01Z</time><pdop>8.0</pdop><geoidheight>50.60</geoidheight><course>30.661898</course><type>1</type></trkpt>
      <trkpt lat="39.204234234247835" lon="-6.127404116464624"><ele>1581</ele><speed>5.75</speed><time>2016-07-09T13:00:03Z</time><pdop>6.0</pdop><geoidheight>50.60</geoidheight><course>31.504263</course><type>1</type></trkpt>
      <trkpt lat="39.20435276913714" lon="-6.1273142994568435"><ele>1577</ele><speed>7.72</speed><time>2016-07-09T13:00:05Z</time><pdop>8.0</pdop><geoidheight>50.60</geoidheight><course>33.32212</course><type>1</type></trkpt>
      <trkpt lat="39.20449372972524" lon="-6.127165350933508"><ele>1570</ele><speed>7.37</speed><time>2016-07-09T13:00:08Z</time><pdop>6.0</pdop><geoidheight>50.60</geoidheight><course>49.704945</course><type>1</type></trkpt>
      <trkpt lat="39.20461464824592" lon="-6.126963675259526"><ele>1563</ele><speed>8.05</speed><time>2016-07-09T13:00:11Z</time><pdop>8.0</pdop><geoidheight>50.60</geoidheight><course>52.07391</course><type>1</type></trkpt>
      <trkpt lat="39.2047436407071" lon="-6.126771379926391"><ele>1557</ele><speed>6.85</speed><time>2016-07-09T13:00:14Z</time><pdop>6.0</pdop><geoidheight>50.60</geoidheight><course>50.62155</course><type>1</type></trkpt>
      <trkpt lat="39.204822331118095" lon="-6.126641168656659"><ele>1553</ele><speed>7.68</speed><time>2016-07-09T13:00:16Z</time><pdop>6.0</pdop><geoidheight>50.60</geoidheight><course>52.577805</course><type>1</type></trkpt>
      <trkpt lat="39.2049190148323" lon="-6.126503629239434"><ele>1548</ele><speed>9.47</speed><time>2016-07-09T13:00:18Z</time><pdop>6.0</pdop><geoidheight>50.60</geoidheight><course>46.897964</course><type>1</type></trkpt>
      <trkpt lat="39.20502320169963" lon="-6.126381146805621"><ele>1543</ele><speed>7.88</speed><time>2016-07-09T13:00:20Z</time><pdop>6.0</pdop><geoidheight>50.60</geoidheight><course>44.323605</course><type>1</type></trkpt>
      <trkpt lat="39.20512636117918" lon="-6.126257586390719"><ele>1538</ele><speed>8.34</speed><time>2016-07-09T13:00:22Z</time><pdop>6.0</pdop><geoidheight>50.60</geoidheight><course>44.683506</course><type>1</type></trkpt>
      <trkpt lat="39.20523961811713" lon="-6.126111087379706"><ele>1533</ele><speed>9.53</speed><time>2016-07-09T13:00:24Z</time><pdop>6.0</pdop><geoidheight>50.60</geoidheight><course>46.855343</course><type>1</type></trkpt>
      <trkpt lat="39.20534316940496" lon="-6.1259808184948845"><ele>1528</ele><speed>8.27</speed><time>2016-07-09T13:00:26Z</time><pdop>8.0</pdop><geoidheight>50.60</geoidheight><course>44.620537</course><type>1</type></trkpt>
      <trkpt lat="39.20549004336187" lon="-6.12576880886485"><ele>1521</ele><speed>9.10</speed><time>2016-07-09T13:00:29Z</time><pdop>6.0</pdop><geoidheight>50.60</geoidheight><course>50.480198</course><type>1</type></trkpt>
      <trkpt lat="39.20559804341748" lon="-6.125611604892334"><ele>1516</ele><speed>9.28</speed><time>2016-07-09T13:00:31Z</time><pdop>12.0</pdop><geoidheight>50.60</geoidheight><course>46.82118</course><type>1</type></trkpt>
      <trkpt lat="39.205754515177894" lon="-6.125422138832615"><ele>1508</ele><speed>7.35</speed><time>2016-07-09T13:00:34Z</time><pdop>6.0</pdop><geoidheight>50.60</geoidheight><course>44.010315</course><type>1</type></trkpt>
      <trkpt lat="39.20585554739714" lon="-6.125290804593334"><ele>1503</ele><speed>8.87</speed><time>2016-07-09T13:00:36Z</time><pdop>8.0</pdop><geoidheight>50.60</geoidheight><course>47.728252</course><type>1</type></trkpt>
      <trkpt lat="39.20595691821994" lon="-6.125116484381131"><ele>1496</ele><speed>9.19</speed><time>2016-07-09T13:00:38Z</time><pdop>8.0</pdop><geoidheight>50.60</geoidheight><course>54.221146</course><type>1</type></trkpt>
      <trkpt lat="39.20605551138653" lon="-6.124936183565327"><ele>1492</ele><speed>9.02</speed><time>2016-07-09T13:00:40Z</time><pdop>8.0</pdop><geoidheight>50.60</geoidheight><course>53.49895</course><type>1</type></trkpt>
      <trkpt lat="39.20615438251606" lon="-6.124775376944117"><ele>1489</ele><speed>8.06</speed><time>2016-07-09T13:00:42Z</time><pdop>8.0</pdop><geoidheight>50.60</geoidheight><course>50.14183</course><type>1</type></trkpt>
      <trkpt lat="39.206282091348555" lon="-6.124648108718563"><ele>1488</ele><speed>4.82</speed><time>2016-07-09T13:00:45Z</time><pdop>8.0</pdop><geoidheight>50.60</geoidheight><course>30.54842</course><type>1</type></trkpt>
      <trkpt lat="39.20644254357875" lon="-6.124492972167822"><ele>1485</ele><speed>8.53</speed><time>2016-07-09T13:00:48Z</time><pdop>8.0</pdop><geoidheight>50.60</geoidheight><course>39.00076</course><type>1</type></trkpt>
      <trkpt lat="39.20655063000645" lon="-6.124361465963067"><ele>1483</ele><speed>7.86</speed><time>2016-07-09T13:00:50Z</time><pdop>8.0</pdop><geoidheight>50.60</geoidheight><course>42.965916</course><type>1</type></trkpt>
      <trkpt lat="39.206696381113595" lon="-6.124208011630806"><ele>1481</ele><speed>7.02</speed><time>2016-07-09T13:00:54Z</time><pdop>8.0</pdop><geoidheight>50.60</geoidheight><course>35.570824</course><type>1</type></trkpt>
      <trkpt lat="39.206840002595825" lon="-6.124057276199414"><ele>1479</ele><speed>6.59</speed><time>2016-07-09T13:00:56Z</time><pdop>6.0</pdop><geoidheight>50.60</geoidheight><course>40.230003</course><type>1</type></trkpt>
      <trkpt lat="39.20696576979093" lon="-6.123902703224951"><ele>1478</ele><speed>6.96</speed><time>2016-07-09T13:00:59Z</time><pdop>8.0</pdop><geoidheight>50.60</geoidheight><course>42.5497</course><type>1</type></trkpt>
      <trkpt lat="39.20717446710819" lon="-6.1236727103233815"><ele>1475</ele><speed>7.21</speed><time>2016-07-09T13:01:03Z</time><pdop>8.0</pdop><geoidheight>50.60</geoidheight><course>41.561787</course><type>1</type></trkpt>
      <trkpt lat="39.20729190340596" lon="-6.123519236391956"><ele>1474</ele><speed>6.63</speed><time>2016-07-09T13:01:06Z</time><pdop>8.0</pdop><geoidheight>50.60</geoidheight><course>45.96122</course><type>1</type></trkpt>
      <trkpt lat="39.20739081051701" lon="-6.123384362185721"><ele>1473</ele><speed>8.49</speed><time>2016-07-09T13:01:08Z</time><pdop>8.0</pdop><geoidheight>50.60</geoidheight><course>46.39376</course><type>1</type></trkpt>
      <trkpt lat="39.207502596944295" lon="-6.123256723490237"><ele>1472</ele><speed>8.27</speed><time>2016-07-09T13:01:10Z</time><pdop>8.0</pdop><geoidheight>50.60</geoidheight><course>40.453964</course><type>1</type></trkpt>
      <trkpt lat="39.207663847652654" lon="-6.123127455596392"><ele>1470</ele><speed>7.03</speed><time>2016-07-09T13:01:13Z</time><pdop>8.0</pdop><geoidheight>50.60</geoidheight><course>33.533623</course><type>1</type></trkpt>
      <trkpt lat="39.20781275668503" lon="-6.123019279601271"><ele>1467</ele><speed>10.59</speed><time>2016-07-09T13:01:15Z</time><pdop>8.0</pdop><geoidheight>50.60</geoidheight><course>32.332504</course><type>1</type></trkpt>
      <trkpt lat="39.20800335402242" lon="-6.122838713254637"><ele>1460</ele><speed>7.51</speed><time>2016-07-09T13:01:18Z</time><pdop>12.0</pdop><geoidheight>50.60</geoidheight><course>50.47362</course><type>1</type></trkpt>
      <trkpt lat="39.208132225229" lon="-6.122664544341197"><ele>1454</ele><speed>7.46</speed><time>2016-07-09T13:01:21Z</time><pdop>8.0</pdop><geoidheight>50.60</geoidheight><course>47.26417</course><type>1</type></trkpt>
      <trkpt lat="39.20827884447985" lon="-6.1224919295652604"><ele>1446</ele><speed>7.35</speed><time>2016-07-09T13:01:24Z</time><pdop>8.0</pdop><geoidheight>50.60</geoidheight><course>49.161343</course><type>1</type></trkpt>
      <trkpt lat="39.20836742606843" lon="-6.122376677714759"><ele>1442</ele><speed>7.12</speed><time>2016-07-09T13:01:26Z</time><pdop>6.0</pdop><geoidheight>50.60</geoidheight><course>47.031464</course><type>1</type></trkpt>
      <trkpt lat="39.20850190954702" lon="-6.122209138256666"><ele>1434</ele><speed>7.55</speed><time>2016-07-09T13:01:30Z</time><pdop>8.0</pdop><geoidheight>50.60</geoidheight><course>49.7453</course><type>1</type></trkpt>
      <trkpt lat="39.20861843435895" lon="-6.121990628776471"><ele>1425</ele><speed>7.86</speed><time>2016-07-09T13:01:33Z</time><pdop>12.0</pdop><geoidheight>50.60</geoidheight><course>49.00819</course><type>1</type></trkpt>
      <trkpt lat="39.20879537385188" lon="-6.12184684044634"><ele>1419</ele><speed>7.87</speed><time>2016-07-09T13:01:35Z</time><pdop>8.0</pdop><geoidheight>50.60</geoidheight><course>33.1464</course><type>1</type></trkpt>
      <trkpt lat="39.208920630903314" lon="-6.121683903514362"><ele>1412</ele><speed>7.29</speed><time>2016-07-09T13:01:38Z</time><pdop>6.0</pdop><geoidheight>50.60</geoidheight><course>49.254086</course><type>1</type></trkpt>
      <trkpt lat="39.209011293034905" lon="-6.121562599847387"><ele>1406</ele><speed>7.87</speed><time>2016-07-09T13:01:40Z</time><pdop>6.0</pdop><geoidheight>50.60</geoidheight><course>47.9569</course><type>1</type></trkpt>
      <trkpt lat="39.20909589679223" lon="-6.121446397591438"><ele>1401</ele><speed>7.19</speed><time>2016-07-09T13:01:42Z</time><pdop>6.0</pdop><geoidheight>50.60</geoidheight><course>49.195873</course><type>1</type></trkpt>
      <trkpt lat="39.2091882397332" lon="-6.121322924488917"><ele>1396</ele><speed>8.03</speed><time>2016-07-09T13:01:44Z</time><pdop>6.0</pdop><geoidheight>50.60</geoidheight><course>47.4874</course><type>1</type></trkpt>
      <trkpt lat="39.20927771079638" lon="-6.121203899852406"><ele>1391</ele><speed>7.33</speed><time>2016-07-09T13:01:46Z</time><pdop>6.0</pdop><geoidheight>50.60</geoidheight><course>48.8356</course><type>1</type></trkpt>
      <trkpt lat="39.20934686172236" lon="-6.121088425462305"><ele>1387</ele><speed>6.93</speed><time>2016-07-09T13:01:48Z</time><pdop>6.0</pdop><geoidheight>50.60</geoidheight><course>53.36629</course><type>1</type></trkpt>
      <trkpt lat="39.20946237985178" lon="-6.1208869258763405"><ele>1380</ele><speed>8.01</speed><time>2016-07-09T13:01:51Z</time><pdop>6.0</pdop><geoidheight>50.60</geoidheight><course>51.407875</course><type>1</type></trkpt>
      <trkpt lat="39.20958521623286" lon="-6.120707800187922"><ele>1375</ele><speed>7.26</speed><time>2016-07-09T13:01:54Z</time><pdop>6.0</pdop><geoidheight>50.60</geoidheight><course>49.864334</course><type>1</type></trkpt>
      <trkpt lat="39.20972556608668" lon="-6.120521027351048"><ele>1370</ele><speed>8.02</speed><time>2016-07-09T13:01:57Z</time><pdop>12.0</pdop><geoidheight>50.60</geoidheight><course>45.962193</course><type>1</type></trkpt>
      <trkpt lat="39.2098708993807" lon="-6.120342091150372"><ele>1365</ele><speed>7.86</speed><time>2016-07-09T13:02:00Z</time><pdop>6.0</pdop><geoidheight>50.60</geoidheight><course>47.189728</course><type>1</type></trkpt>
      <trkpt lat="39.20997768545995" lon="-6.120203088640018"><ele>1362</ele><speed>8.61</speed><time>2016-07-09T13:02:02Z</time><pdop>6.0</pdop><geoidheight>50.60</geoidheight><course>47.985775</course><type>1</type></trkpt>
      <trkpt lat="39.21006516165742" lon="-6.120078966008345"><ele>1358</ele><speed>6.84</speed><time>2016-07-09T13:02:04Z</time><pdop>6.0</pdop><geoidheight>50.60</geoidheight><course>49.09207</course><type>1</type></trkpt>
      <trkpt lat="39.210159132068746" lon="-6.119954849049863"><ele>1355</ele><speed>8.29</speed><time>2016-07-09T13:02:06Z</time><pdop>8.0</pdop><geoidheight>50.60</geoidheight><course>46.163635</course><type>1</type></trkpt>
      <trkpt lat="39.21027538830962" lon="-6.1198129493484945"><ele>1351</ele><speed>9.19</speed><time>2016-07-09T13:02:08Z</time><pdop>8.0</pdop><geoidheight>50.60</geoidheight><course>45.370632</course><type>1</type></trkpt>
      <trkpt lat="39.21038713719892" lon="-6.119665753334517"><ele>1349</ele><speed>8.54</speed><time>2016-07-09T13:02:11Z</time><pdop>8.0</pdop><geoidheight>50.60</geoidheight><course>45.091995</course><type>1</type></trkpt>
      <trkpt lat="39.21049764560004" lon="-6.119525197924485"><ele>1346</ele><speed>8.60</speed><time>2016-07-09T13:02:12Z</time><pdop>8.0</pdop><geoidheight>50.60</geoidheight><course>47.30407</course><type>1</type></trkpt>
      <trkpt lat="39.21064179590317" lon="-6.119340666347696"><ele>1341</ele><speed>6.71</speed><time>2016-07-09T13:02:15Z</time><pdop>8.0</pdop><geoidheight>50.60</geoidheight><course>45.935394</course><type>1</type></trkpt>
      <trkpt lat="39.21076296743789" lon="-6.119181317115194"><ele>1336</ele><speed>7.71</speed><time>2016-07-09T13:02:18Z</time><pdop>8.0</pdop><geoidheight>50.60</geoidheight><course>56.37947</course><type>1</type></trkpt>
      <trkpt lat="39.210852703028" lon="-6.119014669396815"><ele>1330</ele><speed>11.15</speed><time>2016-07-09T13:02:20Z</time><pdop>8.0</pdop><geoidheight>50.60</geoidheight><course>57.123222</course><type>1</type></trkpt>
      <trkpt lat="39.21097844018984" lon="-6.118746883616929"><ele>1320</ele><speed>9.56</speed><time>2016-07-09T13:02:23Z</time><pdop>8.0</pdop><geoidheight>50.60</geoidheight><course>58.63149</course><type>1</type></trkpt>
      <trkpt lat="39.21105385895539" lon="-6.118581764816802"><ele>1315</ele><speed>9.65</speed><time>2016-07-09T13:02:25Z</time><pdop>8.0</pdop><geoidheight>50.60</geoidheight><course>60.387154</course><type>1</type></trkpt>
      <trkpt lat="39.21117301239583" lon="-6.118391242456336"><ele>1309</ele><speed>6.71</speed><time>2016-07-09T13:02:28Z</time><pdop>8.0</pdop><geoidheight>50.60</geoidheight><course>39.9047</course><type>1</type></trkpt>
      <trkpt lat="39.21129896606123" lon="-6.118204460893196"><ele>1306</ele><speed>8.07</speed><time>2016-07-09T13:02:31Z</time><pdop>8.0</pdop><geoidheight>50.60</geoidheight><course>58.61312</course><type>1</type></trkpt>
      <trkpt lat="39.21138379205477" lon="-6.118024335499755"><ele>1303</ele><speed>8.84</speed><time>2016-07-09T13:02:33Z</time><pdop>8.0</pdop><geoidheight>50.60</geoidheight><course>59.7781</course><type>1</type></trkpt>
      <trkpt lat="39.211459819729065" lon="-6.117855472281783"><ele>1302</ele><speed>6.91</speed><time>2016-07-09T13:02:35Z</time><pdop>8.0</pdop><geoidheight>50.60</geoidheight><course>62.49255</course><type>1</type></trkpt>
      <trkpt lat="39.211536902732064" lon="-6.117651412848502"><ele>1302</ele><speed>6.58</speed><time>2016-07-09T13:02:38Z</time><pdop>8.0</pdop><geoidheight>50.60</geoidheight><course>64.28255</course><type>1</type></trkpt>
      <trkpt lat="39.211570617872354" lon="-6.117422034073744"><ele>1301</ele><speed>6.64</speed><time>2016-07-09T13:02:41Z</time><pdop>8.0</pdop><geoidheight>50.60</geoidheight><course>89.38592</course><type>1</type></trkpt>
      <trkpt lat="39.211597109913114" lon="-6.117155006620182"><ele>1297</ele><speed>7.35</speed><time>2016-07-09T13:02:44Z</time><pdop>12.0</pdop><geoidheight>50.60</geoidheight><course>70.9778</course><type>1</type></trkpt>
      <trkpt lat="39.21172603669058" lon="-6.116882694142494"><ele>1288</ele><speed>10.11</speed><time>2016-07-09T13:02:48Z</time><pdop>8.0</pdop><geoidheight>50.60</geoidheight><course>56.886192</course><type>1</type></trkpt>
      <trkpt lat="39.2118254475367" lon="-6.116742461076137"><ele>1282</ele><speed>9.44</speed><time>2016-07-09T13:02:51Z</time><pdop>8.0</pdop><geoidheight>50.60</geoidheight><course>49.60939</course><type>1</type></trkpt>
      <trkpt lat="39.21194449516359" lon="-6.116608436206182"><ele>1276</ele><speed>9.58</speed><time>2016-07-09T13:02:52Z</time><pdop>8.0</pdop><geoidheight>50.60</geoidheight><course>43.798664</course><type>1</type></trkpt>
      <trkpt lat="39.21208571107536" lon="-6.116462906305551"><ele>1271</ele><speed>10.95</speed><time>2016-07-09T13:02:54Z</time><pdop>8.0</pdop><geoidheight>50.60</geoidheight><course>41.557827</course><type>1</type></trkpt>
      <trkpt lat="39.212247576259166" lon="-6.1163241219592335"><ele>1264</ele><speed>11.39</speed><time>2016-07-09T13:02:56Z</time><pdop>8.0</pdop><geoidheight>50.60</geoidheight><course>37.972397</course><type>1</type></trkpt>
      <trkpt lat="39.2124182416252" lon="-6.116171490233153"><ele>1257</ele><speed>11.18</speed><time>2016-07-09T13:02:58Z</time><pdop>8.0</pdop><geoidheight>50.60</geoidheight><course>36.61118</course><type>1</type></trkpt>
      <trkpt lat="39.212594790540045" lon="-6.1160452181281375"><ele>1252</ele><speed>10.66</speed><time>2016-07-09T13:03:00Z</time><pdop>8.0</pdop><geoidheight>50.60</geoidheight><course>32.58821</course><type>1</type></trkpt>
      <trkpt lat="39.21276011989304" lon="-6.11591559467455"><ele>1247</ele><speed>10.83</speed><time>2016-07-09T13:03:02Z</time><pdop>8.0</pdop><geoidheight>50.60</geoidheight><course>37.003242</course><type>1</type></trkpt>
      <trkpt lat="39.21291118329894" lon="-6.115743197053742"><ele>1242</ele><speed>11.28</speed><time>2016-07-09T13:03:04Z</time><pdop>8.0</pdop><geoidheight>50.60</geoidheight><course>43.958847</course><type>1</type></trkpt>
      <trkpt lat="39.21303356716923" lon="-6.11557723873979"><ele>1238</ele><speed>8.81</speed><time>2016-07-09T13:03:06Z</time><pdop>8.0</pdop><geoidheight>50.60</geoidheight><course>46.28229</course><type>1</type></trkpt>
      <trkpt lat="39.21313020902665" lon="-6.115423720647434"><ele>1236</ele><speed>8.23</speed><time>2016-07-09T13:03:08Z</time><pdop>8.0</pdop><geoidheight>50.60</geoidheight><course>50.15217</course><type>1</type></trkpt>
      <trkpt lat="39.21322888216748" lon="-6.115255737675605"><ele>1233</ele><speed>9.15</speed><time>2016-07-09T13:03:10Z</time><pdop>8.0</pdop><geoidheight>50.60</geoidheight><course>51.821995</course><type>1</type></trkpt>
      <trkpt lat="39.21333023296556" lon="-6.115084115395185"><ele>1229</ele><speed>9.09</speed><time>2016-07-09T13:03:12Z</time><pdop>8.0</pdop><geoidheight>50.60</geoidheight><course>52.62633</course><type>1</type></trkpt>
      <trkpt lat="39.21342823202963" lon="-6.114928162447857"><ele>1225</ele><speed>8.70</speed><time>2016-07-09T13:03:14Z</time><pdop>8.0</pdop><geoidheight>50.60</geoidheight><course>50.60661</course><type>1</type></trkpt>
      <trkpt lat="39.21355090319779" lon="-6.114767096221462"><ele>1222</ele><speed>10.25</speed><time>2016-07-09T13:03:16Z</time><pdop>8.0</pdop><geoidheight>50.60</geoidheight><course>46.691822</course><type>1</type></trkpt>
      <trkpt lat="39.21367528556115" lon="-6.1145973477352875"><ele>1218</ele><speed>9.91</speed><time>2016-07-09T13:03:18Z</time><pdop>8.0</pdop><geoidheight>50.60</geoidheight><course>48.658</course><type>1</type></trkpt>
      <trkpt lat="39.21379354397444" lon="-6.114424685750353"><ele>1216</ele><speed>10.23</speed><time>2016-07-09T13:03:20Z</time><pdop>8.0</pdop><geoidheight>50.60</geoidheight><course>48.01839</course><type>1</type></trkpt>
      <trkpt lat="39.2139245530152" lon="-6.114246988517528"><ele>1214</ele><speed>10.56</speed><time>2016-07-09T13:03:22Z</time><pdop>8.0</pdop><geoidheight>50.60</geoidheight><course>47.1315</course><type>1</type></trkpt>
      <trkpt lat="39.2140453115432" lon="-6.1140805784966945"><ele>1213</ele><speed>9.64</speed><time>2016-07-09T13:03:24Z</time><pdop>8.0</pdop><geoidheight>50.60</geoidheight><course>46.224888</course><type>1</type></trkpt>
      <trkpt lat="39.214160111587454" lon="-6.113937657777685"><ele>1213</ele><speed>8.54</speed><time>2016-07-09T13:03:26Z</time><pdop>6.0</pdop><geoidheight>50.60</geoidheight><course>44.211624</course><type>1</type></trkpt>
      <trkpt lat="39.21426650445402" lon="-6.1138139901252515"><ele>1213</ele><speed>7.77</speed><time>2016-07-09T13:03:28Z</time><pdop>6.0</pdop><geoidheight>50.60</geoidheight><course>43.14705</course><type>1</type></trkpt>
      <trkpt lat="39.214351984996554" lon="-6.113673487663453"><ele>1212</ele><speed>8.03</speed><time>2016-07-09T13:03:30Z</time><pdop>6.0</pdop><geoidheight>50.60</geoidheight><course>61.762268</course><type>1</type></trkpt>
      <trkpt lat="39.214422983636055" lon="-6.113482387355052"><ele>1210</ele><speed>9.44</speed><time>2016-07-09T13:03:33Z</time><pdop>6.0</pdop><geoidheight>50.60</geoidheight><course>66.19059</course><type>1</type></trkpt>
      <trkpt lat="39.21449780285623" lon="-6.113301082916614"><ele>1208</ele><speed>8.58</speed><time>2016-07-09T13:03:34Z</time><pdop>6.0</pdop><geoidheight>50.60</geoidheight><course>60.999832</course><type>1</type></trkpt>
      <trkpt lat="39.214569662534025" lon="-6.113151505733296"><ele>1206</ele><speed>7.36</speed><time>2016-07-09T13:03:37Z</time><pdop>6.0</pdop><geoidheight>50.60</geoidheight><course>60.971615</course><type>1</type></trkpt>
      <trkpt lat="39.21466698779588" lon="-6.1128466777683785"><ele>1203</ele><speed>11.17</speed><time>2016-07-09T13:03:39Z</time><pdop>12.0</pdop><geoidheight>50.60</geoidheight><course>68.83409</course><type>1</type></trkpt>
      <trkpt lat="39.21473873844863" lon="-6.11261582290432"><ele>1201</ele><speed>10.67</speed><time>2016-07-09T13:03:41Z</time><pdop>8.0</pdop><geoidheight>50.60</geoidheight><course>67.414</course><type>1</type></trkpt>
      <trkpt lat="39.21480551622645" lon="-6.112423560347357"><ele>1199</ele><speed>9.35</speed><time>2016-07-09T13:03:43Z</time><pdop>8.0</pdop><geoidheight>50.60</geoidheight><course>66.47858</course><type>1</type></trkpt>
      <trkpt lat="39.21487512699511" lon="-6.112226246360317"><ele>1198</ele><speed>10.07</speed><time>2016-07-09T13:03:45Z</time><pdop>8.0</pdop><geoidheight>50.60</geoidheight><course>65.426704</course><type>1</type></trkpt>
      <trkpt lat="39.21494057396304" lon="-6.1120346652441695"><ele>1197</ele><speed>9.14</speed><time>2016-07-09T13:03:47Z</time><pdop>8.0</pdop><geoidheight>50.60</geoidheight><course>67.27267</course><type>1</type></trkpt>
      <trkpt lat="39.214986690314085" lon="-6.111840762154709"><ele>1197</ele><speed>8.91</speed><time>2016-07-09T13:03:49Z</time><pdop>8.0</pdop><geoidheight>50.60</geoidheight><course>73.366905</course><type>1</type></trkpt>
      <trkpt lat="39.21501918828065" lon="-6.111642138237951"><ele>1198</ele><speed>8.68</speed><time>2016-07-09T13:03:51Z</time><pdop>6.0</pdop><geoidheight>50.60</geoidheight><course>76.7817</course><type>1</type></trkpt>
      <trkpt lat="39.21504977009144" lon="-6.111438881315416"><ele>1197</ele><speed>9.42</speed><time>2016-07-09T13:03:54Z</time><pdop>8.0</pdop><geoidheight>50.60</geoidheight><course>76.74254</course><type>1</type></trkpt>
      <trkpt lat="39.215080055354576" lon="-6.11125190199746"><ele>1197</ele><speed>7.35</speed><time>2016-07-09T13:03:55Z</time><pdop>8.0</pdop><geoidheight>50.60</geoidheight><course>77.106674</course><type>1</type></trkpt>
      <trkpt lat="39.21505122332787" lon="-6.110998054447491"><ele>1199</ele><speed>6.96</speed><time>2016-07-09T13:03:59Z</time><pdop>8.0</pdop><geoidheight>50.60</geoidheight><course>109.14037</course><type>1</type></trkpt>
      <trkpt lat="39.21497995908378" lon="-6.110780137967244"><ele>1202</ele><speed>6.39</speed><time>2016-07-09T13:04:01Z</time><pdop>8.0</pdop><geoidheight>50.60</geoidheight><course>117.07698</course><type>1</type></trkpt>
      <trkpt lat="39.21481727848415" lon="-6.110667201911848"><ele>1204</ele><speed>6.54</speed><time>2016-07-09T13:04:04Z</time><pdop>8.0</pdop><geoidheight>50.60</geoidheight><course>172.42256</course><type>1</type></trkpt>
      <trkpt lat="39.214629856497424" lon="-6.110652083943447"><ele>1209</ele><speed>6.97</speed><time>2016-07-09T13:04:08Z</time><pdop>6.0</pdop><geoidheight>50.60</geoidheight><course>195.06398</course><type>1</type></trkpt>
      <trkpt lat="39.214502436196206" lon="-6.110695964508923"><ele>1211</ele><speed>6.84</speed><time>2016-07-09T13:04:09Z</time><pdop>6.0</pdop><geoidheight>50.60</geoidheight><course>199.17082</course><type>1</type></trkpt>
      <trkpt lat="39.214391853727726" lon="-6.110756110218445"><ele>1214</ele><speed>6.16</speed><time>2016-07-09T13:04:11Z</time><pdop>6.0</pdop><geoidheight>50.60</geoidheight><course>204.01997</course><type>1</type></trkpt>
      <trkpt lat="39.214296248370204" lon="-6.110857389994319"><ele>1218</ele><speed>6.59</speed><time>2016-07-09T13:04:13Z</time><pdop>6.0</pdop><geoidheight>50.60</geoidheight><course>221.07286</course><type>1</type></trkpt>
      <trkpt lat="39.21420014080718" lon="-6.110981347562108"><ele>1222</ele><speed>7.32</speed><time>2016-07-09T13:04:15Z</time><pdop>6.0</pdop><geoidheight>50.60</geoidheight><course>226.11095</course><type>1</type></trkpt>
      <trkpt lat="39.21410327778803" lon="-6.1111026953585865"><ele>1226</ele><speed>7.08</speed><time>2016-07-09T13:04:17Z</time><pdop>6.0</pdop><geoidheight>50.60</geoidheight><course>222.52669</course><type>1</type></trkpt>
      <trkpt lat="39.21397389538774" lon="-6.111264317582292"><ele>1234</ele><speed>5.99</speed><time>2016-07-09T13:04:20Z</time><pdop>6.0</pdop><geoidheight>50.60</geoidheight><course>226.82689</course><type>1</type></trkpt>
      <trkpt lat="39.213861903408585" lon="-6.111378216368563"><ele>1244</ele><speed>4.39</speed><time>2016-07-09T13:04:23Z</time><pdop>6.0</pdop><geoidheight>50.60</geoidheight><course>219.5963</course><type>1</type></trkpt>
      <trkpt lat="39.21379990577698" lon="-6.1115394523702635"><ele>1251</ele><speed>9.39</speed><time>2016-07-09T13:04:25Z</time><pdop>8.0</pdop><geoidheight>50.60</geoidheight><course>267.793</course><type>1</type></trkpt>
      <trkpt lat="39.21385902575288" lon="-6.111838428930963"><ele>1256</ele><speed>13.46</speed><time>2016-07-09T13:04:27Z</time><pdop>8.0</pdop><geoidheight>50.60</geoidheight><course>280.00223</course><type>1</type></trkpt>
      <trkpt lat="39.21408574026895" lon="-6.112058601707813"><ele>1262</ele><speed>13.19</speed><time>2016-07-09T13:04:30Z</time><pdop>8.0</pdop><geoidheight>50.60</geoidheight><course>304.05234</course><type>1</type></trkpt>
      <trkpt lat="39.21422520086867" lon="-6.112001250190665"><ele>1264</ele><speed>12.98</speed><time>2016-07-09T13:04:31Z</time><pdop>8.0</pdop><geoidheight>50.60</geoidheight><course>23.010103</course><type>1</type></trkpt>
      <trkpt lat="39.2141676938836" lon="-6.1117861702605545"><ele>1278</ele><speed>5.75</speed><time>2016-07-09T13:04:35Z</time><pdop>8.0</pdop><geoidheight>50.60</geoidheight><course>174.27576</course><type>1</type></trkpt>
      <trkpt lat="39.21406471839158" lon="-6.112012363084969"><ele>1292</ele><speed>12.39</speed><time>2016-07-09T13:04:39Z</time><pdop>12.0</pdop><geoidheight>50.60</geoidheight><course>224.15843</course><type>1</type></trkpt>
      <trkpt lat="39.21422030243545" lon="-6.112410640254126"><ele>1301</ele><speed>15.70</speed><time>2016-07-09T13:04:40Z</time><pdop>12.0</pdop><geoidheight>50.60</geoidheight><course>255.29897</course><type>1</type></trkpt>
      <trkpt lat="39.21454863174984" lon="-6.112436754407101"><ele>1308</ele><speed>13.96</speed><time>2016-07-09T13:04:42Z</time><pdop>12.0</pdop><geoidheight>50.60</geoidheight><course>7.2578883</course><type>1</type></trkpt>
      <trkpt lat="39.21475630631594" lon="-6.112223804592184"><ele>1313</ele><speed>12.18</speed><time>2016-07-09T13:04:45Z</time><pdop>12.0</pdop><geoidheight>50.60</geoidheight><course>9.136369</course><type>1</type></trkpt>
      <trkpt lat="39.21450482944326" lon="-6.112248743013357"><ele>1328</ele><speed>7.24</speed><time>2016-07-09T13:04:49Z</time><pdop>8.0</pdop><geoidheight>50.60</geoidheight><course>201.48145</course><type>1</type></trkpt>
      <trkpt lat="39.21456735678544" lon="-6.112552863815242"><ele>1336</ele><speed>15.03</speed><time>2016-07-09T13:04:51Z</time><pdop>12.0</pdop><geoidheight>50.60</geoidheight><course>303.20193</course><type>1</type></trkpt>
      <trkpt lat="39.214802566842465" lon="-6.112680680596667"><ele>1342</ele><speed>15.48</speed><time>2016-07-09T13:04:54Z</time><pdop>12.0</pdop><geoidheight>50.60</geoidheight><course>358.03088</course><type>1</type></trkpt>
      <trkpt lat="39.21504390437603" lon="-6.112544429671305"><ele>1346</ele><speed>17.41</speed><time>2016-07-09T13:04:56Z</time><pdop>12.0</pdop><geoidheight>50.60</geoidheight><course>29.041664</course><type>1</type></trkpt>
      <trkpt lat="39.214821750675775" lon="-6.112530441989011"><ele>1369</ele><speed>9.73</speed><time>2016-07-09T13:05:02Z</time><pdop>12.0</pdop><geoidheight>50.60</geoidheight><course>255.68001</course><type>1</type></trkpt>
      <trkpt lat="39.21501760790149" lon="-6.112890529972586"><ele>1380</ele><speed>14.16</speed><time>2016-07-09T13:05:05Z</time><pdop>16.0</pdop><geoidheight>50.60</geoidheight><course>341.5953</course><type>1</type></trkpt>
      <trkpt lat="39.21531736686129" lon="-6.1126916205489294"><ele>1388</ele><speed>7.99</speed><time>2016-07-09T13:05:09Z</time><pdop>16.0</pdop><geoidheight>50.60</geoidheight><course>34.86868</course><type>1</type></trkpt>
      <trkpt lat="39.215033324832426" lon="-6.112828289900942"><ele>1403</ele><speed>10.10</speed><time>2016-07-09T13:05:13Z</time><pdop>12.0</pdop><geoidheight>50.60</geoidheight><course>241.61032</course><type>1</type></trkpt>
      <trkpt lat="39.21503067027787" lon="-6.1131738600781"><ele>1411</ele><speed>13.30</speed><time>2016-07-09T13:05:16Z</time><pdop>12.0</pdop><geoidheight>50.60</geoidheight><course>289.912</course><type>1</type></trkpt>
      <trkpt lat="39.2152126524808" lon="-6.113431061477284"><ele>1417</ele><speed>14.26</speed><time>2016-07-09T13:05:17Z</time><pdop>12.0</pdop><geoidheight>50.60</geoidheight><course>327.38788</course><type>1</type></trkpt>
      <trkpt lat="39.215466571141754" lon="-6.113496834944982"><ele>1423</ele><speed>14.63</speed><time>2016-07-09T13:05:20Z</time><pdop>12.0</pdop><geoidheight>50.60</geoidheight><course>353.3876</course><type>1</type></trkpt>
      <trkpt lat="39.2156961663624" lon="-6.11332312582188"><ele>1443</ele><speed>0.00</speed><time>2016-07-09T13:05:25Z</time><pdop>16.0</pdop><geoidheight>50.60</geoidheight><course>160.38612</course><type>1</type></trkpt>
      <trkpt lat="39.21552413801253" lon="-6.1136343580440835"><ele>1457</ele><speed>14.74</speed><time>2016-07-09T13:05:28Z</time><pdop>12.0</pdop><geoidheight>50.60</geoidheight><course>260.89267</course><type>1</type></trkpt>
      <trkpt lat="39.215489500093895" lon="-6.114004687353224"><ele>1465</ele><speed>15.72</speed><time>2016-07-09T13:05:30Z</time><pdop>12.0</pdop><geoidheight>50.60</geoidheight><course>265.53867</course><type>1</type></trkpt>
      <trkpt lat="39.215871513828105" lon="-6.1141182423820135"><ele>1474</ele><speed>11.52</speed><time>2016-07-09T13:05:34Z</time><pdop>24.0</pdop><geoidheight>50.60</geoidheight><course>10.154693</course><type>1</type></trkpt>
      <trkpt lat="39.21608293355298" lon="-6.114503606023681"><ele>1522</ele><speed>12.26</speed><time>2016-07-09T13:05:49Z</time><pdop>12.0</pdop><geoidheight>50.60</geoidheight><course>351.02808</course><type>1</type></trkpt>
      <trkpt lat="39.21633180174129" lon="-6.114450780752165"><ele>1530</ele><speed>7.24</speed><time>2016-07-09T13:05:51Z</time><pdop>16.0</pdop><geoidheight>50.60</geoidheight><course>36.4503</course><type>1</type></trkpt>
      <trkpt lat="39.21603388621872" lon="-6.114510967355078"><ele>1554</ele><speed>12.39</speed><time>2016-07-09T13:05:58Z</time><pdop>12.0</pdop><geoidheight>50.60</geoidheight><course>238.16139</course><type>1</type></trkpt>
      <trkpt lat="39.21606443214691" lon="-6.114973300404364"><ele>1569</ele><speed>15.32</speed><time>2016-07-09T13:06:01Z</time><pdop>12.0</pdop><geoidheight>50.60</geoidheight><course>288.2218</course><type>1</type></trkpt>
      <trkpt lat="39.216261109543666" lon="-6.11512318972589"><ele>1578</ele><speed>11.88</speed><time>2016-07-09T13:06:03Z</time><pdop>12.0</pdop><geoidheight>50.60</geoidheight><course>345.43625</course><type>1</type></trkpt>
      <trkpt lat="39.21652903951024" lon="-6.115073257076798"><ele>1589</ele><speed>10.10</speed><time>2016-07-09T13:06:06Z</time><pdop>12.0</pdop><geoidheight>50.60</geoidheight><course>39.633442</course><type>1</type></trkpt>
      <trkpt lat="39.21630138752433" lon="-6.115015538930008"><ele>1618</ele><speed>8.50</speed><time>2016-07-09T13:06:12Z</time><pdop>8.0</pdop><geoidheight>50.60</geoidheight><course>208.42447</course><type>1</type></trkpt>
      <trkpt lat="39.21618768302067" lon="-6.115185028644015"><ele>1627</ele><speed>12.04</speed><time>2016-07-09T13:06:14Z</time><pdop>8.0</pdop><geoidheight>50.60</geoidheight><course>233.70007</course><type>1</type></trkpt>
      <trkpt lat="39.21612345734212" lon="-6.115464201812778"><ele>1636</ele><speed>14.08</speed><time>2016-07-09T13:06:16Z</time><pdop>8.0</pdop><geoidheight>50.60</geoidheight><course>267.05643</course><type>1</type></trkpt>
      <trkpt lat="39.21618404452194" lon="-6.1157338690131455"><ele>1645</ele><speed>12.31</speed><time>2016-07-09T13:06:18Z</time><pdop>8.0</pdop><geoidheight>50.60</geoidheight><course>298.59125</course><type>1</type></trkpt>
      <trkpt lat="39.216404119643066" lon="-6.1158440869958826"><ele>1656</ele><speed>10.31</speed><time>2016-07-09T13:06:22Z</time><pdop>16.0</pdop><geoidheight>50.60</geoidheight><course>354.46167</course><type>1</type></trkpt>
      <trkpt lat="39.21662684095192" lon="-6.115801505255013"><ele>1668</ele><speed>6.78</speed><time>2016-07-09T13:06:24Z</time><pdop>8.0</pdop><geoidheight>50.60</geoidheight><course>20.296495</course><type>1</type></trkpt>
      <trkpt lat="39.21643769667259" lon="-6.115673290981821"><ele>1681</ele><speed>10.76</speed><time>2016-07-09T13:06:31Z</time><pdop>8.0</pdop><geoidheight>50.60</geoidheight><course>198.18896</course><type>1</type></trkpt>
      <trkpt lat="39.21625824520045" lon="-6.115866842333922"><ele>1687</ele><speed>11.28</speed><time>2016-07-09T13:06:33Z</time><pdop>8.0</pdop><geoidheight>50.60</geoidheight><course>235.29387</course><type>1</type></trkpt>
      <trkpt lat="39.21628794974996" lon="-6.116097716853421"><ele>1694</ele><speed>12.88</speed><time>2016-07-09T13:06:34Z</time><pdop>8.0</pdop><geoidheight>50.60</geoidheight><course>294.02762</course><type>1</type></trkpt>
      <trkpt lat="39.21643148874826" lon="-6.116231867525126"><ele>1701</ele><speed>10.28</speed><time>2016-07-09T13:06:37Z</time><pdop>8.0</pdop><geoidheight>50.60</geoidheight><course>336.2323</course><type>1</type></trkpt>
      <trkpt lat="39.216609752652154" lon="-6.11619862196108"><ele>1717</ele><speed>4.98</speed><time>2016-07-09T13:06:41Z</time><pdop>12.0</pdop><geoidheight>50.60</geoidheight><course>69.59437</course><type>1</type></trkpt>
      <trkpt lat="39.21643576370653" lon="-6.116121341744569"><ele>1729</ele><speed>10.13</speed><time>2016-07-09T13:06:44Z</time><pdop>8.0</pdop><geoidheight>50.60</geoidheight><course>184.18614</course><type>1</type></trkpt>
      <trkpt lat="39.216283073397825" lon="-6.116165190837514"><ele>1736</ele><speed>11.66</speed><time>2016-07-09T13:06:46Z</time><pdop>8.0</pdop><geoidheight>50.60</geoidheight><course>223.45453</course><type>1</type></trkpt>
      <trkpt lat="39.2162239624411" lon="-6.116376130782344"><ele>1744</ele><speed>12.56</speed><time>2016-07-09T13:06:48Z</time><pdop>6.0</pdop><geoidheight>50.60</geoidheight><course>271.124</course><type>1</type></trkpt>
      <trkpt lat="39.21621574750403" lon="-6.116523625112214"><ele>1748</ele><speed>12.70</speed><time>2016-07-09T13:06:49Z</time><pdop>6.0</pdop><geoidheight>50.60</geoidheight><course>273.705</course><type>1</type></trkpt>
      <trkpt lat="39.216303773031626" lon="-6.116755679686227"><ele>1755</ele><speed>11.82</speed><time>2016-07-09T13:06:52Z</time><pdop>8.0</pdop><geoidheight>50.60</geoidheight><course>311.69543</course><type>1</type></trkpt>
      <trkpt lat="39.216460243355634" lon="-6.116873345234779"><ele>1760</ele><speed>10.97</speed><time>2016-07-09T13:06:54Z</time><pdop>8.0</pdop><geoidheight>50.60</geoidheight><course>344.0739</course><type>1</type></trkpt>
      <trkpt lat="39.21662508086928" lon="-6.1169130650691494"><ele>1767</ele><speed>8.42</speed><time>2016-07-09T13:06:56Z</time><pdop>8.0</pdop><geoidheight>50.60</geoidheight><course>19.979488</course><type>1</type></trkpt>
      <trkpt lat="39.216591728135974" lon="-6.11669430209885"><ele>1779</ele><speed>7.19</speed><time>2016-07-09T13:06:59Z</time><pdop>8.0</pdop><geoidheight>50.60</geoidheight><course>150.08223</course><type>1</type></trkpt>
      <trkpt lat="39.216464439471636" lon="-6.1166422736207995"><ele>1785</ele><speed>8.57</speed><time>2016-07-09T13:07:01Z</time><pdop>6.0</pdop><geoidheight>50.60</geoidheight><course>172.00078</course><type>1</type></trkpt>
      <trkpt lat="39.21632985403417" lon="-6.116732315699773"><ele>1793</ele><speed>10.22</speed><time>2016-07-09T13:07:03Z</time><pdop>8.0</pdop><geoidheight>50.60</geoidheight><course>214.34784</course><type>1</type></trkpt>
      <trkpt lat="39.21628280593162" lon="-6.1170138390863835"><ele>1798</ele><speed>14.40</speed><time>2016-07-09T13:07:05Z</time><pdop>8.0</pdop><geoidheight>50.60</geoidheight><course>276.0278</course><type>1</type></trkpt>
      <trkpt lat="39.216367624201965" lon="-6.117288277933415"><ele>1804</ele><speed>12.94</speed><time>2016-07-09T13:07:07Z</time><pdop>8.0</pdop><geoidheight>50.60</geoidheight><course>314.4977</course><type>1</type></trkpt>
      <trkpt lat="39.21653540016586" lon="-6.1173993663484945"><ele>1808</ele><speed>10.45</speed><time>2016-07-09T13:07:10Z</time><pdop>8.0</pdop><geoidheight>50.60</geoidheight><course>345.1965</course><type>1</type></trkpt>
      <trkpt lat="39.21669566953626" lon="-6.117414865106592"><ele>1813</ele><speed>8.85</speed><time>2016-07-09T13:07:12Z</time><pdop>8.0</pdop><geoidheight>50.60</geoidheight><course>15.292689</course><type>1</type></trkpt>
      <trkpt lat="39.2168256998864" lon="-6.117334980161553"><ele>1818</ele><speed>7.99</speed><time>2016-07-09T13:07:14Z</time><pdop>8.0</pdop><geoidheight>50.60</geoidheight><course>41.064396</course><type>1</type></trkpt>
      <trkpt lat="39.21683352276243" lon="-6.11714539185111"><ele>1825</ele><speed>7.20</speed><time>2016-07-09T13:07:16Z</time><pdop>8.0</pdop><geoidheight>50.60</geoidheight><course>133.68936</course><type>1</type></trkpt>
      <trkpt lat="39.216665710120225" lon="-6.117085472065151"><ele>1834</ele><speed>7.77</speed><time>2016-07-09T13:07:19Z</time><pdop>6.0</pdop><geoidheight>50.60</geoidheight><course>199.37389</course><type>1</type></trkpt>
      <trkpt lat="39.21652019302713" lon="-6.117123342224794"><ele>1841</ele><speed>8.89</speed><time>2016-07-09T13:07:21Z</time><pdop>6.0</pdop><geoidheight>50.60</geoidheight><course>201.2727</course><type>1</type></trkpt>
      <trkpt lat="39.2163537117904" lon="-6.117250183954145"><ele>1848</ele><speed>12.83</speed><time>2016-07-09T13:07:23Z</time><pdop>6.0</pdop><geoidheight>50.60</geoidheight><course>221.20477</course><type>1</type></trkpt>
      <trkpt lat="39.21626685490358" lon="-6.117347988150944"><ele>1850</ele><speed>13.08</speed><time>2016-07-09T13:07:24Z</time><pdop>6.0</pdop><geoidheight>50.60</geoidheight><course>224.90019</course><type>1</type></trkpt>
      <trkpt lat="39.21623113903919" lon="-6.117484671004836"><ele>1852</ele><speed>13.66</speed><time>2016-07-09T13:07:25Z</time><pdop>6.0</pdop><geoidheight>50.60</geoidheight><course>253.44698</course><type>1</type></trkpt>
      <trkpt lat="39.2162232971389" lon="-6.1176338716758165"><ele>1855</ele><speed>13.35</speed><time>2016-07-09T13:07:26Z</time><pdop>6.0</pdop><geoidheight>50.60</geoidheight><course>269.18048</course><type>1</type></trkpt>
      <trkpt lat="39.21622154474979" lon="-6.117782804016295"><ele>1857</ele><speed>12.72</speed><time>2016-07-09T13:07:27Z</time><pdop>6.0</pdop><geoidheight>50.60</geoidheight><course>272.6087</course><type>1</type></trkpt>
      <trkpt lat="39.21628274118362" lon="-6.118024633656722"><ele>1862</ele><speed>10.33</speed><time>2016-07-09T13:07:30Z</time><pdop>6.0</pdop><geoidheight>50.60</geoidheight><course>293.3673</course><type>1</type></trkpt>
      <trkpt lat="39.21644187046439" lon="-6.118131721044526"><ele>1866</ele><speed>11.02</speed><time>2016-07-09T13:07:31Z</time><pdop>8.0</pdop><geoidheight>50.60</geoidheight><course>349.89948</course><type>1</type></trkpt>
      <trkpt lat="39.21660312919964" lon="-6.118102660003093"><ele>1870</ele><speed>9.51</speed><time>2016-07-09T13:07:34Z</time><pdop>8.0</pdop><geoidheight>50.60</geoidheight><course>27.105648</course><type>1</type></trkpt>
      <trkpt lat="39.2167059420661" lon="-6.117907580459225"><ele>1874</ele><speed>7.14</speed><time>2016-07-09T13:07:36Z</time><pdop>6.0</pdop><geoidheight>50.60</geoidheight><course>70.786606</course><type>1</type></trkpt>
      <trkpt lat="39.216731627631646" lon="-6.117681281598153"><ele>1881</ele><speed>6.56</speed><time>2016-07-09T13:07:39Z</time><pdop>8.0</pdop><geoidheight>50.60</geoidheight><course>89.2268</course><type>1</type></trkpt>
      <trkpt lat="39.21675814017227" lon="-6.117453301230224"><ele>1888</ele><speed>5.80</speed><time>2016-07-09T13:07:42Z</time><pdop>6.0</pdop><geoidheight>50.60</geoidheight><course>81.92425</course><type>1</type></trkpt>
      <trkpt lat="39.21676227174139" lon="-6.1172544659636126"><ele>1895</ele><speed>5.83</speed><time>2016-07-09T13:07:45Z</time><pdop>6.0</pdop><geoidheight>50.60</geoidheight><course>99.15676</course><type>1</type></trkpt>
      <trkpt lat="39.21673383389096" lon="-6.117077138363096"><ele>1903</ele><speed>5.21</speed><time>2016-07-09T13:07:48Z</time><pdop>6.0</pdop><geoidheight>50.60</geoidheight><course>106.66529</course><type>1</type></trkpt>
      <trkpt lat="39.216638091570935" lon="-6.116922505929799"><ele>1911</ele><speed>6.22</speed><time>2016-07-09T13:07:51Z</time><pdop>8.0</pdop><geoidheight>50.60</geoidheight><course>138.36476</course><type>1</type></trkpt>
      <trkpt lat="39.21647660084989" lon="-6.116844104167624"><ele>1918</ele><speed>7.76</speed><time>2016-07-09T13:07:54Z</time><pdop>8.0</pdop><geoidheight>50.60</geoidheight><course>176.94426</course><type>1</type></trkpt>
      <trkpt lat="39.21633157246918" lon="-6.116919534504004"><ele>1924</ele><speed>9.07</speed><time>2016-07-09T13:07:58Z</time><pdop>6.0</pdop><geoidheight>50.60</geoidheight><course>235.96913</course><type>1</type></trkpt>
      <trkpt lat="39.21624438893051" lon="-6.117093641561102"><ele>1928</ele><speed>10.08</speed><time>2016-07-09T13:08:00Z</time><pdop>6.0</pdop><geoidheight>50.60</geoidheight><course>243.8637</course><type>1</type></trkpt>
      <trkpt lat="39.21619448825776" lon="-6.1172934144323206"><ele>1930</ele><speed>8.56</speed><time>2016-07-09T13:08:01Z</time><pdop>6.0</pdop><geoidheight>50.60</geoidheight><course>258.2578</course><type>1</type></trkpt>
      <trkpt lat="39.21619508047843" lon="-6.117510070766077"><ele>1932</ele><speed>10.99</speed><time>2016-07-09T13:08:03Z</time><pdop>6.0</pdop><geoidheight>50.60</geoidheight><course>281.56503</course><type>1</type></trkpt>
      <trkpt lat="39.21624424270382" lon="-6.117636955764738"><ele>1932</ele><speed>11.93</speed><time>2016-07-09T13:08:04Z</time><pdop>6.0</pdop><geoidheight>50.60</geoidheight><course>297.75488</course><type>1</type></trkpt>
      <trkpt lat="39.21652459190403" lon="-6.117847025106039"><ele>1934</ele><speed>12.15</speed><time>2016-07-09T13:08:07Z</time><pdop>12.0</pdop><geoidheight>50.60</geoidheight><course>337.86047</course><type>1</type></trkpt>
      <trkpt lat="39.21679510964542" lon="-6.117856152149733"><ele>1935</ele><speed>10.66</speed><time>2016-07-09T13:08:10Z</time><pdop>12.0</pdop><geoidheight>50.60</geoidheight><course>1.7392241</course><type>1</type></trkpt>
      <trkpt lat="39.217049959109744" lon="-6.1177557179493185"><ele>1937</ele><speed>8.89</speed><time>2016-07-09T13:08:14Z</time><pdop>8.0</pdop><geoidheight>50.60</geoidheight><course>18.273685</course><type>1</type></trkpt>
      <trkpt lat="39.21720557363954" lon="-6.117724129022632"><ele>1940</ele><speed>8.37</speed><time>2016-07-09T13:08:15Z</time><pdop>8.0</pdop><geoidheight>50.60</geoidheight><course>11.383839</course><type>1</type></trkpt>
      <trkpt lat="39.217420809695405" lon="-6.117685043559603"><ele>1947</ele><speed>8.60</speed><time>2016-07-09T13:08:18Z</time><pdop>8.0</pdop><geoidheight>50.60</geoidheight><course>12.453284</course><type>1</type></trkpt>
      <trkpt lat="39.21757790352449" lon="-6.117649124177811"><ele>1952</ele><speed>8.14</speed><time>2016-07-09T13:08:21Z</time><pdop>8.0</pdop><geoidheight>50.60</geoidheight><course>12.603997</course><type>1</type></trkpt>
      <trkpt lat="39.217722504451366" lon="-6.117598187965984"><ele>1957</ele><speed>3.52</speed><time>2016-07-09T13:08:23Z</time><pdop>8.0</pdop><geoidheight>50.60</geoidheight><course>12.690099</course><type>1</type></trkpt>
      <trkpt lat="39.21763066213615" lon="-6.117360123051147"><ele>1967</ele><speed>7.70</speed><time>2016-07-09T13:08:26Z</time><pdop>8.0</pdop><geoidheight>50.60</geoidheight><course>131.16158</course><type>1</type></trkpt>
      <trkpt lat="39.21746963624689" lon="-6.117361535224719"><ele>1974</ele><speed>12.70</speed><time>2016-07-09T13:08:29Z</time><pdop>8.0</pdop><geoidheight>50.60</geoidheight><course>210.80533</course><type>1</type></trkpt>
      <trkpt lat="39.21731051768166" lon="-6.117610595175002"><ele>1982</ele><speed>16.34</speed><time>2016-07-09T13:08:30Z</time><pdop>8.0</pdop><geoidheight>50.60</geoidheight><course>220.02899</course><type>1</type></trkpt>
      <trkpt lat="39.21735066385013" lon="-6.117797715524466"><ele>1987</ele><speed>14.53</speed><time>2016-07-09T13:08:31Z</time><pdop>8.0</pdop><geoidheight>50.60</geoidheight><course>282.8394</course><type>1</type></trkpt>
      <trkpt lat="39.21747233516934" lon="-6.118067295924736"><ele>1994</ele><speed>11.95</speed><time>2016-07-09T13:08:34Z</time><pdop>8.0</pdop><geoidheight>50.60</geoidheight><course>301.41763</course><type>1</type></trkpt>
      <trkpt lat="39.21759922013261" lon="-6.118302207308913"><ele>2002</ele><speed>10.76</speed><time>2016-07-09T13:08:36Z</time><pdop>8.0</pdop><geoidheight>50.60</geoidheight><course>306.3245</course><type>1</type></trkpt>
      <trkpt lat="39.217797491050035" lon="-6.118454642868119"><ele>2006</ele><speed>12.31</speed><time>2016-07-09T13:08:38Z</time><pdop>8.0</pdop><geoidheight>50.60</geoidheight><course>344.11896</course><type>1</type></trkpt>
      <trkpt lat="39.21800394435189" lon="-6.1185135459145155"><ele>2012</ele><speed>9.34</speed><time>2016-07-09T13:08:39Z</time><pdop>6.0</pdop><geoidheight>50.60</geoidheight><course>4.0821314</course><type>1</type></trkpt>
      <trkpt lat="39.21809486823868" lon="-6.11836602400973"><ele>2019</ele><speed>8.16</speed><time>2016-07-09T13:08:42Z</time><pdop>8.0</pdop><geoidheight>50.60</geoidheight><course>99.95774</course><type>1</type></trkpt>
      <trkpt lat="39.217939080401585" lon="-6.118231300991836"><ele>2028</ele><speed>8.47</speed><time>2016-07-09T13:08:46Z</time><pdop>8.0</pdop><geoidheight>50.60</geoidheight><course>192.25352</course><type>1</type></trkpt>
      <trkpt lat="39.217785184158274" lon="-6.118346221082316"><ele>2035</ele><speed>10.39</speed><time>2016-07-09T13:08:48Z</time><pdop>6.0</pdop><geoidheight>50.60</geoidheight><course>229.70015</course><type>1</type></trkpt>
      <trkpt lat="39.217736381256515" lon="-6.118599264892254"><ele>2041</ele><speed>13.96</speed><time>2016-07-09T13:08:51Z</time><pdop>6.0</pdop><geoidheight>50.60</geoidheight><course>275.2177</course><type>1</type></trkpt>
      <trkpt lat="39.217760646541386" lon="-6.118749269305547"><ele>2045</ele><speed>13.35</speed><time>2016-07-09T13:08:51Z</time><pdop>6.0</pdop><geoidheight>50.60</geoidheight><course>287.78482</course><type>1</type></trkpt>
      <trkpt lat="39.21779494311667" lon="-6.118893278730402"><ele>2049</ele><speed>11.39</speed><time>2016-07-09T13:08:52Z</time><pdop>6.0</pdop><geoidheight>50.60</geoidheight><course>291.2243</course><type>1</type></trkpt>
      <trkpt lat="39.21788247254237" lon="-6.119092701711544"><ele>2058</ele><speed>8.83</speed><time>2016-07-09T13:08:55Z</time><pdop>8.0</pdop><geoidheight>50.60</geoidheight><course>311.212</course><type>1</type></trkpt>
      <trkpt lat="39.21803199924352" lon="-6.119238785238441"><ele>2065</ele><speed>11.38</speed><time>2016-07-09T13:08:56Z</time><pdop>12.0</pdop><geoidheight>50.60</geoidheight><course>334.00787</course><type>1</type></trkpt>
      <trkpt lat="39.218230595942245" lon="-6.119273781109927"><ele>2072</ele><speed>10.78</speed><time>2016-07-09T13:08:58Z</time><pdop>8.0</pdop><geoidheight>50.60</geoidheight><course>4.0917883</course><type>1</type></trkpt>
      <trkpt lat="39.21836678168106" lon="-6.119092144008699"><ele>2080</ele><speed>7.03</speed><time>2016-07-09T13:09:01Z</time><pdop>8.0</pdop><geoidheight>50.60</geoidheight><course>73.45324</course><type>1</type></trkpt>
      <trkpt lat="39.21834964593668" lon="-6.118871939879529"><ele>2088</ele><speed>6.69</speed><time>2016-07-09T13:09:04Z</time><pdop>8.0</pdop><geoidheight>50.60</geoidheight><course>129.23521</course><type>1</type></trkpt>
      <trkpt lat="39.2181805479217" lon="-6.118851611268847"><ele>2097</ele><speed>7.66</speed><time>2016-07-09T13:09:07Z</time><pdop>6.0</pdop><geoidheight>50.60</geoidheight><course>198.2863</course><type>1</type></trkpt>
      <trkpt lat="39.21806305986371" lon="-6.118931420571641"><ele>2103</ele><speed>8.37</speed><time>2016-07-09T13:09:09Z</time><pdop>6.0</pdop><geoidheight>50.60</geoidheight><course>227.8876</course><type>1</type></trkpt>
      <trkpt lat="39.217985260129886" lon="-6.119323407985295"><ele>2112</ele><speed>12.81</speed><time>2016-07-09T13:09:13Z</time><pdop>6.0</pdop><geoidheight>50.60</geoidheight><course>263.24158</course><type>1</type></trkpt>
      <trkpt lat="39.21809614654585" lon="-6.11955619756747"><ele>2117</ele><speed>12.79</speed><time>2016-07-09T13:09:15Z</time><pdop>8.0</pdop><geoidheight>50.60</geoidheight><course>320.55875</course><type>1</type></trkpt>
      <trkpt lat="39.2182867768586" lon="-6.119587392457049"><ele>2123</ele><speed>8.31</speed><time>2016-07-09T13:09:17Z</time><pdop>8.0</pdop><geoidheight>50.60</geoidheight><course>352.29465</course><type>1</type></trkpt>
      <trkpt lat="39.21844543632386" lon="-6.119551950979988"><ele>2129</ele><speed>9.24</speed><time>2016-07-09T13:09:18Z</time><pdop>6.0</pdop><geoidheight>50.60</geoidheight><course>9.037898</course><type>1</type></trkpt>
      <trkpt lat="39.218598061703375" lon="-6.119459240181466"><ele>2134</ele><speed>9.41</speed><time>2016-07-09T13:09:20Z</time><pdop>6.0</pdop><geoidheight>50.60</geoidheight><course>31.060062</course><type>1</type></trkpt>
      <trkpt lat="39.21870423837131" lon="-6.119308567254134"><ele>2138</ele><speed>7.64</speed><time>2016-07-09T13:09:22Z</time><pdop>6.0</pdop><geoidheight>50.60</geoidheight><course>62.84895</course><type>1</type></trkpt>
      <trkpt lat="39.218771925075814" lon="-6.119129614839076"><ele>2143</ele><speed>7.40</speed><time>2016-07-09T13:09:24Z</time><pdop>6.0</pdop><geoidheight>50.60</geoidheight><course>78.30189</course><type>1</type></trkpt>
      <trkpt lat="39.21880592717359" lon="-6.1189461611746"><ele>2149</ele><speed>6.95</speed><time>2016-07-09T13:09:26Z</time><pdop>6.0</pdop><geoidheight>50.60</geoidheight><course>81.4833</course><type>1</type></trkpt>
      <trkpt lat="39.21880070805075" lon="-6.11880058534729"><ele>2156</ele><speed>5.55</speed><time>2016-07-09T13:09:28Z</time><pdop>6.0</pdop><geoidheight>50.60</geoidheight><course>106.33083</course><type>1</type></trkpt>
      <trkpt lat="39.21864340166656" lon="-6.118667436171817"><ele>2163</ele><speed>11.02</speed><time>2016-07-09T13:09:31Z</time><pdop>8.0</pdop><geoidheight>50.60</geoidheight><course>169.32564</course><type>1</type></trkpt>
      <trkpt lat="39.21843343026081" lon="-6.118658042571113"><ele>2167</ele><speed>11.59</speed><time>2016-07-09T13:09:33Z</time><pdop>6.0</pdop><geoidheight>50.60</geoidheight><course>194.25813</course><type>1</type></trkpt>
      <trkpt lat="39.21826343356682" lon="-6.118809612513009"><ele>2171</ele><speed>11.65</speed><time>2016-07-09T13:09:35Z</time><pdop>6.0</pdop><geoidheight>50.60</geoidheight><course>223.48013</course><type>1</type></trkpt>
      <trkpt lat="39.21818844370948" lon="-6.1189127258669025"><ele>2174</ele><speed>12.52</speed><time>2016-07-09T13:09:37Z</time><pdop>6.0</pdop><geoidheight>50.60</geoidheight><course>226.43802</course><type>1</type></trkpt>
      <trkpt lat="39.2181165529347" lon="-6.119166155606677"><ele>2178</ele><speed>10.94</speed><time>2016-07-09T13:09:38Z</time><pdop>6.0</pdop><geoidheight>50.60</geoidheight><course>260.8765</course><type>1</type></trkpt>
      <trkpt lat="39.21820387405251" lon="-6.119414629916859"><ele>2180</ele><speed>12.88</speed><time>2016-07-09T13:09:40Z</time><pdop>8.0</pdop><geoidheight>50.60</geoidheight><course>312.69714</course><type>1</type></trkpt>
      <trkpt lat="39.21840058809991" lon="-6.119526337855428"><ele>2183</ele><speed>12.27</speed><time>2016-07-09T13:09:43Z</time><pdop>8.0</pdop><geoidheight>50.60</geoidheight><course>351.7752</course><type>1</type></trkpt>
      <trkpt lat="39.218575213559006" lon="-6.119504623956589"><ele>2187</ele><speed>10.16</speed><time>2016-07-09T13:09:44Z</time><pdop>6.0</pdop><geoidheight>50.60</geoidheight><course>12.569247</course><type>1</type></trkpt>
      <trkpt lat="39.21874690395674" lon="-6.119438805580524"><ele>2191</ele><speed>9.65</speed><time>2016-07-09T13:09:46Z</time><pdop>6.0</pdop><geoidheight>50.60</geoidheight><course>17.47431</course><type>1</type></trkpt>
      <trkpt lat="39.21889645539426" lon="-6.119330017475536"><ele>2195</ele><speed>9.11</speed><time>2016-07-09T13:09:48Z</time><pdop>8.0</pdop><geoidheight>50.60</geoidheight><course>38.408546</course><type>1</type></trkpt>
      <trkpt lat="39.219001170191426" lon="-6.119173104591028"><ele>2199</ele><speed>7.99</speed><time>2016-07-09T13:09:50Z</time><pdop>6.0</pdop><geoidheight>50.60</geoidheight><course>54.488117</course><type>1</type></trkpt>
      <trkpt lat="39.21906830443445" lon="-6.119000246273584"><ele>2203</ele><speed>7.30</speed><time>2016-07-09T13:09:52Z</time><pdop>6.0</pdop><geoidheight>50.60</geoidheight><course>69.57752</course><type>1</type></trkpt>
      <trkpt lat="39.21907269236013" lon="-6.118821481194638"><ele>2206</ele><speed>7.28</speed><time>2016-07-09T13:09:54Z</time><pdop>6.0</pdop><geoidheight>50.60</geoidheight><course>98.91459</course><type>1</type></trkpt>
      <trkpt lat="39.21899998977343" lon="-6.118701053374865"><ele>2210</ele><speed>7.45</speed><time>2016-07-09T13:09:56Z</time><pdop>6.0</pdop><geoidheight>50.60</geoidheight><course>143.58644</course><type>1</type></trkpt>
      <trkpt lat="39.218844113892956" lon="-6.118648376476818"><ele>2212</ele><speed>10.83</speed><time>2016-07-09T13:09:58Z</time><pdop>6.0</pdop><geoidheight>50.60</geoidheight><course>174.76172</course><type>1</type></trkpt>
      <trkpt lat="39.21865031126504" lon="-6.118658768837991"><ele>2215</ele><speed>10.83</speed><time>2016-07-09T13:10:00Z</time><pdop>6.0</pdop><geoidheight>50.60</geoidheight><course>195.67416</course><type>1</type></trkpt>
      <trkpt lat="39.21846606632392" lon="-6.11874455443428"><ele>2218</ele><speed>10.88</speed><time>2016-07-09T13:10:02Z</time><pdop>6.0</pdop><geoidheight>50.60</geoidheight><course>212.24338</course><type>1</type></trkpt>
      <trkpt lat="39.218342434266674" lon="-6.118941487498156"><ele>2220</ele><speed>11.82</speed><time>2016-07-09T13:10:04Z</time><pdop>6.0</pdop><geoidheight>50.60</geoidheight><course>239.56755</course><type>1</type></trkpt>
      <trkpt lat="39.21833754295091" lon="-6.119183794728823"><ele>2221</ele><speed>11.56</speed><time>2016-07-09T13:10:06Z</time><pdop>12.0</pdop><geoidheight>50.60</geoidheight><course>285.4159</course><type>1</type></trkpt>
      <trkpt lat="39.21850998547772" lon="-6.119477008774872"><ele>2224</ele><speed>11.33</speed><time>2016-07-09T13:10:10Z</time><pdop>16.0</pdop><geoidheight>50.60</geoidheight><course>331.5165</course><type>1</type></trkpt>
      <trkpt lat="39.21881071171977" lon="-6.119543379234014"><ele>2224</ele><speed>8.12</speed><time>2016-07-09T13:10:13Z</time><pdop>8.0</pdop><geoidheight>50.60</geoidheight><course>10.76951</course><type>1</type></trkpt>
      <trkpt lat="39.218998710532226" lon="-6.119468223300572"><ele>2227</ele><speed>6.55</speed><time>2016-07-09T13:10:17Z</time><pdop>8.0</pdop><geoidheight>50.60</geoidheight><course>34.479553</course><type>1</type></trkpt>
      <trkpt lat="39.21907957454828" lon="-6.1192409094192"><ele>2232</ele><speed>8.69</speed><time>2016-07-09T13:10:19Z</time><pdop>8.0</pdop><geoidheight>50.60</geoidheight><course>89.48356</course><type>1</type></trkpt>
      <trkpt lat="39.219035413518405" lon="-6.1190514148722945"><ele>2235</ele><speed>9.34</speed><time>2016-07-09T13:10:21Z</time><pdop>8.0</pdop><geoidheight>50.60</geoidheight><course>115.55393</course><type>1</type></trkpt>
      <trkpt lat="39.21884548692628" lon="-6.118983124169984"><ele>2238</ele><speed>11.87</speed><time>2016-07-09T13:10:23Z</time><pdop>8.0</pdop><geoidheight>50.60</geoidheight><course>179.38118</course><type>1</type></trkpt>
      <trkpt lat="39.21867573174852" lon="-6.119110377780757"><ele>2241</ele><speed>11.50</speed><time>2016-07-09T13:10:25Z</time><pdop>8.0</pdop><geoidheight>50.60</geoidheight><course>224.65698</course><type>1</type></trkpt>
      <trkpt lat="39.21860688340923" lon="-6.119380316676337"><ele>2244</ele><speed>10.93</speed><time>2016-07-09T13:10:27Z</time><pdop>6.0</pdop><geoidheight>50.60</geoidheight><course>262.06232</course><type>1</type></trkpt>
      <trkpt lat="39.218616962411204" lon="-6.119602274698382"><ele>2246</ele><speed>10.33</speed><time>2016-07-09T13:10:30Z</time><pdop>8.0</pdop><geoidheight>50.60</geoidheight><course>261.25818</course><type>1</type></trkpt>
      <trkpt lat="39.21874999338526" lon="-6.119758445919991"><ele>2249</ele><speed>10.33</speed><time>2016-07-09T13:10:31Z</time><pdop>8.0</pdop><geoidheight>50.60</geoidheight><course>341.00668</course><type>1</type></trkpt>
      <trkpt lat="39.218911550465535" lon="-6.119761610182592"><ele>2251</ele><speed>8.26</speed><time>2016-07-09T13:10:33Z</time><pdop>8.0</pdop><geoidheight>50.60</geoidheight><course>345.97156</course><type>1</type></trkpt>
      <trkpt lat="39.21899344199754" lon="-6.119505680186614"><ele>2252</ele><speed>6.96</speed><time>2016-07-09T13:10:37Z</time><pdop>12.0</pdop><geoidheight>50.60</geoidheight><course>86.93355</course><type>1</type></trkpt>
      <trkpt lat="39.21879276719054" lon="-6.11929796741891"><ele>2257</ele><speed>10.32</speed><time>2016-07-09T13:10:40Z</time><pdop>8.0</pdop><geoidheight>50.60</geoidheight><course>175.6298</course><type>1</type></trkpt>
      <trkpt lat="39.21860429388686" lon="-6.119315721188194"><ele>2261</ele><speed>10.37</speed><time>2016-07-09T13:10:42Z</time><pdop>8.0</pdop><geoidheight>50.60</geoidheight><course>191.23425</course><type>1</type></trkpt>
      <trkpt lat="39.21841663242478" lon="-6.119377729597625"><ele>2264</ele><speed>9.96</speed><time>2016-07-09T13:10:44Z</time><pdop>6.0</pdop><geoidheight>50.60</geoidheight><course>197.72943</course><type>1</type></trkpt>
      <trkpt lat="39.21827150608661" lon="-6.119539396119531"><ele>2267</ele><speed>10.95</speed><time>2016-07-09T13:10:46Z</time><pdop>6.0</pdop><geoidheight>50.60</geoidheight><course>233.55583</course><type>1</type></trkpt>
      <trkpt lat="39.21826267804035" lon="-6.119746945715307"><ele>2269</ele><speed>11.62</speed><time>2016-07-09T13:10:48Z</time><pdop>8.0</pdop><geoidheight>50.60</geoidheight><course>282.26062</course><type>1</type></trkpt>
      <trkpt lat="39.218382565743575" lon="-6.119929524722549"><ele>2269</ele><speed>12.22</speed><time>2016-07-09T13:10:51Z</time><pdop>8.0</pdop><geoidheight>50.60</geoidheight><course>323.18552</course><type>1</type></trkpt>
      <trkpt lat="39.21860247335258" lon="-6.120068224680766"><ele>2269</ele><speed>8.95</speed><time>2016-07-09T13:10:53Z</time><pdop>8.0</pdop><geoidheight>50.60</geoidheight><course>352.05585</course><type>1</type></trkpt>
      <trkpt lat="39.21874875909954" lon="-6.120113956121693"><ele>2270</ele><speed>8.76</speed><time>2016-07-09T13:10:55Z</time><pdop>6.0</pdop><geoidheight>50.60</geoidheight><course>356.5756</course><type>1</type></trkpt>
      <trkpt lat="39.21889832133092" lon="-6.12008122220175"><ele>2272</ele><speed>8.77</speed><time>2016-07-09T13:10:57Z</time><pdop>6.0</pdop><geoidheight>50.60</geoidheight><course>17.087614</course><type>1</type></trkpt>
      <trkpt lat="39.21908113685287" lon="-6.119906049530736"><ele>2276</ele><speed>8.39</speed><time>2016-07-09T13:11:00Z</time><pdop>12.0</pdop><geoidheight>50.60</geoidheight><course>44.1516</course><type>1</type></trkpt>
      <trkpt lat="39.21927758220549" lon="-6.119672271443815"><ele>2279</ele><speed>10.04</speed><time>2016-07-09T13:11:03Z</time><pdop>8.0</pdop><geoidheight>50.60</geoidheight><course>43.581764</course><type>1</type></trkpt>
      <trkpt lat="39.21940456949037" lon="-6.119518563014973"><ele>2281</ele><speed>8.96</speed><time>2016-07-09T13:11:05Z</time><pdop>6.0</pdop><geoidheight>50.60</geoidheight><course>43.75431</course><type>1</type></trkpt>
      <trkpt lat="39.21951341284994" lon="-6.1193636139638725"><ele>2283</ele><speed>8.90</speed><time>2016-07-09T13:11:07Z</time><pdop>6.0</pdop><geoidheight>50.60</geoidheight><course>47.67845</course><type>1</type></trkpt>
      <trkpt lat="39.21960931358712" lon="-6.11919193864591"><ele>2286</ele><speed>8.08</speed><time>2016-07-09T13:11:09Z</time><pdop>6.0</pdop><geoidheight>50.60</geoidheight><course>53.987736</course><type>1</type></trkpt>
      <trkpt lat="39.2196114223156" lon="-6.118994388344553"><ele>2289</ele><speed>8.16</speed><time>2016-07-09T13:11:12Z</time><pdop>6.0</pdop><geoidheight>50.60</geoidheight><course>103.395905</course><type>1</type></trkpt>
      <trkpt lat="39.21949569435856" lon="-6.118847345714166"><ele>2292</ele><speed>9.89</speed><time>2016-07-09T13:11:13Z</time><pdop>6.0</pdop><geoidheight>50.60</geoidheight><course>150.4003</course><type>1</type></trkpt>
      <trkpt lat="39.21932140454548" lon="-6.1188569813760605"><ele>2295</ele><speed>10.63</speed><time>2016-07-09T13:11:15Z</time><pdop>6.0</pdop><geoidheight>50.60</geoidheight><course>196.50468</course><type>1</type></trkpt>
      <trkpt lat="39.219172969381496" lon="-6.119013041689139"><ele>2296</ele><speed>11.91</speed><time>2016-07-09T13:11:17Z</time><pdop>8.0</pdop><geoidheight>50.60</geoidheight><course>235.65968</course><type>1</type></trkpt>
      <trkpt lat="39.219169814608904" lon="-6.119291146946133"><ele>2295</ele><speed>14.39</speed><time>2016-07-09T13:11:19Z</time><pdop>8.0</pdop><geoidheight>50.60</geoidheight><course>285.97366</course><type>1</type></trkpt>
      <trkpt lat="39.219288646554325" lon="-6.119499824741052"><ele>2294</ele><speed>11.42</speed><time>2016-07-09T13:11:22Z</time><pdop>12.0</pdop><geoidheight>50.60</geoidheight><course>324.16962</course><type>1</type></trkpt>
      <trkpt lat="39.21951514232134" lon="-6.119472585068181"><ele>2292</ele><speed>7.52</speed><time>2016-07-09T13:11:25Z</time><pdop>8.0</pdop><geoidheight>50.60</geoidheight><course>33.43726</course><type>1</type></trkpt>
      <trkpt lat="39.219663143346565" lon="-6.1192865323172025"><ele>2291</ele><speed>6.38</speed><time>2016-07-09T13:11:27Z</time><pdop>8.0</pdop><geoidheight>50.60</geoidheight><course>50.27837</course><type>1</type></trkpt>
      <trkpt lat="39.21974487864304" lon="-6.119162137288183"><ele>2293</ele><speed>7.93</speed><time>2016-07-09T13:11:29Z</time><pdop>6.0</pdop><geoidheight>50.60</geoidheight><course>49.17251</course><type>1</type></trkpt>
      <trkpt lat="39.21982901759306" lon="-6.11900052456109"><ele>2294</ele><speed>9.33</speed><time>2016-07-09T13:11:31Z</time><pdop>8.0</pdop><geoidheight>50.60</geoidheight><course>54.889874</course><type>1</type></trkpt>
      <trkpt lat="39.2199086282658" lon="-6.1188232471729185"><ele>2293</ele><speed>9.32</speed><time>2016-07-09T13:11:33Z</time><pdop>8.0</pdop><geoidheight>50.60</geoidheight><course>55.798077</course><type>1</type></trkpt>
      <trkpt lat="39.219997718313266" lon="-6.118669064249592"><ele>2293</ele><speed>8.94</speed><time>2016-07-09T13:11:35Z</time><pdop>8.0</pdop><geoidheight>50.60</geoidheight><course>49.413036</course><type>1</type></trkpt>
      <trkpt lat="39.2201016856581" lon="-6.118519945372274"><ele>2293</ele><speed>8.33</speed><time>2016-07-09T13:11:37Z</time><pdop>8.0</pdop><geoidheight>50.60</geoidheight><course>47.583076</course><type>1</type></trkpt>
      <trkpt lat="39.220218086923694" lon="-6.1183789151617205"><ele>2293</ele><speed>7.87</speed><time>2016-07-09T13:11:39Z</time><pdop>8.0</pdop><geoidheight>50.60</geoidheight><course>43.128044</course><type>1</type></trkpt>
      <trkpt lat="39.22034264657102" lon="-6.118260738957846"><ele>2293</ele><speed>9.15</speed><time>2016-07-09T13:11:41Z</time><pdop>6.0</pdop><geoidheight>50.60</geoidheight><course>36.973766</course><type>1</type></trkpt>
      <trkpt lat="39.2205750320371" lon="-6.1181595247187746"><ele>2290</ele><speed>10.52</speed><time>2016-07-09T13:11:44Z</time><pdop>6.0</pdop><geoidheight>50.60</geoidheight><course>21.87179</course><type>1</type></trkpt>
      <trkpt lat="39.22072514875396" lon="-6.118042886839768"><ele>2286</ele><speed>9.56</speed><time>2016-07-09T13:11:46Z</time><pdop>6.0</pdop><geoidheight>50.60</geoidheight><course>41.02978</course><type>1</type></trkpt>
      <trkpt lat="39.2208742817822" lon="-6.117912345163367"><ele>2285</ele><speed>9.54</speed><time>2016-07-09T13:11:48Z</time><pdop>6.0</pdop><geoidheight>50.60</geoidheight><course>35.178905</course><type>1</type></trkpt>
      <trkpt lat="39.221025241535045" lon="-6.11779386282721"><ele>2283</ele><speed>9.29</speed><time>2016-07-09T13:11:50Z</time><pdop>6.0</pdop><geoidheight>50.60</geoidheight><course>35.39728</course><type>1</type></trkpt>
      <trkpt lat="39.221153639371806" lon="-6.117662247932589"><ele>2281</ele><speed>10.29</speed><time>2016-07-09T13:11:52Z</time><pdop>12.0</pdop><geoidheight>50.60</geoidheight><course>42.230724</course><type>1</type></trkpt>
      <trkpt lat="39.221280880495385" lon="-6.11750978454111"><ele>2278</ele><speed>9.38</speed><time>2016-07-09T13:11:54Z</time><pdop>6.0</pdop><geoidheight>50.60</geoidheight><course>43.803352</course><type>1</type></trkpt>
      <trkpt lat="39.22138895595881" lon="-6.1173716870522625"><ele>2276</ele><speed>7.82</speed><time>2016-07-09T13:11:56Z</time><pdop>6.0</pdop><geoidheight>50.60</geoidheight><course>46.065662</course><type>1</type></trkpt>
      <trkpt lat="39.221480232029" lon="-6.117226351585114"><ele>2273</ele><speed>8.52</speed><time>2016-07-09T13:11:58Z</time><pdop>6.0</pdop><geoidheight>50.60</geoidheight><course>50.499866</course><type>1</type></trkpt>
      <trkpt lat="39.22159441437726" lon="-6.117055008622273"><ele>2270</ele><speed>10.89</speed><time>2016-07-09T13:12:00Z</time><pdop>6.0</pdop><geoidheight>50.60</geoidheight><course>47.69711</course><type>1</type></trkpt>
      <trkpt lat="39.22172166829306" lon="-6.116889758747455"><ele>2268</ele><speed>9.29</speed><time>2016-07-09T13:12:02Z</time><pdop>6.0</pdop><geoidheight>50.60</geoidheight><course>45.953114</course><type>1</type></trkpt>
      <trkpt lat="39.22183427448375" lon="-6.116746842375615"><ele>2267</ele><speed>8.44</speed><time>2016-07-09T13:12:04Z</time><pdop>6.0</pdop><geoidheight>50.60</geoidheight><course>44.20327</course><type>1</type></trkpt>
      <trkpt lat="39.22196192167191" lon="-6.1166129880232365"><ele>2264</ele><speed>10.93</speed><time>2016-07-09T13:12:06Z</time><pdop>6.0</pdop><geoidheight>50.60</geoidheight><course>40.768913</course><type>1</type></trkpt>
      <trkpt lat="39.22210324911056" lon="-6.116468166200054"><ele>2262</ele><speed>10.62</speed><time>2016-07-09T13:12:08Z</time><pdop>6.0</pdop><geoidheight>50.60</geoidheight><course>39.055298</course><type>1</type></trkpt>
      <trkpt lat="39.22225158627683" lon="-6.116317581193436"><ele>2260</ele><speed>9.48</speed><time>2016-07-09T13:12:11Z</time><pdop>8.0</pdop><geoidheight>50.60</geoidheight><course>40.077118</course><type>1</type></trkpt>
      <trkpt lat="39.22238321045868" lon="-6.116175008144848"><ele>2259</ele><speed>9.42</speed><time>2016-07-09T13:12:12Z</time><pdop>8.0</pdop><geoidheight>50.60</geoidheight><course>42.46975</course><type>1</type></trkpt>
      <trkpt lat="39.22250065221162" lon="-6.116024032689467"><ele>2258</ele><speed>9.36</speed><time>2016-07-09T13:12:14Z</time><pdop>6.0</pdop><geoidheight>50.60</geoidheight><course>46.61257</course><type>1</type></trkpt>
      <trkpt lat="39.22260821604849" lon="-6.115857014884014"><ele>2257</ele><speed>10.62</speed><time>2016-07-09T13:12:16Z</time><pdop>6.0</pdop><geoidheight>50.60</geoidheight><course>50.253418</course><type>1</type></trkpt>
      <trkpt lat="39.222728456007395" lon="-6.115655532555267"><ele>2254</ele><speed>10.78</speed><time>2016-07-09T13:12:18Z</time><pdop>6.0</pdop><geoidheight>50.60</geoidheight><course>52.876778</course><type>1</type></trkpt>
      <trkpt lat="39.22283626028109" lon="-6.115461149614271"><ele>2250</ele><speed>9.85</speed><time>2016-07-09T13:12:21Z</time><pdop>6.0</pdop><geoidheight>50.60</geoidheight><course>52.8531</course><type>1</type></trkpt>
      <trkpt lat="39.22296317054162" lon="-6.115285811569973"><ele>2248</ele><speed>10.21</speed><time>2016-07-09T13:12:22Z</time><pdop>6.0</pdop><geoidheight>50.60</geoidheight><course>45.668606</course><type>1</type></trkpt>
      <trkpt lat="39.2230983083763" lon="-6.115135641488382"><ele>2246</ele><speed>10.28</speed><time>2016-07-09T13:12:24Z</time><pdop>8.0</pdop><geoidheight>50.60</geoidheight><course>41.188984</course><type>1</type></trkpt>
      <trkpt lat="39.223221636405725" lon="-6.114995783840073"><ele>2245</ele><speed>9.66</speed><time>2016-07-09T13:12:26Z</time><pdop>8.0</pdop><geoidheight>50.60</geoidheight><course>42.491722</course><type>1</type></trkpt>
      <trkpt lat="39.22341295748092" lon="-6.114765785672633"><ele>2243</ele><speed>10.47</speed><time>2016-07-09T13:12:29Z</time><pdop>6.0</pdop><geoidheight>50.60</geoidheight><course>42.893826</course><type>1</type></trkpt>
      <trkpt lat="39.22353964927493" lon="-6.1146093775823465"><ele>2240</ele><speed>9.96</speed><time>2016-07-09T13:12:32Z</time><pdop>8.0</pdop><geoidheight>50.60</geoidheight><course>42.892673</course><type>1</type></trkpt>
      <trkpt lat="39.22366598061616" lon="-6.114420558567369"><ele>2236</ele><speed>11.34</speed><time>2016-07-09T13:12:33Z</time><pdop>8.0</pdop><geoidheight>50.60</geoidheight><course>49.603436</course><type>1</type></trkpt>
      <trkpt lat="39.22377689692979" lon="-6.114221138411078"><ele>2233</ele><speed>10.08</speed><time>2016-07-09T13:12:35Z</time><pdop>8.0</pdop><geoidheight>50.60</geoidheight><course>53.37325</course><type>1</type></trkpt>
      <trkpt lat="39.22387441413688" lon="-6.114034483030393"><ele>2230</ele><speed>9.48</speed><time>2016-07-09T13:12:37Z</time><pdop>8.0</pdop><geoidheight>50.60</geoidheight><course>55.29826</course><type>1</type></trkpt>
      <trkpt lat="39.22398599270503" lon="-6.1138261306167205"><ele>2227</ele><speed>12.06</speed><time>2016-07-09T13:12:40Z</time><pdop>8.0</pdop><geoidheight>50.60</geoidheight><course>53.49535</course><type>1</type></trkpt>
      <trkpt lat="39.22411884052808" lon="-6.113625110957782"><ele>2224</ele><speed>10.86</speed><time>2016-07-09T13:12:41Z</time><pdop>12.0</pdop><geoidheight>50.60</geoidheight><course>50.70104</course><type>1</type></trkpt>
      <trkpt lat="39.22424537710033" lon="-6.113437997614876"><ele>2220</ele><speed>10.35</speed><time>2016-07-09T13:12:43Z</time><pdop>8.0</pdop><geoidheight>50.60</geoidheight><course>51.05057</course><type>1</type></trkpt>
      <trkpt lat="39.22436477641084" lon="-6.113257771394644"><ele>2215</ele><speed>10.96</speed><time>2016-07-09T13:12:45Z</time><pdop>12.0</pdop><geoidheight>50.60</geoidheight><course>50.180607</course><type>1</type></trkpt>
      <trkpt lat="39.2245021166584" lon="-6.113071232690548"><ele>2210</ele><speed>11.15</speed><time>2016-07-09T13:12:47Z</time><pdop>8.0</pdop><geoidheight>50.60</geoidheight><course>47.271748</course><type>1</type></trkpt>
      <trkpt lat="39.224645987090945" lon="-6.112893378792537"><ele>2208</ele><speed>10.43</speed><time>2016-07-09T13:12:49Z</time><pdop>8.0</pdop><geoidheight>50.60</geoidheight><course>45.038605</course><type>1</type></trkpt>
      <trkpt lat="39.22477417737504" lon="-6.112728228328605"><ele>2207</ele><speed>8.75</speed><time>2016-07-09T13:12:51Z</time><pdop>8.0</pdop><geoidheight>50.60</geoidheight><course>47.788967</course><type>1</type></trkpt>
      <trkpt lat="39.22488853059055" lon="-6.112548037550668"><ele>2207</ele><speed>10.80</speed><time>2016-07-09T13:12:53Z</time><pdop>8.0</pdop><geoidheight>50.60</geoidheight><course>51.16705</course><type>1</type></trkpt>
      <trkpt lat="39.22501255768514" lon="-6.112363981824038"><ele>2205</ele><speed>10.34</speed><time>2016-07-09T13:12:55Z</time><pdop>8.0</pdop><geoidheight>50.60</geoidheight><course>48.326775</course><type>1</type></trkpt>
      <trkpt lat="39.225122994990784" lon="-6.112202354500114"><ele>2203</ele><speed>9.76</speed><time>2016-07-09T13:12:58Z</time><pdop>8.0</pdop><geoidheight>50.60</geoidheight><course>47.23145</course><type>1</type></trkpt>
      <trkpt lat="39.22523641144127" lon="-6.112038053782876"><ele>2201</ele><speed>10.23</speed><time>2016-07-09T13:12:59Z</time><pdop>6.0</pdop><geoidheight>50.60</geoidheight><course>48.49256</course><type>1</type></trkpt>
      <trkpt lat="39.225352090353745" lon="-6.111867486054416"><ele>2199</ele><speed>9.98</speed><time>2016-07-09T13:13:01Z</time><pdop>8.0</pdop><geoidheight>50.60</geoidheight><course>49.48168</course><type>1</type></trkpt>
      <trkpt lat="39.225463488452746" lon="-6.1117051983532145"><ele>2197</ele><speed>9.49</speed><time>2016-07-09T13:13:03Z</time><pdop>8.0</pdop><geoidheight>50.60</geoidheight><course>47.17346</course><type>1</type></trkpt>
      <trkpt lat="39.225574255298575" lon="-6.111551257838463"><ele>2198</ele><speed>9.29</speed><time>2016-07-09T13:13:06Z</time><pdop>8.0</pdop><geoidheight>50.60</geoidheight><course>47.518227</course><type>1</type></trkpt>
      <trkpt lat="39.22571354576279" lon="-6.111383964771883"><ele>2199</ele><speed>10.10</speed><time>2016-07-09T13:13:07Z</time><pdop>8.0</pdop><geoidheight>50.60</geoidheight><course>42.707256</course><type>1</type></trkpt>
      <trkpt lat="39.22585986274496" lon="-6.1112317659169"><ele>2199</ele><speed>10.87</speed><time>2016-07-09T13:13:10Z</time><pdop>8.0</pdop><geoidheight>50.60</geoidheight><course>40.05267</course><type>1</type></trkpt>
      <trkpt lat="39.22599873426547" lon="-6.111077889577027"><ele>2200</ele><speed>9.59</speed><time>2016-07-09T13:13:11Z</time><pdop>6.0</pdop><geoidheight>50.60</geoidheight><course>42.32902</course><type>1</type></trkpt>
      <trkpt lat="39.22612814930537" lon="-6.11093621226812"><ele>2201</ele><speed>9.60</speed><time>2016-07-09T13:13:13Z</time><pdop>8.0</pdop><geoidheight>50.60</geoidheight><course>40.21637</course><type>1</type></trkpt>
      <trkpt lat="39.226266523038184" lon="-6.110797970920691"><ele>2200</ele><speed>9.96</speed><time>2016-07-09T13:13:15Z</time><pdop>8.0</pdop><geoidheight>50.60</geoidheight><course>39.41304</course><type>1</type></trkpt>
      <trkpt lat="39.22639864164166" lon="-6.110646028303203"><ele>2199</ele><speed>9.83</speed><time>2016-07-09T13:13:17Z</time><pdop>6.0</pdop><geoidheight>50.60</geoidheight><course>44.506958</course><type>1</type></trkpt>
      <trkpt lat="39.226514086853" lon="-6.110479266282585"><ele>2197</ele><speed>9.80</speed><time>2016-07-09T13:13:20Z</time><pdop>6.0</pdop><geoidheight>50.60</geoidheight><course>47.694344</course><type>1</type></trkpt>
      <trkpt lat="39.226646900786086" lon="-6.110314958819256"><ele>2196</ele><speed>10.50</speed><time>2016-07-09T13:13:21Z</time><pdop>8.0</pdop><geoidheight>50.60</geoidheight><course>43.569447</course><type>1</type></trkpt>
      <trkpt lat="39.22678963337328" lon="-6.110140595183086"><ele>2194</ele><speed>11.39</speed><time>2016-07-09T13:13:23Z</time><pdop>8.0</pdop><geoidheight>50.60</geoidheight><course>46.527348</course><type>1</type></trkpt>
      <trkpt lat="39.22690541965358" lon="-6.10997364434801"><ele>2192</ele><speed>8.76</speed><time>2016-07-09T13:13:25Z</time><pdop>8.0</pdop><geoidheight>50.60</geoidheight><course>47.135426</course><type>1</type></trkpt>
      <trkpt lat="39.227067622612665" lon="-6.109761631003359"><ele>2192</ele><speed>8.13</speed><time>2016-07-09T13:13:28Z</time><pdop>6.0</pdop><geoidheight>50.60</geoidheight><course>46.392895</course><type>1</type></trkpt>
      <trkpt lat="39.22716150268003" lon="-6.10956227930472"><ele>2193</ele><speed>10.60</speed><time>2016-07-09T13:13:30Z</time><pdop>8.0</pdop><geoidheight>50.60</geoidheight><course>60.538696</course><type>1</type></trkpt>
      <trkpt lat="39.22726918783252" lon="-6.10934231882855"><ele>2192</ele><speed>11.05</speed><time>2016-07-09T13:13:32Z</time><pdop>8.0</pdop><geoidheight>50.60</geoidheight><course>57.421104</course><type>1</type></trkpt>
      <trkpt lat="39.22735701319349" lon="-6.10917402740537"><ele>2193</ele><speed>8.36</speed><time>2016-07-09T13:13:35Z</time><pdop>6.0</pdop><geoidheight>50.60</geoidheight><course>58.655544</course><type>1</type></trkpt>
      <trkpt lat="39.22743665816605" lon="-6.108994649901449"><ele>2193</ele><speed>9.37</speed><time>2016-07-09T13:13:36Z</time><pdop>6.0</pdop><geoidheight>50.60</geoidheight><course>60.540688</course><type>1</type></trkpt>
      <trkpt lat="39.22750758203295" lon="-6.108800180198095"><ele>2193</ele><speed>9.18</speed><time>2016-07-09T13:13:39Z</time><pdop>8.0</pdop><geoidheight>50.60</geoidheight><course>63.258297</course><type>1</type></trkpt>
      <trkpt lat="39.22756440182642" lon="-6.108610041561635"><ele>2193</ele><speed>8.78</speed><time>2016-07-09T13:13:41Z</time><pdop>8.0</pdop><geoidheight>50.60</geoidheight><course>63.737896</course><type>1</type></trkpt>
      <trkpt lat="39.22765370546114" lon="-6.10835324316025"><ele>2194</ele><speed>8.53</speed><time>2016-07-09T13:13:43Z</time><pdop>6.0</pdop><geoidheight>50.60</geoidheight><course>65.47539</course><type>1</type></trkpt>
      <trkpt lat="39.227761749255635" lon="-6.108009675326844"><ele>2194</ele><speed>11.43</speed><time>2016-07-09T13:13:46Z</time><pdop>12.0</pdop><geoidheight>50.60</geoidheight><course>64.13264</course><type>1</type></trkpt>
      <trkpt lat="39.22787340320644" lon="-6.107699369509922"><ele>2192</ele><speed>9.28</speed><time>2016-07-09T13:13:49Z</time><pdop>8.0</pdop><geoidheight>50.60</geoidheight><course>66.26058</course><type>1</type></trkpt>
      <trkpt lat="39.227943922675465" lon="-6.10747707679913"><ele>2190</ele><speed>10.66</speed><time>2016-07-09T13:13:51Z</time><pdop>8.0</pdop><geoidheight>50.60</geoidheight><course>68.320625</course><type>1</type></trkpt>
      <trkpt lat="39.22803068551126" lon="-6.107239038119305"><ele>2187</ele><speed>11.56</speed><time>2016-07-09T13:13:53Z</time><pdop>12.0</pdop><geoidheight>50.60</geoidheight><course>63.885845</course><type>1</type></trkpt>
      <trkpt lat="39.22815785845657" lon="-6.106944446407348"><ele>2180</ele><speed>9.50</speed><time>2016-07-09T13:13:57Z</time><pdop>6.0</pdop><geoidheight>50.60</geoidheight><course>61.894688</course><type>1</type></trkpt>
      <trkpt lat="39.2283008707583" lon="-6.106685291443037"><ele>2173</ele><speed>10.43</speed><time>2016-07-09T13:14:00Z</time><pdop>6.0</pdop><geoidheight>50.60</geoidheight><course>54.54253</course><type>1</type></trkpt>
      <trkpt lat="39.22841482378927" lon="-6.106509719163856"><ele>2168</ele><speed>9.85</speed><time>2016-07-09T13:14:01Z</time><pdop>6.0</pdop><geoidheight>50.60</geoidheight><course>53.366177</course><type>1</type></trkpt>
      <trkpt lat="39.22853460355303" lon="-6.10635726845087"><ele>2165</ele><speed>8.89</speed><time>2016-07-09T13:14:03Z</time><pdop>6.0</pdop><geoidheight>50.60</geoidheight><course>48.609505</course><type>1</type></trkpt>
      <trkpt lat="39.22864414737979" lon="-6.106225524306366"><ele>2162</ele><speed>7.85</speed><time>2016-07-09T13:14:05Z</time><pdop>6.0</pdop><geoidheight>50.60</geoidheight><course>46.358906</course><type>1</type></trkpt>
      <trkpt lat="39.22874555744387" lon="-6.1060772664920195"><ele>2160</ele><speed>8.76</speed><time>2016-07-09T13:14:08Z</time><pdop>6.0</pdop><geoidheight>50.60</geoidheight><course>52.19701</course><type>1</type></trkpt>
      <trkpt lat="39.22885931817113" lon="-6.1059031740082235"><ele>2155</ele><speed>10.29</speed><time>2016-07-09T13:14:09Z</time><pdop>8.0</pdop><geoidheight>50.60</geoidheight><course>50.178295</course><type>1</type></trkpt>
      <trkpt lat="39.228981089040325" lon="-6.105714078385204"><ele>2150</ele><speed>10.83</speed><time>2016-07-09T13:14:11Z</time><pdop>8.0</pdop><geoidheight>50.60</geoidheight><course>53.366352</course><type>1</type></trkpt>
      <trkpt lat="39.22908195974529" lon="-6.10553069655981"><ele>2146</ele><speed>9.53</speed><time>2016-07-09T13:14:13Z</time><pdop>8.0</pdop><geoidheight>50.60</geoidheight><course>54.990826</course><type>1</type></trkpt>
      <trkpt lat="39.229177924256234" lon="-6.105346780219127"><ele>2142</ele><speed>9.61</speed><time>2016-07-09T13:14:15Z</time><pdop>6.0</pdop><geoidheight>50.60</geoidheight><course>56.445335</course><type>1</type></trkpt>
      <trkpt lat="39.22925769582102" lon="-6.105155760986248"><ele>2139</ele><speed>9.51</speed><time>2016-07-09T13:14:17Z</time><pdop>6.0</pdop><geoidheight>50.60</geoidheight><course>60.945904</course><type>1</type></trkpt>
      <trkpt lat="39.229334410870365" lon="-6.104965904257113"><ele>2136</ele><speed>9.26</speed><time>2016-07-09T13:14:20Z</time><pdop>8.0</pdop><geoidheight>50.60</geoidheight><course>59.398815</course><type>1</type></trkpt>
      <trkpt lat="39.22941301299313" lon="-6.104808503143529"><ele>2135</ele><speed>7.74</speed><time>2016-07-09T13:14:21Z</time><pdop>8.0</pdop><geoidheight>50.60</geoidheight><course>55.36302</course><type>1</type></trkpt>
      <trkpt lat="39.22950770305204" lon="-6.104610266241953"><ele>2134</ele><speed>6.01</speed><time>2016-07-09T13:14:24Z</time><pdop>8.0</pdop><geoidheight>50.60</geoidheight><course>60.05237</course><type>1</type></trkpt>
      <trkpt lat="39.22960656480672" lon="-6.104392482772907"><ele>2133</ele><speed>8.66</speed><time>2016-07-09T13:14:27Z</time><pdop>8.0</pdop><geoidheight>50.60</geoidheight><course>60.400845</course><type>1</type></trkpt>
      <trkpt lat="39.22968653261689" lon="-6.104218897329677"><ele>2132</ele><speed>3.93</speed><time>2016-07-09T13:14:31Z</time><pdop>8.0</pdop><geoidheight>50.60</geoidheight><course>40.650826</course><type>1</type></trkpt>
      <trkpt lat="39.22978554982863" lon="-6.1040171595910575"><ele>2129</ele><speed>6.49</speed><time>2016-07-09T13:14:34Z</time><pdop>8.0</pdop><geoidheight>50.60</geoidheight><course>66.95152</course><type>1</type></trkpt>
      <trkpt lat="39.229851302508074" lon="-6.10380485275433"><ele>2125</ele><speed>7.90</speed><time>2016-07-09T13:14:37Z</time><pdop>8.0</pdop><geoidheight>50.60</geoidheight><course>69.32909</course><type>1</type></trkpt>
      <trkpt lat="39.22992844580028" lon="-6.103560542438453"><ele>2123</ele><speed>7.71</speed><time>2016-07-09T13:14:41Z</time><pdop>8.0</pdop><geoidheight>50.60</geoidheight><course>65.57124</course><type>1</type></trkpt>
      <trkpt lat="39.22999621252889" lon="-6.103378658721357"><ele>2122</ele><speed>9.62</speed><time>2016-07-09T13:14:42Z</time><pdop>8.0</pdop><geoidheight>50.60</geoidheight><course>63.799923</course><type>1</type></trkpt>
      <trkpt lat="39.230086525385936" lon="-6.103175904707037"><ele>2120</ele><speed>10.82</speed><time>2016-07-09T13:14:44Z</time><pdop>8.0</pdop><geoidheight>50.60</geoidheight><course>61.152752</course><type>1</type></trkpt>
      <trkpt lat="39.230181629715744" lon="-6.102987760441591"><ele>2119</ele><speed>9.60</speed><time>2016-07-09T13:14:46Z</time><pdop>8.0</pdop><geoidheight>50.60</geoidheight><course>58.548805</course><type>1</type></trkpt>
      <trkpt lat="39.23027660617024" lon="-6.1028128180002215"><ele>2119</ele><speed>9.22</speed><time>2016-07-09T13:14:48Z</time><pdop>8.0</pdop><geoidheight>50.60</geoidheight><course>56.25533</course><type>1</type></trkpt>
      <trkpt lat="39.23038281689063" lon="-6.102625490147836"><ele>2120</ele><speed>10.09</speed><time>2016-07-09T13:14:50Z</time><pdop>8.0</pdop><geoidheight>50.60</geoidheight><course>54.77173</course><type>1</type></trkpt>
      <trkpt lat="39.23048282970241" lon="-6.102430734613512"><ele>2120</ele><speed>10.48</speed><time>2016-07-09T13:14:53Z</time><pdop>8.0</pdop><geoidheight>50.60</geoidheight><course>57.033184</course><type>1</type></trkpt>
      <trkpt lat="39.23058182702746" lon="-6.102234416722366"><ele>2119</ele><speed>9.79</speed><time>2016-07-09T13:14:54Z</time><pdop>12.0</pdop><geoidheight>50.60</geoidheight><course>56.9726</course><type>1</type></trkpt>
      <trkpt lat="39.23070227821191" lon="-6.101983752846478"><ele>2118</ele><speed>8.58</speed><time>2016-07-09T13:14:57Z</time><pdop>8.0</pdop><geoidheight>50.60</geoidheight><course>56.385162</course><type>1</type></trkpt>
      <trkpt lat="39.23080007382117" lon="-6.101796295859042"><ele>2118</ele><speed>10.30</speed><time>2016-07-09T13:14:59Z</time><pdop>8.0</pdop><geoidheight>50.60</geoidheight><course>55.10294</course><type>1</type></trkpt>
      <trkpt lat="39.230908369883046" lon="-6.101608210906647"><ele>2117</ele><speed>9.85</speed><time>2016-07-09T13:15:02Z</time><pdop>8.0</pdop><geoidheight>50.60</geoidheight><course>51.64296</course><type>1</type></trkpt>
      <trkpt lat="39.23100995041195" lon="-6.101451498849994"><ele>2116</ele><speed>8.73</speed><time>2016-07-09T13:15:03Z</time><pdop>8.0</pdop><geoidheight>50.60</geoidheight><course>50.47643</course><type>1</type></trkpt>
      <trkpt lat="39.23117532348405" lon="-6.101187697960054"><ele>2113</ele><speed>10.42</speed><time>2016-07-09T13:15:06Z</time><pdop>8.0</pdop><geoidheight>50.60</geoidheight><course>50.369774</course><type>1</type></trkpt>
      <trkpt lat="39.23128247338519" lon="-6.1010178648835645"><ele>2111</ele><speed>9.52</speed><time>2016-07-09T13:15:08Z</time><pdop>8.0</pdop><geoidheight>50.60</geoidheight><course>51.289932</course><type>1</type></trkpt>
      <trkpt lat="39.231377004870076" lon="-6.100832601719005"><ele>2108</ele><speed>9.86</speed><time>2016-07-09T13:15:11Z</time><pdop>8.0</pdop><geoidheight>50.60</geoidheight><course>57.044373</course><type>1</type></trkpt>
      <trkpt lat="39.23146506006302" lon="-6.100534823960261"><ele>2105</ele><speed>9.86</speed><time>2016-07-09T13:15:14Z</time><pdop>12.0</pdop><geoidheight>50.60</geoidheight><course>67.34641</course><type>1</type></trkpt>
      <trkpt lat="39.231547318430195" lon="-6.100217377398711"><ele>2100</ele><speed>10.71</speed><time>2016-07-09T13:15:16Z</time><pdop>12.0</pdop><geoidheight>50.60</geoidheight><course>66.29229</course><type>1</type></trkpt>
      <trkpt lat="39.231591858977126" lon="-6.099936624695617"><ele>2095</ele><speed>8.32</speed><time>2016-07-09T13:15:19Z</time><pdop>8.0</pdop><geoidheight>50.60</geoidheight><course>87.14494</course><type>1</type></trkpt>
      <trkpt lat="39.23158014173855" lon="-6.099727443001707"><ele>2092</ele><speed>9.94</speed><time>2016-07-09T13:15:22Z</time><pdop>8.0</pdop><geoidheight>50.60</geoidheight><course>93.7011</course><type>1</type></trkpt>
      <trkpt lat="39.23157180182243" lon="-6.099487662910826"><ele>2088</ele><speed>11.12</speed><time>2016-07-09T13:15:23Z</time><pdop>12.0</pdop><geoidheight>50.60</geoidheight><course>91.161255</course><type>1</type></trkpt>
      <trkpt lat="39.231589363441174" lon="-6.09925179316896"><ele>2083</ele><speed>10.59</speed><time>2016-07-09T13:15:25Z</time><pdop>8.0</pdop><geoidheight>50.60</geoidheight><course>84.60656</course><type>1</type></trkpt>
      <trkpt lat="39.231612141289474" lon="-6.09904377169169"><ele>2078</ele><speed>9.50</speed><time>2016-07-09T13:15:27Z</time><pdop>8.0</pdop><geoidheight>50.60</geoidheight><course>83.20821</course><type>1</type></trkpt>
      <trkpt lat="39.23164138539477" lon="-6.098823831978145"><ele>2073</ele><speed>9.86</speed><time>2016-07-09T13:15:29Z</time><pdop>8.0</pdop><geoidheight>50.60</geoidheight><course>82.41421</course><type>1</type></trkpt>
      <trkpt lat="39.23166762878636" lon="-6.098606112089369"><ele>2068</ele><speed>9.74</speed><time>2016-07-09T13:15:31Z</time><pdop>8.0</pdop><geoidheight>50.60</geoidheight><course>83.546906</course><type>1</type></trkpt>
      <trkpt lat="39.23168891573037" lon="-6.098400696959673"><ele>2065</ele><speed>9.45</speed><time>2016-07-09T13:15:33Z</time><pdop>8.0</pdop><geoidheight>50.60</geoidheight><course>82.02389</course><type>1</type></trkpt>
      <trkpt lat="39.23171508981544" lon="-6.098188265016445"><ele>2061</ele><speed>10.06</speed><time>2016-07-09T13:15:35Z</time><pdop>8.0</pdop><geoidheight>50.60</geoidheight><course>82.64821</course><type>1</type></trkpt>
      <trkpt lat="39.23176048593554" lon="-6.097871360800681"><ele>2056</ele><speed>9.16</speed><time>2016-07-09T13:15:38Z</time><pdop>12.0</pdop><geoidheight>50.60</geoidheight><course>81.25332</course><type>1</type></trkpt>
      <trkpt lat="39.23180693407452" lon="-6.097564972501215"><ele>2048</ele><speed>9.77</speed><time>2016-07-09T13:15:41Z</time><pdop>8.0</pdop><geoidheight>50.60</geoidheight><course>79.67913</course><type>1</type></trkpt>
      <trkpt lat="39.231896830228955" lon="-6.097237167483331"><ele>2038</ele><speed>10.30</speed><time>2016-07-09T13:15:44Z</time><pdop>12.0</pdop><geoidheight>50.60</geoidheight><course>71.018364</course><type>1</type></trkpt>
      <trkpt lat="39.23211334883011" lon="-6.097035989563562"><ele>2029</ele><speed>10.65</speed><time>2016-07-09T13:15:48Z</time><pdop>8.0</pdop><geoidheight>50.60</geoidheight><course>25.662273</course><type>1</type></trkpt>
      <trkpt lat="39.23229485370588" lon="-6.096886015828677"><ele>2022</ele><speed>8.08</speed><time>2016-07-09T13:15:50Z</time><pdop>8.0</pdop><geoidheight>50.60</geoidheight><course>43.192142</course><type>1</type></trkpt>
      <trkpt lat="39.232448588688484" lon="-6.096774123225711"><ele>2016</ele><speed>10.88</speed><time>2016-07-09T13:15:52Z</time><pdop>8.0</pdop><geoidheight>50.60</geoidheight><course>22.70305</course><type>1</type></trkpt>
      <trkpt lat="39.23263880851923" lon="-6.096700854244933"><ele>2010</ele><speed>10.64</speed><time>2016-07-09T13:15:55Z</time><pdop>8.0</pdop><geoidheight>50.60</geoidheight><course>19.617682</course><type>1</type></trkpt>
      <trkpt lat="39.23279741631609" lon="-6.096659097973601"><ele>2003</ele><speed>8.66</speed><time>2016-07-09T13:15:56Z</time><pdop>8.0</pdop><geoidheight>50.60</geoidheight><course>17.829998</course><type>1</type></trkpt>
      <trkpt lat="39.23305502194559" lon="-6.096616113838746"><ele>1994</ele><speed>10.50</speed><time>2016-07-09T13:15:59Z</time><pdop>8.0</pdop><geoidheight>50.60</geoidheight><course>12.700596</course><type>1</type></trkpt>
      <trkpt lat="39.23324804360014" lon="-6.096563786845827"><ele>1987</ele><speed>11.16</speed><time>2016-07-09T13:16:01Z</time><pdop>8.0</pdop><geoidheight>50.60</geoidheight><course>14.199042</course><type>1</type></trkpt>
      <trkpt lat="39.233420749944635" lon="-6.0965033280042515"><ele>1980</ele><speed>9.70</speed><time>2016-07-09T13:16:04Z</time><pdop>8.0</pdop><geoidheight>50.60</geoidheight><course>18.547953</course><type>1</type></trkpt>
      <trkpt lat="39.233666548259514" lon="-6.096402380987628"><ele>1970</ele><speed>10.67</speed><time>2016-07-09T13:16:06Z</time><pdop>8.0</pdop><geoidheight>50.60</geoidheight><course>21.98957</course><type>1</type></trkpt>
      <trkpt lat="39.233826790685995" lon="-6.096315469477292"><ele>1964</ele><speed>9.99</speed><time>2016-07-09T13:16:09Z</time><pdop>8.0</pdop><geoidheight>50.60</geoidheight><course>24.894869</course><type>1</type></trkpt>
      <trkpt lat="39.23405053644588" lon="-6.096137051640829"><ele>1960</ele><speed>10.34</speed><time>2016-07-09T13:16:11Z</time><pdop>12.0</pdop><geoidheight>50.60</geoidheight><course>33.820255</course><type>1</type></trkpt>
      <trkpt lat="39.23428401931778" lon="-6.095915191338944"><ele>1956</ele><speed>10.52</speed><time>2016-07-09T13:16:14Z</time><pdop>8.0</pdop><geoidheight>50.60</geoidheight><course>34.298553</course><type>1</type></trkpt>
      <trkpt lat="39.234442882518316" lon="-6.095812353290539"><ele>1952</ele><speed>9.58</speed><time>2016-07-09T13:16:16Z</time><pdop>8.0</pdop><geoidheight>50.60</geoidheight><course>28.665003</course><type>1</type></trkpt>
      <trkpt lat="39.234601466078395" lon="-6.095727406612438"><ele>1946</ele><speed>9.37</speed><time>2016-07-09T13:16:19Z</time><pdop>6.0</pdop><geoidheight>50.60</geoidheight><course>27.598347</course><type>1</type></trkpt>
      <trkpt lat="39.234744564597996" lon="-6.095635977226681"><ele>1942</ele><speed>8.30</speed><time>2016-07-09T13:16:20Z</time><pdop>6.0</pdop><geoidheight>50.60</geoidheight><course>29.711826</course><type>1</type></trkpt>
      <trkpt lat="39.23488556595402" lon="-6.095528248952453"><ele>1938</ele><speed>7.78</speed><time>2016-07-09T13:16:22Z</time><pdop>8.0</pdop><geoidheight>50.60</geoidheight><course>31.677074</course><type>1</type></trkpt>
      <trkpt lat="39.23502016341722" lon="-6.09541106453697"><ele>1932</ele><speed>8.84</speed><time>2016-07-09T13:16:24Z</time><pdop>8.0</pdop><geoidheight>50.60</geoidheight><course>36.330326</course><type>1</type></trkpt>
      <trkpt lat="39.235130815839184" lon="-6.09525336782884"><ele>1926</ele><speed>9.86</speed><time>2016-07-09T13:16:26Z</time><pdop>8.0</pdop><geoidheight>50.60</geoidheight><course>49.25007</course><type>1</type></trkpt>
      <trkpt lat="39.23524808643011" lon="-6.095099028495879"><ele>1923</ele><speed>9.67</speed><time>2016-07-09T13:16:28Z</time><pdop>8.0</pdop><geoidheight>50.60</geoidheight><course>45.8523</course><type>1</type></trkpt>
      <trkpt lat="39.23538019170837" lon="-6.094942774749853"><ele>1920</ele><speed>10.08</speed><time>2016-07-09T13:16:30Z</time><pdop>8.0</pdop><geoidheight>50.60</geoidheight><course>45.774685</course><type>1</type></trkpt>
      <trkpt lat="39.23551196142018" lon="-6.094772248526572"><ele>1916</ele><speed>10.81</speed><time>2016-07-09T13:16:32Z</time><pdop>8.0</pdop><geoidheight>50.60</geoidheight><course>48.904385</course><type>1</type></trkpt>
      <trkpt lat="39.235643023685164" lon="-6.094577135397349"><ele>1910</ele><speed>10.66</speed><time>2016-07-09T13:16:34Z</time><pdop>8.0</pdop><geoidheight>50.60</geoidheight><course>50.40631</course><type>1</type></trkpt>
      <trkpt lat="39.235761995417874" lon="-6.094389143305121"><ele>1905</ele><speed>11.27</speed><time>2016-07-09T13:16:37Z</time><pdop>8.0</pdop><geoidheight>50.60</geoidheight><course>52.206905</course><type>1</type></trkpt>
      <trkpt lat="39.23589324269498" lon="-6.094181475925405"><ele>1901</ele><speed>12.57</speed><time>2016-07-09T13:16:38Z</time><pdop>8.0</pdop><geoidheight>50.60</geoidheight><course>53.01295</course><type>1</type></trkpt>
      <trkpt lat="39.23602803925422" lon="-6.093973135316023"><ele>1898</ele><speed>11.36</speed><time>2016-07-09T13:16:40Z</time><pdop>8.0</pdop><geoidheight>50.60</geoidheight><course>50.21628</course><type>1</type></trkpt>
      <trkpt lat="39.236150764664806" lon="-6.093793333335188"><ele>1896</ele><speed>9.86</speed><time>2016-07-09T13:16:42Z</time><pdop>8.0</pdop><geoidheight>50.60</geoidheight><course>50.536194</course><type>1</type></trkpt>
      <trkpt lat="39.23626575689264" lon="-6.093586587321589"><ele>1895</ele><speed>11.58</speed><time>2016-07-09T13:16:44Z</time><pdop>8.0</pdop><geoidheight>50.60</geoidheight><course>55.62391</course><type>1</type></trkpt>
      <trkpt lat="39.23638068447344" lon="-6.093341962094249"><ele>1893</ele><speed>12.76</speed><time>2016-07-09T13:16:46Z</time><pdop>8.0</pdop><geoidheight>50.60</geoidheight><course>57.954144</course><type>1</type></trkpt>
      <trkpt lat="39.23649851979569" lon="-6.093104516323177"><ele>1892</ele><speed>12.22</speed><time>2016-07-09T13:16:48Z</time><pdop>8.0</pdop><geoidheight>50.60</geoidheight><course>56.050484</course><type>1</type></trkpt>
      <trkpt lat="39.23660908547015" lon="-6.092875739389028"><ele>1891</ele><speed>11.40</speed><time>2016-07-09T13:16:50Z</time><pdop>6.0</pdop><geoidheight>50.60</geoidheight><course>58.287148</course><type>1</type></trkpt>
      <trkpt lat="39.23671757386336" lon="-6.092638448553762"><ele>1891</ele><speed>12.17</speed><time>2016-07-09T13:16:52Z</time><pdop>8.0</pdop><geoidheight>50.60</geoidheight><course>58.154945</course><type>1</type></trkpt>
      <trkpt lat="39.23684840766445" lon="-6.092395483349207"><ele>1890</ele><speed>13.47</speed><time>2016-07-09T13:16:54Z</time><pdop>8.0</pdop><geoidheight>50.60</geoidheight><course>54.060596</course><type>1</type></trkpt>
      <trkpt lat="39.236995496483864" lon="-6.09215993708584"><ele>1888</ele><speed>13.68</speed><time>2016-07-09T13:16:56Z</time><pdop>8.0</pdop><geoidheight>50.60</geoidheight><course>51.882618</course><type>1</type></trkpt>
      <trkpt lat="39.237153159387404" lon="-6.091925019262224"><ele>1888</ele><speed>13.29</speed><time>2016-07-09T13:16:58Z</time><pdop>8.0</pdop><geoidheight>50.60</geoidheight><course>50.30327</course><type>1</type></trkpt>
      <trkpt lat="39.23731189820391" lon="-6.091718188799682"><ele>1887</ele><speed>11.94</speed><time>2016-07-09T13:17:00Z</time><pdop>8.0</pdop><geoidheight>50.60</geoidheight><course>46.185005</course><type>1</type></trkpt>
      <trkpt lat="39.23745011366004" lon="-6.091549782002055"><ele>1886</ele><speed>9.14</speed><time>2016-07-09T13:17:03Z</time><pdop>8.0</pdop><geoidheight>50.60</geoidheight><course>45.815247</course><type>1</type></trkpt>
      <trkpt lat="39.23757167023871" lon="-6.0914138763959365"><ele>1886</ele><speed>9.20</speed><time>2016-07-09T13:17:04Z</time><pdop>6.0</pdop><geoidheight>50.60</geoidheight><course>42.72675</course><type>1</type></trkpt>
      <trkpt lat="39.237729459010886" lon="-6.091238357680883"><ele>1885</ele><speed>11.68</speed><time>2016-07-09T13:17:06Z</time><pdop>8.0</pdop><geoidheight>50.60</geoidheight><course>42.7058</course><type>1</type></trkpt>
      <trkpt lat="39.23786448192833" lon="-6.091068270280404"><ele>1885</ele><speed>10.05</speed><time>2016-07-09T13:17:09Z</time><pdop>8.0</pdop><geoidheight>50.60</geoidheight><course>43.291473</course><type>1</type></trkpt>
      <trkpt lat="39.23798620963014" lon="-6.090934510820944"><ele>1884</ele><speed>8.51</speed><time>2016-07-09T13:17:10Z</time><pdop>8.0</pdop><geoidheight>50.60</geoidheight><course>39.841885</course><type>1</type></trkpt>
      <trkpt lat="39.238112418684175" lon="-6.090793407565403"><ele>1882</ele><speed>9.81</speed><time>2016-07-09T13:17:12Z</time><pdop>8.0</pdop><geoidheight>50.60</geoidheight><course>43.967888</course><type>1</type></trkpt>
      <trkpt lat="39.23823599824428" lon="-6.090620342290392"><ele>1879</ele><speed>10.70</speed><time>2016-07-09T13:17:14Z</time><pdop>8.0</pdop><geoidheight>50.60</geoidheight><course>45.615604</course><type>1</type></trkpt>
      <trkpt lat="39.23838307283463" lon="-6.090487195993196"><ele>1876</ele><speed>10.23</speed><time>2016-07-09T13:17:16Z</time><pdop>8.0</pdop><geoidheight>50.60</geoidheight><course>28.877502</course><type>1</type></trkpt>
      <trkpt lat="39.23853451440307" lon="-6.090378710137861"><ele>1873</ele><speed>10.32</speed><time>2016-07-09T13:17:18Z</time><pdop>8.0</pdop><geoidheight>50.60</geoidheight><course>30.738287</course><type>1</type></trkpt>
      <trkpt lat="39.23867758410715" lon="-6.090264564708838"><ele>1869</ele><speed>10.06</speed><time>2016-07-09T13:17:21Z</time><pdop>8.0</pdop><geoidheight>50.60</geoidheight><course>32.715214</course><type>1</type></trkpt>
      <trkpt lat="39.23882734063002" lon="-6.090151777889718"><ele>1865</ele><speed>9.71</speed><time>2016-07-09T13:17:22Z</time><pdop>6.0</pdop><geoidheight>50.60</geoidheight><course>29.560637</course><type>1</type></trkpt>
      <trkpt lat="39.23899313377487" lon="-6.09004956527683"><ele>1862</ele><speed>10.18</speed><time>2016-07-09T13:17:24Z</time><pdop>6.0</pdop><geoidheight>50.60</geoidheight><course>26.104187</course><type>1</type></trkpt>
      <trkpt lat="39.23915897313285" lon="-6.08995457570609"><ele>1858</ele><speed>10.12</speed><time>2016-07-09T13:17:26Z</time><pdop>6.0</pdop><geoidheight>50.60</geoidheight><course>26.03721</course><type>1</type></trkpt>
      <trkpt lat="39.23932281226214" lon="-6.089851626271397"><ele>1854</ele><speed>9.02</speed><time>2016-07-09T13:17:28Z</time><pdop>6.0</pdop><geoidheight>50.60</geoidheight><course>29.21441</course><type>1</type></trkpt>
      <trkpt lat="39.23947059965715" lon="-6.08974953544152"><ele>1849</ele><speed>9.04</speed><time>2016-07-09T13:17:30Z</time><pdop>6.0</pdop><geoidheight>50.60</geoidheight><course>30.954372</course><type>1</type></trkpt>
      <trkpt lat="39.2396046734125" lon="-6.089642143844645"><ele>1845</ele><speed>8.96</speed><time>2016-07-09T13:17:32Z</time><pdop>6.0</pdop><geoidheight>50.60</geoidheight><course>33.727245</course><type>1</type></trkpt>
      <trkpt lat="39.23971312842186" lon="-6.089526558276841"><ele>1842</ele><speed>7.40</speed><time>2016-07-09T13:17:34Z</time><pdop>6.0</pdop><geoidheight>50.60</geoidheight><course>39.773563</course><type>1</type></trkpt>
      <trkpt lat="39.23981039554759" lon="-6.089402280900841"><ele>1839</ele><speed>7.91</speed><time>2016-07-09T13:17:36Z</time><pdop>6.0</pdop><geoidheight>50.60</geoidheight><course>43.003384</course><type>1</type></trkpt>
      <trkpt lat="39.23990774198417" lon="-6.089271395867615"><ele>1836</ele><speed>8.12</speed><time>2016-07-09T13:17:39Z</time><pdop>6.0</pdop><geoidheight>50.60</geoidheight><course>42.603855</course><type>1</type></trkpt>
      <trkpt lat="39.240010093999764" lon="-6.089145213499556"><ele>1833</ele><speed>7.99</speed><time>2016-07-09T13:17:40Z</time><pdop>6.0</pdop><geoidheight>50.60</geoidheight><course>41.58048</course><type>1</type></trkpt>
      <trkpt lat="39.24011325285319" lon="-6.08901704713759"><ele>1830</ele><speed>7.95</speed><time>2016-07-09T13:17:42Z</time><pdop>6.0</pdop><geoidheight>50.60</geoidheight><course>42.738857</course><type>1</type></trkpt>
      <trkpt lat="39.24021770599941" lon="-6.088880763325461"><ele>1828</ele><speed>8.31</speed><time>2016-07-09T13:17:44Z</time><pdop>6.0</pdop><geoidheight>50.60</geoidheight><course>44.799847</course><type>1</type></trkpt>
      <trkpt lat="39.24031403954054" lon="-6.08873430379015"><ele>1825</ele><speed>8.10</speed><time>2016-07-09T13:17:46Z</time><pdop>6.0</pdop><geoidheight>50.60</geoidheight><course>48.71163</course><type>1</type></trkpt>
      <trkpt lat="39.24039746420749" lon="-6.08859885431699"><ele>1823</ele><speed>7.17</speed><time>2016-07-09T13:17:48Z</time><pdop>6.0</pdop><geoidheight>50.60</geoidheight><course>50.468613</course><type>1</type></trkpt>
      <trkpt lat="39.24048917905287" lon="-6.088438300818171"><ele>1820</ele><speed>9.00</speed><time>2016-07-09T13:17:50Z</time><pdop>6.0</pdop><geoidheight>50.60</geoidheight><course>53.160835</course><type>1</type></trkpt>
      <trkpt lat="39.24059377761962" lon="-6.088263020848172"><ele>1816</ele><speed>9.32</speed><time>2016-07-09T13:17:52Z</time><pdop>6.0</pdop><geoidheight>50.60</geoidheight><course>50.764755</course><type>1</type></trkpt>
      <trkpt lat="39.240690870755685" lon="-6.088130269511825"><ele>1814</ele><speed>7.62</speed><time>2016-07-09T13:17:54Z</time><pdop>6.0</pdop><geoidheight>50.60</geoidheight><course>46.5767</course><type>1</type></trkpt>
      <trkpt lat="39.24079628236514" lon="-6.088000813417603"><ele>1811</ele><speed>8.69</speed><time>2016-07-09T13:17:56Z</time><pdop>6.0</pdop><geoidheight>50.60</geoidheight><course>45.06922</course><type>1</type></trkpt>
      <trkpt lat="39.24092118163276" lon="-6.087846044385625"><ele>1808</ele><speed>9.59</speed><time>2016-07-09T13:17:58Z</time><pdop>6.0</pdop><geoidheight>50.60</geoidheight><course>44.687164</course><type>1</type></trkpt>
      <trkpt lat="39.24103919636385" lon="-6.087722765960818"><ele>1805</ele><speed>8.07</speed><time>2016-07-09T13:18:00Z</time><pdop>6.0</pdop><geoidheight>50.60</geoidheight><course>40.053246</course><type>1</type></trkpt>
      <trkpt lat="39.24115640246677" lon="-6.087610108953603"><ele>1803</ele><speed>8.40</speed><time>2016-07-09T13:18:02Z</time><pdop>6.0</pdop><geoidheight>50.60</geoidheight><course>39.40452</course><type>1</type></trkpt>
      <trkpt lat="39.24128055716912" lon="-6.087475282019028"><ele>1800</ele><speed>9.27</speed><time>2016-07-09T13:18:04Z</time><pdop>6.0</pdop><geoidheight>50.60</geoidheight><course>41.738777</course><type>1</type></trkpt>
      <trkpt lat="39.24139793610733" lon="-6.087354139300591"><ele>1798</ele><speed>8.29</speed><time>2016-07-09T13:18:06Z</time><pdop>6.0</pdop><geoidheight>50.60</geoidheight><course>37.82842</course><type>1</type></trkpt>
      <trkpt lat="39.2415096576618" lon="-6.087242908876181"><ele>1796</ele><speed>8.14</speed><time>2016-07-09T13:18:08Z</time><pdop>6.0</pdop><geoidheight>50.60</geoidheight><course>40.288555</course><type>1</type></trkpt>
      <trkpt lat="39.2416245665056" lon="-6.087098660505981"><ele>1793</ele><speed>9.12</speed><time>2016-07-09T13:18:11Z</time><pdop>6.0</pdop><geoidheight>50.60</geoidheight><course>44.961926</course><type>1</type></trkpt>
      <trkpt lat="39.24172367761868" lon="-6.086956935905365"><ele>1791</ele><speed>7.80</speed><time>2016-07-09T13:18:12Z</time><pdop>6.0</pdop><geoidheight>50.60</geoidheight><course>49.90982</course><type>1</type></trkpt>
      <trkpt lat="39.24179643353656" lon="-6.086823685506742"><ele>1790</ele><speed>6.85</speed><time>2016-07-09T13:18:14Z</time><pdop>6.0</pdop><geoidheight>50.60</geoidheight><course>53.84955</course><type>1</type></trkpt>
      <trkpt lat="39.24188024617065" lon="-6.086677193673832"><ele>1788</ele><speed>8.10</speed><time>2016-07-09T13:18:16Z</time><pdop>6.0</pdop><geoidheight>50.60</geoidheight><course>51.467617</course><type>1</type></trkpt>
      <trkpt lat="39.24195349196005" lon="-6.0865294986147855"><ele>1787</ele><speed>7.15</speed><time>2016-07-09T13:18:18Z</time><pdop>6.0</pdop><geoidheight>50.60</geoidheight><course>57.301647</course><type>1</type></trkpt>
      <trkpt lat="39.242009880042914" lon="-6.086400061416504"><ele>1786</ele><speed>6.39</speed><time>2016-07-09T13:18:20Z</time><pdop>6.0</pdop><geoidheight>50.60</geoidheight><course>57.22244</course><type>1</type></trkpt>
      <trkpt lat="39.242075846180114" lon="-6.08625802670657"><ele>1785</ele><speed>7.60</speed><time>2016-07-09T13:18:22Z</time><pdop>8.0</pdop><geoidheight>50.60</geoidheight><course>57.64319</course><type>1</type></trkpt>
      <trkpt lat="39.24215203185207" lon="-6.086088732633148"><ele>1784</ele><speed>8.57</speed><time>2016-07-09T13:18:24Z</time><pdop>8.0</pdop><geoidheight>50.60</geoidheight><course>59.3399</course><type>1</type></trkpt>
      <trkpt lat="39.242260401317644" lon="-6.085861680256364"><ele>1783</ele><speed>7.67</speed><time>2016-07-09T13:18:27Z</time><pdop>8.0</pdop><geoidheight>50.60</geoidheight><course>56.8946</course><type>1</type></trkpt>
      <trkpt lat="39.2423451658875" lon="-6.085701545188792"><ele>1783</ele><speed>8.52</speed><time>2016-07-09T13:18:29Z</time><pdop>8.0</pdop><geoidheight>50.60</geoidheight><course>55.58423</course><type>1</type></trkpt>
      <trkpt lat="39.24243736702604" lon="-6.085546027581625"><ele>1783</ele><speed>8.07</speed><time>2016-07-09T13:18:31Z</time><pdop>8.0</pdop><geoidheight>50.60</geoidheight><course>53.104008</course><type>1</type></trkpt>
      <trkpt lat="39.24257477185293" lon="-6.085336744759154"><ele>1785</ele><speed>7.72</speed><time>2016-07-09T13:18:34Z</time><pdop>6.0</pdop><geoidheight>50.60</geoidheight><course>50.798134</course><type>1</type></trkpt>
      <trkpt lat="39.24266812793682" lon="-6.085183702105899"><ele>1786</ele><speed>8.64</speed><time>2016-07-09T13:18:36Z</time><pdop>6.0</pdop><geoidheight>50.60</geoidheight><course>53.504627</course><type>1</type></trkpt>
      <trkpt lat="39.24275463260256" lon="-6.085022590728679"><ele>1787</ele><speed>8.36</speed><time>2016-07-09T13:18:38Z</time><pdop>6.0</pdop><geoidheight>50.60</geoidheight><course>53.924023</course><type>1</type></trkpt>
      <trkpt lat="39.24282669248939" lon="-6.084880321358567"><ele>1788</ele><speed>7.10</speed><time>2016-07-09T13:18:41Z</time><pdop>6.0</pdop><geoidheight>50.60</geoidheight><course>58.049168</course><type>1</type></trkpt>
      <trkpt lat="39.242877749858835" lon="-6.084752994029459"><ele>1790</ele><speed>6.00</speed><time>2016-07-09T13:18:42Z</time><pdop>6.0</pdop><geoidheight>50.60</geoidheight><course>60.509052</course><type>1</type></trkpt>
      <trkpt lat="39.242906919582595" lon="-6.084596026882567"><ele>1794</ele><speed>4.20</speed><time>2016-07-09T13:18:45Z</time><pdop>6.0</pdop><geoidheight>50.60</geoidheight><course>80.892685</course><type>1</type></trkpt>
      <trkpt lat="39.242813921110915" lon="-6.084461224681239"><ele>1798</ele><speed>6.89</speed><time>2016-07-09T13:18:48Z</time><pdop>6.0</pdop><geoidheight>50.60</geoidheight><course>161.45084</course><type>1</type></trkpt>
      <trkpt lat="39.2426405363443" lon="-6.08454292157264"><ele>1800</ele><speed>12.31</speed><time>2016-07-09T13:18:51Z</time><pdop>6.0</pdop><geoidheight>50.60</geoidheight><course>211.76701</course><type>1</type></trkpt>
      <trkpt lat="39.242570096805956" lon="-6.084656314007732"><ele>1800</ele><speed>13.84</speed><time>2016-07-09T13:18:52Z</time><pdop>6.0</pdop><geoidheight>50.60</geoidheight><course>237.54979</course><type>1</type></trkpt>
      <trkpt lat="39.24254622659939" lon="-6.084800706184101"><ele>1801</ele><speed>13.57</speed><time>2016-07-09T13:18:53Z</time><pdop>6.0</pdop><geoidheight>50.60</geoidheight><course>261.98886</course><type>1</type></trkpt>
      <trkpt lat="39.24255252105338" lon="-6.084948815960893"><ele>1802</ele><speed>13.23</speed><time>2016-07-09T13:18:54Z</time><pdop>6.0</pdop><geoidheight>50.60</geoidheight><course>278.7793</course><type>1</type></trkpt>
      <trkpt lat="39.24256078772128" lon="-6.085133017328758"><ele>1803</ele><speed>13.23</speed><time>2016-07-09T13:18:54Z</time><pdop>6.0</pdop><geoidheight>50.60</geoidheight><course>278.7793</course><type>1</type></trkpt>
      <trkpt lat="39.242636387776344" lon="-6.08524585905712"><ele>1803</ele><speed>13.04</speed><time>2016-07-09T13:18:55Z</time><pdop>6.0</pdop><geoidheight>50.60</geoidheight><course>312.24402</course><type>1</type></trkpt>
      <trkpt lat="39.242797429119705" lon="-6.0853794368446055"><ele>1804</ele><speed>10.41</speed><time>2016-07-09T13:18:58Z</time><pdop>8.0</pdop><geoidheight>50.60</geoidheight><course>331.16382</course><type>1</type></trkpt>
      <trkpt lat="39.24297390907583" lon="-6.085395178040709"><ele>1805</ele><speed>10.09</speed><time>2016-07-09T13:18:59Z</time><pdop>6.0</pdop><geoidheight>50.60</geoidheight><course>351.45447</course><type>1</type></trkpt>
      <trkpt lat="39.24314171485873" lon="-6.085381707606898"><ele>1808</ele><speed>9.01</speed><time>2016-07-09T13:19:01Z</time><pdop>6.0</pdop><geoidheight>50.60</geoidheight><course>359.26266</course><type>1</type></trkpt>
      <trkpt lat="39.243290431936465" lon="-6.08532065625906"><ele>1809</ele><speed>7.95</speed><time>2016-07-09T13:19:03Z</time><pdop>6.0</pdop><geoidheight>50.60</geoidheight><course>16.62674</course><type>1</type></trkpt>
      <trkpt lat="39.243420219842186" lon="-6.085250802996477"><ele>1810</ele><speed>7.20</speed><time>2016-07-09T13:19:06Z</time><pdop>8.0</pdop><geoidheight>50.60</geoidheight><course>22.77651</course><type>1</type></trkpt>
      <trkpt lat="39.24354217559673" lon="-6.08517016540705"><ele>1812</ele><speed>7.07</speed><time>2016-07-09T13:19:07Z</time><pdop>6.0</pdop><geoidheight>50.60</geoidheight><course>27.963575</course><type>1</type></trkpt>
      <trkpt lat="39.24363848453635" lon="-6.08505245056286"><ele>1812</ele><speed>6.24</speed><time>2016-07-09T13:19:09Z</time><pdop>6.0</pdop><geoidheight>50.60</geoidheight><course>46.28994</course><type>1</type></trkpt>
      <trkpt lat="39.24364592852614" lon="-6.084876566843919"><ele>1814</ele><speed>5.09</speed><time>2016-07-09T13:19:12Z</time><pdop>8.0</pdop><geoidheight>50.60</geoidheight><course>116.65184</course><type>1</type></trkpt>
      <trkpt lat="39.24349749142567" lon="-6.084773141072649"><ele>1814</ele><speed>7.84</speed><time>2016-07-09T13:19:16Z</time><pdop>6.0</pdop><geoidheight>50.60</geoidheight><course>164.77936</course><type>1</type></trkpt>
      <trkpt lat="39.243366999952556" lon="-6.084762161916501"><ele>1815</ele><speed>7.54</speed><time>2016-07-09T13:19:17Z</time><pdop>8.0</pdop><geoidheight>50.60</geoidheight><course>178.03136</course><type>1</type></trkpt>
      <trkpt lat="39.24320777134265" lon="-6.084707577579883"><ele>1816</ele><speed>5.75</speed><time>2016-07-09T13:19:20Z</time><pdop>8.0</pdop><geoidheight>50.60</geoidheight><course>159.72354</course><type>1</type></trkpt>
      <trkpt lat="39.243019359693974" lon="-6.084595914022879"><ele>1815</ele><speed>5.52</speed><time>2016-07-09T13:19:25Z</time><pdop>6.0</pdop><geoidheight>50.60</geoidheight><course>152.01462</course><type>1</type></trkpt>
      <trkpt lat="39.24291718509433" lon="-6.084455258182946"><ele>1813</ele><speed>5.90</speed><time>2016-07-09T13:19:27Z</time><pdop>6.0</pdop><geoidheight>50.60</geoidheight><course>124.55393</course><type>1</type></trkpt>
      <trkpt lat="39.24284644721744" lon="-6.0843465441673406"><ele>1811</ele><speed>6.29</speed><time>2016-07-09T13:19:29Z</time><pdop>6.0</pdop><geoidheight>50.60</geoidheight><course>130.11266</course><type>1</type></trkpt>
      <trkpt lat="39.24273000844759" lon="-6.084206039965597"><ele>1810</ele><speed>4.16</speed><time>2016-07-09T13:19:33Z</time><pdop>6.0</pdop><geoidheight>50.60</geoidheight><course>145.20139</course><type>1</type></trkpt>
      <trkpt lat="39.24258672648297" lon="-6.084134831568442"><ele>1811</ele><speed>6.71</speed><time>2016-07-09T13:19:36Z</time><pdop>6.0</pdop><geoidheight>50.60</geoidheight><course>164.40947</course><type>1</type></trkpt>
      <trkpt lat="39.24246059417019" lon="-6.084105453816646"><ele>1811</ele><speed>7.39</speed><time>2016-07-09T13:19:38Z</time><pdop>6.0</pdop><geoidheight>50.60</geoidheight><course>170.81895</course><type>1</type></trkpt>
      <trkpt lat="39.242282079130874" lon="-6.084071638697707"><ele>1811</ele><speed>6.65</speed><time>2016-07-09T13:19:41Z</time><pdop>8.0</pdop><geoidheight>50.60</geoidheight><course>168.63757</course><type>1</type></trkpt>
      <trkpt lat="39.24212012763149" lon="-6.084001109602874"><ele>1812</ele><speed>5.84</speed><time>2016-07-09T13:19:44Z</time><pdop>6.0</pdop><geoidheight>50.60</geoidheight><course>158.86855</course><type>1</type></trkpt>
      <trkpt lat="39.241942171269784" lon="-6.083854309983459"><ele>1813</ele><speed>5.98</speed><time>2016-07-09T13:19:48Z</time><pdop>6.0</pdop><geoidheight>50.60</geoidheight><course>150.17772</course><type>1</type></trkpt>
      <trkpt lat="39.24178221350592" lon="-6.083784272214831"><ele>1812</ele><speed>6.35</speed><time>2016-07-09T13:19:51Z</time><pdop>8.0</pdop><geoidheight>50.60</geoidheight><course>170.3577</course><type>1</type></trkpt>
      <trkpt lat="39.24156956932174" lon="-6.083899126247111"><ele>1811</ele><speed>10.80</speed><time>2016-07-09T13:19:54Z</time><pdop>6.0</pdop><geoidheight>50.60</geoidheight><course>215.68024</course><type>1</type></trkpt>
      <trkpt lat="39.24142486578735" lon="-6.084115897125384"><ele>1810</ele><speed>13.99</speed><time>2016-07-09T13:19:56Z</time><pdop>6.0</pdop><geoidheight>50.60</geoidheight><course>241.3655</course><type>1</type></trkpt>
      <trkpt lat="39.24136598220473" lon="-6.084262176210242"><ele>1810</ele><speed>15.32</speed><time>2016-07-09T13:19:58Z</time><pdop>6.0</pdop><geoidheight>50.60</geoidheight><course>245.09216</course><type>1</type></trkpt>
      <trkpt lat="39.24137536293297" lon="-6.0844294530634375"><ele>1809</ele><speed>15.23</speed><time>2016-07-09T13:19:59Z</time><pdop>6.0</pdop><geoidheight>50.60</geoidheight><course>275.2619</course><type>1</type></trkpt>
      <trkpt lat="39.241412323156595" lon="-6.084583570317788"><ele>1810</ele><speed>14.70</speed><time>2016-07-09T13:20:00Z</time><pdop>6.0</pdop><geoidheight>50.60</geoidheight><course>291.16632</course><type>1</type></trkpt>
      <trkpt lat="39.24150599083519" lon="-6.084861351736614"><ele>1812</ele><speed>12.70</speed><time>2016-07-09T13:20:01Z</time><pdop>8.0</pdop><geoidheight>50.60</geoidheight><course>298.75143</course><type>1</type></trkpt>
      <trkpt lat="39.24162152650418" lon="-6.08510155240675"><ele>1814</ele><speed>12.04</speed><time>2016-07-09T13:20:03Z</time><pdop>8.0</pdop><geoidheight>50.60</geoidheight><course>303.19394</course><type>1</type></trkpt>
      <trkpt lat="39.24181700327135" lon="-6.085288683051771"><ele>1814</ele><speed>13.57</speed><time>2016-07-09T13:20:06Z</time><pdop>16.0</pdop><geoidheight>50.60</geoidheight><course>330.75412</course><type>1</type></trkpt>
      <trkpt lat="39.24202210320654" lon="-6.085418991258387"><ele>1813</ele><speed>11.78</speed><time>2016-07-09T13:20:07Z</time><pdop>8.0</pdop><geoidheight>50.60</geoidheight><course>334.21426</course><type>1</type></trkpt>
      <trkpt lat="39.242203854035075" lon="-6.085531837173612"><ele>1812</ele><speed>10.28</speed><time>2016-07-09T13:20:09Z</time><pdop>8.0</pdop><geoidheight>50.60</geoidheight><course>331.00687</course><type>1</type></trkpt>
      <trkpt lat="39.24238875854011" lon="-6.085600816931165"><ele>1810</ele><speed>11.31</speed><time>2016-07-09T13:20:11Z</time><pdop>8.0</pdop><geoidheight>50.60</geoidheight><course>350.64478</course><type>1</type></trkpt>
      <trkpt lat="39.2426330600081" lon="-6.085621247086484"><ele>1807</ele><speed>14.05</speed><time>2016-07-09T13:20:13Z</time><pdop>12.0</pdop><geoidheight>50.60</geoidheight><course>353.65405</course><type>1</type></trkpt>
      <trkpt lat="39.242825847372565" lon="-6.085645375552101"><ele>1805</ele><speed>8.72</speed><time>2016-07-09T13:20:15Z</time><pdop>6.0</pdop><geoidheight>50.60</geoidheight><course>352.6983</course><type>1</type></trkpt>
      <trkpt lat="39.2429827191313" lon="-6.08565822020097"><ele>1806</ele><speed>8.40</speed><time>2016-07-09T13:20:17Z</time><pdop>6.0</pdop><geoidheight>50.60</geoidheight><course>355.7507</course><type>1</type></trkpt>
      <trkpt lat="39.243167124405154" lon="-6.08560731461154"><ele>1808</ele><speed>10.75</speed><time>2016-07-09T13:20:19Z</time><pdop>8.0</pdop><geoidheight>50.60</geoidheight><course>14.942307</course><type>1</type></trkpt>
      <trkpt lat="39.24331223532874" lon="-6.085506045018731"><ele>1809</ele><speed>8.28</speed><time>2016-07-09T13:20:21Z</time><pdop>6.0</pdop><geoidheight>50.60</geoidheight><course>32.625984</course><type>1</type></trkpt>
      <trkpt lat="39.24346498131612" lon="-6.085377825112305"><ele>1810</ele><speed>5.90</speed><time>2016-07-09T13:20:25Z</time><pdop>8.0</pdop><geoidheight>50.60</geoidheight><course>37.250732</course><type>1</type></trkpt>
      <trkpt lat="39.24349887626316" lon="-6.085109595137852"><ele>1814</ele><speed>4.98</speed><time>2016-07-09T13:20:29Z</time><pdop>12.0</pdop><geoidheight>50.60</geoidheight><course>122.25898</course><type>1</type></trkpt>
      <trkpt lat="39.24320433304216" lon="-6.085135834794059"><ele>1817</ele><speed>9.83</speed><time>2016-07-09T13:20:34Z</time><pdop>6.0</pdop><geoidheight>50.60</geoidheight><course>205.00462</course><type>1</type></trkpt>
      <trkpt lat="39.24307972862746" lon="-6.0853305188375355"><ele>1819</ele><speed>12.64</speed><time>2016-07-09T13:20:36Z</time><pdop>6.0</pdop><geoidheight>50.60</geoidheight><course>243.82326</course><type>1</type></trkpt>
      <trkpt lat="39.24305788589681" lon="-6.0854792062613035"><ele>1820</ele><speed>14.22</speed><time>2016-07-09T13:20:37Z</time><pdop>6.0</pdop><geoidheight>50.60</geoidheight><course>262.86053</course><type>1</type></trkpt>
      <trkpt lat="39.24307402037451" lon="-6.085644982467091"><ele>1821</ele><speed>15.32</speed><time>2016-07-09T13:20:38Z</time><pdop>8.0</pdop><geoidheight>50.60</geoidheight><course>278.28412</course><type>1</type></trkpt>
      <trkpt lat="39.243189761855554" lon="-6.0859294916928075"><ele>1822</ele><speed>13.18</speed><time>2016-07-09T13:20:40Z</time><pdop>8.0</pdop><geoidheight>50.60</geoidheight><course>300.09055</course><type>1</type></trkpt>
      <trkpt lat="39.24330604705264" lon="-6.086150457079559"><ele>1824</ele><speed>11.44</speed><time>2016-07-09T13:20:43Z</time><pdop>12.0</pdop><geoidheight>50.60</geoidheight><course>304.72733</course><type>1</type></trkpt>
      <trkpt lat="39.24349910743439" lon="-6.086424972732755"><ele>1827</ele><speed>9.23</speed><time>2016-07-09T13:20:45Z</time><pdop>12.0</pdop><geoidheight>50.60</geoidheight><course>312.0135</course><type>1</type></trkpt>
      <trkpt lat="39.24371843093493" lon="-6.086403636504303"><ele>1826</ele><speed>10.36</speed><time>2016-07-09T13:20:47Z</time><pdop>8.0</pdop><geoidheight>50.60</geoidheight><course>357.45483</course><type>1</type></trkpt>
      <trkpt lat="39.243898090590726" lon="-6.086380844422016"><ele>1824</ele><speed>8.63</speed><time>2016-07-09T13:20:50Z</time><pdop>8.0</pdop><geoidheight>50.60</geoidheight><course>0.89167637</course><type>1</type></trkpt>
      <trkpt lat="39.24407494846939" lon="-6.086289090853342"><ele>1823</ele><speed>10.14</speed><time>2016-07-09T13:20:51Z</time><pdop>8.0</pdop><geoidheight>50.60</geoidheight><course>21.88602</course><type>1</type></trkpt>
      <trkpt lat="39.24424297843949" lon="-6.086209638612037"><ele>1823</ele><speed>8.24</speed><time>2016-07-09T13:20:53Z</time><pdop>6.0</pdop><geoidheight>50.60</geoidheight><course>18.120668</course><type>1</type></trkpt>
      <trkpt lat="39.244445307897685" lon="-6.086133893613749"><ele>1826</ele><speed>7.71</speed><time>2016-07-09T13:20:56Z</time><pdop>8.0</pdop><geoidheight>50.60</geoidheight><course>20.36665</course><type>1</type></trkpt>
      <trkpt lat="39.24457990073703" lon="-6.086047730064813"><ele>1827</ele><speed>7.43</speed><time>2016-07-09T13:20:58Z</time><pdop>8.0</pdop><geoidheight>50.60</geoidheight><course>27.143381</course><type>1</type></trkpt>
      <trkpt lat="39.244677090540726" lon="-6.0859142298295525"><ele>1829</ele><speed>4.15</speed><time>2016-07-09T13:21:01Z</time><pdop>6.0</pdop><geoidheight>50.60</geoidheight><course>67.124855</course><type>1</type></trkpt>
      <trkpt lat="39.24467755147898" lon="-6.085767775831571"><ele>1829</ele><speed>3.33</speed><time>2016-07-09T13:21:05Z</time><pdop>6.0</pdop><geoidheight>50.60</geoidheight><course>153.19958</course><type>1</type></trkpt>
      <trkpt lat="39.24449435567038" lon="-6.08584870206294"><ele>1832</ele><speed>11.56</speed><time>2016-07-09T13:21:08Z</time><pdop>12.0</pdop><geoidheight>50.60</geoidheight><course>215.81804</course><type>1</type></trkpt>
      <trkpt lat="39.24438179487097" lon="-6.0860823524803385"><ele>1834</ele><speed>13.39</speed><time>2016-07-09T13:21:10Z</time><pdop>8.0</pdop><geoidheight>50.60</geoidheight><course>241.34743</course><type>1</type></trkpt>
      <trkpt lat="39.244411667494674" lon="-6.086399686252774"><ele>1835</ele><speed>14.21</speed><time>2016-07-09T13:21:12Z</time><pdop>8.0</pdop><geoidheight>50.60</geoidheight><course>283.50165</course><type>1</type></trkpt>
      <trkpt lat="39.24452493928682" lon="-6.086659302809786"><ele>1837</ele><speed>12.48</speed><time>2016-07-09T13:21:15Z</time><pdop>8.0</pdop><geoidheight>50.60</geoidheight><course>314.5923</course><type>1</type></trkpt>
      <trkpt lat="39.24471015522191" lon="-6.086770920285867"><ele>1839</ele><speed>11.71</speed><time>2016-07-09T13:21:16Z</time><pdop>8.0</pdop><geoidheight>50.60</geoidheight><course>347.67218</course><type>1</type></trkpt>
      <trkpt lat="39.244854798542164" lon="-6.086728455040888"><ele>1840</ele><speed>7.89</speed><time>2016-07-09T13:21:18Z</time><pdop>8.0</pdop><geoidheight>50.60</geoidheight><course>33.566727</course><type>1</type></trkpt>
      <trkpt lat="39.24497167177242" lon="-6.086605387937308"><ele>1841</ele><speed>5.70</speed><time>2016-07-09T13:21:22Z</time><pdop>8.0</pdop><geoidheight>50.60</geoidheight><course>33.588585</course><type>1</type></trkpt>
      <trkpt lat="39.24506535746021" lon="-6.086473749189622"><ele>1844</ele><speed>5.05</speed><time>2016-07-09T13:21:24Z</time><pdop>6.0</pdop><geoidheight>50.60</geoidheight><course>62.298813</course><type>1</type></trkpt>
      <trkpt lat="39.24510301332252" lon="-6.086312228795105"><ele>1845</ele><speed>2.82</speed><time>2016-07-09T13:21:28Z</time><pdop>8.0</pdop><geoidheight>50.60</geoidheight><course>107.87122</course><type>1</type></trkpt>
      <trkpt lat="39.245004829908424" lon="-6.086165648170456"><ele>1848</ele><speed>5.48</speed><time>2016-07-09T13:21:32Z</time><pdop>8.0</pdop><geoidheight>50.60</geoidheight><course>157.17744</course><type>1</type></trkpt>
      <trkpt lat="39.244881407426654" lon="-6.086121612493776"><ele>1852</ele><speed>4.40</speed><time>2016-07-09T13:21:35Z</time><pdop>6.0</pdop><geoidheight>50.60</geoidheight><course>169.0847</course><type>1</type></trkpt>
      <trkpt lat="39.24474113222115" lon="-6.08611874876656"><ele>1856</ele><speed>7.18</speed><time>2016-07-09T13:21:39Z</time><pdop>8.0</pdop><geoidheight>50.60</geoidheight><course>194.10078</course><type>1</type></trkpt>
      <trkpt lat="39.244607334162176" lon="-6.086280545770103"><ele>1858</ele><speed>11.67</speed><time>2016-07-09T13:21:40Z</time><pdop>8.0</pdop><geoidheight>50.60</geoidheight><course>228.39792</course><type>1</type></trkpt>
      <trkpt lat="39.24454003634368" lon="-6.08651581465993"><ele>1861</ele><speed>15.57</speed><time>2016-07-09T13:21:43Z</time><pdop>12.0</pdop><geoidheight>50.60</geoidheight><course>269.60858</course><type>1</type></trkpt>
      <trkpt lat="39.244648633923745" lon="-6.086851446194786"><ele>1864</ele><speed>15.05</speed><time>2016-07-09T13:21:45Z</time><pdop>12.0</pdop><geoidheight>50.60</geoidheight><course>308.37656</course><type>1</type></trkpt>
      <trkpt lat="39.24487476476176" lon="-6.0870324010632455"><ele>1868</ele><speed>8.94</speed><time>2016-07-09T13:21:47Z</time><pdop>12.0</pdop><geoidheight>50.60</geoidheight><course>4.798063</course><type>1</type></trkpt>
      <trkpt lat="39.24474631769696" lon="-6.087326373409625"><ele>1876</ele><speed>15.85</speed><time>2016-07-09T13:21:58Z</time><pdop>8.0</pdop><geoidheight>50.60</geoidheight><course>261.2925</course><type>1</type></trkpt>
      <trkpt lat="39.24476840170465" lon="-6.087673200798603"><ele>1880</ele><speed>14.99</speed><time>2016-07-09T13:22:00Z</time><pdop>8.0</pdop><geoidheight>50.60</geoidheight><course>267.1928</course><type>1</type></trkpt>
      <trkpt lat="39.2449454781868" lon="-6.087900795978546"><ele>1883</ele><speed>12.56</speed><time>2016-07-09T13:22:02Z</time><pdop>16.0</pdop><geoidheight>50.60</geoidheight><course>316.0837</course><type>1</type></trkpt>
      <trkpt lat="39.24524071803321" lon="-6.08804445996947"><ele>1889</ele><speed>9.77</speed><time>2016-07-09T13:22:05Z</time><pdop>12.0</pdop><geoidheight>50.60</geoidheight><course>350.84232</course><type>1</type></trkpt>
      <trkpt lat="39.24545151147356" lon="-6.087978625475365"><ele>1894</ele><speed>6.22</speed><time>2016-07-09T13:22:08Z</time><pdop>8.0</pdop><geoidheight>50.60</geoidheight><course>39.898132</course><type>1</type></trkpt>
      <trkpt lat="39.24529644480468" lon="-6.087976904180807"><ele>1903</ele><speed>12.49</speed><time>2016-07-09T13:22:16Z</time><pdop>6.0</pdop><geoidheight>50.60</geoidheight><course>236.11237</course><type>1</type></trkpt>
      <trkpt lat="39.245253691984615" lon="-6.088119263463346"><ele>1904</ele><speed>14.51</speed><time>2016-07-09T13:22:17Z</time><pdop>6.0</pdop><geoidheight>50.60</geoidheight><course>250.44539</course><type>1</type></trkpt>
      <trkpt lat="39.245242083103406" lon="-6.088282801084873"><ele>1905</ele><speed>15.33</speed><time>2016-07-09T13:22:18Z</time><pdop>6.0</pdop><geoidheight>50.60</geoidheight><course>266.801</course><type>1</type></trkpt>
      <trkpt lat="39.24526362164729" lon="-6.088453966139343"><ele>1906</ele><speed>15.30</speed><time>2016-07-09T13:22:20Z</time><pdop>8.0</pdop><geoidheight>50.60</geoidheight><course>282.2688</course><type>1</type></trkpt>
      <trkpt lat="39.24531390647489" lon="-6.0886129260463004"><ele>1907</ele><speed>15.22</speed><time>2016-07-09T13:22:21Z</time><pdop>6.0</pdop><geoidheight>50.60</geoidheight><course>295.68637</course><type>1</type></trkpt>
      <trkpt lat="39.245368369911894" lon="-6.088762210873654"><ele>1909</ele><speed>14.96</speed><time>2016-07-09T13:22:21Z</time><pdop>8.0</pdop><geoidheight>50.60</geoidheight><course>298.26962</course><type>1</type></trkpt>
      <trkpt lat="39.245511197009776" lon="-6.089003886358838"><ele>1913</ele><speed>13.57</speed><time>2016-07-09T13:22:24Z</time><pdop>12.0</pdop><geoidheight>50.60</geoidheight><course>316.03186</course><type>1</type></trkpt>
      <trkpt lat="39.24569191276854" lon="-6.0891674205627595"><ele>1917</ele><speed>12.64</speed><time>2016-07-09T13:22:26Z</time><pdop>8.0</pdop><geoidheight>50.60</geoidheight><course>333.31143</course><type>1</type></trkpt>
      <trkpt lat="39.2458832853857" lon="-6.089235249709632"><ele>1921</ele><speed>10.09</speed><time>2016-07-09T13:22:27Z</time><pdop>12.0</pdop><geoidheight>50.60</geoidheight><course>356.1828</course><type>1</type></trkpt>
      <trkpt lat="39.24569379774034" lon="-6.089446101452258"><ele>1937</ele><speed>11.37</speed><time>2016-07-09T13:22:36Z</time><pdop>6.0</pdop><geoidheight>50.60</geoidheight><course>212.73341</course><type>1</type></trkpt>
      <trkpt lat="39.24560751453991" lon="-6.089699409045762"><ele>1941</ele><speed>11.94</speed><time>2016-07-09T13:22:38Z</time><pdop>8.0</pdop><geoidheight>50.60</geoidheight><course>249.76337</course><type>1</type></trkpt>
      <trkpt lat="39.245590257215696" lon="-6.090008128255488"><ele>1946</ele><speed>13.61</speed><time>2016-07-09T13:22:40Z</time><pdop>8.0</pdop><geoidheight>50.60</geoidheight><course>275.3689</course><type>1</type></trkpt>
      <trkpt lat="39.24564237346284" lon="-6.0903005499069405"><ele>1950</ele><speed>12.79</speed><time>2016-07-09T13:22:43Z</time><pdop>6.0</pdop><geoidheight>50.60</geoidheight><course>294.81003</course><type>1</type></trkpt>
      <trkpt lat="39.2457831127666" lon="-6.090492766938437"><ele>1955</ele><speed>12.01</speed><time>2016-07-09T13:22:45Z</time><pdop>12.0</pdop><geoidheight>50.60</geoidheight><course>325.99197</course><type>1</type></trkpt>
      <trkpt lat="39.245967146643665" lon="-6.090560197812868"><ele>1958</ele><speed>10.47</speed><time>2016-07-09T13:22:46Z</time><pdop>8.0</pdop><geoidheight>50.60</geoidheight><course>359.79303</course><type>1</type></trkpt>
      <trkpt lat="39.246120468602506" lon="-6.0904720854382335"><ele>1960</ele><speed>4.84</speed><time>2016-07-09T13:22:49Z</time><pdop>8.0</pdop><geoidheight>50.60</geoidheight><course>55.578842</course><type>1</type></trkpt>
      <trkpt lat="39.24593407964971" lon="-6.090513826046324"><ele>1968</ele><speed>8.51</speed><time>2016-07-09T13:22:54Z</time><pdop>8.0</pdop><geoidheight>50.60</geoidheight><course>204.59482</course><type>1</type></trkpt>
      <trkpt lat="39.245748574435844" lon="-6.0906601584515245"><ele>1972</ele><speed>12.45</speed><time>2016-07-09T13:22:56Z</time><pdop>8.0</pdop><geoidheight>50.60</geoidheight><course>212.08662</course><type>1</type></trkpt>
      <trkpt lat="39.245619002358396" lon="-6.090919888149255"><ele>1975</ele><speed>14.03</speed><time>2016-07-09T13:22:58Z</time><pdop>8.0</pdop><geoidheight>50.60</geoidheight><course>248.8919</course><type>1</type></trkpt>
      <trkpt lat="39.24561953770803" lon="-6.091237547223672"><ele>1980</ele><speed>13.72</speed><time>2016-07-09T13:23:00Z</time><pdop>8.0</pdop><geoidheight>50.60</geoidheight><course>283.32037</course><type>1</type></trkpt>
      <trkpt lat="39.24571329312573" lon="-6.091474734853572"><ele>1984</ele><speed>11.20</speed><time>2016-07-09T13:23:03Z</time><pdop>8.0</pdop><geoidheight>50.60</geoidheight><course>316.8273</course><type>1</type></trkpt>
      <trkpt lat="39.24587850389432" lon="-6.091587710911242"><ele>1988</ele><speed>10.38</speed><time>2016-07-09T13:23:05Z</time><pdop>8.0</pdop><geoidheight>50.60</geoidheight><course>345.62732</course><type>1</type></trkpt>
      <trkpt lat="39.24610301627032" lon="-6.091491977461873"><ele>1990</ele><speed>8.33</speed><time>2016-07-09T13:23:07Z</time><pdop>8.0</pdop><geoidheight>50.60</geoidheight><course>43.90701</course><type>1</type></trkpt>
      <trkpt lat="39.24604571472792" lon="-6.091293344687333"><ele>1993</ele><speed>6.06</speed><time>2016-07-09T13:23:11Z</time><pdop>8.0</pdop><geoidheight>50.60</geoidheight><course>133.60994</course><type>1</type></trkpt>
      <trkpt lat="39.245859583234285" lon="-6.091233540461597"><ele>1997</ele><speed>8.15</speed><time>2016-07-09T13:23:14Z</time><pdop>6.0</pdop><geoidheight>50.60</geoidheight><course>169.29716</course><type>1</type></trkpt>
      <trkpt lat="39.24569776469355" lon="-6.091306404404584"><ele>2003</ele><speed>9.87</speed><time>2016-07-09T13:23:16Z</time><pdop>6.0</pdop><geoidheight>50.60</geoidheight><course>203.04926</course><type>1</type></trkpt>
      <trkpt lat="39.24562439777568" lon="-6.091416565082108"><ele>2006</ele><speed>13.23</speed><time>2016-07-09T13:23:17Z</time><pdop>6.0</pdop><geoidheight>50.60</geoidheight><course>233.33742</course><type>1</type></trkpt>
      <trkpt lat="39.24556455944221" lon="-6.0915481571060885"><ele>2009</ele><speed>14.38</speed><time>2016-07-09T13:23:18Z</time><pdop>6.0</pdop><geoidheight>50.60</geoidheight><course>246.59633</course><type>1</type></trkpt>
      <trkpt lat="39.245543787896565" lon="-6.0917082530170665"><ele>2012</ele><speed>15.10</speed><time>2016-07-09T13:23:19Z</time><pdop>6.0</pdop><geoidheight>50.60</geoidheight><course>264.04303</course><type>1</type></trkpt>
      <trkpt lat="39.245565128695056" lon="-6.091853925940335"><ele>2015</ele><speed>14.94</speed><time>2016-07-09T13:23:20Z</time><pdop>6.0</pdop><geoidheight>50.60</geoidheight><course>283.8828</course><type>1</type></trkpt>
      <trkpt lat="39.24571650685868" lon="-6.092044103292967"><ele>2022</ele><speed>11.78</speed><time>2016-07-09T13:23:23Z</time><pdop>8.0</pdop><geoidheight>50.60</geoidheight><course>323.59784</course><type>1</type></trkpt>
      <trkpt lat="39.24586289614133" lon="-6.092040236662002"><ele>2026</ele><speed>7.93</speed><time>2016-07-09T13:23:25Z</time><pdop>8.0</pdop><geoidheight>50.60</geoidheight><course>29.618155</course><type>1</type></trkpt>
      <trkpt lat="39.24578000056857" lon="-6.091838798340697"><ele>2034</ele><speed>5.74</speed><time>2016-07-09T13:23:30Z</time><pdop>6.0</pdop><geoidheight>50.60</geoidheight><course>174.26114</course><type>1</type></trkpt>
      <trkpt lat="39.24564384260521" lon="-6.0918750691158685"><ele>2038</ele><speed>7.86</speed><time>2016-07-09T13:23:32Z</time><pdop>8.0</pdop><geoidheight>50.60</geoidheight><course>193.92967</course><type>1</type></trkpt>
      <trkpt lat="39.24540897893009" lon="-6.092056551866596"><ele>2045</ele><speed>13.52</speed><time>2016-07-09T13:23:35Z</time><pdop>12.0</pdop><geoidheight>50.60</geoidheight><course>226.56018</course><type>1</type></trkpt>
      <trkpt lat="39.24535019730951" lon="-6.092413396946331"><ele>2052</ele><speed>15.30</speed><time>2016-07-09T13:23:39Z</time><pdop>8.0</pdop><geoidheight>50.60</geoidheight><course>287.26147</course><type>1</type></trkpt>
      <trkpt lat="39.24549776943491" lon="-6.092628264434648"><ele>2057</ele><speed>12.85</speed><time>2016-07-09T13:23:40Z</time><pdop>12.0</pdop><geoidheight>50.60</geoidheight><course>327.55075</course><type>1</type></trkpt>
      <trkpt lat="39.24566041872967" lon="-6.092467823636343"><ele>2062</ele><speed>3.08</speed><time>2016-07-09T13:23:45Z</time><pdop>8.0</pdop><geoidheight>50.60</geoidheight><course>132.16719</course><type>1</type></trkpt>
      <trkpt lat="39.245493191312974" lon="-6.0924561269879005"><ele>2072</ele><speed>9.40</speed><time>2016-07-09T13:23:49Z</time><pdop>8.0</pdop><geoidheight>50.60</geoidheight><course>188.68617</course><type>1</type></trkpt>
      <trkpt lat="39.24534748897115" lon="-6.092664612617656"><ele>2079</ele><speed>13.86</speed><time>2016-07-09T13:23:51Z</time><pdop>12.0</pdop><geoidheight>50.60</geoidheight><course>242.25436</course><type>1</type></trkpt>
      <trkpt lat="39.2454301740258" lon="-6.092976547221727"><ele>2084</ele><speed>15.38</speed><time>2016-07-09T13:23:53Z</time><pdop>12.0</pdop><geoidheight>50.60</geoidheight><course>306.5503</course><type>1</type></trkpt>
      <trkpt lat="39.24565842436961" lon="-6.093196710070018"><ele>2090</ele><speed>9.33</speed><time>2016-07-09T13:23:56Z</time><pdop>12.0</pdop><geoidheight>50.60</geoidheight><course>341.36646</course><type>1</type></trkpt>
      <trkpt lat="39.24583506309011" lon="-6.093113603909314"><ele>2100</ele><speed>5.57</speed><time>2016-07-09T13:24:01Z</time><pdop>8.0</pdop><geoidheight>50.60</geoidheight><course>54.586346</course><type>1</type></trkpt>
      <trkpt lat="39.24556330444707" lon="-6.093078152066943"><ele>2119</ele><speed>15.12</speed><time>2016-07-09T13:24:13Z</time><pdop>16.0</pdop><geoidheight>50.60</geoidheight><course>218.48495</course><type>1</type></trkpt>
      <trkpt lat="39.24550632068528" lon="-6.093466370843132"><ele>2127</ele><speed>10.96</speed><time>2016-07-09T13:24:15Z</time><pdop>12.0</pdop><geoidheight>50.60</geoidheight><course>284.82483</course><type>1</type></trkpt>
      <trkpt lat="39.24561394429682" lon="-6.093799306291791"><ele>2137</ele><speed>12.07</speed><time>2016-07-09T13:24:19Z</time><pdop>12.0</pdop><geoidheight>50.60</geoidheight><course>309.32352</course><type>1</type></trkpt>
      <trkpt lat="39.245777704560155" lon="-6.093958755669649"><ele>2143</ele><speed>9.97</speed><time>2016-07-09T13:24:20Z</time><pdop>8.0</pdop><geoidheight>50.60</geoidheight><course>336.924</course><type>1</type></trkpt>
      <trkpt lat="39.24592457731184" lon="-6.094011219530483"><ele>2152</ele><speed>4.92</speed><time>2016-07-09T13:24:22Z</time><pdop>8.0</pdop><geoidheight>50.60</geoidheight><course>353.21735</course><type>1</type></trkpt>
      <trkpt lat="39.24571299789379" lon="-6.0939760730927315"><ele>2167</ele><speed>11.03</speed><time>2016-07-09T13:24:29Z</time><pdop>8.0</pdop><geoidheight>50.60</geoidheight><course>208.55354</course><type>1</type></trkpt>
      <trkpt lat="39.245571272810096" lon="-6.0941834570448625"><ele>2172</ele><speed>13.37</speed><time>2016-07-09T13:24:31Z</time><pdop>8.0</pdop><geoidheight>50.60</geoidheight><course>242.54617</course><type>1</type></trkpt>
      <trkpt lat="39.245540478426626" lon="-6.094465329995127"><ele>2177</ele><speed>13.00</speed><time>2016-07-09T13:24:33Z</time><pdop>8.0</pdop><geoidheight>50.60</geoidheight><course>275.30588</course><type>1</type></trkpt>
      <trkpt lat="39.24557790564155" lon="-6.094720757032658"><ele>2183</ele><speed>11.35</speed><time>2016-07-09T13:24:35Z</time><pdop>6.0</pdop><geoidheight>50.60</geoidheight><course>293.12546</course><type>1</type></trkpt>
      <trkpt lat="39.24565232491682" lon="-6.0949496949039705"><ele>2188</ele><speed>10.21</speed><time>2016-07-09T13:24:37Z</time><pdop>6.0</pdop><geoidheight>50.60</geoidheight><course>297.84186</course><type>1</type></trkpt>
      <trkpt lat="39.24577351221" lon="-6.0950620754168945"><ele>2193</ele><speed>7.42</speed><time>2016-07-09T13:24:40Z</time><pdop>8.0</pdop><geoidheight>50.60</geoidheight><course>342.89294</course><type>1</type></trkpt>
      <trkpt lat="39.24584351889428" lon="-6.0948887230835425"><ele>2201</ele><speed>7.22</speed><time>2016-07-09T13:24:43Z</time><pdop>8.0</pdop><geoidheight>50.60</geoidheight><course>128.9489</course><type>1</type></trkpt>
      <trkpt lat="39.24563727495626" lon="-6.094880961449612"><ele>2206</ele><speed>11.35</speed><time>2016-07-09T13:24:46Z</time><pdop>6.0</pdop><geoidheight>50.60</geoidheight><course>196.71057</course><type>1</type></trkpt>
      <trkpt lat="39.24542762070143" lon="-6.094975807169046"><ele>2209</ele><speed>10.86</speed><time>2016-07-09T13:24:48Z</time><pdop>8.0</pdop><geoidheight>50.60</geoidheight><course>201.64679</course><type>1</type></trkpt>
      <trkpt lat="39.24524532346018" lon="-6.095118292594673"><ele>2213</ele><speed>12.48</speed><time>2016-07-09T13:24:51Z</time><pdop>6.0</pdop><geoidheight>50.60</geoidheight><course>218.79791</course><type>1</type></trkpt>
      <trkpt lat="39.24518828280919" lon="-6.095252878142297"><ele>2216</ele><speed>14.12</speed><time>2016-07-09T13:24:51Z</time><pdop>6.0</pdop><geoidheight>50.60</geoidheight><course>243.02374</course><type>1</type></trkpt>
      <trkpt lat="39.24515754280446" lon="-6.09542542033587"><ele>2217</ele><speed>15.81</speed><time>2016-07-09T13:24:52Z</time><pdop>8.0</pdop><geoidheight>50.60</geoidheight><course>259.44803</course><type>1</type></trkpt>
      <trkpt lat="39.24514057483912" lon="-6.095754021730693"><ele>2218</ele><speed>14.75</speed><time>2016-07-09T13:24:54Z</time><pdop>8.0</pdop><geoidheight>50.60</geoidheight><course>265.88824</course><type>1</type></trkpt>
      <trkpt lat="39.24529875453533" lon="-6.095958791283945"><ele>2218</ele><speed>10.57</speed><time>2016-07-09T13:24:57Z</time><pdop>16.0</pdop><geoidheight>50.60</geoidheight><course>320.87064</course><type>1</type></trkpt>
      <trkpt lat="39.245570049944334" lon="-6.096021661295516"><ele>2218</ele><speed>9.71</speed><time>2016-07-09T13:24:59Z</time><pdop>8.0</pdop><geoidheight>50.60</geoidheight><course>12.547265</course><type>1</type></trkpt>
      <trkpt lat="39.24570418187266" lon="-6.0959448154405775"><ele>2218</ele><speed>8.68</speed><time>2016-07-09T13:25:01Z</time><pdop>8.0</pdop><geoidheight>50.60</geoidheight><course>39.118824</course><type>1</type></trkpt>
      <trkpt lat="39.24577440893215" lon="-6.09578174457953"><ele>2217</ele><speed>8.10</speed><time>2016-07-09T13:25:03Z</time><pdop>8.0</pdop><geoidheight>50.60</geoidheight><course>76.59578</course><type>1</type></trkpt>
      <trkpt lat="39.24579775275957" lon="-6.095593867388097"><ele>2219</ele><speed>7.35</speed><time>2016-07-09T13:25:05Z</time><pdop>6.0</pdop><geoidheight>50.60</geoidheight><course>102.111374</course><type>1</type></trkpt>
      <trkpt lat="39.245774986827705" lon="-6.095430584294801"><ele>2221</ele><speed>5.74</speed><time>2016-07-09T13:25:07Z</time><pdop>6.0</pdop><geoidheight>50.60</geoidheight><course>104.6313</course><type>1</type></trkpt>
      <trkpt lat="39.24574883227655" lon="-6.095286483518295"><ele>2224</ele><speed>5.72</speed><time>2016-07-09T13:25:09Z</time><pdop>6.0</pdop><geoidheight>50.60</geoidheight><course>102.610565</course><type>1</type></trkpt>
      <trkpt lat="39.245727058875765" lon="-6.095087122533934"><ele>2227</ele><speed>6.22</speed><time>2016-07-09T13:25:12Z</time><pdop>6.0</pdop><geoidheight>50.60</geoidheight><course>94.952034</course><type>1</type></trkpt>
      <trkpt lat="39.24572320498002" lon="-6.0949230935560195"><ele>2229</ele><speed>7.21</speed><time>2016-07-09T13:25:14Z</time><pdop>6.0</pdop><geoidheight>50.60</geoidheight><course>94.27603</course><type>1</type></trkpt>
      <trkpt lat="39.24570711370426" lon="-6.094750074879935"><ele>2232</ele><speed>6.38</speed><time>2016-07-09T13:25:16Z</time><pdop>6.0</pdop><geoidheight>50.60</geoidheight><course>95.4691</course><type>1</type></trkpt>
      <trkpt lat="39.245714752694276" lon="-6.094586277752017"><ele>2237</ele><speed>5.70</speed><time>2016-07-09T13:25:18Z</time><pdop>6.0</pdop><geoidheight>50.60</geoidheight><course>78.430664</course><type>1</type></trkpt>
      <trkpt lat="39.24573540352588" lon="-6.094436630799785"><ele>2243</ele><speed>5.08</speed><time>2016-07-09T13:25:20Z</time><pdop>6.0</pdop><geoidheight>50.60</geoidheight><course>78.33812</course><type>1</type></trkpt>
      <trkpt lat="39.2457864790077" lon="-6.0942658211230984"><ele>2255</ele><speed>4.35</speed><time>2016-07-09T13:25:23Z</time><pdop>6.0</pdop><geoidheight>50.60</geoidheight><course>59.71376</course><type>1</type></trkpt>
      <trkpt lat="39.24585577184182" lon="-6.094103857360991"><ele>2263</ele><speed>3.85</speed><time>2016-07-09T13:25:26Z</time><pdop>6.0</pdop><geoidheight>50.60</geoidheight><course>60.190876</course><type>1</type></trkpt>
      <trkpt lat="39.24588301079758" lon="-6.093952024896288"><ele>2266</ele><speed>3.35</speed><time>2016-07-09T13:25:30Z</time><pdop>6.0</pdop><geoidheight>50.60</geoidheight><course>106.86682</course><type>1</type></trkpt>
      <trkpt lat="39.2456921580683" lon="-6.093893881707164"><ele>2286</ele><speed>10.26</speed><time>2016-07-09T13:25:34Z</time><pdop>8.0</pdop><geoidheight>50.60</geoidheight><course>206.15306</course><type>1</type></trkpt>
      <trkpt lat="39.2455094467256" lon="-6.09419636303078"><ele>2292</ele><speed>15.28</speed><time>2016-07-09T13:25:36Z</time><pdop>12.0</pdop><geoidheight>50.60</geoidheight><course>247.00453</course><type>1</type></trkpt>
      <trkpt lat="39.24560395725993" lon="-6.094521741040616"><ele>2303</ele><speed>12.98</speed><time>2016-07-09T13:25:40Z</time><pdop>12.0</pdop><geoidheight>50.60</geoidheight><course>322.19104</course><type>1</type></trkpt>
      <trkpt lat="39.24583716904543" lon="-6.094548298219421"><ele>2313</ele><speed>4.13</speed><time>2016-07-09T13:25:43Z</time><pdop>12.0</pdop><geoidheight>50.60</geoidheight><course>80.59124</course><type>1</type></trkpt>
      <trkpt lat="39.24558649819839" lon="-6.094574423043084"><ele>2334</ele><speed>12.95</speed><time>2016-07-09T13:25:48Z</time><pdop>8.0</pdop><geoidheight>50.60</geoidheight><course>205.51631</course><type>1</type></trkpt>
      <trkpt lat="39.24549523532187" lon="-6.094865846689483"><ele>2341</ele><speed>15.50</speed><time>2016-07-09T13:25:50Z</time><pdop>8.0</pdop><geoidheight>50.60</geoidheight><course>268.55127</course><type>1</type></trkpt>
      <trkpt lat="39.245497379783124" lon="-6.095120850257162"><ele>2347</ele><speed>13.57</speed><time>2016-07-09T13:25:52Z</time><pdop>8.0</pdop><geoidheight>50.60</geoidheight><course>304.42456</course><type>1</type></trkpt>
      <trkpt lat="39.24574187405132" lon="-6.0951175197934635"><ele>2354</ele><speed>9.39</speed><time>2016-07-09T13:25:56Z</time><pdop>12.0</pdop><geoidheight>50.60</geoidheight><course>27.001715</course><type>1</type></trkpt>
      <trkpt lat="39.24570505563504" lon="-6.094890160541636"><ele>2368</ele><speed>8.13</speed><time>2016-07-09T13:26:01Z</time><pdop>8.0</pdop><geoidheight>50.60</geoidheight><course>172.69714</course><type>1</type></trkpt>
      <trkpt lat="39.24549499695368" lon="-6.095021325348789"><ele>2380</ele><speed>12.54</speed><time>2016-07-09T13:26:03Z</time><pdop>8.0</pdop><geoidheight>50.60</geoidheight><course>220.49013</course><type>1</type></trkpt>
      <trkpt lat="39.24538798914725" lon="-6.095266056429625"><ele>2389</ele><speed>14.44</speed><time>2016-07-09T13:26:05Z</time><pdop>8.0</pdop><geoidheight>50.60</geoidheight><course>246.26898</course><type>1</type></trkpt>
      <trkpt lat="39.24549117723197" lon="-6.095507608874068"><ele>2399</ele><speed>13.17</speed><time>2016-07-09T13:26:07Z</time><pdop>8.0</pdop><geoidheight>50.60</geoidheight><course>315.3709</course><type>1</type></trkpt>
      <trkpt lat="39.24565989216474" lon="-6.095642597429952"><ele>2407</ele><speed>10.76</speed><time>2016-07-09T13:26:09Z</time><pdop>8.0</pdop><geoidheight>50.60</geoidheight><course>336.72272</course><type>1</type></trkpt>
      <trkpt lat="39.2458355597765" lon="-6.095530350703737"><ele>2420</ele><speed>6.81</speed><time>2016-07-09T13:26:12Z</time><pdop>12.0</pdop><geoidheight>50.60</geoidheight><course>58.63008</course><type>1</type></trkpt>
      <trkpt lat="39.245714395677545" lon="-6.095324053499671"><ele>2429</ele><speed>12.57</speed><time>2016-07-09T13:26:15Z</time><pdop>8.0</pdop><geoidheight>50.60</geoidheight><course>150.22997</course><type>1</type></trkpt>
      <trkpt lat="39.24549939585803" lon="-6.095399450567832"><ele>2436</ele><speed>11.63</speed><time>2016-07-09T13:26:17Z</time><pdop>8.0</pdop><geoidheight>50.60</geoidheight><course>211.57613</course><type>1</type></trkpt>
      <trkpt lat="39.245398300440854" lon="-6.0956093072359785"><ele>2443</ele><speed>13.77</speed><time>2016-07-09T13:26:19Z</time><pdop>8.0</pdop><geoidheight>50.60</geoidheight><course>254.13168</course><type>1</type></trkpt>
      <trkpt lat="39.24539169507819" lon="-6.095955454323919"><ele>2450</ele><speed>16.27</speed><time>2016-07-09T13:26:21Z</time><pdop>8.0</pdop><geoidheight>50.60</geoidheight><course>287.27997</course><type>1</type></trkpt>
      <trkpt lat="39.24554360904844" lon="-6.096111525253367"><ele>2455</ele><speed>10.42</speed><time>2016-07-09T13:26:24Z</time><pdop>12.0</pdop><geoidheight>50.60</geoidheight><course>343.24466</course><type>1</type></trkpt>
      <trkpt lat="39.245723372788916" lon="-6.095915729350187"><ele>2466</ele><speed>6.20</speed><time>2016-07-09T13:26:27Z</time><pdop>8.0</pdop><geoidheight>50.60</geoidheight><course>89.44101</course><type>1</type></trkpt>
      <trkpt lat="39.245612861295854" lon="-6.095730069995108"><ele>2474</ele><speed>9.86</speed><time>2016-07-09T13:26:31Z</time><pdop>8.0</pdop><geoidheight>50.60</geoidheight><course>152.95345</course><type>1</type></trkpt>
      <trkpt lat="39.24548420987333" lon="-6.095667907192211"><ele>2479</ele><speed>9.50</speed><time>2016-07-09T13:26:32Z</time><pdop>6.0</pdop><geoidheight>50.60</geoidheight><course>174.21173</course><type>1</type></trkpt>
      <trkpt lat="39.24529255956999" lon="-6.095664120651585"><ele>2486</ele><speed>11.31</speed><time>2016-07-09T13:26:34Z</time><pdop>12.0</pdop><geoidheight>50.60</geoidheight><course>181.31903</course><type>1</type></trkpt>
      <trkpt lat="39.24508939406964" lon="-6.0957847982865845"><ele>2492</ele><speed>10.46</speed><time>2016-07-09T13:26:36Z</time><pdop>8.0</pdop><geoidheight>50.60</geoidheight><course>213.03323</course><type>1</type></trkpt>
      <trkpt lat="39.24501739565036" lon="-6.096033043177087"><ele>2498</ele><speed>12.91</speed><time>2016-07-09T13:26:38Z</time><pdop>8.0</pdop><geoidheight>50.60</geoidheight><course>273.7177</course><type>1</type></trkpt>
      <trkpt lat="39.24513124240739" lon="-6.0962500344723445"><ele>2501</ele><speed>9.92</speed><time>2016-07-09T13:26:40Z</time><pdop>12.0</pdop><geoidheight>50.60</geoidheight><course>328.09958</course><type>1</type></trkpt>
      <trkpt lat="39.245337480877026" lon="-6.096369608094104"><ele>2505</ele><speed>6.34</speed><time>2016-07-09T13:26:43Z</time><pdop>12.0</pdop><geoidheight>50.60</geoidheight><course>339.03937</course><type>1</type></trkpt>
      <trkpt lat="39.24548955274063" lon="-6.09624172181789"><ele>2517</ele><speed>7.80</speed><time>2016-07-09T13:26:48Z</time><pdop>8.0</pdop><geoidheight>50.60</geoidheight><course>80.43518</course><type>1</type></trkpt>
      <trkpt lat="39.24533731001312" lon="-6.096089541843205"><ele>2523</ele><speed>11.13</speed><time>2016-07-09T13:26:50Z</time><pdop>8.0</pdop><geoidheight>50.60</geoidheight><course>168.11021</course><type>1</type></trkpt>
      <trkpt lat="39.24511075610372" lon="-6.096097490159779"><ele>2528</ele><speed>11.60</speed><time>2016-07-09T13:26:52Z</time><pdop>8.0</pdop><geoidheight>50.60</geoidheight><course>195.42363</course><type>1</type></trkpt>
      <trkpt lat="39.24492191566384" lon="-6.096202568640948"><ele>2533</ele><speed>11.95</speed><time>2016-07-09T13:26:54Z</time><pdop>8.0</pdop><geoidheight>50.60</geoidheight><course>219.42767</course><type>1</type></trkpt>
      <trkpt lat="39.24480789061408" lon="-6.096425896607707"><ele>2538</ele><speed>12.64</speed><time>2016-07-09T13:26:56Z</time><pdop>6.0</pdop><geoidheight>50.60</geoidheight><course>249.38547</course><type>1</type></trkpt>
      <trkpt lat="39.24480166872536" lon="-6.096694228203765"><ele>2542</ele><speed>11.87</speed><time>2016-07-09T13:26:58Z</time><pdop>6.0</pdop><geoidheight>50.60</geoidheight><course>282.81534</course><type>1</type></trkpt>
      <trkpt lat="39.24487036192964" lon="-6.096905620187994"><ele>2547</ele><speed>9.31</speed><time>2016-07-09T13:27:00Z</time><pdop>6.0</pdop><geoidheight>50.60</geoidheight><course>312.07727</course><type>1</type></trkpt>
      <trkpt lat="39.24497979417895" lon="-6.097008643732884"><ele>2551</ele><speed>7.45</speed><time>2016-07-09T13:27:02Z</time><pdop>6.0</pdop><geoidheight>50.60</geoidheight><course>331.08203</course><type>1</type></trkpt>
      <trkpt lat="39.245139298015346" lon="-6.096998128687037"><ele>2555</ele><speed>6.18</speed><time>2016-07-09T13:27:05Z</time><pdop>8.0</pdop><geoidheight>50.60</geoidheight><course>30.859161</course><type>1</type></trkpt>
      <trkpt lat="39.245194304571804" lon="-6.096772279238939"><ele>2560</ele><speed>9.15</speed><time>2016-07-09T13:27:08Z</time><pdop>6.0</pdop><geoidheight>50.60</geoidheight><course>112.95321</course><type>1</type></trkpt>
      <trkpt lat="39.245080744427234" lon="-6.096628177418135"><ele>2563</ele><speed>9.88</speed><time>2016-07-09T13:27:10Z</time><pdop>8.0</pdop><geoidheight>50.60</geoidheight><course>141.02452</course><type>1</type></trkpt>
      <trkpt lat="39.24488868014518" lon="-6.096570356518505"><ele>2567</ele><speed>11.50</speed><time>2016-07-09T13:27:12Z</time><pdop>8.0</pdop><geoidheight>50.60</geoidheight><course>169.98814</course><type>1</type></trkpt>
      <trkpt lat="39.24465735753279" lon="-6.096588100685388"><ele>2571</ele><speed>11.30</speed><time>2016-07-09T13:27:14Z</time><pdop>6.0</pdop><geoidheight>50.60</geoidheight><course>186.07103</course><type>1</type></trkpt>
      <trkpt lat="39.24455587939241" lon="-6.0966502513737595"><ele>2573</ele><speed>12.05</speed><time>2016-07-09T13:27:15Z</time><pdop>6.0</pdop><geoidheight>50.60</geoidheight><course>208.2003</course><type>1</type></trkpt>
      <trkpt lat="39.24446055188405" lon="-6.096717246818801"><ele>2574</ele><speed>12.50</speed><time>2016-07-09T13:27:16Z</time><pdop>6.0</pdop><geoidheight>50.60</geoidheight><course>210.92116</course><type>1</type></trkpt>
      <trkpt lat="39.24431711514153" lon="-6.09690778381279"><ele>2577</ele><speed>11.38</speed><time>2016-07-09T13:27:18Z</time><pdop>6.0</pdop><geoidheight>50.60</geoidheight><course>226.98924</course><type>1</type></trkpt>
      <trkpt lat="39.24421992312322" lon="-6.097140821401164"><ele>2580</ele><speed>11.22</speed><time>2016-07-09T13:27:20Z</time><pdop>6.0</pdop><geoidheight>50.60</geoidheight><course>253.7074</course><type>1</type></trkpt>
      <trkpt lat="39.24423118556139" lon="-6.09741911038952"><ele>2583</ele><speed>12.34</speed><time>2016-07-09T13:27:22Z</time><pdop>8.0</pdop><geoidheight>50.60</geoidheight><course>277.451</course><type>1</type></trkpt>
      <trkpt lat="39.24434472586064" lon="-6.097577098319284"><ele>2586</ele><speed>8.97</speed><time>2016-07-09T13:27:24Z</time><pdop>8.0</pdop><geoidheight>50.60</geoidheight><course>328.4507</course><type>1</type></trkpt>
      <trkpt lat="39.244527031503246" lon="-6.097638389688958"><ele>2590</ele><speed>5.52</speed><time>2016-07-09T13:27:27Z</time><pdop>8.0</pdop><geoidheight>50.60</geoidheight><course>18.251635</course><type>1</type></trkpt>
      <trkpt lat="39.24463010841474" lon="-6.097475179091701"><ele>2593</ele><speed>7.83</speed><time>2016-07-09T13:27:30Z</time><pdop>6.0</pdop><geoidheight>50.60</geoidheight><course>72.773605</course><type>1</type></trkpt>
      <trkpt lat="39.24467626652893" lon="-6.0972933160203935"><ele>2595</ele><speed>7.67</speed><time>2016-07-09T13:27:32Z</time><pdop>6.0</pdop><geoidheight>50.60</geoidheight><course>71.06716</course><type>1</type></trkpt>
      <trkpt lat="39.24474847201022" lon="-6.097163352813657"><ele>2598</ele><speed>6.59</speed><time>2016-07-09T13:27:34Z</time><pdop>6.0</pdop><geoidheight>50.60</geoidheight><course>50.964287</course><type>1</type></trkpt>
      <trkpt lat="39.2448470023664" lon="-6.097061277086026"><ele>2601</ele><speed>6.89</speed><time>2016-07-09T13:27:36Z</time><pdop>6.0</pdop><geoidheight>50.60</geoidheight><course>35.4359</course><type>1</type></trkpt>
      <trkpt lat="39.24494738070805" lon="-6.096963625483708"><ele>2605</ele><speed>6.92</speed><time>2016-07-09T13:27:38Z</time><pdop>6.0</pdop><geoidheight>50.60</geoidheight><course>33.867443</course><type>1</type></trkpt>
      <trkpt lat="39.24502449239141" lon="-6.096851464839162"><ele>2608</ele><speed>7.24</speed><time>2016-07-09T13:27:40Z</time><pdop>6.0</pdop><geoidheight>50.60</geoidheight><course>53.35985</course><type>1</type></trkpt>
      <trkpt lat="39.24509263556231" lon="-6.096680570896072"><ele>2612</ele><speed>7.62</speed><time>2016-07-09T13:27:42Z</time><pdop>6.0</pdop><geoidheight>50.60</geoidheight><course>72.236786</course><type>1</type></trkpt>
      <trkpt lat="39.245111566733414" lon="-6.096497699486825"><ele>2617</ele><speed>7.43</speed><time>2016-07-09T13:27:44Z</time><pdop>6.0</pdop><geoidheight>50.60</geoidheight><course>98.661415</course><type>1</type></trkpt>
      <trkpt lat="39.2450416960288" lon="-6.096347361542022"><ele>2622</ele><speed>9.56</speed><time>2016-07-09T13:27:46Z</time><pdop>6.0</pdop><geoidheight>50.60</geoidheight><course>138.65028</course><type>1</type></trkpt>
      <trkpt lat="39.24489387296145" lon="-6.096243580852686"><ele>2626</ele><speed>10.45</speed><time>2016-07-09T13:27:48Z</time><pdop>6.0</pdop><geoidheight>50.60</geoidheight><course>155.40747</course><type>1</type></trkpt>
      <trkpt lat="39.24471543896131" lon="-6.096218665864468"><ele>2631</ele><speed>9.51</speed><time>2016-07-09T13:27:50Z</time><pdop>6.0</pdop><geoidheight>50.60</geoidheight><course>189.3877</course><type>1</type></trkpt>
      <trkpt lat="39.24455863291715" lon="-6.096316851549149"><ele>2636</ele><speed>12.20</speed><time>2016-07-09T13:27:52Z</time><pdop>6.0</pdop><geoidheight>50.60</geoidheight><course>222.87256</course><type>1</type></trkpt>
      <trkpt lat="39.24449992972967" lon="-6.096543572602715"><ele>2639</ele><speed>12.61</speed><time>2016-07-09T13:27:54Z</time><pdop>8.0</pdop><geoidheight>50.60</geoidheight><course>266.29907</course><type>1</type></trkpt>
      <trkpt lat="39.24455631319564" lon="-6.0967771531407315"><ele>2642</ele><speed>11.35</speed><time>2016-07-09T13:27:57Z</time><pdop>12.0</pdop><geoidheight>50.60</geoidheight><course>306.56152</course><type>1</type></trkpt>
      <trkpt lat="39.24470561587526" lon="-6.096948413075315"><ele>2649</ele><speed>7.59</speed><time>2016-07-09T13:28:00Z</time><pdop>8.0</pdop><geoidheight>50.60</geoidheight><course>330.13858</course><type>1</type></trkpt>
      <trkpt lat="39.244915485392454" lon="-6.0968882209469575"><ele>2656</ele><speed>9.15</speed><time>2016-07-09T13:28:03Z</time><pdop>12.0</pdop><geoidheight>50.60</geoidheight><course>59.471844</course><type>1</type></trkpt>
      <trkpt lat="39.24487286869836" lon="-6.0966222106927965"><ele>2663</ele><speed>8.41</speed><time>2016-07-09T13:28:07Z</time><pdop>8.0</pdop><geoidheight>50.60</geoidheight><course>156.18369</course><type>1</type></trkpt>
      <trkpt lat="39.244697998853006" lon="-6.096624985515333"><ele>2667</ele><speed>11.29</speed><time>2016-07-09T13:28:09Z</time><pdop>6.0</pdop><geoidheight>50.60</geoidheight><course>184.55182</course><type>1</type></trkpt>
      <trkpt lat="39.24453646039903" lon="-6.096725346313973"><ele>2673</ele><speed>9.88</speed><time>2016-07-09T13:28:11Z</time><pdop>8.0</pdop><geoidheight>50.60</geoidheight><course>226.0883</course><type>1</type></trkpt>
      <trkpt lat="39.24444235290242" lon="-6.09690793606172"><ele>2679</ele><speed>12.39</speed><time>2016-07-09T13:28:13Z</time><pdop>8.0</pdop><geoidheight>50.60</geoidheight><course>253.4644</course><type>1</type></trkpt>
      <trkpt lat="39.244394243346946" lon="-6.097206532191376"><ele>2682</ele><speed>12.99</speed><time>2016-07-09T13:28:16Z</time><pdop>8.0</pdop><geoidheight>50.60</geoidheight><course>271.77115</course><type>1</type></trkpt>
      <trkpt lat="39.24438991676891" lon="-6.097460004457678"><ele>2685</ele><speed>8.96</speed><time>2016-07-09T13:28:17Z</time><pdop>8.0</pdop><geoidheight>50.60</geoidheight><course>277.65686</course><type>1</type></trkpt>
      <trkpt lat="39.244539946577575" lon="-6.097707707618285"><ele>2692</ele><speed>10.37</speed><time>2016-07-09T13:28:20Z</time><pdop>6.0</pdop><geoidheight>50.60</geoidheight><course>323.89426</course><type>1</type></trkpt>
      <trkpt lat="39.2446959948675" lon="-6.097810011697306"><ele>2695</ele><speed>9.19</speed><time>2016-07-09T13:28:23Z</time><pdop>6.0</pdop><geoidheight>50.60</geoidheight><course>351.9116</course><type>1</type></trkpt>
      <trkpt lat="39.24481784528171" lon="-6.097766329169157"><ele>2700</ele><speed>6.67</speed><time>2016-07-09T13:28:24Z</time><pdop>6.0</pdop><geoidheight>50.60</geoidheight><course>35.45802</course><type>1</type></trkpt>
      <trkpt lat="39.24492117312203" lon="-6.097641968784599"><ele>2706</ele><speed>7.32</speed><time>2016-07-09T13:28:26Z</time><pdop>8.0</pdop><geoidheight>50.60</geoidheight><course>56.00745</course><type>1</type></trkpt>
      <trkpt lat="39.24495683245416" lon="-6.097464314607268"><ele>2712</ele><speed>7.38</speed><time>2016-07-09T13:28:29Z</time><pdop>6.0</pdop><geoidheight>50.60</geoidheight><course>91.97679</course><type>1</type></trkpt>
      <trkpt lat="39.244903937199815" lon="-6.097313561954118"><ele>2717</ele><speed>7.98</speed><time>2016-07-09T13:28:30Z</time><pdop>6.0</pdop><geoidheight>50.60</geoidheight><course>133.21335</course><type>1</type></trkpt>
      <trkpt lat="39.244744769485635" lon="-6.097227475752907"><ele>2720</ele><speed>10.63</speed><time>2016-07-09T13:28:32Z</time><pdop>12.0</pdop><geoidheight>50.60</geoidheight><course>167.80179</course><type>1</type></trkpt>
      <trkpt lat="39.24450807266905" lon="-6.097351992658805"><ele>2723</ele><speed>10.42</speed><time>2016-07-09T13:28:35Z</time><pdop>8.0</pdop><geoidheight>50.60</geoidheight><course>225.93933</course><type>1</type></trkpt>
      <trkpt lat="39.24443887323952" lon="-6.097577961610584"><ele>2724</ele><speed>12.14</speed><time>2016-07-09T13:28:37Z</time><pdop>8.0</pdop><geoidheight>50.60</geoidheight><course>268.03253</course><type>1</type></trkpt>
      <trkpt lat="39.24439821926404" lon="-6.097844741300677"><ele>2727</ele><speed>14.90</speed><time>2016-07-09T13:28:40Z</time><pdop>8.0</pdop><geoidheight>50.60</geoidheight><course>249.41824</course><type>1</type></trkpt>
      <trkpt lat="39.24451625174267" lon="-6.097972230330689"><ele>2729</ele><speed>8.53</speed><time>2016-07-09T13:28:41Z</time><pdop>8.0</pdop><geoidheight>50.60</geoidheight><course>326.62772</course><type>1</type></trkpt>
      <trkpt lat="39.24467581252099" lon="-6.098042411018165"><ele>2733</ele><speed>8.26</speed><time>2016-07-09T13:28:44Z</time><pdop>8.0</pdop><geoidheight>50.60</geoidheight><course>354.7723</course><type>1</type></trkpt>
      <trkpt lat="39.24483155041754" lon="-6.0980191160313115"><ele>2736</ele><speed>9.08</speed><time>2016-07-09T13:28:46Z</time><pdop>6.0</pdop><geoidheight>50.60</geoidheight><course>23.692175</course><type>1</type></trkpt>
      <trkpt lat="39.24494397307391" lon="-6.097880134667525"><ele>2739</ele><speed>8.04</speed><time>2016-07-09T13:28:48Z</time><pdop>6.0</pdop><geoidheight>50.60</geoidheight><course>68.23372</course><type>1</type></trkpt>
      <trkpt lat="39.244918072574464" lon="-6.097662458855616"><ele>2741</ele><speed>9.64</speed><time>2016-07-09T13:28:50Z</time><pdop>8.0</pdop><geoidheight>50.60</geoidheight><course>144.21175</course><type>1</type></trkpt>
      <trkpt lat="39.24475658977239" lon="-6.097615187688188"><ele>2743</ele><speed>11.37</speed><time>2016-07-09T13:28:53Z</time><pdop>6.0</pdop><geoidheight>50.60</geoidheight><course>184.57683</course><type>1</type></trkpt>
      <trkpt lat="39.2445978322664" lon="-6.097739959684032"><ele>2745</ele><speed>12.67</speed><time>2016-07-09T13:28:54Z</time><pdop>8.0</pdop><geoidheight>50.60</geoidheight><course>228.45694</course><type>1</type></trkpt>
      <trkpt lat="39.24448495545996" lon="-6.09793400511976"><ele>2747</ele><speed>11.03</speed><time>2016-07-09T13:28:57Z</time><pdop>12.0</pdop><geoidheight>50.60</geoidheight><course>250.41309</course><type>1</type></trkpt>
      <trkpt lat="39.24442917006607" lon="-6.098158112781901"><ele>2752</ele><speed>10.45</speed><time>2016-07-09T13:28:58Z</time><pdop>8.0</pdop><geoidheight>50.60</geoidheight><course>269.1159</course><type>1</type></trkpt>
      <trkpt lat="39.24444251079074" lon="-6.098389025807129"><ele>2757</ele><speed>10.47</speed><time>2016-07-09T13:29:00Z</time><pdop>6.0</pdop><geoidheight>50.60</geoidheight><course>291.3872</course><type>1</type></trkpt>
      <trkpt lat="39.24455193083199" lon="-6.098549073575285"><ele>2761</ele><speed>10.21</speed><time>2016-07-09T13:29:02Z</time><pdop>8.0</pdop><geoidheight>50.60</geoidheight><course>324.38815</course><type>1</type></trkpt>
      <trkpt lat="39.24470996883917" lon="-6.098626378825546"><ele>2763</ele><speed>8.65</speed><time>2016-07-09T13:29:05Z</time><pdop>8.0</pdop><geoidheight>50.60</geoidheight><course>347.01346</course><type>1</type></trkpt>
      <trkpt lat="39.24486143822616" lon="-6.098638858498996"><ele>2764</ele><speed>7.32</speed><time>2016-07-09T13:29:07Z</time><pdop>8.0</pdop><geoidheight>50.60</geoidheight><course>4.513951</course><type>1</type></trkpt>
      <trkpt lat="39.24500913565423" lon="-6.098500752254041"><ele>2768</ele><speed>7.53</speed><time>2016-07-09T13:29:09Z</time><pdop>8.0</pdop><geoidheight>50.60</geoidheight><course>55.409893</course><type>1</type></trkpt>
      <trkpt lat="39.245149735918595" lon="-6.098318201501939"><ele>2775</ele><speed>6.29</speed><time>2016-07-09T13:29:12Z</time><pdop>8.0</pdop><geoidheight>50.60</geoidheight><course>36.76771</course><type>1</type></trkpt>
      <trkpt lat="39.24525967303798" lon="-6.098209293373746"><ele>2779</ele><speed>7.18</speed><time>2016-07-09T13:29:14Z</time><pdop>6.0</pdop><geoidheight>50.60</geoidheight><course>35.60451</course><type>1</type></trkpt>
      <trkpt lat="39.24539385437623" lon="-6.098016312147925"><ele>2783</ele><speed>7.46</speed><time>2016-07-09T13:29:18Z</time><pdop>8.0</pdop><geoidheight>50.60</geoidheight><course>52.50889</course><type>1</type></trkpt>
      <trkpt lat="39.24549026756548" lon="-6.097870708181217"><ele>2785</ele><speed>6.78</speed><time>2016-07-09T13:29:19Z</time><pdop>6.0</pdop><geoidheight>50.60</geoidheight><course>49.808804</course><type>1</type></trkpt>
      <trkpt lat="39.245586559534786" lon="-6.097742377620021"><ele>2787</ele><speed>7.39</speed><time>2016-07-09T13:29:21Z</time><pdop>6.0</pdop><geoidheight>50.60</geoidheight><course>46.036278</course><type>1</type></trkpt>
      <trkpt lat="39.245676305693806" lon="-6.0976047027315055"><ele>2790</ele><speed>7.28</speed><time>2016-07-09T13:29:23Z</time><pdop>6.0</pdop><geoidheight>50.60</geoidheight><course>51.102722</course><type>1</type></trkpt>
      <trkpt lat="39.24575198353483" lon="-6.097457578573391"><ele>2792</ele><speed>7.14</speed><time>2016-07-09T13:29:25Z</time><pdop>6.0</pdop><geoidheight>50.60</geoidheight><course>54.511204</course><type>1</type></trkpt>
      <trkpt lat="39.24583009940139" lon="-6.0973033261923915"><ele>2794</ele><speed>8.29</speed><time>2016-07-09T13:29:27Z</time><pdop>6.0</pdop><geoidheight>50.60</geoidheight><course>54.829823</course><type>1</type></trkpt>
      <trkpt lat="39.245917450868276" lon="-6.097141341903757"><ele>2796</ele><speed>8.90</speed><time>2016-07-09T13:29:29Z</time><pdop>6.0</pdop><geoidheight>50.60</geoidheight><course>52.845303</course><type>1</type></trkpt>
      <trkpt lat="39.246033515061" lon="-6.097012729364725"><ele>2797</ele><speed>8.74</speed><time>2016-07-09T13:29:31Z</time><pdop>6.0</pdop><geoidheight>50.60</geoidheight><course>38.287155</course><type>1</type></trkpt>
      <trkpt lat="39.24614776725288" lon="-6.096892053021249"><ele>2798</ele><speed>8.56</speed><time>2016-07-09T13:29:33Z</time><pdop>8.0</pdop><geoidheight>50.60</geoidheight><course>38.728844</course><type>1</type></trkpt>
      <trkpt lat="39.24625987283021" lon="-6.096758263571476"><ele>2797</ele><speed>9.23</speed><time>2016-07-09T13:29:35Z</time><pdop>8.0</pdop><geoidheight>50.60</geoidheight><course>40.833538</course><type>1</type></trkpt>
      <trkpt lat="39.246382905230156" lon="-6.096617351289758"><ele>2797</ele><speed>9.54</speed><time>2016-07-09T13:29:37Z</time><pdop>6.0</pdop><geoidheight>50.60</geoidheight><course>39.593445</course><type>1</type></trkpt>
      <trkpt lat="39.24651812249735" lon="-6.0964744209781"><ele>2796</ele><speed>9.76</speed><time>2016-07-09T13:29:39Z</time><pdop>6.0</pdop><geoidheight>50.60</geoidheight><course>38.757687</course><type>1</type></trkpt>
      <trkpt lat="39.24664700774503" lon="-6.096325432215388"><ele>2796</ele><speed>8.55</speed><time>2016-07-09T13:29:41Z</time><pdop>8.0</pdop><geoidheight>50.60</geoidheight><course>41.999508</course><type>1</type></trkpt>
      <trkpt lat="39.24676207722462" lon="-6.096179864983791"><ele>2797</ele><speed>8.77</speed><time>2016-07-09T13:29:43Z</time><pdop>6.0</pdop><geoidheight>50.60</geoidheight><course>42.582684</course><type>1</type></trkpt>
      <trkpt lat="39.246891060914166" lon="-6.096029498496906"><ele>2797</ele><speed>10.17</speed><time>2016-07-09T13:29:45Z</time><pdop>6.0</pdop><geoidheight>50.60</geoidheight><course>41.636135</course><type>1</type></trkpt>
      <trkpt lat="39.247016968541445" lon="-6.09586959162858"><ele>2798</ele><speed>9.00</speed><time>2016-07-09T13:29:47Z</time><pdop>6.0</pdop><geoidheight>50.60</geoidheight><course>45.897858</course><type>1</type></trkpt>
      <trkpt lat="39.24716875648792" lon="-6.095649550083758"><ele>2799</ele><speed>8.77</speed><time>2016-07-09T13:29:50Z</time><pdop>8.0</pdop><geoidheight>50.60</geoidheight><course>45.109303</course><type>1</type></trkpt>
      <trkpt lat="39.24727668885599" lon="-6.095506593271948"><ele>2799</ele><speed>9.89</speed><time>2016-07-09T13:29:52Z</time><pdop>8.0</pdop><geoidheight>50.60</geoidheight><course>45.981174</course><type>1</type></trkpt>
      <trkpt lat="39.24739645960122" lon="-6.0953347258888435"><ele>2800</ele><speed>9.06</speed><time>2016-07-09T13:29:54Z</time><pdop>6.0</pdop><geoidheight>50.60</geoidheight><course>48.587284</course><type>1</type></trkpt>
      <trkpt lat="39.247510018391736" lon="-6.095170654299699"><ele>2800</ele><speed>9.66</speed><time>2016-07-09T13:29:56Z</time><pdop>6.0</pdop><geoidheight>50.60</geoidheight><course>48.51478</course><type>1</type></trkpt>
      <trkpt lat="39.24763253106776" lon="-6.094977421638232"><ele>2800</ele><speed>12.10</speed><time>2016-07-09T13:29:58Z</time><pdop>6.0</pdop><geoidheight>50.60</geoidheight><course>50.89398</course><type>1</type></trkpt>
      <trkpt lat="39.24776484818782" lon="-6.094775962657937"><ele>2799</ele><speed>10.86</speed><time>2016-07-09T13:30:00Z</time><pdop>6.0</pdop><geoidheight>50.60</geoidheight><course>48.23021</course><type>1</type></trkpt>
      <trkpt lat="39.24789243728372" lon="-6.094606205732446"><ele>2799</ele><speed>9.66</speed><time>2016-07-09T13:30:02Z</time><pdop>6.0</pdop><geoidheight>50.60</geoidheight><course>46.019512</course><type>1</type></trkpt>
      <trkpt lat="39.24800836564722" lon="-6.094435696973051"><ele>2799</ele><speed>10.69</speed><time>2016-07-09T13:30:04Z</time><pdop>6.0</pdop><geoidheight>50.60</geoidheight><course>49.84658</course><type>1</type></trkpt>
      <trkpt lat="39.24812448558438" lon="-6.0942468519704205"><ele>2797</ele><speed>11.09</speed><time>2016-07-09T13:30:06Z</time><pdop>6.0</pdop><geoidheight>50.60</geoidheight><course>51.276012</course><type>1</type></trkpt>
      <trkpt lat="39.24823599893457" lon="-6.094074415236166"><ele>2795</ele><speed>9.66</speed><time>2016-07-09T13:30:08Z</time><pdop>6.0</pdop><geoidheight>50.60</geoidheight><course>49.533474</course><type>1</type></trkpt>
      <trkpt lat="39.24836046672116" lon="-6.093885402281005"><ele>2794</ele><speed>10.32</speed><time>2016-07-09T13:30:11Z</time><pdop>6.0</pdop><geoidheight>50.60</geoidheight><course>48.947983</course><type>1</type></trkpt>
      <trkpt lat="39.24848348179411" lon="-6.09369714747919"><ele>2792</ele><speed>11.79</speed><time>2016-07-09T13:30:12Z</time><pdop>6.0</pdop><geoidheight>50.60</geoidheight><course>50.25804</course><type>1</type></trkpt>
      <trkpt lat="39.24859535960033" lon="-6.093519007271522"><ele>2789</ele><speed>10.11</speed><time>2016-07-09T13:30:14Z</time><pdop>6.0</pdop><geoidheight>50.60</geoidheight><course>50.713585</course><type>1</type></trkpt>
      <trkpt lat="39.24870598290427" lon="-6.0933616208279995"><ele>2786</ele><speed>10.32</speed><time>2016-07-09T13:30:16Z</time><pdop>8.0</pdop><geoidheight>50.60</geoidheight><course>48.852295</course><type>1</type></trkpt>
      <trkpt lat="39.24883011084084" lon="-6.093207072403993"><ele>2783</ele><speed>9.42</speed><time>2016-07-09T13:30:19Z</time><pdop>8.0</pdop><geoidheight>50.60</geoidheight><course>47.500656</course><type>1</type></trkpt>
      <trkpt lat="39.24896931373461" lon="-6.093047427054857"><ele>2781</ele><speed>9.37</speed><time>2016-07-09T13:30:20Z</time><pdop>8.0</pdop><geoidheight>50.60</geoidheight><course>44.571564</course><type>1</type></trkpt>
      <trkpt lat="39.24910676053851" lon="-6.092877375896426"><ele>2778</ele><speed>11.23</speed><time>2016-07-09T13:30:22Z</time><pdop>8.0</pdop><geoidheight>50.60</geoidheight><course>47.411873</course><type>1</type></trkpt>
      <trkpt lat="39.24924134453621" lon="-6.092706044266705"><ele>2775</ele><speed>10.85</speed><time>2016-07-09T13:30:24Z</time><pdop>8.0</pdop><geoidheight>50.60</geoidheight><course>45.903038</course><type>1</type></trkpt>
      <trkpt lat="39.24935996384469" lon="-6.092578926519124"><ele>2773</ele><speed>8.53</speed><time>2016-07-09T13:30:26Z</time><pdop>8.0</pdop><geoidheight>50.60</geoidheight><course>41.488</course><type>1</type></trkpt>
      <trkpt lat="39.24954306475347" lon="-6.092353363403682"><ele>2769</ele><speed>13.65</speed><time>2016-07-09T13:30:29Z</time><pdop>8.0</pdop><geoidheight>50.60</geoidheight><course>46.28153</course><type>1</type></trkpt>
      <trkpt lat="39.249684431313234" lon="-6.09217582920389"><ele>2764</ele><speed>10.21</speed><time>2016-07-09T13:30:31Z</time><pdop>8.0</pdop><geoidheight>50.60</geoidheight><course>44.551346</course><type>1</type></trkpt>
      <trkpt lat="39.24979287131135" lon="-6.092051559224098"><ele>2760</ele><speed>7.53</speed><time>2016-07-09T13:30:33Z</time><pdop>8.0</pdop><geoidheight>50.60</geoidheight><course>44.918552</course><type>1</type></trkpt>
      <trkpt lat="39.24993689402639" lon="-6.091878465426068"><ele>2758</ele><speed>7.22</speed><time>2016-07-09T13:30:36Z</time><pdop>8.0</pdop><geoidheight>50.60</geoidheight><course>43.978218</course><type>1</type></trkpt>
      <trkpt lat="39.25010237237043" lon="-6.09165626268992"><ele>2757</ele><speed>7.27</speed><time>2016-07-09T13:30:41Z</time><pdop>8.0</pdop><geoidheight>50.60</geoidheight><course>49.54516</course><type>1</type></trkpt>
      <trkpt lat="39.25021827021413" lon="-6.091473937578207"><ele>2757</ele><speed>7.45</speed><time>2016-07-09T13:30:43Z</time><pdop>12.0</pdop><geoidheight>50.60</geoidheight><course>50.50809</course><type>1</type></trkpt>
      <trkpt lat="39.25032746064928" lon="-6.091267873659706"><ele>2756</ele><speed>6.99</speed><time>2016-07-09T13:30:46Z</time><pdop>8.0</pdop><geoidheight>50.60</geoidheight><course>51.303417</course><type>1</type></trkpt>
      <trkpt lat="39.250465631559166" lon="-6.091053015931116"><ele>2756</ele><speed>8.23</speed><time>2016-07-09T13:30:49Z</time><pdop>8.0</pdop><geoidheight>50.60</geoidheight><course>51.307674</course><type>1</type></trkpt>
      <trkpt lat="39.25058640205823" lon="-6.0908351187985765"><ele>2755</ele><speed>7.39</speed><time>2016-07-09T13:30:52Z</time><pdop>8.0</pdop><geoidheight>50.60</geoidheight><course>52.86642</course><type>1</type></trkpt>
      <trkpt lat="39.25072380693221" lon="-6.090641377736104"><ele>2753</ele><speed>8.56</speed><time>2016-07-09T13:30:55Z</time><pdop>8.0</pdop><geoidheight>50.60</geoidheight><course>47.019497</course><type>1</type></trkpt>
      <trkpt lat="39.25082176601252" lon="-6.0905050917903"><ele>2752</ele><speed>7.90</speed><time>2016-07-09T13:30:57Z</time><pdop>8.0</pdop><geoidheight>50.60</geoidheight><course>46.93003</course><type>1</type></trkpt>
      <trkpt lat="39.25092070828215" lon="-6.09038648305723"><ele>2750</ele><speed>7.97</speed><time>2016-07-09T13:30:59Z</time><pdop>6.0</pdop><geoidheight>50.60</geoidheight><course>42.975</course><type>1</type></trkpt>
      <trkpt lat="39.25103746964327" lon="-6.0902456401389555"><ele>2749</ele><speed>9.09</speed><time>2016-07-09T13:31:01Z</time><pdop>8.0</pdop><geoidheight>50.60</geoidheight><course>44.406956</course><type>1</type></trkpt>
      <trkpt lat="39.25113951277673" lon="-6.090104910015363"><ele>2746</ele><speed>7.23</speed><time>2016-07-09T13:31:03Z</time><pdop>8.0</pdop><geoidheight>50.60</geoidheight><course>46.34984</course><type>1</type></trkpt>
      <trkpt lat="39.25130015307905" lon="-6.08998651776425"><ele>2743</ele><speed>8.51</speed><time>2016-07-09T13:31:06Z</time><pdop>8.0</pdop><geoidheight>50.60</geoidheight><course>29.593733</course><type>1</type></trkpt>
      <trkpt lat="39.25142761120101" lon="-6.089895861870227"><ele>2740</ele><speed>9.43</speed><time>2016-07-09T13:31:08Z</time><pdop>8.0</pdop><geoidheight>50.60</geoidheight><course>28.4715</course><type>1</type></trkpt>
      <trkpt lat="39.25156881314066" lon="-6.089808316088167"><ele>2737</ele><speed>9.25</speed><time>2016-07-09T13:31:11Z</time><pdop>6.0</pdop><geoidheight>50.60</geoidheight><course>24.162754</course><type>1</type></trkpt>
      <trkpt lat="39.251712267451246" lon="-6.08974285995596"><ele>2734</ele><speed>8.99</speed><time>2016-07-09T13:31:12Z</time><pdop>6.0</pdop><geoidheight>50.60</geoidheight><course>19.069662</course><type>1</type></trkpt>
      <trkpt lat="39.251862397416055" lon="-6.089695157930494"><ele>2733</ele><speed>7.96</speed><time>2016-07-09T13:31:14Z</time><pdop>6.0</pdop><geoidheight>50.60</geoidheight><course>14.854361</course><type>1</type></trkpt>
      <trkpt lat="39.25200492757728" lon="-6.089668386095149"><ele>2732</ele><speed>7.92</speed><time>2016-07-09T13:31:16Z</time><pdop>6.0</pdop><geoidheight>50.60</geoidheight><course>10.438675</course><type>1</type></trkpt>
      <trkpt lat="39.25216009926424" lon="-6.089643416165755"><ele>2731</ele><speed>10.37</speed><time>2016-07-09T13:31:18Z</time><pdop>6.0</pdop><geoidheight>50.60</geoidheight><course>9.757425</course><type>1</type></trkpt>
      <trkpt lat="39.252353690211784" lon="-6.089593035642966"><ele>2727</ele><speed>11.85</speed><time>2016-07-09T13:31:20Z</time><pdop>6.0</pdop><geoidheight>50.60</geoidheight><course>12.6689625</course><type>1</type></trkpt>
      <trkpt lat="39.25254515501241" lon="-6.08952083272612"><ele>2724</ele><speed>10.33</speed><time>2016-07-09T13:31:22Z</time><pdop>6.0</pdop><geoidheight>50.60</geoidheight><course>17.545116</course><type>1</type></trkpt>
      <trkpt lat="39.25270715649803" lon="-6.089395263617671"><ele>2722</ele><speed>10.07</speed><time>2016-07-09T13:31:24Z</time><pdop>6.0</pdop><geoidheight>50.60</geoidheight><course>32.34931</course><type>1</type></trkpt>
      <trkpt lat="39.25286734120371" lon="-6.0892623319015025"><ele>2720</ele><speed>10.58</speed><time>2016-07-09T13:31:26Z</time><pdop>6.0</pdop><geoidheight>50.60</geoidheight><course>33.181633</course><type>1</type></trkpt>
      <trkpt lat="39.25302839297836" lon="-6.089112324939025"><ele>2717</ele><speed>11.20</speed><time>2016-07-09T13:31:28Z</time><pdop>6.0</pdop><geoidheight>50.60</geoidheight><course>36.406982</course><type>1</type></trkpt>
      <trkpt lat="39.2531823392873" lon="-6.088940090694041"><ele>2713</ele><speed>11.62</speed><time>2016-07-09T13:31:30Z</time><pdop>6.0</pdop><geoidheight>50.60</geoidheight><course>39.663254</course><type>1</type></trkpt>
      <trkpt lat="39.25334041374381" lon="-6.0887585404661895"><ele>2709</ele><speed>12.18</speed><time>2016-07-09T13:31:32Z</time><pdop>6.0</pdop><geoidheight>50.60</geoidheight><course>39.162384</course><type>1</type></trkpt>
      <trkpt lat="39.253495025995306" lon="-6.088593633105357"><ele>2705</ele><speed>11.17</speed><time>2016-07-09T13:31:34Z</time><pdop>6.0</pdop><geoidheight>50.60</geoidheight><course>37.786644</course><type>1</type></trkpt>
      <trkpt lat="39.25364730651198" lon="-6.0884332768388365"><ele>2700</ele><speed>11.58</speed><time>2016-07-09T13:31:36Z</time><pdop>6.0</pdop><geoidheight>50.60</geoidheight><course>37.988747</course><type>1</type></trkpt>
      <trkpt lat="39.25381879651945" lon="-6.0882690623709905"><ele>2695</ele><speed>12.74</speed><time>2016-07-09T13:31:38Z</time><pdop>6.0</pdop><geoidheight>50.60</geoidheight><course>35.374317</course><type>1</type></trkpt>
      <trkpt lat="39.25400208298074" lon="-6.08811634019622"><ele>2692</ele><speed>12.10</speed><time>2016-07-09T13:31:41Z</time><pdop>8.0</pdop><geoidheight>50.60</geoidheight><course>32.88192</course><type>1</type></trkpt>
      <trkpt lat="39.25416528292357" lon="-6.087975961408921"><ele>2691</ele><speed>10.93</speed><time>2016-07-09T13:31:42Z</time><pdop>8.0</pdop><geoidheight>50.60</geoidheight><course>35.28012</course><type>1</type></trkpt>
      <trkpt lat="39.254338180158705" lon="-6.087822028202072"><ele>2689</ele><speed>12.44</speed><time>2016-07-09T13:31:44Z</time><pdop>6.0</pdop><geoidheight>50.60</geoidheight><course>34.859875</course><type>1</type></trkpt>
      <trkpt lat="39.25443279997697" lon="-6.087741714136979"><ele>2687</ele><speed>12.84</speed><time>2016-07-09T13:31:45Z</time><pdop>6.0</pdop><geoidheight>50.60</geoidheight><course>33.793606</course><type>1</type></trkpt>
      <trkpt lat="39.254523872753836" lon="-6.087663861680953"><ele>2685</ele><speed>12.36</speed><time>2016-07-09T13:31:46Z</time><pdop>6.0</pdop><geoidheight>50.60</geoidheight><course>34.462944</course><type>1</type></trkpt>
      <trkpt lat="39.254612185894764" lon="-6.087582582292233"><ele>2683</ele><speed>12.33</speed><time>2016-07-09T13:31:47Z</time><pdop>6.0</pdop><geoidheight>50.60</geoidheight><course>35.304985</course><type>1</type></trkpt>
      <trkpt lat="39.25478096681185" lon="-6.087408687499363"><ele>2680</ele><speed>12.36</speed><time>2016-07-09T13:31:49Z</time><pdop>6.0</pdop><geoidheight>50.60</geoidheight><course>38.433197</course><type>1</type></trkpt>
      <trkpt lat="39.2548622145963" lon="-6.087314997620353"><ele>2678</ele><speed>12.41</speed><time>2016-07-09T13:31:50Z</time><pdop>6.0</pdop><geoidheight>50.60</geoidheight><course>40.054226</course><type>1</type></trkpt>
      <trkpt lat="39.2549416166199" lon="-6.087215505295264"><ele>2676</ele><speed>12.56</speed><time>2016-07-09T13:31:51Z</time><pdop>6.0</pdop><geoidheight>50.60</geoidheight><course>42.039143</course><type>1</type></trkpt>
      <trkpt lat="39.255018231819285" lon="-6.087112885938686"><ele>2674</ele><speed>12.45</speed><time>2016-07-09T13:31:52Z</time><pdop>6.0</pdop><geoidheight>50.60</geoidheight><course>43.58229</course><type>1</type></trkpt>
      <trkpt lat="39.2551602104851" lon="-6.086922241190453"><ele>2671</ele><speed>11.32</speed><time>2016-07-09T13:31:54Z</time><pdop>6.0</pdop><geoidheight>50.60</geoidheight><course>43.228382</course><type>1</type></trkpt>
      <trkpt lat="39.255309931445034" lon="-6.086743234739083"><ele>2668</ele><speed>11.77</speed><time>2016-07-09T13:31:56Z</time><pdop>6.0</pdop><geoidheight>50.60</geoidheight><course>40.862732</course><type>1</type></trkpt>
      <trkpt lat="39.25547225143734" lon="-6.08656117693077"><ele>2664</ele><speed>12.96</speed><time>2016-07-09T13:31:58Z</time><pdop>6.0</pdop><geoidheight>50.60</geoidheight><course>39.885677</course><type>1</type></trkpt>
      <trkpt lat="39.25555679808262" lon="-6.086465231355072"><ele>2661</ele><speed>13.20</speed><time>2016-07-09T13:31:59Z</time><pdop>6.0</pdop><geoidheight>50.60</geoidheight><course>39.88889</course><type>1</type></trkpt>
      <trkpt lat="39.255642031691835" lon="-6.0863721753542155"><ele>2658</ele><speed>13.14</speed><time>2016-07-09T13:32:00Z</time><pdop>6.0</pdop><geoidheight>50.60</geoidheight><course>39.072372</course><type>1</type></trkpt>
      <trkpt lat="39.25572882724786" lon="-6.086277572609391"><ele>2655</ele><speed>13.29</speed><time>2016-07-09T13:32:01Z</time><pdop>6.0</pdop><geoidheight>50.60</geoidheight><course>38.540096</course><type>1</type></trkpt>
      <trkpt lat="39.255817127845695" lon="-6.086185591354383"><ele>2652</ele><speed>13.27</speed><time>2016-07-09T13:32:02Z</time><pdop>6.0</pdop><geoidheight>50.60</geoidheight><course>37.977783</course><type>1</type></trkpt>
      <trkpt lat="39.255995759761674" lon="-6.086005201315383"><ele>2646</ele><speed>13.33</speed><time>2016-07-09T13:32:04Z</time><pdop>6.0</pdop><geoidheight>50.60</geoidheight><course>36.77069</course><type>1</type></trkpt>
      <trkpt lat="39.25608566392411" lon="-6.0859153824345285"><ele>2643</ele><speed>13.31</speed><time>2016-07-09T13:32:05Z</time><pdop>6.0</pdop><geoidheight>50.60</geoidheight><course>37.406544</course><type>1</type></trkpt>
      <trkpt lat="39.25617478041514" lon="-6.085821831504049"><ele>2639</ele><speed>13.48</speed><time>2016-07-09T13:32:06Z</time><pdop>6.0</pdop><geoidheight>50.60</geoidheight><course>37.89073</course><type>1</type></trkpt>
      <trkpt lat="39.25626327085233" lon="-6.085726718552858"><ele>2636</ele><speed>13.71</speed><time>2016-07-09T13:32:07Z</time><pdop>6.0</pdop><geoidheight>50.60</geoidheight><course>38.73621</course><type>1</type></trkpt>
      <trkpt lat="39.256350926939774" lon="-6.08562324928908"><ele>2632</ele><speed>14.09</speed><time>2016-07-09T13:32:08Z</time><pdop>6.0</pdop><geoidheight>50.60</geoidheight><course>39.831608</course><type>1</type></trkpt>
      <trkpt lat="39.256446648162154" lon="-6.085515464457421"><ele>2629</ele><speed>14.56</speed><time>2016-07-09T13:32:10Z</time><pdop>8.0</pdop><geoidheight>50.60</geoidheight><course>40.619045</course><type>1</type></trkpt>
      <trkpt lat="39.25663291172484" lon="-6.085301442680881"><ele>2622</ele><speed>13.89</speed><time>2016-07-09T13:32:11Z</time><pdop>8.0</pdop><geoidheight>50.60</geoidheight><course>39.720703</course><type>1</type></trkpt>
      <trkpt lat="39.25680180933629" lon="-6.085108789867058"><ele>2615</ele><speed>12.37</speed><time>2016-07-09T13:32:13Z</time><pdop>6.0</pdop><geoidheight>50.60</geoidheight><course>39.72404</course><type>1</type></trkpt>
      <trkpt lat="39.25688845958315" lon="-6.085013959072619"><ele>2611</ele><speed>13.09</speed><time>2016-07-09T13:32:14Z</time><pdop>6.0</pdop><geoidheight>50.60</geoidheight><course>39.28486</course><type>1</type></trkpt>
      <trkpt lat="39.257069250150145" lon="-6.084824148363763"><ele>2603</ele><speed>13.94</speed><time>2016-07-09T13:32:16Z</time><pdop>8.0</pdop><geoidheight>50.60</geoidheight><course>37.803112</course><type>1</type></trkpt>
      <trkpt lat="39.25726240441214" lon="-6.084629476313305"><ele>2593</ele><speed>14.16</speed><time>2016-07-09T13:32:18Z</time><pdop>8.0</pdop><geoidheight>50.60</geoidheight><course>38.016182</course><type>1</type></trkpt>
      <trkpt lat="39.25746247125922" lon="-6.084470582116942"><ele>2583</ele><speed>14.70</speed><time>2016-07-09T13:32:20Z</time><pdop>8.0</pdop><geoidheight>50.60</geoidheight><course>23.451315</course><type>1</type></trkpt>
      <trkpt lat="39.25766186884698" lon="-6.084362046486554"><ele>2573</ele><speed>13.49</speed><time>2016-07-09T13:32:22Z</time><pdop>8.0</pdop><geoidheight>50.60</geoidheight><course>20.83651</course><type>1</type></trkpt>
      <trkpt lat="39.257875758993336" lon="-6.084245010668732"><ele>2563</ele><speed>13.41</speed><time>2016-07-09T13:32:24Z</time><pdop>8.0</pdop><geoidheight>50.60</geoidheight><course>23.870659</course><type>1</type></trkpt>
      <trkpt lat="39.25807531308005" lon="-6.084110400839154"><ele>2552</ele><speed>13.17</speed><time>2016-07-09T13:32:26Z</time><pdop>8.0</pdop><geoidheight>50.60</geoidheight><course>25.723078</course><type>1</type></trkpt>
      <trkpt lat="39.258266171998294" lon="-6.083992412438932"><ele>2542</ele><speed>12.19</speed><time>2016-07-09T13:32:29Z</time><pdop>8.0</pdop><geoidheight>50.60</geoidheight><course>23.153093</course><type>1</type></trkpt>
      <trkpt lat="39.258459967173735" lon="-6.083880176971031"><ele>2534</ele><speed>12.32</speed><time>2016-07-09T13:32:30Z</time><pdop>8.0</pdop><geoidheight>50.60</geoidheight><course>22.395298</course><type>1</type></trkpt>
      <trkpt lat="39.25864920581778" lon="-6.083764944019873"><ele>2526</ele><speed>12.07</speed><time>2016-07-09T13:32:32Z</time><pdop>8.0</pdop><geoidheight>50.60</geoidheight><course>25.642372</course><type>1</type></trkpt>
      <trkpt lat="39.2588203125678" lon="-6.083645369138563"><ele>2518</ele><speed>11.40</speed><time>2016-07-09T13:32:34Z</time><pdop>8.0</pdop><geoidheight>50.60</geoidheight><course>27.926998</course><type>1</type></trkpt>
      <trkpt lat="39.25898991324112" lon="-6.0835138397171145"><ele>2510</ele><speed>11.84</speed><time>2016-07-09T13:32:37Z</time><pdop>6.0</pdop><geoidheight>50.60</geoidheight><course>30.139257</course><type>1</type></trkpt>
      <trkpt lat="39.25915167859993" lon="-6.083369250136323"><ele>2502</ele><speed>11.48</speed><time>2016-07-09T13:32:38Z</time><pdop>6.0</pdop><geoidheight>50.60</geoidheight><course>33.592876</course><type>1</type></trkpt>
      <trkpt lat="39.25928780106756" lon="-6.083221679805407"><ele>2495</ele><speed>10.03</speed><time>2016-07-09T13:32:40Z</time><pdop>6.0</pdop><geoidheight>50.60</geoidheight><course>37.771458</course><type>1</type></trkpt>
      <trkpt lat="39.25940830219745" lon="-6.083077033214898"><ele>2489</ele><speed>9.38</speed><time>2016-07-09T13:32:42Z</time><pdop>6.0</pdop><geoidheight>50.60</geoidheight><course>38.744225</course><type>1</type></trkpt>
      <trkpt lat="39.259535877517834" lon="-6.0829357138026605"><ele>2483</ele><speed>10.04</speed><time>2016-07-09T13:32:44Z</time><pdop>6.0</pdop><geoidheight>50.60</geoidheight><course>38.81146</course><type>1</type></trkpt>
      <trkpt lat="39.25967547162568" lon="-6.0827765566791845"><ele>2476</ele><speed>10.98</speed><time>2016-07-09T13:32:46Z</time><pdop>6.0</pdop><geoidheight>50.60</geoidheight><course>40.30563</course><type>1</type></trkpt>
      <trkpt lat="39.25982706376453" lon="-6.082607640703931"><ele>2471</ele><speed>11.44</speed><time>2016-07-09T13:32:48Z</time><pdop>8.0</pdop><geoidheight>50.60</geoidheight><course>38.38741</course><type>1</type></trkpt>
      <trkpt lat="39.25997173648745" lon="-6.082470254019867"><ele>2465</ele><speed>10.28</speed><time>2016-07-09T13:32:50Z</time><pdop>8.0</pdop><geoidheight>50.60</geoidheight><course>36.1371</course><type>1</type></trkpt>
      <trkpt lat="39.26010641781798" lon="-6.082350944883345"><ele>2459</ele><speed>9.50</speed><time>2016-07-09T13:32:52Z</time><pdop>6.0</pdop><geoidheight>50.60</geoidheight><course>35.426506</course><type>1</type></trkpt>
      <trkpt lat="39.26024013319217" lon="-6.082217927855482"><ele>2451</ele><speed>10.39</speed><time>2016-07-09T13:32:54Z</time><pdop>6.0</pdop><geoidheight>50.60</geoidheight><course>40.89112</course><type>1</type></trkpt>
      <trkpt lat="39.2603879900472" lon="-6.082057550518248"><ele>2443</ele><speed>12.01</speed><time>2016-07-09T13:32:56Z</time><pdop>8.0</pdop><geoidheight>50.60</geoidheight><course>40.948013</course><type>1</type></trkpt>
      <trkpt lat="39.260541902957144" lon="-6.081905354867427"><ele>2436</ele><speed>11.52</speed><time>2016-07-09T13:32:58Z</time><pdop>8.0</pdop><geoidheight>50.60</geoidheight><course>38.573147</course><type>1</type></trkpt>
      <trkpt lat="39.26067584987304" lon="-6.081776830469556"><ele>2430</ele><speed>9.63</speed><time>2016-07-09T13:33:00Z</time><pdop>8.0</pdop><geoidheight>50.60</geoidheight><course>39.610886</course><type>1</type></trkpt>
      <trkpt lat="39.26079895110594" lon="-6.081653134588064"><ele>2425</ele><speed>9.50</speed><time>2016-07-09T13:33:02Z</time><pdop>6.0</pdop><geoidheight>50.60</geoidheight><course>40.485794</course><type>1</type></trkpt>
      <trkpt lat="39.260918045123766" lon="-6.081521133714263"><ele>2420</ele><speed>9.98</speed><time>2016-07-09T13:33:04Z</time><pdop>6.0</pdop><geoidheight>50.60</geoidheight><course>42.342823</course><type>1</type></trkpt>
      <trkpt lat="39.26104856315014" lon="-6.0813757162708555"><ele>2413</ele><speed>10.68</speed><time>2016-07-09T13:33:06Z</time><pdop>6.0</pdop><geoidheight>50.60</geoidheight><course>42.239468</course><type>1</type></trkpt>
      <trkpt lat="39.2611735700517" lon="-6.081242095625063"><ele>2407</ele><speed>9.91</speed><time>2016-07-09T13:33:08Z</time><pdop>6.0</pdop><geoidheight>50.60</geoidheight><course>40.7127</course><type>1</type></trkpt>
      <trkpt lat="39.26130369629948" lon="-6.081106888249452"><ele>2400</ele><speed>10.24</speed><time>2016-07-09T13:33:10Z</time><pdop>6.0</pdop><geoidheight>50.60</geoidheight><course>40.57647</course><type>1</type></trkpt>
      <trkpt lat="39.26143840073043" lon="-6.080979710597574"><ele>2393</ele><speed>10.12</speed><time>2016-07-09T13:33:12Z</time><pdop>6.0</pdop><geoidheight>50.60</geoidheight><course>37.934223</course><type>1</type></trkpt>
      <trkpt lat="39.261575642411316" lon="-6.0808594290074724"><ele>2386</ele><speed>9.64</speed><time>2016-07-09T13:33:14Z</time><pdop>6.0</pdop><geoidheight>50.60</geoidheight><course>36.41172</course><type>1</type></trkpt>
      <trkpt lat="39.26169276312334" lon="-6.0807529953607276"><ele>2381</ele><speed>8.22</speed><time>2016-07-09T13:33:16Z</time><pdop>8.0</pdop><geoidheight>50.60</geoidheight><course>38.378735</course><type>1</type></trkpt>
      <trkpt lat="39.26180697930922" lon="-6.080637729807461"><ele>2376</ele><speed>8.84</speed><time>2016-07-09T13:33:18Z</time><pdop>6.0</pdop><geoidheight>50.60</geoidheight><course>40.303627</course><type>1</type></trkpt>
      <trkpt lat="39.26192875091042" lon="-6.080522155280391"><ele>2371</ele><speed>9.54</speed><time>2016-07-09T13:33:20Z</time><pdop>6.0</pdop><geoidheight>50.60</geoidheight><course>37.19826</course><type>1</type></trkpt>
      <trkpt lat="39.26207723699244" lon="-6.080392140303936"><ele>2364</ele><speed>11.14</speed><time>2016-07-09T13:33:22Z</time><pdop>6.0</pdop><geoidheight>50.60</geoidheight><course>36.34915</course><type>1</type></trkpt>
      <trkpt lat="39.262228655385655" lon="-6.080258419607036"><ele>2358</ele><speed>10.72</speed><time>2016-07-09T13:33:24Z</time><pdop>6.0</pdop><geoidheight>50.60</geoidheight><course>36.667664</course><type>1</type></trkpt>
      <trkpt lat="39.262358598096135" lon="-6.080137335338228"><ele>2352</ele><speed>8.61</speed><time>2016-07-09T13:33:26Z</time><pdop>6.0</pdop><geoidheight>50.60</geoidheight><course>37.884743</course><type>1</type></trkpt>
      <trkpt lat="39.26247141581474" lon="-6.0800313702067195"><ele>2348</ele><speed>8.06</speed><time>2016-07-09T13:33:28Z</time><pdop>6.0</pdop><geoidheight>50.60</geoidheight><course>35.466404</course><type>1</type></trkpt>
      <trkpt lat="39.262614728882404" lon="-6.079918389112329"><ele>2342</ele><speed>10.42</speed><time>2016-07-09T13:33:30Z</time><pdop>8.0</pdop><geoidheight>50.60</geoidheight><course>32.055492</course><type>1</type></trkpt>
      <trkpt lat="39.262772340756925" lon="-6.0798065926602325"><ele>2336</ele><speed>10.47</speed><time>2016-07-09T13:33:32Z</time><pdop>8.0</pdop><geoidheight>50.60</geoidheight><course>29.918976</course><type>1</type></trkpt>
      <trkpt lat="39.26292433114472" lon="-6.079720495537959"><ele>2330</ele><speed>9.49</speed><time>2016-07-09T13:33:35Z</time><pdop>8.0</pdop><geoidheight>50.60</geoidheight><course>24.812088</course><type>1</type></trkpt>
      <trkpt lat="39.26308133822191" lon="-6.07963730689725"><ele>2324</ele><speed>10.06</speed><time>2016-07-09T13:33:36Z</time><pdop>8.0</pdop><geoidheight>50.60</geoidheight><course>24.79756</course><type>1</type></trkpt>
      <trkpt lat="39.26323508792201" lon="-6.0795578627430364"><ele>2318</ele><speed>10.93</speed><time>2016-07-09T13:33:38Z</time><pdop>8.0</pdop><geoidheight>50.60</geoidheight><course>21.683891</course><type>1</type></trkpt>
      <trkpt lat="39.26342336459183" lon="-6.079478536839897"><ele>2311</ele><speed>11.91</speed><time>2016-07-09T13:33:41Z</time><pdop>8.0</pdop><geoidheight>50.60</geoidheight><course>18.94284</course><type>1</type></trkpt>
      <trkpt lat="39.26361996996685" lon="-6.079398402169365"><ele>2304</ele><speed>12.21</speed><time>2016-07-09T13:33:42Z</time><pdop>8.0</pdop><geoidheight>50.60</geoidheight><course>18.511065</course><type>1</type></trkpt>
      <trkpt lat="39.263812142171275" lon="-6.079331399928164"><ele>2297</ele><speed>11.43</speed><time>2016-07-09T13:33:44Z</time><pdop>8.0</pdop><geoidheight>50.60</geoidheight><course>16.828636</course><type>1</type></trkpt>
      <trkpt lat="39.264006388527335" lon="-6.079268099884694"><ele>2292</ele><speed>11.11</speed><time>2016-07-09T13:33:46Z</time><pdop>8.0</pdop><geoidheight>50.60</geoidheight><course>15.433131</course><type>1</type></trkpt>
      <trkpt lat="39.26420012289783" lon="-6.079214940954971"><ele>2287</ele><speed>11.56</speed><time>2016-07-09T13:33:48Z</time><pdop>8.0</pdop><geoidheight>50.60</geoidheight><course>13.729907</course><type>1</type></trkpt>
      <trkpt lat="39.26439641581338" lon="-6.079165201404036"><ele>2282</ele><speed>11.41</speed><time>2016-07-09T13:33:50Z</time><pdop>8.0</pdop><geoidheight>50.60</geoidheight><course>12.023555</course><type>1</type></trkpt>
      <trkpt lat="39.26459091733264" lon="-6.079121624362747"><ele>2278</ele><speed>10.41</speed><time>2016-07-09T13:33:52Z</time><pdop>8.0</pdop><geoidheight>50.60</geoidheight><course>10.338115</course><type>1</type></trkpt>
      <trkpt lat="39.26474236569922" lon="-6.079090618248519"><ele>2276</ele><speed>8.07</speed><time>2016-07-09T13:33:54Z</time><pdop>8.0</pdop><geoidheight>50.60</geoidheight><course>10.02639</course><type>1</type></trkpt>
      <trkpt lat="39.26490531378553" lon="-6.079058106584051"><ele>2272</ele><speed>9.43</speed><time>2016-07-09T13:33:56Z</time><pdop>8.0</pdop><geoidheight>50.60</geoidheight><course>11.004445</course><type>1</type></trkpt>
      <trkpt lat="39.265087068465405" lon="-6.079013697348799"><ele>2266</ele><speed>10.83</speed><time>2016-07-09T13:33:58Z</time><pdop>8.0</pdop><geoidheight>50.60</geoidheight><course>11.263083</course><type>1</type></trkpt>
      <trkpt lat="39.265268204716136" lon="-6.078992252776038"><ele>2260</ele><speed>10.37</speed><time>2016-07-09T13:34:00Z</time><pdop>8.0</pdop><geoidheight>50.60</geoidheight><course>5.779475</course><type>1</type></trkpt>
      <trkpt lat="39.26543416920842" lon="-6.0789787985660215"><ele>2255</ele><speed>9.02</speed><time>2016-07-09T13:34:02Z</time><pdop>8.0</pdop><geoidheight>50.60</geoidheight><course>7.5679545</course><type>1</type></trkpt>
      <trkpt lat="39.26560998419789" lon="-6.078960122632031"><ele>2250</ele><speed>10.36</speed><time>2016-07-09T13:34:04Z</time><pdop>8.0</pdop><geoidheight>50.60</geoidheight><course>5.837244</course><type>1</type></trkpt>
      <trkpt lat="39.265793466773104" lon="-6.078937084251453"><ele>2244</ele><speed>10.55</speed><time>2016-07-09T13:34:07Z</time><pdop>8.0</pdop><geoidheight>50.60</geoidheight><course>7.9281235</course><type>1</type></trkpt>
      <trkpt lat="39.26596781623261" lon="-6.078909007977272"><ele>2238</ele><speed>9.90</speed><time>2016-07-09T13:34:08Z</time><pdop>8.0</pdop><geoidheight>50.60</geoidheight><course>7.2039876</course><type>1</type></trkpt>
      <trkpt lat="39.266147748103016" lon="-6.07888281937405"><ele>2232</ele><speed>9.85</speed><time>2016-07-09T13:34:10Z</time><pdop>8.0</pdop><geoidheight>50.60</geoidheight><course>8.303634</course><type>1</type></trkpt>
      <trkpt lat="39.26635419829565" lon="-6.0787890851503095"><ele>2226</ele><speed>12.57</speed><time>2016-07-09T13:34:12Z</time><pdop>8.0</pdop><geoidheight>50.60</geoidheight><course>22.712742</course><type>1</type></trkpt>
      <trkpt lat="39.26653842180974" lon="-6.0787027221206404"><ele>2217</ele><speed>11.85</speed><time>2016-07-09T13:34:14Z</time><pdop>8.0</pdop><geoidheight>50.60</geoidheight><course>22.869234</course><type>1</type></trkpt>
      <trkpt lat="39.26670036548527" lon="-6.078634600752543"><ele>2208</ele><speed>10.43</speed><time>2016-07-09T13:34:16Z</time><pdop>8.0</pdop><geoidheight>50.60</geoidheight><course>19.909822</course><type>1</type></trkpt>
      <trkpt lat="39.26686454386483" lon="-6.078578681909213"><ele>2200</ele><speed>10.21</speed><time>2016-07-09T13:34:18Z</time><pdop>8.0</pdop><geoidheight>50.60</geoidheight><course>17.307861</course><type>1</type></trkpt>
      <trkpt lat="39.2670248313853" lon="-6.078529775604643"><ele>2193</ele><speed>10.65</speed><time>2016-07-09T13:34:20Z</time><pdop>8.0</pdop><geoidheight>50.60</geoidheight><course>16.029282</course><type>1</type></trkpt>
      <trkpt lat="39.26719696127504" lon="-6.0784760442199355"><ele>2187</ele><speed>10.97</speed><time>2016-07-09T13:34:22Z</time><pdop>8.0</pdop><geoidheight>50.60</geoidheight><course>16.563677</course><type>1</type></trkpt>
      <trkpt lat="39.26737553873775" lon="-6.078416957472985"><ele>2180</ele><speed>11.05</speed><time>2016-07-09T13:34:24Z</time><pdop>8.0</pdop><geoidheight>50.60</geoidheight><course>15.261592</course><type>1</type></trkpt>
      <trkpt lat="39.2675681860552" lon="-6.078360596130602"><ele>2175</ele><speed>11.31</speed><time>2016-07-09T13:34:26Z</time><pdop>8.0</pdop><geoidheight>50.60</geoidheight><course>15.131627</course><type>1</type></trkpt>
      <trkpt lat="39.26776252690511" lon="-6.078289689516988"><ele>2170</ele><speed>11.39</speed><time>2016-07-09T13:34:28Z</time><pdop>8.0</pdop><geoidheight>50.60</geoidheight><course>17.275782</course><type>1</type></trkpt>
      <trkpt lat="39.2679576757957" lon="-6.078207794112248"><ele>2166</ele><speed>11.13</speed><time>2016-07-09T13:34:30Z</time><pdop>8.0</pdop><geoidheight>50.60</geoidheight><course>18.708906</course><type>1</type></trkpt>
      <trkpt lat="39.268150266209815" lon="-6.078120803295663"><ele>2163</ele><speed>11.10</speed><time>2016-07-09T13:34:32Z</time><pdop>8.0</pdop><geoidheight>50.60</geoidheight><course>19.88094</course><type>1</type></trkpt>
      <trkpt lat="39.268344855698246" lon="-6.078028518648871"><ele>2159</ele><speed>12.23</speed><time>2016-07-09T13:34:34Z</time><pdop>8.0</pdop><geoidheight>50.60</geoidheight><course>21.181376</course><type>1</type></trkpt>
      <trkpt lat="39.268542960670324" lon="-6.077911863757706"><ele>2156</ele><speed>12.10</speed><time>2016-07-09T13:34:36Z</time><pdop>8.0</pdop><geoidheight>50.60</geoidheight><course>25.336956</course><type>1</type></trkpt>
      <trkpt lat="39.26871480479991" lon="-6.07778584220335"><ele>2153</ele><speed>9.87</speed><time>2016-07-09T13:34:39Z</time><pdop>8.0</pdop><geoidheight>50.60</geoidheight><course>30.118444</course><type>1</type></trkpt>
      <trkpt lat="39.26884260767722" lon="-6.077637630370637"><ele>2149</ele><speed>10.20</speed><time>2016-07-09T13:34:40Z</time><pdop>6.0</pdop><geoidheight>50.60</geoidheight><course>42.2787</course><type>1</type></trkpt>
      <trkpt lat="39.268981847346176" lon="-6.077487581286222"><ele>2145</ele><speed>11.20</speed><time>2016-07-09T13:34:42Z</time><pdop>6.0</pdop><geoidheight>50.60</geoidheight><course>40.69755</course><type>1</type></trkpt>
      <trkpt lat="39.26911542808507" lon="-6.077363663603044"><ele>2141</ele><speed>9.75</speed><time>2016-07-09T13:34:44Z</time><pdop>6.0</pdop><geoidheight>50.60</geoidheight><course>37.74419</course><type>1</type></trkpt>
      <trkpt lat="39.26925151803793" lon="-6.077231617092088"><ele>2137</ele><speed>10.32</speed><time>2016-07-09T13:34:46Z</time><pdop>6.0</pdop><geoidheight>50.60</geoidheight><course>39.72904</course><type>1</type></trkpt>
      <trkpt lat="39.26940555135181" lon="-6.0770820527263"><ele>2132</ele><speed>11.39</speed><time>2016-07-09T13:34:48Z</time><pdop>6.0</pdop><geoidheight>50.60</geoidheight><course>38.646168</course><type>1</type></trkpt>
      <trkpt lat="39.2695579208572" lon="-6.076940745657197"><ele>2126</ele><speed>11.41</speed><time>2016-07-09T13:34:50Z</time><pdop>6.0</pdop><geoidheight>50.60</geoidheight><course>39.950706</course><type>1</type></trkpt>
      <trkpt lat="39.26970718977044" lon="-6.076788171374792"><ele>2121</ele><speed>11.67</speed><time>2016-07-09T13:34:52Z</time><pdop>6.0</pdop><geoidheight>50.60</geoidheight><course>42.14869</course><type>1</type></trkpt>
      <trkpt lat="39.269862938698594" lon="-6.076619700771695"><ele>2116</ele><speed>11.66</speed><time>2016-07-09T13:34:54Z</time><pdop>6.0</pdop><geoidheight>50.60</geoidheight><course>42.430126</course><type>1</type></trkpt>
      <trkpt lat="39.27001064696964" lon="-6.076453096867248"><ele>2113</ele><speed>10.41</speed><time>2016-07-09T13:34:56Z</time><pdop>6.0</pdop><geoidheight>50.60</geoidheight><course>43.492714</course><type>1</type></trkpt>
      <trkpt lat="39.27014497574824" lon="-6.076298950417188"><ele>2110</ele><speed>10.15</speed><time>2016-07-09T13:34:58Z</time><pdop>6.0</pdop><geoidheight>50.60</geoidheight><course>42.273</course><type>1</type></trkpt>
      <trkpt lat="39.27028355792673" lon="-6.076141383243665"><ele>2108</ele><speed>10.22</speed><time>2016-07-09T13:35:00Z</time><pdop>6.0</pdop><geoidheight>50.60</geoidheight><course>41.631927</course><type>1</type></trkpt>
      <trkpt lat="39.270422284394726" lon="-6.075972323814567"><ele>2107</ele><speed>10.65</speed><time>2016-07-09T13:35:02Z</time><pdop>6.0</pdop><geoidheight>50.60</geoidheight><course>44.877636</course><type>1</type></trkpt>
      <trkpt lat="39.27055033068192" lon="-6.075792928275713"><ele>2105</ele><speed>10.20</speed><time>2016-07-09T13:35:04Z</time><pdop>6.0</pdop><geoidheight>50.60</geoidheight><course>47.413303</course><type>1</type></trkpt>
      <trkpt lat="39.27066815072422" lon="-6.075612073814663"><ele>2104</ele><speed>10.32</speed><time>2016-07-09T13:35:06Z</time><pdop>6.0</pdop><geoidheight>50.60</geoidheight><course>49.857166</course><type>1</type></trkpt>
      <trkpt lat="39.27077526946345" lon="-6.075443956937182"><ele>2103</ele><speed>9.38</speed><time>2016-07-09T13:35:08Z</time><pdop>6.0</pdop><geoidheight>50.60</geoidheight><course>49.310863</course><type>1</type></trkpt>
      <trkpt lat="39.27090300863991" lon="-6.075264663217241"><ele>2102</ele><speed>11.57</speed><time>2016-07-09T13:35:10Z</time><pdop>6.0</pdop><geoidheight>50.60</geoidheight><course>46.84735</course><type>1</type></trkpt>
      <trkpt lat="39.270978126424886" lon="-6.07516448449097"><ele>2101</ele><speed>12.75</speed><time>2016-07-09T13:35:11Z</time><pdop>6.0</pdop><geoidheight>50.60</geoidheight><course>45.995842</course><type>1</type></trkpt>
      <trkpt lat="39.27105619141166" lon="-6.07506784795801"><ele>2100</ele><speed>12.58</speed><time>2016-07-09T13:35:12Z</time><pdop>6.0</pdop><geoidheight>50.60</geoidheight><course>44.814423</course><type>1</type></trkpt>
      <trkpt lat="39.27122726808794" lon="-6.074917218539191"><ele>2097</ele><speed>11.50</speed><time>2016-07-09T13:35:14Z</time><pdop>6.0</pdop><geoidheight>50.60</geoidheight><course>29.12528</course><type>1</type></trkpt>
      <trkpt lat="39.27138886189223" lon="-6.07480308367688"><ele>2095</ele><speed>10.15</speed><time>2016-07-09T13:35:16Z</time><pdop>6.0</pdop><geoidheight>50.60</geoidheight><course>30.559423</course><type>1</type></trkpt>
      <trkpt lat="39.271542048856595" lon="-6.074678798964236"><ele>2093</ele><speed>10.54</speed><time>2016-07-09T13:35:18Z</time><pdop>6.0</pdop><geoidheight>50.60</geoidheight><course>33.29386</course><type>1</type></trkpt>
      <trkpt lat="39.271689530659245" lon="-6.074531036981168"><ele>2089</ele><speed>10.40</speed><time>2016-07-09T13:35:20Z</time><pdop>6.0</pdop><geoidheight>50.60</geoidheight><course>39.479057</course><type>1</type></trkpt>
      <trkpt lat="39.27181268556364" lon="-6.0743707376514955"><ele>2086</ele><speed>9.87</speed><time>2016-07-09T13:35:22Z</time><pdop>6.0</pdop><geoidheight>50.60</geoidheight><course>45.332</course><type>1</type></trkpt>
      <trkpt lat="39.27192042564634" lon="-6.074195265828237"><ele>2083</ele><speed>9.96</speed><time>2016-07-09T13:35:24Z</time><pdop>6.0</pdop><geoidheight>50.60</geoidheight><course>51.27447</course><type>1</type></trkpt>
      <trkpt lat="39.27201464374871" lon="-6.074006342488933"><ele>2080</ele><speed>10.31</speed><time>2016-07-09T13:35:26Z</time><pdop>6.0</pdop><geoidheight>50.60</geoidheight><course>56.280743</course><type>1</type></trkpt>
      <trkpt lat="39.272095768099405" lon="-6.073803777372315"><ele>2077</ele><speed>10.33</speed><time>2016-07-09T13:35:28Z</time><pdop>6.0</pdop><geoidheight>50.60</geoidheight><course>60.95618</course><type>1</type></trkpt>
      <trkpt lat="39.27218041018813" lon="-6.073595352690323"><ele>2073</ele><speed>11.08</speed><time>2016-07-09T13:35:30Z</time><pdop>6.0</pdop><geoidheight>50.60</geoidheight><course>59.93842</course><type>1</type></trkpt>
      <trkpt lat="39.27227297601403" lon="-6.073384546547318"><ele>2070</ele><speed>10.76</speed><time>2016-07-09T13:35:32Z</time><pdop>6.0</pdop><geoidheight>50.60</geoidheight><course>59.918873</course><type>1</type></trkpt>
      <trkpt lat="39.272367889699936" lon="-6.073167299005079"><ele>2066</ele><speed>11.91</speed><time>2016-07-09T13:35:34Z</time><pdop>6.0</pdop><geoidheight>50.60</geoidheight><course>61.237305</course><type>1</type></trkpt>
      <trkpt lat="39.27246262319127" lon="-6.072944928608912"><ele>2062</ele><speed>11.67</speed><time>2016-07-09T13:35:36Z</time><pdop>6.0</pdop><geoidheight>50.60</geoidheight><course>61.798916</course><type>1</type></trkpt>
      <trkpt lat="39.27255828172411" lon="-6.0727013313158045"><ele>2058</ele><speed>12.48</speed><time>2016-07-09T13:35:39Z</time><pdop>6.0</pdop><geoidheight>50.60</geoidheight><course>63.83341</course><type>1</type></trkpt>
      <trkpt lat="39.27264847800081" lon="-6.072462837095927"><ele>2055</ele><speed>11.39</speed><time>2016-07-09T13:35:40Z</time><pdop>6.0</pdop><geoidheight>50.60</geoidheight><course>63.817055</course><type>1</type></trkpt>
      <trkpt lat="39.27273692458602" lon="-6.072230351397553"><ele>2053</ele><speed>10.70</speed><time>2016-07-09T13:35:42Z</time><pdop>6.0</pdop><geoidheight>50.60</geoidheight><course>64.51991</course><type>1</type></trkpt>
      <trkpt lat="39.27282383191204" lon="-6.071990098595276"><ele>2053</ele><speed>11.10</speed><time>2016-07-09T13:35:44Z</time><pdop>6.0</pdop><geoidheight>50.60</geoidheight><course>65.44076</course><type>1</type></trkpt>
      <trkpt lat="39.27291238877781" lon="-6.071750172824356"><ele>2052</ele><speed>11.75</speed><time>2016-07-09T13:35:46Z</time><pdop>6.0</pdop><geoidheight>50.60</geoidheight><course>63.510788</course><type>1</type></trkpt>
      <trkpt lat="39.27300499230316" lon="-6.071513859546229"><ele>2050</ele><speed>11.98</speed><time>2016-07-09T13:35:48Z</time><pdop>6.0</pdop><geoidheight>50.60</geoidheight><course>63.383404</course><type>1</type></trkpt>
      <trkpt lat="39.273109725473574" lon="-6.071268640702688"><ele>2049</ele><speed>12.06</speed><time>2016-07-09T13:35:50Z</time><pdop>6.0</pdop><geoidheight>50.60</geoidheight><course>60.82265</course><type>1</type></trkpt>
      <trkpt lat="39.273211104099225" lon="-6.071013301418924"><ele>2048</ele><speed>12.41</speed><time>2016-07-09T13:35:52Z</time><pdop>6.0</pdop><geoidheight>50.60</geoidheight><course>64.88599</course><type>1</type></trkpt>
      <trkpt lat="39.27325551230954" lon="-6.070880729218068"><ele>2048</ele><speed>12.38</speed><time>2016-07-09T13:35:53Z</time><pdop>6.0</pdop><geoidheight>50.60</geoidheight><course>66.12296</course><type>1</type></trkpt>
      <trkpt lat="39.27330246916598" lon="-6.07074883612408"><ele>2047</ele><speed>12.37</speed><time>2016-07-09T13:35:55Z</time><pdop>6.0</pdop><geoidheight>50.60</geoidheight><course>65.09536</course><type>1</type></trkpt>
      <trkpt lat="39.2733947213069" lon="-6.070514952990683"><ele>2045</ele><speed>11.60</speed><time>2016-07-09T13:35:56Z</time><pdop>6.0</pdop><geoidheight>50.60</geoidheight><course>62.14676</course><type>1</type></trkpt>
      <trkpt lat="39.273486419470224" lon="-6.070280737411062"><ele>2045</ele><speed>11.72</speed><time>2016-07-09T13:35:58Z</time><pdop>8.0</pdop><geoidheight>50.60</geoidheight><course>64.26111</course><type>1</type></trkpt>
      <trkpt lat="39.273586344357156" lon="-6.0700257109902624"><ele>2046</ele><speed>11.70</speed><time>2016-07-09T13:36:01Z</time><pdop>8.0</pdop><geoidheight>50.60</geoidheight><course>64.3428</course><type>1</type></trkpt>
      <trkpt lat="39.27368266157378" lon="-6.069782757514475"><ele>2048</ele><speed>11.02</speed><time>2016-07-09T13:36:02Z</time><pdop>6.0</pdop><geoidheight>50.60</geoidheight><course>62.65379</course><type>1</type></trkpt>
      <trkpt lat="39.27377086769903" lon="-6.0695875447987975"><ele>2049</ele><speed>8.46</speed><time>2016-07-09T13:36:05Z</time><pdop>12.0</pdop><geoidheight>50.60</geoidheight><course>59.95449</course><type>1</type></trkpt>
      <trkpt lat="39.273910801566664" lon="-6.069318748040019"><ele>2055</ele><speed>9.13</speed><time>2016-07-09T13:36:07Z</time><pdop>8.0</pdop><geoidheight>50.60</geoidheight><course>55.03323</course><type>1</type></trkpt>
      <trkpt lat="39.274023804402454" lon="-6.069122654304758"><ele>2059</ele><speed>10.55</speed><time>2016-07-09T13:36:10Z</time><pdop>8.0</pdop><geoidheight>50.60</geoidheight><course>53.186478</course><type>1</type></trkpt>
      <trkpt lat="39.274182992154316" lon="-6.068855303506063"><ele>2063</ele><speed>9.32</speed><time>2016-07-09T13:36:12Z</time><pdop>12.0</pdop><geoidheight>50.60</geoidheight><course>51.79855</course><type>1</type></trkpt>
      <trkpt lat="39.27428911303541" lon="-6.068668079739854"><ele>2066</ele><speed>9.96</speed><time>2016-07-09T13:36:14Z</time><pdop>6.0</pdop><geoidheight>50.60</geoidheight><course>53.901157</course><type>1</type></trkpt>
      <trkpt lat="39.27440107040936" lon="-6.068458137687743"><ele>2069</ele><speed>10.87</speed><time>2016-07-09T13:36:16Z</time><pdop>6.0</pdop><geoidheight>50.60</geoidheight><course>53.75783</course><type>1</type></trkpt>
      <trkpt lat="39.27452287587179" lon="-6.068257546752438"><ele>2072</ele><speed>10.91</speed><time>2016-07-09T13:36:18Z</time><pdop>12.0</pdop><geoidheight>50.60</geoidheight><course>49.4406</course><type>1</type></trkpt>
      <trkpt lat="39.274655699268905" lon="-6.068061770413892"><ele>2075</ele><speed>10.27</speed><time>2016-07-09T13:36:20Z</time><pdop>8.0</pdop><geoidheight>50.60</geoidheight><course>48.673103</course><type>1</type></trkpt>
      <trkpt lat="39.27477213455658" lon="-6.067873407366913"><ele>2078</ele><speed>9.87</speed><time>2016-07-09T13:36:22Z</time><pdop>8.0</pdop><geoidheight>50.60</geoidheight><course>50.94803</course><type>1</type></trkpt>
      <trkpt lat="39.2748964662319" lon="-6.067659936432677"><ele>2081</ele><speed>11.53</speed><time>2016-07-09T13:36:24Z</time><pdop>8.0</pdop><geoidheight>50.60</geoidheight><course>52.606632</course><type>1</type></trkpt>
      <trkpt lat="39.275016497753974" lon="-6.067435164034188"><ele>2082</ele><speed>11.35</speed><time>2016-07-09T13:36:26Z</time><pdop>8.0</pdop><geoidheight>50.60</geoidheight><course>54.928177</course><type>1</type></trkpt>
      <trkpt lat="39.275126732872735" lon="-6.067200773383838"><ele>2084</ele><speed>12.01</speed><time>2016-07-09T13:36:28Z</time><pdop>6.0</pdop><geoidheight>50.60</geoidheight><course>57.41992</course><type>1</type></trkpt>
      <trkpt lat="39.2752341550158" lon="-6.066961895422936"><ele>2086</ele><speed>11.93</speed><time>2016-07-09T13:36:30Z</time><pdop>8.0</pdop><geoidheight>50.60</geoidheight><course>57.453094</course><type>1</type></trkpt>
      <trkpt lat="39.2753276834657" lon="-6.066747970859157"><ele>2087</ele><speed>10.19</speed><time>2016-07-09T13:36:32Z</time><pdop>8.0</pdop><geoidheight>50.60</geoidheight><course>59.218838</course><type>1</type></trkpt>
      <trkpt lat="39.27540555375853" lon="-6.066539062125208"><ele>2089</ele><speed>10.47</speed><time>2016-07-09T13:36:34Z</time><pdop>8.0</pdop><geoidheight>50.60</geoidheight><course>63.436314</course><type>1</type></trkpt>
      <trkpt lat="39.27549784345007" lon="-6.066299263529385"><ele>2090</ele><speed>12.62</speed><time>2016-07-09T13:36:36Z</time><pdop>8.0</pdop><geoidheight>50.60</geoidheight><course>60.316895</course><type>1</type></trkpt>
      <trkpt lat="39.27561580610194" lon="-6.066024511317152"><ele>2090</ele><speed>13.77</speed><time>2016-07-09T13:36:38Z</time><pdop>8.0</pdop><geoidheight>50.60</geoidheight><course>61.582024</course><type>1</type></trkpt>
      <trkpt lat="39.275724816881855" lon="-6.0657652473510915"><ele>2089</ele><speed>12.71</speed><time>2016-07-09T13:36:40Z</time><pdop>8.0</pdop><geoidheight>50.60</geoidheight><course>61.341404</course><type>1</type></trkpt>
      <trkpt lat="39.27584043108888" lon="-6.065499179471025"><ele>2088</ele><speed>13.22</speed><time>2016-07-09T13:36:42Z</time><pdop>6.0</pdop><geoidheight>50.60</geoidheight><course>59.732964</course><type>1</type></trkpt>
      <trkpt lat="39.275897992992604" lon="-6.065380148178654"><ele>2088</ele><speed>11.72</speed><time>2016-07-09T13:36:43Z</time><pdop>6.0</pdop><geoidheight>50.60</geoidheight><course>58.41781</course><type>1</type></trkpt>
      <trkpt lat="39.276007089561816" lon="-6.065181588245671"><ele>2090</ele><speed>9.45</speed><time>2016-07-09T13:36:45Z</time><pdop>6.0</pdop><geoidheight>50.60</geoidheight><course>54.04323</course><type>1</type></trkpt>
      <trkpt lat="39.276122434061605" lon="-6.064978739129382"><ele>2092</ele><speed>12.00</speed><time>2016-07-09T13:36:47Z</time><pdop>6.0</pdop><geoidheight>50.60</geoidheight><course>54.406425</course><type>1</type></trkpt>
      <trkpt lat="39.27624676581302" lon="-6.064743254342835"><ele>2093</ele><speed>12.73</speed><time>2016-07-09T13:36:49Z</time><pdop>12.0</pdop><geoidheight>50.60</geoidheight><course>54.439774</course><type>1</type></trkpt>
      <trkpt lat="39.276384779050005" lon="-6.064528144037761"><ele>2094</ele><speed>11.21</speed><time>2016-07-09T13:36:52Z</time><pdop>8.0</pdop><geoidheight>50.60</geoidheight><course>49.6715</course><type>1</type></trkpt>
      <trkpt lat="39.27653797654441" lon="-6.064311453082778"><ele>2096</ele><speed>11.92</speed><time>2016-07-09T13:36:53Z</time><pdop>8.0</pdop><geoidheight>50.60</geoidheight><course>47.48828</course><type>1</type></trkpt>
      <trkpt lat="39.276702564642896" lon="-6.064093350660848"><ele>2100</ele><speed>12.60</speed><time>2016-07-09T13:36:55Z</time><pdop>8.0</pdop><geoidheight>50.60</geoidheight><course>45.709267</course><type>1</type></trkpt>
      <trkpt lat="39.27685848084284" lon="-6.063889985702712"><ele>2104</ele><speed>11.05</speed><time>2016-07-09T13:36:57Z</time><pdop>8.0</pdop><geoidheight>50.60</geoidheight><course>45.5719</course><type>1</type></trkpt>
      <trkpt lat="39.27699950389659" lon="-6.063701119147973"><ele>2110</ele><speed>11.70</speed><time>2016-07-09T13:36:59Z</time><pdop>12.0</pdop><geoidheight>50.60</geoidheight><course>46.281933</course><type>1</type></trkpt>
      <trkpt lat="39.27715146989153" lon="-6.063486366751046"><ele>2116</ele><speed>12.39</speed><time>2016-07-09T13:37:01Z</time><pdop>12.0</pdop><geoidheight>50.60</geoidheight><course>47.93224</course><type>1</type></trkpt>
      <trkpt lat="39.27732847444858" lon="-6.063294274540754"><ele>2121</ele><speed>11.32</speed><time>2016-07-09T13:37:03Z</time><pdop>8.0</pdop><geoidheight>50.60</geoidheight><course>27.988749</course><type>1</type></trkpt>
      <trkpt lat="39.277489325841024" lon="-6.063111960810806"><ele>2128</ele><speed>9.89</speed><time>2016-07-09T13:37:06Z</time><pdop>8.0</pdop><geoidheight>50.60</geoidheight><course>40.306843</course><type>1</type></trkpt>
      <trkpt lat="39.27763465184551" lon="-6.062886298621714"><ele>2135</ele><speed>11.78</speed><time>2016-07-09T13:37:07Z</time><pdop>8.0</pdop><geoidheight>50.60</geoidheight><course>43.777687</course><type>1</type></trkpt>
      <trkpt lat="39.2777933711868" lon="-6.062674118419336"><ele>2141</ele><speed>10.94</speed><time>2016-07-09T13:37:10Z</time><pdop>8.0</pdop><geoidheight>50.60</geoidheight><course>39.17986</course><type>1</type></trkpt>
      <trkpt lat="39.27793433525899" lon="-6.062483763508343"><ele>2147</ele><speed>9.75</speed><time>2016-07-09T13:37:11Z</time><pdop>8.0</pdop><geoidheight>50.60</geoidheight><course>41.244656</course><type>1</type></trkpt>
      <trkpt lat="39.27805401472218" lon="-6.062302875288533"><ele>2154</ele><speed>9.21</speed><time>2016-07-09T13:37:13Z</time><pdop>8.0</pdop><geoidheight>50.60</geoidheight><course>42.680965</course><type>1</type></trkpt>
      <trkpt lat="39.27817005366227" lon="-6.062124176642999"><ele>2160</ele><speed>9.70</speed><time>2016-07-09T13:37:15Z</time><pdop>8.0</pdop><geoidheight>50.60</geoidheight><course>44.306545</course><type>1</type></trkpt>
      <trkpt lat="39.278268144856064" lon="-6.061931753702585"><ele>2166</ele><speed>9.13</speed><time>2016-07-09T13:37:17Z</time><pdop>8.0</pdop><geoidheight>50.60</geoidheight><course>58.996838</course><type>1</type></trkpt>
      <trkpt lat="39.278231266696785" lon="-6.061608530277353"><ele>2173</ele><speed>10.40</speed><time>2016-07-09T13:37:20Z</time><pdop>8.0</pdop><geoidheight>50.60</geoidheight><course>122.38768</course><type>1</type></trkpt>
      <trkpt lat="39.278036995174396" lon="-6.06154020246339"><ele>2177</ele><speed>8.64</speed><time>2016-07-09T13:37:23Z</time><pdop>8.0</pdop><geoidheight>50.60</geoidheight><course>198.60052</course><type>1</type></trkpt>
      <trkpt lat="39.277905288941525" lon="-6.061625007698764"><ele>2179</ele><speed>7.75</speed><time>2016-07-09T13:37:26Z</time><pdop>6.0</pdop><geoidheight>50.60</geoidheight><course>222.11331</course><type>1</type></trkpt>
      <trkpt lat="39.277847599438275" lon="-6.061814293209667"><ele>2182</ele><speed>11.57</speed><time>2016-07-09T13:37:28Z</time><pdop>6.0</pdop><geoidheight>50.60</geoidheight><course>263.116</course><type>1</type></trkpt>
      <trkpt lat="39.27789392093254" lon="-6.062031440153082"><ele>2184</ele><speed>12.33</speed><time>2016-07-09T13:37:30Z</time><pdop>8.0</pdop><geoidheight>50.60</geoidheight><course>299.39926</course><type>1</type></trkpt>
      <trkpt lat="39.27808819338354" lon="-6.062263663459907"><ele>2186</ele><speed>9.35</speed><time>2016-07-09T13:37:32Z</time><pdop>8.0</pdop><geoidheight>50.60</geoidheight><course>325.88516</course><type>1</type></trkpt>
      <trkpt lat="39.278242303400525" lon="-6.062418304628959"><ele>2189</ele><speed>11.57</speed><time>2016-07-09T13:37:34Z</time><pdop>8.0</pdop><geoidheight>50.60</geoidheight><course>327.2791</course><type>1</type></trkpt>
      <trkpt lat="39.27844043299417" lon="-6.062517927492548"><ele>2193</ele><speed>12.83</speed><time>2016-07-09T13:37:36Z</time><pdop>8.0</pdop><geoidheight>50.60</geoidheight><course>349.07645</course><type>1</type></trkpt>
      <trkpt lat="39.278637665805746" lon="-6.062517992844635"><ele>2197</ele><speed>11.51</speed><time>2016-07-09T13:37:39Z</time><pdop>8.0</pdop><geoidheight>50.60</geoidheight><course>4.2744613</course><type>1</type></trkpt>
      <trkpt lat="39.278775282471926" lon="-6.062374039796214"><ele>2200</ele><speed>10.73</speed><time>2016-07-09T13:37:40Z</time><pdop>8.0</pdop><geoidheight>50.60</geoidheight><course>57.58835</course><type>1</type></trkpt>
      <trkpt lat="39.27888062463859" lon="-6.062203989471977"><ele>2204</ele><speed>8.09</speed><time>2016-07-09T13:37:42Z</time><pdop>6.0</pdop><geoidheight>50.60</geoidheight><course>58.37744</course><type>1</type></trkpt>
      <trkpt lat="39.27898209676607" lon="-6.062027837151305"><ele>2206</ele><speed>8.86</speed><time>2016-07-09T13:37:44Z</time><pdop>8.0</pdop><geoidheight>50.60</geoidheight><course>52.143085</course><type>1</type></trkpt>
      <trkpt lat="39.27910548005044" lon="-6.061844915007513"><ele>2208</ele><speed>10.77</speed><time>2016-07-09T13:37:46Z</time><pdop>8.0</pdop><geoidheight>50.60</geoidheight><course>49.982105</course><type>1</type></trkpt>
      <trkpt lat="39.27923326567871" lon="-6.061653531711283"><ele>2209</ele><speed>10.36</speed><time>2016-07-09T13:37:48Z</time><pdop>6.0</pdop><geoidheight>50.60</geoidheight><course>51.090157</course><type>1</type></trkpt>
      <trkpt lat="39.27935974749775" lon="-6.061468974119254"><ele>2211</ele><speed>10.79</speed><time>2016-07-09T13:37:50Z</time><pdop>8.0</pdop><geoidheight>50.60</geoidheight><course>48.53982</course><type>1</type></trkpt>
      <trkpt lat="39.27949280264792" lon="-6.0612850557581055"><ele>2212</ele><speed>11.08</speed><time>2016-07-09T13:37:52Z</time><pdop>8.0</pdop><geoidheight>50.60</geoidheight><course>47.377613</course><type>1</type></trkpt>
      <trkpt lat="39.279628791002104" lon="-6.06109770563807"><ele>2213</ele><speed>10.23</speed><time>2016-07-09T13:37:54Z</time><pdop>8.0</pdop><geoidheight>50.60</geoidheight><course>48.38869</course><type>1</type></trkpt>
      <trkpt lat="39.27974605987561" lon="-6.060951069057272"><ele>2213</ele><speed>9.68</speed><time>2016-07-09T13:37:56Z</time><pdop>8.0</pdop><geoidheight>50.60</geoidheight><course>43.957005</course><type>1</type></trkpt>
      <trkpt lat="39.279871043935024" lon="-6.0608050409134835"><ele>2214</ele><speed>8.47</speed><time>2016-07-09T13:37:58Z</time><pdop>8.0</pdop><geoidheight>50.60</geoidheight><course>42.72574</course><type>1</type></trkpt>
      <trkpt lat="39.27997964326088" lon="-6.060686189692818"><ele>2217</ele><speed>7.04</speed><time>2016-07-09T13:38:00Z</time><pdop>6.0</pdop><geoidheight>50.60</geoidheight><course>39.89953</course><type>1</type></trkpt>
      <trkpt lat="39.28008127100469" lon="-6.060568029284972"><ele>2221</ele><speed>7.17</speed><time>2016-07-09T13:38:02Z</time><pdop>6.0</pdop><geoidheight>50.60</geoidheight><course>42.412727</course><type>1</type></trkpt>
      <trkpt lat="39.28015359578225" lon="-6.060426398756638"><ele>2225</ele><speed>6.76</speed><time>2016-07-09T13:38:04Z</time><pdop>8.0</pdop><geoidheight>50.60</geoidheight><course>57.14511</course><type>1</type></trkpt>
      <trkpt lat="39.28026335658417" lon="-6.060212928348465"><ele>2234</ele><speed>6.23</speed><time>2016-07-09T13:38:07Z</time><pdop>6.0</pdop><geoidheight>50.60</geoidheight><course>57.03801</course><type>1</type></trkpt>
      <trkpt lat="39.280327876676914" lon="-6.060084848777937"><ele>2240</ele><speed>5.35</speed><time>2016-07-09T13:38:09Z</time><pdop>6.0</pdop><geoidheight>50.60</geoidheight><course>55.52077</course><type>1</type></trkpt>
      <trkpt lat="39.280393380393036" lon="-6.059955647831669"><ele>2246</ele><speed>5.42</speed><time>2016-07-09T13:38:11Z</time><pdop>6.0</pdop><geoidheight>50.60</geoidheight><course>55.082493</course><type>1</type></trkpt>
      <trkpt lat="39.28049285920692" lon="-6.059779024616101"><ele>2255</ele><speed>5.25</speed><time>2016-07-09T13:38:14Z</time><pdop>8.0</pdop><geoidheight>50.60</geoidheight><course>50.142242</course><type>1</type></trkpt>
      <trkpt lat="39.28061559873434" lon="-6.059589569440401"><ele>2266</ele><speed>6.41</speed><time>2016-07-09T13:38:18Z</time><pdop>8.0</pdop><geoidheight>50.60</geoidheight><course>46.653435</course><type>1</type></trkpt>
      <trkpt lat="39.280735954533405" lon="-6.059402165802541"><ele>2274</ele><speed>6.44</speed><time>2016-07-09T13:38:21Z</time><pdop>8.0</pdop><geoidheight>50.60</geoidheight><course>48.618324</course><type>1</type></trkpt>
      <trkpt lat="39.280900344070375" lon="-6.059246434926317"><ele>2288</ele><speed>4.82</speed><time>2016-07-09T13:38:27Z</time><pdop>12.0</pdop><geoidheight>50.60</geoidheight><course>45.246685</course><type>1</type></trkpt>
      <trkpt lat="39.28097047685345" lon="-6.059017173935731"><ele>2304</ele><speed>6.76</speed><time>2016-07-09T13:38:31Z</time><pdop>8.0</pdop><geoidheight>50.60</geoidheight><course>92.89235</course><type>1</type></trkpt>
      <trkpt lat="39.28078479665892" lon="-6.058790285744651"><ele>2313</ele><speed>11.35</speed><time>2016-07-09T13:38:34Z</time><pdop>12.0</pdop><geoidheight>50.60</geoidheight><course>168.0812</course><type>1</type></trkpt>
      <trkpt lat="39.28053838213278" lon="-6.0589006214635805"><ele>2319</ele><speed>15.53</speed><time>2016-07-09T13:38:36Z</time><pdop>16.0</pdop><geoidheight>50.60</geoidheight><course>188.29153</course><type>1</type></trkpt>
      <trkpt lat="39.28053817451847" lon="-6.05927044744931"><ele>2331</ele><speed>13.75</speed><time>2016-07-09T13:38:40Z</time><pdop>12.0</pdop><geoidheight>50.60</geoidheight><course>298.65225</course><type>1</type></trkpt>
      <trkpt lat="39.280719444002216" lon="-6.059441340174411"><ele>2341</ele><speed>9.04</speed><time>2016-07-09T13:38:42Z</time><pdop>8.0</pdop><geoidheight>50.60</geoidheight><course>326.54074</course><type>1</type></trkpt>
      <trkpt lat="39.28083891539047" lon="-6.059218514030467"><ele>2358</ele><speed>6.41</speed><time>2016-07-09T13:38:46Z</time><pdop>8.0</pdop><geoidheight>50.60</geoidheight><course>102.506676</course><type>1</type></trkpt>
      <trkpt lat="39.280733450967844" lon="-6.059029568773542"><ele>2372</ele><speed>9.92</speed><time>2016-07-09T13:38:49Z</time><pdop>12.0</pdop><geoidheight>50.60</geoidheight><course>151.34904</course><type>1</type></trkpt>
      <trkpt lat="39.28044808178908" lon="-6.0590153197209125"><ele>2382</ele><speed>13.64</speed><time>2016-07-09T13:38:52Z</time><pdop>12.0</pdop><geoidheight>50.60</geoidheight><course>188.35158</course><type>1</type></trkpt>
      <trkpt lat="39.28023351158105" lon="-6.059115709073956"><ele>2390</ele><speed>13.01</speed><time>2016-07-09T13:38:54Z</time><pdop>8.0</pdop><geoidheight>50.60</geoidheight><course>220.98222</course><type>1</type></trkpt>
      <trkpt lat="39.28007628650801" lon="-6.059277332640215"><ele>2400</ele><speed>10.58</speed><time>2016-07-09T13:38:56Z</time><pdop>6.0</pdop><geoidheight>50.60</geoidheight><course>226.57968</course><type>1</type></trkpt>
      <trkpt lat="39.2799509856024" lon="-6.059470029679228"><ele>2409</ele><speed>11.09</speed><time>2016-07-09T13:38:58Z</time><pdop>6.0</pdop><geoidheight>50.60</geoidheight><course>233.22858</course><type>1</type></trkpt>
      <trkpt lat="39.279925185755964" lon="-6.0597516167169685"><ele>2418</ele><speed>13.10</speed><time>2016-07-09T13:39:01Z</time><pdop>8.0</pdop><geoidheight>50.60</geoidheight><course>277.40317</course><type>1</type></trkpt>
      <trkpt lat="39.27998957778307" lon="-6.060019412457885"><ele>2426</ele><speed>11.34</speed><time>2016-07-09T13:39:02Z</time><pdop>12.0</pdop><geoidheight>50.60</geoidheight><course>303.48495</course><type>1</type></trkpt>
      <trkpt lat="39.28021045382815" lon="-6.060058144296003"><ele>2436</ele><speed>7.41</speed><time>2016-07-09T13:39:06Z</time><pdop>12.0</pdop><geoidheight>50.60</geoidheight><course>18.571293</course><type>1</type></trkpt>
      <trkpt lat="39.28031441161779" lon="-6.059806801099207"><ele>2450</ele><speed>5.65</speed><time>2016-07-09T13:39:09Z</time><pdop>8.0</pdop><geoidheight>50.60</geoidheight><course>109.85306</course><type>1</type></trkpt>
      <trkpt lat="39.280148174917954" lon="-6.05967666442888"><ele>2461</ele><speed>11.09</speed><time>2016-07-09T13:39:12Z</time><pdop>8.0</pdop><geoidheight>50.60</geoidheight><course>164.64145</course><type>1</type></trkpt>
      <trkpt lat="39.27995736096569" lon="-6.059776425223835"><ele>2469</ele><speed>13.18</speed><time>2016-07-09T13:39:14Z</time><pdop>8.0</pdop><geoidheight>50.60</geoidheight><course>188.75208</course><type>1</type></trkpt>
      <trkpt lat="39.27985353796346" lon="-6.060087980368628"><ele>2478</ele><speed>11.31</speed><time>2016-07-09T13:39:17Z</time><pdop>8.0</pdop><geoidheight>50.60</geoidheight><course>228.10077</course><type>1</type></trkpt>
      <trkpt lat="39.2799973784436" lon="-6.060340389499725"><ele>2487</ele><speed>11.49</speed><time>2016-07-09T13:39:18Z</time><pdop>8.0</pdop><geoidheight>50.60</geoidheight><course>313.16812</course><type>1</type></trkpt>
      <trkpt lat="39.28016710839971" lon="-6.060489807125255"><ele>2495</ele><speed>8.89</speed><time>2016-07-09T13:39:20Z</time><pdop>8.0</pdop><geoidheight>50.60</geoidheight><course>334.41638</course><type>1</type></trkpt>
      <trkpt lat="39.28032022713773" lon="-6.060372758541662"><ele>2508</ele><speed>8.30</speed><time>2016-07-09T13:39:23Z</time><pdop>8.0</pdop><geoidheight>50.60</geoidheight><course>86.62738</course><type>1</type></trkpt>
      <trkpt lat="39.280202023033674" lon="-6.060160544206797"><ele>2515</ele><speed>8.75</speed><time>2016-07-09T13:39:26Z</time><pdop>8.0</pdop><geoidheight>50.60</geoidheight><course>123.097786</course><type>1</type></trkpt>
      <trkpt lat="39.28001432966156" lon="-6.0601606770083345"><ele>2522</ele><speed>11.20</speed><time>2016-07-09T13:39:28Z</time><pdop>8.0</pdop><geoidheight>50.60</geoidheight><course>191.92465</course><type>1</type></trkpt>
      <trkpt lat="39.27982626512114" lon="-6.060298207568884"><ele>2530</ele><speed>11.97</speed><time>2016-07-09T13:39:30Z</time><pdop>6.0</pdop><geoidheight>50.60</geoidheight><course>217.96324</course><type>1</type></trkpt>
      <trkpt lat="39.27974278888199" lon="-6.060387587813645"><ele>2535</ele><speed>13.00</speed><time>2016-07-09T13:39:31Z</time><pdop>6.0</pdop><geoidheight>50.60</geoidheight><course>221.88776</course><type>1</type></trkpt>
      <trkpt lat="39.27968834229887" lon="-6.060520558837748"><ele>2539</ele><speed>13.27</speed><time>2016-07-09T13:39:32Z</time><pdop>6.0</pdop><geoidheight>50.60</geoidheight><course>244.95111</course><type>1</type></trkpt>
      <trkpt lat="39.279665395391646" lon="-6.060669179410191"><ele>2544</ele><speed>13.08</speed><time>2016-07-09T13:39:33Z</time><pdop>6.0</pdop><geoidheight>50.60</geoidheight><course>262.2579</course><type>1</type></trkpt>
      <trkpt lat="39.27970345961952" lon="-6.060909281280057"><ele>2551</ele><speed>12.88</speed><time>2016-07-09T13:39:36Z</time><pdop>8.0</pdop><geoidheight>50.60</geoidheight><course>292.86017</course><type>1</type></trkpt>
      <trkpt lat="39.27979196740698" lon="-6.061164958870565"><ele>2558</ele><speed>11.03</speed><time>2016-07-09T13:39:37Z</time><pdop>8.0</pdop><geoidheight>50.60</geoidheight><course>299.64487</course><type>1</type></trkpt>
      <trkpt lat="39.2800017036702" lon="-6.0613462577613335"><ele>2568</ele><speed>11.52</speed><time>2016-07-09T13:39:40Z</time><pdop>12.0</pdop><geoidheight>50.60</geoidheight><course>359.34677</course><type>1</type></trkpt>
      <trkpt lat="39.28020059379879" lon="-6.06120222629281"><ele>2574</ele><speed>3.79</speed><time>2016-07-09T13:39:43Z</time><pdop>12.0</pdop><geoidheight>50.60</geoidheight><course>38.96268</course><type>1</type></trkpt>
      <trkpt lat="39.28028931166884" lon="-6.060945101147298"><ele>2590</ele><speed>6.10</speed><time>2016-07-09T13:39:48Z</time><pdop>8.0</pdop><geoidheight>50.60</geoidheight><course>97.940636</course><type>1</type></trkpt>
      <trkpt lat="39.280170066650975" lon="-6.060740389790951"><ele>2600</ele><speed>10.68</speed><time>2016-07-09T13:39:50Z</time><pdop>8.0</pdop><geoidheight>50.60</geoidheight><course>163.7837</course><type>1</type></trkpt>
      <trkpt lat="39.27993917969249" lon="-6.060810454895379"><ele>2607</ele><speed>12.90</speed><time>2016-07-09T13:39:52Z</time><pdop>8.0</pdop><geoidheight>50.60</geoidheight><course>213.11102</course><type>1</type></trkpt>
      <trkpt lat="39.27978494600296" lon="-6.060970385177872"><ele>2614</ele><speed>11.06</speed><time>2016-07-09T13:39:55Z</time><pdop>6.0</pdop><geoidheight>50.60</geoidheight><course>235.55083</course><type>1</type></trkpt>
      <trkpt lat="39.2797167988414" lon="-6.061172102285113"><ele>2622</ele><speed>10.79</speed><time>2016-07-09T13:39:56Z</time><pdop>6.0</pdop><geoidheight>50.60</geoidheight><course>258.34515</course><type>1</type></trkpt>
      <trkpt lat="39.2797019992635" lon="-6.061425147734677"><ele>2631</ele><speed>11.14</speed><time>2016-07-09T13:39:59Z</time><pdop>6.0</pdop><geoidheight>50.60</geoidheight><course>278.61746</course><type>1</type></trkpt>
      <trkpt lat="39.279753743479844" lon="-6.061648820740054"><ele>2638</ele><speed>10.42</speed><time>2016-07-09T13:40:00Z</time><pdop>8.0</pdop><geoidheight>50.60</geoidheight><course>290.9721</course><type>1</type></trkpt>
      <trkpt lat="39.279945496317374" lon="-6.061786663935078"><ele>2649</ele><speed>9.35</speed><time>2016-07-09T13:40:04Z</time><pdop>8.0</pdop><geoidheight>50.60</geoidheight><course>2.2825813</course><type>1</type></trkpt>
      <trkpt lat="39.28012063104052" lon="-6.061736049678158"><ele>2656</ele><speed>3.76</speed><time>2016-07-09T13:40:06Z</time><pdop>8.0</pdop><geoidheight>50.60</geoidheight><course>17.939716</course><type>1</type></trkpt>
      <trkpt lat="39.28030398463177" lon="-6.061638313344485"><ele>2665</ele><speed>5.49</speed><time>2016-07-09T13:40:09Z</time><pdop>8.0</pdop><geoidheight>50.60</geoidheight><course>49.13644</course><type>1</type></trkpt>
      <trkpt lat="39.28042028962605" lon="-6.061434488140777"><ele>2675</ele><speed>6.28</speed><time>2016-07-09T13:40:12Z</time><pdop>6.0</pdop><geoidheight>50.60</geoidheight><course>63.478012</course><type>1</type></trkpt>
      <trkpt lat="39.28048591148364" lon="-6.061286600565784"><ele>2680</ele><speed>6.91</speed><time>2016-07-09T13:40:14Z</time><pdop>6.0</pdop><geoidheight>50.60</geoidheight><course>63.43625</course><type>1</type></trkpt>
      <trkpt lat="39.28055391713435" lon="-6.0611315506767784"><ele>2684</ele><speed>6.40</speed><time>2016-07-09T13:40:16Z</time><pdop>8.0</pdop><geoidheight>50.60</geoidheight><course>64.56657</course><type>1</type></trkpt>
      <trkpt lat="39.28065234638322" lon="-6.060904203563288"><ele>2691</ele><speed>6.65</speed><time>2016-07-09T13:40:19Z</time><pdop>8.0</pdop><geoidheight>50.60</geoidheight><course>61.7433</course><type>1</type></trkpt>
      <trkpt lat="39.280757088924865" lon="-6.060652196353371"><ele>2699</ele><speed>8.20</speed><time>2016-07-09T13:40:23Z</time><pdop>8.0</pdop><geoidheight>50.60</geoidheight><course>62.91498</course><type>1</type></trkpt>
      <trkpt lat="39.28083733689025" lon="-6.060459501898093"><ele>2704</ele><speed>8.79</speed><time>2016-07-09T13:40:24Z</time><pdop>8.0</pdop><geoidheight>50.60</geoidheight><course>60.656662</course><type>1</type></trkpt>
      <trkpt lat="39.28091048884843" lon="-6.06028948086117"><ele>2709</ele><speed>7.22</speed><time>2016-07-09T13:40:26Z</time><pdop>8.0</pdop><geoidheight>50.60</geoidheight><course>62.0346</course><type>1</type></trkpt>
      <trkpt lat="39.28099863133862" lon="-6.0600621482537305"><ele>2716</ele><speed>7.61</speed><time>2016-07-09T13:40:29Z</time><pdop>8.0</pdop><geoidheight>50.60</geoidheight><course>66.434494</course><type>1</type></trkpt>
      <trkpt lat="39.28107661512201" lon="-6.059772415960233"><ele>2724</ele><speed>7.99</speed><time>2016-07-09T13:40:32Z</time><pdop>6.0</pdop><geoidheight>50.60</geoidheight><course>68.81069</course><type>1</type></trkpt>
      <trkpt lat="39.281123232669415" lon="-6.059608827176566"><ele>2730</ele><speed>6.53</speed><time>2016-07-09T13:40:34Z</time><pdop>6.0</pdop><geoidheight>50.60</geoidheight><course>70.860664</course><type>1</type></trkpt>
      <trkpt lat="39.28115303738891" lon="-6.0594411761705205"><ele>2735</ele><speed>7.35</speed><time>2016-07-09T13:40:36Z</time><pdop>6.0</pdop><geoidheight>50.60</geoidheight><course>77.266884</course><type>1</type></trkpt>
      <trkpt lat="39.28117887634181" lon="-6.059257162203003"><ele>2739</ele><speed>8.30</speed><time>2016-07-09T13:40:39Z</time><pdop>6.0</pdop><geoidheight>50.60</geoidheight><course>79.46923</course><type>1</type></trkpt>
      <trkpt lat="39.28121952892144" lon="-6.0590800852692945"><ele>2744</ele><speed>6.65</speed><time>2016-07-09T13:40:41Z</time><pdop>8.0</pdop><geoidheight>50.60</geoidheight><course>64.75859</course><type>1</type></trkpt>
      <trkpt lat="39.28127411760875" lon="-6.058890574820148"><ele>2754</ele><speed>4.37</speed><time>2016-07-09T13:40:43Z</time><pdop>8.0</pdop><geoidheight>50.60</geoidheight><course>77.13914</course><type>1</type></trkpt>
      <trkpt lat="39.281316459332714" lon="-6.058646960509462"><ele>2763</ele><speed>7.30</speed><time>2016-07-09T13:40:46Z</time><pdop>8.0</pdop><geoidheight>50.60</geoidheight><course>74.91911</course><type>1</type></trkpt>
      <trkpt lat="39.28138901278946" lon="-6.058392664162336"><ele>2772</ele><speed>6.92</speed><time>2016-07-09T13:40:49Z</time><pdop>8.0</pdop><geoidheight>50.60</geoidheight><course>73.26892</course><type>1</type></trkpt>
      <trkpt lat="39.281427252924956" lon="-6.058185021033279"><ele>2779</ele><speed>8.93</speed><time>2016-07-09T13:40:52Z</time><pdop>8.0</pdop><geoidheight>50.60</geoidheight><course>78.09602</course><type>1</type></trkpt>
      <trkpt lat="39.28145355978629" lon="-6.0579850777393025"><ele>2787</ele><speed>6.78</speed><time>2016-07-09T13:40:53Z</time><pdop>8.0</pdop><geoidheight>50.60</geoidheight><course>78.099396</course><type>1</type></trkpt>
      <trkpt lat="39.28148152975937" lon="-6.057735269947281"><ele>2800</ele><speed>6.65</speed><time>2016-07-09T13:40:56Z</time><pdop>8.0</pdop><geoidheight>50.60</geoidheight><course>82.91922</course><type>1</type></trkpt>
      <trkpt lat="39.28150117492159" lon="-6.057526557812019"><ele>2808</ele><speed>8.28</speed><time>2016-07-09T13:40:58Z</time><pdop>8.0</pdop><geoidheight>50.60</geoidheight><course>80.896645</course><type>1</type></trkpt>
      <trkpt lat="39.281550007315104" lon="-6.057329074894394"><ele>2816</ele><speed>7.58</speed><time>2016-07-09T13:41:01Z</time><pdop>8.0</pdop><geoidheight>50.60</geoidheight><course>64.860214</course><type>1</type></trkpt>
      <trkpt lat="39.28166059689126" lon="-6.05705162648912"><ele>2827</ele><speed>8.41</speed><time>2016-07-09T13:41:04Z</time><pdop>8.0</pdop><geoidheight>50.60</geoidheight><course>60.196766</course><type>1</type></trkpt>
      <trkpt lat="39.28177664594315" lon="-6.056799916822673"><ele>2838</ele><speed>8.02</speed><time>2016-07-09T13:41:06Z</time><pdop>8.0</pdop><geoidheight>50.60</geoidheight><course>55.982224</course><type>1</type></trkpt>
      <trkpt lat="39.28192227864874" lon="-6.056535052195791"><ele>2850</ele><speed>7.44</speed><time>2016-07-09T13:41:09Z</time><pdop>16.0</pdop><geoidheight>50.60</geoidheight><course>52.485218</course><type>1</type></trkpt>
      <trkpt lat="39.282053857193894" lon="-6.056306426956159"><ele>2861</ele><speed>7.61</speed><time>2016-07-09T13:41:12Z</time><pdop>8.0</pdop><geoidheight>50.60</geoidheight><course>49.949585</course><type>1</type></trkpt>
      <trkpt lat="39.28215766108257" lon="-6.0561249156731485"><ele>2868</ele><speed>8.89</speed><time>2016-07-09T13:41:14Z</time><pdop>8.0</pdop><geoidheight>50.60</geoidheight><course>52.488373</course><type>1</type></trkpt>
      <trkpt lat="39.282244308353775" lon="-6.055969760594409"><ele>2875</ele><speed>6.48</speed><time>2016-07-09T13:41:16Z</time><pdop>6.0</pdop><geoidheight>50.60</geoidheight><course>49.433422</course><type>1</type></trkpt>
      <trkpt lat="39.28233822737784" lon="-6.055854251950142"><ele>2882</ele><speed>6.20</speed><time>2016-07-09T13:41:18Z</time><pdop>8.0</pdop><geoidheight>50.60</geoidheight><course>32.184235</course><type>1</type></trkpt>
      <trkpt lat="39.28251679688094" lon="-6.055668704196053"><ele>2892</ele><speed>7.80</speed><time>2016-07-09T13:41:21Z</time><pdop>6.0</pdop><geoidheight>50.60</geoidheight><course>35.521507</course><type>1</type></trkpt>
      <trkpt lat="39.28262384919781" lon="-6.0555333708058505"><ele>2897</ele><speed>7.59</speed><time>2016-07-09T13:41:23Z</time><pdop>8.0</pdop><geoidheight>50.60</geoidheight><course>40.511303</course><type>1</type></trkpt>
      <trkpt lat="39.28273853925616" lon="-6.055376615854891"><ele>2903</ele><speed>8.62</speed><time>2016-07-09T13:41:25Z</time><pdop>8.0</pdop><geoidheight>50.60</geoidheight><course>41.358273</course><type>1</type></trkpt>
      <trkpt lat="39.282940125478106" lon="-6.055166096551094"><ele>2911</ele><speed>8.12</speed><time>2016-07-09T13:41:28Z</time><pdop>16.0</pdop><geoidheight>50.60</geoidheight><course>32.68403</course><type>1</type></trkpt>
      <trkpt lat="39.2831472786754" lon="-6.054999615412972"><ele>2919</ele><speed>7.45</speed><time>2016-07-09T13:41:31Z</time><pdop>8.0</pdop><geoidheight>50.60</geoidheight><course>30.706638</course><type>1</type></trkpt>
      <trkpt lat="39.28327208532791" lon="-6.054875592186002"><ele>2926</ele><speed>7.59</speed><time>2016-07-09T13:41:33Z</time><pdop>8.0</pdop><geoidheight>50.60</geoidheight><course>35.088245</course><type>1</type></trkpt>
      <trkpt lat="39.28338007837198" lon="-6.05473769642491"><ele>2932</ele><speed>7.46</speed><time>2016-07-09T13:41:35Z</time><pdop>8.0</pdop><geoidheight>50.60</geoidheight><course>40.739002</course><type>1</type></trkpt>
      <trkpt lat="39.28349142289722" lon="-6.054596186568453"><ele>2939</ele><speed>7.81</speed><time>2016-07-09T13:41:37Z</time><pdop>8.0</pdop><geoidheight>50.60</geoidheight><course>39.389637</course><type>1</type></trkpt>
      <trkpt lat="39.283638358567245" lon="-6.054425109348099"><ele>2948</ele><speed>5.36</speed><time>2016-07-09T13:41:40Z</time><pdop>8.0</pdop><geoidheight>50.60</geoidheight><course>37.062767</course><type>1</type></trkpt>
      <trkpt lat="39.28375657806768" lon="-6.054260257069356"><ele>2955</ele><speed>6.90</speed><time>2016-07-09T13:41:43Z</time><pdop>8.0</pdop><geoidheight>50.60</geoidheight><course>44.938496</course><type>1</type></trkpt>
      <trkpt lat="39.28385338406861" lon="-6.054077174345523"><ele>2959</ele><speed>5.81</speed><time>2016-07-09T13:41:46Z</time><pdop>6.0</pdop><geoidheight>50.60</geoidheight><course>52.13741</course><type>1</type></trkpt>
      <trkpt lat="39.28392265829896" lon="-6.05395452017183"><ele>2961</ele><speed>6.98</speed><time>2016-07-09T13:41:48Z</time><pdop>6.0</pdop><geoidheight>50.60</geoidheight><course>49.139053</course><type>1</type></trkpt>
      <trkpt lat="39.284052360502045" lon="-6.053755933020984"><ele>2961</ele><speed>7.50</speed><time>2016-07-09T13:41:51Z</time><pdop>12.0</pdop><geoidheight>50.60</geoidheight><course>50.30232</course><type>1</type></trkpt>
      <trkpt lat="39.28418983989801" lon="-6.053588966044996"><ele>2958</ele><speed>8.64</speed><time>2016-07-09T13:41:54Z</time><pdop>6.0</pdop><geoidheight>50.60</geoidheight><course>41.43422</course><type>1</type></trkpt>
      <trkpt lat="39.284305522801525" lon="-6.053468691177114"><ele>2955</ele><speed>8.70</speed><time>2016-07-09T13:41:56Z</time><pdop>8.0</pdop><geoidheight>50.60</geoidheight><course>38.283714</course><type>1</type></trkpt>
      <trkpt lat="39.28446303153251" lon="-6.053311889350744"><ele>2951</ele><speed>8.25</speed><time>2016-07-09T13:41:59Z</time><pdop>8.0</pdop><geoidheight>50.60</geoidheight><course>40.714382</course><type>1</type></trkpt>
      <trkpt lat="39.28462710193265" lon="-6.053157462610383"><ele>2945</ele><speed>9.03</speed><time>2016-07-09T13:42:02Z</time><pdop>6.0</pdop><geoidheight>50.60</geoidheight><course>39.673443</course><type>1</type></trkpt>
      <trkpt lat="39.28473993085567" lon="-6.053023549546218"><ele>2940</ele><speed>10.49</speed><time>2016-07-09T13:42:04Z</time><pdop>6.0</pdop><geoidheight>50.60</geoidheight><course>46.244114</course><type>1</type></trkpt>
      <trkpt lat="39.28485723029158" lon="-6.0528662187822135"><ele>2935</ele><speed>8.41</speed><time>2016-07-09T13:42:06Z</time><pdop>8.0</pdop><geoidheight>50.60</geoidheight><course>45.946007</course><type>1</type></trkpt>
      <trkpt lat="39.2849565037807" lon="-6.052726189418825"><ele>2932</ele><speed>8.19</speed><time>2016-07-09T13:42:08Z</time><pdop>8.0</pdop><geoidheight>50.60</geoidheight><course>49.632084</course><type>1</type></trkpt>
      <trkpt lat="39.28504894353608" lon="-6.052568766999918"><ele>2929</ele><speed>9.87</speed><time>2016-07-09T13:42:10Z</time><pdop>8.0</pdop><geoidheight>50.60</geoidheight><course>52.676216</course><type>1</type></trkpt>
      <trkpt lat="39.28515265124662" lon="-6.05240541826945"><ele>2926</ele><speed>8.37</speed><time>2016-07-09T13:42:12Z</time><pdop>8.0</pdop><geoidheight>50.60</geoidheight><course>49.792892</course><type>1</type></trkpt>
      <trkpt lat="39.28529381695325" lon="-6.052211741726485"><ele>2924</ele><speed>8.63</speed><time>2016-07-09T13:42:15Z</time><pdop>8.0</pdop><geoidheight>50.60</geoidheight><course>47.746983</course><type>1</type></trkpt>
      <trkpt lat="39.28541224881304" lon="-6.052052221326635"><ele>2924</ele><speed>9.70</speed><time>2016-07-09T13:42:17Z</time><pdop>8.0</pdop><geoidheight>50.60</geoidheight><course>46.951805</course><type>1</type></trkpt>
      <trkpt lat="39.2855244426599" lon="-6.051906544236742"><ele>2924</ele><speed>8.36</speed><time>2016-07-09T13:42:19Z</time><pdop>8.0</pdop><geoidheight>50.60</geoidheight><course>46.067566</course><type>1</type></trkpt>
      <trkpt lat="39.2856240201685" lon="-6.051760599418381"><ele>2924</ele><speed>8.11</speed><time>2016-07-09T13:42:21Z</time><pdop>6.0</pdop><geoidheight>50.60</geoidheight><course>51.28163</course><type>1</type></trkpt>
      <trkpt lat="39.28575183444734" lon="-6.0514963550304275"><ele>2923</ele><speed>10.03</speed><time>2016-07-09T13:42:24Z</time><pdop>6.0</pdop><geoidheight>50.60</geoidheight><course>59.6188</course><type>1</type></trkpt>
      <trkpt lat="39.28585072961746" lon="-6.051258018219939"><ele>2922</ele><speed>11.87</speed><time>2016-07-09T13:42:27Z</time><pdop>8.0</pdop><geoidheight>50.60</geoidheight><course>61.413746</course><type>1</type></trkpt>
      <trkpt lat="39.285937127049685" lon="-6.051109197793653"><ele>2921</ele><speed>7.00</speed><time>2016-07-09T13:42:28Z</time><pdop>8.0</pdop><geoidheight>50.60</geoidheight><course>42.122894</course><type>1</type></trkpt>
      <trkpt lat="39.28610824023142" lon="-6.050862102594883"><ele>2924</ele><speed>8.47</speed><time>2016-07-09T13:42:32Z</time><pdop>8.0</pdop><geoidheight>50.60</geoidheight><course>56.506134</course><type>1</type></trkpt>
      <trkpt lat="39.28620122094381" lon="-6.050687985596739"><ele>2927</ele><speed>8.01</speed><time>2016-07-09T13:42:34Z</time><pdop>8.0</pdop><geoidheight>50.60</geoidheight><course>53.575733</course><type>1</type></trkpt>
      <trkpt lat="39.28635301422464" lon="-6.05051791628289"><ele>2929</ele><speed>7.42</speed><time>2016-07-09T13:42:37Z</time><pdop>8.0</pdop><geoidheight>50.60</geoidheight><course>39.787148</course><type>1</type></trkpt>
      <trkpt lat="39.2865163414652" lon="-6.050332245400656"><ele>2931</ele><speed>8.74</speed><time>2016-07-09T13:42:40Z</time><pdop>8.0</pdop><geoidheight>50.60</geoidheight><course>40.453182</course><type>1</type></trkpt>
      <trkpt lat="39.286650377530485" lon="-6.050201182321384"><ele>2933</ele><speed>9.27</speed><time>2016-07-09T13:42:42Z</time><pdop>8.0</pdop><geoidheight>50.60</geoidheight><course>36.593445</course><type>1</type></trkpt>
      <trkpt lat="39.28678568048505" lon="-6.050088490155002"><ele>2934</ele><speed>8.80</speed><time>2016-07-09T13:42:45Z</time><pdop>6.0</pdop><geoidheight>50.60</geoidheight><course>33.724476</course><type>1</type></trkpt>
      <trkpt lat="39.28691414093581" lon="-6.049986105764131"><ele>2935</ele><speed>7.91</speed><time>2016-07-09T13:42:46Z</time><pdop>8.0</pdop><geoidheight>50.60</geoidheight><course>32.53029</course><type>1</type></trkpt>
      <trkpt lat="39.2870484826526" lon="-6.049875343178401"><ele>2935</ele><speed>9.41</speed><time>2016-07-09T13:42:48Z</time><pdop>8.0</pdop><geoidheight>50.60</geoidheight><course>34.306633</course><type>1</type></trkpt>
      <trkpt lat="39.28717319992073" lon="-6.049716061763829"><ele>2935</ele><speed>9.94</speed><time>2016-07-09T13:42:50Z</time><pdop>8.0</pdop><geoidheight>50.60</geoidheight><course>53.131245</course><type>1</type></trkpt>
      <trkpt lat="39.28728462460565" lon="-6.049500235025892"><ele>2936</ele><speed>6.48</speed><time>2016-07-09T13:42:53Z</time><pdop>8.0</pdop><geoidheight>50.60</geoidheight><course>55.271122</course><type>1</type></trkpt>
      <trkpt lat="39.287423162164636" lon="-6.0492792531335615"><ele>2939</ele><speed>9.35</speed><time>2016-07-09T13:42:56Z</time><pdop>8.0</pdop><geoidheight>50.60</geoidheight><course>50.141617</course><type>1</type></trkpt>
      <trkpt lat="39.28758740435834" lon="-6.049066439021097"><ele>2942</ele><speed>7.55</speed><time>2016-07-09T13:42:59Z</time><pdop>12.0</pdop><geoidheight>50.60</geoidheight><course>46.569763</course><type>1</type></trkpt>
      <trkpt lat="39.28774498055788" lon="-6.048882359654705"><ele>2947</ele><speed>8.95</speed><time>2016-07-09T13:43:03Z</time><pdop>6.0</pdop><geoidheight>50.60</geoidheight><course>43.235226</course><type>1</type></trkpt>
      <trkpt lat="39.28787265761202" lon="-6.0487343414563455"><ele>2951</ele><speed>9.32</speed><time>2016-07-09T13:43:04Z</time><pdop>12.0</pdop><geoidheight>50.60</geoidheight><course>43.25519</course><type>1</type></trkpt>
      <trkpt lat="39.28803421709896" lon="-6.048542832467093"><ele>2958</ele><speed>7.35</speed><time>2016-07-09T13:43:07Z</time><pdop>12.0</pdop><geoidheight>50.60</geoidheight><course>45.15377</course><type>1</type></trkpt>
      <trkpt lat="39.28819014806506" lon="-6.048342933075506"><ele>2965</ele><speed>7.43</speed><time>2016-07-09T13:43:10Z</time><pdop>12.0</pdop><geoidheight>50.60</geoidheight><course>47.220547</course><type>1</type></trkpt>
      <trkpt lat="39.288374108528394" lon="-6.048074100114323"><ele>2975</ele><speed>7.84</speed><time>2016-07-09T13:43:14Z</time><pdop>12.0</pdop><geoidheight>50.60</geoidheight><course>47.878002</course><type>1</type></trkpt>
      <trkpt lat="39.288546372714684" lon="-6.047792977448378"><ele>2986</ele><speed>7.29</speed><time>2016-07-09T13:43:18Z</time><pdop>12.0</pdop><geoidheight>50.60</geoidheight><course>51.95308</course><type>1</type></trkpt>
      <trkpt lat="39.28867114783769" lon="-6.047559158562704"><ele>2992</ele><speed>8.97</speed><time>2016-07-09T13:43:21Z</time><pdop>12.0</pdop><geoidheight>50.60</geoidheight><course>55.50359</course><type>1</type></trkpt>
      <trkpt lat="39.288799677335405" lon="-6.047282419532516"><ele>3002</ele><speed>5.36</speed><time>2016-07-09T13:43:26Z</time><pdop>6.0</pdop><geoidheight>50.60</geoidheight><course>60.379265</course><type>1</type></trkpt>
      <trkpt lat="39.28886180235354" lon="-6.0471343433535205"><ele>3007</ele><speed>7.16</speed><time>2016-07-09T13:43:27Z</time><pdop>6.0</pdop><geoidheight>50.60</geoidheight><course>57.548</course><type>1</type></trkpt>
      <trkpt lat="39.2889652854927" lon="-6.046993019068127"><ele>3013</ele><speed>7.85</speed><time>2016-07-09T13:43:29Z</time><pdop>8.0</pdop><geoidheight>50.60</geoidheight><course>42.22981</course><type>1</type></trkpt>
      <trkpt lat="39.28906762205437" lon="-6.046857653668366"><ele>3019</ele><speed>7.04</speed><time>2016-07-09T13:43:32Z</time><pdop>8.0</pdop><geoidheight>50.60</geoidheight><course>42.21945</course><type>1</type></trkpt>
      <trkpt lat="39.28916716815487" lon="-6.046729449888793"><ele>3026</ele><speed>6.69</speed><time>2016-07-09T13:43:33Z</time><pdop>6.0</pdop><geoidheight>50.60</geoidheight><course>40.20966</course><type>1</type></trkpt>
      <trkpt lat="39.28927907148063" lon="-6.046599620583304"><ele>3033</ele><speed>7.75</speed><time>2016-07-09T13:43:35Z</time><pdop>8.0</pdop><geoidheight>50.60</geoidheight><course>39.498333</course><type>1</type></trkpt>
      <trkpt lat="39.289399534901456" lon="-6.0464506071829565"><ele>3039</ele><speed>8.30</speed><time>2016-07-09T13:43:37Z</time><pdop>8.0</pdop><geoidheight>50.60</geoidheight><course>41.14693</course><type>1</type></trkpt>
      <trkpt lat="39.28954500258263" lon="-6.046274639475167"><ele>3048</ele><speed>6.66</speed><time>2016-07-09T13:43:41Z</time><pdop>12.0</pdop><geoidheight>50.60</geoidheight><course>43.76526</course><type>1</type></trkpt>
      <trkpt lat="39.289663677683" lon="-6.046062278830007"><ele>3056</ele><speed>6.56</speed><time>2016-07-09T13:43:43Z</time><pdop>8.0</pdop><geoidheight>50.60</geoidheight><course>48.338737</course><type>1</type></trkpt>
      <trkpt lat="39.289789113637035" lon="-6.045862114210436"><ele>3066</ele><speed>6.20</speed><time>2016-07-09T13:43:46Z</time><pdop>8.0</pdop><geoidheight>50.60</geoidheight><course>46.90749</course><type>1</type></trkpt>
      <trkpt lat="39.28984414272902" lon="-6.045707992428051"><ele>3073</ele><speed>6.39</speed><time>2016-07-09T13:43:48Z</time><pdop>6.0</pdop><geoidheight>50.60</geoidheight><course>65.007126</course><type>1</type></trkpt>
      <trkpt lat="39.28990845610381" lon="-6.04553219556507"><ele>3080</ele><speed>8.18</speed><time>2016-07-09T13:43:50Z</time><pdop>6.0</pdop><geoidheight>50.60</geoidheight><course>63.07833</course><type>1</type></trkpt>
      <trkpt lat="39.290001931733336" lon="-6.045327140425075"><ele>3085</ele><speed>10.15</speed><time>2016-07-09T13:43:52Z</time><pdop>12.0</pdop><geoidheight>50.60</geoidheight><course>58.97029</course><type>1</type></trkpt>
      <trkpt lat="39.29011729824597" lon="-6.045019461805666"><ele>3095</ele><speed>7.01</speed><time>2016-07-09T13:43:56Z</time><pdop>8.0</pdop><geoidheight>50.60</geoidheight><course>74.66953</course><type>1</type></trkpt>
      <trkpt lat="39.2902062739227" lon="-6.044707402590514"><ele>3103</ele><speed>8.99</speed><time>2016-07-09T13:44:00Z</time><pdop>12.0</pdop><geoidheight>50.60</geoidheight><course>68.17123</course><type>1</type></trkpt>
      <trkpt lat="39.290345188971656" lon="-6.044495048969445"><ele>3116</ele><speed>6.36</speed><time>2016-07-09T13:44:02Z</time><pdop>8.0</pdop><geoidheight>50.60</geoidheight><course>33.324944</course><type>1</type></trkpt>
      <trkpt lat="39.29049327774098" lon="-6.04422759301212"><ele>3130</ele><speed>9.07</speed><time>2016-07-09T13:44:05Z</time><pdop>6.0</pdop><geoidheight>50.60</geoidheight><course>55.139187</course><type>1</type></trkpt>
      <trkpt lat="39.29054831207947" lon="-6.04402841491661"><ele>3139</ele><speed>7.57</speed><time>2016-07-09T13:44:07Z</time><pdop>8.0</pdop><geoidheight>50.60</geoidheight><course>70.04745</course><type>1</type></trkpt>
      <trkpt lat="39.29057017901619" lon="-6.043761819115809"><ele>3152</ele><speed>6.54</speed><time>2016-07-09T13:44:11Z</time><pdop>8.0</pdop><geoidheight>50.60</geoidheight><course>89.02108</course><type>1</type></trkpt>
      <trkpt lat="39.29057266329956" lon="-6.043552668149958"><ele>3163</ele><speed>6.85</speed><time>2016-07-09T13:44:12Z</time><pdop>6.0</pdop><geoidheight>50.60</geoidheight><course>92.7438</course><type>1</type></trkpt>
      <trkpt lat="39.29057558875468" lon="-6.043348277136591"><ele>3172</ele><speed>7.19</speed><time>2016-07-09T13:44:14Z</time><pdop>6.0</pdop><geoidheight>50.60</geoidheight><course>92.70061</course><type>1</type></trkpt>
      <trkpt lat="39.2905776179409" lon="-6.043133582414643"><ele>3180</ele><speed>8.17</speed><time>2016-07-09T13:44:16Z</time><pdop>12.0</pdop><geoidheight>50.60</geoidheight><course>91.65736</course><type>1</type></trkpt>
      <trkpt lat="39.2906360778532" lon="-6.042815460829231"><ele>3193</ele><speed>9.38</speed><time>2016-07-09T13:44:19Z</time><pdop>8.0</pdop><geoidheight>50.60</geoidheight><course>71.930466</course><type>1</type></trkpt>
      <trkpt lat="39.29077674083081" lon="-6.042563286987102"><ele>3208</ele><speed>9.09</speed><time>2016-07-09T13:44:22Z</time><pdop>8.0</pdop><geoidheight>50.60</geoidheight><course>46.939663</course><type>1</type></trkpt>
      <trkpt lat="39.290934761748254" lon="-6.042467703904538"><ele>3220</ele><speed>8.44</speed><time>2016-07-09T13:44:24Z</time><pdop>8.0</pdop><geoidheight>50.60</geoidheight><course>4.9203644</course><type>1</type></trkpt>
      <trkpt lat="39.291109903689076" lon="-6.042318627056848"><ele>3238</ele><speed>6.94</speed><time>2016-07-09T13:44:27Z</time><pdop>8.0</pdop><geoidheight>50.60</geoidheight><course>15.658871</course><type>1</type></trkpt>
      <trkpt lat="39.29122244184461" lon="-6.042196531827604"><ele>3247</ele><speed>7.40</speed><time>2016-07-09T13:44:29Z</time><pdop>8.0</pdop><geoidheight>50.60</geoidheight><course>15.249768</course><type>1</type></trkpt>
      <trkpt lat="39.29145034712415" lon="-6.042091470801945"><ele>3269</ele><speed>5.00</speed><time>2016-07-09T13:44:32Z</time><pdop>8.0</pdop><geoidheight>50.60</geoidheight><course>9.660307</course><type>1</type></trkpt>
      <trkpt lat="39.29164328815008" lon="-6.041984152795508"><ele>3283</ele><speed>9.22</speed><time>2016-07-09T13:44:34Z</time><pdop>8.0</pdop><geoidheight>50.60</geoidheight><course>16.348614</course><type>1</type></trkpt>
      <trkpt lat="39.291829121233796" lon="-6.0418928573979755"><ele>3297</ele><speed>9.06</speed><time>2016-07-09T13:44:36Z</time><pdop>6.0</pdop><geoidheight>50.60</geoidheight><course>24.948421</course><type>1</type></trkpt>
      <trkpt lat="39.29200897781228" lon="-6.041775109641928"><ele>3309</ele><speed>8.43</speed><time>2016-07-09T13:44:38Z</time><pdop>6.0</pdop><geoidheight>50.60</geoidheight><course>25.251337</course><type>1</type></trkpt>
      <trkpt lat="39.29218966487115" lon="-6.0416480728191395"><ele>3322</ele><speed>9.67</speed><time>2016-07-09T13:44:40Z</time><pdop>12.0</pdop><geoidheight>50.60</geoidheight><course>27.39645</course><type>1</type></trkpt>
      <trkpt lat="39.29235260282123" lon="-6.041510245801975"><ele>3334</ele><speed>10.54</speed><time>2016-07-09T13:44:42Z</time><pdop>6.0</pdop><geoidheight>50.60</geoidheight><course>32.548824</course><type>1</type></trkpt>
      <trkpt lat="39.292513258235516" lon="-6.041374616598175"><ele>3347</ele><speed>9.66</speed><time>2016-07-09T13:44:44Z</time><pdop>8.0</pdop><geoidheight>50.60</geoidheight><course>31.360073</course><type>1</type></trkpt>
      <trkpt lat="39.292698946247036" lon="-6.041223945970191"><ele>3358</ele><speed>10.35</speed><time>2016-07-09T13:44:46Z</time><pdop>8.0</pdop><geoidheight>50.60</geoidheight><course>31.360073</course><type>1</type></trkpt>
      <trkpt lat="39.29288697476538" lon="-6.0410470058971955"><ele>3367</ele><speed>12.58</speed><time>2016-07-09T13:44:48Z</time><pdop>6.0</pdop><geoidheight>50.60</geoidheight><course>34.19947</course><type>1</type></trkpt>
      <trkpt lat="39.29304203345519" lon="-6.040894649486842"><ele>3373</ele><speed>9.10</speed><time>2016-07-09T13:44:50Z</time><pdop>6.0</pdop><geoidheight>50.60</geoidheight><course>33.853577</course><type>1</type></trkpt>
      <trkpt lat="39.293171355413115" lon="-6.0407840787789135"><ele>3379</ele><speed>8.18</speed><time>2016-07-09T13:44:52Z</time><pdop>8.0</pdop><geoidheight>50.60</geoidheight><course>30.616447</course><type>1</type></trkpt>
      <trkpt lat="39.29333522129281" lon="-6.040652909664985"><ele>3384</ele><speed>11.39</speed><time>2016-07-09T13:44:54Z</time><pdop>8.0</pdop><geoidheight>50.60</geoidheight><course>32.033173</course><type>1</type></trkpt>
      <trkpt lat="39.293519877282655" lon="-6.040514934672559"><ele>3388</ele><speed>11.82</speed><time>2016-07-09T13:44:56Z</time><pdop>8.0</pdop><geoidheight>50.60</geoidheight><course>29.639711</course><type>1</type></trkpt>
      <trkpt lat="39.29369281626588" lon="-6.040409929087695"><ele>3391</ele><speed>9.98</speed><time>2016-07-09T13:44:58Z</time><pdop>8.0</pdop><geoidheight>50.60</geoidheight><course>25.967567</course><type>1</type></trkpt>
      <trkpt lat="39.293853948146065" lon="-6.040314647277178"><ele>3396</ele><speed>9.82</speed><time>2016-07-09T13:45:01Z</time><pdop>6.0</pdop><geoidheight>50.60</geoidheight><course>26.299444</course><type>1</type></trkpt>
      <trkpt lat="39.29404847206406" lon="-6.040185147644765"><ele>3400</ele><speed>13.15</speed><time>2016-07-09T13:45:02Z</time><pdop>6.0</pdop><geoidheight>50.60</geoidheight><course>28.852018</course><type>1</type></trkpt>
      <trkpt lat="39.29415168822042" lon="-6.040109946520043"><ele>3401</ele><speed>13.26</speed><time>2016-07-09T13:45:03Z</time><pdop>6.0</pdop><geoidheight>50.60</geoidheight><course>29.82825</course><type>1</type></trkpt>
      <trkpt lat="39.294335844032105" lon="-6.039977908734431"><ele>3404</ele><speed>10.97</speed><time>2016-07-09T13:45:05Z</time><pdop>8.0</pdop><geoidheight>50.60</geoidheight><course>26.812754</course><type>1</type></trkpt>
      <trkpt lat="39.29451874521699" lon="-6.039873115097904"><ele>3406</ele><speed>11.27</speed><time>2016-07-09T13:45:07Z</time><pdop>8.0</pdop><geoidheight>50.60</geoidheight><course>24.497356</course><type>1</type></trkpt>
      <trkpt lat="39.294730665269554" lon="-6.039739102211051"><ele>3408</ele><speed>13.87</speed><time>2016-07-09T13:45:09Z</time><pdop>8.0</pdop><geoidheight>50.60</geoidheight><course>26.61922</course><type>1</type></trkpt>
      <trkpt lat="39.29496183696034" lon="-6.039590445017525"><ele>3410</ele><speed>14.43</speed><time>2016-07-09T13:45:11Z</time><pdop>8.0</pdop><geoidheight>50.60</geoidheight><course>25.112528</course><type>1</type></trkpt>
      <trkpt lat="39.295181508672194" lon="-6.0394595592751905"><ele>3413</ele><speed>12.82</speed><time>2016-07-09T13:45:13Z</time><pdop>8.0</pdop><geoidheight>50.60</geoidheight><course>24.1116</course><type>1</type></trkpt>
      <trkpt lat="39.29539038761593" lon="-6.0393444335436035"><ele>3418</ele><speed>12.69</speed><time>2016-07-09T13:45:15Z</time><pdop>6.0</pdop><geoidheight>50.60</geoidheight><course>22.761736</course><type>1</type></trkpt>
      <trkpt lat="39.29550574480013" lon="-6.039280989452642"><ele>3420</ele><speed>13.85</speed><time>2016-07-09T13:45:16Z</time><pdop>6.0</pdop><geoidheight>50.60</geoidheight><course>23.42665</course><type>1</type></trkpt>
      <trkpt lat="39.29562777631331" lon="-6.039207170188205"><ele>3422</ele><speed>14.99</speed><time>2016-07-09T13:45:17Z</time><pdop>6.0</pdop><geoidheight>50.60</geoidheight><course>25.129469</course><type>1</type></trkpt>
      <trkpt lat="39.2957446807834" lon="-6.039127277862637"><ele>3425</ele><speed>14.60</speed><time>2016-07-09T13:45:18Z</time><pdop>6.0</pdop><geoidheight>50.60</geoidheight><course>27.394249</course><type>1</type></trkpt>
      <trkpt lat="39.2958511985071" lon="-6.039052963237405"><ele>3427</ele><speed>13.15</speed><time>2016-07-09T13:45:19Z</time><pdop>6.0</pdop><geoidheight>50.60</geoidheight><course>28.226236</course><type>1</type></trkpt>
      <trkpt lat="39.29604714206249" lon="-6.038907137968521"><ele>3432</ele><speed>12.16</speed><time>2016-07-09T13:45:21Z</time><pdop>8.0</pdop><geoidheight>50.60</geoidheight><course>29.994308</course><type>1</type></trkpt>
      <trkpt lat="39.29626111734109" lon="-6.038718937947379"><ele>3436</ele><speed>15.43</speed><time>2016-07-09T13:45:24Z</time><pdop>8.0</pdop><geoidheight>50.60</geoidheight><course>34.160534</course><type>1</type></trkpt>
      <trkpt lat="39.29648893088162" lon="-6.038504460377749"><ele>3440</ele><speed>15.42</speed><time>2016-07-09T13:45:25Z</time><pdop>8.0</pdop><geoidheight>50.60</geoidheight><course>33.914326</course><type>1</type></trkpt>
      <trkpt lat="39.29668020364476" lon="-6.038331249825796"><ele>3445</ele><speed>11.85</speed><time>2016-07-09T13:45:27Z</time><pdop>8.0</pdop><geoidheight>50.60</geoidheight><course>33.936527</course><type>1</type></trkpt>
      <trkpt lat="39.296850420655325" lon="-6.038170848783398"><ele>3451</ele><speed>11.24</speed><time>2016-07-09T13:45:29Z</time><pdop>6.0</pdop><geoidheight>50.60</geoidheight><course>34.622074</course><type>1</type></trkpt>
      <trkpt lat="39.296941504499685" lon="-6.038089940996339"><ele>3455</ele><speed>12.14</speed><time>2016-07-09T13:45:30Z</time><pdop>6.0</pdop><geoidheight>50.60</geoidheight><course>33.7727</course><type>1</type></trkpt>
      <trkpt lat="39.29714392142391" lon="-6.037912512518985"><ele>3460</ele><speed>13.71</speed><time>2016-07-09T13:45:32Z</time><pdop>8.0</pdop><geoidheight>50.60</geoidheight><course>32.47021</course><type>1</type></trkpt>
      <trkpt lat="39.29735035767951" lon="-6.037744825052574"><ele>3465</ele><speed>13.01</speed><time>2016-07-09T13:45:34Z</time><pdop>8.0</pdop><geoidheight>50.60</geoidheight><course>31.07419</course><type>1</type></trkpt>
      <trkpt lat="39.29757732486353" lon="-6.037589859476517"><ele>3468</ele><speed>14.47</speed><time>2016-07-09T13:45:36Z</time><pdop>8.0</pdop><geoidheight>50.60</geoidheight><course>27.192766</course><type>1</type></trkpt>
      <trkpt lat="39.29782521433913" lon="-6.037440469585506"><ele>3470</ele><speed>14.94</speed><time>2016-07-09T13:45:38Z</time><pdop>8.0</pdop><geoidheight>50.60</geoidheight><course>25.746433</course><type>1</type></trkpt>
      <trkpt lat="39.298066859396734" lon="-6.037291897746901"><ele>3472</ele><speed>14.67</speed><time>2016-07-09T13:45:40Z</time><pdop>8.0</pdop><geoidheight>50.60</geoidheight><course>27.109648</course><type>1</type></trkpt>
      <trkpt lat="39.29829823763264" lon="-6.037128485560142"><ele>3475</ele><speed>14.20</speed><time>2016-07-09T13:45:42Z</time><pdop>8.0</pdop><geoidheight>50.60</geoidheight><course>29.06381</course><type>1</type></trkpt>
      <trkpt lat="39.29851528521898" lon="-6.036964056423967"><ele>3477</ele><speed>13.56</speed><time>2016-07-09T13:45:44Z</time><pdop>8.0</pdop><geoidheight>50.60</geoidheight><course>28.635464</course><type>1</type></trkpt>
      <trkpt lat="39.29872577888484" lon="-6.036814595842049"><ele>3478</ele><speed>13.00</speed><time>2016-07-09T13:45:46Z</time><pdop>8.0</pdop><geoidheight>50.60</geoidheight><course>27.889975</course><type>1</type></trkpt>
      <trkpt lat="39.298920933508974" lon="-6.0366528795222445"><ele>3478</ele><speed>12.36</speed><time>2016-07-09T13:45:48Z</time><pdop>12.0</pdop><geoidheight>50.60</geoidheight><course>32.599304</course><type>1</type></trkpt>
      <trkpt lat="39.29909990908304" lon="-6.036500965726705"><ele>3477</ele><speed>12.06</speed><time>2016-07-09T13:45:51Z</time><pdop>6.0</pdop><geoidheight>50.60</geoidheight><course>30.300884</course><type>1</type></trkpt>
      <trkpt lat="39.29920015100176" lon="-6.036426363519484"><ele>3476</ele><speed>13.01</speed><time>2016-07-09T13:45:52Z</time><pdop>6.0</pdop><geoidheight>50.60</geoidheight><course>28.505629</course><type>1</type></trkpt>
      <trkpt lat="39.29931326293682" lon="-6.036346210013936"><ele>3474</ele><speed>14.66</speed><time>2016-07-09T13:45:52Z</time><pdop>6.0</pdop><geoidheight>50.60</geoidheight><course>29.059359</course><type>1</type></trkpt>
      <trkpt lat="39.299429225305175" lon="-6.036264055724859"><ele>3471</ele><speed>15.24</speed><time>2016-07-09T13:45:53Z</time><pdop>8.0</pdop><geoidheight>50.60</geoidheight><course>29.524828</course><type>1</type></trkpt>
      <trkpt lat="39.29966433205959" lon="-6.036085220572871"><ele>3465</ele><speed>15.78</speed><time>2016-07-09T13:45:55Z</time><pdop>8.0</pdop><geoidheight>50.60</geoidheight><course>32.099567</course><type>1</type></trkpt>
      <trkpt lat="39.29986346407813" lon="-6.0359057704280685"><ele>3457</ele><speed>14.24</speed><time>2016-07-09T13:45:57Z</time><pdop>6.0</pdop><geoidheight>50.60</geoidheight><course>35.87261</course><type>1</type></trkpt>
      <trkpt lat="39.299969739077795" lon="-6.035804687124258"><ele>3454</ele><speed>14.82</speed><time>2016-07-09T13:45:58Z</time><pdop>6.0</pdop><geoidheight>50.60</geoidheight><course>36.214615</course><type>1</type></trkpt>
      <trkpt lat="39.30008301861374" lon="-6.035695093728121"><ele>3451</ele><speed>16.16</speed><time>2016-07-09T13:45:59Z</time><pdop>6.0</pdop><geoidheight>50.60</geoidheight><course>35.45069</course><type>1</type></trkpt>
      <trkpt lat="39.30020033942295" lon="-6.035583731364131"><ele>3447</ele><speed>17.15</speed><time>2016-07-09T13:46:00Z</time><pdop>6.0</pdop><geoidheight>50.60</geoidheight><course>36.296474</course><type>1</type></trkpt>
      <trkpt lat="39.30031217308899" lon="-6.035471993015691"><ele>3444</ele><speed>16.38</speed><time>2016-07-09T13:46:01Z</time><pdop>6.0</pdop><geoidheight>50.60</geoidheight><course>37.36551</course><type>1</type></trkpt>
      <trkpt lat="39.30041772530322" lon="-6.035366382444459"><ele>3442</ele><speed>15.30</speed><time>2016-07-09T13:46:02Z</time><pdop>8.0</pdop><geoidheight>50.60</geoidheight><course>38.037624</course><type>1</type></trkpt>
      <trkpt lat="39.30052034225086" lon="-6.035263319144407"><ele>3439</ele><speed>14.67</speed><time>2016-07-09T13:46:04Z</time><pdop>6.0</pdop><geoidheight>50.60</geoidheight><course>37.152958</course><type>1</type></trkpt>
      <trkpt lat="39.3006306990951" lon="-6.035159770289985"><ele>3437</ele><speed>15.52</speed><time>2016-07-09T13:46:05Z</time><pdop>6.0</pdop><geoidheight>50.60</geoidheight><course>36.33824</course><type>1</type></trkpt>
      <trkpt lat="39.30075657972484" lon="-6.03504362024912"><ele>3434</ele><speed>17.93</speed><time>2016-07-09T13:46:05Z</time><pdop>6.0</pdop><geoidheight>50.60</geoidheight><course>37.05151</course><type>1</type></trkpt>
      <trkpt lat="39.300886855765306" lon="-6.034923802048696"><ele>3431</ele><speed>18.56</speed><time>2016-07-09T13:46:06Z</time><pdop>6.0</pdop><geoidheight>50.60</geoidheight><course>37.044792</course><type>1</type></trkpt>
      <trkpt lat="39.30101574795665" lon="-6.034804690600481"><ele>3429</ele><speed>18.31</speed><time>2016-07-09T13:46:07Z</time><pdop>8.0</pdop><geoidheight>50.60</geoidheight><course>36.68767</course><type>1</type></trkpt>
      <trkpt lat="39.3011340162" lon="-6.034696124592659"><ele>3426</ele><speed>16.58</speed><time>2016-07-09T13:46:08Z</time><pdop>8.0</pdop><geoidheight>50.60</geoidheight><course>35.873844</course><type>1</type></trkpt>
      <trkpt lat="39.30134472897894" lon="-6.034514979963074"><ele>3423</ele><speed>13.50</speed><time>2016-07-09T13:46:10Z</time><pdop>8.0</pdop><geoidheight>50.60</geoidheight><course>33.772484</course><type>1</type></trkpt>
      <trkpt lat="39.30156535189457" lon="-6.034346059930091"><ele>3420</ele><speed>15.04</speed><time>2016-07-09T13:46:13Z</time><pdop>8.0</pdop><geoidheight>50.60</geoidheight><course>31.322334</course><type>1</type></trkpt>
      <trkpt lat="39.30169738858003" lon="-6.034251615759547"><ele>3418</ele><speed>17.15</speed><time>2016-07-09T13:46:13Z</time><pdop>8.0</pdop><geoidheight>50.60</geoidheight><course>30.515749</course><type>1</type></trkpt>
      <trkpt lat="39.30183402301336" lon="-6.034160901956937"><ele>3415</ele><speed>17.61</speed><time>2016-07-09T13:46:14Z</time><pdop>8.0</pdop><geoidheight>50.60</geoidheight><course>29.880539</course><type>1</type></trkpt>
      <trkpt lat="39.301963914807686" lon="-6.034075140250043"><ele>3412</ele><speed>16.74</speed><time>2016-07-09T13:46:15Z</time><pdop>8.0</pdop><geoidheight>50.60</geoidheight><course>29.049965</course><type>1</type></trkpt>
      <trkpt lat="39.30209459441454" lon="-6.033995643523316"><ele>3409</ele><speed>16.56</speed><time>2016-07-09T13:46:16Z</time><pdop>8.0</pdop><geoidheight>50.60</geoidheight><course>27.910841</course><type>1</type></trkpt>
      <trkpt lat="39.30222854095266" lon="-6.033919351590056"><ele>3406</ele><speed>16.70</speed><time>2016-07-09T13:46:17Z</time><pdop>6.0</pdop><geoidheight>50.60</geoidheight><course>26.40986</course><type>1</type></trkpt>
      <trkpt lat="39.302366746484594" lon="-6.0338470446607175"><ele>3403</ele><speed>16.98</speed><time>2016-07-09T13:46:18Z</time><pdop>6.0</pdop><geoidheight>50.60</geoidheight><course>24.980667</course><type>1</type></trkpt>
      <trkpt lat="39.302506048674395" lon="-6.033774365074216"><ele>3400</ele><speed>17.08</speed><time>2016-07-09T13:46:19Z</time><pdop>6.0</pdop><geoidheight>50.60</geoidheight><course>24.357643</course><type>1</type></trkpt>
      <trkpt lat="39.30265334081801" lon="-6.033703043878748"><ele>3397</ele><speed>18.04</speed><time>2016-07-09T13:46:20Z</time><pdop>8.0</pdop><geoidheight>50.60</geoidheight><course>23.029083</course><type>1</type></trkpt>
      <trkpt lat="39.30280923990946" lon="-6.033634150059059"><ele>3394</ele><speed>18.94</speed><time>2016-07-09T13:46:21Z</time><pdop>8.0</pdop><geoidheight>50.60</geoidheight><course>21.362873</course><type>1</type></trkpt>
      <trkpt lat="39.302966633805084" lon="-6.033573049094448"><ele>3391</ele><speed>18.63</speed><time>2016-07-09T13:46:22Z</time><pdop>8.0</pdop><geoidheight>50.60</geoidheight><course>19.907904</course><type>1</type></trkpt>
      <trkpt lat="39.30312106450913" lon="-6.033512780846562"><ele>3388</ele><speed>18.11</speed><time>2016-07-09T13:46:23Z</time><pdop>6.0</pdop><geoidheight>50.60</geoidheight><course>19.918516</course><type>1</type></trkpt>
      <trkpt lat="39.303267903795216" lon="-6.033452314685648"><ele>3385</ele><speed>17.18</speed><time>2016-07-09T13:46:24Z</time><pdop>6.0</pdop><geoidheight>50.60</geoidheight><course>20.811266</course><type>1</type></trkpt>
      <trkpt lat="39.3034095430004" lon="-6.033390251365071"><ele>3383</ele><speed>16.68</speed><time>2016-07-09T13:46:25Z</time><pdop>6.0</pdop><geoidheight>50.60</geoidheight><course>20.640993</course><type>1</type></trkpt>
      <trkpt lat="39.30354845920424" lon="-6.033330015542352"><ele>3381</ele><speed>16.39</speed><time>2016-07-09T13:46:26Z</time><pdop>8.0</pdop><geoidheight>50.60</geoidheight><course>19.614697</course><type>1</type></trkpt>
      <trkpt lat="39.30368726467144" lon="-6.033274310278272"><ele>3379</ele><speed>16.33</speed><time>2016-07-09T13:46:27Z</time><pdop>8.0</pdop><geoidheight>50.60</geoidheight><course>18.903017</course><type>1</type></trkpt>
      <trkpt lat="39.30383472581589" lon="-6.033209169799355"><ele>3376</ele><speed>17.37</speed><time>2016-07-09T13:46:28Z</time><pdop>8.0</pdop><geoidheight>50.60</geoidheight><course>19.707</course><type>1</type></trkpt>
      <trkpt lat="39.3039765539487" lon="-6.0331397592837055"><ele>3374</ele><speed>16.99</speed><time>2016-07-09T13:46:29Z</time><pdop>8.0</pdop><geoidheight>50.60</geoidheight><course>20.789608</course><type>1</type></trkpt>
      <trkpt lat="39.30422243340935" lon="-6.033018770229632"><ele>3369</ele><speed>13.40</speed><time>2016-07-09T13:46:31Z</time><pdop>6.0</pdop><geoidheight>50.60</geoidheight><course>21.832918</course><type>1</type></trkpt>
      <trkpt lat="39.3044080257185" lon="-6.032921275566019"><ele>3365</ele><speed>11.06</speed><time>2016-07-09T13:46:33Z</time><pdop>6.0</pdop><geoidheight>50.60</geoidheight><course>23.600159</course><type>1</type></trkpt>
      <trkpt lat="39.30451357600719" lon="-6.032854262340169"><ele>3363</ele><speed>13.31</speed><time>2016-07-09T13:46:34Z</time><pdop>6.0</pdop><geoidheight>50.60</geoidheight><course>26.382538</course><type>1</type></trkpt>
      <trkpt lat="39.304708831553846" lon="-6.032692520948666"><ele>3359</ele><speed>13.61</speed><time>2016-07-09T13:46:36Z</time><pdop>8.0</pdop><geoidheight>50.60</geoidheight><course>27.610662</course><type>1</type></trkpt>
      <trkpt lat="39.30491702157437" lon="-6.032530899097914"><ele>3353</ele><speed>11.88</speed><time>2016-07-09T13:46:38Z</time><pdop>8.0</pdop><geoidheight>50.60</geoidheight><course>29.596487</course><type>1</type></trkpt>
      <trkpt lat="39.30507943640356" lon="-6.032417621561039"><ele>3350</ele><speed>8.84</speed><time>2016-07-09T13:46:40Z</time><pdop>8.0</pdop><geoidheight>50.60</geoidheight><course>29.568972</course><type>1</type></trkpt>
      <trkpt lat="39.30525676511656" lon="-6.032292126252581"><ele>3347</ele><speed>12.11</speed><time>2016-07-09T13:46:42Z</time><pdop>8.0</pdop><geoidheight>50.60</geoidheight><course>28.507662</course><type>1</type></trkpt>
      <trkpt lat="39.30547568755984" lon="-6.032167515719979"><ele>3342</ele><speed>15.15</speed><time>2016-07-09T13:46:44Z</time><pdop>6.0</pdop><geoidheight>50.60</geoidheight><course>24.090082</course><type>1</type></trkpt>
      <trkpt lat="39.30558477297717" lon="-6.032111308084247"><ele>3339</ele><speed>13.94</speed><time>2016-07-09T13:46:45Z</time><pdop>6.0</pdop><geoidheight>50.60</geoidheight><course>23.5422</course><type>1</type></trkpt>
      <trkpt lat="39.3057763196137" lon="-6.03200944764606"><ele>3337</ele><speed>11.33</speed><time>2016-07-09T13:46:47Z</time><pdop>8.0</pdop><geoidheight>50.60</geoidheight><course>23.209772</course><type>1</type></trkpt>
      <trkpt lat="39.3059789597125" lon="-6.031894490510765"><ele>3336</ele><speed>12.75</speed><time>2016-07-09T13:46:49Z</time><pdop>6.0</pdop><geoidheight>50.60</geoidheight><course>26.167757</course><type>1</type></trkpt>
      <trkpt lat="39.30607971675258" lon="-6.031820266615306"><ele>3336</ele><speed>13.41</speed><time>2016-07-09T13:46:50Z</time><pdop>6.0</pdop><geoidheight>50.60</geoidheight><course>28.881227</course><type>1</type></trkpt>
      <trkpt lat="39.30617983180703" lon="-6.031741366040905"><ele>3336</ele><speed>13.37</speed><time>2016-07-09T13:46:51Z</time><pdop>6.0</pdop><geoidheight>50.60</geoidheight><course>30.236677</course><type>1</type></trkpt>
      <trkpt lat="39.3062787838607" lon="-6.03166428379509"><ele>3336</ele><speed>13.05</speed><time>2016-07-09T13:46:52Z</time><pdop>6.0</pdop><geoidheight>50.60</geoidheight><course>29.639347</course><type>1</type></trkpt>
      <trkpt lat="39.3063776593077" lon="-6.031588844162009"><ele>3336</ele><speed>12.88</speed><time>2016-07-09T13:46:53Z</time><pdop>6.0</pdop><geoidheight>50.60</geoidheight><course>29.305979</course><type>1</type></trkpt>
      <trkpt lat="39.306578393837796" lon="-6.031447371637241"><ele>3335</ele><speed>13.42</speed><time>2016-07-09T13:46:55Z</time><pdop>6.0</pdop><geoidheight>50.60</geoidheight><course>28.849655</course><type>1</type></trkpt>
      <trkpt lat="39.30679511158735" lon="-6.031292925593045"><ele>3334</ele><speed>14.19</speed><time>2016-07-09T13:46:57Z</time><pdop>6.0</pdop><geoidheight>50.60</geoidheight><course>28.784054</course><type>1</type></trkpt>
      <trkpt lat="39.306902666220644" lon="-6.0312168412311635"><ele>3333</ele><speed>13.54</speed><time>2016-07-09T13:46:58Z</time><pdop>6.0</pdop><geoidheight>50.60</geoidheight><course>28.392563</course><type>1</type></trkpt>
      <trkpt lat="39.30700279610039" lon="-6.031145934001821"><ele>3333</ele><speed>12.25</speed><time>2016-07-09T13:46:59Z</time><pdop>6.0</pdop><geoidheight>50.60</geoidheight><course>28.745163</course><type>1</type></trkpt>
      <trkpt lat="39.30717538832767" lon="-6.031011520564161"><ele>3333</ele><speed>10.50</speed><time>2016-07-09T13:47:01Z</time><pdop>8.0</pdop><geoidheight>50.60</geoidheight><course>31.328026</course><type>1</type></trkpt>
      <trkpt lat="39.30733807066479" lon="-6.0308747711281505"><ele>3333</ele><speed>10.64</speed><time>2016-07-09T13:47:03Z</time><pdop>8.0</pdop><geoidheight>50.60</geoidheight><course>31.384481</course><type>1</type></trkpt>
      <trkpt lat="39.30749499944826" lon="-6.030765874968546"><ele>3334</ele><speed>8.91</speed><time>2016-07-09T13:47:06Z</time><pdop>6.0</pdop><geoidheight>50.60</geoidheight><course>27.253763</course><type>1</type></trkpt>
      <trkpt lat="39.30764577498354" lon="-6.0306657763051295"><ele>3335</ele><speed>10.08</speed><time>2016-07-09T13:47:07Z</time><pdop>6.0</pdop><geoidheight>50.60</geoidheight><course>28.544592</course><type>1</type></trkpt>
      <trkpt lat="39.30781467661325" lon="-6.0305229312329764"><ele>3335</ele><speed>11.36</speed><time>2016-07-09T13:47:09Z</time><pdop>8.0</pdop><geoidheight>50.60</geoidheight><course>33.460392</course><type>1</type></trkpt>
      <trkpt lat="39.30796516862" lon="-6.0303931196200935"><ele>3336</ele><speed>8.63</speed><time>2016-07-09T13:47:11Z</time><pdop>8.0</pdop><geoidheight>50.60</geoidheight><course>32.68676</course><type>1</type></trkpt>
      <trkpt lat="39.30809421164031" lon="-6.030284098380141"><ele>3338</ele><speed>7.97</speed><time>2016-07-09T13:47:13Z</time><pdop>8.0</pdop><geoidheight>50.60</geoidheight><course>33.82222</course><type>1</type></trkpt>
      <trkpt lat="39.30822193094265" lon="-6.030168917445459"><ele>3341</ele><speed>9.01</speed><time>2016-07-09T13:47:15Z</time><pdop>6.0</pdop><geoidheight>50.60</geoidheight><course>32.89012</course><type>1</type></trkpt>
      <trkpt lat="39.30836852246971" lon="-6.030057124518702"><ele>3343</ele><speed>10.60</speed><time>2016-07-09T13:47:17Z</time><pdop>6.0</pdop><geoidheight>50.60</geoidheight><course>29.870441</course><type>1</type></trkpt>
      <trkpt lat="39.308530141190076" lon="-6.029938079994395"><ele>3344</ele><speed>11.03</speed><time>2016-07-09T13:47:19Z</time><pdop>6.0</pdop><geoidheight>50.60</geoidheight><course>28.940027</course><type>1</type></trkpt>
      <trkpt lat="39.308698140124704" lon="-6.029823789081553"><ele>3344</ele><speed>11.18</speed><time>2016-07-09T13:47:21Z</time><pdop>6.0</pdop><geoidheight>50.60</geoidheight><course>28.039143</course><type>1</type></trkpt>
      <trkpt lat="39.308795871823534" lon="-6.029758567868457"><ele>3344</ele><speed>11.07</speed><time>2016-07-09T13:47:22Z</time><pdop>6.0</pdop><geoidheight>50.60</geoidheight><course>27.054813</course><type>1</type></trkpt>
      <trkpt lat="39.30898215197989" lon="-6.029639447303398"><ele>3342</ele><speed>11.58</speed><time>2016-07-09T13:47:24Z</time><pdop>6.0</pdop><geoidheight>50.60</geoidheight><course>27.14887</course><type>1</type></trkpt>
      <trkpt lat="39.30915864199304" lon="-6.029519496651905"><ele>3339</ele><speed>11.04</speed><time>2016-07-09T13:47:26Z</time><pdop>6.0</pdop><geoidheight>50.60</geoidheight><course>29.662876</course><type>1</type></trkpt>
      <trkpt lat="39.30932830553393" lon="-6.02940327473481"><ele>3336</ele><speed>10.95</speed><time>2016-07-09T13:47:28Z</time><pdop>6.0</pdop><geoidheight>50.60</geoidheight><course>28.348782</course><type>1</type></trkpt>
      <trkpt lat="39.30950770781214" lon="-6.029288838272412"><ele>3332</ele><speed>12.31</speed><time>2016-07-09T13:47:30Z</time><pdop>6.0</pdop><geoidheight>50.60</geoidheight><course>26.841402</course><type>1</type></trkpt>
      <trkpt lat="39.30960701424112" lon="-6.029227493591308"><ele>3331</ele><speed>12.86</speed><time>2016-07-09T13:47:31Z</time><pdop>6.0</pdop><geoidheight>50.60</geoidheight><course>26.484543</course><type>1</type></trkpt>
      <trkpt lat="39.3097086798349" lon="-6.029165147507578"><ele>3329</ele><speed>12.98</speed><time>2016-07-09T13:47:32Z</time><pdop>6.0</pdop><geoidheight>50.60</geoidheight><course>25.852905</course><type>1</type></trkpt>
      <trkpt lat="39.30981089480727" lon="-6.029107713658264"><ele>3328</ele><speed>12.39</speed><time>2016-07-09T13:47:33Z</time><pdop>6.0</pdop><geoidheight>50.60</geoidheight><course>25.232985</course><type>1</type></trkpt>
      <trkpt lat="39.309909934310255" lon="-6.029051073472886"><ele>3327</ele><speed>11.91</speed><time>2016-07-09T13:47:34Z</time><pdop>6.0</pdop><geoidheight>50.60</geoidheight><course>25.778845</course><type>1</type></trkpt>
      <trkpt lat="39.31010195946589" lon="-6.02892476453445"><ele>3326</ele><speed>12.26</speed><time>2016-07-09T13:47:36Z</time><pdop>6.0</pdop><geoidheight>50.60</geoidheight><course>28.18579</course><type>1</type></trkpt>
      <trkpt lat="39.31020147898636" lon="-6.028858644098355"><ele>3325</ele><speed>12.46</speed><time>2016-07-09T13:47:37Z</time><pdop>6.0</pdop><geoidheight>50.60</geoidheight><course>27.437809</course><type>1</type></trkpt>
      <trkpt lat="39.31029950583523" lon="-6.028799533499255"><ele>3325</ele><speed>11.91</speed><time>2016-07-09T13:47:38Z</time><pdop>6.0</pdop><geoidheight>50.60</geoidheight><course>25.751667</course><type>1</type></trkpt>
      <trkpt lat="39.310479360119245" lon="-6.028699938248861"><ele>3324</ele><speed>10.37</speed><time>2016-07-09T13:47:40Z</time><pdop>6.0</pdop><geoidheight>50.60</geoidheight><course>25.26802</course><type>1</type></trkpt>
      <trkpt lat="39.31066761109732" lon="-6.028585044776059"><ele>3324</ele><speed>12.28</speed><time>2016-07-09T13:47:42Z</time><pdop>6.0</pdop><geoidheight>50.60</geoidheight><course>25.529068</course><type>1</type></trkpt>
      <trkpt lat="39.31076898180838" lon="-6.028524276905654"><ele>3324</ele><speed>12.51</speed><time>2016-07-09T13:47:43Z</time><pdop>6.0</pdop><geoidheight>50.60</geoidheight><course>24.980993</course><type>1</type></trkpt>
      <trkpt lat="39.31094128367563" lon="-6.028418622794934"><ele>3324</ele><speed>9.92</speed><time>2016-07-09T13:47:45Z</time><pdop>6.0</pdop><geoidheight>50.60</geoidheight><course>27.106308</course><type>1</type></trkpt>
      <trkpt lat="39.31109795379956" lon="-6.028308292125646"><ele>3324</ele><speed>10.16</speed><time>2016-07-09T13:47:47Z</time><pdop>6.0</pdop><geoidheight>50.60</geoidheight><course>28.773949</course><type>1</type></trkpt>
      <trkpt lat="39.31119642938262" lon="-6.0282388687651975"><ele>3324</ele><speed>12.69</speed><time>2016-07-09T13:47:48Z</time><pdop>6.0</pdop><geoidheight>50.60</geoidheight><course>29.27625</course><type>1</type></trkpt>
      <trkpt lat="39.31130222963894" lon="-6.028165794391393"><ele>3323</ele><speed>13.70</speed><time>2016-07-09T13:47:49Z</time><pdop>6.0</pdop><geoidheight>50.60</geoidheight><course>28.358404</course><type>1</type></trkpt>
      <trkpt lat="39.311406853575164" lon="-6.028100237222762"><ele>3322</ele><speed>13.25</speed><time>2016-07-09T13:47:50Z</time><pdop>6.0</pdop><geoidheight>50.60</geoidheight><course>26.797543</course><type>1</type></trkpt>
      <trkpt lat="39.31158431191399" lon="-6.028000088195436"><ele>3321</ele><speed>10.08</speed><time>2016-07-09T13:47:52Z</time><pdop>6.0</pdop><geoidheight>50.60</geoidheight><course>23.905678</course><type>1</type></trkpt>
      <trkpt lat="39.31174013966383" lon="-6.02792011121345"><ele>3320</ele><speed>9.34</speed><time>2016-07-09T13:47:54Z</time><pdop>6.0</pdop><geoidheight>50.60</geoidheight><course>24.2178</course><type>1</type></trkpt>
      <trkpt lat="39.31184178213148" lon="-6.027860972172024"><ele>3319</ele><speed>12.49</speed><time>2016-07-09T13:47:55Z</time><pdop>6.0</pdop><geoidheight>50.60</geoidheight><course>26.191847</course><type>1</type></trkpt>
      <trkpt lat="39.311959081685174" lon="-6.027790963230002"><ele>3316</ele><speed>14.72</speed><time>2016-07-09T13:47:56Z</time><pdop>6.0</pdop><geoidheight>50.60</geoidheight><course>25.561373</course><type>1</type></trkpt>
      <trkpt lat="39.31208694841973" lon="-6.027716896837945"><ele>3313</ele><speed>15.89</speed><time>2016-07-09T13:47:57Z</time><pdop>6.0</pdop><geoidheight>50.60</geoidheight><course>24.307232</course><type>1</type></trkpt>
      <trkpt lat="39.31220749134486" lon="-6.027654203425322"><ele>3311</ele><speed>14.70</speed><time>2016-07-09T13:47:58Z</time><pdop>8.0</pdop><geoidheight>50.60</geoidheight><course>22.964024</course><type>1</type></trkpt>
      <trkpt lat="39.31243123833305" lon="-6.0275505087442935"><ele>3306</ele><speed>13.07</speed><time>2016-07-09T13:48:00Z</time><pdop>8.0</pdop><geoidheight>50.60</geoidheight><course>21.002485</course><type>1</type></trkpt>
      <trkpt lat="39.312637487256794" lon="-6.027458787292694"><ele>3301</ele><speed>11.72</speed><time>2016-07-09T13:48:02Z</time><pdop>6.0</pdop><geoidheight>50.60</geoidheight><course>21.418186</course><type>1</type></trkpt>
      <trkpt lat="39.31283632427189" lon="-6.027375648844891"><ele>3297</ele><speed>11.88</speed><time>2016-07-09T13:48:04Z</time><pdop>6.0</pdop><geoidheight>50.60</geoidheight><course>19.361048</course><type>1</type></trkpt>
      <trkpt lat="39.313045782248345" lon="-6.027296253070426"><ele>3292</ele><speed>12.86</speed><time>2016-07-09T13:48:06Z</time><pdop>6.0</pdop><geoidheight>50.60</geoidheight><course>19.199978</course><type>1</type></trkpt>
      <trkpt lat="39.31315535564149" lon="-6.027246730778682"><ele>3288</ele><speed>13.52</speed><time>2016-07-09T13:48:07Z</time><pdop>6.0</pdop><geoidheight>50.60</geoidheight><course>21.904072</course><type>1</type></trkpt>
      <trkpt lat="39.3132697297177" lon="-6.0271856264479835"><ele>3284</ele><speed>14.95</speed><time>2016-07-09T13:48:08Z</time><pdop>6.0</pdop><geoidheight>50.60</geoidheight><course>24.823425</course><type>1</type></trkpt>
      <trkpt lat="39.31337390806491" lon="-6.027122941970234"><ele>3280</ele><speed>13.92</speed><time>2016-07-09T13:48:09Z</time><pdop>6.0</pdop><geoidheight>50.60</geoidheight><course>26.403908</course><type>1</type></trkpt>
      <trkpt lat="39.31347338093314" lon="-6.0270540894174065"><ele>3275</ele><speed>13.60</speed><time>2016-07-09T13:48:10Z</time><pdop>6.0</pdop><geoidheight>50.60</geoidheight><course>28.953648</course><type>1</type></trkpt>
      <trkpt lat="39.31355799692448" lon="-6.026961958412453"><ele>3270</ele><speed>13.11</speed><time>2016-07-09T13:48:11Z</time><pdop>6.0</pdop><geoidheight>50.60</geoidheight><course>41.93315</course><type>1</type></trkpt>
      <trkpt lat="39.31363961202158" lon="-6.026866326323562"><ele>3265</ele><speed>12.91</speed><time>2016-07-09T13:48:12Z</time><pdop>6.0</pdop><geoidheight>50.60</geoidheight><course>44.15872</course><type>1</type></trkpt>
      <trkpt lat="39.31377846569499" lon="-6.026688308463045"><ele>3256</ele><speed>10.64</speed><time>2016-07-09T13:48:15Z</time><pdop>8.0</pdop><geoidheight>50.60</geoidheight><course>44.251896</course><type>1</type></trkpt>
      <trkpt lat="39.313904782552285" lon="-6.026429028084755"><ele>3247</ele><speed>13.66</speed><time>2016-07-09T13:48:17Z</time><pdop>8.0</pdop><geoidheight>50.60</geoidheight><course>50.391304</course><type>1</type></trkpt>
      <trkpt lat="39.31402171712777" lon="-6.026180848176"><ele>3238</ele><speed>12.20</speed><time>2016-07-09T13:48:19Z</time><pdop>8.0</pdop><geoidheight>50.60</geoidheight><course>54.9691</course><type>1</type></trkpt>
      <trkpt lat="39.31416010582726" lon="-6.025980296602392"><ele>3227</ele><speed>16.13</speed><time>2016-07-09T13:48:21Z</time><pdop>12.0</pdop><geoidheight>50.60</geoidheight><course>52.327766</course><type>1</type></trkpt>
      <trkpt lat="39.31434186813864" lon="-6.025680736308177"><ele>3219</ele><speed>14.01</speed><time>2016-07-09T13:48:25Z</time><pdop>16.0</pdop><geoidheight>50.60</geoidheight><course>35.500546</course><type>1</type></trkpt>
      <trkpt lat="39.31453698287781" lon="-6.025443921905949"><ele>3199</ele><speed>10.62</speed><time>2016-07-09T13:48:29Z</time><pdop>8.0</pdop><geoidheight>50.60</geoidheight><course>55.560966</course><type>1</type></trkpt>
      <trkpt lat="39.3146448992693" lon="-6.025297876408387"><ele>3188</ele><speed>10.22</speed><time>2016-07-09T13:48:31Z</time><pdop>8.0</pdop><geoidheight>50.60</geoidheight><course>51.93371</course><type>1</type></trkpt>
      <trkpt lat="39.314789111749334" lon="-6.025096818915766"><ele>3181</ele><speed>8.78</speed><time>2016-07-09T13:48:34Z</time><pdop>8.0</pdop><geoidheight>50.60</geoidheight><course>51.517765</course><type>1</type></trkpt>
      <trkpt lat="39.31491484316932" lon="-6.024881642219942"><ele>3176</ele><speed>12.17</speed><time>2016-07-09T13:48:36Z</time><pdop>12.0</pdop><geoidheight>50.60</geoidheight><course>54.547867</course><type>1</type></trkpt>
      <trkpt lat="39.31504543338227" lon="-6.024660313761979"><ele>3170</ele><speed>10.69</speed><time>2016-07-09T13:48:38Z</time><pdop>8.0</pdop><geoidheight>50.60</geoidheight><course>53.693806</course><type>1</type></trkpt>
      <trkpt lat="39.31513682767456" lon="-6.024512894053272"><ele>3167</ele><speed>7.04</speed><time>2016-07-09T13:48:40Z</time><pdop>8.0</pdop><geoidheight>50.60</geoidheight><course>56.071342</course><type>1</type></trkpt>
      <trkpt lat="39.31521482658299" lon="-6.024344605787372"><ele>3164</ele><speed>10.84</speed><time>2016-07-09T13:48:42Z</time><pdop>8.0</pdop><geoidheight>50.60</geoidheight><course>58.161495</course><type>1</type></trkpt>
      <trkpt lat="39.315326357003876" lon="-6.024127414392111"><ele>3158</ele><speed>13.71</speed><time>2016-07-09T13:48:44Z</time><pdop>8.0</pdop><geoidheight>50.60</geoidheight><course>50.297226</course><type>1</type></trkpt>
      <trkpt lat="39.31546087528031" lon="-6.023930552929824"><ele>3150</ele><speed>10.62</speed><time>2016-07-09T13:48:46Z</time><pdop>8.0</pdop><geoidheight>50.60</geoidheight><course>50.969753</course><type>1</type></trkpt>
      <trkpt lat="39.315568779053756" lon="-6.023765164502761"><ele>3143</ele><speed>9.60</speed><time>2016-07-09T13:48:48Z</time><pdop>8.0</pdop><geoidheight>50.60</geoidheight><course>52.8036</course><type>1</type></trkpt>
      <trkpt lat="39.31567932985824" lon="-6.023606553195675"><ele>3137</ele><speed>9.63</speed><time>2016-07-09T13:48:50Z</time><pdop>8.0</pdop><geoidheight>50.60</geoidheight><course>49.29224</course><type>1</type></trkpt>
      <trkpt lat="39.31579984399592" lon="-6.023448657763014"><ele>3131</ele><speed>9.64</speed><time>2016-07-09T13:48:52Z</time><pdop>8.0</pdop><geoidheight>50.60</geoidheight><course>47.7728</course><type>1</type></trkpt>
      <trkpt lat="39.31591499127663" lon="-6.02330105447452"><ele>3127</ele><speed>9.01</speed><time>2016-07-09T13:48:53Z</time><pdop>8.0</pdop><geoidheight>50.60</geoidheight><course>45.393635</course><type>1</type></trkpt>
      <trkpt lat="39.31603168138161" lon="-6.023168090827328"><ele>3122</ele><speed>8.56</speed><time>2016-07-09T13:48:56Z</time><pdop>8.0</pdop><geoidheight>50.60</geoidheight><course>42.96174</course><type>1</type></trkpt>
      <trkpt lat="39.31618425426148" lon="-6.022973149276706"><ele>3117</ele><speed>9.09</speed><time>2016-07-09T13:48:59Z</time><pdop>8.0</pdop><geoidheight>50.60</geoidheight><course>45.081352</course><type>1</type></trkpt>
      <trkpt lat="39.31628979906533" lon="-6.022842527655352"><ele>3112</ele><speed>8.51</speed><time>2016-07-09T13:49:00Z</time><pdop>6.0</pdop><geoidheight>50.60</geoidheight><course>43.507534</course><type>1</type></trkpt>
      <trkpt lat="39.31638587232801" lon="-6.022713999747935"><ele>3108</ele><speed>7.89</speed><time>2016-07-09T13:49:03Z</time><pdop>6.0</pdop><geoidheight>50.60</geoidheight><course>46.0937</course><type>1</type></trkpt>
      <trkpt lat="39.31649248830484" lon="-6.022571122234937"><ele>3105</ele><speed>8.81</speed><time>2016-07-09T13:49:05Z</time><pdop>6.0</pdop><geoidheight>50.60</geoidheight><course>44.538467</course><type>1</type></trkpt>
      <trkpt lat="39.31661069495891" lon="-6.022437423752783"><ele>3100</ele><speed>9.60</speed><time>2016-07-09T13:49:07Z</time><pdop>6.0</pdop><geoidheight>50.60</geoidheight><course>41.835938</course><type>1</type></trkpt>
      <trkpt lat="39.31673713179036" lon="-6.022303759002289"><ele>3095</ele><speed>9.24</speed><time>2016-07-09T13:49:09Z</time><pdop>6.0</pdop><geoidheight>50.60</geoidheight><course>40.38216</course><type>1</type></trkpt>
      <trkpt lat="39.316850906164134" lon="-6.022191146936108"><ele>3091</ele><speed>7.01</speed><time>2016-07-09T13:49:11Z</time><pdop>6.0</pdop><geoidheight>50.60</geoidheight><course>39.171852</course><type>1</type></trkpt>
      <trkpt lat="39.31693884621071" lon="-6.0221025946696916"><ele>3086</ele><speed>6.61</speed><time>2016-07-09T13:49:13Z</time><pdop>6.0</pdop><geoidheight>50.60</geoidheight><course>39.94061</course><type>1</type></trkpt>
      <trkpt lat="39.31704521244489" lon="-6.0219946343190935"><ele>3081</ele><speed>8.61</speed><time>2016-07-09T13:49:15Z</time><pdop>6.0</pdop><geoidheight>50.60</geoidheight><course>38.312378</course><type>1</type></trkpt>
      <trkpt lat="39.317161327571995" lon="-6.02189075460316"><ele>3074</ele><speed>7.42</speed><time>2016-07-09T13:49:17Z</time><pdop>6.0</pdop><geoidheight>50.60</geoidheight><course>36.10662</course><type>1</type></trkpt>
      <trkpt lat="39.31726508011631" lon="-6.021802319257628"><ele>3070</ele><speed>7.06</speed><time>2016-07-09T13:49:19Z</time><pdop>6.0</pdop><geoidheight>50.60</geoidheight><course>36.21087</course><type>1</type></trkpt>
      <trkpt lat="39.31737831749914" lon="-6.0216957049652615"><ele>3065</ele><speed>8.27</speed><time>2016-07-09T13:49:21Z</time><pdop>6.0</pdop><geoidheight>50.60</geoidheight><course>37.90395</course><type>1</type></trkpt>
      <trkpt lat="39.31748907094216" lon="-6.02158293354449"><ele>3061</ele><speed>7.65</speed><time>2016-07-09T13:49:23Z</time><pdop>6.0</pdop><geoidheight>50.60</geoidheight><course>38.665703</course><type>1</type></trkpt>
      <trkpt lat="39.31759451094042" lon="-6.021470497873978"><ele>3055</ele><speed>8.54</speed><time>2016-07-09T13:49:25Z</time><pdop>6.0</pdop><geoidheight>50.60</geoidheight><course>39.13264</course><type>1</type></trkpt>
      <trkpt lat="39.3177141646519" lon="-6.021345681555531"><ele>3049</ele><speed>9.75</speed><time>2016-07-09T13:49:27Z</time><pdop>6.0</pdop><geoidheight>50.60</geoidheight><course>38.298084</course><type>1</type></trkpt>
      <trkpt lat="39.31783995826322" lon="-6.021226328109385"><ele>3042</ele><speed>8.73</speed><time>2016-07-09T13:49:29Z</time><pdop>6.0</pdop><geoidheight>50.60</geoidheight><course>37.89671</course><type>1</type></trkpt>
      <trkpt lat="39.317966265651876" lon="-6.021097520741337"><ele>3035</ele><speed>10.15</speed><time>2016-07-09T13:49:31Z</time><pdop>6.0</pdop><geoidheight>50.60</geoidheight><course>38.994686</course><type>1</type></trkpt>
      <trkpt lat="39.31810907096913" lon="-6.020945319999906"><ele>3028</ele><speed>9.93</speed><time>2016-07-09T13:49:33Z</time><pdop>8.0</pdop><geoidheight>50.60</geoidheight><course>41.087246</course><type>1</type></trkpt>
      <trkpt lat="39.31823514310341" lon="-6.020794592475005"><ele>3024</ele><speed>9.70</speed><time>2016-07-09T13:49:35Z</time><pdop>6.0</pdop><geoidheight>50.60</geoidheight><course>42.91319</course><type>1</type></trkpt>
      <trkpt lat="39.318355053463584" lon="-6.02062611422761"><ele>3020</ele><speed>10.38</speed><time>2016-07-09T13:49:37Z</time><pdop>6.0</pdop><geoidheight>50.60</geoidheight><course>47.302174</course><type>1</type></trkpt>
      <trkpt lat="39.31847062027648" lon="-6.020432113642883"><ele>3016</ele><speed>10.45</speed><time>2016-07-09T13:49:39Z</time><pdop>6.0</pdop><geoidheight>50.60</geoidheight><course>51.08561</course><type>1</type></trkpt>
      <trkpt lat="39.31858591008822" lon="-6.020232550574265"><ele>3011</ele><speed>12.91</speed><time>2016-07-09T13:49:41Z</time><pdop>6.0</pdop><geoidheight>50.60</geoidheight><course>50.227116</course><type>1</type></trkpt>
      <trkpt lat="39.318659757462875" lon="-6.020125580320366"><ele>3008</ele><speed>13.23</speed><time>2016-07-09T13:49:42Z</time><pdop>6.0</pdop><geoidheight>50.60</geoidheight><course>47.536285</course><type>1</type></trkpt>
      <trkpt lat="39.31879853128928" lon="-6.019949725374557"><ele>3003</ele><speed>10.39</speed><time>2016-07-09T13:49:44Z</time><pdop>6.0</pdop><geoidheight>50.60</geoidheight><course>44.382248</course><type>1</type></trkpt>
      <trkpt lat="39.318933227685925" lon="-6.019801777219577"><ele>3000</ele><speed>9.57</speed><time>2016-07-09T13:49:46Z</time><pdop>6.0</pdop><geoidheight>50.60</geoidheight><course>40.159954</course><type>1</type></trkpt>
      <trkpt lat="39.319074438943694" lon="-6.019665061231255"><ele>2998</ele><speed>10.21</speed><time>2016-07-09T13:49:48Z</time><pdop>6.0</pdop><geoidheight>50.60</geoidheight><course>37.858383</course><type>1</type></trkpt>
      <trkpt lat="39.31923366170642" lon="-6.01951985360473"><ele>2993</ele><speed>11.99</speed><time>2016-07-09T13:49:50Z</time><pdop>6.0</pdop><geoidheight>50.60</geoidheight><course>36.616184</course><type>1</type></trkpt>
      <trkpt lat="39.31938674513909" lon="-6.01938098243572"><ele>2989</ele><speed>9.76</speed><time>2016-07-09T13:49:51Z</time><pdop>6.0</pdop><geoidheight>50.60</geoidheight><course>37.72132</course><type>1</type></trkpt>
      <trkpt lat="39.31953330862307" lon="-6.0192406213270315"><ele>2985</ele><speed>9.44</speed><time>2016-07-09T13:49:54Z</time><pdop>8.0</pdop><geoidheight>50.60</geoidheight><course>36.499294</course><type>1</type></trkpt>
      <trkpt lat="39.31968731599023" lon="-6.019097684160077"><ele>2981</ele><speed>11.06</speed><time>2016-07-09T13:49:56Z</time><pdop>8.0</pdop><geoidheight>50.60</geoidheight><course>36.241093</course><type>1</type></trkpt>
      <trkpt lat="39.31984028721544" lon="-6.018950682850022"><ele>2976</ele><speed>10.40</speed><time>2016-07-09T13:49:58Z</time><pdop>6.0</pdop><geoidheight>50.60</geoidheight><course>39.415813</course><type>1</type></trkpt>
      <trkpt lat="39.31997986632991" lon="-6.018800476240162"><ele>2970</ele><speed>10.27</speed><time>2016-07-09T13:50:00Z</time><pdop>6.0</pdop><geoidheight>50.60</geoidheight><course>43.271435</course><type>1</type></trkpt>
      <trkpt lat="39.32011792363032" lon="-6.0186241120853285"><ele>2966</ele><speed>10.57</speed><time>2016-07-09T13:50:01Z</time><pdop>6.0</pdop><geoidheight>50.60</geoidheight><course>46.383633</course><type>1</type></trkpt>
      <trkpt lat="39.320237246727906" lon="-6.0184524463006905"><ele>2964</ele><speed>9.09</speed><time>2016-07-09T13:50:04Z</time><pdop>6.0</pdop><geoidheight>50.60</geoidheight><course>49.81975</course><type>1</type></trkpt>
      <trkpt lat="39.32034442233177" lon="-6.018284287852726"><ele>2961</ele><speed>9.96</speed><time>2016-07-09T13:50:05Z</time><pdop>4.0</pdop><geoidheight>50.60</geoidheight><course>50.860664</course><type>1</type></trkpt>
      <trkpt lat="39.32046647074024" lon="-6.018081077979663"><ele>2959</ele><speed>11.85</speed><time>2016-07-09T13:50:08Z</time><pdop>8.0</pdop><geoidheight>50.60</geoidheight><course>51.047676</course><type>1</type></trkpt>
      <trkpt lat="39.3205892954768" lon="-6.0178834147033955"><ele>2956</ele><speed>9.94</speed><time>2016-07-09T13:50:10Z</time><pdop>6.0</pdop><geoidheight>50.60</geoidheight><course>49.558727</course><type>1</type></trkpt>
      <trkpt lat="39.32068230006056" lon="-6.0177388817825985"><ele>2952</ele><speed>8.11</speed><time>2016-07-09T13:50:12Z</time><pdop>6.0</pdop><geoidheight>50.60</geoidheight><course>47.868725</course><type>1</type></trkpt>
      <trkpt lat="39.32078930967735" lon="-6.017599754152965"><ele>2948</ele><speed>9.31</speed><time>2016-07-09T13:50:14Z</time><pdop>4.0</pdop><geoidheight>50.60</geoidheight><course>43.63282</course><type>1</type></trkpt>
      <trkpt lat="39.32085003984268" lon="-6.017532350161769"><ele>2946</ele><speed>9.43</speed><time>2016-07-09T13:50:15Z</time><pdop>4.0</pdop><geoidheight>50.60</geoidheight><course>41.633614</course><type>1</type></trkpt>
      <trkpt lat="39.32096022191447" lon="-6.01740955806019"><ele>2942</ele><speed>7.57</speed><time>2016-07-09T13:50:17Z</time><pdop>6.0</pdop><geoidheight>50.60</geoidheight><course>42.843197</course><type>1</type></trkpt>
      <trkpt lat="39.32104841722316" lon="-6.017309227899237"><ele>2938</ele><speed>6.57</speed><time>2016-07-09T13:50:19Z</time><pdop>6.0</pdop><geoidheight>50.60</geoidheight><course>40.903545</course><type>1</type></trkpt>
      <trkpt lat="39.32116720606273" lon="-6.0172301196448155"><ele>2932</ele><speed>8.85</speed><time>2016-07-09T13:50:21Z</time><pdop>6.0</pdop><geoidheight>50.60</geoidheight><course>27.970617</course><type>1</type></trkpt>
      <trkpt lat="39.321306281747255" lon="-6.01711964041471"><ele>2927</ele><speed>8.71</speed><time>2016-07-09T13:50:23Z</time><pdop>6.0</pdop><geoidheight>50.60</geoidheight><course>33.433838</course><type>1</type></trkpt>
      <trkpt lat="39.32142036834675" lon="-6.017012383523655"><ele>2923</ele><speed>7.43</speed><time>2016-07-09T13:50:25Z</time><pdop>4.0</pdop><geoidheight>50.60</geoidheight><course>34.12512</course><type>1</type></trkpt>
      <trkpt lat="39.32153520878126" lon="-6.016896836324505"><ele>2920</ele><speed>9.27</speed><time>2016-07-09T13:50:27Z</time><pdop>4.0</pdop><geoidheight>50.60</geoidheight><course>37.944286</course><type>1</type></trkpt>
      <trkpt lat="39.321597582210124" lon="-6.016821541949852"><ele>2917</ele><speed>9.91</speed><time>2016-07-09T13:50:28Z</time><pdop>4.0</pdop><geoidheight>50.60</geoidheight><course>41.906944</course><type>1</type></trkpt>
      <trkpt lat="39.32164671266445" lon="-6.016727197193737"><ele>2915</ele><speed>10.06</speed><time>2016-07-09T13:50:29Z</time><pdop>4.0</pdop><geoidheight>50.60</geoidheight><course>55.69751</course><type>1</type></trkpt>
      <trkpt lat="39.32169323305659" lon="-6.016639285669747"><ele>2913</ele><speed>9.44</speed><time>2016-07-09T13:50:29Z</time><pdop>4.0</pdop><geoidheight>50.60</geoidheight><course>56.641674</course><type>1</type></trkpt>
      <trkpt lat="39.32179353229206" lon="-6.016496476058361"><ele>2911</ele><speed>7.72</speed><time>2016-07-09T13:50:32Z</time><pdop>8.0</pdop><geoidheight>50.60</geoidheight><course>39.67484</course><type>1</type></trkpt>
      <trkpt lat="39.3219419914528" lon="-6.016333846460225"><ele>2908</ele><speed>7.74</speed><time>2016-07-09T13:50:35Z</time><pdop>8.0</pdop><geoidheight>50.60</geoidheight><course>39.95953</course><type>1</type></trkpt>
      <trkpt lat="39.32204571420573" lon="-6.016203042709189"><ele>2904</ele><speed>8.43</speed><time>2016-07-09T13:50:37Z</time><pdop>8.0</pdop><geoidheight>50.60</geoidheight><course>43.831078</course><type>1</type></trkpt>
      <trkpt lat="39.32215762775777" lon="-6.016106186722557"><ele>2899</ele><speed>7.38</speed><time>2016-07-09T13:50:39Z</time><pdop>6.0</pdop><geoidheight>50.60</geoidheight><course>26.998075</course><type>1</type></trkpt>
      <trkpt lat="39.32226685184834" lon="-6.016039151908721"><ele>2894</ele><speed>6.77</speed><time>2016-07-09T13:50:41Z</time><pdop>6.0</pdop><geoidheight>50.60</geoidheight><course>28.60135</course><type>1</type></trkpt>
      <trkpt lat="39.32237296822743" lon="-6.015949310579666"><ele>2890</ele><speed>7.36</speed><time>2016-07-09T13:50:43Z</time><pdop>4.0</pdop><geoidheight>50.60</geoidheight><course>32.704487</course><type>1</type></trkpt>
      <trkpt lat="39.32248932479244" lon="-6.015846615567874"><ele>2886</ele><speed>8.48</speed><time>2016-07-09T13:50:45Z</time><pdop>4.0</pdop><geoidheight>50.60</geoidheight><course>33.37182</course><type>1</type></trkpt>
      <trkpt lat="39.32255050733201" lon="-6.015792738031775"><ele>2884</ele><speed>8.33</speed><time>2016-07-09T13:50:46Z</time><pdop>4.0</pdop><geoidheight>50.60</geoidheight><course>33.77203</course><type>1</type></trkpt>
      <trkpt lat="39.322661110989415" lon="-6.015695096197291"><ele>2881</ele><speed>6.66</speed><time>2016-07-09T13:50:48Z</time><pdop>4.0</pdop><geoidheight>50.60</geoidheight><course>35.43235</course><type>1</type></trkpt>
      <trkpt lat="39.322768920895186" lon="-6.015588851829484"><ele>2878</ele><speed>8.01</speed><time>2016-07-09T13:50:50Z</time><pdop>4.0</pdop><geoidheight>50.60</geoidheight><course>37.93649</course><type>1</type></trkpt>
      <trkpt lat="39.32282611037475" lon="-6.015522769609559"><ele>2876</ele><speed>9.84</speed><time>2016-07-09T13:50:51Z</time><pdop>4.0</pdop><geoidheight>50.60</geoidheight><course>40.447968</course><type>1</type></trkpt>
      <trkpt lat="39.322890894168" lon="-6.015445395147941"><ele>2874</ele><speed>10.25</speed><time>2016-07-09T13:50:52Z</time><pdop>4.0</pdop><geoidheight>50.60</geoidheight><course>42.02941</course><type>1</type></trkpt>
      <trkpt lat="39.32295387782181" lon="-6.015370286532678"><ele>2872</ele><speed>9.15</speed><time>2016-07-09T13:50:53Z</time><pdop>4.0</pdop><geoidheight>50.60</geoidheight><course>41.462425</course><type>1</type></trkpt>
      <trkpt lat="39.32301430170211" lon="-6.015302406490996"><ele>2871</ele><speed>8.83</speed><time>2016-07-09T13:50:54Z</time><pdop>4.0</pdop><geoidheight>50.60</geoidheight><course>40.034634</course><type>1</type></trkpt>
      <trkpt lat="39.32307745776466" lon="-6.0152392262632235"><ele>2870</ele><speed>9.08</speed><time>2016-07-09T13:50:54Z</time><pdop>4.0</pdop><geoidheight>50.60</geoidheight><course>37.937885</course><type>1</type></trkpt>
      <trkpt lat="39.32314496458272" lon="-6.0151785715273345"><ele>2869</ele><speed>9.59</speed><time>2016-07-09T13:50:55Z</time><pdop>4.0</pdop><geoidheight>50.60</geoidheight><course>35.791122</course><type>1</type></trkpt>
      <trkpt lat="39.323218183654284" lon="-6.015115629190959"><ele>2868</ele><speed>9.46</speed><time>2016-07-09T13:50:57Z</time><pdop>4.0</pdop><geoidheight>50.60</geoidheight><course>34.27043</course><type>1</type></trkpt>
      <trkpt lat="39.32335917454045" lon="-6.015009162016705"><ele>2865</ele><speed>9.50</speed><time>2016-07-09T13:50:59Z</time><pdop>6.0</pdop><geoidheight>50.60</geoidheight><course>31.16235</course><type>1</type></trkpt>
      <trkpt lat="39.32351270676315" lon="-6.014926834177907"><ele>2862</ele><speed>9.26</speed><time>2016-07-09T13:51:01Z</time><pdop>6.0</pdop><geoidheight>50.60</geoidheight><course>23.67394</course><type>1</type></trkpt>
      <trkpt lat="39.32366760574505" lon="-6.014861520756018"><ele>2860</ele><speed>10.64</speed><time>2016-07-09T13:51:03Z</time><pdop>6.0</pdop><geoidheight>50.60</geoidheight><course>20.757376</course><type>1</type></trkpt>
      <trkpt lat="39.32385967199177" lon="-6.014773384067437"><ele>2855</ele><speed>12.62</speed><time>2016-07-09T13:51:05Z</time><pdop>6.0</pdop><geoidheight>50.60</geoidheight><course>21.93837</course><type>1</type></trkpt>
      <trkpt lat="39.32396423944041" lon="-6.014718034969973"><ele>2853</ele><speed>12.74</speed><time>2016-07-09T13:51:06Z</time><pdop>6.0</pdop><geoidheight>50.60</geoidheight><course>23.155876</course><type>1</type></trkpt>
      <trkpt lat="39.32406420891293" lon="-6.014661394185042"><ele>2850</ele><speed>12.19</speed><time>2016-07-09T13:51:07Z</time><pdop>6.0</pdop><geoidheight>50.60</geoidheight><course>24.487923</course><type>1</type></trkpt>
      <trkpt lat="39.32425177511086" lon="-6.014538045610751"><ele>2844</ele><speed>12.13</speed><time>2016-07-09T13:51:09Z</time><pdop>6.0</pdop><geoidheight>50.60</geoidheight><course>27.61067</course><type>1</type></trkpt>
      <trkpt lat="39.324347168682" lon="-6.014467863478843"><ele>2842</ele><speed>12.25</speed><time>2016-07-09T13:51:10Z</time><pdop>6.0</pdop><geoidheight>50.60</geoidheight><course>28.854134</course><type>1</type></trkpt>
      <trkpt lat="39.32453013109953" lon="-6.014345070018594"><ele>2838</ele><speed>11.22</speed><time>2016-07-09T13:51:12Z</time><pdop>6.0</pdop><geoidheight>50.60</geoidheight><course>25.482115</course><type>1</type></trkpt>
      <trkpt lat="39.3247077912835" lon="-6.014250330214052"><ele>2833</ele><speed>10.69</speed><time>2016-07-09T13:51:14Z</time><pdop>8.0</pdop><geoidheight>50.60</geoidheight><course>23.92148</course><type>1</type></trkpt>
      <trkpt lat="39.32488805308186" lon="-6.014123716525064"><ele>2828</ele><speed>12.62</speed><time>2016-07-09T13:51:16Z</time><pdop>6.0</pdop><geoidheight>50.60</geoidheight><course>29.78664</course><type>1</type></trkpt>
      <trkpt lat="39.32498890816538" lon="-6.014043842122979"><ele>2826</ele><speed>12.87</speed><time>2016-07-09T13:51:17Z</time><pdop>6.0</pdop><geoidheight>50.60</geoidheight><course>31.196154</course><type>1</type></trkpt>
      <trkpt lat="39.32508380916171" lon="-6.013964287146194"><ele>2823</ele><speed>12.84</speed><time>2016-07-09T13:51:18Z</time><pdop>6.0</pdop><geoidheight>50.60</geoidheight><course>32.336704</course><type>1</type></trkpt>
      <trkpt lat="39.32517336375724" lon="-6.013884273997288"><ele>2820</ele><speed>12.14</speed><time>2016-07-09T13:51:18Z</time><pdop>6.0</pdop><geoidheight>50.60</geoidheight><course>34.072582</course><type>1</type></trkpt>
      <trkpt lat="39.325257627484575" lon="-6.013803081919537"><ele>2818</ele><speed>11.39</speed><time>2016-07-09T13:51:19Z</time><pdop>4.0</pdop><geoidheight>50.60</geoidheight><course>36.280453</course><type>1</type></trkpt>
      <trkpt lat="39.32534217120701" lon="-6.0137161451325385"><ele>2815</ele><speed>11.15</speed><time>2016-07-09T13:51:21Z</time><pdop>8.0</pdop><geoidheight>50.60</geoidheight><course>38.17132</course><type>1</type></trkpt>
      <trkpt lat="39.325508601296505" lon="-6.013538551501781"><ele>2810</ele><speed>12.10</speed><time>2016-07-09T13:51:23Z</time><pdop>8.0</pdop><geoidheight>50.60</geoidheight><course>38.12705</course><type>1</type></trkpt>
      <trkpt lat="39.32568741084413" lon="-6.013371262301816"><ele>2803</ele><speed>13.32</speed><time>2016-07-09T13:51:25Z</time><pdop>6.0</pdop><geoidheight>50.60</geoidheight><course>34.620125</course><type>1</type></trkpt>
      <trkpt lat="39.325783685538624" lon="-6.013287255261184"><ele>2799</ele><speed>13.47</speed><time>2016-07-09T13:51:26Z</time><pdop>6.0</pdop><geoidheight>50.60</geoidheight><course>33.83323</course><type>1</type></trkpt>
      <trkpt lat="39.325881718970216" lon="-6.013202440939655"><ele>2796</ele><speed>13.24</speed><time>2016-07-09T13:51:27Z</time><pdop>6.0</pdop><geoidheight>50.60</geoidheight><course>34.494156</course><type>1</type></trkpt>
      <trkpt lat="39.325981024335135" lon="-6.013113860365178"><ele>2793</ele><speed>12.68</speed><time>2016-07-09T13:51:28Z</time><pdop>6.0</pdop><geoidheight>50.60</geoidheight><course>35.786922</course><type>1</type></trkpt>
      <trkpt lat="39.32606940673384" lon="-6.01303142843049"><ele>2790</ele><speed>11.93</speed><time>2016-07-09T13:51:29Z</time><pdop>6.0</pdop><geoidheight>50.60</geoidheight><course>36.407303</course><type>1</type></trkpt>
      <trkpt lat="39.32623573765945" lon="-6.012879903825612"><ele>2784</ele><speed>11.35</speed><time>2016-07-09T13:51:31Z</time><pdop>6.0</pdop><geoidheight>50.60</geoidheight><course>34.67941</course><type>1</type></trkpt>
      <trkpt lat="39.32640592812559" lon="-6.012745487792159"><ele>2778</ele><speed>12.07</speed><time>2016-07-09T13:51:33Z</time><pdop>6.0</pdop><geoidheight>50.60</geoidheight><course>31.420565</course><type>1</type></trkpt>
      <trkpt lat="39.32659189081009" lon="-6.012609787620716"><ele>2771</ele><speed>12.45</speed><time>2016-07-09T13:51:35Z</time><pdop>6.0</pdop><geoidheight>50.60</geoidheight><course>29.782387</course><type>1</type></trkpt>
      <trkpt lat="39.32669467116791" lon="-6.012538443956627"><ele>2768</ele><speed>12.80</speed><time>2016-07-09T13:51:36Z</time><pdop>6.0</pdop><geoidheight>50.60</geoidheight><course>29.202255</course><type>1</type></trkpt>
      <trkpt lat="39.326790458321696" lon="-6.012473244868501"><ele>2765</ele><speed>12.71</speed><time>2016-07-09T13:51:37Z</time><pdop>6.0</pdop><geoidheight>50.60</geoidheight><course>28.75132</course><type>1</type></trkpt>
      <trkpt lat="39.32688830391584" lon="-6.01240627596342"><ele>2762</ele><speed>12.77</speed><time>2016-07-09T13:51:38Z</time><pdop>6.0</pdop><geoidheight>50.60</geoidheight><course>28.177645</course><type>1</type></trkpt>
      <trkpt lat="39.32698909730861" lon="-6.012338772367416"><ele>2759</ele><speed>12.39</speed><time>2016-07-09T13:51:39Z</time><pdop>6.0</pdop><geoidheight>50.60</geoidheight><course>28.30583</course><type>1</type></trkpt>
      <trkpt lat="39.327180232141856" lon="-6.012208395156406"><ele>2752</ele><speed>12.59</speed><time>2016-07-09T13:51:41Z</time><pdop>6.0</pdop><geoidheight>50.60</geoidheight><course>28.328388</course><type>1</type></trkpt>
      <trkpt lat="39.32727963789331" lon="-6.012139985785987"><ele>2749</ele><speed>12.67</speed><time>2016-07-09T13:51:42Z</time><pdop>6.0</pdop><geoidheight>50.60</geoidheight><course>28.770947</course><type>1</type></trkpt>
      <trkpt lat="39.327379590399964" lon="-6.0120696574030825"><ele>2745</ele><speed>12.75</speed><time>2016-07-09T13:51:43Z</time><pdop>6.0</pdop><geoidheight>50.60</geoidheight><course>28.939568</course><type>1</type></trkpt>
      <trkpt lat="39.327479378035214" lon="-6.011999240269216"><ele>2742</ele><speed>12.86</speed><time>2016-07-09T13:51:44Z</time><pdop>6.0</pdop><geoidheight>50.60</geoidheight><course>28.158327</course><type>1</type></trkpt>
      <trkpt lat="39.32758617693206" lon="-6.01192904219896"><ele>2739</ele><speed>12.75</speed><time>2016-07-09T13:51:45Z</time><pdop>6.0</pdop><geoidheight>50.60</geoidheight><course>27.715666</course><type>1</type></trkpt>
      <trkpt lat="39.32778097838454" lon="-6.01180041424311"><ele>2732</ele><speed>11.60</speed><time>2016-07-09T13:51:47Z</time><pdop>6.0</pdop><geoidheight>50.60</geoidheight><course>27.797823</course><type>1</type></trkpt>
      <trkpt lat="39.32794686215518" lon="-6.0116818564533165"><ele>2727</ele><speed>10.59</speed><time>2016-07-09T13:51:49Z</time><pdop>6.0</pdop><geoidheight>50.60</geoidheight><course>29.373133</course><type>1</type></trkpt>
      <trkpt lat="39.3281134257228" lon="-6.0115578318033975"><ele>2721</ele><speed>10.88</speed><time>2016-07-09T13:51:51Z</time><pdop>6.0</pdop><geoidheight>50.60</geoidheight><course>29.482222</course><type>1</type></trkpt>
      <trkpt lat="39.328277959587425" lon="-6.011442321117644"><ele>2714</ele><speed>11.41</speed><time>2016-07-09T13:51:53Z</time><pdop>6.0</pdop><geoidheight>50.60</geoidheight><course>27.177946</course><type>1</type></trkpt>
      <trkpt lat="39.32845886112845" lon="-6.0113319976025315"><ele>2708</ele><speed>10.84</speed><time>2016-07-09T13:51:55Z</time><pdop>6.0</pdop><geoidheight>50.60</geoidheight><course>25.440495</course><type>1</type></trkpt>
      <trkpt lat="39.32861484732804" lon="-6.0112425326154835"><ele>2702</ele><speed>9.70</speed><time>2016-07-09T13:51:57Z</time><pdop>6.0</pdop><geoidheight>50.60</geoidheight><course>25.523876</course><type>1</type></trkpt>
      <trkpt lat="39.32878156145902" lon="-6.011139549349138"><ele>2695</ele><speed>10.77</speed><time>2016-07-09T13:51:59Z</time><pdop>6.0</pdop><geoidheight>50.60</geoidheight><course>27.137146</course><type>1</type></trkpt>
      <trkpt lat="39.3289675279399" lon="-6.0110132379944465"><ele>2688</ele><speed>11.31</speed><time>2016-07-09T13:52:01Z</time><pdop>6.0</pdop><geoidheight>50.60</geoidheight><course>28.927101</course><type>1</type></trkpt>
      <trkpt lat="39.32911196907095" lon="-6.010910405694545"><ele>2683</ele><speed>8.94</speed><time>2016-07-09T13:52:03Z</time><pdop>6.0</pdop><geoidheight>50.60</geoidheight><course>28.411531</course><type>1</type></trkpt>
      <trkpt lat="39.32923753941842" lon="-6.010824154606226"><ele>2678</ele><speed>8.03</speed><time>2016-07-09T13:52:05Z</time><pdop>6.0</pdop><geoidheight>50.60</geoidheight><course>26.790169</course><type>1</type></trkpt>
      <trkpt lat="39.3293686744484" lon="-6.010739629099037"><ele>2672</ele><speed>9.40</speed><time>2016-07-09T13:52:07Z</time><pdop>6.0</pdop><geoidheight>50.60</geoidheight><course>24.965347</course><type>1</type></trkpt>
      <trkpt lat="39.32952993696979" lon="-6.010643508570285"><ele>2665</ele><speed>11.25</speed><time>2016-07-09T13:52:09Z</time><pdop>6.0</pdop><geoidheight>50.60</geoidheight><course>24.874424</course><type>1</type></trkpt>
      <trkpt lat="39.32970601592903" lon="-6.010530200839919"><ele>2658</ele><speed>10.88</speed><time>2016-07-09T13:52:11Z</time><pdop>6.0</pdop><geoidheight>50.60</geoidheight><course>26.796951</course><type>1</type></trkpt>
      <trkpt lat="39.32986583648101" lon="-6.010420869203226"><ele>2651</ele><speed>9.84</speed><time>2016-07-09T13:52:13Z</time><pdop>6.0</pdop><geoidheight>50.60</geoidheight><course>26.331224</course><type>1</type></trkpt>
      <trkpt lat="39.33002377643376" lon="-6.0103228558419834"><ele>2645</ele><speed>11.08</speed><time>2016-07-09T13:52:15Z</time><pdop>6.0</pdop><geoidheight>50.60</geoidheight><course>24.737421</course><type>1</type></trkpt>
      <trkpt lat="39.330206429527806" lon="-6.0102136213933255"><ele>2637</ele><speed>12.02</speed><time>2016-07-09T13:52:17Z</time><pdop>8.0</pdop><geoidheight>50.60</geoidheight><course>24.540695</course><type>1</type></trkpt>
      <trkpt lat="39.33040044469112" lon="-6.010115810486508"><ele>2630</ele><speed>10.97</speed><time>2016-07-09T13:52:19Z</time><pdop>6.0</pdop><geoidheight>50.60</geoidheight><course>21.71596</course><type>1</type></trkpt>
      <trkpt lat="39.33057226755457" lon="-6.01004368270897"><ele>2625</ele><speed>10.12</speed><time>2016-07-09T13:52:21Z</time><pdop>6.0</pdop><geoidheight>50.60</geoidheight><course>19.436405</course><type>1</type></trkpt>
      <trkpt lat="39.330737810529456" lon="-6.009960901615229"><ele>2620</ele><speed>10.24</speed><time>2016-07-09T13:52:23Z</time><pdop>6.0</pdop><geoidheight>50.60</geoidheight><course>22.714434</course><type>1</type></trkpt>
      <trkpt lat="39.33091955666057" lon="-6.009857163019766"><ele>2616</ele><speed>10.86</speed><time>2016-07-09T13:52:25Z</time><pdop>6.0</pdop><geoidheight>50.60</geoidheight><course>24.772497</course><type>1</type></trkpt>
      <trkpt lat="39.33109317933935" lon="-6.009754301682697"><ele>2611</ele><speed>10.84</speed><time>2016-07-09T13:52:27Z</time><pdop>6.0</pdop><geoidheight>50.60</geoidheight><course>25.252954</course><type>1</type></trkpt>
      <trkpt lat="39.331264248760085" lon="-6.009651740070651"><ele>2606</ele><speed>10.34</speed><time>2016-07-09T13:52:29Z</time><pdop>6.0</pdop><geoidheight>50.60</geoidheight><course>24.736586</course><type>1</type></trkpt>
      <trkpt lat="39.33144410380573" lon="-6.009562481026372"><ele>2601</ele><speed>10.60</speed><time>2016-07-09T13:52:31Z</time><pdop>6.0</pdop><geoidheight>50.60</geoidheight><course>21.850533</course><type>1</type></trkpt>
      <trkpt lat="39.331625818146584" lon="-6.009477237135089"><ele>2596</ele><speed>10.21</speed><time>2016-07-09T13:52:33Z</time><pdop>6.0</pdop><geoidheight>50.60</geoidheight><course>22.194195</course><type>1</type></trkpt>
      <trkpt lat="39.33179406886162" lon="-6.009391744269529"><ele>2591</ele><speed>9.58</speed><time>2016-07-09T13:52:35Z</time><pdop>6.0</pdop><geoidheight>50.60</geoidheight><course>22.300533</course><type>1</type></trkpt>
      <trkpt lat="39.33194841438199" lon="-6.0093227878179025"><ele>2586</ele><speed>10.46</speed><time>2016-07-09T13:52:37Z</time><pdop>6.0</pdop><geoidheight>50.60</geoidheight><course>19.158886</course><type>1</type></trkpt>
      <trkpt lat="39.33211144665887" lon="-6.009236954228984"><ele>2581</ele><speed>10.31</speed><time>2016-07-09T13:52:39Z</time><pdop>6.0</pdop><geoidheight>50.60</geoidheight><course>22.914698</course><type>1</type></trkpt>
      <trkpt lat="39.332268952203364" lon="-6.009145748894075"><ele>2576</ele><speed>9.40</speed><time>2016-07-09T13:52:41Z</time><pdop>6.0</pdop><geoidheight>50.60</geoidheight><course>23.115343</course><type>1</type></trkpt>
      <trkpt lat="39.332415613929136" lon="-6.009067141566644"><ele>2572</ele><speed>9.42</speed><time>2016-07-09T13:52:43Z</time><pdop>6.0</pdop><geoidheight>50.60</geoidheight><course>21.650005</course><type>1</type></trkpt>
      <trkpt lat="39.332571021821984" lon="-6.008989026395918"><ele>2567</ele><speed>9.91</speed><time>2016-07-09T13:52:45Z</time><pdop>6.0</pdop><geoidheight>50.60</geoidheight><course>21.10551</course><type>1</type></trkpt>
      <trkpt lat="39.332735741229214" lon="-6.008912748415714"><ele>2562</ele><speed>10.02</speed><time>2016-07-09T13:52:47Z</time><pdop>6.0</pdop><geoidheight>50.60</geoidheight><course>19.829494</course><type>1</type></trkpt>
      <trkpt lat="39.33290241642344" lon="-6.008835560218484"><ele>2558</ele><speed>9.99</speed><time>2016-07-09T13:52:49Z</time><pdop>6.0</pdop><geoidheight>50.60</geoidheight><course>20.36886</course><type>1</type></trkpt>
      <trkpt lat="39.33307386566344" lon="-6.008753940957688"><ele>2553</ele><speed>10.53</speed><time>2016-07-09T13:52:51Z</time><pdop>6.0</pdop><geoidheight>50.60</geoidheight><course>20.043182</course><type>1</type></trkpt>
      <trkpt lat="39.33325180257084" lon="-6.008672225024517"><ele>2548</ele><speed>10.81</speed><time>2016-07-09T13:52:53Z</time><pdop>6.0</pdop><geoidheight>50.60</geoidheight><course>19.591269</course><type>1</type></trkpt>
      <trkpt lat="39.33342837469724" lon="-6.00858339399443"><ele>2543</ele><speed>9.99</speed><time>2016-07-09T13:52:55Z</time><pdop>6.0</pdop><geoidheight>50.60</geoidheight><course>22.96868</course><type>1</type></trkpt>
      <trkpt lat="39.33359434757249" lon="-6.008478555998612"><ele>2538</ele><speed>10.22</speed><time>2016-07-09T13:52:57Z</time><pdop>6.0</pdop><geoidheight>50.60</geoidheight><course>25.822512</course><type>1</type></trkpt>
      <trkpt lat="39.3337806237284" lon="-6.0083694512895995"><ele>2533</ele><speed>12.74</speed><time>2016-07-09T13:52:59Z</time><pdop>6.0</pdop><geoidheight>50.60</geoidheight><course>23.13942</course><type>1</type></trkpt>
      <trkpt lat="39.333882231495295" lon="-6.008314982435318"><ele>2530</ele><speed>12.82</speed><time>2016-07-09T13:53:00Z</time><pdop>6.0</pdop><geoidheight>50.60</geoidheight><course>22.770548</course><type>1</type></trkpt>
      <trkpt lat="39.33398354356592" lon="-6.008258803570385"><ele>2528</ele><speed>12.25</speed><time>2016-07-09T13:53:01Z</time><pdop>6.0</pdop><geoidheight>50.60</geoidheight><course>24.029179</course><type>1</type></trkpt>
      <trkpt lat="39.33408077024567" lon="-6.008196305135879"><ele>2526</ele><speed>11.67</speed><time>2016-07-09T13:53:02Z</time><pdop>6.0</pdop><geoidheight>50.60</geoidheight><course>26.27675</course><type>1</type></trkpt>
      <trkpt lat="39.33417379810564" lon="-6.008134143597722"><ele>2524</ele><speed>11.49</speed><time>2016-07-09T13:53:03Z</time><pdop>4.0</pdop><geoidheight>50.60</geoidheight><course>27.23078</course><type>1</type></trkpt>
      <trkpt lat="39.33427400361518" lon="-6.008069169212361"><ele>2523</ele><speed>11.74</speed><time>2016-07-09T13:53:04Z</time><pdop>4.0</pdop><geoidheight>50.60</geoidheight><course>25.599924</course><type>1</type></trkpt>
      <trkpt lat="39.33436882855326" lon="-6.008015353070106"><ele>2522</ele><speed>12.02</speed><time>2016-07-09T13:53:05Z</time><pdop>4.0</pdop><geoidheight>50.60</geoidheight><course>23.857458</course><type>1</type></trkpt>
      <trkpt lat="39.334471949936635" lon="-6.007959485934468"><ele>2520</ele><speed>11.79</speed><time>2016-07-09T13:53:05Z</time><pdop>4.0</pdop><geoidheight>50.60</geoidheight><course>23.268354</course><type>1</type></trkpt>
      <trkpt lat="39.33456188903031" lon="-6.007910258535342"><ele>2519</ele><speed>11.44</speed><time>2016-07-09T13:53:06Z</time><pdop>4.0</pdop><geoidheight>50.60</geoidheight><course>23.156033</course><type>1</type></trkpt>
      <trkpt lat="39.33475616494827" lon="-6.007818496529069"><ele>2517</ele><speed>11.31</speed><time>2016-07-09T13:53:09Z</time><pdop>8.0</pdop><geoidheight>50.60</geoidheight><course>20.728037</course><type>1</type></trkpt>
      <trkpt lat="39.33495237189121" lon="-6.007722425159801"><ele>2514</ele><speed>12.59</speed><time>2016-07-09T13:53:11Z</time><pdop>8.0</pdop><geoidheight>50.60</geoidheight><course>23.517775</course><type>1</type></trkpt>
      <trkpt lat="39.33516981024323" lon="-6.007594959889717"><ele>2512</ele><speed>14.08</speed><time>2016-07-09T13:53:13Z</time><pdop>6.0</pdop><geoidheight>50.60</geoidheight><course>24.035675</course><type>1</type></trkpt>
      <trkpt lat="39.33528276130389" lon="-6.007535520161793"><ele>2511</ele><speed>13.72</speed><time>2016-07-09T13:53:14Z</time><pdop>6.0</pdop><geoidheight>50.60</geoidheight><course>22.98512</course><type>1</type></trkpt>
      <trkpt lat="39.335387082378155" lon="-6.007482312925408"><ele>2510</ele><speed>12.08</speed><time>2016-07-09T13:53:15Z</time><pdop>6.0</pdop><geoidheight>50.60</geoidheight><course>22.614594</course><type>1</type></trkpt>
      <trkpt lat="39.33556574300961" lon="-6.007383540249278"><ele>2508</ele><speed>10.49</speed><time>2016-07-09T13:53:17Z</time><pdop>6.0</pdop><geoidheight>50.60</geoidheight><course>23.594048</course><type>1</type></trkpt>
      <trkpt lat="39.33574570959458" lon="-6.00727514266727"><ele>2508</ele><speed>12.57</speed><time>2016-07-09T13:53:19Z</time><pdop>6.0</pdop><geoidheight>50.60</geoidheight><course>22.715485</course><type>1</type></trkpt>
      <trkpt lat="39.33585572741293" lon="-6.007212633232953"><ele>2507</ele><speed>13.62</speed><time>2016-07-09T13:53:20Z</time><pdop>6.0</pdop><geoidheight>50.60</geoidheight><course>22.25578</course><type>1</type></trkpt>
      <trkpt lat="39.33596419465292" lon="-6.0071587680690595"><ele>2507</ele><speed>12.85</speed><time>2016-07-09T13:53:21Z</time><pdop>6.0</pdop><geoidheight>50.60</geoidheight><course>20.688942</course><type>1</type></trkpt>
      <trkpt lat="39.33615457390466" lon="-6.007091331016059"><ele>2507</ele><speed>9.62</speed><time>2016-07-09T13:53:23Z</time><pdop>8.0</pdop><geoidheight>50.60</geoidheight><course>14.446996</course><type>1</type></trkpt>
      <trkpt lat="39.336344433274014" lon="-6.0070250237671265"><ele>2508</ele><speed>8.74</speed><time>2016-07-09T13:53:26Z</time><pdop>8.0</pdop><geoidheight>50.60</geoidheight><course>27.434387</course><type>1</type></trkpt>
      <trkpt lat="39.33652840535135" lon="-6.006913844103859"><ele>2507</ele><speed>11.28</speed><time>2016-07-09T13:53:28Z</time><pdop>8.0</pdop><geoidheight>50.60</geoidheight><course>28.707344</course><type>1</type></trkpt>
      <trkpt lat="39.3366756860903" lon="-6.0068223191354955"><ele>2507</ele><speed>8.33</speed><time>2016-07-09T13:53:30Z</time><pdop>6.0</pdop><geoidheight>50.60</geoidheight><course>25.96645</course><type>1</type></trkpt>
      <trkpt lat="39.336803269013075" lon="-6.006754131039466"><ele>2508</ele><speed>8.22</speed><time>2016-07-09T13:53:32Z</time><pdop>6.0</pdop><geoidheight>50.60</geoidheight><course>24.327902</course><type>1</type></trkpt>
      <trkpt lat="39.33694127694985" lon="-6.006669753066021"><ele>2509</ele><speed>8.81</speed><time>2016-07-09T13:53:34Z</time><pdop>6.0</pdop><geoidheight>50.60</geoidheight><course>26.640821</course><type>1</type></trkpt>
      <trkpt lat="39.33709157994419" lon="-6.0065803069453185"><ele>2511</ele><speed>8.17</speed><time>2016-07-09T13:53:36Z</time><pdop>6.0</pdop><geoidheight>50.60</geoidheight><course>23.66765</course><type>1</type></trkpt>
      <trkpt lat="39.337244331064504" lon="-6.0064947505794315"><ele>2514</ele><speed>8.26</speed><time>2016-07-09T13:53:38Z</time><pdop>4.0</pdop><geoidheight>50.60</geoidheight><course>25.554934</course><type>1</type></trkpt>
      <trkpt lat="39.33732893673946" lon="-6.006436977855891"><ele>2516</ele><speed>9.51</speed><time>2016-07-09T13:53:39Z</time><pdop>4.0</pdop><geoidheight>50.60</geoidheight><course>28.175232</course><type>1</type></trkpt>
      <trkpt lat="39.33741120226406" lon="-6.006379886832434"><ele>2517</ele><speed>9.68</speed><time>2016-07-09T13:53:40Z</time><pdop>6.0</pdop><geoidheight>50.60</geoidheight><course>27.50781</course><type>1</type></trkpt>
      <trkpt lat="39.33756741566219" lon="-6.0062710382473385"><ele>2520</ele><speed>9.44</speed><time>2016-07-09T13:53:42Z</time><pdop>6.0</pdop><geoidheight>50.60</geoidheight><course>27.843416</course><type>1</type></trkpt>
      <trkpt lat="39.33769518969198" lon="-6.006166585597095"><ele>2523</ele><speed>7.74</speed><time>2016-07-09T13:53:44Z</time><pdop>6.0</pdop><geoidheight>50.60</geoidheight><course>31.113705</course><type>1</type></trkpt>
      <trkpt lat="39.33780330979013" lon="-6.006059739465006"><ele>2527</ele><speed>7.16</speed><time>2016-07-09T13:53:46Z</time><pdop>6.0</pdop><geoidheight>50.60</geoidheight><course>36.37335</course><type>1</type></trkpt>
      <trkpt lat="39.33789205095937" lon="-6.0059484105967265"><ele>2530</ele><speed>7.05</speed><time>2016-07-09T13:53:48Z</time><pdop>6.0</pdop><geoidheight>50.60</geoidheight><course>41.40938</course><type>1</type></trkpt>
      <trkpt lat="39.33798285205784" lon="-6.005803563515149"><ele>2532</ele><speed>9.22</speed><time>2016-07-09T13:53:50Z</time><pdop>6.0</pdop><geoidheight>50.60</geoidheight><course>48.9631</course><type>1</type></trkpt>
      <trkpt lat="39.33807675591218" lon="-6.005635253270542"><ele>2534</ele><speed>8.60</speed><time>2016-07-09T13:53:52Z</time><pdop>6.0</pdop><geoidheight>50.60</geoidheight><course>51.35091</course><type>1</type></trkpt>
      <trkpt lat="39.3381783660055" lon="-6.005456271660338"><ele>2536</ele><speed>9.72</speed><time>2016-07-09T13:53:54Z</time><pdop>6.0</pdop><geoidheight>50.60</geoidheight><course>48.244556</course><type>1</type></trkpt>
      <trkpt lat="39.338300483818934" lon="-6.005291000404457"><ele>2538</ele><speed>10.26</speed><time>2016-07-09T13:53:56Z</time><pdop>6.0</pdop><geoidheight>50.60</geoidheight><course>43.93296</course><type>1</type></trkpt>
      <trkpt lat="39.338436797159744" lon="-6.005145865053378"><ele>2540</ele><speed>8.99</speed><time>2016-07-09T13:53:58Z</time><pdop>6.0</pdop><geoidheight>50.60</geoidheight><course>38.850143</course><type>1</type></trkpt>
      <trkpt lat="39.33857814608922" lon="-6.00501784251401"><ele>2543</ele><speed>9.02</speed><time>2016-07-09T13:54:00Z</time><pdop>6.0</pdop><geoidheight>50.60</geoidheight><course>36.036015</course><type>1</type></trkpt>
      <trkpt lat="39.33872234732818" lon="-6.004901267171818"><ele>2546</ele><speed>9.31</speed><time>2016-07-09T13:54:02Z</time><pdop>4.0</pdop><geoidheight>50.60</geoidheight><course>33.461178</course><type>1</type></trkpt>
      <trkpt lat="39.33879281986217" lon="-6.004843014799542"><ele>2548</ele><speed>9.28</speed><time>2016-07-09T13:54:03Z</time><pdop>4.0</pdop><geoidheight>50.60</geoidheight><course>34.30018</course><type>1</type></trkpt>
      <trkpt lat="39.33885807896609" lon="-6.004784312748723"><ele>2550</ele><speed>9.25</speed><time>2016-07-09T13:54:04Z</time><pdop>4.0</pdop><geoidheight>50.60</geoidheight><course>35.230743</course><type>1</type></trkpt>
      <trkpt lat="39.33892727584068" lon="-6.004715550067452"><ele>2551</ele><speed>9.50</speed><time>2016-07-09T13:54:05Z</time><pdop>4.0</pdop><geoidheight>50.60</geoidheight><course>36.803844</course><type>1</type></trkpt>
      <trkpt lat="39.3389969096762" lon="-6.004641956548763"><ele>2552</ele><speed>9.50</speed><time>2016-07-09T13:54:06Z</time><pdop>4.0</pdop><geoidheight>50.60</geoidheight><course>38.171734</course><type>1</type></trkpt>
      <trkpt lat="39.339065093833916" lon="-6.00456563176022"><ele>2554</ele><speed>9.54</speed><time>2016-07-09T13:54:07Z</time><pdop>4.0</pdop><geoidheight>50.60</geoidheight><course>39.18605</course><type>1</type></trkpt>
      <trkpt lat="39.33920341908055" lon="-6.004405920789985"><ele>2556</ele><speed>10.62</speed><time>2016-07-09T13:54:09Z</time><pdop>4.0</pdop><geoidheight>50.60</geoidheight><course>39.341644</course><type>1</type></trkpt>
      <trkpt lat="39.33927555937008" lon="-6.004325361543704"><ele>2557</ele><speed>11.01</speed><time>2016-07-09T13:54:10Z</time><pdop>4.0</pdop><geoidheight>50.60</geoidheight><course>40.086987</course><type>1</type></trkpt>
      <trkpt lat="39.339345744900236" lon="-6.004243157502341"><ele>2557</ele><speed>11.13</speed><time>2016-07-09T13:54:11Z</time><pdop>4.0</pdop><geoidheight>50.60</geoidheight><course>40.6164</course><type>1</type></trkpt>
      <trkpt lat="39.33942001230271" lon="-6.004156855610272"><ele>2558</ele><speed>11.21</speed><time>2016-07-09T13:54:12Z</time><pdop>4.0</pdop><geoidheight>50.60</geoidheight><course>39.785496</course><type>1</type></trkpt>
      <trkpt lat="39.33949472577876" lon="-6.0040808841326"><ele>2558</ele><speed>11.15</speed><time>2016-07-09T13:54:12Z</time><pdop>4.0</pdop><geoidheight>50.60</geoidheight><course>38.0147</course><type>1</type></trkpt>
      <trkpt lat="39.33957389662645" lon="-6.004011680029499"><ele>2558</ele><speed>11.30</speed><time>2016-07-09T13:54:13Z</time><pdop>4.0</pdop><geoidheight>50.60</geoidheight><course>35.456024</course><type>1</type></trkpt>
      <trkpt lat="39.33974018387184" lon="-6.0038752026548625"><ele>2559</ele><speed>10.56</speed><time>2016-07-09T13:54:16Z</time><pdop>8.0</pdop><geoidheight>50.60</geoidheight><course>33.299015</course><type>1</type></trkpt>
      <trkpt lat="39.33989742573681" lon="-6.003752291741747"><ele>2560</ele><speed>9.03</speed><time>2016-07-09T13:54:18Z</time><pdop>6.0</pdop><geoidheight>50.60</geoidheight><course>33.532887</course><type>1</type></trkpt>
      <trkpt lat="39.34005516535206" lon="-6.003628850664568"><ele>2562</ele><speed>9.56</speed><time>2016-07-09T13:54:20Z</time><pdop>6.0</pdop><geoidheight>50.60</geoidheight><course>33.3063</course><type>1</type></trkpt>
      <trkpt lat="39.34013276334044" lon="-6.003565981332073"><ele>2563</ele><speed>9.83</speed><time>2016-07-09T13:54:21Z</time><pdop>4.0</pdop><geoidheight>50.60</geoidheight><course>34.314636</course><type>1</type></trkpt>
      <trkpt lat="39.340206042596506" lon="-6.003504085571768"><ele>2564</ele><speed>9.37</speed><time>2016-07-09T13:54:22Z</time><pdop>4.0</pdop><geoidheight>50.60</geoidheight><course>33.75889</course><type>1</type></trkpt>
      <trkpt lat="39.34027696439584" lon="-6.0034436860054265"><ele>2565</ele><speed>9.03</speed><time>2016-07-09T13:54:23Z</time><pdop>4.0</pdop><geoidheight>50.60</geoidheight><course>33.69428</course><type>1</type></trkpt>
      <trkpt lat="39.34034489004215" lon="-6.003385060249012"><ele>2567</ele><speed>8.74</speed><time>2016-07-09T13:54:24Z</time><pdop>4.0</pdop><geoidheight>50.60</geoidheight><course>34.626305</course><type>1</type></trkpt>
      <trkpt lat="39.34040989935574" lon="-6.003324764838717"><ele>2569</ele><speed>8.82</speed><time>2016-07-09T13:54:25Z</time><pdop>4.0</pdop><geoidheight>50.60</geoidheight><course>35.624397</course><type>1</type></trkpt>
      <trkpt lat="39.34047782575271" lon="-6.003262212975999"><ele>2570</ele><speed>9.23</speed><time>2016-07-09T13:54:26Z</time><pdop>4.0</pdop><geoidheight>50.60</geoidheight><course>35.2247</course><type>1</type></trkpt>
      <trkpt lat="39.340548807009505" lon="-6.003199583467768"><ele>2572</ele><speed>9.63</speed><time>2016-07-09T13:54:27Z</time><pdop>4.0</pdop><geoidheight>50.60</geoidheight><course>34.285652</course><type>1</type></trkpt>
      <trkpt lat="39.340620187377205" lon="-6.003137108879471"><ele>2574</ele><speed>9.62</speed><time>2016-07-09T13:54:28Z</time><pdop>4.0</pdop><geoidheight>50.60</geoidheight><course>33.530663</course><type>1</type></trkpt>
      <trkpt lat="39.340690405161574" lon="-6.00307527617481"><ele>2576</ele><speed>9.39</speed><time>2016-07-09T13:54:29Z</time><pdop>4.0</pdop><geoidheight>50.60</geoidheight><course>33.988132</course><type>1</type></trkpt>
      <trkpt lat="39.34075388736566" lon="-6.0030176378091165"><ele>2578</ele><speed>9.14</speed><time>2016-07-09T13:54:30Z</time><pdop>4.0</pdop><geoidheight>50.60</geoidheight><course>34.407757</course><type>1</type></trkpt>
      <trkpt lat="39.34081746384027" lon="-6.002958985050816"><ele>2581</ele><speed>8.73</speed><time>2016-07-09T13:54:31Z</time><pdop>4.0</pdop><geoidheight>50.60</geoidheight><course>34.77569</course><type>1</type></trkpt>
      <trkpt lat="39.34087784811679" lon="-6.002899958684463"><ele>2583</ele><speed>8.12</speed><time>2016-07-09T13:54:32Z</time><pdop>4.0</pdop><geoidheight>50.60</geoidheight><course>35.758995</course><type>1</type></trkpt>
      <trkpt lat="39.340968897366025" lon="-6.002776059509882"><ele>2588</ele><speed>7.43</speed><time>2016-07-09T13:54:34Z</time><pdop>6.0</pdop><geoidheight>50.60</geoidheight><course>52.91638</course><type>1</type></trkpt>
      <trkpt lat="39.34105895844358" lon="-6.002599783479315"><ele>2592</ele><speed>8.51</speed><time>2016-07-09T13:54:36Z</time><pdop>6.0</pdop><geoidheight>50.60</geoidheight><course>58.09683</course><type>1</type></trkpt>
      <trkpt lat="39.34113746160383" lon="-6.002403612217343"><ele>2596</ele><speed>8.57</speed><time>2016-07-09T13:54:38Z</time><pdop>6.0</pdop><geoidheight>50.60</geoidheight><course>63.119152</course><type>1</type></trkpt>
      <trkpt lat="39.341203919218394" lon="-6.002218941008958"><ele>2599</ele><speed>8.39</speed><time>2016-07-09T13:54:39Z</time><pdop>6.0</pdop><geoidheight>50.60</geoidheight><course>62.607723</course><type>1</type></trkpt>
      <trkpt lat="39.34127206489006" lon="-6.0020604421391255"><ele>2601</ele><speed>7.94</speed><time>2016-07-09T13:54:42Z</time><pdop>6.0</pdop><geoidheight>50.60</geoidheight><course>58.436512</course><type>1</type></trkpt>
      <trkpt lat="39.34134049911339" lon="-6.00189925315694"><ele>2601</ele><speed>9.01</speed><time>2016-07-09T13:54:44Z</time><pdop>6.0</pdop><geoidheight>50.60</geoidheight><course>59.88167</course><type>1</type></trkpt>
      <trkpt lat="39.341407135166506" lon="-6.001715859809536"><ele>2602</ele><speed>8.12</speed><time>2016-07-09T13:54:46Z</time><pdop>6.0</pdop><geoidheight>50.60</geoidheight><course>65.64921</course><type>1</type></trkpt>
      <trkpt lat="39.34145977272663" lon="-6.001535128809547"><ele>2602</ele><speed>8.01</speed><time>2016-07-09T13:54:48Z</time><pdop>6.0</pdop><geoidheight>50.60</geoidheight><course>69.0686</course><type>1</type></trkpt>
      <trkpt lat="39.34151321953696" lon="-6.001342665880924"><ele>2602</ele><speed>8.82</speed><time>2016-07-09T13:54:50Z</time><pdop>4.0</pdop><geoidheight>50.60</geoidheight><course>68.97031</course><type>1</type></trkpt>
      <trkpt lat="39.341569195592385" lon="-6.001160287563803"><ele>2602</ele><speed>8.97</speed><time>2016-07-09T13:54:51Z</time><pdop>8.0</pdop><geoidheight>50.60</geoidheight><course>66.52821</course><type>1</type></trkpt>
      <trkpt lat="39.34163547735165" lon="-6.000983014410357"><ele>2602</ele><speed>8.52</speed><time>2016-07-09T13:54:53Z</time><pdop>8.0</pdop><geoidheight>50.60</geoidheight><course>63.152103</course><type>1</type></trkpt>
      <trkpt lat="39.34176011342101" lon="-6.0007513798444805"><ele>2601</ele><speed>8.92</speed><time>2016-07-09T13:54:57Z</time><pdop>6.0</pdop><geoidheight>50.60</geoidheight><course>53.251</course><type>1</type></trkpt>
      <trkpt lat="39.34187407220463" lon="-6.000582583796149"><ele>2601</ele><speed>9.90</speed><time>2016-07-09T13:54:59Z</time><pdop>6.0</pdop><geoidheight>50.60</geoidheight><course>50.383286</course><type>1</type></trkpt>
      <trkpt lat="39.342004018006456" lon="-6.0004063687395375"><ele>2602</ele><speed>10.32</speed><time>2016-07-09T13:55:01Z</time><pdop>6.0</pdop><geoidheight>50.60</geoidheight><course>46.771763</course><type>1</type></trkpt>
      <trkpt lat="39.34214176410949" lon="-6.000250842472657"><ele>2603</ele><speed>9.96</speed><time>2016-07-09T13:55:02Z</time><pdop>8.0</pdop><geoidheight>50.60</geoidheight><course>42.076836</course><type>1</type></trkpt>
      <trkpt lat="39.342295996984475" lon="-6.000112602616957"><ele>2604</ele><speed>10.54</speed><time>2016-07-09T13:55:05Z</time><pdop>8.0</pdop><geoidheight>50.60</geoidheight><course>36.659565</course><type>1</type></trkpt>
      <trkpt lat="39.34246981133692" lon="-5.999984877749716"><ele>2605</ele><speed>11.21</speed><time>2016-07-09T13:55:07Z</time><pdop>6.0</pdop><geoidheight>50.60</geoidheight><course>31.674671</course><type>1</type></trkpt>
      <trkpt lat="39.3426430023622" lon="-5.999872061450419"><ele>2607</ele><speed>10.49</speed><time>2016-07-09T13:55:08Z</time><pdop>6.0</pdop><geoidheight>50.60</geoidheight><course>29.217873</course><type>1</type></trkpt>
      <trkpt lat="39.342815283224105" lon="-5.999761001992808"><ele>2608</ele><speed>10.33</speed><time>2016-07-09T13:55:11Z</time><pdop>8.0</pdop><geoidheight>50.60</geoidheight><course>27.134007</course><type>1</type></trkpt>
      <trkpt lat="39.342985591013424" lon="-5.999668028114659"><ele>2608</ele><speed>11.35</speed><time>2016-07-09T13:55:12Z</time><pdop>8.0</pdop><geoidheight>50.60</geoidheight><course>22.988283</course><type>1</type></trkpt>
      <trkpt lat="39.34319445281087" lon="-5.999560689619229"><ele>2609</ele><speed>10.99</speed><time>2016-07-09T13:55:15Z</time><pdop>6.0</pdop><geoidheight>50.60</geoidheight><course>23.073397</course><type>1</type></trkpt>
      <trkpt lat="39.343296036430914" lon="-5.999509995849822"><ele>2610</ele><speed>10.97</speed><time>2016-07-09T13:55:16Z</time><pdop>6.0</pdop><geoidheight>50.60</geoidheight><course>22.71471</course><type>1</type></trkpt>
      <trkpt lat="39.34348721310686" lon="-5.999423007609965"><ele>2611</ele><speed>11.38</speed><time>2016-07-09T13:55:18Z</time><pdop>6.0</pdop><geoidheight>50.60</geoidheight><course>21.136099</course><type>1</type></trkpt>
      <trkpt lat="39.34368318280123" lon="-5.999336160865941"><ele>2612</ele><speed>11.33</speed><time>2016-07-09T13:55:20Z</time><pdop>6.0</pdop><geoidheight>50.60</geoidheight><course>21.07304</course><type>1</type></trkpt>
      <trkpt lat="39.34385734142263" lon="-5.999250423343205"><ele>2612</ele><speed>10.43</speed><time>2016-07-09T13:55:22Z</time><pdop>6.0</pdop><geoidheight>50.60</geoidheight><course>22.714895</course><type>1</type></trkpt>
      <trkpt lat="39.34402771562073" lon="-5.999159418094698"><ele>2612</ele><speed>9.72</speed><time>2016-07-09T13:55:24Z</time><pdop>6.0</pdop><geoidheight>50.60</geoidheight><course>23.049896</course><type>1</type></trkpt>
      <trkpt lat="39.34418159976244" lon="-5.999085299084914"><ele>2612</ele><speed>8.78</speed><time>2016-07-09T13:55:26Z</time><pdop>4.0</pdop><geoidheight>50.60</geoidheight><course>20.242582</course><type>1</type></trkpt>
      <trkpt lat="39.344259853646925" lon="-5.999050119512555"><ele>2612</ele><speed>9.46</speed><time>2016-07-09T13:55:27Z</time><pdop>4.0</pdop><geoidheight>50.60</geoidheight><course>20.797201</course><type>1</type></trkpt>
      <trkpt lat="39.344344047226826" lon="-5.99900580006426"><ele>2611</ele><speed>11.15</speed><time>2016-07-09T13:55:28Z</time><pdop>4.0</pdop><geoidheight>50.60</geoidheight><course>22.555285</course><type>1</type></trkpt>
      <trkpt lat="39.344442497050615" lon="-5.998949045645864"><ele>2610</ele><speed>12.81</speed><time>2016-07-09T13:55:29Z</time><pdop>6.0</pdop><geoidheight>50.60</geoidheight><course>24.271935</course><type>1</type></trkpt>
      <trkpt lat="39.34454736010867" lon="-5.998887241151814"><ele>2610</ele><speed>12.63</speed><time>2016-07-09T13:55:30Z</time><pdop>6.0</pdop><geoidheight>50.60</geoidheight><course>25.18019</course><type>1</type></trkpt>
      <trkpt lat="39.344731323364236" lon="-5.998775812122254"><ele>2608</ele><speed>11.10</speed><time>2016-07-09T13:55:31Z</time><pdop>6.0</pdop><geoidheight>50.60</geoidheight><course>24.600494</course><type>1</type></trkpt>
      <trkpt lat="39.34493106549204" lon="-5.998652054906349"><ele>2607</ele><speed>13.86</speed><time>2016-07-09T13:55:34Z</time><pdop>8.0</pdop><geoidheight>50.60</geoidheight><course>26.045473</course><type>1</type></trkpt>
      <trkpt lat="39.34513724890841" lon="-5.9985325140237915"><ele>2608</ele><speed>12.05</speed><time>2016-07-09T13:55:36Z</time><pdop>8.0</pdop><geoidheight>50.60</geoidheight><course>23.291224</course><type>1</type></trkpt>
      <trkpt lat="39.34530584326016" lon="-5.998442306549438"><ele>2609</ele><speed>9.23</speed><time>2016-07-09T13:55:38Z</time><pdop>8.0</pdop><geoidheight>50.60</geoidheight><course>23.958752</course><type>1</type></trkpt>
      <trkpt lat="39.34549054020201" lon="-5.998304647214588"><ele>2608</ele><speed>12.57</speed><time>2016-07-09T13:55:40Z</time><pdop>8.0</pdop><geoidheight>50.60</geoidheight><course>31.214157</course><type>1</type></trkpt>
      <trkpt lat="39.3456944196035" lon="-5.998148210896577"><ele>2607</ele><speed>13.34</speed><time>2016-07-09T13:55:41Z</time><pdop>8.0</pdop><geoidheight>50.60</geoidheight><course>27.393955</course><type>1</type></trkpt>
      <trkpt lat="39.34586783731029" lon="-5.998048628131265"><ele>2607</ele><speed>10.33</speed><time>2016-07-09T13:55:44Z</time><pdop>8.0</pdop><geoidheight>50.60</geoidheight><course>23.926924</course><type>1</type></trkpt>
      <trkpt lat="39.34603156053812" lon="-5.99793158808934"><ele>2609</ele><speed>9.25</speed><time>2016-07-09T13:55:46Z</time><pdop>8.0</pdop><geoidheight>50.60</geoidheight><course>31.191427</course><type>1</type></trkpt>
      <trkpt lat="39.34618823024876" lon="-5.997806870212156"><ele>2611</ele><speed>9.88</speed><time>2016-07-09T13:55:48Z</time><pdop>6.0</pdop><geoidheight>50.60</geoidheight><course>29.840864</course><type>1</type></trkpt>
      <trkpt lat="39.346343724239595" lon="-5.997694801106643"><ele>2614</ele><speed>9.33</speed><time>2016-07-09T13:55:50Z</time><pdop>6.0</pdop><geoidheight>50.60</geoidheight><course>28.803646</course><type>1</type></trkpt>
      <trkpt lat="39.34648332916593" lon="-5.997560259722689"><ele>2617</ele><speed>9.85</speed><time>2016-07-09T13:55:52Z</time><pdop>6.0</pdop><geoidheight>50.60</geoidheight><course>36.67092</course><type>1</type></trkpt>
      <trkpt lat="39.346633095394" lon="-5.9973913734265665"><ele>2618</ele><speed>11.38</speed><time>2016-07-09T13:55:54Z</time><pdop>6.0</pdop><geoidheight>50.60</geoidheight><course>40.390064</course><type>1</type></trkpt>
      <trkpt lat="39.34677373278018" lon="-5.997201310396699"><ele>2617</ele><speed>12.70</speed><time>2016-07-09T13:55:56Z</time><pdop>8.0</pdop><geoidheight>50.60</geoidheight><course>46.81778</course><type>1</type></trkpt>
      <trkpt lat="39.34689537318668" lon="-5.997002711757396"><ele>2616</ele><speed>10.33</speed><time>2016-07-09T13:55:58Z</time><pdop>6.0</pdop><geoidheight>50.60</geoidheight><course>48.754032</course><type>1</type></trkpt>
      <trkpt lat="39.34704379888302" lon="-5.996857364252041"><ele>2616</ele><speed>10.43</speed><time>2016-07-09T13:56:00Z</time><pdop>8.0</pdop><geoidheight>50.60</geoidheight><course>33.47335</course><type>1</type></trkpt>
      <trkpt lat="39.34719049822104" lon="-5.996729395545471"><ele>2615</ele><speed>10.53</speed><time>2016-07-09T13:56:02Z</time><pdop>8.0</pdop><geoidheight>50.60</geoidheight><course>33.549446</course><type>1</type></trkpt>
      <trkpt lat="39.34734833939118" lon="-5.996589107861071"><ele>2614</ele><speed>9.70</speed><time>2016-07-09T13:56:04Z</time><pdop>6.0</pdop><geoidheight>50.60</geoidheight><course>34.696224</course><type>1</type></trkpt>
      <trkpt lat="39.34748615503042" lon="-5.9964645906892855"><ele>2613</ele><speed>9.26</speed><time>2016-07-09T13:56:06Z</time><pdop>6.0</pdop><geoidheight>50.60</geoidheight><course>33.27713</course><type>1</type></trkpt>
      <trkpt lat="39.347641655010634" lon="-5.996316178747063"><ele>2611</ele><speed>13.08</speed><time>2016-07-09T13:56:08Z</time><pdop>12.0</pdop><geoidheight>50.60</geoidheight><course>36.235695</course><type>1</type></trkpt>
      <trkpt lat="39.34781819920752" lon="-5.996118290825811"><ele>2608</ele><speed>13.77</speed><time>2016-07-09T13:56:10Z</time><pdop>8.0</pdop><geoidheight>50.60</geoidheight><course>40.022964</course><type>1</type></trkpt>
      <trkpt lat="39.347972058688434" lon="-5.995944894552604"><ele>2605</ele><speed>11.26</speed><time>2016-07-09T13:56:12Z</time><pdop>8.0</pdop><geoidheight>50.60</geoidheight><course>38.91323</course><type>1</type></trkpt>
      <trkpt lat="39.34814808258205" lon="-5.995764351817433"><ele>2602</ele><speed>13.32</speed><time>2016-07-09T13:56:14Z</time><pdop>8.0</pdop><geoidheight>50.60</geoidheight><course>38.858185</course><type>1</type></trkpt>
      <trkpt lat="39.34834383594242" lon="-5.995564721820886"><ele>2599</ele><speed>14.04</speed><time>2016-07-09T13:56:16Z</time><pdop>8.0</pdop><geoidheight>50.60</geoidheight><course>39.037296</course><type>1</type></trkpt>
      <trkpt lat="39.34848370128705" lon="-5.9953292802055795"><ele>2597</ele><speed>13.73</speed><time>2016-07-09T13:56:18Z</time><pdop>6.0</pdop><geoidheight>50.60</geoidheight><course>62.220436</course><type>1</type></trkpt>
      <trkpt lat="39.34854131179722" lon="-5.995177741365087"><ele>2596</ele><speed>14.99</speed><time>2016-07-09T13:56:19Z</time><pdop>6.0</pdop><geoidheight>50.60</geoidheight><course>64.28041</course><type>1</type></trkpt>
      <trkpt lat="39.34859674927593" lon="-5.995030534343626"><ele>2595</ele><speed>14.28</speed><time>2016-07-09T13:56:19Z</time><pdop>6.0</pdop><geoidheight>50.60</geoidheight><course>64.90891</course><type>1</type></trkpt>
      <trkpt lat="39.3486955110803" lon="-5.994800346009218"><ele>2592</ele><speed>11.10</speed><time>2016-07-09T13:56:22Z</time><pdop>12.0</pdop><geoidheight>50.60</geoidheight><course>59.17596</course><type>1</type></trkpt>
      <trkpt lat="39.348818085609345" lon="-5.994609117176644"><ele>2588</ele><speed>10.89</speed><time>2016-07-09T13:56:24Z</time><pdop>8.0</pdop><geoidheight>50.60</geoidheight><course>52.522312</course><type>1</type></trkpt>
      <trkpt lat="39.34893829601407" lon="-5.9944602839254575"><ele>2585</ele><speed>8.97</speed><time>2016-07-09T13:56:26Z</time><pdop>8.0</pdop><geoidheight>50.60</geoidheight><course>48.85499</course><type>1</type></trkpt>
      <trkpt lat="39.34906474498297" lon="-5.994311154471858"><ele>2583</ele><speed>9.98</speed><time>2016-07-09T13:56:28Z</time><pdop>6.0</pdop><geoidheight>50.60</geoidheight><course>48.02843</course><type>1</type></trkpt>
      <trkpt lat="39.3492106899145" lon="-5.994111088147135"><ele>2582</ele><speed>12.52</speed><time>2016-07-09T13:56:29Z</time><pdop>6.0</pdop><geoidheight>50.60</geoidheight><course>49.141098</course><type>1</type></trkpt>
      <trkpt lat="39.349348412210006" lon="-5.993937746267471"><ele>2580</ele><speed>12.07</speed><time>2016-07-09T13:56:32Z</time><pdop>8.0</pdop><geoidheight>50.60</geoidheight><course>44.486565</course><type>1</type></trkpt>
      <trkpt lat="39.34952296839799" lon="-5.993744146760455"><ele>2580</ele><speed>12.51</speed><time>2016-07-09T13:56:34Z</time><pdop>8.0</pdop><geoidheight>50.60</geoidheight><course>42.034393</course><type>1</type></trkpt>
      <trkpt lat="39.34970880917059" lon="-5.9935388949376645"><ele>2578</ele><speed>14.38</speed><time>2016-07-09T13:56:36Z</time><pdop>8.0</pdop><geoidheight>50.60</geoidheight><course>42.343845</course><type>1</type></trkpt>
      <trkpt lat="39.349914116129966" lon="-5.993302157833593"><ele>2576</ele><speed>15.06</speed><time>2016-07-09T13:56:38Z</time><pdop>8.0</pdop><geoidheight>50.60</geoidheight><course>41.889458</course><type>1</type></trkpt>
      <trkpt lat="39.35009068492371" lon="-5.993117591777021"><ele>2572</ele><speed>12.73</speed><time>2016-07-09T13:56:40Z</time><pdop>8.0</pdop><geoidheight>50.60</geoidheight><course>39.50731</course><type>1</type></trkpt>
      <trkpt lat="39.35026451431485" lon="-5.992936650012823"><ele>2570</ele><speed>13.03</speed><time>2016-07-09T13:56:42Z</time><pdop>8.0</pdop><geoidheight>50.60</geoidheight><course>42.352234</course><type>1</type></trkpt>
      <trkpt lat="39.35044234476839" lon="-5.992747886826806"><ele>2567</ele><speed>12.61</speed><time>2016-07-09T13:56:44Z</time><pdop>8.0</pdop><geoidheight>50.60</geoidheight><course>39.154896</course><type>1</type></trkpt>
      <trkpt lat="39.350626771111735" lon="-5.992584330969092"><ele>2564</ele><speed>13.06</speed><time>2016-07-09T13:56:46Z</time><pdop>6.0</pdop><geoidheight>50.60</geoidheight><course>35.95991</course><type>1</type></trkpt>
      <trkpt lat="39.35071785501328" lon="-5.992498662245786"><ele>2561</ele><speed>13.50</speed><time>2016-07-09T13:56:47Z</time><pdop>6.0</pdop><geoidheight>50.60</geoidheight><course>38.38493</course><type>1</type></trkpt>
      <trkpt lat="39.35080990312844" lon="-5.99239241061843"><ele>2559</ele><speed>14.50</speed><time>2016-07-09T13:56:48Z</time><pdop>6.0</pdop><geoidheight>50.60</geoidheight><course>42.273243</course><type>1</type></trkpt>
      <trkpt lat="39.35089793939613" lon="-5.992281090149512"><ele>2557</ele><speed>14.67</speed><time>2016-07-09T13:56:49Z</time><pdop>6.0</pdop><geoidheight>50.60</geoidheight><course>44.057106</course><type>1</type></trkpt>
      <trkpt lat="39.35098570658813" lon="-5.9921768200718555"><ele>2555</ele><speed>14.43</speed><time>2016-07-09T13:56:50Z</time><pdop>6.0</pdop><geoidheight>50.60</geoidheight><course>42.486355</course><type>1</type></trkpt>
      <trkpt lat="39.35108144443675" lon="-5.99207809459583"><ele>2553</ele><speed>14.73</speed><time>2016-07-09T13:56:51Z</time><pdop>6.0</pdop><geoidheight>50.60</geoidheight><course>39.642776</course><type>1</type></trkpt>
      <trkpt lat="39.35118134948688" lon="-5.991980844427164"><ele>2551</ele><speed>13.72</speed><time>2016-07-09T13:56:52Z</time><pdop>6.0</pdop><geoidheight>50.60</geoidheight><course>38.42477</course><type>1</type></trkpt>
      <trkpt lat="39.351273719781155" lon="-5.991888236861712"><ele>2549</ele><speed>12.78</speed><time>2016-07-09T13:56:53Z</time><pdop>6.0</pdop><geoidheight>50.60</geoidheight><course>39.652435</course><type>1</type></trkpt>
      <trkpt lat="39.35136231697976" lon="-5.991789894990783"><ele>2547</ele><speed>13.07</speed><time>2016-07-09T13:56:53Z</time><pdop>4.0</pdop><geoidheight>50.60</geoidheight><course>41.956303</course><type>1</type></trkpt>
      <trkpt lat="39.35145084345646" lon="-5.991685579659221"><ele>2546</ele><speed>13.69</speed><time>2016-07-09T13:56:54Z</time><pdop>4.0</pdop><geoidheight>50.60</geoidheight><course>42.968872</course><type>1</type></trkpt>
      <trkpt lat="39.35153727721426" lon="-5.991581879145412"><ele>2544</ele><speed>14.26</speed><time>2016-07-09T13:56:56Z</time><pdop>6.0</pdop><geoidheight>50.60</geoidheight><course>42.591095</course><type>1</type></trkpt>
      <trkpt lat="39.351629693703956" lon="-5.991475644298318"><ele>2542</ele><speed>14.05</speed><time>2016-07-09T13:56:57Z</time><pdop>6.0</pdop><geoidheight>50.60</geoidheight><course>41.845924</course><type>1</type></trkpt>
      <trkpt lat="39.351720120155825" lon="-5.991370826512076"><ele>2541</ele><speed>12.98</speed><time>2016-07-09T13:56:58Z</time><pdop>6.0</pdop><geoidheight>50.60</geoidheight><course>41.047565</course><type>1</type></trkpt>
      <trkpt lat="39.35180338370599" lon="-5.99127995560247"><ele>2540</ele><speed>12.35</speed><time>2016-07-09T13:56:59Z</time><pdop>6.0</pdop><geoidheight>50.60</geoidheight><course>40.10332</course><type>1</type></trkpt>
      <trkpt lat="39.35189111552833" lon="-5.9911842878043196"><ele>2539</ele><speed>12.77</speed><time>2016-07-09T13:57:00Z</time><pdop>6.0</pdop><geoidheight>50.60</geoidheight><course>40.969913</course><type>1</type></trkpt>
      <trkpt lat="39.35197455639685" lon="-5.9910832296038965"><ele>2538</ele><speed>12.84</speed><time>2016-07-09T13:57:01Z</time><pdop>6.0</pdop><geoidheight>50.60</geoidheight><course>42.44834</course><type>1</type></trkpt>
      <trkpt lat="39.35206224002558" lon="-5.990974514335375"><ele>2537</ele><speed>12.83</speed><time>2016-07-09T13:57:02Z</time><pdop>6.0</pdop><geoidheight>50.60</geoidheight><course>43.537296</course><type>1</type></trkpt>
      <trkpt lat="39.35214364749077" lon="-5.990871555257238"><ele>2536</ele><speed>12.70</speed><time>2016-07-09T13:57:03Z</time><pdop>6.0</pdop><geoidheight>50.60</geoidheight><course>43.480686</course><type>1</type></trkpt>
      <trkpt lat="39.35222118718925" lon="-5.990774171197421"><ele>2536</ele><speed>12.20</speed><time>2016-07-09T13:57:04Z</time><pdop>4.0</pdop><geoidheight>50.60</geoidheight><course>42.92387</course><type>1</type></trkpt>
      <trkpt lat="39.352299713263434" lon="-5.990680520641998"><ele>2535</ele><speed>11.82</speed><time>2016-07-09T13:57:05Z</time><pdop>4.0</pdop><geoidheight>50.60</geoidheight><course>42.224445</course><type>1</type></trkpt>
      <trkpt lat="39.35237501138463" lon="-5.990592660328213"><ele>2534</ele><speed>11.59</speed><time>2016-07-09T13:57:06Z</time><pdop>4.0</pdop><geoidheight>50.60</geoidheight><course>41.603714</course><type>1</type></trkpt>
      <trkpt lat="39.35245282635541" lon="-5.9905028224974375"><ele>2533</ele><speed>12.02</speed><time>2016-07-09T13:57:07Z</time><pdop>4.0</pdop><geoidheight>50.60</geoidheight><course>41.702206</course><type>1</type></trkpt>
      <trkpt lat="39.352534323028564" lon="-5.990409503717113"><ele>2532</ele><speed>12.60</speed><time>2016-07-09T13:57:08Z</time><pdop>4.0</pdop><geoidheight>50.60</geoidheight><course>41.72753</course><type>1</type></trkpt>
      <trkpt lat="39.35261775510571" lon="-5.990314807292201"><ele>2530</ele><speed>12.81</speed><time>2016-07-09T13:57:09Z</time><pdop>4.0</pdop><geoidheight>50.60</geoidheight><course>42.234306</course><type>1</type></trkpt>
      <trkpt lat="39.352707822519704" lon="-5.990212189510954"><ele>2529</ele><speed>12.37</speed><time>2016-07-09T13:57:10Z</time><pdop>4.0</pdop><geoidheight>50.60</geoidheight><course>42.756615</course><type>1</type></trkpt>
      <trkpt lat="39.35278584697175" lon="-5.990118283697292"><ele>2529</ele><speed>11.32</speed><time>2016-07-09T13:57:11Z</time><pdop>4.0</pdop><geoidheight>50.60</geoidheight><course>43.282692</course><type>1</type></trkpt>
      <trkpt lat="39.3528595337876" lon="-5.990025058130402"><ele>2528</ele><speed>10.74</speed><time>2016-07-09T13:57:12Z</time><pdop>4.0</pdop><geoidheight>50.60</geoidheight><course>43.63706</course><type>1</type></trkpt>
      <trkpt lat="39.352932217746336" lon="-5.989937055925036"><ele>2527</ele><speed>11.51</speed><time>2016-07-09T13:57:13Z</time><pdop>4.0</pdop><geoidheight>50.60</geoidheight><course>43.2452</course><type>1</type></trkpt>
      <trkpt lat="39.35301195227697" lon="-5.989842679452823"><ele>2526</ele><speed>12.78</speed><time>2016-07-09T13:57:14Z</time><pdop>6.0</pdop><geoidheight>50.60</geoidheight><course>43.185444</course><type>1</type></trkpt>
      <trkpt lat="39.353095480375174" lon="-5.989741864174434"><ele>2526</ele><speed>13.71</speed><time>2016-07-09T13:57:14Z</time><pdop>6.0</pdop><geoidheight>50.60</geoidheight><course>42.796566</course><type>1</type></trkpt>
      <trkpt lat="39.35318337240015" lon="-5.989636894433651"><ele>2525</ele><speed>13.61</speed><time>2016-07-09T13:57:15Z</time><pdop>6.0</pdop><geoidheight>50.60</geoidheight><course>43.710007</course><type>1</type></trkpt>
      <trkpt lat="39.35326598314821" lon="-5.989537815460383"><ele>2525</ele><speed>12.83</speed><time>2016-07-09T13:57:17Z</time><pdop>6.0</pdop><geoidheight>50.60</geoidheight><course>44.266747</course><type>1</type></trkpt>
      <trkpt lat="39.35342330730926" lon="-5.989351459669358"><ele>2524</ele><speed>12.02</speed><time>2016-07-09T13:57:19Z</time><pdop>6.0</pdop><geoidheight>50.60</geoidheight><course>42.631138</course><type>1</type></trkpt>
      <trkpt lat="39.353512310080355" lon="-5.989257583825834"><ele>2524</ele><speed>12.27</speed><time>2016-07-09T13:57:20Z</time><pdop>6.0</pdop><geoidheight>50.60</geoidheight><course>40.837254</course><type>1</type></trkpt>
      <trkpt lat="39.35360490116196" lon="-5.989166897914181"><ele>2524</ele><speed>12.61</speed><time>2016-07-09T13:57:21Z</time><pdop>6.0</pdop><geoidheight>50.60</geoidheight><course>39.1293</course><type>1</type></trkpt>
      <trkpt lat="39.35369439641923" lon="-5.989080035431853"><ele>2524</ele><speed>12.63</speed><time>2016-07-09T13:57:22Z</time><pdop>4.0</pdop><geoidheight>50.60</geoidheight><course>38.011307</course><type>1</type></trkpt>
      <trkpt lat="39.35378552225694" lon="-5.988989216805741"><ele>2524</ele><speed>12.15</speed><time>2016-07-09T13:57:23Z</time><pdop>6.0</pdop><geoidheight>50.60</geoidheight><course>37.856182</course><type>1</type></trkpt>
      <trkpt lat="39.35394384208261" lon="-5.988824490769055"><ele>2524</ele><speed>11.28</speed><time>2016-07-09T13:57:25Z</time><pdop>6.0</pdop><geoidheight>50.60</geoidheight><course>40.343018</course><type>1</type></trkpt>
      <trkpt lat="39.35402391187167" lon="-5.988730731292435"><ele>2525</ele><speed>12.12</speed><time>2016-07-09T13:57:26Z</time><pdop>6.0</pdop><geoidheight>50.60</geoidheight><course>42.141644</course><type>1</type></trkpt>
      <trkpt lat="39.35410555540326" lon="-5.98862796909376"><ele>2525</ele><speed>13.13</speed><time>2016-07-09T13:57:27Z</time><pdop>4.0</pdop><geoidheight>50.60</geoidheight><course>43.261383</course><type>1</type></trkpt>
      <trkpt lat="39.35419523453578" lon="-5.988517478076141"><ele>2525</ele><speed>13.48</speed><time>2016-07-09T13:57:28Z</time><pdop>4.0</pdop><geoidheight>50.60</geoidheight><course>43.820328</course><type>1</type></trkpt>
      <trkpt lat="39.35428034652245" lon="-5.988413240197124"><ele>2526</ele><speed>12.58</speed><time>2016-07-09T13:57:29Z</time><pdop>4.0</pdop><geoidheight>50.60</geoidheight><course>42.71421</course><type>1</type></trkpt>
      <trkpt lat="39.35436077229265" lon="-5.988320319295023"><ele>2526</ele><speed>12.03</speed><time>2016-07-09T13:57:30Z</time><pdop>4.0</pdop><geoidheight>50.60</geoidheight><course>41.311584</course><type>1</type></trkpt>
      <trkpt lat="39.354447179871975" lon="-5.98822451887889"><ele>2527</ele><speed>12.23</speed><time>2016-07-09T13:57:31Z</time><pdop>4.0</pdop><geoidheight>50.60</geoidheight><course>41.395817</course><type>1</type></trkpt>
      <trkpt lat="39.354534818008716" lon="-5.98812493932878"><ele>2527</ele><speed>13.16</speed><time>2016-07-09T13:57:32Z</time><pdop>4.0</pdop><geoidheight>50.60</geoidheight><course>41.99107</course><type>1</type></trkpt>
      <trkpt lat="39.35462490373623" lon="-5.988022236546781"><ele>2527</ele><speed>13.61</speed><time>2016-07-09T13:57:33Z</time><pdop>4.0</pdop><geoidheight>50.60</geoidheight><course>41.541325</course><type>1</type></trkpt>
      <trkpt lat="39.35471717565662" lon="-5.987926167701875"><ele>2527</ele><speed>13.42</speed><time>2016-07-09T13:57:34Z</time><pdop>4.0</pdop><geoidheight>50.60</geoidheight><course>38.7514</course><type>1</type></trkpt>
      <trkpt lat="39.35481023710419" lon="-5.987841108886285"><ele>2527</ele><speed>13.12</speed><time>2016-07-09T13:57:35Z</time><pdop>6.0</pdop><geoidheight>50.60</geoidheight><course>35.649406</course><type>1</type></trkpt>
      <trkpt lat="39.354907721369756" lon="-5.987760877569525"><ele>2527</ele><speed>12.66</speed><time>2016-07-09T13:57:36Z</time><pdop>6.0</pdop><geoidheight>50.60</geoidheight><course>33.328453</course><type>1</type></trkpt>
      <trkpt lat="39.35500311962818" lon="-5.98768785102712"><ele>2526</ele><speed>11.98</speed><time>2016-07-09T13:57:37Z</time><pdop>6.0</pdop><geoidheight>50.60</geoidheight><course>32.184826</course><type>1</type></trkpt>
      <trkpt lat="39.355175802560616" lon="-5.987550293402173"><ele>2526</ele><speed>12.47</speed><time>2016-07-09T13:57:38Z</time><pdop>6.0</pdop><geoidheight>50.60</geoidheight><course>33.981773</course><type>1</type></trkpt>
      <trkpt lat="39.355275891659645" lon="-5.987467192968688"><ele>2525</ele><speed>12.95</speed><time>2016-07-09T13:57:40Z</time><pdop>6.0</pdop><geoidheight>50.60</geoidheight><course>35.06648</course><type>1</type></trkpt>
      <trkpt lat="39.3553822277867" lon="-5.987376772389935"><ele>2525</ele><speed>13.23</speed><time>2016-07-09T13:57:41Z</time><pdop>6.0</pdop><geoidheight>50.60</geoidheight><course>35.98975</course><type>1</type></trkpt>
      <trkpt lat="39.35547774694243" lon="-5.987284313967038"><ele>2525</ele><speed>13.00</speed><time>2016-07-09T13:57:42Z</time><pdop>6.0</pdop><geoidheight>50.60</geoidheight><course>36.76094</course><type>1</type></trkpt>
      <trkpt lat="39.35565336523289" lon="-5.987120741314353"><ele>2525</ele><speed>11.85</speed><time>2016-07-09T13:57:44Z</time><pdop>8.0</pdop><geoidheight>50.60</geoidheight><course>35.133957</course><type>1</type></trkpt>
      <trkpt lat="39.35584306909818" lon="-5.9869568579437935"><ele>2525</ele><speed>12.41</speed><time>2016-07-09T13:57:46Z</time><pdop>6.0</pdop><geoidheight>50.60</geoidheight><course>34.01736</course><type>1</type></trkpt>
      <trkpt lat="39.35594513048572" lon="-5.986871615775754"><ele>2525</ele><speed>13.19</speed><time>2016-07-09T13:57:47Z</time><pdop>6.0</pdop><geoidheight>50.60</geoidheight><course>33.065956</course><type>1</type></trkpt>
      <trkpt lat="39.356045371078594" lon="-5.9867888861514045"><ele>2524</ele><speed>12.87</speed><time>2016-07-09T13:57:48Z</time><pdop>6.0</pdop><geoidheight>50.60</geoidheight><course>33.667717</course><type>1</type></trkpt>
      <trkpt lat="39.35614356281535" lon="-5.986707638786876"><ele>2523</ele><speed>12.24</speed><time>2016-07-09T13:57:49Z</time><pdop>4.0</pdop><geoidheight>50.60</geoidheight><course>33.74385</course><type>1</type></trkpt>
      <trkpt lat="39.356232483967574" lon="-5.986633685787549"><ele>2523</ele><speed>11.66</speed><time>2016-07-09T13:57:50Z</time><pdop>4.0</pdop><geoidheight>50.60</geoidheight><course>33.303776</course><type>1</type></trkpt>
      <trkpt lat="39.35631975186473" lon="-5.9865646094725715"><ele>2522</ele><speed>11.74</speed><time>2016-07-09T13:57:50Z</time><pdop>4.0</pdop><geoidheight>50.60</geoidheight><course>32.786633</course><type>1</type></trkpt>
      <trkpt lat="39.35640738813112" lon="-5.986495446431752"><ele>2522</ele><speed>12.28</speed><time>2016-07-09T13:57:51Z</time><pdop>4.0</pdop><geoidheight>50.60</geoidheight><course>33.0663</course><type>1</type></trkpt>
      <trkpt lat="39.356497309241476" lon="-5.986423393594951"><ele>2520</ele><speed>12.95</speed><time>2016-07-09T13:57:52Z</time><pdop>6.0</pdop><geoidheight>50.60</geoidheight><course>33.58266</course><type>1</type></trkpt>
      <trkpt lat="39.35658977359431" lon="-5.9863425865071545"><ele>2519</ele><speed>12.85</speed><time>2016-07-09T13:57:53Z</time><pdop>6.0</pdop><geoidheight>50.60</geoidheight><course>34.42862</course><type>1</type></trkpt>
      <trkpt lat="39.35668504773082" lon="-5.98625946915929"><ele>2518</ele><speed>12.52</speed><time>2016-07-09T13:57:55Z</time><pdop>6.0</pdop><geoidheight>50.60</geoidheight><course>35.2217</course><type>1</type></trkpt>
      <trkpt lat="39.35677713767631" lon="-5.986178109448052"><ele>2517</ele><speed>12.06</speed><time>2016-07-09T13:57:56Z</time><pdop>6.0</pdop><geoidheight>50.60</geoidheight><course>35.357143</course><type>1</type></trkpt>
      <trkpt lat="39.35694628555897" lon="-5.986018810200253"><ele>2515</ele><speed>11.81</speed><time>2016-07-09T13:57:58Z</time><pdop>6.0</pdop><geoidheight>50.60</geoidheight><course>35.403614</course><type>1</type></trkpt>
      <trkpt lat="39.35711213208668" lon="-5.985862132215446"><ele>2513</ele><speed>11.52</speed><time>2016-07-09T13:58:00Z</time><pdop>6.0</pdop><geoidheight>50.60</geoidheight><course>36.386204</course><type>1</type></trkpt>
      <trkpt lat="39.35720012043466" lon="-5.985775684057446"><ele>2513</ele><speed>12.09</speed><time>2016-07-09T13:58:01Z</time><pdop>4.0</pdop><geoidheight>50.60</geoidheight><course>37.323036</course><type>1</type></trkpt>
      <trkpt lat="39.35729427345377" lon="-5.985684674664627"><ele>2512</ele><speed>12.25</speed><time>2016-07-09T13:58:01Z</time><pdop>4.0</pdop><geoidheight>50.60</geoidheight><course>36.477608</course><type>1</type></trkpt>
      <trkpt lat="39.357378367342925" lon="-5.985611050553393"><ele>2512</ele><speed>11.12</speed><time>2016-07-09T13:58:02Z</time><pdop>4.0</pdop><geoidheight>50.60</geoidheight><course>34.74239</course><type>1</type></trkpt>
      <trkpt lat="39.35745884859267" lon="-5.985545796601135"><ele>2512</ele><speed>10.39</speed><time>2016-07-09T13:58:04Z</time><pdop>6.0</pdop><geoidheight>50.60</geoidheight><course>33.05359</course><type>1</type></trkpt>
      <trkpt lat="39.357614228560294" lon="-5.985428970015463"><ele>2511</ele><speed>9.23</speed><time>2016-07-09T13:58:06Z</time><pdop>6.0</pdop><geoidheight>50.60</geoidheight><course>31.017334</course><type>1</type></trkpt>
      <trkpt lat="39.35777131682246" lon="-5.985316294347369"><ele>2512</ele><speed>10.48</speed><time>2016-07-09T13:58:08Z</time><pdop>4.0</pdop><geoidheight>50.60</geoidheight><course>30.008787</course><type>1</type></trkpt>
      <trkpt lat="39.357850719210205" lon="-5.985259151249283"><ele>2512</ele><speed>10.71</speed><time>2016-07-09T13:58:09Z</time><pdop>6.0</pdop><geoidheight>50.60</geoidheight><course>28.985752</course><type>1</type></trkpt>
      <trkpt lat="39.35801043053488" lon="-5.985180259096977"><ele>2512</ele><speed>9.01</speed><time>2016-07-09T13:58:11Z</time><pdop>8.0</pdop><geoidheight>50.60</geoidheight><course>13.92065</course><type>1</type></trkpt>
      <trkpt lat="39.35816705976225" lon="-5.985122007058083"><ele>2511</ele><speed>9.80</speed><time>2016-07-09T13:58:13Z</time><pdop>8.0</pdop><geoidheight>50.60</geoidheight><course>15.3413</course><type>1</type></trkpt>
      <trkpt lat="39.35835900308079" lon="-5.9850303391847515"><ele>2510</ele><speed>11.00</speed><time>2016-07-09T13:58:15Z</time><pdop>8.0</pdop><geoidheight>50.60</geoidheight><course>20.581255</course><type>1</type></trkpt>
      <trkpt lat="39.35853030956" lon="-5.984939795271321"><ele>2509</ele><speed>9.21</speed><time>2016-07-09T13:58:17Z</time><pdop>6.0</pdop><geoidheight>50.60</geoidheight><course>21.246645</course><type>1</type></trkpt>
      <trkpt lat="39.35869039354914" lon="-5.984851939975721"><ele>2509</ele><speed>10.22</speed><time>2016-07-09T13:58:19Z</time><pdop>6.0</pdop><geoidheight>50.60</geoidheight><course>21.407738</course><type>1</type></trkpt>
      <trkpt lat="39.35886483395004" lon="-5.98474399423152"><ele>2508</ele><speed>10.85</speed><time>2016-07-09T13:58:21Z</time><pdop>8.0</pdop><geoidheight>50.60</geoidheight><course>23.89678</course><type>1</type></trkpt>
      <trkpt lat="39.358994057755005" lon="-5.984660803795449"><ele>2508</ele><speed>7.98</speed><time>2016-07-09T13:58:23Z</time><pdop>8.0</pdop><geoidheight>50.60</geoidheight><course>23.922512</course><type>1</type></trkpt>
      <trkpt lat="39.35918450633899" lon="-5.98461721216301"><ele>2508</ele><speed>8.02</speed><time>2016-07-09T13:58:26Z</time><pdop>8.0</pdop><geoidheight>50.60</geoidheight><course>11.23776</course><type>1</type></trkpt>
      <trkpt lat="39.359360959778826" lon="-5.984549249409045"><ele>2507</ele><speed>10.37</speed><time>2016-07-09T13:58:28Z</time><pdop>8.0</pdop><geoidheight>50.60</geoidheight><course>15.866746</course><type>1</type></trkpt>
      <trkpt lat="39.359540224295344" lon="-5.984474470354112"><ele>2507</ele><speed>5.54</speed><time>2016-07-09T13:58:31Z</time><pdop>12.0</pdop><geoidheight>50.60</geoidheight><course>11.85031</course><type>1</type></trkpt>
      <trkpt lat="39.359723327898394" lon="-5.98441317204112"><ele>2509</ele><speed>8.45</speed><time>2016-07-09T13:58:34Z</time><pdop>8.0</pdop><geoidheight>50.60</geoidheight><course>17.350122</course><type>1</type></trkpt>
      <trkpt lat="39.35986541158296" lon="-5.984348716502871"><ele>2511</ele><speed>7.64</speed><time>2016-07-09T13:58:36Z</time><pdop>6.0</pdop><geoidheight>50.60</geoidheight><course>20.298737</course><type>1</type></trkpt>
      <trkpt lat="39.35998729406846" lon="-5.984284684136806"><ele>2513</ele><speed>6.67</speed><time>2016-07-09T13:58:38Z</time><pdop>6.0</pdop><geoidheight>50.60</geoidheight><course>20.41202</course><type>1</type></trkpt>
      <trkpt lat="39.360124927085245" lon="-5.984156460871534"><ele>2517</ele><speed>6.86</speed><time>2016-07-09T13:58:41Z</time><pdop>6.0</pdop><geoidheight>50.60</geoidheight><course>39.936172</course><type>1</type></trkpt>
      <trkpt lat="39.36023217845818" lon="-5.984034948389431"><ele>2518</ele><speed>8.94</speed><time>2016-07-09T13:58:43Z</time><pdop>6.0</pdop><geoidheight>50.60</geoidheight><course>39.212166</course><type>1</type></trkpt>
      <trkpt lat="39.36037064438296" lon="-5.983896724094604"><ele>2519</ele><speed>9.00</speed><time>2016-07-09T13:58:45Z</time><pdop>6.0</pdop><geoidheight>50.60</geoidheight><course>36.919712</course><type>1</type></trkpt>
      <trkpt lat="39.36050761221755" lon="-5.983813295469383"><ele>2520</ele><speed>8.05</speed><time>2016-07-09T13:58:47Z</time><pdop>4.0</pdop><geoidheight>50.60</geoidheight><course>16.099184</course><type>1</type></trkpt>
      <trkpt lat="39.36066815166916" lon="-5.983758636024792"><ele>2522</ele><speed>10.04</speed><time>2016-07-09T13:58:49Z</time><pdop>6.0</pdop><geoidheight>50.60</geoidheight><course>15.37801</course><type>1</type></trkpt>
      <trkpt lat="39.36084719203618" lon="-5.983677633073277"><ele>2523</ele><speed>9.78</speed><time>2016-07-09T13:58:51Z</time><pdop>6.0</pdop><geoidheight>50.60</geoidheight><course>20.748707</course><type>1</type></trkpt>
      <trkpt lat="39.360999613355204" lon="-5.983608416633578"><ele>2524</ele><speed>6.93</speed><time>2016-07-09T13:58:52Z</time><pdop>6.0</pdop><geoidheight>50.60</geoidheight><course>16.395971</course><type>1</type></trkpt>
      <trkpt lat="39.361143822114684" lon="-5.983576110591368"><ele>2526</ele><speed>9.05</speed><time>2016-07-09T13:58:55Z</time><pdop>6.0</pdop><geoidheight>50.60</geoidheight><course>11.4579315</course><type>1</type></trkpt>
      <trkpt lat="39.36130727599113" lon="-5.983529344019957"><ele>2527</ele><speed>10.53</speed><time>2016-07-09T13:58:57Z</time><pdop>6.0</pdop><geoidheight>50.60</geoidheight><course>15.070899</course><type>1</type></trkpt>
      <trkpt lat="39.36145131196778" lon="-5.983482977195805"><ele>2527</ele><speed>9.22</speed><time>2016-07-09T13:58:58Z</time><pdop>8.0</pdop><geoidheight>50.60</geoidheight><course>12.368995</course><type>1</type></trkpt>
      <trkpt lat="39.361602632117695" lon="-5.9834539526448935"><ele>2528</ele><speed>8.36</speed><time>2016-07-09T13:59:01Z</time><pdop>6.0</pdop><geoidheight>50.60</geoidheight><course>9.169713</course><type>1</type></trkpt>
      <trkpt lat="39.361771589334396" lon="-5.9834193847622785"><ele>2527</ele><speed>10.26</speed><time>2016-07-09T13:59:03Z</time><pdop>6.0</pdop><geoidheight>50.60</geoidheight><course>11.258795</course><type>1</type></trkpt>
      <trkpt lat="39.36195300115521" lon="-5.983367850197316"><ele>2526</ele><speed>9.85</speed><time>2016-07-09T13:59:04Z</time><pdop>6.0</pdop><geoidheight>50.60</geoidheight><course>13.404215</course><type>1</type></trkpt>
      <trkpt lat="39.36212920766966" lon="-5.9833172537138495"><ele>2524</ele><speed>8.96</speed><time>2016-07-09T13:59:07Z</time><pdop>6.0</pdop><geoidheight>50.60</geoidheight><course>12.421039</course><type>1</type></trkpt>
      <trkpt lat="39.36230139906936" lon="-5.9832691326744385"><ele>2523</ele><speed>9.29</speed><time>2016-07-09T13:59:09Z</time><pdop>6.0</pdop><geoidheight>50.60</geoidheight><course>11.777946</course><type>1</type></trkpt>
      <trkpt lat="39.36246317252871" lon="-5.983239089360332"><ele>2522</ele><speed>9.27</speed><time>2016-07-09T13:59:11Z</time><pdop>4.0</pdop><geoidheight>50.60</geoidheight><course>7.844481</course><type>1</type></trkpt>
      <trkpt lat="39.36254292758238" lon="-5.983229176050264"><ele>2522</ele><speed>8.91</speed><time>2016-07-09T13:59:12Z</time><pdop>4.0</pdop><geoidheight>50.60</geoidheight><course>6.7871537</course><type>1</type></trkpt>
      <trkpt lat="39.3626201650925" lon="-5.983219815666987"><ele>2522</ele><speed>8.27</speed><time>2016-07-09T13:59:13Z</time><pdop>4.0</pdop><geoidheight>50.60</geoidheight><course>7.002915</course><type>1</type></trkpt>
      <trkpt lat="39.36276301408604" lon="-5.983197400932389"><ele>2523</ele><speed>7.65</speed><time>2016-07-09T13:59:15Z</time><pdop>4.0</pdop><geoidheight>50.60</geoidheight><course>6.804793</course><type>1</type></trkpt>
      <trkpt lat="39.36283550574412" lon="-5.983185570320465"><ele>2524</ele><speed>8.28</speed><time>2016-07-09T13:59:16Z</time><pdop>4.0</pdop><geoidheight>50.60</geoidheight><course>6.088395</course><type>1</type></trkpt>
      <trkpt lat="39.36291029697444" lon="-5.983173948158605"><ele>2524</ele><speed>9.07</speed><time>2016-07-09T13:59:17Z</time><pdop>4.0</pdop><geoidheight>50.60</geoidheight><course>6.4398074</course><type>1</type></trkpt>
      <trkpt lat="39.36299679465489" lon="-5.9831592236847415"><ele>2525</ele><speed>9.54</speed><time>2016-07-09T13:59:18Z</time><pdop>4.0</pdop><geoidheight>50.60</geoidheight><course>7.25301</course><type>1</type></trkpt>
      <trkpt lat="39.36308213836593" lon="-5.9831442086979"><ele>2525</ele><speed>9.21</speed><time>2016-07-09T13:59:19Z</time><pdop>4.0</pdop><geoidheight>50.60</geoidheight><course>7.3184795</course><type>1</type></trkpt>
      <trkpt lat="39.36316186075383" lon="-5.983129812708843"><ele>2526</ele><speed>8.69</speed><time>2016-07-09T13:59:20Z</time><pdop>4.0</pdop><geoidheight>50.60</geoidheight><course>6.985327</course><type>1</type></trkpt>
      <trkpt lat="39.363238194018045" lon="-5.983114822450607"><ele>2526</ele><speed>8.45</speed><time>2016-07-09T13:59:21Z</time><pdop>4.0</pdop><geoidheight>50.60</geoidheight><course>7.9668155</course><type>1</type></trkpt>
      <trkpt lat="39.36331109228922" lon="-5.9831006505197175"><ele>2526</ele><speed>9.09</speed><time>2016-07-09T13:59:22Z</time><pdop>4.0</pdop><geoidheight>50.60</geoidheight><course>7.4690876</course><type>1</type></trkpt>
      <trkpt lat="39.363391322377275" lon="-5.983086464517615"><ele>2526</ele><speed>9.90</speed><time>2016-07-09T13:59:23Z</time><pdop>4.0</pdop><geoidheight>50.60</geoidheight><course>6.9695897</course><type>1</type></trkpt>
      <trkpt lat="39.36348802204437" lon="-5.98307331574458"><ele>2526</ele><speed>10.97</speed><time>2016-07-09T13:59:24Z</time><pdop>4.0</pdop><geoidheight>50.60</geoidheight><course>6.34077</course><type>1</type></trkpt>
      <trkpt lat="39.36358982847414" lon="-5.983059933520108"><ele>2525</ele><speed>11.12</speed><time>2016-07-09T13:59:25Z</time><pdop>4.0</pdop><geoidheight>50.60</geoidheight><course>6.897211</course><type>1</type></trkpt>
      <trkpt lat="39.36368063873159" lon="-5.983046908576232"><ele>2524</ele><speed>10.17</speed><time>2016-07-09T13:59:26Z</time><pdop>4.0</pdop><geoidheight>50.60</geoidheight><course>7.3127923</course><type>1</type></trkpt>
      <trkpt lat="39.363765469811476" lon="-5.9830345233771505"><ele>2524</ele><speed>9.22</speed><time>2016-07-09T13:59:27Z</time><pdop>4.0</pdop><geoidheight>50.60</geoidheight><course>6.963</course><type>1</type></trkpt>
      <trkpt lat="39.36384584042572" lon="-5.98302257307666"><ele>2524</ele><speed>8.85</speed><time>2016-07-09T13:59:28Z</time><pdop>4.0</pdop><geoidheight>50.60</geoidheight><course>6.0970125</course><type>1</type></trkpt>
      <trkpt lat="39.36400057539327" lon="-5.982999805947313"><ele>2524</ele><speed>9.10</speed><time>2016-07-09T13:59:30Z</time><pdop>4.0</pdop><geoidheight>50.60</geoidheight><course>7.2032986</course><type>1</type></trkpt>
      <trkpt lat="39.36409647715708" lon="-5.982980569228231"><ele>2524</ele><speed>10.94</speed><time>2016-07-09T13:59:31Z</time><pdop>4.0</pdop><geoidheight>50.60</geoidheight><course>8.419453</course><type>1</type></trkpt>
      <trkpt lat="39.36420104906388" lon="-5.982960193393508"><ele>2523</ele><speed>12.58</speed><time>2016-07-09T13:59:32Z</time><pdop>4.0</pdop><geoidheight>50.60</geoidheight><course>8.83277</course><type>1</type></trkpt>
      <trkpt lat="39.36430777471915" lon="-5.982934796854824"><ele>2522</ele><speed>12.32</speed><time>2016-07-09T13:59:33Z</time><pdop>4.0</pdop><geoidheight>50.60</geoidheight><course>10.045145</course><type>1</type></trkpt>
      <trkpt lat="39.36448560646584" lon="-5.982883063228367"><ele>2522</ele><speed>8.90</speed><time>2016-07-09T13:59:35Z</time><pdop>8.0</pdop><geoidheight>50.60</geoidheight><course>11.230335</course><type>1</type></trkpt>
      <trkpt lat="39.36468870250961" lon="-5.982891734723937"><ele>2525</ele><speed>8.46</speed><time>2016-07-09T13:59:38Z</time><pdop>6.0</pdop><geoidheight>50.60</geoidheight><course>358.4992</course><type>1</type></trkpt>
      <trkpt lat="39.364835562699206" lon="-5.982877906630679"><ele>2528</ele><speed>8.34</speed><time>2016-07-09T13:59:40Z</time><pdop>6.0</pdop><geoidheight>50.60</geoidheight><course>1.9670675</course><type>1</type></trkpt>
      <trkpt lat="39.364979089582846" lon="-5.982865077309265"><ele>2533</ele><speed>8.98</speed><time>2016-07-09T13:59:41Z</time><pdop>6.0</pdop><geoidheight>50.60</geoidheight><course>0.6918933</course><type>1</type></trkpt>
      <trkpt lat="39.3651540676139" lon="-5.9828665840695585"><ele>2537</ele><speed>10.22</speed><time>2016-07-09T13:59:44Z</time><pdop>8.0</pdop><geoidheight>50.60</geoidheight><course>358.92874</course><type>1</type></trkpt>
      <trkpt lat="39.365324059154396" lon="-5.98285977232276"><ele>2542</ele><speed>9.07</speed><time>2016-07-09T13:59:46Z</time><pdop>8.0</pdop><geoidheight>50.60</geoidheight><course>1.2168138</course><type>1</type></trkpt>
      <trkpt lat="39.36549977277767" lon="-5.982840564324688"><ele>2547</ele><speed>8.34</speed><time>2016-07-09T13:59:48Z</time><pdop>6.0</pdop><geoidheight>50.60</geoidheight><course>4.4548197</course><type>1</type></trkpt>
      <trkpt lat="39.36566337355965" lon="-5.982799082968119"><ele>2553</ele><speed>8.00</speed><time>2016-07-09T13:59:50Z</time><pdop>6.0</pdop><geoidheight>50.60</geoidheight><course>10.9188175</course><type>1</type></trkpt>
      <trkpt lat="39.36581889309302" lon="-5.982740326636469"><ele>2558</ele><speed>8.40</speed><time>2016-07-09T13:59:52Z</time><pdop>6.0</pdop><geoidheight>50.60</geoidheight><course>12.160502</course><type>1</type></trkpt>
      <trkpt lat="39.36597214270498" lon="-5.982680882599824"><ele>2564</ele><speed>8.41</speed><time>2016-07-09T13:59:54Z</time><pdop>6.0</pdop><geoidheight>50.60</geoidheight><course>13.590528</course><type>1</type></trkpt>
      <trkpt lat="39.36612006263286" lon="-5.9826217670991895"><ele>2569</ele><speed>8.33</speed><time>2016-07-09T13:59:56Z</time><pdop>6.0</pdop><geoidheight>50.60</geoidheight><course>13.492196</course><type>1</type></trkpt>
      <trkpt lat="39.36626358755471" lon="-5.982570732164612"><ele>2574</ele><speed>8.05</speed><time>2016-07-09T13:59:57Z</time><pdop>6.0</pdop><geoidheight>50.60</geoidheight><course>12.454035</course><type>1</type></trkpt>
      <trkpt lat="39.36641078771326" lon="-5.982485942577679"><ele>2578</ele><speed>4.11</speed><time>2016-07-09T14:00:01Z</time><pdop>8.0</pdop><geoidheight>50.60</geoidheight><course>43.138096</course><type>1</type></trkpt>
      <trkpt lat="39.366399318975354" lon="-5.982265861934434"><ele>2583</ele><speed>9.24</speed><time>2016-07-09T14:00:03Z</time><pdop>8.0</pdop><geoidheight>50.60</geoidheight><course>119.90639</course><type>1</type></trkpt>
      <trkpt lat="39.36625514657999" lon="-5.982169805902013"><ele>2583</ele><speed>11.18</speed><time>2016-07-09T14:00:06Z</time><pdop>8.0</pdop><geoidheight>50.60</geoidheight><course>165.61531</course><type>1</type></trkpt>
      <trkpt lat="39.36606632304778" lon="-5.982201931061324"><ele>2583</ele><speed>10.57</speed><time>2016-07-09T14:00:08Z</time><pdop>6.0</pdop><geoidheight>50.60</geoidheight><course>193.04204</course><type>1</type></trkpt>
      <trkpt lat="39.365941314258365" lon="-5.98228656757616"><ele>2583</ele><speed>9.70</speed><time>2016-07-09T14:00:10Z</time><pdop>6.0</pdop><geoidheight>50.60</geoidheight><course>212.66962</course><type>1</type></trkpt>
      <trkpt lat="39.365773529668786" lon="-5.982443715404543"><ele>2584</ele><speed>13.24</speed><time>2016-07-09T14:00:11Z</time><pdop>6.0</pdop><geoidheight>50.60</geoidheight><course>216.62354</course><type>1</type></trkpt>
      <trkpt lat="39.36568281065047" lon="-5.982540824645786"><ele>2586</ele><speed>12.20</speed><time>2016-07-09T14:00:12Z</time><pdop>6.0</pdop><geoidheight>50.60</geoidheight><course>218.77774</course><type>1</type></trkpt>
      <trkpt lat="39.36554139721828" lon="-5.982707431264027"><ele>2588</ele><speed>10.68</speed><time>2016-07-09T14:00:14Z</time><pdop>6.0</pdop><geoidheight>50.60</geoidheight><course>222.43326</course><type>1</type></trkpt>
      <trkpt lat="39.36542147407974" lon="-5.982933989237822"><ele>2591</ele><speed>11.85</speed><time>2016-07-09T14:00:17Z</time><pdop>8.0</pdop><geoidheight>50.60</geoidheight><course>241.46794</course><type>1</type></trkpt>
      <trkpt lat="39.36534242882614" lon="-5.983217451206351"><ele>2593</ele><speed>11.85</speed><time>2016-07-09T14:00:19Z</time><pdop>8.0</pdop><geoidheight>50.60</geoidheight><course>259.48074</course><type>1</type></trkpt>
      <trkpt lat="39.36536610692419" lon="-5.983501861120607"><ele>2595</ele><speed>12.53</speed><time>2016-07-09T14:00:21Z</time><pdop>8.0</pdop><geoidheight>50.60</geoidheight><course>285.43582</course><type>1</type></trkpt>
      <trkpt lat="39.36546777867917" lon="-5.983774361467171"><ele>2597</ele><speed>13.76</speed><time>2016-07-09T14:00:23Z</time><pdop>8.0</pdop><geoidheight>50.60</geoidheight><course>302.63354</course><type>1</type></trkpt>
      <trkpt lat="39.365627875943225" lon="-5.98398767800614"><ele>2600</ele><speed>12.56</speed><time>2016-07-09T14:00:25Z</time><pdop>12.0</pdop><geoidheight>50.60</geoidheight><course>322.60504</course><type>1</type></trkpt>
      <trkpt lat="39.36578531505979" lon="-5.984143853251137"><ele>2603</ele><speed>9.03</speed><time>2016-07-09T14:00:27Z</time><pdop>8.0</pdop><geoidheight>50.60</geoidheight><course>327.43597</course><type>1</type></trkpt>
      <trkpt lat="39.36593400137076" lon="-5.984256960152868"><ele>2608</ele><speed>9.14</speed><time>2016-07-09T14:00:29Z</time><pdop>8.0</pdop><geoidheight>50.60</geoidheight><course>333.1764</course><type>1</type></trkpt>
      <trkpt lat="39.36609175726471" lon="-5.984251431052477"><ele>2611</ele><speed>9.16</speed><time>2016-07-09T14:00:30Z</time><pdop>8.0</pdop><geoidheight>50.60</geoidheight><course>11.214668</course><type>1</type></trkpt>
      <trkpt lat="39.36622847362061" lon="-5.984159075060852"><ele>2613</ele><speed>8.12</speed><time>2016-07-09T14:00:32Z</time><pdop>8.0</pdop><geoidheight>50.60</geoidheight><course>30.010153</course><type>1</type></trkpt>
      <trkpt lat="39.366376288421804" lon="-5.984062505267047"><ele>2616</ele><speed>6.70</speed><time>2016-07-09T14:00:36Z</time><pdop>8.0</pdop><geoidheight>50.60</geoidheight><course>28.1816</course><type>1</type></trkpt>
      <trkpt lat="39.36651685853621" lon="-5.983953844462778"><ele>2617</ele><speed>10.37</speed><time>2016-07-09T14:00:38Z</time><pdop>6.0</pdop><geoidheight>50.60</geoidheight><course>32.151</course><type>1</type></trkpt>
      <trkpt lat="39.36667400018056" lon="-5.983812889505177"><ele>2618</ele><speed>9.60</speed><time>2016-07-09T14:00:40Z</time><pdop>8.0</pdop><geoidheight>50.60</geoidheight><course>31.855305</course><type>1</type></trkpt>
      <trkpt lat="39.36682266838585" lon="-5.9837550441227725"><ele>2620</ele><speed>8.89</speed><time>2016-07-09T14:00:42Z</time><pdop>8.0</pdop><geoidheight>50.60</geoidheight><course>0.8590258</course><type>1</type></trkpt>
      <trkpt lat="39.36701238864601" lon="-5.983765177988565"><ele>2627</ele><speed>8.82</speed><time>2016-07-09T14:00:45Z</time><pdop>12.0</pdop><geoidheight>50.60</geoidheight><course>3.94751</course><type>1</type></trkpt>
      <trkpt lat="39.36717349543288" lon="-5.9837327378832015"><ele>2632</ele><speed>9.27</speed><time>2016-07-09T14:00:47Z</time><pdop>6.0</pdop><geoidheight>50.60</geoidheight><course>9.888802</course><type>1</type></trkpt>
      <trkpt lat="39.36732606571302" lon="-5.9836905305948695"><ele>2636</ele><speed>7.51</speed><time>2016-07-09T14:00:49Z</time><pdop>6.0</pdop><geoidheight>50.60</geoidheight><course>10.127276</course><type>1</type></trkpt>
      <trkpt lat="39.36746540862045" lon="-5.983665608189611"><ele>2640</ele><speed>6.76</speed><time>2016-07-09T14:00:51Z</time><pdop>6.0</pdop><geoidheight>50.60</geoidheight><course>5.0002084</course><type>1</type></trkpt>
      <trkpt lat="39.36759698726093" lon="-5.983625987369426"><ele>2644</ele><speed>6.78</speed><time>2016-07-09T14:00:53Z</time><pdop>4.0</pdop><geoidheight>50.60</geoidheight><course>19.374384</course><type>1</type></trkpt>
      <trkpt lat="39.36771134722828" lon="-5.983557566762704"><ele>2647</ele><speed>7.42</speed><time>2016-07-09T14:00:55Z</time><pdop>6.0</pdop><geoidheight>50.60</geoidheight><course>22.288721</course><type>1</type></trkpt>
      <trkpt lat="39.36783473370112" lon="-5.983493230790343"><ele>2651</ele><speed>6.89</speed><time>2016-07-09T14:00:57Z</time><pdop>4.0</pdop><geoidheight>50.60</geoidheight><course>19.012653</course><type>1</type></trkpt>
      <trkpt lat="39.36797301232794" lon="-5.983432695298068"><ele>2655</ele><speed>8.91</speed><time>2016-07-09T14:00:59Z</time><pdop>4.0</pdop><geoidheight>50.60</geoidheight><course>16.708628</course><type>1</type></trkpt>
      <trkpt lat="39.36805364180293" lon="-5.983397980120459"><ele>2657</ele><speed>9.80</speed><time>2016-07-09T14:01:00Z</time><pdop>4.0</pdop><geoidheight>50.60</geoidheight><course>17.8516</course><type>1</type></trkpt>
      <trkpt lat="39.36813808937002" lon="-5.98335786090771"><ele>2659</ele><speed>9.26</speed><time>2016-07-09T14:01:01Z</time><pdop>6.0</pdop><geoidheight>50.60</geoidheight><course>19.175276</course><type>1</type></trkpt>
      <trkpt lat="39.36828155092093" lon="-5.983289782454538"><ele>2663</ele><speed>7.71</speed><time>2016-07-09T14:01:02Z</time><pdop>4.0</pdop><geoidheight>50.60</geoidheight><course>18.64782</course><type>1</type></trkpt>
      <trkpt lat="39.36842224968042" lon="-5.983233537746762"><ele>2668</ele><speed>8.14</speed><time>2016-07-09T14:01:05Z</time><pdop>8.0</pdop><geoidheight>50.60</geoidheight><course>16.182922</course><type>1</type></trkpt>
      <trkpt lat="39.368574744499995" lon="-5.983164356607037"><ele>2672</ele><speed>9.87</speed><time>2016-07-09T14:01:07Z</time><pdop>6.0</pdop><geoidheight>50.60</geoidheight><course>19.187504</course><type>1</type></trkpt>
      <trkpt lat="39.368720540717916" lon="-5.983098583500166"><ele>2676</ele><speed>8.16</speed><time>2016-07-09T14:01:09Z</time><pdop>6.0</pdop><geoidheight>50.60</geoidheight><course>16.239792</course><type>1</type></trkpt>
      <trkpt lat="39.36885600601218" lon="-5.983046582918454"><ele>2680</ele><speed>7.31</speed><time>2016-07-09T14:01:11Z</time><pdop>4.0</pdop><geoidheight>50.60</geoidheight><course>16.606766</course><type>1</type></trkpt>
      <trkpt lat="39.36897859737568" lon="-5.982957827900805"><ele>2683</ele><speed>8.25</speed><time>2016-07-09T14:01:13Z</time><pdop>4.0</pdop><geoidheight>50.60</geoidheight><course>30.897919</course><type>1</type></trkpt>
      <trkpt lat="39.36904321450638" lon="-5.982907689814938"><ele>2685</ele><speed>8.66</speed><time>2016-07-09T14:01:14Z</time><pdop>4.0</pdop><geoidheight>50.60</geoidheight><course>31.283636</course><type>1</type></trkpt>
      <trkpt lat="39.36916654737058" lon="-5.982807380041358"><ele>2687</ele><speed>8.56</speed><time>2016-07-09T14:01:16Z</time><pdop>4.0</pdop><geoidheight>50.60</geoidheight><course>33.420624</course><type>1</type></trkpt>
      <trkpt lat="39.36923322093066" lon="-5.982748028304548"><ele>2689</ele><speed>8.37</speed><time>2016-07-09T14:01:17Z</time><pdop>4.0</pdop><geoidheight>50.60</geoidheight><course>35.24386</course><type>1</type></trkpt>
      <trkpt lat="39.36930417252485" lon="-5.982684918531487"><ele>2690</ele><speed>8.34</speed><time>2016-07-09T14:01:18Z</time><pdop>4.0</pdop><geoidheight>50.60</geoidheight><course>35.696373</course><type>1</type></trkpt>
      <trkpt lat="39.36937150434988" lon="-5.982623662676182"><ele>2691</ele><speed>8.36</speed><time>2016-07-09T14:01:19Z</time><pdop>4.0</pdop><geoidheight>50.60</geoidheight><course>36.265343</course><type>1</type></trkpt>
      <trkpt lat="39.369433544510166" lon="-5.982563302648906"><ele>2693</ele><speed>8.79</speed><time>2016-07-09T14:01:20Z</time><pdop>4.0</pdop><geoidheight>50.60</geoidheight><course>37.491035</course><type>1</type></trkpt>
      <trkpt lat="39.36949833658334" lon="-5.982498814684399"><ele>2694</ele><speed>8.76</speed><time>2016-07-09T14:01:21Z</time><pdop>4.0</pdop><geoidheight>50.60</geoidheight><course>37.8124</course><type>1</type></trkpt>
      <trkpt lat="39.369613833991046" lon="-5.9823948396105315"><ele>2697</ele><speed>7.15</speed><time>2016-07-09T14:01:23Z</time><pdop>4.0</pdop><geoidheight>50.60</geoidheight><course>33.894566</course><type>1</type></trkpt>
      <trkpt lat="39.36973134926162" lon="-5.9823024980269"><ele>2700</ele><speed>8.34</speed><time>2016-07-09T14:01:25Z</time><pdop>4.0</pdop><geoidheight>50.60</geoidheight><course>31.975101</course><type>1</type></trkpt>
      <trkpt lat="39.369798035996794" lon="-5.982247588298404"><ele>2702</ele><speed>9.00</speed><time>2016-07-09T14:01:26Z</time><pdop>4.0</pdop><geoidheight>50.60</geoidheight><course>33.312244</course><type>1</type></trkpt>
      <trkpt lat="39.369869242711225" lon="-5.982184664333556"><ele>2704</ele><speed>8.60</speed><time>2016-07-09T14:01:27Z</time><pdop>4.0</pdop><geoidheight>50.60</geoidheight><course>35.065296</course><type>1</type></trkpt>
      <trkpt lat="39.369969800179085" lon="-5.982083464223139"><ele>2707</ele><speed>5.78</speed><time>2016-07-09T14:01:29Z</time><pdop>4.0</pdop><geoidheight>50.60</geoidheight><course>36.144737</course><type>1</type></trkpt>
      <trkpt lat="39.37005617421965" lon="-5.981998535872273"><ele>2712</ele><speed>5.05</speed><time>2016-07-09T14:01:31Z</time><pdop>4.0</pdop><geoidheight>50.60</geoidheight><course>34.621555</course><type>1</type></trkpt>
      <trkpt lat="39.37013693270437" lon="-5.981927948971498"><ele>2716</ele><speed>5.92</speed><time>2016-07-09T14:01:33Z</time><pdop>6.0</pdop><geoidheight>50.60</geoidheight><course>30.277779</course><type>1</type></trkpt>
      <trkpt lat="39.370243510516595" lon="-5.981850662195556"><ele>2720</ele><speed>6.59</speed><time>2016-07-09T14:01:35Z</time><pdop>4.0</pdop><geoidheight>50.60</geoidheight><course>29.384356</course><type>1</type></trkpt>
      <trkpt lat="39.3703428447994" lon="-5.98177894005203"><ele>2724</ele><speed>5.94</speed><time>2016-07-09T14:01:37Z</time><pdop>4.0</pdop><geoidheight>50.60</geoidheight><course>27.219856</course><type>1</type></trkpt>
      <trkpt lat="39.3704535607082" lon="-5.9817195122099385"><ele>2729</ele><speed>6.50</speed><time>2016-07-09T14:01:39Z</time><pdop>4.0</pdop><geoidheight>50.60</geoidheight><course>21.148046</course><type>1</type></trkpt>
      <trkpt lat="39.37057076083953" lon="-5.981670649583988"><ele>2732</ele><speed>7.45</speed><time>2016-07-09T14:01:41Z</time><pdop>4.0</pdop><geoidheight>50.60</geoidheight><course>18.881207</course><type>1</type></trkpt>
      <trkpt lat="39.370707445553876" lon="-5.981595885209695"><ele>2735</ele><speed>8.39</speed><time>2016-07-09T14:01:43Z</time><pdop>4.0</pdop><geoidheight>50.60</geoidheight><course>23.978731</course><type>1</type></trkpt>
      <trkpt lat="39.37078199545255" lon="-5.9815510808032935"><ele>2736</ele><speed>8.80</speed><time>2016-07-09T14:01:44Z</time><pdop>4.0</pdop><geoidheight>50.60</geoidheight><course>24.379793</course><type>1</type></trkpt>
      <trkpt lat="39.370855282657466" lon="-5.981511376461527"><ele>2738</ele><speed>8.88</speed><time>2016-07-09T14:01:45Z</time><pdop>4.0</pdop><geoidheight>50.60</geoidheight><course>22.228268</course><type>1</type></trkpt>
      <trkpt lat="39.37093059569312" lon="-5.981478587715928"><ele>2740</ele><speed>8.84</speed><time>2016-07-09T14:01:46Z</time><pdop>4.0</pdop><geoidheight>50.60</geoidheight><course>19.228996</course><type>1</type></trkpt>
      <trkpt lat="39.37101002018546" lon="-5.981448123230578"><ele>2741</ele><speed>8.25</speed><time>2016-07-09T14:01:47Z</time><pdop>4.0</pdop><geoidheight>50.60</geoidheight><course>17.859709</course><type>1</type></trkpt>
      <trkpt lat="39.37116496805304" lon="-5.981376303309989"><ele>2745</ele><speed>8.85</speed><time>2016-07-09T14:01:49Z</time><pdop>4.0</pdop><geoidheight>50.60</geoidheight><course>21.446634</course><type>1</type></trkpt>
      <trkpt lat="39.37123865291517" lon="-5.981332858385931"><ele>2746</ele><speed>9.08</speed><time>2016-07-09T14:01:50Z</time><pdop>4.0</pdop><geoidheight>50.60</geoidheight><course>23.17659</course><type>1</type></trkpt>
      <trkpt lat="39.37131260781424" lon="-5.981286004557692"><ele>2747</ele><speed>9.42</speed><time>2016-07-09T14:01:51Z</time><pdop>4.0</pdop><geoidheight>50.60</geoidheight><course>24.784296</course><type>1</type></trkpt>
      <trkpt lat="39.371381360327135" lon="-5.981235771746365"><ele>2748</ele><speed>9.76</speed><time>2016-07-09T14:01:52Z</time><pdop>4.0</pdop><geoidheight>50.60</geoidheight><course>27.147919</course><type>1</type></trkpt>
      <trkpt lat="39.37144854837329" lon="-5.981182078635732"><ele>2750</ele><speed>9.27</speed><time>2016-07-09T14:01:52Z</time><pdop>4.0</pdop><geoidheight>50.60</geoidheight><course>28.982616</course><type>1</type></trkpt>
      <trkpt lat="39.37157425881308" lon="-5.981088861878726"><ele>2752</ele><speed>5.97</speed><time>2016-07-09T14:01:55Z</time><pdop>6.0</pdop><geoidheight>50.60</geoidheight><course>26.54145</course><type>1</type></trkpt>
      <trkpt lat="39.37170088665392" lon="-5.980996252110226"><ele>2754</ele><speed>8.07</speed><time>2016-07-09T14:01:57Z</time><pdop>6.0</pdop><geoidheight>50.60</geoidheight><course>30.015104</course><type>1</type></trkpt>
      <trkpt lat="39.37182347922984" lon="-5.980836296032281"><ele>2754</ele><speed>11.76</speed><time>2016-07-09T14:01:59Z</time><pdop>6.0</pdop><geoidheight>50.60</geoidheight><course>43.197174</course><type>1</type></trkpt>
      <trkpt lat="39.371949963748726" lon="-5.980671600864247"><ele>2753</ele><speed>9.33</speed><time>2016-07-09T14:02:01Z</time><pdop>6.0</pdop><geoidheight>50.60</geoidheight><course>44.25427</course><type>1</type></trkpt>
      <trkpt lat="39.37205973206155" lon="-5.980538292982162"><ele>2752</ele><speed>8.29</speed><time>2016-07-09T14:02:03Z</time><pdop>6.0</pdop><geoidheight>50.60</geoidheight><course>41.68028</course><type>1</type></trkpt>
      <trkpt lat="39.37219663309346" lon="-5.980394011165468"><ele>2751</ele><speed>10.94</speed><time>2016-07-09T14:02:05Z</time><pdop>6.0</pdop><geoidheight>50.60</geoidheight><course>39.983562</course><type>1</type></trkpt>
      <trkpt lat="39.372337234917076" lon="-5.980223300740111"><ele>2749</ele><speed>9.53</speed><time>2016-07-09T14:02:07Z</time><pdop>6.0</pdop><geoidheight>50.60</geoidheight><course>45.130302</course><type>1</type></trkpt>
      <trkpt lat="39.372435150057015" lon="-5.980085861163367"><ele>2748</ele><speed>8.49</speed><time>2016-07-09T14:02:09Z</time><pdop>8.0</pdop><geoidheight>50.60</geoidheight><course>44.60266</course><type>1</type></trkpt>
      <trkpt lat="39.37255442449861" lon="-5.97994838155438"><ele>2745</ele><speed>11.09</speed><time>2016-07-09T14:02:11Z</time><pdop>4.0</pdop><geoidheight>50.60</geoidheight><course>40.222363</course><type>1</type></trkpt>
      <trkpt lat="39.37261845802258" lon="-5.979878894607877"><ele>2743</ele><speed>11.74</speed><time>2016-07-09T14:02:12Z</time><pdop>4.0</pdop><geoidheight>50.60</geoidheight><course>39.664368</course><type>1</type></trkpt>
      <trkpt lat="39.37276497262944" lon="-5.979763734594959"><ele>2738</ele><speed>9.29</speed><time>2016-07-09T14:02:14Z</time><pdop>8.0</pdop><geoidheight>50.60</geoidheight><course>22.96976</course><type>1</type></trkpt>
      <trkpt lat="39.37291277205159" lon="-5.979691444367623"><ele>2735</ele><speed>6.42</speed><time>2016-07-09T14:02:16Z</time><pdop>8.0</pdop><geoidheight>50.60</geoidheight><course>21.209236</course><type>1</type></trkpt>
      <trkpt lat="39.37304795680618" lon="-5.979622498366584"><ele>2732</ele><speed>9.87</speed><time>2016-07-09T14:02:18Z</time><pdop>6.0</pdop><geoidheight>50.60</geoidheight><course>24.606953</course><type>1</type></trkpt>
      <trkpt lat="39.37322464161474" lon="-5.979505933911787"><ele>2727</ele><speed>11.04</speed><time>2016-07-09T14:02:20Z</time><pdop>8.0</pdop><geoidheight>50.60</geoidheight><course>29.060879</course><type>1</type></trkpt>
      <trkpt lat="39.373379137881685" lon="-5.979384266979815"><ele>2722</ele><speed>9.60</speed><time>2016-07-09T14:02:22Z</time><pdop>6.0</pdop><geoidheight>50.60</geoidheight><course>33.015305</course><type>1</type></trkpt>
      <trkpt lat="39.37351418323617" lon="-5.979246603269695"><ele>2719</ele><speed>9.91</speed><time>2016-07-09T14:02:24Z</time><pdop>6.0</pdop><geoidheight>50.60</geoidheight><course>37.453537</course><type>1</type></trkpt>
      <trkpt lat="39.373666072942456" lon="-5.9790858297187075"><ele>2716</ele><speed>12.46</speed><time>2016-07-09T14:02:26Z</time><pdop>6.0</pdop><geoidheight>50.60</geoidheight><course>36.759407</course><type>1</type></trkpt>
      <trkpt lat="39.37383369183759" lon="-5.9789238972156245"><ele>2712</ele><speed>11.99</speed><time>2016-07-09T14:02:28Z</time><pdop>6.0</pdop><geoidheight>50.60</geoidheight><course>37.267365</course><type>1</type></trkpt>
      <trkpt lat="39.37398625314209" lon="-5.978746077853901"><ele>2709</ele><speed>11.69</speed><time>2016-07-09T14:02:30Z</time><pdop>6.0</pdop><geoidheight>50.60</geoidheight><course>42.402832</course><type>1</type></trkpt>
      <trkpt lat="39.37414104202943" lon="-5.978554493102766"><ele>2706</ele><speed>12.43</speed><time>2016-07-09T14:02:32Z</time><pdop>6.0</pdop><geoidheight>50.60</geoidheight><course>42.73675</course><type>1</type></trkpt>
      <trkpt lat="39.37428125156966" lon="-5.9783718103370855"><ele>2704</ele><speed>10.41</speed><time>2016-07-09T14:02:34Z</time><pdop>6.0</pdop><geoidheight>50.60</geoidheight><course>45.317024</course><type>1</type></trkpt>
      <trkpt lat="39.37440816682068" lon="-5.9781793601999125"><ele>2703</ele><speed>11.00</speed><time>2016-07-09T14:02:36Z</time><pdop>6.0</pdop><geoidheight>50.60</geoidheight><course>48.55185</course><type>1</type></trkpt>
      <trkpt lat="39.37453520444115" lon="-5.9779800581011715"><ele>2701</ele><speed>12.38</speed><time>2016-07-09T14:02:38Z</time><pdop>6.0</pdop><geoidheight>50.60</geoidheight><course>49.910633</course><type>1</type></trkpt>
      <trkpt lat="39.37469025633567" lon="-5.9777901786402"><ele>2698</ele><speed>11.43</speed><time>2016-07-09T14:02:40Z</time><pdop>6.0</pdop><geoidheight>50.60</geoidheight><course>36.075512</course><type>1</type></trkpt>
      <trkpt lat="39.37484399932859" lon="-5.977650720924065"><ele>2698</ele><speed>9.66</speed><time>2016-07-09T14:02:42Z</time><pdop>6.0</pdop><geoidheight>50.60</geoidheight><course>35.42237</course><type>1</type></trkpt>
      <trkpt lat="39.37498079313907" lon="-5.977505234293104"><ele>2698</ele><speed>10.21</speed><time>2016-07-09T14:02:44Z</time><pdop>8.0</pdop><geoidheight>50.60</geoidheight><course>41.618877</course><type>1</type></trkpt>
      <trkpt lat="39.3751140949755" lon="-5.977332672403102"><ele>2699</ele><speed>10.12</speed><time>2016-07-09T14:02:46Z</time><pdop>6.0</pdop><geoidheight>50.60</geoidheight><course>43.28631</course><type>1</type></trkpt>
      <trkpt lat="39.375248120766855" lon="-5.977167652667393"><ele>2701</ele><speed>9.05</speed><time>2016-07-09T14:02:48Z</time><pdop>6.0</pdop><geoidheight>50.60</geoidheight><course>40.578087</course><type>1</type></trkpt>
      <trkpt lat="39.375384452145894" lon="-5.977009066744706"><ele>2704</ele><speed>9.58</speed><time>2016-07-09T14:02:50Z</time><pdop>6.0</pdop><geoidheight>50.60</geoidheight><course>39.243706</course><type>1</type></trkpt>
      <trkpt lat="39.37553916677982" lon="-5.976843069216075"><ele>2705</ele><speed>11.38</speed><time>2016-07-09T14:02:52Z</time><pdop>6.0</pdop><geoidheight>50.60</geoidheight><course>37.564808</course><type>1</type></trkpt>
      <trkpt lat="39.37571761121652" lon="-5.976688149625485"><ele>2706</ele><speed>12.09</speed><time>2016-07-09T14:02:54Z</time><pdop>6.0</pdop><geoidheight>50.60</geoidheight><course>32.505077</course><type>1</type></trkpt>
      <trkpt lat="39.375893855422085" lon="-5.976559449947315"><ele>2707</ele><speed>10.81</speed><time>2016-07-09T14:02:56Z</time><pdop>6.0</pdop><geoidheight>50.60</geoidheight><course>29.860722</course><type>1</type></trkpt>
      <trkpt lat="39.375975720191526" lon="-5.976500409344779"><ele>2707</ele><speed>10.43</speed><time>2016-07-09T14:02:57Z</time><pdop>4.0</pdop><geoidheight>50.60</geoidheight><course>30.688475</course><type>1</type></trkpt>
      <trkpt lat="39.37605934417995" lon="-5.976439383669927"><ele>2708</ele><speed>10.84</speed><time>2016-07-09T14:02:58Z</time><pdop>4.0</pdop><geoidheight>50.60</geoidheight><course>31.257853</course><type>1</type></trkpt>
      <trkpt lat="39.37614054333758" lon="-5.976376991047661"><ele>2708</ele><speed>12.10</speed><time>2016-07-09T14:02:59Z</time><pdop>4.0</pdop><geoidheight>50.60</geoidheight><course>32.065166</course><type>1</type></trkpt>
      <trkpt lat="39.37623069224305" lon="-5.976305603007265"><ele>2708</ele><speed>12.43</speed><time>2016-07-09T14:03:00Z</time><pdop>6.0</pdop><geoidheight>50.60</geoidheight><course>32.04241</course><type>1</type></trkpt>
      <trkpt lat="39.37639766599609" lon="-5.976175056818609"><ele>2709</ele><speed>9.84</speed><time>2016-07-09T14:03:02Z</time><pdop>6.0</pdop><geoidheight>50.60</geoidheight><course>32.000645</course><type>1</type></trkpt>
      <trkpt lat="39.37654938991889" lon="-5.976060690566465"><ele>2711</ele><speed>9.66</speed><time>2016-07-09T14:03:04Z</time><pdop>6.0</pdop><geoidheight>50.60</geoidheight><course>29.694185</course><type>1</type></trkpt>
      <trkpt lat="39.37670402498192" lon="-5.975951272103012"><ele>2713</ele><speed>10.20</speed><time>2016-07-09T14:03:06Z</time><pdop>6.0</pdop><geoidheight>50.60</geoidheight><course>30.650394</course><type>1</type></trkpt>
      <trkpt lat="39.37685249519161" lon="-5.975825480727263"><ele>2714</ele><speed>9.29</speed><time>2016-07-09T14:03:08Z</time><pdop>6.0</pdop><geoidheight>50.60</geoidheight><course>33.79663</course><type>1</type></trkpt>
      <trkpt lat="39.37699196999278" lon="-5.975696122763984"><ele>2716</ele><speed>8.73</speed><time>2016-07-09T14:03:10Z</time><pdop>6.0</pdop><geoidheight>50.60</geoidheight><course>34.11131</course><type>1</type></trkpt>
      <trkpt lat="39.37712873354906" lon="-5.975563331132426"><ele>2717</ele><speed>9.75</speed><time>2016-07-09T14:03:12Z</time><pdop>4.0</pdop><geoidheight>50.60</geoidheight><course>36.112137</course><type>1</type></trkpt>
      <trkpt lat="39.377201190956164" lon="-5.975487708319012"><ele>2718</ele><speed>10.47</speed><time>2016-07-09T14:03:13Z</time><pdop>4.0</pdop><geoidheight>50.60</geoidheight><course>37.337627</course><type>1</type></trkpt>
      <trkpt lat="39.3772736772557" lon="-5.975412780013283"><ele>2718</ele><speed>10.23</speed><time>2016-07-09T14:03:14Z</time><pdop>4.0</pdop><geoidheight>50.60</geoidheight><course>37.81034</course><type>1</type></trkpt>
      <trkpt lat="39.37734215966067" lon="-5.975341599714982"><ele>2718</ele><speed>9.44</speed><time>2016-07-09T14:03:15Z</time><pdop>4.0</pdop><geoidheight>50.60</geoidheight><course>37.906036</course><type>1</type></trkpt>
      <trkpt lat="39.37745648923335" lon="-5.975212283939515"><ele>2719</ele><speed>7.88</speed><time>2016-07-09T14:03:17Z</time><pdop>8.0</pdop><geoidheight>50.60</geoidheight><course>40.86646</course><type>1</type></trkpt>
      <trkpt lat="39.37764565355851" lon="-5.974998346944177"><ele>2720</ele><speed>10.23</speed><time>2016-07-09T14:03:20Z</time><pdop>8.0</pdop><geoidheight>50.60</geoidheight><course>38.70412</course><type>1</type></trkpt>
      <trkpt lat="39.377784269657155" lon="-5.974849348227771"><ele>2719</ele><speed>9.42</speed><time>2016-07-09T14:03:22Z</time><pdop>6.0</pdop><geoidheight>50.60</geoidheight><course>41.46444</course><type>1</type></trkpt>
      <trkpt lat="39.377897551371056" lon="-5.974708034596315"><ele>2717</ele><speed>9.28</speed><time>2016-07-09T14:03:24Z</time><pdop>6.0</pdop><geoidheight>50.60</geoidheight><course>44.372295</course><type>1</type></trkpt>
      <trkpt lat="39.37800683709163" lon="-5.974571161811527"><ele>2716</ele><speed>8.60</speed><time>2016-07-09T14:03:26Z</time><pdop>6.0</pdop><geoidheight>50.60</geoidheight><course>43.085022</course><type>1</type></trkpt>
      <trkpt lat="39.37811300256679" lon="-5.974449320771733"><ele>2715</ele><speed>8.32</speed><time>2016-07-09T14:03:28Z</time><pdop>6.0</pdop><geoidheight>50.60</geoidheight><course>42.250233</course><type>1</type></trkpt>
      <trkpt lat="39.37822055166139" lon="-5.974315097215982"><ele>2714</ele><speed>8.33</speed><time>2016-07-09T14:03:30Z</time><pdop>4.0</pdop><geoidheight>50.60</geoidheight><course>44.56</course><type>1</type></trkpt>
      <trkpt lat="39.378312692739286" lon="-5.97419143609336"><ele>2713</ele><speed>7.56</speed><time>2016-07-09T14:03:32Z</time><pdop>6.0</pdop><geoidheight>50.60</geoidheight><course>46.082478</course><type>1</type></trkpt>
      <trkpt lat="39.37840388606986" lon="-5.974048293151267"><ele>2711</ele><speed>8.51</speed><time>2016-07-09T14:03:34Z</time><pdop>8.0</pdop><geoidheight>50.60</geoidheight><course>50.4668</course><type>1</type></trkpt>
      <trkpt lat="39.37850305085172" lon="-5.9738777754795915"><ele>2710</ele><speed>8.96</speed><time>2016-07-09T14:03:36Z</time><pdop>8.0</pdop><geoidheight>50.60</geoidheight><course>51.503273</course><type>1</type></trkpt>
      <trkpt lat="39.378593374606446" lon="-5.973738403328822"><ele>2708</ele><speed>7.82</speed><time>2016-07-09T14:03:38Z</time><pdop>6.0</pdop><geoidheight>50.60</geoidheight><course>48.354866</course><type>1</type></trkpt>
      <trkpt lat="39.37869051140083" lon="-5.9735985036957775"><ele>2706</ele><speed>8.38</speed><time>2016-07-09T14:03:40Z</time><pdop>6.0</pdop><geoidheight>50.60</geoidheight><course>48.901867</course><type>1</type></trkpt>
      <trkpt lat="39.378788567242424" lon="-5.973439361612341"><ele>2703</ele><speed>9.34</speed><time>2016-07-09T14:03:42Z</time><pdop>4.0</pdop><geoidheight>50.60</geoidheight><course>51.692238</course><type>1</type></trkpt>
      <trkpt lat="39.37883555897793" lon="-5.973357817651068"><ele>2701</ele><speed>9.39</speed><time>2016-07-09T14:03:43Z</time><pdop>4.0</pdop><geoidheight>50.60</geoidheight><course>52.198204</course><type>1</type></trkpt>
      <trkpt lat="39.378931665125634" lon="-5.973179752879618"><ele>2698</ele><speed>9.58</speed><time>2016-07-09T14:03:45Z</time><pdop>6.0</pdop><geoidheight>50.60</geoidheight><course>54.565754</course><type>1</type></trkpt>
      <trkpt lat="39.3790286421009" lon="-5.9730078933251285"><ele>2695</ele><speed>9.62</speed><time>2016-07-09T14:03:47Z</time><pdop>6.0</pdop><geoidheight>50.60</geoidheight><course>51.70637</course><type>1</type></trkpt>
      <trkpt lat="39.37913850682988" lon="-5.972848641458474"><ele>2691</ele><speed>9.35</speed><time>2016-07-09T14:03:49Z</time><pdop>4.0</pdop><geoidheight>50.60</geoidheight><course>48.529</course><type>1</type></trkpt>
      <trkpt lat="39.379193012075724" lon="-5.972770764387124"><ele>2689</ele><speed>9.20</speed><time>2016-07-09T14:03:50Z</time><pdop>4.0</pdop><geoidheight>50.60</geoidheight><course>49.10262</course><type>1</type></trkpt>
      <trkpt lat="39.37924742421594" lon="-5.972690370552813"><ele>2687</ele><speed>9.28</speed><time>2016-07-09T14:03:51Z</time><pdop>4.0</pdop><geoidheight>50.60</geoidheight><course>50.02814</course><type>1</type></trkpt>
      <trkpt lat="39.37935175753705" lon="-5.972533474886791"><ele>2684</ele><speed>8.63</speed><time>2016-07-09T14:03:53Z</time><pdop>6.0</pdop><geoidheight>50.60</geoidheight><course>48.682213</course><type>1</type></trkpt>
      <trkpt lat="39.37945052589906" lon="-5.9724049385517475"><ele>2680</ele><speed>8.36</speed><time>2016-07-09T14:03:55Z</time><pdop>6.0</pdop><geoidheight>50.60</geoidheight><course>47.424194</course><type>1</type></trkpt>
      <trkpt lat="39.379539413733234" lon="-5.9722578783660545"><ele>2677</ele><speed>8.46</speed><time>2016-07-09T14:03:57Z</time><pdop>4.0</pdop><geoidheight>50.60</geoidheight><course>53.90453</course><type>1</type></trkpt>
      <trkpt lat="39.37961945748408" lon="-5.972114541284867"><ele>2674</ele><speed>7.46</speed><time>2016-07-09T14:03:59Z</time><pdop>8.0</pdop><geoidheight>50.60</geoidheight><course>52.4708</course><type>1</type></trkpt>
      <trkpt lat="39.37975415638786" lon="-5.97192127135095"><ele>2670</ele><speed>8.67</speed><time>2016-07-09T14:04:02Z</time><pdop>12.0</pdop><geoidheight>50.60</geoidheight><course>48.742054</course><type>1</type></trkpt>
      <trkpt lat="39.37991494935024" lon="-5.971713741898982"><ele>2666</ele><speed>9.06</speed><time>2016-07-09T14:04:05Z</time><pdop>12.0</pdop><geoidheight>50.60</geoidheight><course>43.303196</course><type>1</type></trkpt>
      <trkpt lat="39.38008580727465" lon="-5.971541621518404"><ele>2660</ele><speed>9.23</speed><time>2016-07-09T14:04:08Z</time><pdop>4.0</pdop><geoidheight>50.60</geoidheight><course>41.95053</course><type>1</type></trkpt>
      <trkpt lat="39.38020310471663" lon="-5.971407083051924"><ele>2655</ele><speed>8.98</speed><time>2016-07-09T14:04:10Z</time><pdop>4.0</pdop><geoidheight>50.60</geoidheight><course>44.10063</course><type>1</type></trkpt>
      <trkpt lat="39.38026026355053" lon="-5.971339915662363"><ele>2653</ele><speed>9.24</speed><time>2016-07-09T14:04:11Z</time><pdop>4.0</pdop><geoidheight>50.60</geoidheight><course>43.300022</course><type>1</type></trkpt>
      <trkpt lat="39.380320206830085" lon="-5.971279230959931"><ele>2651</ele><speed>9.03</speed><time>2016-07-09T14:04:12Z</time><pdop>4.0</pdop><geoidheight>50.60</geoidheight><course>40.26787</course><type>1</type></trkpt>
      <trkpt lat="39.38038521804051" lon="-5.971223952688508"><ele>2649</ele><speed>9.43</speed><time>2016-07-09T14:04:13Z</time><pdop>4.0</pdop><geoidheight>50.60</geoidheight><course>36.656036</course><type>1</type></trkpt>
      <trkpt lat="39.38045715380991" lon="-5.9711688180243785"><ele>2647</ele><speed>9.93</speed><time>2016-07-09T14:04:14Z</time><pdop>4.0</pdop><geoidheight>50.60</geoidheight><course>34.22671</course><type>1</type></trkpt>
      <trkpt lat="39.38052900333382" lon="-5.971115447529993"><ele>2645</ele><speed>9.68</speed><time>2016-07-09T14:04:15Z</time><pdop>4.0</pdop><geoidheight>50.60</geoidheight><course>33.007965</course><type>1</type></trkpt>
      <trkpt lat="39.38067873454352" lon="-5.971015709711572"><ele>2641</ele><speed>9.68</speed><time>2016-07-09T14:04:17Z</time><pdop>4.0</pdop><geoidheight>50.60</geoidheight><course>29.992382</course><type>1</type></trkpt>
      <trkpt lat="39.38075758278203" lon="-5.970968672078501"><ele>2639</ele><speed>10.05</speed><time>2016-07-09T14:04:18Z</time><pdop>4.0</pdop><geoidheight>50.60</geoidheight><course>28.27698</course><type>1</type></trkpt>
      <trkpt lat="39.380835985429094" lon="-5.970920857077858"><ele>2637</ele><speed>9.93</speed><time>2016-07-09T14:04:19Z</time><pdop>4.0</pdop><geoidheight>50.60</geoidheight><course>27.846596</course><type>1</type></trkpt>
      <trkpt lat="39.380909668067694" lon="-5.970871797999739"><ele>2635</ele><speed>8.84</speed><time>2016-07-09T14:04:20Z</time><pdop>4.0</pdop><geoidheight>50.60</geoidheight><course>29.852882</course><type>1</type></trkpt>
      <trkpt lat="39.380965602628166" lon="-5.970807913926768"><ele>2633</ele><speed>8.43</speed><time>2016-07-09T14:04:21Z</time><pdop>4.0</pdop><geoidheight>50.60</geoidheight><course>45.690445</course><type>1</type></trkpt>
      <trkpt lat="39.38101570087521" lon="-5.970739745224895"><ele>2631</ele><speed>8.74</speed><time>2016-07-09T14:04:22Z</time><pdop>4.0</pdop><geoidheight>50.60</geoidheight><course>48.632633</course><type>1</type></trkpt>
      <trkpt lat="39.38110380460841" lon="-5.970604006619432"><ele>2627</ele><speed>7.28</speed><time>2016-07-09T14:04:24Z</time><pdop>4.0</pdop><geoidheight>50.60</geoidheight><course>51.65496</course><type>1</type></trkpt>
      <trkpt lat="39.38118244127345" lon="-5.970476100386651"><ele>2623</ele><speed>7.84</speed><time>2016-07-09T14:04:26Z</time><pdop>6.0</pdop><geoidheight>50.60</geoidheight><course>52.604595</course><type>1</type></trkpt>
      <trkpt lat="39.38127523045589" lon="-5.970318619259642"><ele>2618</ele><speed>9.62</speed><time>2016-07-09T14:04:27Z</time><pdop>4.0</pdop><geoidheight>50.60</geoidheight><course>52.56357</course><type>1</type></trkpt>
      <trkpt lat="39.38136714828575" lon="-5.970155827109298"><ele>2615</ele><speed>8.45</speed><time>2016-07-09T14:04:30Z</time><pdop>6.0</pdop><geoidheight>50.60</geoidheight><course>53.985588</course><type>1</type></trkpt>
      <trkpt lat="39.38146212923576" lon="-5.969992204112506"><ele>2611</ele><speed>9.96</speed><time>2016-07-09T14:04:32Z</time><pdop>6.0</pdop><geoidheight>50.60</geoidheight><course>52.059097</course><type>1</type></trkpt>
      <trkpt lat="39.381581592044306" lon="-5.969800329151129"><ele>2607</ele><speed>11.13</speed><time>2016-07-09T14:04:34Z</time><pdop>8.0</pdop><geoidheight>50.60</geoidheight><course>52.668118</course><type>1</type></trkpt>
      <trkpt lat="39.38168816858713" lon="-5.969627939530479"><ele>2603</ele><speed>9.12</speed><time>2016-07-09T14:04:36Z</time><pdop>8.0</pdop><geoidheight>50.60</geoidheight><course>51.39851</course><type>1</type></trkpt>
      <trkpt lat="39.38178031912873" lon="-5.969476438330959"><ele>2600</ele><speed>7.84</speed><time>2016-07-09T14:04:38Z</time><pdop>8.0</pdop><geoidheight>50.60</geoidheight><course>52.176876</course><type>1</type></trkpt>
      <trkpt lat="39.38185893600712" lon="-5.9692935011951445"><ele>2596</ele><speed>9.29</speed><time>2016-07-09T14:04:40Z</time><pdop>6.0</pdop><geoidheight>50.60</geoidheight><course>68.88777</course><type>1</type></trkpt>
      <trkpt lat="39.38192147458619" lon="-5.9690479312319376"><ele>2591</ele><speed>12.00</speed><time>2016-07-09T14:04:42Z</time><pdop>6.0</pdop><geoidheight>50.60</geoidheight><course>72.38132</course><type>1</type></trkpt>
      <trkpt lat="39.3819754382804" lon="-5.9688530751596565"><ele>2586</ele><speed>8.68</speed><time>2016-07-09T14:04:44Z</time><pdop>6.0</pdop><geoidheight>50.60</geoidheight><course>68.58616</course><type>1</type></trkpt>
      <trkpt lat="39.38204821166906" lon="-5.968676104850175"><ele>2583</ele><speed>9.78</speed><time>2016-07-09T14:04:46Z</time><pdop>8.0</pdop><geoidheight>50.60</geoidheight><course>64.96058</course><type>1</type></trkpt>
      <trkpt lat="39.38212679715181" lon="-5.968499127549361"><ele>2579</ele><speed>10.68</speed><time>2016-07-09T14:04:48Z</time><pdop>6.0</pdop><geoidheight>50.60</geoidheight><course>63.78673</course><type>1</type></trkpt>
      <trkpt lat="39.382219621161624" lon="-5.968294544441977"><ele>2574</ele><speed>10.77</speed><time>2016-07-09T14:04:50Z</time><pdop>6.0</pdop><geoidheight>50.60</geoidheight><course>61.162514</course><type>1</type></trkpt>
      <trkpt lat="39.382300481869564" lon="-5.968113908030708"><ele>2569</ele><speed>8.39</speed><time>2016-07-09T14:04:52Z</time><pdop>6.0</pdop><geoidheight>50.60</geoidheight><course>62.453342</course><type>1</type></trkpt>
      <trkpt lat="39.38237763994329" lon="-5.967925120301097"><ele>2565</ele><speed>10.79</speed><time>2016-07-09T14:04:54Z</time><pdop>6.0</pdop><geoidheight>50.60</geoidheight><course>62.20684</course><type>1</type></trkpt>
      <trkpt lat="39.382463290611966" lon="-5.967712689161373"><ele>2560</ele><speed>11.64</speed><time>2016-07-09T14:04:55Z</time><pdop>6.0</pdop><geoidheight>50.60</geoidheight><course>63.720753</course><type>1</type></trkpt>
      <trkpt lat="39.38254282033627" lon="-5.967486659972097"><ele>2556</ele><speed>9.78</speed><time>2016-07-09T14:04:58Z</time><pdop>6.0</pdop><geoidheight>50.60</geoidheight><course>66.40419</course><type>1</type></trkpt>
      <trkpt lat="39.38262150253511" lon="-5.967277290845423"><ele>2553</ele><speed>9.41</speed><time>2016-07-09T14:05:00Z</time><pdop>6.0</pdop><geoidheight>50.60</geoidheight><course>63.31034</course><type>1</type></trkpt>
      <trkpt lat="39.38270073789695" lon="-5.96708025123719"><ele>2550</ele><speed>9.97</speed><time>2016-07-09T14:05:02Z</time><pdop>12.0</pdop><geoidheight>50.60</geoidheight><course>65.90592</course><type>1</type></trkpt>
      <trkpt lat="39.382767435406166" lon="-5.966887066829409"><ele>2546</ele><speed>10.53</speed><time>2016-07-09T14:05:04Z</time><pdop>6.0</pdop><geoidheight>50.60</geoidheight><course>64.43482</course><type>1</type></trkpt>
      <trkpt lat="39.38284627935753" lon="-5.9667103418529654"><ele>2541</ele><speed>9.47</speed><time>2016-07-09T14:05:06Z</time><pdop>6.0</pdop><geoidheight>50.60</geoidheight><course>59.59151</course><type>1</type></trkpt>
      <trkpt lat="39.38293057302524" lon="-5.966532531543196"><ele>2536</ele><speed>9.69</speed><time>2016-07-09T14:05:08Z</time><pdop>4.0</pdop><geoidheight>50.60</geoidheight><course>60.26881</course><type>1</type></trkpt>
      <trkpt lat="39.3830284845363" lon="-5.966336448763361"><ele>2531</ele><speed>9.82</speed><time>2016-07-09T14:05:10Z</time><pdop>8.0</pdop><geoidheight>50.60</geoidheight><course>57.268463</course><type>1</type></trkpt>
      <trkpt lat="39.38312884227074" lon="-5.966170216553318"><ele>2526</ele><speed>8.27</speed><time>2016-07-09T14:05:12Z</time><pdop>8.0</pdop><geoidheight>50.60</geoidheight><course>53.690258</course><type>1</type></trkpt>
      <trkpt lat="39.38325487642844" lon="-5.965965739400091"><ele>2518</ele><speed>8.66</speed><time>2016-07-09T14:05:15Z</time><pdop>8.0</pdop><geoidheight>50.60</geoidheight><course>56.059444</course><type>1</type></trkpt>
      <trkpt lat="39.38335656051049" lon="-5.9657824087471125"><ele>2510</ele><speed>10.92</speed><time>2016-07-09T14:05:16Z</time><pdop>6.0</pdop><geoidheight>50.60</geoidheight><course>54.37147</course><type>1</type></trkpt>
      <trkpt lat="39.38347411231967" lon="-5.965615878330306"><ele>2502</ele><speed>9.78</speed><time>2016-07-09T14:05:19Z</time><pdop>8.0</pdop><geoidheight>50.60</geoidheight><course>50.493614</course><type>1</type></trkpt>
      <trkpt lat="39.383572402955835" lon="-5.965509330574969"><ele>2495</ele><speed>9.21</speed><time>2016-07-09T14:05:21Z</time><pdop>6.0</pdop><geoidheight>50.60</geoidheight><course>49.56808</course><type>1</type></trkpt>
      <trkpt lat="39.38368604025059" lon="-5.965370124636963"><ele>2488</ele><speed>9.29</speed><time>2016-07-09T14:05:23Z</time><pdop>6.0</pdop><geoidheight>50.60</geoidheight><course>50.20355</course><type>1</type></trkpt>
      <trkpt lat="39.383792924675234" lon="-5.965254504991259"><ele>2481</ele><speed>9.21</speed><time>2016-07-09T14:05:25Z</time><pdop>6.0</pdop><geoidheight>50.60</geoidheight><course>47.18508</course><type>1</type></trkpt>
      <trkpt lat="39.38389625808343" lon="-5.96514359614058"><ele>2475</ele><speed>8.36</speed><time>2016-07-09T14:05:27Z</time><pdop>6.0</pdop><geoidheight>50.60</geoidheight><course>47.833637</course><type>1</type></trkpt>
      <trkpt lat="39.38399412949687" lon="-5.965017002510247"><ele>2468</ele><speed>8.52</speed><time>2016-07-09T14:05:28Z</time><pdop>8.0</pdop><geoidheight>50.60</geoidheight><course>48.431038</course><type>1</type></trkpt>
      <trkpt lat="39.384097892862165" lon="-5.964874525368966"><ele>2460</ele><speed>10.50</speed><time>2016-07-09T14:05:31Z</time><pdop>8.0</pdop><geoidheight>50.60</geoidheight><course>47.192257</course><type>1</type></trkpt>
      <trkpt lat="39.384208208563386" lon="-5.964723014100294"><ele>2452</ele><speed>9.92</speed><time>2016-07-09T14:05:33Z</time><pdop>6.0</pdop><geoidheight>50.60</geoidheight><course>51.80535</course><type>1</type></trkpt>
      <trkpt lat="39.3843052883029" lon="-5.964547593964277"><ele>2445</ele><speed>10.28</speed><time>2016-07-09T14:05:35Z</time><pdop>6.0</pdop><geoidheight>50.60</geoidheight><course>57.613537</course><type>1</type></trkpt>
      <trkpt lat="39.3844152603584" lon="-5.964345877430059"><ele>2437</ele><speed>10.84</speed><time>2016-07-09T14:05:37Z</time><pdop>6.0</pdop><geoidheight>50.60</geoidheight><course>55.87829</course><type>1</type></trkpt>
      <trkpt lat="39.38451513956264" lon="-5.9641548410651675"><ele>2432</ele><speed>8.93</speed><time>2016-07-09T14:05:39Z</time><pdop>6.0</pdop><geoidheight>50.60</geoidheight><course>59.383247</course><type>1</type></trkpt>
      <trkpt lat="39.3845931317039" lon="-5.963970062086306"><ele>2429</ele><speed>8.95</speed><time>2016-07-09T14:05:41Z</time><pdop>4.0</pdop><geoidheight>50.60</geoidheight><course>60.39605</course><type>1</type></trkpt>
      <trkpt lat="39.38463428198195" lon="-5.963880546198622"><ele>2427</ele><speed>10.16</speed><time>2016-07-09T14:05:42Z</time><pdop>4.0</pdop><geoidheight>50.60</geoidheight><course>58.568455</course><type>1</type></trkpt>
      <trkpt lat="39.38468023583514" lon="-5.963791203419997"><ele>2425</ele><speed>10.55</speed><time>2016-07-09T14:05:43Z</time><pdop>4.0</pdop><geoidheight>50.60</geoidheight><course>56.969776</course><type>1</type></trkpt>
      <trkpt lat="39.38473087001438" lon="-5.963694520367745"><ele>2423</ele><speed>10.44</speed><time>2016-07-09T14:05:44Z</time><pdop>4.0</pdop><geoidheight>50.60</geoidheight><course>56.583424</course><type>1</type></trkpt>
      <trkpt lat="39.384824079576134" lon="-5.963522230698028"><ele>2419</ele><speed>8.58</speed><time>2016-07-09T14:05:46Z</time><pdop>6.0</pdop><geoidheight>50.60</geoidheight><course>55.435562</course><type>1</type></trkpt>
      <trkpt lat="39.38491845636341" lon="-5.963384928135776"><ele>2416</ele><speed>8.98</speed><time>2016-07-09T14:05:48Z</time><pdop>6.0</pdop><geoidheight>50.60</geoidheight><course>49.92649</course><type>1</type></trkpt>
      <trkpt lat="39.38502490908693" lon="-5.963255903996223"><ele>2411</ele><speed>8.93</speed><time>2016-07-09T14:05:50Z</time><pdop>8.0</pdop><geoidheight>50.60</geoidheight><course>46.71156</course><type>1</type></trkpt>
      <trkpt lat="39.38513860233123" lon="-5.963117936792191"><ele>2407</ele><speed>9.18</speed><time>2016-07-09T14:05:51Z</time><pdop>4.0</pdop><geoidheight>50.60</geoidheight><course>45.39487</course><type>1</type></trkpt>
      <trkpt lat="39.38520017016751" lon="-5.963047334941946"><ele>2404</ele><speed>9.17</speed><time>2016-07-09T14:05:52Z</time><pdop>4.0</pdop><geoidheight>50.60</geoidheight><course>44.086487</course><type>1</type></trkpt>
      <trkpt lat="39.38533060248624" lon="-5.962914584376512"><ele>2399</ele><speed>9.19</speed><time>2016-07-09T14:05:55Z</time><pdop>6.0</pdop><geoidheight>50.60</geoidheight><course>40.794403</course><type>1</type></trkpt>
      <trkpt lat="39.38546959137713" lon="-5.962776034409002"><ele>2395</ele><speed>9.04</speed><time>2016-07-09T14:05:57Z</time><pdop>6.0</pdop><geoidheight>50.60</geoidheight><course>39.968815</course><type>1</type></trkpt>
      <trkpt lat="39.385613727647254" lon="-5.962641449488069"><ele>2391</ele><speed>9.99</speed><time>2016-07-09T14:05:59Z</time><pdop>4.0</pdop><geoidheight>50.60</geoidheight><course>37.283665</course><type>1</type></trkpt>
      <trkpt lat="39.38568615895866" lon="-5.962575920638149"><ele>2388</ele><speed>10.79</speed><time>2016-07-09T14:06:00Z</time><pdop>4.0</pdop><geoidheight>50.60</geoidheight><course>36.283604</course><type>1</type></trkpt>
      <trkpt lat="39.38576607671577" lon="-5.962502760612844"><ele>2385</ele><speed>11.39</speed><time>2016-07-09T14:06:01Z</time><pdop>4.0</pdop><geoidheight>50.60</geoidheight><course>36.63762</course><type>1</type></trkpt>
      <trkpt lat="39.38585061887634" lon="-5.962423297651549"><ele>2382</ele><speed>12.38</speed><time>2016-07-09T14:06:01Z</time><pdop>6.0</pdop><geoidheight>50.60</geoidheight><course>37.056213</course><type>1</type></trkpt>
      <trkpt lat="39.38601151582341" lon="-5.962269507026271"><ele>2377</ele><speed>11.27</speed><time>2016-07-09T14:06:04Z</time><pdop>6.0</pdop><geoidheight>50.60</geoidheight><course>35.775455</course><type>1</type></trkpt>
      <trkpt lat="39.38616531056677" lon="-5.962126617885363"><ele>2373</ele><speed>10.17</speed><time>2016-07-09T14:06:06Z</time><pdop>6.0</pdop><geoidheight>50.60</geoidheight><course>37.934883</course><type>1</type></trkpt>
      <trkpt lat="39.386322150333186" lon="-5.961976437682642"><ele>2369</ele><speed>10.26</speed><time>2016-07-09T14:06:08Z</time><pdop>6.0</pdop><geoidheight>50.60</geoidheight><course>37.931713</course><type>1</type></trkpt>
      <trkpt lat="39.38645814019716" lon="-5.9618311597709415"><ele>2365</ele><speed>10.60</speed><time>2016-07-09T14:06:09Z</time><pdop>6.0</pdop><geoidheight>50.60</geoidheight><course>41.411354</course><type>1</type></trkpt>
      <trkpt lat="39.386591332326155" lon="-5.961646483006279"><ele>2360</ele><speed>10.74</speed><time>2016-07-09T14:06:12Z</time><pdop>6.0</pdop><geoidheight>50.60</geoidheight><course>46.029057</course><type>1</type></trkpt>
      <trkpt lat="39.38673377753772" lon="-5.961458524431523"><ele>2355</ele><speed>11.21</speed><time>2016-07-09T14:06:14Z</time><pdop>6.0</pdop><geoidheight>50.60</geoidheight><course>41.611973</course><type>1</type></trkpt>
      <trkpt lat="39.386869473159635" lon="-5.961292389480862"><ele>2351</ele><speed>10.79</speed><time>2016-07-09T14:06:16Z</time><pdop>6.0</pdop><geoidheight>50.60</geoidheight><course>45.276737</course><type>1</type></trkpt>
      <trkpt lat="39.38699193752304" lon="-5.961095197669128"><ele>2346</ele><speed>11.78</speed><time>2016-07-09T14:06:18Z</time><pdop>6.0</pdop><geoidheight>50.60</geoidheight><course>50.64734</course><type>1</type></trkpt>
      <trkpt lat="39.38711551066771" lon="-5.960883002205339"><ele>2341</ele><speed>11.59</speed><time>2016-07-09T14:06:20Z</time><pdop>8.0</pdop><geoidheight>50.60</geoidheight><course>53.005024</course><type>1</type></trkpt>
      <trkpt lat="39.38721527016898" lon="-5.96068219496572"><ele>2337</ele><speed>10.86</speed><time>2016-07-09T14:06:21Z</time><pdop>8.0</pdop><geoidheight>50.60</geoidheight><course>56.21134</course><type>1</type></trkpt>
      <trkpt lat="39.38732467517551" lon="-5.960472070984669"><ele>2333</ele><speed>10.50</speed><time>2016-07-09T14:06:24Z</time><pdop>8.0</pdop><geoidheight>50.60</geoidheight><course>56.180737</course><type>1</type></trkpt>
      <trkpt lat="39.38739735899561" lon="-5.960302209374992"><ele>2331</ele><speed>7.88</speed><time>2016-07-09T14:06:26Z</time><pdop>8.0</pdop><geoidheight>50.60</geoidheight><course>62.27425</course><type>1</type></trkpt>
      <trkpt lat="39.38747433187257" lon="-5.960089074628871"><ele>2328</ele><speed>8.39</speed><time>2016-07-09T14:06:29Z</time><pdop>8.0</pdop><geoidheight>50.60</geoidheight><course>64.59584</course><type>1</type></trkpt>
      <trkpt lat="39.387532219578" lon="-5.959942265402239"><ele>2324</ele><speed>7.13</speed><time>2016-07-09T14:06:31Z</time><pdop>6.0</pdop><geoidheight>50.60</geoidheight><course>64.711624</course><type>1</type></trkpt>
      <trkpt lat="39.38758437464239" lon="-5.959803770546265"><ele>2318</ele><speed>4.66</speed><time>2016-07-09T14:06:34Z</time><pdop>6.0</pdop><geoidheight>50.60</geoidheight><course>64.952156</course><type>1</type></trkpt>
      <trkpt lat="39.38763191626728" lon="-5.959670511601026"><ele>2312</ele><speed>8.47</speed><time>2016-07-09T14:06:36Z</time><pdop>6.0</pdop><geoidheight>50.60</geoidheight><course>65.16077</course><type>1</type></trkpt>
      <trkpt lat="39.38770606560154" lon="-5.959473549653673"><ele>2302</ele><speed>6.42</speed><time>2016-07-09T14:06:39Z</time><pdop>8.0</pdop><geoidheight>50.60</geoidheight><course>68.083084</course><type>1</type></trkpt>
      <trkpt lat="39.38774158617463" lon="-5.959322650926872"><ele>2296</ele><speed>8.75</speed><time>2016-07-09T14:06:40Z</time><pdop>4.0</pdop><geoidheight>50.60</geoidheight><course>72.04937</course><type>1</type></trkpt>
      <trkpt lat="39.3877989466943" lon="-5.95912507339063"><ele>2291</ele><speed>8.85</speed><time>2016-07-09T14:06:43Z</time><pdop>8.0</pdop><geoidheight>50.60</geoidheight><course>69.36621</course><type>1</type></trkpt>
      <trkpt lat="39.3878501470059" lon="-5.958948787161515"><ele>2286</ele><speed>7.85</speed><time>2016-07-09T14:06:45Z</time><pdop>8.0</pdop><geoidheight>50.60</geoidheight><course>72.16612</course><type>1</type></trkpt>
      <trkpt lat="39.387889608165494" lon="-5.95878960226018"><ele>2282</ele><speed>9.17</speed><time>2016-07-09T14:06:47Z</time><pdop>6.0</pdop><geoidheight>50.60</geoidheight><course>71.77334</course><type>1</type></trkpt>
      <trkpt lat="39.38794465648521" lon="-5.9586137670800925"><ele>2276</ele><speed>9.40</speed><time>2016-07-09T14:06:49Z</time><pdop>6.0</pdop><geoidheight>50.60</geoidheight><course>68.42794</course><type>1</type></trkpt>
      <trkpt lat="39.38801803337343" lon="-5.958404543327077"><ele>2269</ele><speed>6.93</speed><time>2016-07-09T14:06:51Z</time><pdop>6.0</pdop><geoidheight>50.60</geoidheight><course>64.287415</course><type>1</type></trkpt>
      <trkpt lat="39.38811323217376" lon="-5.95827217839715"><ele>2265</ele><speed>8.95</speed><time>2016-07-09T14:06:54Z</time><pdop>6.0</pdop><geoidheight>50.60</geoidheight><course>47.235832</course><type>1</type></trkpt>
      <trkpt lat="39.388196227519" lon="-5.958113425151117"><ele>2261</ele><speed>8.40</speed><time>2016-07-09T14:06:56Z</time><pdop>6.0</pdop><geoidheight>50.60</geoidheight><course>65.514824</course><type>1</type></trkpt>
      <trkpt lat="39.38825518650426" lon="-5.95795499074831"><ele>2258</ele><speed>7.43</speed><time>2016-07-09T14:06:58Z</time><pdop>8.0</pdop><geoidheight>50.60</geoidheight><course>66.05971</course><type>1</type></trkpt>
      <trkpt lat="39.38831817425796" lon="-5.957795467333247"><ele>2254</ele><speed>9.40</speed><time>2016-07-09T14:07:00Z</time><pdop>4.0</pdop><geoidheight>50.60</geoidheight><course>63.486916</course><type>1</type></trkpt>
      <trkpt lat="39.38839371400673" lon="-5.957593334826131"><ele>2250</ele><speed>9.73</speed><time>2016-07-09T14:07:02Z</time><pdop>6.0</pdop><geoidheight>50.60</geoidheight><course>65.4002</course><type>1</type></trkpt>
      <trkpt lat="39.388474078997135" lon="-5.957438556690294"><ele>2247</ele><speed>7.67</speed><time>2016-07-09T14:07:04Z</time><pdop>6.0</pdop><geoidheight>50.60</geoidheight><course>44.69251</course><type>1</type></trkpt>
      <trkpt lat="39.38856560088928" lon="-5.957310143503812"><ele>2244</ele><speed>7.71</speed><time>2016-07-09T14:07:06Z</time><pdop>4.0</pdop><geoidheight>50.60</geoidheight><course>46.708435</course><type>1</type></trkpt>
      <trkpt lat="39.388622371906294" lon="-5.9571687389634445"><ele>2240</ele><speed>6.65</speed><time>2016-07-09T14:07:08Z</time><pdop>4.0</pdop><geoidheight>50.60</geoidheight><course>64.449196</course><type>1</type></trkpt>
      <trkpt lat="39.38868657367018" lon="-5.957035106299273"><ele>2235</ele><speed>8.96</speed><time>2016-07-09T14:07:10Z</time><pdop>8.0</pdop><geoidheight>50.60</geoidheight><course>57.844208</course><type>1</type></trkpt>
      <trkpt lat="39.3887749970495" lon="-5.956874853486842"><ele>2231</ele><speed>9.24</speed><time>2016-07-09T14:07:12Z</time><pdop>6.0</pdop><geoidheight>50.60</geoidheight><course>57.072872</course><type>1</type></trkpt>
      <trkpt lat="39.38879786120648" lon="-5.9567265975650505"><ele>2227</ele><speed>6.53</speed><time>2016-07-09T14:07:14Z</time><pdop>6.0</pdop><geoidheight>50.60</geoidheight><course>91.71814</course><type>1</type></trkpt>
      <trkpt lat="39.388759670989465" lon="-5.9564928956131595"><ele>2224</ele><speed>8.97</speed><time>2016-07-09T14:07:17Z</time><pdop>8.0</pdop><geoidheight>50.60</geoidheight><course>105.19172</course><type>1</type></trkpt>
      <trkpt lat="39.388721929375166" lon="-5.956230056139115"><ele>2222</ele><speed>13.79</speed><time>2016-07-09T14:07:19Z</time><pdop>12.0</pdop><geoidheight>50.60</geoidheight><course>101.31409</course><type>1</type></trkpt>
      <trkpt lat="39.38869412860593" lon="-5.955928654096224"><ele>2219</ele><speed>10.94</speed><time>2016-07-09T14:07:20Z</time><pdop>8.0</pdop><geoidheight>50.60</geoidheight><course>100.01411</course><type>1</type></trkpt>
      <trkpt lat="39.38866545508319" lon="-5.9557310714037195"><ele>2217</ele><speed>7.78</speed><time>2016-07-09T14:07:23Z</time><pdop>8.0</pdop><geoidheight>50.60</geoidheight><course>105.03991</course><type>1</type></trkpt>
      <trkpt lat="39.38862851832917" lon="-5.9554471286898805"><ele>2213</ele><speed>10.50</speed><time>2016-07-09T14:07:26Z</time><pdop>8.0</pdop><geoidheight>50.60</geoidheight><course>101.38624</course><type>1</type></trkpt>
      <trkpt lat="39.38861193749384" lon="-5.955214873584293"><ele>2212</ele><speed>9.54</speed><time>2016-07-09T14:07:27Z</time><pdop>8.0</pdop><geoidheight>50.60</geoidheight><course>93.71208</course><type>1</type></trkpt>
      <trkpt lat="39.3885968719931" lon="-5.954972819288737"><ele>2215</ele><speed>5.75</speed><time>2016-07-09T14:07:32Z</time><pdop>8.0</pdop><geoidheight>50.60</geoidheight><course>116.39617</course><type>1</type></trkpt>
      <trkpt lat="39.388546574963414" lon="-5.954727818249973"><ele>2218</ele><speed>7.83</speed><time>2016-07-09T14:07:35Z</time><pdop>8.0</pdop><geoidheight>50.60</geoidheight><course>105.98177</course><type>1</type></trkpt>
      <trkpt lat="39.38852689309938" lon="-5.954566716154564"><ele>2220</ele><speed>6.10</speed><time>2016-07-09T14:07:37Z</time><pdop>6.0</pdop><geoidheight>50.60</geoidheight><course>106.47356</course><type>1</type></trkpt>
      <trkpt lat="39.38849182269189" lon="-5.954400290170109"><ele>2223</ele><speed>6.98</speed><time>2016-07-09T14:07:39Z</time><pdop>6.0</pdop><geoidheight>50.60</geoidheight><course>110.03807</course><type>1</type></trkpt>
      <trkpt lat="39.38843763696925" lon="-5.954197935084961"><ele>2227</ele><speed>9.13</speed><time>2016-07-09T14:07:41Z</time><pdop>8.0</pdop><geoidheight>50.60</geoidheight><course>111.28352</course><type>1</type></trkpt>
      <trkpt lat="39.38837994020194" lon="-5.9540012093959405"><ele>2230</ele><speed>8.24</speed><time>2016-07-09T14:07:43Z</time><pdop>8.0</pdop><geoidheight>50.60</geoidheight><course>111.90343</course><type>1</type></trkpt>
      <trkpt lat="39.38828429743537" lon="-5.953763901255544"><ele>2236</ele><speed>7.10</speed><time>2016-07-09T14:07:46Z</time><pdop>8.0</pdop><geoidheight>50.60</geoidheight><course>120.57813</course><type>1</type></trkpt>
      <trkpt lat="39.38821146612983" lon="-5.953597979246024"><ele>2239</ele><speed>8.14</speed><time>2016-07-09T14:07:48Z</time><pdop>8.0</pdop><geoidheight>50.60</geoidheight><course>119.0121</course><type>1</type></trkpt>
      <trkpt lat="39.38815092510687" lon="-5.953426675610859"><ele>2242</ele><speed>7.89</speed><time>2016-07-09T14:07:50Z</time><pdop>6.0</pdop><geoidheight>50.60</geoidheight><course>115.035995</course><type>1</type></trkpt>
      <trkpt lat="39.38810470083429" lon="-5.953282797006971"><ele>2244</ele><speed>6.78</speed><time>2016-07-09T14:07:52Z</time><pdop>6.0</pdop><geoidheight>50.60</geoidheight><course>115.396385</course><type>1</type></trkpt>
      <trkpt lat="39.38804582378618" lon="-5.953115535423551"><ele>2245</ele><speed>7.50</speed><time>2016-07-09T14:07:54Z</time><pdop>8.0</pdop><geoidheight>50.60</geoidheight><course>114.72462</course><type>1</type></trkpt>
      <trkpt lat="39.38799842638332" lon="-5.952938789195595"><ele>2247</ele><speed>7.34</speed><time>2016-07-09T14:07:56Z</time><pdop>8.0</pdop><geoidheight>50.60</geoidheight><course>110.04811</course><type>1</type></trkpt>
      <trkpt lat="39.38796346184295" lon="-5.952756526784636"><ele>2248</ele><speed>8.08</speed><time>2016-07-09T14:07:58Z</time><pdop>8.0</pdop><geoidheight>50.60</geoidheight><course>105.65677</course><type>1</type></trkpt>
      <trkpt lat="39.387937171757926" lon="-5.952498389170796"><ele>2254</ele><speed>6.78</speed><time>2016-07-09T14:08:01Z</time><pdop>8.0</pdop><geoidheight>50.60</geoidheight><course>99.08801</course><type>1</type></trkpt>
      <trkpt lat="39.38792966574537" lon="-5.952226951178852"><ele>2260</ele><speed>8.11</speed><time>2016-07-09T14:08:04Z</time><pdop>8.0</pdop><geoidheight>50.60</geoidheight><course>93.6962</course><type>1</type></trkpt>
      <trkpt lat="39.387919492907" lon="-5.951994454675261"><ele>2266</ele><speed>5.75</speed><time>2016-07-09T14:08:06Z</time><pdop>8.0</pdop><geoidheight>50.60</geoidheight><course>96.61231</course><type>1</type></trkpt>
      <trkpt lat="39.38788939946722" lon="-5.951760383511917"><ele>2271</ele><speed>7.96</speed><time>2016-07-09T14:08:09Z</time><pdop>12.0</pdop><geoidheight>50.60</geoidheight><course>116.55124</course><type>1</type></trkpt>
      <trkpt lat="39.387796810630725" lon="-5.951514088474684"><ele>2280</ele><speed>7.23</speed><time>2016-07-09T14:08:14Z</time><pdop>8.0</pdop><geoidheight>50.60</geoidheight><course>108.54176</course><type>1</type></trkpt>
      <trkpt lat="39.38772704943967" lon="-5.9513363348818995"><ele>2286</ele><speed>7.13</speed><time>2016-07-09T14:08:16Z</time><pdop>8.0</pdop><geoidheight>50.60</geoidheight><course>129.2452</course><type>1</type></trkpt>
      <trkpt lat="39.387641669899544" lon="-5.951202523040695"><ele>2294</ele><speed>7.28</speed><time>2016-07-09T14:08:18Z</time><pdop>6.0</pdop><geoidheight>50.60</geoidheight><course>135.76291</course><type>1</type></trkpt>
      <trkpt lat="39.38753741773887" lon="-5.951047791889907"><ele>2301</ele><speed>8.15</speed><time>2016-07-09T14:08:20Z</time><pdop>6.0</pdop><geoidheight>50.60</geoidheight><course>132.1828</course><type>1</type></trkpt>
      <trkpt lat="39.38745546828678" lon="-5.950889881054728"><ele>2309</ele><speed>7.22</speed><time>2016-07-09T14:08:22Z</time><pdop>4.0</pdop><geoidheight>50.60</geoidheight><course>127.87335</course><type>1</type></trkpt>
      <trkpt lat="39.38737739231855" lon="-5.950746441281381"><ele>2317</ele><speed>6.86</speed><time>2016-07-09T14:08:24Z</time><pdop>6.0</pdop><geoidheight>50.60</geoidheight><course>130.00754</course><type>1</type></trkpt>
      <trkpt lat="39.38725825252091" lon="-5.950640113600838"><ele>2324</ele><speed>9.39</speed><time>2016-07-09T14:08:26Z</time><pdop>6.0</pdop><geoidheight>50.60</geoidheight><course>159.98788</course><type>1</type></trkpt>
      <trkpt lat="39.38707479378905" lon="-5.9506996483623675"><ele>2330</ele><speed>13.14</speed><time>2016-07-09T14:08:28Z</time><pdop>8.0</pdop><geoidheight>50.60</geoidheight><course>201.57118</course><type>1</type></trkpt>
      <trkpt lat="39.38698190674091" lon="-5.950942708431033"><ele>2333</ele><speed>11.95</speed><time>2016-07-09T14:08:30Z</time><pdop>12.0</pdop><geoidheight>50.60</geoidheight><course>265.0584</course><type>1</type></trkpt>
      <trkpt lat="39.38703789718025" lon="-5.9512921447807585"><ele>2336</ele><speed>9.22</speed><time>2016-07-09T14:08:33Z</time><pdop>12.0</pdop><geoidheight>50.60</geoidheight><course>294.30014</course><type>1</type></trkpt>
      <trkpt lat="39.387151802034786" lon="-5.951490421179905"><ele>2340</ele><speed>10.31</speed><time>2016-07-09T14:08:35Z</time><pdop>8.0</pdop><geoidheight>50.60</geoidheight><course>318.62265</course><type>1</type></trkpt>
      <trkpt lat="39.38736370802931" lon="-5.951404323682785"><ele>2351</ele><speed>4.82</speed><time>2016-07-09T14:08:39Z</time><pdop>16.0</pdop><geoidheight>50.60</geoidheight><course>68.54766</course><type>1</type></trkpt>
      <trkpt lat="39.387461389930586" lon="-5.951131684899128"><ele>2365</ele><speed>4.86</speed><time>2016-07-09T14:08:44Z</time><pdop>8.0</pdop><geoidheight>50.60</geoidheight><course>91.464165</course><type>1</type></trkpt>
      <trkpt lat="39.387463004411615" lon="-5.950904531089112"><ele>2378</ele><speed>6.24</speed><time>2016-07-09T14:08:48Z</time><pdop>8.0</pdop><geoidheight>50.60</geoidheight><course>92.74936</course><type>1</type></trkpt>
      <trkpt lat="39.387471311104136" lon="-5.950710053982528"><ele>2385</ele><speed>8.91</speed><time>2016-07-09T14:08:50Z</time><pdop>8.0</pdop><geoidheight>50.60</geoidheight><course>90.98069</course><type>1</type></trkpt>
      <trkpt lat="39.387447872488686" lon="-5.950480410022573"><ele>2392</ele><speed>9.17</speed><time>2016-07-09T14:08:52Z</time><pdop>8.0</pdop><geoidheight>50.60</geoidheight><course>108.63022</course><type>1</type></trkpt>
      <trkpt lat="39.38740602010163" lon="-5.9502702512005445"><ele>2399</ele><speed>8.15</speed><time>2016-07-09T14:08:54Z</time><pdop>8.0</pdop><geoidheight>50.60</geoidheight><course>107.814705</course><type>1</type></trkpt>
      <trkpt lat="39.387362887021595" lon="-5.950054200874546"><ele>2405</ele><speed>9.16</speed><time>2016-07-09T14:08:56Z</time><pdop>6.0</pdop><geoidheight>50.60</geoidheight><course>106.33517</course><type>1</type></trkpt>
      <trkpt lat="39.387329985293725" lon="-5.949846184688413"><ele>2411</ele><speed>8.55</speed><time>2016-07-09T14:08:58Z</time><pdop>8.0</pdop><geoidheight>50.60</geoidheight><course>104.198494</course><type>1</type></trkpt>
      <trkpt lat="39.38727840477464" lon="-5.9496557701298"><ele>2416</ele><speed>8.76</speed><time>2016-07-09T14:08:59Z</time><pdop>8.0</pdop><geoidheight>50.60</geoidheight><course>119.56716</course><type>1</type></trkpt>
      <trkpt lat="39.38716959199318" lon="-5.949531364797967"><ele>2421</ele><speed>9.85</speed><time>2016-07-09T14:09:01Z</time><pdop>6.0</pdop><geoidheight>50.60</geoidheight><course>149.62695</course><type>1</type></trkpt>
      <trkpt lat="39.38699538829258" lon="-5.949485295927413"><ele>2426</ele><speed>12.03</speed><time>2016-07-09T14:09:04Z</time><pdop>6.0</pdop><geoidheight>50.60</geoidheight><course>178.14241</course><type>1</type></trkpt>
      <trkpt lat="39.38680144803718" lon="-5.949508175932378"><ele>2430</ele><speed>10.73</speed><time>2016-07-09T14:09:06Z</time><pdop>6.0</pdop><geoidheight>50.60</geoidheight><course>200.71898</course><type>1</type></trkpt>
      <trkpt lat="39.386640318977975" lon="-5.949605693349554"><ele>2437</ele><speed>10.30</speed><time>2016-07-09T14:09:08Z</time><pdop>6.0</pdop><geoidheight>50.60</geoidheight><course>219.71696</course><type>1</type></trkpt>
      <trkpt lat="39.386493524961566" lon="-5.949775243018474"><ele>2444</ele><speed>11.58</speed><time>2016-07-09T14:09:10Z</time><pdop>6.0</pdop><geoidheight>50.60</geoidheight><course>215.68134</course><type>1</type></trkpt>
      <trkpt lat="39.38645813056169" lon="-5.950028529345219"><ele>2449</ele><speed>10.74</speed><time>2016-07-09T14:09:12Z</time><pdop>6.0</pdop><geoidheight>50.60</geoidheight><course>277.0466</course><type>1</type></trkpt>
      <trkpt lat="39.386576136632634" lon="-5.950265561888712"><ele>2454</ele><speed>10.79</speed><time>2016-07-09T14:09:14Z</time><pdop>8.0</pdop><geoidheight>50.60</geoidheight><course>308.13303</course><type>1</type></trkpt>
      <trkpt lat="39.386744875218334" lon="-5.950401034176515"><ele>2463</ele><speed>8.44</speed><time>2016-07-09T14:09:17Z</time><pdop>12.0</pdop><geoidheight>50.60</geoidheight><course>2.4436147</course><type>1</type></trkpt>
      <trkpt lat="39.38684844089936" lon="-5.950154836665287"><ele>2478</ele><speed>8.61</speed><time>2016-07-09T14:09:21Z</time><pdop>8.0</pdop><geoidheight>50.60</geoidheight><course>104.47866</course><type>1</type></trkpt>
      <trkpt lat="39.38670395008494" lon="-5.949963853520576"><ele>2487</ele><speed>10.01</speed><time>2016-07-09T14:09:24Z</time><pdop>8.0</pdop><geoidheight>50.60</geoidheight><course>167.27092</course><type>1</type></trkpt>
      <trkpt lat="39.386536269633986" lon="-5.949974383805767"><ele>2492</ele><speed>9.88</speed><time>2016-07-09T14:09:26Z</time><pdop>8.0</pdop><geoidheight>50.60</geoidheight><course>207.98225</course><type>1</type></trkpt>
      <trkpt lat="39.386363461291516" lon="-5.95011324972284"><ele>2499</ele><speed>12.39</speed><time>2016-07-09T14:09:28Z</time><pdop>6.0</pdop><geoidheight>50.60</geoidheight><course>208.78069</course><type>1</type></trkpt>
      <trkpt lat="39.386314450870856" lon="-5.950338871063259"><ele>2504</ele><speed>9.66</speed><time>2016-07-09T14:09:30Z</time><pdop>12.0</pdop><geoidheight>50.60</geoidheight><course>266.80722</course><type>1</type></trkpt>
      <trkpt lat="39.386364883871444" lon="-5.950573822746002"><ele>2511</ele><speed>10.47</speed><time>2016-07-09T14:09:32Z</time><pdop>8.0</pdop><geoidheight>50.60</geoidheight><course>294.12775</course><type>1</type></trkpt>
      <trkpt lat="39.38642331112339" lon="-5.950782141839896"><ele>2518</ele><speed>8.71</speed><time>2016-07-09T14:09:34Z</time><pdop>8.0</pdop><geoidheight>50.60</geoidheight><course>296.61697</course><type>1</type></trkpt>
      <trkpt lat="39.38653472133518" lon="-5.950949988975193"><ele>2525</ele><speed>8.00</speed><time>2016-07-09T14:09:36Z</time><pdop>8.0</pdop><geoidheight>50.60</geoidheight><course>325.2093</course><type>1</type></trkpt>
      <trkpt lat="39.38671431214051" lon="-5.950870658782574"><ele>2539</ele><speed>6.70</speed><time>2016-07-09T14:09:39Z</time><pdop>8.0</pdop><geoidheight>50.60</geoidheight><course>57.33946</course><type>1</type></trkpt>
      <trkpt lat="39.38671827936343" lon="-5.950584135905368"><ele>2550</ele><speed>9.16</speed><time>2016-07-09T14:09:42Z</time><pdop>8.0</pdop><geoidheight>50.60</geoidheight><course>99.391685</course><type>1</type></trkpt>
      <trkpt lat="39.38654794592869" lon="-5.950515969443417"><ele>2557</ele><speed>11.07</speed><time>2016-07-09T14:09:45Z</time><pdop>8.0</pdop><geoidheight>50.60</geoidheight><course>180.68718</course><type>1</type></trkpt>
      <trkpt lat="39.386365306395426" lon="-5.9505807331854355"><ele>2563</ele><speed>10.36</speed><time>2016-07-09T14:09:47Z</time><pdop>8.0</pdop><geoidheight>50.60</geoidheight><course>198.11826</course><type>1</type></trkpt>
      <trkpt lat="39.38618807978846" lon="-5.950672433438268"><ele>2570</ele><speed>9.99</speed><time>2016-07-09T14:09:49Z</time><pdop>8.0</pdop><geoidheight>50.60</geoidheight><course>202.264</course><type>1</type></trkpt>
      <trkpt lat="39.386236168131916" lon="-5.9510124746050295"><ele>2582</ele><speed>10.46</speed><time>2016-07-09T14:09:51Z</time><pdop>8.0</pdop><geoidheight>50.60</geoidheight><course>306.88242</course><type>1</type></trkpt>
      <trkpt lat="39.386346354840555" lon="-5.951279614045091"><ele>2592</ele><speed>6.64</speed><time>2016-07-09T14:09:55Z</time><pdop>12.0</pdop><geoidheight>50.60</geoidheight><course>334.1977</course><type>1</type></trkpt>
      <trkpt lat="39.38653183189745" lon="-5.951117479169009"><ele>2607</ele><speed>8.59</speed><time>2016-07-09T14:09:59Z</time><pdop>6.0</pdop><geoidheight>50.60</geoidheight><course>79.28024</course><type>1</type></trkpt>
      <trkpt lat="39.38652680957786" lon="-5.950941131827674"><ele>2616</ele><speed>9.01</speed><time>2016-07-09T14:10:01Z</time><pdop>6.0</pdop><geoidheight>50.60</geoidheight><course>117.28295</course><type>1</type></trkpt>
      <trkpt lat="39.386413428748746" lon="-5.950786694054695"><ele>2623</ele><speed>8.25</speed><time>2016-07-09T14:10:02Z</time><pdop>8.0</pdop><geoidheight>50.60</geoidheight><course>143.36133</course><type>1</type></trkpt>
      <trkpt lat="39.38625507538255" lon="-5.950775468531421"><ele>2630</ele><speed>11.30</speed><time>2016-07-09T14:10:04Z</time><pdop>6.0</pdop><geoidheight>50.60</geoidheight><course>190.52399</course><type>1</type></trkpt>
      <trkpt lat="39.38605158803946" lon="-5.950888512842201"><ele>2638</ele><speed>12.33</speed><time>2016-07-09T14:10:07Z</time><pdop>6.0</pdop><geoidheight>50.60</geoidheight><course>218.70161</course><type>1</type></trkpt>
      <trkpt lat="39.385961089780466" lon="-5.950972833479871"><ele>2641</ele><speed>14.45</speed><time>2016-07-09T14:10:08Z</time><pdop>6.0</pdop><geoidheight>50.60</geoidheight><course>218.63011</course><type>1</type></trkpt>
      <trkpt lat="39.38585156353833" lon="-5.951206903321713"><ele>2648</ele><speed>11.63</speed><time>2016-07-09T14:10:10Z</time><pdop>8.0</pdop><geoidheight>50.60</geoidheight><course>235.14511</course><type>1</type></trkpt>
      <trkpt lat="39.38592112044603" lon="-5.951595306309349"><ele>2661</ele><speed>7.01</speed><time>2016-07-09T14:10:13Z</time><pdop>16.0</pdop><geoidheight>50.60</geoidheight><course>328.7614</course><type>1</type></trkpt>
      <trkpt lat="39.386223945159536" lon="-5.9514954655305905"><ele>2673</ele><speed>6.92</speed><time>2016-07-09T14:10:17Z</time><pdop>8.0</pdop><geoidheight>50.60</geoidheight><course>46.257717</course><type>1</type></trkpt>
      <trkpt lat="39.38631812949386" lon="-5.9513630781358176"><ele>2681</ele><speed>7.55</speed><time>2016-07-09T14:10:19Z</time><pdop>6.0</pdop><geoidheight>50.60</geoidheight><course>87.70394</course><type>1</type></trkpt>
      <trkpt lat="39.386282263447825" lon="-5.951182521016186"><ele>2688</ele><speed>11.47</speed><time>2016-07-09T14:10:21Z</time><pdop>8.0</pdop><geoidheight>50.60</geoidheight><course>129.52193</course><type>1</type></trkpt>
      <trkpt lat="39.38613855316866" lon="-5.951089211003428"><ele>2694</ele><speed>11.62</speed><time>2016-07-09T14:10:22Z</time><pdop>8.0</pdop><geoidheight>50.60</geoidheight><course>173.54738</course><type>1</type></trkpt>
      <trkpt lat="39.38597382372292" lon="-5.951142071783528"><ele>2701</ele><speed>12.29</speed><time>2016-07-09T14:10:25Z</time><pdop>8.0</pdop><geoidheight>50.60</geoidheight><course>216.89743</course><type>1</type></trkpt>
      <trkpt lat="39.38582115123683" lon="-5.951303199947058"><ele>2708</ele><speed>11.79</speed><time>2016-07-09T14:10:27Z</time><pdop>6.0</pdop><geoidheight>50.60</geoidheight><course>234.84767</course><type>1</type></trkpt>
      <trkpt lat="39.385753135461776" lon="-5.951509971672189"><ele>2714</ele><speed>10.88</speed><time>2016-07-09T14:10:29Z</time><pdop>6.0</pdop><geoidheight>50.60</geoidheight><course>265.53284</course><type>1</type></trkpt>
      <trkpt lat="39.385819128935466" lon="-5.9517791173412595"><ele>2720</ele><speed>12.69</speed><time>2016-07-09T14:10:31Z</time><pdop>8.0</pdop><geoidheight>50.60</geoidheight><course>301.05588</course><type>1</type></trkpt>
      <trkpt lat="39.385939966604816" lon="-5.9519778235880185"><ele>2728</ele><speed>10.56</speed><time>2016-07-09T14:10:33Z</time><pdop>6.0</pdop><geoidheight>50.60</geoidheight><course>336.25967</course><type>1</type></trkpt>
      <trkpt lat="39.38612697216845" lon="-5.951893788945674"><ele>2743</ele><speed>6.49</speed><time>2016-07-09T14:10:36Z</time><pdop>8.0</pdop><geoidheight>50.60</geoidheight><course>51.01009</course><type>1</type></trkpt>
      <trkpt lat="39.38615863039764" lon="-5.951629526474759"><ele>2754</ele><speed>9.80</speed><time>2016-07-09T14:10:40Z</time><pdop>8.0</pdop><geoidheight>50.60</geoidheight><course>106.69592</course><type>1</type></trkpt>
      <trkpt lat="39.38601428293465" lon="-5.9514640909264545"><ele>2760</ele><speed>11.24</speed><time>2016-07-09T14:10:41Z</time><pdop>8.0</pdop><geoidheight>50.60</geoidheight><course>144.40834</course><type>1</type></trkpt>
      <trkpt lat="39.38581639728736" lon="-5.951476687064446"><ele>2766</ele><speed>11.60</speed><time>2016-07-09T14:10:44Z</time><pdop>8.0</pdop><geoidheight>50.60</geoidheight><course>192.95236</course><type>1</type></trkpt>
      <trkpt lat="39.38563680370189" lon="-5.951545084323428"><ele>2771</ele><speed>11.48</speed><time>2016-07-09T14:10:45Z</time><pdop>6.0</pdop><geoidheight>50.60</geoidheight><course>214.20952</course><type>1</type></trkpt>
      <trkpt lat="39.3855082066978" lon="-5.951734764168886"><ele>2777</ele><speed>12.49</speed><time>2016-07-09T14:10:48Z</time><pdop>6.0</pdop><geoidheight>50.60</geoidheight><course>242.73604</course><type>1</type></trkpt>
      <trkpt lat="39.38549307550276" lon="-5.951983931597987"><ele>2784</ele><speed>12.66</speed><time>2016-07-09T14:10:50Z</time><pdop>8.0</pdop><geoidheight>50.60</geoidheight><course>280.4114</course><type>1</type></trkpt>
      <trkpt lat="39.38558810693437" lon="-5.9522151321721894"><ele>2790</ele><speed>11.78</speed><time>2016-07-09T14:10:51Z</time><pdop>8.0</pdop><geoidheight>50.60</geoidheight><course>310.58878</course><type>1</type></trkpt>
      <trkpt lat="39.385708115064105" lon="-5.952359382424012"><ele>2796</ele><speed>8.82</speed><time>2016-07-09T14:10:54Z</time><pdop>8.0</pdop><geoidheight>50.60</geoidheight><course>333.1676</course><type>1</type></trkpt>
      <trkpt lat="39.385844249546984" lon="-5.9524612205200516"><ele>2801</ele><speed>8.56</speed><time>2016-07-09T14:10:56Z</time><pdop>6.0</pdop><geoidheight>50.60</geoidheight><course>355.41357</course><type>1</type></trkpt>
      <trkpt lat="39.38595266902197" lon="-5.95243449171338"><ele>2807</ele><speed>7.08</speed><time>2016-07-09T14:10:58Z</time><pdop>6.0</pdop><geoidheight>50.60</geoidheight><course>26.243067</course><type>1</type></trkpt>
      <trkpt lat="39.38601443396975" lon="-5.952292735277775"><ele>2814</ele><speed>8.63</speed><time>2016-07-09T14:11:00Z</time><pdop>6.0</pdop><geoidheight>50.60</geoidheight><course>81.285736</course><type>1</type></trkpt>
      <trkpt lat="39.385994793525114" lon="-5.952078077328936"><ele>2821</ele><speed>9.92</speed><time>2016-07-09T14:11:02Z</time><pdop>6.0</pdop><geoidheight>50.60</geoidheight><course>105.20792</course><type>1</type></trkpt>
      <trkpt lat="39.38585502487429" lon="-5.95192956081073"><ele>2827</ele><speed>10.72</speed><time>2016-07-09T14:11:03Z</time><pdop>6.0</pdop><geoidheight>50.60</geoidheight><course>153.25993</course><type>1</type></trkpt>
      <trkpt lat="39.38574041311232" lon="-5.951911404034276"><ele>2830</ele><speed>10.23</speed><time>2016-07-09T14:11:05Z</time><pdop>6.0</pdop><geoidheight>50.60</geoidheight><course>171.04333</course><type>1</type></trkpt>
      <trkpt lat="39.38561610763308" lon="-5.951931762597376"><ele>2834</ele><speed>10.52</speed><time>2016-07-09T14:11:06Z</time><pdop>6.0</pdop><geoidheight>50.60</geoidheight><course>186.46642</course><type>1</type></trkpt>
      <trkpt lat="39.38550005299056" lon="-5.95195202477701"><ele>2837</ele><speed>10.69</speed><time>2016-07-09T14:11:07Z</time><pdop>6.0</pdop><geoidheight>50.60</geoidheight><course>188.43199</course><type>1</type></trkpt>
      <trkpt lat="39.385321244879904" lon="-5.952044251849486"><ele>2842</ele><speed>11.48</speed><time>2016-07-09T14:11:08Z</time><pdop>6.0</pdop><geoidheight>50.60</geoidheight><course>210.08487</course><type>1</type></trkpt>
      <trkpt lat="39.385218545625214" lon="-5.9522677110050815"><ele>2846</ele><speed>12.67</speed><time>2016-07-09T14:11:11Z</time><pdop>8.0</pdop><geoidheight>50.60</geoidheight><course>261.3648</course><type>1</type></trkpt>
      <trkpt lat="39.38525901737681" lon="-5.952504156696818"><ele>2853</ele><speed>11.92</speed><time>2016-07-09T14:11:13Z</time><pdop>8.0</pdop><geoidheight>50.60</geoidheight><course>299.5258</course><type>1</type></trkpt>
      <trkpt lat="39.38534113478145" lon="-5.9527144058616415"><ele>2859</ele><speed>10.51</speed><time>2016-07-09T14:11:14Z</time><pdop>8.0</pdop><geoidheight>50.60</geoidheight><course>306.0669</course><type>1</type></trkpt>
      <trkpt lat="39.38545122515158" lon="-5.9528406786037875"><ele>2865</ele><speed>7.00</speed><time>2016-07-09T14:11:17Z</time><pdop>8.0</pdop><geoidheight>50.60</geoidheight><course>339.5329</course><type>1</type></trkpt>
      <trkpt lat="39.38563308541381" lon="-5.952747572074385"><ele>2877</ele><speed>7.80</speed><time>2016-07-09T14:11:20Z</time><pdop>6.0</pdop><geoidheight>50.60</geoidheight><course>44.347076</course><type>1</type></trkpt>
      <trkpt lat="39.38567499842707" lon="-5.952610009586724"><ele>2881</ele><speed>7.41</speed><time>2016-07-09T14:11:23Z</time><pdop>6.0</pdop><geoidheight>50.60</geoidheight><course>96.567604</course><type>1</type></trkpt>
      <trkpt lat="39.38562973744878" lon="-5.952448355564595"><ele>2885</ele><speed>9.31</speed><time>2016-07-09T14:11:25Z</time><pdop>8.0</pdop><geoidheight>50.60</geoidheight><course>127.634575</course><type>1</type></trkpt>
      <trkpt lat="39.38550193718398" lon="-5.952326472553247"><ele>2890</ele><speed>10.23</speed><time>2016-07-09T14:11:26Z</time><pdop>6.0</pdop><geoidheight>50.60</geoidheight><course>159.41582</course><type>1</type></trkpt>
      <trkpt lat="39.38533286849863" lon="-5.9522495220237195"><ele>2894</ele><speed>10.24</speed><time>2016-07-09T14:11:29Z</time><pdop>6.0</pdop><geoidheight>50.60</geoidheight><course>166.43518</course><type>1</type></trkpt>
      <trkpt lat="39.38513178226258" lon="-5.952240070179355"><ele>2899</ele><speed>11.07</speed><time>2016-07-09T14:11:30Z</time><pdop>6.0</pdop><geoidheight>50.60</geoidheight><course>181.50984</course><type>1</type></trkpt>
      <trkpt lat="39.38492988284537" lon="-5.95229633574691"><ele>2903</ele><speed>11.90</speed><time>2016-07-09T14:11:32Z</time><pdop>6.0</pdop><geoidheight>50.60</geoidheight><course>203.57835</course><type>1</type></trkpt>
      <trkpt lat="39.384767300692275" lon="-5.95244183363767"><ele>2908</ele><speed>11.60</speed><time>2016-07-09T14:11:35Z</time><pdop>8.0</pdop><geoidheight>50.60</geoidheight><course>232.13536</course><type>1</type></trkpt>
      <trkpt lat="39.38465651655749" lon="-5.952659122297434"><ele>2913</ele><speed>11.37</speed><time>2016-07-09T14:11:37Z</time><pdop>8.0</pdop><geoidheight>50.60</geoidheight><course>248.6539</course><type>1</type></trkpt>
      <trkpt lat="39.38466094197634" lon="-5.95288773751725"><ele>2919</ele><speed>10.54</speed><time>2016-07-09T14:11:39Z</time><pdop>8.0</pdop><geoidheight>50.60</geoidheight><course>274.1774</course><type>1</type></trkpt>
      <trkpt lat="39.384835391326504" lon="-5.953173918188312"><ele>2926</ele><speed>9.80</speed><time>2016-07-09T14:11:42Z</time><pdop>16.0</pdop><geoidheight>50.60</geoidheight><course>327.2886</course><type>1</type></trkpt>
      <trkpt lat="39.385095118454394" lon="-5.953208777484065"><ele>2938</ele><speed>7.41</speed><time>2016-07-09T14:11:46Z</time><pdop>8.0</pdop><geoidheight>50.60</geoidheight><course>17.301971</course><type>1</type></trkpt>
      <trkpt lat="39.38517488356559" lon="-5.953043675216448"><ele>2950</ele><speed>7.36</speed><time>2016-07-09T14:11:49Z</time><pdop>6.0</pdop><geoidheight>50.60</geoidheight><course>87.59306</course><type>1</type></trkpt>
      <trkpt lat="39.385137878718986" lon="-5.952882255522939"><ele>2956</ele><speed>8.09</speed><time>2016-07-09T14:11:50Z</time><pdop>6.0</pdop><geoidheight>50.60</geoidheight><course>121.66507</course><type>1</type></trkpt>
      <trkpt lat="39.38505564761592" lon="-5.952728735954222"><ele>2961</ele><speed>9.71</speed><time>2016-07-09T14:11:52Z</time><pdop>6.0</pdop><geoidheight>50.60</geoidheight><course>142.94432</course><type>1</type></trkpt>
      <trkpt lat="39.38487127212011" lon="-5.952669732649855"><ele>2965</ele><speed>11.09</speed><time>2016-07-09T14:11:55Z</time><pdop>8.0</pdop><geoidheight>50.60</geoidheight><course>182.2895</course><type>1</type></trkpt>
      <trkpt lat="39.384677358921664" lon="-5.95273052587241"><ele>2969</ele><speed>13.33</speed><time>2016-07-09T14:11:56Z</time><pdop>8.0</pdop><geoidheight>50.60</geoidheight><course>214.63863</course><type>1</type></trkpt>
      <trkpt lat="39.38456611252949" lon="-5.952978719219645"><ele>2974</ele><speed>12.72</speed><time>2016-07-09T14:11:59Z</time><pdop>8.0</pdop><geoidheight>50.60</geoidheight><course>256.14114</course><type>1</type></trkpt>
      <trkpt lat="39.38459157028112" lon="-5.953225476481269"><ele>2979</ele><speed>12.14</speed><time>2016-07-09T14:12:01Z</time><pdop>8.0</pdop><geoidheight>50.60</geoidheight><course>290.63138</course><type>1</type></trkpt>
      <trkpt lat="39.38468864375403" lon="-5.953421008424449"><ele>2985</ele><speed>11.74</speed><time>2016-07-09T14:12:03Z</time><pdop>8.0</pdop><geoidheight>50.60</geoidheight><course>318.27963</course><type>1</type></trkpt>
      <trkpt lat="39.38482325334606" lon="-5.953577644243531"><ele>2991</ele><speed>10.52</speed><time>2016-07-09T14:12:04Z</time><pdop>8.0</pdop><geoidheight>50.60</geoidheight><course>339.90793</course><type>1</type></trkpt>
      <trkpt lat="39.38500540167717" lon="-5.953548330322515"><ele>3000</ele><speed>6.53</speed><time>2016-07-09T14:12:08Z</time><pdop>12.0</pdop><geoidheight>50.60</geoidheight><course>31.815006</course><type>1</type></trkpt>
      <trkpt lat="39.38501863191684" lon="-5.953288737990011"><ele>3009</ele><speed>10.10</speed><time>2016-07-09T14:12:11Z</time><pdop>8.0</pdop><geoidheight>50.60</geoidheight><course>103.36635</course><type>1</type></trkpt>
      <trkpt lat="39.38491292254928" lon="-5.9531383319773195"><ele>3012</ele><speed>9.58</speed><time>2016-07-09T14:12:13Z</time><pdop>8.0</pdop><geoidheight>50.60</geoidheight><course>151.26363</course><type>1</type></trkpt>
      <trkpt lat="39.384749741064184" lon="-5.953117886192563"><ele>3015</ele><speed>10.96</speed><time>2016-07-09T14:12:15Z</time><pdop>6.0</pdop><geoidheight>50.60</geoidheight><course>196.35585</course><type>1</type></trkpt>
      <trkpt lat="39.38463032699022" lon="-5.953154985909607"><ele>3017</ele><speed>11.97</speed><time>2016-07-09T14:12:16Z</time><pdop>6.0</pdop><geoidheight>50.60</geoidheight><course>200.3578</course><type>1</type></trkpt>
      <trkpt lat="39.38453037967577" lon="-5.953221490527832"><ele>3020</ele><speed>11.87</speed><time>2016-07-09T14:12:17Z</time><pdop>6.0</pdop><geoidheight>50.60</geoidheight><course>217.98595</course><type>1</type></trkpt>
      <trkpt lat="39.38444444299395" lon="-5.953294297737819"><ele>3024</ele><speed>12.23</speed><time>2016-07-09T14:12:18Z</time><pdop>4.0</pdop><geoidheight>50.60</geoidheight><course>221.10777</course><type>1</type></trkpt>
      <trkpt lat="39.38437277299305" lon="-5.95339647948551"><ele>3027</ele><speed>12.80</speed><time>2016-07-09T14:12:19Z</time><pdop>4.0</pdop><geoidheight>50.60</geoidheight><course>233.92825</course><type>1</type></trkpt>
      <trkpt lat="39.38430934094537" lon="-5.953516699429924"><ele>3030</ele><speed>13.53</speed><time>2016-07-09T14:12:20Z</time><pdop>4.0</pdop><geoidheight>50.60</geoidheight><course>236.77898</course><type>1</type></trkpt>
      <trkpt lat="39.384246868643764" lon="-5.953647118263922"><ele>3033</ele><speed>13.10</speed><time>2016-07-09T14:12:20Z</time><pdop>8.0</pdop><geoidheight>50.60</geoidheight><course>237.29094</course><type>1</type></trkpt>
      <trkpt lat="39.38421976109071" lon="-5.953959071550466"><ele>3038</ele><speed>12.78</speed><time>2016-07-09T14:12:23Z</time><pdop>8.0</pdop><geoidheight>50.60</geoidheight><course>281.71524</course><type>1</type></trkpt>
      <trkpt lat="39.384359143080125" lon="-5.954223008121997"><ele>3045</ele><speed>12.23</speed><time>2016-07-09T14:12:25Z</time><pdop>8.0</pdop><geoidheight>50.60</geoidheight><course>304.57477</course><type>1</type></trkpt>
      <trkpt lat="39.38450134212662" lon="-5.9544033264375065"><ele>3052</ele><speed>11.05</speed><time>2016-07-09T14:12:27Z</time><pdop>8.0</pdop><geoidheight>50.60</geoidheight><course>325.9079</course><type>1</type></trkpt>
      <trkpt lat="39.38464866201269" lon="-5.954464148178263"><ele>3060</ele><speed>9.86</speed><time>2016-07-09T14:12:29Z</time><pdop>8.0</pdop><geoidheight>50.60</geoidheight><course>356.50662</course><type>1</type></trkpt>
      <trkpt lat="39.38474838746331" lon="-5.95428001681565"><ele>3069</ele><speed>9.11</speed><time>2016-07-09T14:12:32Z</time><pdop>8.0</pdop><geoidheight>50.60</geoidheight><course>76.793846</course><type>1</type></trkpt>
      <trkpt lat="39.38473633160796" lon="-5.954072650192025"><ele>3074</ele><speed>7.88</speed><time>2016-07-09T14:12:34Z</time><pdop>6.0</pdop><geoidheight>50.60</geoidheight><course>98.3994</course><type>1</type></trkpt>
      <trkpt lat="39.38466630764102" lon="-5.9539141434986895"><ele>3079</ele><speed>7.95</speed><time>2016-07-09T14:12:35Z</time><pdop>6.0</pdop><geoidheight>50.60</geoidheight><course>129.6255</course><type>1</type></trkpt>
      <trkpt lat="39.38454938738928" lon="-5.9538098538872095"><ele>3083</ele><speed>8.67</speed><time>2016-07-09T14:12:38Z</time><pdop>6.0</pdop><geoidheight>50.60</geoidheight><course>160.64532</course><type>1</type></trkpt>
      <trkpt lat="39.384390331988165" lon="-5.953851920580907"><ele>3087</ele><speed>11.26</speed><time>2016-07-09T14:12:39Z</time><pdop>6.0</pdop><geoidheight>50.60</geoidheight><course>204.85971</course><type>1</type></trkpt>
      <trkpt lat="39.38421874326481" lon="-5.953999848205452"><ele>3092</ele><speed>12.85</speed><time>2016-07-09T14:12:42Z</time><pdop>8.0</pdop><geoidheight>50.60</geoidheight><course>228.1217</course><type>1</type></trkpt>
      <trkpt lat="39.38412036290368" lon="-5.954281217402733"><ele>3096</ele><speed>14.48</speed><time>2016-07-09T14:12:44Z</time><pdop>8.0</pdop><geoidheight>50.60</geoidheight><course>260.94946</course><type>1</type></trkpt>
      <trkpt lat="39.38416486640206" lon="-5.954568341565408"><ele>3101</ele><speed>13.33</speed><time>2016-07-09T14:12:46Z</time><pdop>8.0</pdop><geoidheight>50.60</geoidheight><course>297.19345</course><type>1</type></trkpt>
      <trkpt lat="39.38429111719014" lon="-5.954789999664113"><ele>3106</ele><speed>12.30</speed><time>2016-07-09T14:12:48Z</time><pdop>8.0</pdop><geoidheight>50.60</geoidheight><course>321.6568</course><type>1</type></trkpt>
      <trkpt lat="39.38447218718213" lon="-5.954864035748304"><ele>3116</ele><speed>8.71</speed><time>2016-07-09T14:12:51Z</time><pdop>12.0</pdop><geoidheight>50.60</geoidheight><course>15.414822</course><type>1</type></trkpt>
      <trkpt lat="39.38468746619831" lon="-5.954758180708409"><ele>3123</ele><speed>9.25</speed><time>2016-07-09T14:12:54Z</time><pdop>8.0</pdop><geoidheight>50.60</geoidheight><course>20.4181</course><type>1</type></trkpt>
      <trkpt lat="39.38485640077834" lon="-5.9546805439744634"><ele>3127</ele><speed>9.65</speed><time>2016-07-09T14:12:56Z</time><pdop>6.0</pdop><geoidheight>50.60</geoidheight><course>20.321308</course><type>1</type></trkpt>
      <trkpt lat="39.385027422464816" lon="-5.954584931265955"><ele>3131</ele><speed>9.99</speed><time>2016-07-09T14:12:58Z</time><pdop>6.0</pdop><geoidheight>50.60</geoidheight><course>23.59509</course><type>1</type></trkpt>
      <trkpt lat="39.38519005654475" lon="-5.954478975152559"><ele>3136</ele><speed>9.07</speed><time>2016-07-09T14:13:00Z</time><pdop>6.0</pdop><geoidheight>50.60</geoidheight><course>24.87118</course><type>1</type></trkpt>
      <trkpt lat="39.38532883043938" lon="-5.954385272840727"><ele>3141</ele><speed>8.73</speed><time>2016-07-09T14:13:01Z</time><pdop>4.0</pdop><geoidheight>50.60</geoidheight><course>22.85705</course><type>1</type></trkpt>
      <trkpt lat="39.38547507887668" lon="-5.95430488670998"><ele>3146</ele><speed>9.13</speed><time>2016-07-09T14:13:04Z</time><pdop>6.0</pdop><geoidheight>50.60</geoidheight><course>22.170055</course><type>1</type></trkpt>
      <trkpt lat="39.385646585970676" lon="-5.954212760951132"><ele>3150</ele><speed>10.26</speed><time>2016-07-09T14:13:06Z</time><pdop>6.0</pdop><geoidheight>50.60</geoidheight><course>22.120138</course><type>1</type></trkpt>
      <trkpt lat="39.38582810083942" lon="-5.95412103138845"><ele>3154</ele><speed>9.95</speed><time>2016-07-09T14:13:08Z</time><pdop>6.0</pdop><geoidheight>50.60</geoidheight><course>20.913162</course><type>1</type></trkpt>
      <trkpt lat="39.38599850474718" lon="-5.9540235802626995"><ele>3159</ele><speed>10.11</speed><time>2016-07-09T14:13:10Z</time><pdop>6.0</pdop><geoidheight>50.60</geoidheight><course>23.157602</course><type>1</type></trkpt>
      <trkpt lat="39.38616039121557" lon="-5.953917146643634"><ele>3164</ele><speed>10.62</speed><time>2016-07-09T14:13:12Z</time><pdop>6.0</pdop><geoidheight>50.60</geoidheight><course>24.934237</course><type>1</type></trkpt>
      <trkpt lat="39.386331424005384" lon="-5.953812356742719"><ele>3169</ele><speed>10.56</speed><time>2016-07-09T14:13:14Z</time><pdop>8.0</pdop><geoidheight>50.60</geoidheight><course>22.262545</course><type>1</type></trkpt>
      <trkpt lat="39.38650208764185" lon="-5.953710845627656"><ele>3172</ele><speed>9.91</speed><time>2016-07-09T14:13:16Z</time><pdop>4.0</pdop><geoidheight>50.60</geoidheight><course>24.98732</course><type>1</type></trkpt>
      <trkpt lat="39.38658552956348" lon="-5.9536506788555625"><ele>3174</ele><speed>10.21</speed><time>2016-07-09T14:13:17Z</time><pdop>4.0</pdop><geoidheight>50.60</geoidheight><course>27.138945</course><type>1</type></trkpt>
      <trkpt lat="39.38667178172038" lon="-5.9535848200571655"><ele>3176</ele><speed>11.07</speed><time>2016-07-09T14:13:18Z</time><pdop>4.0</pdop><geoidheight>50.60</geoidheight><course>28.46229</course><type>1</type></trkpt>
      <trkpt lat="39.38675891702376" lon="-5.953518510401113"><ele>3178</ele><speed>11.40</speed><time>2016-07-09T14:13:19Z</time><pdop>6.0</pdop><geoidheight>50.60</geoidheight><course>28.948004</course><type>1</type></trkpt>
      <trkpt lat="39.38692930093376" lon="-5.953380945493229"><ele>3181</ele><speed>10.28</speed><time>2016-07-09T14:13:21Z</time><pdop>6.0</pdop><geoidheight>50.60</geoidheight><course>31.093801</course><type>1</type></trkpt>
      <trkpt lat="39.38707863247408" lon="-5.953240798743673"><ele>3185</ele><speed>9.52</speed><time>2016-07-09T14:13:23Z</time><pdop>6.0</pdop><geoidheight>50.60</geoidheight><course>33.77182</course><type>1</type></trkpt>
      <trkpt lat="39.38715012603725" lon="-5.953167780059722"><ele>3187</ele><speed>10.06</speed><time>2016-07-09T14:13:24Z</time><pdop>4.0</pdop><geoidheight>50.60</geoidheight><course>34.936325</course><type>1</type></trkpt>
      <trkpt lat="39.387218811634675" lon="-5.953091743111405"><ele>3189</ele><speed>10.47</speed><time>2016-07-09T14:13:25Z</time><pdop>4.0</pdop><geoidheight>50.60</geoidheight><course>36.485596</course><type>1</type></trkpt>
      <trkpt lat="39.387299491382066" lon="-5.953005964186046"><ele>3190</ele><speed>10.77</speed><time>2016-07-09T14:13:26Z</time><pdop>4.0</pdop><geoidheight>50.60</geoidheight><course>37.8176</course><type>1</type></trkpt>
      <trkpt lat="39.38737137233758" lon="-5.952926446027385"><ele>3192</ele><speed>10.73</speed><time>2016-07-09T14:13:27Z</time><pdop>4.0</pdop><geoidheight>50.60</geoidheight><course>37.35526</course><type>1</type></trkpt>
      <trkpt lat="39.38744405678802" lon="-5.952857074247252"><ele>3193</ele><speed>9.94</speed><time>2016-07-09T14:13:28Z</time><pdop>6.0</pdop><geoidheight>50.60</geoidheight><course>33.769325</course><type>1</type></trkpt>
      <trkpt lat="39.38759368679459" lon="-5.952736623014489"><ele>3198</ele><speed>10.22</speed><time>2016-07-09T14:13:30Z</time><pdop>8.0</pdop><geoidheight>50.60</geoidheight><course>29.965336</course><type>1</type></trkpt>
      <trkpt lat="39.38776419807756" lon="-5.952598028472257"><ele>3203</ele><speed>11.33</speed><time>2016-07-09T14:13:32Z</time><pdop>4.0</pdop><geoidheight>50.60</geoidheight><course>32.814724</course><type>1</type></trkpt>
      <trkpt lat="39.38785269221979" lon="-5.952513320352559"><ele>3205</ele><speed>11.90</speed><time>2016-07-09T14:13:33Z</time><pdop>4.0</pdop><geoidheight>50.60</geoidheight><course>35.18982</course><type>1</type></trkpt>
      <trkpt lat="39.38794578002087" lon="-5.9524248599817655"><ele>3206</ele><speed>11.63</speed><time>2016-07-09T14:13:34Z</time><pdop>4.0</pdop><geoidheight>50.60</geoidheight><course>35.77767</course><type>1</type></trkpt>
      <trkpt lat="39.388024865516925" lon="-5.95234738831211"><ele>3208</ele><speed>11.35</speed><time>2016-07-09T14:13:35Z</time><pdop>4.0</pdop><geoidheight>50.60</geoidheight><course>34.564342</course><type>1</type></trkpt>
      <trkpt lat="39.38810845626371" lon="-5.952271958081881"><ele>3209</ele><speed>11.64</speed><time>2016-07-09T14:13:36Z</time><pdop>4.0</pdop><geoidheight>50.60</geoidheight><course>33.61649</course><type>1</type></trkpt>
      <trkpt lat="39.38818957776142" lon="-5.952200666415266"><ele>3210</ele><speed>11.31</speed><time>2016-07-09T14:13:37Z</time><pdop>4.0</pdop><geoidheight>50.60</geoidheight><course>33.062775</course><type>1</type></trkpt>
      <trkpt lat="39.3882709154621" lon="-5.952130378526184"><ele>3211</ele><speed>10.89</speed><time>2016-07-09T14:13:38Z</time><pdop>4.0</pdop><geoidheight>50.60</geoidheight><course>33.60824</course><type>1</type></trkpt>
      <trkpt lat="39.388429002776164" lon="-5.951999512339761"><ele>3212</ele><speed>9.26</speed><time>2016-07-09T14:13:40Z</time><pdop>6.0</pdop><geoidheight>50.60</geoidheight><course>31.506496</course><type>1</type></trkpt>
      <trkpt lat="39.38857451189638" lon="-5.9518989861414315"><ele>3214</ele><speed>9.38</speed><time>2016-07-09T14:13:42Z</time><pdop>8.0</pdop><geoidheight>50.60</geoidheight><course>27.22498</course><type>1</type></trkpt>
      <trkpt lat="39.388732955825404" lon="-5.951796802966042"><ele>3214</ele><speed>10.40</speed><time>2016-07-09T14:13:44Z</time><pdop>8.0</pdop><geoidheight>50.60</geoidheight><course>27.181616</course><type>1</type></trkpt>
      <trkpt lat="39.38890163504563" lon="-5.951688217619913"><ele>3213</ele><speed>12.04</speed><time>2016-07-09T14:13:46Z</time><pdop>4.0</pdop><geoidheight>50.60</geoidheight><course>28.52745</course><type>1</type></trkpt>
      <trkpt lat="39.388996554012884" lon="-5.951621388726876"><ele>3211</ele><speed>12.32</speed><time>2016-07-09T14:13:47Z</time><pdop>4.0</pdop><geoidheight>50.60</geoidheight><course>27.989323</course><type>1</type></trkpt>
      <trkpt lat="39.38909275969655" lon="-5.951557480463145"><ele>3210</ele><speed>11.91</speed><time>2016-07-09T14:13:48Z</time><pdop>4.0</pdop><geoidheight>50.60</geoidheight><course>27.21008</course><type>1</type></trkpt>
      <trkpt lat="39.38917943424802" lon="-5.951502473217183"><ele>3209</ele><speed>10.57</speed><time>2016-07-09T14:13:49Z</time><pdop>6.0</pdop><geoidheight>50.60</geoidheight><course>26.535479</course><type>1</type></trkpt>
      <trkpt lat="39.38934719604021" lon="-5.9513940618941445"><ele>3209</ele><speed>9.92</speed><time>2016-07-09T14:13:51Z</time><pdop>6.0</pdop><geoidheight>50.60</geoidheight><course>28.260439</course><type>1</type></trkpt>
      <trkpt lat="39.389513507845095" lon="-5.951268040892174"><ele>3209</ele><speed>10.88</speed><time>2016-07-09T14:13:53Z</time><pdop>8.0</pdop><geoidheight>50.60</geoidheight><course>30.946764</course><type>1</type></trkpt>
      <trkpt lat="39.38965735554702" lon="-5.951100220661231"><ele>3210</ele><speed>9.82</speed><time>2016-07-09T14:13:55Z</time><pdop>4.0</pdop><geoidheight>50.60</geoidheight><course>50.392124</course><type>1</type></trkpt>
      <trkpt lat="39.38976814920577" lon="-5.950931186642037"><ele>3210</ele><speed>9.21</speed><time>2016-07-09T14:13:57Z</time><pdop>6.0</pdop><geoidheight>50.60</geoidheight><course>49.08085</course><type>1</type></trkpt>
      <trkpt lat="39.3898748519091" lon="-5.950762580445345"><ele>3210</ele><speed>9.91</speed><time>2016-07-09T14:13:59Z</time><pdop>4.0</pdop><geoidheight>50.60</geoidheight><course>51.491745</course><type>1</type></trkpt>
      <trkpt lat="39.3899339251973" lon="-5.95066329858244"><ele>3210</ele><speed>11.06</speed><time>2016-07-09T14:14:00Z</time><pdop>4.0</pdop><geoidheight>50.60</geoidheight><course>52.508656</course><type>1</type></trkpt>
      <trkpt lat="39.38999220585251" lon="-5.950565803024607"><ele>3209</ele><speed>12.22</speed><time>2016-07-09T14:14:01Z</time><pdop>4.0</pdop><geoidheight>50.60</geoidheight><course>52.15295</course><type>1</type></trkpt>
      <trkpt lat="39.390060945971435" lon="-5.950462710188767"><ele>3208</ele><speed>12.17</speed><time>2016-07-09T14:14:02Z</time><pdop>4.0</pdop><geoidheight>50.60</geoidheight><course>49.738472</course><type>1</type></trkpt>
      <trkpt lat="39.39013537082477" lon="-5.950366939935076"><ele>3207</ele><speed>11.92</speed><time>2016-07-09T14:14:03Z</time><pdop>4.0</pdop><geoidheight>50.60</geoidheight><course>46.43681</course><type>1</type></trkpt>
      <trkpt lat="39.390216055144485" lon="-5.9502757097168235"><ele>3206</ele><speed>11.59</speed><time>2016-07-09T14:14:04Z</time><pdop>4.0</pdop><geoidheight>50.60</geoidheight><course>43.74653</course><type>1</type></trkpt>
      <trkpt lat="39.390292642073995" lon="-5.950192461560329"><ele>3204</ele><speed>11.56</speed><time>2016-07-09T14:14:05Z</time><pdop>4.0</pdop><geoidheight>50.60</geoidheight><course>42.84735</course><type>1</type></trkpt>
      <trkpt lat="39.39037193608666" lon="-5.950104940590689"><ele>3203</ele><speed>11.85</speed><time>2016-07-09T14:14:06Z</time><pdop>4.0</pdop><geoidheight>50.60</geoidheight><course>43.42497</course><type>1</type></trkpt>
      <trkpt lat="39.39045187674583" lon="-5.950014822482945"><ele>3201</ele><speed>11.22</speed><time>2016-07-09T14:14:07Z</time><pdop>4.0</pdop><geoidheight>50.60</geoidheight><course>44.22685</course><type>1</type></trkpt>
      <trkpt lat="39.39052447887273" lon="-5.949931971992657"><ele>3200</ele><speed>10.21</speed><time>2016-07-09T14:14:08Z</time><pdop>4.0</pdop><geoidheight>50.60</geoidheight><course>43.279797</course><type>1</type></trkpt>
      <trkpt lat="39.390588362595146" lon="-5.949856252853849"><ele>3199</ele><speed>10.34</speed><time>2016-07-09T14:14:09Z</time><pdop>4.0</pdop><geoidheight>50.60</geoidheight><course>43.04142</course><type>1</type></trkpt>
      <trkpt lat="39.390656921787425" lon="-5.9497781735965445"><ele>3198</ele><speed>10.56</speed><time>2016-07-09T14:14:10Z</time><pdop>4.0</pdop><geoidheight>50.60</geoidheight><course>42.53143</course><type>1</type></trkpt>
      <trkpt lat="39.39072847469876" lon="-5.949696846206824"><ele>3196</ele><speed>10.99</speed><time>2016-07-09T14:14:11Z</time><pdop>4.0</pdop><geoidheight>50.60</geoidheight><course>42.6481</course><type>1</type></trkpt>
      <trkpt lat="39.39080397685654" lon="-5.9496102911817"><ele>3195</ele><speed>11.47</speed><time>2016-07-09T14:14:12Z</time><pdop>4.0</pdop><geoidheight>50.60</geoidheight><course>43.361225</course><type>1</type></trkpt>
      <trkpt lat="39.39087894027106" lon="-5.949519520347218"><ele>3194</ele><speed>10.98</speed><time>2016-07-09T14:14:13Z</time><pdop>4.0</pdop><geoidheight>50.60</geoidheight><course>44.15107</course><type>1</type></trkpt>
      <trkpt lat="39.39094973797394" lon="-5.94942902016967"><ele>3193</ele><speed>10.91</speed><time>2016-07-09T14:14:14Z</time><pdop>4.0</pdop><geoidheight>50.60</geoidheight><course>45.16684</course><type>1</type></trkpt>
      <trkpt lat="39.39101995296702" lon="-5.949337748367969"><ele>3192</ele><speed>11.47</speed><time>2016-07-09T14:14:14Z</time><pdop>4.0</pdop><geoidheight>50.60</geoidheight><course>46.111996</course><type>1</type></trkpt>
      <trkpt lat="39.39109493615694" lon="-5.949242748882081"><ele>3192</ele><speed>11.95</speed><time>2016-07-09T14:14:15Z</time><pdop>4.0</pdop><geoidheight>50.60</geoidheight><course>44.129387</course><type>1</type></trkpt>
      <trkpt lat="39.39119513541833" lon="-5.949177340567047"><ele>3191</ele><speed>12.01</speed><time>2016-07-09T14:14:17Z</time><pdop>6.0</pdop><geoidheight>50.60</geoidheight><course>25.485786</course><type>1</type></trkpt>
      <trkpt lat="39.391298020860276" lon="-5.94911785645397"><ele>3191</ele><speed>11.86</speed><time>2016-07-09T14:14:18Z</time><pdop>6.0</pdop><geoidheight>50.60</geoidheight><course>22.757603</course><type>1</type></trkpt>
      <trkpt lat="39.39147899811395" lon="-5.94901905808903"><ele>3190</ele><speed>11.59</speed><time>2016-07-09T14:14:20Z</time><pdop>6.0</pdop><geoidheight>50.60</geoidheight><course>24.374262</course><type>1</type></trkpt>
      <trkpt lat="39.39157352174582" lon="-5.948951982554528"><ele>3189</ele><speed>11.83</speed><time>2016-07-09T14:14:21Z</time><pdop>6.0</pdop><geoidheight>50.60</geoidheight><course>28.22095</course><type>1</type></trkpt>
      <trkpt lat="39.39166703601531" lon="-5.94887584546857"><ele>3188</ele><speed>11.67</speed><time>2016-07-09T14:14:22Z</time><pdop>6.0</pdop><geoidheight>50.60</geoidheight><course>30.29656</course><type>1</type></trkpt>
      <trkpt lat="39.39183165862865" lon="-5.948754714434363"><ele>3187</ele><speed>9.89</speed><time>2016-07-09T14:14:24Z</time><pdop>6.0</pdop><geoidheight>50.60</geoidheight><course>27.009188</course><type>1</type></trkpt>
      <trkpt lat="39.39196412270438" lon="-5.948672003573289"><ele>3187</ele><speed>8.34</speed><time>2016-07-09T14:14:26Z</time><pdop>6.0</pdop><geoidheight>50.60</geoidheight><course>25.42204</course><type>1</type></trkpt>
      <trkpt lat="39.39212020220689" lon="-5.948572211273125"><ele>3187</ele><speed>11.39</speed><time>2016-07-09T14:14:28Z</time><pdop>6.0</pdop><geoidheight>50.60</geoidheight><course>26.57801</course><type>1</type></trkpt>
      <trkpt lat="39.39231375170378" lon="-5.94845036674822"><ele>3185</ele><speed>12.23</speed><time>2016-07-09T14:14:30Z</time><pdop>6.0</pdop><geoidheight>50.60</geoidheight><course>25.537159</course><type>1</type></trkpt>
      <trkpt lat="39.39250274073225" lon="-5.948343253901727"><ele>3184</ele><speed>10.19</speed><time>2016-07-09T14:14:32Z</time><pdop>6.0</pdop><geoidheight>50.60</geoidheight><course>24.285156</course><type>1</type></trkpt>
      <trkpt lat="39.392668674019994" lon="-5.948249273979163"><ele>3183</ele><speed>9.96</speed><time>2016-07-09T14:14:33Z</time><pdop>4.0</pdop><geoidheight>50.60</geoidheight><course>25.12713</course><type>1</type></trkpt>
      <trkpt lat="39.39274834971465" lon="-5.948202313438112"><ele>3182</ele><speed>9.85</speed><time>2016-07-09T14:14:34Z</time><pdop>4.0</pdop><geoidheight>50.60</geoidheight><course>25.248539</course><type>1</type></trkpt>
      <trkpt lat="39.3928300335114" lon="-5.948152551433397"><ele>3181</ele><speed>10.15</speed><time>2016-07-09T14:14:36Z</time><pdop>4.0</pdop><geoidheight>50.60</geoidheight><course>24.712872</course><type>1</type></trkpt>
      <trkpt lat="39.39291389028269" lon="-5.948103506238611"><ele>3179</ele><speed>10.19</speed><time>2016-07-09T14:14:37Z</time><pdop>6.0</pdop><geoidheight>50.60</geoidheight><course>24.24206</course><type>1</type></trkpt>
      <trkpt lat="39.393074456233414" lon="-5.947999870868367"><ele>3177</ele><speed>10.15</speed><time>2016-07-09T14:14:39Z</time><pdop>6.0</pdop><geoidheight>50.60</geoidheight><course>28.2254</course><type>1</type></trkpt>
      <trkpt lat="39.3932381346676" lon="-5.947852686373504"><ele>3174</ele><speed>11.28</speed><time>2016-07-09T14:14:41Z</time><pdop>6.0</pdop><geoidheight>50.60</geoidheight><course>34.89352</course><type>1</type></trkpt>
      <trkpt lat="39.39339363393442" lon="-5.947688378877177"><ele>3170</ele><speed>11.75</speed><time>2016-07-09T14:14:43Z</time><pdop>6.0</pdop><geoidheight>50.60</geoidheight><course>37.10925</course><type>1</type></trkpt>
      <trkpt lat="39.39354348959048" lon="-5.947519781614783"><ele>3167</ele><speed>10.21</speed><time>2016-07-09T14:14:45Z</time><pdop>4.0</pdop><geoidheight>50.60</geoidheight><course>40.69796</course><type>1</type></trkpt>
      <trkpt lat="39.393604594584474" lon="-5.947438922187919"><ele>3166</ele><speed>9.42</speed><time>2016-07-09T14:14:46Z</time><pdop>4.0</pdop><geoidheight>50.60</geoidheight><course>43.70619</course><type>1</type></trkpt>
      <trkpt lat="39.39366126479041" lon="-5.947355869218748"><ele>3165</ele><speed>9.70</speed><time>2016-07-09T14:14:47Z</time><pdop>4.0</pdop><geoidheight>50.60</geoidheight><course>46.14156</course><type>1</type></trkpt>
      <trkpt lat="39.39372179191497" lon="-5.947263497651906"><ele>3163</ele><speed>10.36</speed><time>2016-07-09T14:14:48Z</time><pdop>4.0</pdop><geoidheight>50.60</geoidheight><course>47.480465</course><type>1</type></trkpt>
      <trkpt lat="39.393781914421915" lon="-5.947172655194835"><ele>3162</ele><speed>11.09</speed><time>2016-07-09T14:14:49Z</time><pdop>4.0</pdop><geoidheight>50.60</geoidheight><course>46.814182</course><type>1</type></trkpt>
      <trkpt lat="39.393849336998834" lon="-5.947078144309253"><ele>3160</ele><speed>12.24</speed><time>2016-07-09T14:14:50Z</time><pdop>4.0</pdop><geoidheight>50.60</geoidheight><course>46.069103</course><type>1</type></trkpt>
      <trkpt lat="39.393918553403914" lon="-5.946986897634945"><ele>3158</ele><speed>11.92</speed><time>2016-07-09T14:14:50Z</time><pdop>6.0</pdop><geoidheight>50.60</geoidheight><course>45.031364</course><type>1</type></trkpt>
      <trkpt lat="39.393990444749775" lon="-5.946895875186227"><ele>3156</ele><speed>11.15</speed><time>2016-07-09T14:14:51Z</time><pdop>4.0</pdop><geoidheight>50.60</geoidheight><course>44.21192</course><type>1</type></trkpt>
      <trkpt lat="39.394058768603145" lon="-5.946814972647482"><ele>3155</ele><speed>9.82</speed><time>2016-07-09T14:14:53Z</time><pdop>6.0</pdop><geoidheight>50.60</geoidheight><course>43.540028</course><type>1</type></trkpt>
      <trkpt lat="39.39419483198733" lon="-5.946661190845865"><ele>3154</ele><speed>9.91</speed><time>2016-07-09T14:14:55Z</time><pdop>6.0</pdop><geoidheight>50.60</geoidheight><course>41.770317</course><type>1</type></trkpt>
      <trkpt lat="39.39427032449208" lon="-5.946577291427599"><ele>3153</ele><speed>11.56</speed><time>2016-07-09T14:14:56Z</time><pdop>4.0</pdop><geoidheight>50.60</geoidheight><course>40.875587</course><type>1</type></trkpt>
      <trkpt lat="39.39435242004415" lon="-5.946488747851773"><ele>3151</ele><speed>12.66</speed><time>2016-07-09T14:14:57Z</time><pdop>4.0</pdop><geoidheight>50.60</geoidheight><course>40.273834</course><type>1</type></trkpt>
      <trkpt lat="39.394438348310175" lon="-5.946396324986392"><ele>3149</ele><speed>12.57</speed><time>2016-07-09T14:14:58Z</time><pdop>8.0</pdop><geoidheight>50.60</geoidheight><course>39.842613</course><type>1</type></trkpt>
      <trkpt lat="39.39458795673177" lon="-5.946242036961945"><ele>3146</ele><speed>9.53</speed><time>2016-07-09T14:15:00Z</time><pdop>6.0</pdop><geoidheight>50.60</geoidheight><course>38.531506</course><type>1</type></trkpt>
      <trkpt lat="39.39471871238888" lon="-5.946108547340023"><ele>3143</ele><speed>9.73</speed><time>2016-07-09T14:15:02Z</time><pdop>6.0</pdop><geoidheight>50.60</geoidheight><course>38.478466</course><type>1</type></trkpt>
      <trkpt lat="39.39487212959998" lon="-5.945954600098348"><ele>3138</ele><speed>12.09</speed><time>2016-07-09T14:15:04Z</time><pdop>6.0</pdop><geoidheight>50.60</geoidheight><course>39.26122</course><type>1</type></trkpt>
      <trkpt lat="39.39502649364514" lon="-5.945774678276532"><ele>3132</ele><speed>9.45</speed><time>2016-07-09T14:15:06Z</time><pdop>6.0</pdop><geoidheight>50.60</geoidheight><course>43.914913</course><type>1</type></trkpt>
      <trkpt lat="39.39513558537439" lon="-5.9456268646606425"><ele>3127</ele><speed>8.24</speed><time>2016-07-09T14:15:08Z</time><pdop>6.0</pdop><geoidheight>50.60</geoidheight><course>47.8327</course><type>1</type></trkpt>
      <trkpt lat="39.395236437074175" lon="-5.945473169412115"><ele>3121</ele><speed>12.21</speed><time>2016-07-09T14:15:10Z</time><pdop>6.0</pdop><geoidheight>50.60</geoidheight><course>49.01446</course><type>1</type></trkpt>
      <trkpt lat="39.39536920941853" lon="-5.945279552344642"><ele>3113</ele><speed>13.04</speed><time>2016-07-09T14:15:12Z</time><pdop>6.0</pdop><geoidheight>50.60</geoidheight><course>48.895576</course><type>1</type></trkpt>
      <trkpt lat="39.3955255888194" lon="-5.945116742917967"><ele>3107</ele><speed>10.40</speed><time>2016-07-09T14:15:14Z</time><pdop>6.0</pdop><geoidheight>50.60</geoidheight><course>30.86474</course><type>1</type></trkpt>
      <trkpt lat="39.39563982636178" lon="-5.9450239944108265"><ele>3101</ele><speed>7.58</speed><time>2016-07-09T14:15:16Z</time><pdop>6.0</pdop><geoidheight>50.60</geoidheight><course>35.459854</course><type>1</type></trkpt>
      <trkpt lat="39.39576790547557" lon="-5.944883591286894"><ele>3094</ele><speed>10.81</speed><time>2016-07-09T14:15:18Z</time><pdop>6.0</pdop><geoidheight>50.60</geoidheight><course>40.707478</course><type>1</type></trkpt>
      <trkpt lat="39.39592284844439" lon="-5.94471350499277"><ele>3086</ele><speed>12.04</speed><time>2016-07-09T14:15:20Z</time><pdop>6.0</pdop><geoidheight>50.60</geoidheight><course>39.17025</course><type>1</type></trkpt>
      <trkpt lat="39.39607524857879" lon="-5.944573519041309"><ele>3079</ele><speed>10.09</speed><time>2016-07-09T14:15:22Z</time><pdop>6.0</pdop><geoidheight>50.60</geoidheight><course>35.536224</course><type>1</type></trkpt>
      <trkpt lat="39.396211103384" lon="-5.944448701861246"><ele>3072</ele><speed>10.16</speed><time>2016-07-09T14:15:24Z</time><pdop>6.0</pdop><geoidheight>50.60</geoidheight><course>37.16193</course><type>1</type></trkpt>
      <trkpt lat="39.39635628632805" lon="-5.944308781344252"><ele>3064</ele><speed>9.92</speed><time>2016-07-09T14:15:26Z</time><pdop>6.0</pdop><geoidheight>50.60</geoidheight><course>37.066685</course><type>1</type></trkpt>
      <trkpt lat="39.39646384056126" lon="-5.944167667146566"><ele>3057</ele><speed>8.07</speed><time>2016-07-09T14:15:28Z</time><pdop>4.0</pdop><geoidheight>50.60</geoidheight><course>54.64366</course><type>1</type></trkpt>
      <trkpt lat="39.39650954310726" lon="-5.944083509712776"><ele>3053</ele><speed>9.76</speed><time>2016-07-09T14:15:29Z</time><pdop>4.0</pdop><geoidheight>50.60</geoidheight><course>56.596897</course><type>1</type></trkpt>
      <trkpt lat="39.39656009625383" lon="-5.9439872891330765"><ele>3050</ele><speed>11.02</speed><time>2016-07-09T14:15:30Z</time><pdop>4.0</pdop><geoidheight>50.60</geoidheight><course>56.175694</course><type>1</type></trkpt>
      <trkpt lat="39.39661857933725" lon="-5.943884377726254"><ele>3047</ele><speed>11.84</speed><time>2016-07-09T14:15:31Z</time><pdop>6.0</pdop><geoidheight>50.60</geoidheight><course>55.279804</course><type>1</type></trkpt>
      <trkpt lat="39.396725153593735" lon="-5.943709377916387"><ele>3040</ele><speed>10.66</speed><time>2016-07-09T14:15:33Z</time><pdop>6.0</pdop><geoidheight>50.60</geoidheight><course>55.27948</course><type>1</type></trkpt>
      <trkpt lat="39.39682490452038" lon="-5.943533602217157"><ele>3032</ele><speed>10.14</speed><time>2016-07-09T14:15:35Z</time><pdop>4.0</pdop><geoidheight>50.60</geoidheight><course>55.654316</course><type>1</type></trkpt>
      <trkpt lat="39.39687897512295" lon="-5.943444520666021"><ele>3028</ele><speed>11.66</speed><time>2016-07-09T14:15:36Z</time><pdop>4.0</pdop><geoidheight>50.60</geoidheight><course>54.78715</course><type>1</type></trkpt>
      <trkpt lat="39.39694034371321" lon="-5.943350367511175"><ele>3024</ele><speed>12.60</speed><time>2016-07-09T14:15:37Z</time><pdop>4.0</pdop><geoidheight>50.60</geoidheight><course>53.028286</course><type>1</type></trkpt>
      <trkpt lat="39.397007555787255" lon="-5.943256463711232"><ele>3020</ele><speed>13.00</speed><time>2016-07-09T14:15:38Z</time><pdop>4.0</pdop><geoidheight>50.60</geoidheight><course>51.409203</course><type>1</type></trkpt>
      <trkpt lat="39.397081569638786" lon="-5.943160035022654"><ele>3016</ele><speed>12.01</speed><time>2016-07-09T14:15:39Z</time><pdop>4.0</pdop><geoidheight>50.60</geoidheight><course>50.0174</course><type>1</type></trkpt>
      <trkpt lat="39.39715890357061" lon="-5.943054751687592"><ele>3013</ele><speed>11.49</speed><time>2016-07-09T14:15:40Z</time><pdop>4.0</pdop><geoidheight>50.60</geoidheight><course>49.23002</course><type>1</type></trkpt>
      <trkpt lat="39.39721888878407" lon="-5.942971685757802"><ele>3009</ele><speed>10.93</speed><time>2016-07-09T14:15:41Z</time><pdop>4.0</pdop><geoidheight>50.60</geoidheight><course>49.589703</course><type>1</type></trkpt>
      <trkpt lat="39.39728258347863" lon="-5.942881992480622"><ele>3006</ele><speed>11.04</speed><time>2016-07-09T14:15:42Z</time><pdop>4.0</pdop><geoidheight>50.60</geoidheight><course>49.16175</course><type>1</type></trkpt>
      <trkpt lat="39.39735220408714" lon="-5.942788920635337"><ele>3003</ele><speed>11.19</speed><time>2016-07-09T14:15:43Z</time><pdop>4.0</pdop><geoidheight>50.60</geoidheight><course>48.577595</course><type>1</type></trkpt>
      <trkpt lat="39.3974218755432" lon="-5.942696120280762"><ele>3000</ele><speed>11.07</speed><time>2016-07-09T14:15:44Z</time><pdop>6.0</pdop><geoidheight>50.60</geoidheight><course>48.6132</course><type>1</type></trkpt>
      <trkpt lat="39.3974925648378" lon="-5.942601025186668"><ele>2998</ele><speed>10.99</speed><time>2016-07-09T14:15:45Z</time><pdop>4.0</pdop><geoidheight>50.60</geoidheight><course>49.257042</course><type>1</type></trkpt>
      <trkpt lat="39.39756014202952" lon="-5.942504541034706"><ele>2995</ele><speed>11.04</speed><time>2016-07-09T14:15:46Z</time><pdop>4.0</pdop><geoidheight>50.60</geoidheight><course>50.00453</course><type>1</type></trkpt>
      <trkpt lat="39.39762567112515" lon="-5.942408142911834"><ele>2992</ele><speed>11.31</speed><time>2016-07-09T14:15:47Z</time><pdop>4.0</pdop><geoidheight>50.60</geoidheight><course>50.820103</course><type>1</type></trkpt>
      <trkpt lat="39.39769149430345" lon="-5.942304062971671"><ele>2989</ele><speed>11.79</speed><time>2016-07-09T14:15:48Z</time><pdop>4.0</pdop><geoidheight>50.60</geoidheight><course>51.724224</course><type>1</type></trkpt>
      <trkpt lat="39.397757930108824" lon="-5.942197707047936"><ele>2987</ele><speed>12.03</speed><time>2016-07-09T14:15:49Z</time><pdop>4.0</pdop><geoidheight>50.60</geoidheight><course>52.11796</course><type>1</type></trkpt>
      <trkpt lat="39.39782087920195" lon="-5.942092529904665"><ele>2984</ele><speed>12.08</speed><time>2016-07-09T14:15:50Z</time><pdop>4.0</pdop><geoidheight>50.60</geoidheight><course>51.481117</course><type>1</type></trkpt>
      <trkpt lat="39.39795214397711" lon="-5.94188694747022"><ele>2979</ele><speed>11.18</speed><time>2016-07-09T14:15:52Z</time><pdop>4.0</pdop><geoidheight>50.60</geoidheight><course>49.53729</course><type>1</type></trkpt>
      <trkpt lat="39.39801504579051" lon="-5.941796256303442"><ele>2976</ele><speed>10.64</speed><time>2016-07-09T14:15:53Z</time><pdop>4.0</pdop><geoidheight>50.60</geoidheight><course>48.356804</course><type>1</type></trkpt>
      <trkpt lat="39.39807872623139" lon="-5.941704997366482"><ele>2974</ele><speed>11.21</speed><time>2016-07-09T14:15:54Z</time><pdop>6.0</pdop><geoidheight>50.60</geoidheight><course>49.290188</course><type>1</type></trkpt>
      <trkpt lat="39.398145405051494" lon="-5.941611301375241"><ele>2972</ele><speed>11.30</speed><time>2016-07-09T14:15:55Z</time><pdop>4.0</pdop><geoidheight>50.60</geoidheight><course>49.30946</course><type>1</type></trkpt>
      <trkpt lat="39.39821282675585" lon="-5.941510984090407"><ele>2969</ele><speed>12.05</speed><time>2016-07-09T14:15:56Z</time><pdop>4.0</pdop><geoidheight>50.60</geoidheight><course>49.93054</course><type>1</type></trkpt>
      <trkpt lat="39.398279968391556" lon="-5.941409527266339"><ele>2967</ele><speed>12.25</speed><time>2016-07-09T14:15:57Z</time><pdop>4.0</pdop><geoidheight>50.60</geoidheight><course>50.620964</course><type>1</type></trkpt>
      <trkpt lat="39.39834926400982" lon="-5.94130490781161"><ele>2964</ele><speed>12.39</speed><time>2016-07-09T14:15:58Z</time><pdop>4.0</pdop><geoidheight>50.60</geoidheight><course>50.280922</course><type>1</type></trkpt>
      <trkpt lat="39.398418005871996" lon="-5.941203626465045"><ele>2961</ele><speed>11.88</speed><time>2016-07-09T14:15:59Z</time><pdop>4.0</pdop><geoidheight>50.60</geoidheight><course>49.896915</course><type>1</type></trkpt>
      <trkpt lat="39.39848491710257" lon="-5.941106555139417"><ele>2959</ele><speed>11.36</speed><time>2016-07-09T14:16:00Z</time><pdop>4.0</pdop><geoidheight>50.60</geoidheight><course>48.9841</course><type>1</type></trkpt>
      <trkpt lat="39.39855745072429" lon="-5.94100427665066"><ele>2957</ele><speed>11.86</speed><time>2016-07-09T14:16:01Z</time><pdop>4.0</pdop><geoidheight>50.60</geoidheight><course>48.515644</course><type>1</type></trkpt>
      <trkpt lat="39.39863003613625" lon="-5.94090173044844"><ele>2954</ele><speed>12.32</speed><time>2016-07-09T14:16:02Z</time><pdop>4.0</pdop><geoidheight>50.60</geoidheight><course>48.940544</course><type>1</type></trkpt>
      <trkpt lat="39.398699513755716" lon="-5.94080561703029"><ele>2952</ele><speed>12.65</speed><time>2016-07-09T14:16:02Z</time><pdop>4.0</pdop><geoidheight>50.60</geoidheight><course>49.009384</course><type>1</type></trkpt>
      <trkpt lat="39.39877319003367" lon="-5.940702648923637"><ele>2949</ele><speed>12.40</speed><time>2016-07-09T14:16:03Z</time><pdop>4.0</pdop><geoidheight>50.60</geoidheight><course>48.46796</course><type>1</type></trkpt>
      <trkpt lat="39.39885172512257" lon="-5.940591460201383"><ele>2947</ele><speed>11.96</speed><time>2016-07-09T14:16:05Z</time><pdop>6.0</pdop><geoidheight>50.60</geoidheight><course>47.504574</course><type>1</type></trkpt>
      <trkpt lat="39.398925210188544" lon="-5.940487579108038"><ele>2945</ele><speed>11.79</speed><time>2016-07-09T14:16:06Z</time><pdop>6.0</pdop><geoidheight>50.60</geoidheight><course>46.576508</course><type>1</type></trkpt>
      <trkpt lat="39.39906532475987" lon="-5.940305840672431"><ele>2942</ele><speed>11.93</speed><time>2016-07-09T14:16:08Z</time><pdop>6.0</pdop><geoidheight>50.60</geoidheight><course>45.44492</course><type>1</type></trkpt>
      <trkpt lat="39.399211438521476" lon="-5.940117052282718"><ele>2937</ele><speed>12.79</speed><time>2016-07-09T14:16:09Z</time><pdop>6.0</pdop><geoidheight>50.60</geoidheight><course>45.9806</course><type>1</type></trkpt>
      <trkpt lat="39.39936343637567" lon="-5.939911497668238"><ele>2933</ele><speed>12.11</speed><time>2016-07-09T14:16:12Z</time><pdop>6.0</pdop><geoidheight>50.60</geoidheight><course>45.814358</course><type>1</type></trkpt>
      <trkpt lat="39.399441030235664" lon="-5.939813077252505"><ele>2930</ele><speed>12.34</speed><time>2016-07-09T14:16:13Z</time><pdop>6.0</pdop><geoidheight>50.60</geoidheight><course>44.3852</course><type>1</type></trkpt>
      <trkpt lat="39.39959955058787" lon="-5.939626594985874"><ele>2924</ele><speed>12.65</speed><time>2016-07-09T14:16:15Z</time><pdop>6.0</pdop><geoidheight>50.60</geoidheight><course>42.0184</course><type>1</type></trkpt>
      <trkpt lat="39.39968510192221" lon="-5.939533510529921"><ele>2921</ele><speed>12.64</speed><time>2016-07-09T14:16:16Z</time><pdop>4.0</pdop><geoidheight>50.60</geoidheight><course>41.727806</course><type>1</type></trkpt>
      <trkpt lat="39.3997694949212" lon="-5.939443710110087"><ele>2919</ele><speed>11.98</speed><time>2016-07-09T14:16:17Z</time><pdop>4.0</pdop><geoidheight>50.60</geoidheight><course>42.299946</course><type>1</type></trkpt>
      <trkpt lat="39.39985084778322" lon="-5.939357415944784"><ele>2916</ele><speed>11.58</speed><time>2016-07-09T14:16:18Z</time><pdop>4.0</pdop><geoidheight>50.60</geoidheight><course>42.153976</course><type>1</type></trkpt>
      <trkpt lat="39.399929596701064" lon="-5.9392740872108325"><ele>2914</ele><speed>11.84</speed><time>2016-07-09T14:16:19Z</time><pdop>4.0</pdop><geoidheight>50.60</geoidheight><course>42.247417</course><type>1</type></trkpt>
      <trkpt lat="39.400010010332046" lon="-5.939188022661314"><ele>2911</ele><speed>12.09</speed><time>2016-07-09T14:16:20Z</time><pdop>4.0</pdop><geoidheight>50.60</geoidheight><course>41.903137</course><type>1</type></trkpt>
      <trkpt lat="39.40009779537547" lon="-5.939094435006079"><ele>2908</ele><speed>13.01</speed><time>2016-07-09T14:16:21Z</time><pdop>4.0</pdop><geoidheight>50.60</geoidheight><course>41.331264</course><type>1</type></trkpt>
      <trkpt lat="39.400187339643026" lon="-5.938998546422392"><ele>2905</ele><speed>13.25</speed><time>2016-07-09T14:16:22Z</time><pdop>4.0</pdop><geoidheight>50.60</geoidheight><course>41.525433</course><type>1</type></trkpt>
      <trkpt lat="39.40027768103533" lon="-5.93890515254403"><ele>2902</ele><speed>12.76</speed><time>2016-07-09T14:16:23Z</time><pdop>4.0</pdop><geoidheight>50.60</geoidheight><course>40.714737</course><type>1</type></trkpt>
      <trkpt lat="39.40036493889444" lon="-5.938815292417842"><ele>2900</ele><speed>12.48</speed><time>2016-07-09T14:16:24Z</time><pdop>4.0</pdop><geoidheight>50.60</geoidheight><course>40.101463</course><type>1</type></trkpt>
      <trkpt lat="39.40045218300877" lon="-5.938730896363708"><ele>2897</ele><speed>12.56</speed><time>2016-07-09T14:16:25Z</time><pdop>4.0</pdop><geoidheight>50.60</geoidheight><course>39.219723</course><type>1</type></trkpt>
      <trkpt lat="39.40053049852201" lon="-5.938656176485847"><ele>2894</ele><speed>12.37</speed><time>2016-07-09T14:16:26Z</time><pdop>4.0</pdop><geoidheight>50.60</geoidheight><course>37.794865</course><type>1</type></trkpt>
      <trkpt lat="39.4006138334878" lon="-5.938576457803041"><ele>2891</ele><speed>12.50</speed><time>2016-07-09T14:16:27Z</time><pdop>4.0</pdop><geoidheight>50.60</geoidheight><course>36.95477</course><type>1</type></trkpt>
      <trkpt lat="39.40070240773142" lon="-5.938492860638438"><ele>2889</ele><speed>12.51</speed><time>2016-07-09T14:16:28Z</time><pdop>4.0</pdop><geoidheight>50.60</geoidheight><course>37.004597</course><type>1</type></trkpt>
      <trkpt lat="39.4007926518433" lon="-5.93840697527897"><ele>2886</ele><speed>12.57</speed><time>2016-07-09T14:16:29Z</time><pdop>4.0</pdop><geoidheight>50.60</geoidheight><course>37.529938</course><type>1</type></trkpt>
      <trkpt lat="39.400882885169295" lon="-5.938319713258197"><ele>2883</ele><speed>12.30</speed><time>2016-07-09T14:16:30Z</time><pdop>4.0</pdop><geoidheight>50.60</geoidheight><course>38.52482</course><type>1</type></trkpt>
      <trkpt lat="39.40096754754313" lon="-5.938230664116131"><ele>2880</ele><speed>11.83</speed><time>2016-07-09T14:16:31Z</time><pdop>4.0</pdop><geoidheight>50.60</geoidheight><course>39.588318</course><type>1</type></trkpt>
      <trkpt lat="39.40104750938183" lon="-5.938141688945813"><ele>2877</ele><speed>11.40</speed><time>2016-07-09T14:16:32Z</time><pdop>4.0</pdop><geoidheight>50.60</geoidheight><course>40.654343</course><type>1</type></trkpt>
      <trkpt lat="39.40112586270915" lon="-5.938050243120561"><ele>2874</ele><speed>12.00</speed><time>2016-07-09T14:16:33Z</time><pdop>4.0</pdop><geoidheight>50.60</geoidheight><course>42.021194</course><type>1</type></trkpt>
      <trkpt lat="39.40120393969411" lon="-5.937959758053873"><ele>2872</ele><speed>11.74</speed><time>2016-07-09T14:16:34Z</time><pdop>4.0</pdop><geoidheight>50.60</geoidheight><course>41.18712</course><type>1</type></trkpt>
      <trkpt lat="39.40128689764769" lon="-5.937870356191985"><ele>2869</ele><speed>12.21</speed><time>2016-07-09T14:16:35Z</time><pdop>4.0</pdop><geoidheight>50.60</geoidheight><course>40.32693</course><type>1</type></trkpt>
      <trkpt lat="39.401370623185024" lon="-5.937780797726299"><ele>2865</ele><speed>12.55</speed><time>2016-07-09T14:16:36Z</time><pdop>4.0</pdop><geoidheight>50.60</geoidheight><course>39.850586</course><type>1</type></trkpt>
      <trkpt lat="39.40145727212149" lon="-5.937688234862541"><ele>2862</ele><speed>12.49</speed><time>2016-07-09T14:16:37Z</time><pdop>4.0</pdop><geoidheight>50.60</geoidheight><course>40.38726</course><type>1</type></trkpt>
      <trkpt lat="39.40153749224841" lon="-5.9375980250991"><ele>2859</ele><speed>12.25</speed><time>2016-07-09T14:16:38Z</time><pdop>4.0</pdop><geoidheight>50.60</geoidheight><course>41.442566</course><type>1</type></trkpt>
      <trkpt lat="39.40161762289602" lon="-5.9375029388407565"><ele>2856</ele><speed>12.50</speed><time>2016-07-09T14:16:39Z</time><pdop>4.0</pdop><geoidheight>50.60</geoidheight><course>42.839123</course><type>1</type></trkpt>
      <trkpt lat="39.401694464264786" lon="-5.937410036729678"><ele>2853</ele><speed>12.31</speed><time>2016-07-09T14:16:40Z</time><pdop>6.0</pdop><geoidheight>50.60</geoidheight><course>43.49654</course><type>1</type></trkpt>
      <trkpt lat="39.401850087100186" lon="-5.937225616941374"><ele>2848</ele><speed>12.19</speed><time>2016-07-09T14:16:42Z</time><pdop>4.0</pdop><geoidheight>50.60</geoidheight><course>42.660965</course><type>1</type></trkpt>
      <trkpt lat="39.40192920790953" lon="-5.937133795289163"><ele>2845</ele><speed>12.84</speed><time>2016-07-09T14:16:43Z</time><pdop>4.0</pdop><geoidheight>50.60</geoidheight><course>43.716915</course><type>1</type></trkpt>
      <trkpt lat="39.40200459371743" lon="-5.937038217211951"><ele>2842</ele><speed>13.14</speed><time>2016-07-09T14:16:44Z</time><pdop>4.0</pdop><geoidheight>50.60</geoidheight><course>45.109158</course><type>1</type></trkpt>
      <trkpt lat="39.40208110018966" lon="-5.936941831336719"><ele>2839</ele><speed>12.93</speed><time>2016-07-09T14:16:45Z</time><pdop>4.0</pdop><geoidheight>50.60</geoidheight><course>45.59743</course><type>1</type></trkpt>
      <trkpt lat="39.40215539462581" lon="-5.936849365193424"><ele>2836</ele><speed>12.53</speed><time>2016-07-09T14:16:46Z</time><pdop>4.0</pdop><geoidheight>50.60</geoidheight><course>44.47684</course><type>1</type></trkpt>
      <trkpt lat="39.40223411272696" lon="-5.936757489057671"><ele>2833</ele><speed>13.11</speed><time>2016-07-09T14:16:47Z</time><pdop>4.0</pdop><geoidheight>50.60</geoidheight><course>43.631847</course><type>1</type></trkpt>
      <trkpt lat="39.4023181576134" lon="-5.9366649773101905"><ele>2830</ele><speed>13.07</speed><time>2016-07-09T14:16:48Z</time><pdop>6.0</pdop><geoidheight>50.60</geoidheight><course>42.553764</course><type>1</type></trkpt>
      <trkpt lat="39.40240735142332" lon="-5.936567152522632"><ele>2827</ele><speed>13.22</speed><time>2016-07-09T14:16:49Z</time><pdop>4.0</pdop><geoidheight>50.60</geoidheight><course>42.029137</course><type>1</type></trkpt>
      <trkpt lat="39.40249902643779" lon="-5.936471573964614"><ele>2824</ele><speed>12.86</speed><time>2016-07-09T14:16:50Z</time><pdop>4.0</pdop><geoidheight>50.60</geoidheight><course>41.220722</course><type>1</type></trkpt>
      <trkpt lat="39.40258799092001" lon="-5.936383664149839"><ele>2821</ele><speed>12.23</speed><time>2016-07-09T14:16:51Z</time><pdop>4.0</pdop><geoidheight>50.60</geoidheight><course>39.592003</course><type>1</type></trkpt>
      <trkpt lat="39.402673393533235" lon="-5.936298940062369"><ele>2819</ele><speed>12.18</speed><time>2016-07-09T14:16:52Z</time><pdop>4.0</pdop><geoidheight>50.60</geoidheight><course>38.80506</course><type>1</type></trkpt>
      <trkpt lat="39.40276160821475" lon="-5.936211003609542"><ele>2817</ele><speed>12.50</speed><time>2016-07-09T14:16:53Z</time><pdop>4.0</pdop><geoidheight>50.60</geoidheight><course>39.446228</course><type>1</type></trkpt>
      <trkpt lat="39.40285322124685" lon="-5.936116631128257"><ele>2815</ele><speed>13.10</speed><time>2016-07-09T14:16:54Z</time><pdop>4.0</pdop><geoidheight>50.60</geoidheight><course>40.353764</course><type>1</type></trkpt>
      <trkpt lat="39.402945015643276" lon="-5.936016160174266"><ele>2814</ele><speed>13.38</speed><time>2016-07-09T14:16:55Z</time><pdop>4.0</pdop><geoidheight>50.60</geoidheight><course>41.04153</course><type>1</type></trkpt>
      <trkpt lat="39.40303365139689" lon="-5.935920142999181"><ele>2812</ele><speed>12.44</speed><time>2016-07-09T14:16:56Z</time><pdop>4.0</pdop><geoidheight>50.60</geoidheight><course>40.67903</course><type>1</type></trkpt>
      <trkpt lat="39.40311548897734" lon="-5.935832029144712"><ele>2810</ele><speed>11.49</speed><time>2016-07-09T14:16:57Z</time><pdop>4.0</pdop><geoidheight>50.60</geoidheight><course>40.16263</course><type>1</type></trkpt>
      <trkpt lat="39.40319226934123" lon="-5.935752863992787"><ele>2809</ele><speed>10.67</speed><time>2016-07-09T14:16:58Z</time><pdop>4.0</pdop><geoidheight>50.60</geoidheight><course>39.568886</course><type>1</type></trkpt>
      <trkpt lat="39.40326604396399" lon="-5.93567646592206"><ele>2808</ele><speed>10.34</speed><time>2016-07-09T14:16:59Z</time><pdop>4.0</pdop><geoidheight>50.60</geoidheight><course>39.19642</course><type>1</type></trkpt>
      <trkpt lat="39.40333975432804" lon="-5.935600304291807"><ele>2807</ele><speed>10.68</speed><time>2016-07-09T14:17:00Z</time><pdop>4.0</pdop><geoidheight>50.60</geoidheight><course>38.579132</course><type>1</type></trkpt>
      <trkpt lat="39.40349927489875" lon="-5.9354492729744655"><ele>2805</ele><speed>11.11</speed><time>2016-07-09T14:17:02Z</time><pdop>4.0</pdop><geoidheight>50.60</geoidheight><course>36.800674</course><type>1</type></trkpt>
      <trkpt lat="39.403578210204564" lon="-5.93537371668385"><ele>2804</ele><speed>10.61</speed><time>2016-07-09T14:17:03Z</time><pdop>4.0</pdop><geoidheight>50.60</geoidheight><course>37.712154</course><type>1</type></trkpt>
      <trkpt lat="39.40365280356283" lon="-5.935297747381774"><ele>2802</ele><speed>9.96</speed><time>2016-07-09T14:17:04Z</time><pdop>4.0</pdop><geoidheight>50.60</geoidheight><course>38.901962</course><type>1</type></trkpt>
      <trkpt lat="39.40372420797384" lon="-5.935223250642484"><ele>2801</ele><speed>10.05</speed><time>2016-07-09T14:17:05Z</time><pdop>4.0</pdop><geoidheight>50.60</geoidheight><course>39.484253</course><type>1</type></trkpt>
      <trkpt lat="39.40379432276377" lon="-5.935144842334506"><ele>2800</ele><speed>10.52</speed><time>2016-07-09T14:17:06Z</time><pdop>4.0</pdop><geoidheight>50.60</geoidheight><course>40.568283</course><type>1</type></trkpt>
      <trkpt lat="39.40386191304736" lon="-5.935057559389576"><ele>2798</ele><speed>10.61</speed><time>2016-07-09T14:17:07Z</time><pdop>4.0</pdop><geoidheight>50.60</geoidheight><course>44.27634</course><type>1</type></trkpt>
      <trkpt lat="39.4039033269887" lon="-5.934945633642485"><ele>2796</ele><speed>11.04</speed><time>2016-07-09T14:17:08Z</time><pdop>4.0</pdop><geoidheight>50.60</geoidheight><course>65.29172</course><type>1</type></trkpt>
      <trkpt lat="39.40394170580367" lon="-5.934832396380599"><ele>2795</ele><speed>11.00</speed><time>2016-07-09T14:17:09Z</time><pdop>4.0</pdop><geoidheight>50.60</geoidheight><course>66.68923</course><type>1</type></trkpt>
      <trkpt lat="39.403979609304734" lon="-5.934717633420752"><ele>2793</ele><speed>11.25</speed><time>2016-07-09T14:17:10Z</time><pdop>6.0</pdop><geoidheight>50.60</geoidheight><course>66.524254</course><type>1</type></trkpt>
      <trkpt lat="39.40406713284881" lon="-5.934508736312185"><ele>2790</ele><speed>9.64</speed><time>2016-07-09T14:17:12Z</time><pdop>4.0</pdop><geoidheight>50.60</geoidheight><course>60.32893</course><type>1</type></trkpt>
      <trkpt lat="39.4041132649811" lon="-5.934421652978444"><ele>2788</ele><speed>9.20</speed><time>2016-07-09T14:17:13Z</time><pdop>4.0</pdop><geoidheight>50.60</geoidheight><course>57.49462</course><type>1</type></trkpt>
      <trkpt lat="39.40416024384246" lon="-5.934336816884975"><ele>2787</ele><speed>9.35</speed><time>2016-07-09T14:17:14Z</time><pdop>4.0</pdop><geoidheight>50.60</geoidheight><course>56.396496</course><type>1</type></trkpt>
      <trkpt lat="39.40420985747377" lon="-5.934248452209615"><ele>2786</ele><speed>9.54</speed><time>2016-07-09T14:17:15Z</time><pdop>4.0</pdop><geoidheight>50.60</geoidheight><course>56.332</course><type>1</type></trkpt>
      <trkpt lat="39.40431306141981" lon="-5.934059733726644"><ele>2783</ele><speed>9.87</speed><time>2016-07-09T14:17:17Z</time><pdop>8.0</pdop><geoidheight>50.60</geoidheight><course>57.406395</course><type>1</type></trkpt>
      <trkpt lat="39.404410706869584" lon="-5.9338694167053205"><ele>2781</ele><speed>10.41</speed><time>2016-07-09T14:17:19Z</time><pdop>4.0</pdop><geoidheight>50.60</geoidheight><course>56.97139</course><type>1</type></trkpt>
      <trkpt lat="39.40446139155066" lon="-5.93377056280772"><ele>2779</ele><speed>10.88</speed><time>2016-07-09T14:17:20Z</time><pdop>4.0</pdop><geoidheight>50.60</geoidheight><course>56.51259</course><type>1</type></trkpt>
      <trkpt lat="39.404514760195696" lon="-5.9336684977372265"><ele>2778</ele><speed>11.19</speed><time>2016-07-09T14:17:21Z</time><pdop>6.0</pdop><geoidheight>50.60</geoidheight><course>56.864944</course><type>1</type></trkpt>
      <trkpt lat="39.40456976116515" lon="-5.933562388771419"><ele>2777</ele><speed>11.22</speed><time>2016-07-09T14:17:22Z</time><pdop>4.0</pdop><geoidheight>50.60</geoidheight><course>57.662743</course><type>1</type></trkpt>
      <trkpt lat="39.404621905689794" lon="-5.933454844330884"><ele>2775</ele><speed>11.00</speed><time>2016-07-09T14:17:23Z</time><pdop>4.0</pdop><geoidheight>50.60</geoidheight><course>58.616867</course><type>1</type></trkpt>
      <trkpt lat="39.404671743275806" lon="-5.933348853185478"><ele>2774</ele><speed>10.52</speed><time>2016-07-09T14:17:24Z</time><pdop>4.0</pdop><geoidheight>50.60</geoidheight><course>59.317364</course><type>1</type></trkpt>
      <trkpt lat="39.40472058500355" lon="-5.933245027699456"><ele>2773</ele><speed>10.21</speed><time>2016-07-09T14:17:25Z</time><pdop>4.0</pdop><geoidheight>50.60</geoidheight><course>58.86753</course><type>1</type></trkpt>
      <trkpt lat="39.40481870291877" lon="-5.933057476412391"><ele>2772</ele><speed>9.67</speed><time>2016-07-09T14:17:27Z</time><pdop>4.0</pdop><geoidheight>50.60</geoidheight><course>55.680637</course><type>1</type></trkpt>
      <trkpt lat="39.40487303439009" lon="-5.932966338906328"><ele>2771</ele><speed>10.29</speed><time>2016-07-09T14:17:28Z</time><pdop>4.0</pdop><geoidheight>50.60</geoidheight><course>53.5072</course><type>1</type></trkpt>
      <trkpt lat="39.40498955731727" lon="-5.932794999581151"><ele>2769</ele><speed>11.23</speed><time>2016-07-09T14:17:29Z</time><pdop>4.0</pdop><geoidheight>50.60</geoidheight><course>46.961964</course><type>1</type></trkpt>
      <trkpt lat="39.405057473348116" lon="-5.932715776824622"><ele>2768</ele><speed>11.69</speed><time>2016-07-09T14:17:31Z</time><pdop>6.0</pdop><geoidheight>50.60</geoidheight><course>43.13409</course><type>1</type></trkpt>
      <trkpt lat="39.4052228214634" lon="-5.932559504156997"><ele>2766</ele><speed>11.98</speed><time>2016-07-09T14:17:33Z</time><pdop>8.0</pdop><geoidheight>50.60</geoidheight><course>37.63789</course><type>1</type></trkpt>
      <trkpt lat="39.40540138280353" lon="-5.932398057143082"><ele>2763</ele><speed>11.96</speed><time>2016-07-09T14:17:35Z</time><pdop>8.0</pdop><geoidheight>50.60</geoidheight><course>37.734787</course><type>1</type></trkpt>
      <trkpt lat="39.40557967249617" lon="-5.932238833621288"><ele>2760</ele><speed>11.92</speed><time>2016-07-09T14:17:37Z</time><pdop>8.0</pdop><geoidheight>50.60</geoidheight><course>36.561813</course><type>1</type></trkpt>
      <trkpt lat="39.40575766902548" lon="-5.93208328128486"><ele>2757</ele><speed>12.19</speed><time>2016-07-09T14:17:39Z</time><pdop>8.0</pdop><geoidheight>50.60</geoidheight><course>35.95645</course><type>1</type></trkpt>
      <trkpt lat="39.4059385092307" lon="-5.9319163528328325"><ele>2755</ele><speed>11.70</speed><time>2016-07-09T14:17:40Z</time><pdop>8.0</pdop><geoidheight>50.60</geoidheight><course>37.937645</course><type>1</type></trkpt>
      <trkpt lat="39.406099011656856" lon="-5.931745690044547"><ele>2752</ele><speed>11.64</speed><time>2016-07-09T14:17:43Z</time><pdop>8.0</pdop><geoidheight>50.60</geoidheight><course>39.833286</course><type>1</type></trkpt>
      <trkpt lat="39.40627166772706" lon="-5.931560548633172"><ele>2750</ele><speed>12.57</speed><time>2016-07-09T14:17:45Z</time><pdop>8.0</pdop><geoidheight>50.60</geoidheight><course>38.615635</course><type>1</type></trkpt>
      <trkpt lat="39.406451765076255" lon="-5.931376496466876"><ele>2748</ele><speed>12.96</speed><time>2016-07-09T14:17:47Z</time><pdop>8.0</pdop><geoidheight>50.60</geoidheight><course>38.160927</course><type>1</type></trkpt>
      <trkpt lat="39.4066264477453" lon="-5.9311903582423104"><ele>2746</ele><speed>12.53</speed><time>2016-07-09T14:17:49Z</time><pdop>8.0</pdop><geoidheight>50.60</geoidheight><course>39.134</course><type>1</type></trkpt>
      <trkpt lat="39.406796581787155" lon="-5.931007916902033"><ele>2744</ele><speed>12.06</speed><time>2016-07-09T14:17:51Z</time><pdop>8.0</pdop><geoidheight>50.60</geoidheight><course>40.0739</course><type>1</type></trkpt>
      <trkpt lat="39.406960000051036" lon="-5.930821621630892"><ele>2743</ele><speed>12.43</speed><time>2016-07-09T14:17:53Z</time><pdop>8.0</pdop><geoidheight>50.60</geoidheight><course>41.997883</course><type>1</type></trkpt>
      <trkpt lat="39.40712471139366" lon="-5.930610360941147"><ele>2742</ele><speed>12.87</speed><time>2016-07-09T14:17:55Z</time><pdop>8.0</pdop><geoidheight>50.60</geoidheight><course>44.988567</course><type>1</type></trkpt>
      <trkpt lat="39.40728751201031" lon="-5.930390256962386"><ele>2741</ele><speed>13.13</speed><time>2016-07-09T14:17:57Z</time><pdop>8.0</pdop><geoidheight>50.60</geoidheight><course>45.262756</course><type>1</type></trkpt>
      <trkpt lat="39.407458408260666" lon="-5.930180510477634"><ele>2740</ele><speed>13.14</speed><time>2016-07-09T14:17:59Z</time><pdop>8.0</pdop><geoidheight>50.60</geoidheight><course>41.930077</course><type>1</type></trkpt>
      <trkpt lat="39.40763991666678" lon="-5.9299817998246205"><ele>2738</ele><speed>13.39</speed><time>2016-07-09T14:18:01Z</time><pdop>12.0</pdop><geoidheight>50.60</geoidheight><course>40.361973</course><type>1</type></trkpt>
      <trkpt lat="39.40783210862991" lon="-5.929783666981241"><ele>2736</ele><speed>14.04</speed><time>2016-07-09T14:18:02Z</time><pdop>8.0</pdop><geoidheight>50.60</geoidheight><course>38.46109</course><type>1</type></trkpt>
      <trkpt lat="39.408035578406825" lon="-5.92959094887686"><ele>2734</ele><speed>13.73</speed><time>2016-07-09T14:18:05Z</time><pdop>8.0</pdop><geoidheight>50.60</geoidheight><course>36.25048</course><type>1</type></trkpt>
      <trkpt lat="39.40821548170397" lon="-5.929425754227764"><ele>2731</ele><speed>11.79</speed><time>2016-07-09T14:18:07Z</time><pdop>8.0</pdop><geoidheight>50.60</geoidheight><course>37.608223</course><type>1</type></trkpt>
      <trkpt lat="39.40838613224949" lon="-5.929259639655623"><ele>2729</ele><speed>12.20</speed><time>2016-07-09T14:18:09Z</time><pdop>8.0</pdop><geoidheight>50.60</geoidheight><course>37.31407</course><type>1</type></trkpt>
      <trkpt lat="39.408571955201495" lon="-5.929087463816264"><ele>2725</ele><speed>13.01</speed><time>2016-07-09T14:18:11Z</time><pdop>8.0</pdop><geoidheight>50.60</geoidheight><course>36.146515</course><type>1</type></trkpt>
      <trkpt lat="39.408758942650756" lon="-5.928928806875433"><ele>2722</ele><speed>12.19</speed><time>2016-07-09T14:18:13Z</time><pdop>8.0</pdop><geoidheight>50.60</geoidheight><course>34.175705</course><type>1</type></trkpt>
      <trkpt lat="39.40893538512603" lon="-5.928784349694702"><ele>2719</ele><speed>11.59</speed><time>2016-07-09T14:18:15Z</time><pdop>8.0</pdop><geoidheight>50.60</geoidheight><course>34.025166</course><type>1</type></trkpt>
      <trkpt lat="39.409111213018875" lon="-5.928624420408557"><ele>2716</ele><speed>12.25</speed><time>2016-07-09T14:18:17Z</time><pdop>8.0</pdop><geoidheight>50.60</geoidheight><course>36.74563</course><type>1</type></trkpt>
      <trkpt lat="39.40928552410104" lon="-5.9284555037101985"><ele>2712</ele><speed>12.01</speed><time>2016-07-09T14:18:19Z</time><pdop>8.0</pdop><geoidheight>50.60</geoidheight><course>37.028137</course><type>1</type></trkpt>
      <trkpt lat="39.40945288360046" lon="-5.928294308671736"><ele>2710</ele><speed>11.62</speed><time>2016-07-09T14:18:21Z</time><pdop>8.0</pdop><geoidheight>50.60</geoidheight><course>36.15033</course><type>1</type></trkpt>
      <trkpt lat="39.40962992416574" lon="-5.92812449847863"><ele>2708</ele><speed>12.45</speed><time>2016-07-09T14:18:23Z</time><pdop>8.0</pdop><geoidheight>50.60</geoidheight><course>37.16334</course><type>1</type></trkpt>
      <trkpt lat="39.409801596801564" lon="-5.927952012574856"><ele>2706</ele><speed>11.94</speed><time>2016-07-09T14:18:25Z</time><pdop>8.0</pdop><geoidheight>50.60</geoidheight><course>37.2123</course><type>1</type></trkpt>
      <trkpt lat="39.409969382799645" lon="-5.927784979796993"><ele>2705</ele><speed>11.67</speed><time>2016-07-09T14:18:27Z</time><pdop>8.0</pdop><geoidheight>50.60</geoidheight><course>37.86255</course><type>1</type></trkpt>
      <trkpt lat="39.410144592805835" lon="-5.927604841729454"><ele>2703</ele><speed>12.87</speed><time>2016-07-09T14:18:29Z</time><pdop>8.0</pdop><geoidheight>50.60</geoidheight><course>39.412556</course><type>1</type></trkpt>
      <trkpt lat="39.4103233620211" lon="-5.927405514528466"><ele>2701</ele><speed>13.02</speed><time>2016-07-09T14:18:31Z</time><pdop>8.0</pdop><geoidheight>50.60</geoidheight><course>41.103016</course><type>1</type></trkpt>
      <trkpt lat="39.41048322190428" lon="-5.927224590067392"><ele>2700</ele><speed>11.32</speed><time>2016-07-09T14:18:33Z</time><pdop>8.0</pdop><geoidheight>50.60</geoidheight><course>39.84454</course><type>1</type></trkpt>
      <trkpt lat="39.410623172159845" lon="-5.927061796447076"><ele>2700</ele><speed>9.92</speed><time>2016-07-09T14:18:35Z</time><pdop>8.0</pdop><geoidheight>50.60</geoidheight><course>42.126774</course><type>1</type></trkpt>
      <trkpt lat="39.41076083663858" lon="-5.9268874865732295"><ele>2698</ele><speed>11.12</speed><time>2016-07-09T14:18:37Z</time><pdop>8.0</pdop><geoidheight>50.60</geoidheight><course>44.028183</course><type>1</type></trkpt>
      <trkpt lat="39.410908416973186" lon="-5.926692577709562"><ele>2695</ele><speed>11.78</speed><time>2016-07-09T14:18:39Z</time><pdop>8.0</pdop><geoidheight>50.60</geoidheight><course>45.279503</course><type>1</type></trkpt>
      <trkpt lat="39.411042291477905" lon="-5.926493599700945"><ele>2692</ele><speed>11.20</speed><time>2016-07-09T14:18:41Z</time><pdop>8.0</pdop><geoidheight>50.60</geoidheight><course>48.39872</course><type>1</type></trkpt>
      <trkpt lat="39.41117590597822" lon="-5.926295486270558"><ele>2689</ele><speed>11.42</speed><time>2016-07-09T14:18:43Z</time><pdop>8.0</pdop><geoidheight>50.60</geoidheight><course>46.67576</course><type>1</type></trkpt>
      <trkpt lat="39.411337164006326" lon="-5.926104333652888"><ele>2685</ele><speed>12.85</speed><time>2016-07-09T14:18:45Z</time><pdop>8.0</pdop><geoidheight>50.60</geoidheight><course>42.23264</course><type>1</type></trkpt>
      <trkpt lat="39.411505591091014" lon="-5.925907987747715"><ele>2682</ele><speed>12.87</speed><time>2016-07-09T14:18:47Z</time><pdop>8.0</pdop><geoidheight>50.60</geoidheight><course>43.54611</course><type>1</type></trkpt>
      <trkpt lat="39.411661857909245" lon="-5.92570393403558"><ele>2680</ele><speed>12.15</speed><time>2016-07-09T14:18:49Z</time><pdop>8.0</pdop><geoidheight>50.60</geoidheight><course>44.697918</course><type>1</type></trkpt>
      <trkpt lat="39.4118165057645" lon="-5.925503219102938"><ele>2677</ele><speed>12.34</speed><time>2016-07-09T14:18:51Z</time><pdop>8.0</pdop><geoidheight>50.60</geoidheight><course>44.8197</course><type>1</type></trkpt>
      <trkpt lat="39.41196390096805" lon="-5.925309323133481"><ele>2674</ele><speed>11.47</speed><time>2016-07-09T14:18:53Z</time><pdop>8.0</pdop><geoidheight>50.60</geoidheight><course>45.922783</course><type>1</type></trkpt>
      <trkpt lat="39.41210804508164" lon="-5.925123673435215"><ele>2670</ele><speed>11.43</speed><time>2016-07-09T14:18:55Z</time><pdop>8.0</pdop><geoidheight>50.60</geoidheight><course>44.23965</course><type>1</type></trkpt>
      <trkpt lat="39.41226083307967" lon="-5.924934255660184"><ele>2666</ele><speed>12.15</speed><time>2016-07-09T14:18:57Z</time><pdop>8.0</pdop><geoidheight>50.60</geoidheight><course>44.176537</course><type>1</type></trkpt>
      <trkpt lat="39.4124068509818" lon="-5.9247499160107955"><ele>2661</ele><speed>11.17</speed><time>2016-07-09T14:18:59Z</time><pdop>8.0</pdop><geoidheight>50.60</geoidheight><course>43.93207</course><type>1</type></trkpt>
      <trkpt lat="39.412557746287256" lon="-5.924575606032666"><ele>2656</ele><speed>11.64</speed><time>2016-07-09T14:19:01Z</time><pdop>8.0</pdop><geoidheight>50.60</geoidheight><course>41.72874</course><type>1</type></trkpt>
      <trkpt lat="39.412719053308564" lon="-5.92438644135679"><ele>2652</ele><speed>12.57</speed><time>2016-07-09T14:19:03Z</time><pdop>8.0</pdop><geoidheight>50.60</geoidheight><course>43.74875</course><type>1</type></trkpt>
      <trkpt lat="39.41286864048778" lon="-5.92417251585815"><ele>2648</ele><speed>12.55</speed><time>2016-07-09T14:19:05Z</time><pdop>6.0</pdop><geoidheight>50.60</geoidheight><course>48.48382</course><type>1</type></trkpt>
      <trkpt lat="39.412940863258356" lon="-5.924060651441243"><ele>2646</ele><speed>12.81</speed><time>2016-07-09T14:19:06Z</time><pdop>6.0</pdop><geoidheight>50.60</geoidheight><course>49.329517</course><type>1</type></trkpt>
      <trkpt lat="39.413015922622954" lon="-5.923946066671229"><ele>2644</ele><speed>13.15</speed><time>2016-07-09T14:19:07Z</time><pdop>4.0</pdop><geoidheight>50.60</geoidheight><course>48.637535</course><type>1</type></trkpt>
      <trkpt lat="39.41309278372534" lon="-5.92383605480213"><ele>2643</ele><speed>13.00</speed><time>2016-07-09T14:19:08Z</time><pdop>4.0</pdop><geoidheight>50.60</geoidheight><course>47.11214</course><type>1</type></trkpt>
      <trkpt lat="39.41316926785211" lon="-5.9237297421105595"><ele>2641</ele><speed>12.75</speed><time>2016-07-09T14:19:09Z</time><pdop>4.0</pdop><geoidheight>50.60</geoidheight><course>46.454853</course><type>1</type></trkpt>
      <trkpt lat="39.41324614657311" lon="-5.923624103106786"><ele>2640</ele><speed>12.73</speed><time>2016-07-09T14:19:10Z</time><pdop>4.0</pdop><geoidheight>50.60</geoidheight><course>46.80745</course><type>1</type></trkpt>
      <trkpt lat="39.413325408453964" lon="-5.923514315092754"><ele>2639</ele><speed>13.16</speed><time>2016-07-09T14:19:11Z</time><pdop>4.0</pdop><geoidheight>50.60</geoidheight><course>47.29775</course><type>1</type></trkpt>
      <trkpt lat="39.413407397401215" lon="-5.9234005647577535"><ele>2637</ele><speed>13.58</speed><time>2016-07-09T14:19:12Z</time><pdop>8.0</pdop><geoidheight>50.60</geoidheight><course>47.102818</course><type>1</type></trkpt>
      <trkpt lat="39.41356262153746" lon="-5.923196610681064"><ele>2635</ele><speed>11.75</speed><time>2016-07-09T14:19:13Z</time><pdop>4.0</pdop><geoidheight>50.60</geoidheight><course>44.579197</course><type>1</type></trkpt>
      <trkpt lat="39.41363735181592" lon="-5.92311284614693"><ele>2634</ele><speed>11.05</speed><time>2016-07-09T14:19:14Z</time><pdop>4.0</pdop><geoidheight>50.60</geoidheight><course>41.833607</course><type>1</type></trkpt>
      <trkpt lat="39.413721043316535" lon="-5.9230244604602404"><ele>2633</ele><speed>11.97</speed><time>2016-07-09T14:19:16Z</time><pdop>6.0</pdop><geoidheight>50.60</geoidheight><course>39.06334</course><type>1</type></trkpt>
      <trkpt lat="39.41381549306699" lon="-5.9229339955648435"><ele>2632</ele><speed>13.10</speed><time>2016-07-09T14:19:17Z</time><pdop>6.0</pdop><geoidheight>50.60</geoidheight><course>36.804363</course><type>1</type></trkpt>
      <trkpt lat="39.41391591697449" lon="-5.922841796000854"><ele>2631</ele><speed>13.78</speed><time>2016-07-09T14:19:18Z</time><pdop>6.0</pdop><geoidheight>50.60</geoidheight><course>35.819946</course><type>1</type></trkpt>
      <trkpt lat="39.414012817320604" lon="-5.922753920157409"><ele>2629</ele><speed>13.37</speed><time>2016-07-09T14:19:19Z</time><pdop>6.0</pdop><geoidheight>50.60</geoidheight><course>36.120758</course><type>1</type></trkpt>
      <trkpt lat="39.41410212537304" lon="-5.922672548617288"><ele>2628</ele><speed>12.37</speed><time>2016-07-09T14:19:20Z</time><pdop>6.0</pdop><geoidheight>50.60</geoidheight><course>36.45755</course><type>1</type></trkpt>
      <trkpt lat="39.41426978056808" lon="-5.922511867068205"><ele>2626</ele><speed>11.55</speed><time>2016-07-09T14:19:22Z</time><pdop>6.0</pdop><geoidheight>50.60</geoidheight><course>38.133415</course><type>1</type></trkpt>
      <trkpt lat="39.41444074366558" lon="-5.922339851386631"><ele>2624</ele><speed>12.26</speed><time>2016-07-09T14:19:24Z</time><pdop>6.0</pdop><geoidheight>50.60</geoidheight><course>39.16497</course><type>1</type></trkpt>
      <trkpt lat="39.41453131981318" lon="-5.922247270176499"><ele>2622</ele><speed>12.91</speed><time>2016-07-09T14:19:25Z</time><pdop>6.0</pdop><geoidheight>50.60</geoidheight><course>38.407272</course><type>1</type></trkpt>
      <trkpt lat="39.41462561331093" lon="-5.922155448362221"><ele>2620</ele><speed>13.23</speed><time>2016-07-09T14:19:26Z</time><pdop>6.0</pdop><geoidheight>50.60</geoidheight><course>37.849834</course><type>1</type></trkpt>
      <trkpt lat="39.41471828196333" lon="-5.922065065800424"><ele>2619</ele><speed>12.99</speed><time>2016-07-09T14:19:27Z</time><pdop>6.0</pdop><geoidheight>50.60</geoidheight><course>37.548363</course><type>1</type></trkpt>
      <trkpt lat="39.41489876260342" lon="-5.921893733714429"><ele>2616</ele><speed>12.33</speed><time>2016-07-09T14:19:29Z</time><pdop>8.0</pdop><geoidheight>50.60</geoidheight><course>36.09462</course><type>1</type></trkpt>
      <trkpt lat="39.41498909584637" lon="-5.9218129543629"><ele>2615</ele><speed>12.27</speed><time>2016-07-09T14:19:30Z</time><pdop>4.0</pdop><geoidheight>50.60</geoidheight><course>35.14113</course><type>1</type></trkpt>
      <trkpt lat="39.415081830087786" lon="-5.921729993887895"><ele>2614</ele><speed>12.65</speed><time>2016-07-09T14:19:31Z</time><pdop>4.0</pdop><geoidheight>50.60</geoidheight><course>35.488403</course><type>1</type></trkpt>
      <trkpt lat="39.41517789669305" lon="-5.921641689588055"><ele>2612</ele><speed>13.13</speed><time>2016-07-09T14:19:32Z</time><pdop>4.0</pdop><geoidheight>50.60</geoidheight><course>36.69035</course><type>1</type></trkpt>
      <trkpt lat="39.4152722924032" lon="-5.921547216240835"><ele>2611</ele><speed>13.37</speed><time>2016-07-09T14:19:33Z</time><pdop>4.0</pdop><geoidheight>50.60</geoidheight><course>37.91163</course><type>1</type></trkpt>
      <trkpt lat="39.41536727830292" lon="-5.921449993706958"><ele>2609</ele><speed>13.59</speed><time>2016-07-09T14:19:34Z</time><pdop>4.0</pdop><geoidheight>50.60</geoidheight><course>38.431374</course><type>1</type></trkpt>
      <trkpt lat="39.41546091889318" lon="-5.9213506634734"><ele>2608</ele><speed>13.57</speed><time>2016-07-09T14:19:35Z</time><pdop>4.0</pdop><geoidheight>50.60</geoidheight><course>39.03078</course><type>1</type></trkpt>
      <trkpt lat="39.415549807999675" lon="-5.921255670046157"><ele>2607</ele><speed>12.90</speed><time>2016-07-09T14:19:36Z</time><pdop>4.0</pdop><geoidheight>50.60</geoidheight><course>39.697025</course><type>1</type></trkpt>
      <trkpt lat="39.41563317082001" lon="-5.921161888174875"><ele>2606</ele><speed>12.25</speed><time>2016-07-09T14:19:37Z</time><pdop>4.0</pdop><geoidheight>50.60</geoidheight><course>40.295868</course><type>1</type></trkpt>
      <trkpt lat="39.415713425747875" lon="-5.921070471506897"><ele>2606</ele><speed>11.89</speed><time>2016-07-09T14:19:38Z</time><pdop>4.0</pdop><geoidheight>50.60</geoidheight><course>40.92721</course><type>1</type></trkpt>
      <trkpt lat="39.41579360482418" lon="-5.920974392978976"><ele>2605</ele><speed>12.16</speed><time>2016-07-09T14:19:39Z</time><pdop>4.0</pdop><geoidheight>50.60</geoidheight><course>41.729053</course><type>1</type></trkpt>
      <trkpt lat="39.415878413445135" lon="-5.920875192728153"><ele>2604</ele><speed>12.79</speed><time>2016-07-09T14:19:40Z</time><pdop>4.0</pdop><geoidheight>50.60</geoidheight><course>40.96804</course><type>1</type></trkpt>
      <trkpt lat="39.41597031684855" lon="-5.920775124551954"><ele>2603</ele><speed>13.58</speed><time>2016-07-09T14:19:41Z</time><pdop>4.0</pdop><geoidheight>50.60</geoidheight><course>40.01912</course><type>1</type></trkpt>
      <trkpt lat="39.41606646155373" lon="-5.920672324443362"><ele>2602</ele><speed>14.10</speed><time>2016-07-09T14:19:42Z</time><pdop>4.0</pdop><geoidheight>50.60</geoidheight><course>39.30356</course><type>1</type></trkpt>
      <trkpt lat="39.416165386593576" lon="-5.920571820135741"><ele>2601</ele><speed>14.09</speed><time>2016-07-09T14:19:43Z</time><pdop>6.0</pdop><geoidheight>50.60</geoidheight><course>38.842518</course><type>1</type></trkpt>
      <trkpt lat="39.41626028290622" lon="-5.9204754620842674"><ele>2599</ele><speed>13.47</speed><time>2016-07-09T14:19:44Z</time><pdop>6.0</pdop><geoidheight>50.60</geoidheight><course>38.44086</course><type>1</type></trkpt>
      <trkpt lat="39.416351458296816" lon="-5.920382621300526"><ele>2598</ele><speed>12.91</speed><time>2016-07-09T14:19:45Z</time><pdop>6.0</pdop><geoidheight>50.60</geoidheight><course>38.044483</course><type>1</type></trkpt>
      <trkpt lat="39.416443427467776" lon="-5.92029297151233"><ele>2597</ele><speed>12.87</speed><time>2016-07-09T14:19:46Z</time><pdop>6.0</pdop><geoidheight>50.60</geoidheight><course>37.40405</course><type>1</type></trkpt>
      <trkpt lat="39.416536257235485" lon="-5.92020108864956"><ele>2596</ele><speed>13.11</speed><time>2016-07-09T14:19:47Z</time><pdop>4.0</pdop><geoidheight>50.60</geoidheight><course>38.12865</course><type>1</type></trkpt>
      <trkpt lat="39.41662901004049" lon="-5.920105866748324"><ele>2595</ele><speed>13.30</speed><time>2016-07-09T14:19:48Z</time><pdop>4.0</pdop><geoidheight>50.60</geoidheight><course>38.491077</course><type>1</type></trkpt>
      <trkpt lat="39.41672292446617" lon="-5.920008053753794"><ele>2594</ele><speed>13.51</speed><time>2016-07-09T14:19:49Z</time><pdop>4.0</pdop><geoidheight>50.60</geoidheight><course>39.12056</course><type>1</type></trkpt>
      <trkpt lat="39.41681566564607" lon="-5.919907310091003"><ele>2592</ele><speed>13.54</speed><time>2016-07-09T14:19:50Z</time><pdop>4.0</pdop><geoidheight>50.60</geoidheight><course>39.49154</course><type>1</type></trkpt>
      <trkpt lat="39.41690629543225" lon="-5.9198090226846976"><ele>2591</ele><speed>13.15</speed><time>2016-07-09T14:19:51Z</time><pdop>4.0</pdop><geoidheight>50.60</geoidheight><course>39.867897</course><type>1</type></trkpt>
      <trkpt lat="39.41699493801424" lon="-5.919712201346363"><ele>2590</ele><speed>12.92</speed><time>2016-07-09T14:19:52Z</time><pdop>4.0</pdop><geoidheight>50.60</geoidheight><course>40.149067</course><type>1</type></trkpt>
      <trkpt lat="39.4170820041107" lon="-5.919613824659457"><ele>2588</ele><speed>12.85</speed><time>2016-07-09T14:19:53Z</time><pdop>4.0</pdop><geoidheight>50.60</geoidheight><course>40.655567</course><type>1</type></trkpt>
      <trkpt lat="39.41717082981957" lon="-5.919512852397805"><ele>2587</ele><speed>13.17</speed><time>2016-07-09T14:19:54Z</time><pdop>4.0</pdop><geoidheight>50.60</geoidheight><course>41.443913</course><type>1</type></trkpt>
      <trkpt lat="39.41725852226119" lon="-5.919406713921851"><ele>2585</ele><speed>13.44</speed><time>2016-07-09T14:19:55Z</time><pdop>4.0</pdop><geoidheight>50.60</geoidheight><course>42.38754</course><type>1</type></trkpt>
      <trkpt lat="39.41734386979669" lon="-5.919296238421908"><ele>2584</ele><speed>13.79</speed><time>2016-07-09T14:19:56Z</time><pdop>4.0</pdop><geoidheight>50.60</geoidheight><course>43.696682</course><type>1</type></trkpt>
      <trkpt lat="39.417431592722124" lon="-5.919181671293359"><ele>2582</ele><speed>13.79</speed><time>2016-07-09T14:19:57Z</time><pdop>4.0</pdop><geoidheight>50.60</geoidheight><course>44.641285</course><type>1</type></trkpt>
      <trkpt lat="39.41751841479587" lon="-5.919068181889361"><ele>2580</ele><speed>13.52</speed><time>2016-07-09T14:19:58Z</time><pdop>4.0</pdop><geoidheight>50.60</geoidheight><course>43.817047</course><type>1</type></trkpt>
      <trkpt lat="39.417601571623564" lon="-5.91896327424972"><ele>2579</ele><speed>13.16</speed><time>2016-07-09T14:19:59Z</time><pdop>4.0</pdop><geoidheight>50.60</geoidheight><course>42.584328</course><type>1</type></trkpt>
      <trkpt lat="39.41768581634918" lon="-5.918863539229723"><ele>2577</ele><speed>12.87</speed><time>2016-07-09T14:20:00Z</time><pdop>4.0</pdop><geoidheight>50.60</geoidheight><course>41.50717</course><type>1</type></trkpt>
      <trkpt lat="39.41776966400144" lon="-5.918764819960424"><ele>2576</ele><speed>12.86</speed><time>2016-07-09T14:20:01Z</time><pdop>4.0</pdop><geoidheight>50.60</geoidheight><course>42.22458</course><type>1</type></trkpt>
      <trkpt lat="39.41785235852338" lon="-5.918661285445981"><ele>2574</ele><speed>12.84</speed><time>2016-07-09T14:20:02Z</time><pdop>4.0</pdop><geoidheight>50.60</geoidheight><course>43.362316</course><type>1</type></trkpt>
      <trkpt lat="39.41793664668057" lon="-5.918554502959411"><ele>2573</ele><speed>12.88</speed><time>2016-07-09T14:20:03Z</time><pdop>4.0</pdop><geoidheight>50.60</geoidheight><course>44.346226</course><type>1</type></trkpt>
      <trkpt lat="39.41801865719371" lon="-5.918450055695469"><ele>2572</ele><speed>12.79</speed><time>2016-07-09T14:20:04Z</time><pdop>4.0</pdop><geoidheight>50.60</geoidheight><course>43.757362</course><type>1</type></trkpt>
      <trkpt lat="39.4181029671819" lon="-5.918350983218658"><ele>2570</ele><speed>12.60</speed><time>2016-07-09T14:20:05Z</time><pdop>4.0</pdop><geoidheight>50.60</geoidheight><course>41.741302</course><type>1</type></trkpt>
      <trkpt lat="39.41818857763704" lon="-5.918258742096625"><ele>2569</ele><speed>12.57</speed><time>2016-07-09T14:20:06Z</time><pdop>4.0</pdop><geoidheight>50.60</geoidheight><course>40.041656</course><type>1</type></trkpt>
      <trkpt lat="39.41827478534819" lon="-5.918167801779103"><ele>2567</ele><speed>12.34</speed><time>2016-07-09T14:20:07Z</time><pdop>6.0</pdop><geoidheight>50.60</geoidheight><course>39.142166</course><type>1</type></trkpt>
      <trkpt lat="39.41835998055222" lon="-5.918076092615051"><ele>2566</ele><speed>12.22</speed><time>2016-07-09T14:20:08Z</time><pdop>4.0</pdop><geoidheight>50.60</geoidheight><course>40.90906</course><type>1</type></trkpt>
      <trkpt lat="39.41844110777883" lon="-5.917974425478598"><ele>2564</ele><speed>12.60</speed><time>2016-07-09T14:20:09Z</time><pdop>4.0</pdop><geoidheight>50.60</geoidheight><course>43.551907</course><type>1</type></trkpt>
      <trkpt lat="39.41851799400051" lon="-5.9178658083975515"><ele>2562</ele><speed>13.03</speed><time>2016-07-09T14:20:10Z</time><pdop>4.0</pdop><geoidheight>50.60</geoidheight><course>45.773144</course><type>1</type></trkpt>
      <trkpt lat="39.41859449593759" lon="-5.917752228980092"><ele>2560</ele><speed>12.93</speed><time>2016-07-09T14:20:11Z</time><pdop>4.0</pdop><geoidheight>50.60</geoidheight><course>46.970303</course><type>1</type></trkpt>
      <trkpt lat="39.418671328754904" lon="-5.917640338786783"><ele>2558</ele><speed>12.72</speed><time>2016-07-09T14:20:12Z</time><pdop>4.0</pdop><geoidheight>50.60</geoidheight><course>47.62873</course><type>1</type></trkpt>
      <trkpt lat="39.41874352386031" lon="-5.917531837486591"><ele>2557</ele><speed>12.38</speed><time>2016-07-09T14:20:13Z</time><pdop>4.0</pdop><geoidheight>50.60</geoidheight><course>48.195953</course><type>1</type></trkpt>
      <trkpt lat="39.418816211197665" lon="-5.9174249262503205"><ele>2555</ele><speed>12.63</speed><time>2016-07-09T14:20:14Z</time><pdop>4.0</pdop><geoidheight>50.60</geoidheight><course>47.732296</course><type>1</type></trkpt>
      <trkpt lat="39.41889354486649" lon="-5.917320377362755"><ele>2554</ele><speed>12.95</speed><time>2016-07-09T14:20:15Z</time><pdop>4.0</pdop><geoidheight>50.60</geoidheight><course>46.567562</course><type>1</type></trkpt>
      <trkpt lat="39.418976627063856" lon="-5.917219267040627"><ele>2553</ele><speed>13.15</speed><time>2016-07-09T14:20:16Z</time><pdop>8.0</pdop><geoidheight>50.60</geoidheight><course>44.35614</course><type>1</type></trkpt>
      <trkpt lat="39.41906221900695" lon="-5.917123564943375"><ele>2551</ele><speed>13.28</speed><time>2016-07-09T14:20:17Z</time><pdop>4.0</pdop><geoidheight>50.60</geoidheight><course>41.852077</course><type>1</type></trkpt>
      <trkpt lat="39.419147252330625" lon="-5.917036427558993"><ele>2550</ele><speed>12.70</speed><time>2016-07-09T14:20:18Z</time><pdop>4.0</pdop><geoidheight>50.60</geoidheight><course>39.797134</course><type>1</type></trkpt>
      <trkpt lat="39.419233858625844" lon="-5.916953475156662"><ele>2549</ele><speed>12.19</speed><time>2016-07-09T14:20:18Z</time><pdop>4.0</pdop><geoidheight>50.60</geoidheight><course>38.350155</course><type>1</type></trkpt>
      <trkpt lat="39.41932064743655" lon="-5.916873356563955"><ele>2547</ele><speed>11.95</speed><time>2016-07-09T14:20:19Z</time><pdop>4.0</pdop><geoidheight>50.60</geoidheight><course>37.325783</course><type>1</type></trkpt>
      <trkpt lat="39.41940203288707" lon="-5.916793946401308"><ele>2547</ele><speed>12.21</speed><time>2016-07-09T14:20:21Z</time><pdop>6.0</pdop><geoidheight>50.60</geoidheight><course>36.57912</course><type>1</type></trkpt>
      <trkpt lat="39.419492167512075" lon="-5.916710985712399"><ele>2546</ele><speed>12.53</speed><time>2016-07-09T14:20:22Z</time><pdop>6.0</pdop><geoidheight>50.60</geoidheight><course>36.20546</course><type>1</type></trkpt>
      <trkpt lat="39.419583765738814" lon="-5.916625098374723"><ele>2545</ele><speed>12.68</speed><time>2016-07-09T14:20:23Z</time><pdop>6.0</pdop><geoidheight>50.60</geoidheight><course>36.999695</course><type>1</type></trkpt>
      <trkpt lat="39.41967741482176" lon="-5.916533770013162"><ele>2544</ele><speed>12.60</speed><time>2016-07-09T14:20:24Z</time><pdop>6.0</pdop><geoidheight>50.60</geoidheight><course>37.608418</course><type>1</type></trkpt>
      <trkpt lat="39.41976854718343" lon="-5.916442393375399"><ele>2543</ele><speed>12.41</speed><time>2016-07-09T14:20:25Z</time><pdop>6.0</pdop><geoidheight>50.60</geoidheight><course>38.750652</course><type>1</type></trkpt>
      <trkpt lat="39.419855385744306" lon="-5.916351893358856"><ele>2541</ele><speed>12.22</speed><time>2016-07-09T14:20:26Z</time><pdop>6.0</pdop><geoidheight>50.60</geoidheight><course>39.72957</course><type>1</type></trkpt>
      <trkpt lat="39.41993799389291" lon="-5.91626138417407"><ele>2540</ele><speed>12.07</speed><time>2016-07-09T14:20:27Z</time><pdop>6.0</pdop><geoidheight>50.60</geoidheight><course>40.250206</course><type>1</type></trkpt>
      <trkpt lat="39.420021421628654" lon="-5.916170555784581"><ele>2539</ele><speed>12.05</speed><time>2016-07-09T14:20:28Z</time><pdop>6.0</pdop><geoidheight>50.60</geoidheight><course>40.182064</course><type>1</type></trkpt>
      <trkpt lat="39.42010530319966" lon="-5.9160808475700755"><ele>2537</ele><speed>11.93</speed><time>2016-07-09T14:20:29Z</time><pdop>4.0</pdop><geoidheight>50.60</geoidheight><course>39.715828</course><type>1</type></trkpt>
      <trkpt lat="39.42019164945761" lon="-5.915993323699144"><ele>2535</ele><speed>11.94</speed><time>2016-07-09T14:20:30Z</time><pdop>8.0</pdop><geoidheight>50.60</geoidheight><course>38.98813</course><type>1</type></trkpt>
      <trkpt lat="39.42035765458684" lon="-5.915823341438951"><ele>2532</ele><speed>12.21</speed><time>2016-07-09T14:20:32Z</time><pdop>4.0</pdop><geoidheight>50.60</geoidheight><course>38.926224</course><type>1</type></trkpt>
      <trkpt lat="39.42044478604387" lon="-5.915734687962912"><ele>2530</ele><speed>12.21</speed><time>2016-07-09T14:20:33Z</time><pdop>4.0</pdop><geoidheight>50.60</geoidheight><course>39.799294</course><type>1</type></trkpt>
      <trkpt lat="39.42053090554956" lon="-5.915646459536854"><ele>2528</ele><speed>12.18</speed><time>2016-07-09T14:20:34Z</time><pdop>4.0</pdop><geoidheight>50.60</geoidheight><course>39.415447</course><type>1</type></trkpt>
      <trkpt lat="39.420615188559466" lon="-5.915560897818785"><ele>2527</ele><speed>11.74</speed><time>2016-07-09T14:20:35Z</time><pdop>4.0</pdop><geoidheight>50.60</geoidheight><course>38.195034</course><type>1</type></trkpt>
      <trkpt lat="39.42069764560043" lon="-5.915483266392894"><ele>2525</ele><speed>11.35</speed><time>2016-07-09T14:20:36Z</time><pdop>4.0</pdop><geoidheight>50.60</geoidheight><course>36.882954</course><type>1</type></trkpt>
      <trkpt lat="39.4207832952074" lon="-5.915403460495262"><ele>2523</ele><speed>11.37</speed><time>2016-07-09T14:20:37Z</time><pdop>4.0</pdop><geoidheight>50.60</geoidheight><course>36.376785</course><type>1</type></trkpt>
      <trkpt lat="39.42086610315451" lon="-5.915325061946408"><ele>2521</ele><speed>11.78</speed><time>2016-07-09T14:20:38Z</time><pdop>4.0</pdop><geoidheight>50.60</geoidheight><course>37.379887</course><type>1</type></trkpt>
      <trkpt lat="39.42095034372144" lon="-5.915237742027484"><ele>2519</ele><speed>12.36</speed><time>2016-07-09T14:20:38Z</time><pdop>4.0</pdop><geoidheight>50.60</geoidheight><course>38.788143</course><type>1</type></trkpt>
      <trkpt lat="39.42103839425583" lon="-5.915145291859234"><ele>2517</ele><speed>12.53</speed><time>2016-07-09T14:20:39Z</time><pdop>4.0</pdop><geoidheight>50.60</geoidheight><course>39.425987</course><type>1</type></trkpt>
      <trkpt lat="39.421129919471674" lon="-5.91505178805803"><ele>2515</ele><speed>12.32</speed><time>2016-07-09T14:20:41Z</time><pdop>6.0</pdop><geoidheight>50.60</geoidheight><course>38.56776</course><type>1</type></trkpt>
      <trkpt lat="39.421222639183014" lon="-5.914956683274046"><ele>2513</ele><speed>12.25</speed><time>2016-07-09T14:20:42Z</time><pdop>6.0</pdop><geoidheight>50.60</geoidheight><course>38.16509</course><type>1</type></trkpt>
      <trkpt lat="39.42138903809307" lon="-5.914791908896793"><ele>2508</ele><speed>12.53</speed><time>2016-07-09T14:20:44Z</time><pdop>6.0</pdop><geoidheight>50.60</geoidheight><course>37.736866</course><type>1</type></trkpt>
      <trkpt lat="39.421565111859486" lon="-5.914619965049323"><ele>2504</ele><speed>12.72</speed><time>2016-07-09T14:20:46Z</time><pdop>8.0</pdop><geoidheight>50.60</geoidheight><course>36.21115</course><type>1</type></trkpt>
      <trkpt lat="39.4217478894693" lon="-5.914456691834893"><ele>2499</ele><speed>12.80</speed><time>2016-07-09T14:20:48Z</time><pdop>6.0</pdop><geoidheight>50.60</geoidheight><course>34.105118</course><type>1</type></trkpt>
      <trkpt lat="39.421841847264616" lon="-5.9143748896226755"><ele>2497</ele><speed>13.28</speed><time>2016-07-09T14:20:49Z</time><pdop>6.0</pdop><geoidheight>50.60</geoidheight><course>33.531063</course><type>1</type></trkpt>
      <trkpt lat="39.422037651759" lon="-5.914211340906158"><ele>2493</ele><speed>12.88</speed><time>2016-07-09T14:20:51Z</time><pdop>4.0</pdop><geoidheight>50.60</geoidheight><course>32.87602</course><type>1</type></trkpt>
      <trkpt lat="39.42213254142633" lon="-5.914131620514155"><ele>2492</ele><speed>12.43</speed><time>2016-07-09T14:20:52Z</time><pdop>8.0</pdop><geoidheight>50.60</geoidheight><course>32.359226</course><type>1</type></trkpt>
      <trkpt lat="39.42222521982304" lon="-5.914056615386574"><ele>2491</ele><speed>12.07</speed><time>2016-07-09T14:20:53Z</time><pdop>4.0</pdop><geoidheight>50.60</geoidheight><course>31.498453</course><type>1</type></trkpt>
      <trkpt lat="39.42231683669717" lon="-5.91398237500686"><ele>2489</ele><speed>12.10</speed><time>2016-07-09T14:20:54Z</time><pdop>8.0</pdop><geoidheight>50.60</geoidheight><course>31.522211</course><type>1</type></trkpt>
      <trkpt lat="39.42241025797155" lon="-5.913906286291327"><ele>2488</ele><speed>12.31</speed><time>2016-07-09T14:20:55Z</time><pdop>4.0</pdop><geoidheight>50.60</geoidheight><course>32.27906</course><type>1</type></trkpt>
      <trkpt lat="39.42250284957371" lon="-5.91382448899797"><ele>2487</ele><speed>12.67</speed><time>2016-07-09T14:20:56Z</time><pdop>4.0</pdop><geoidheight>50.60</geoidheight><course>33.75974</course><type>1</type></trkpt>
      <trkpt lat="39.42259731271388" lon="-5.913735200622265"><ele>2486</ele><speed>12.61</speed><time>2016-07-09T14:20:57Z</time><pdop>4.0</pdop><geoidheight>50.60</geoidheight><course>35.523586</course><type>1</type></trkpt>
      <trkpt lat="39.42268613019346" lon="-5.913649758898495"><ele>2484</ele><speed>12.25</speed><time>2016-07-09T14:20:58Z</time><pdop>4.0</pdop><geoidheight>50.60</geoidheight><course>36.386864</course><type>1</type></trkpt>
      <trkpt lat="39.42277104911437" lon="-5.913567046071296"><ele>2483</ele><speed>12.05</speed><time>2016-07-09T14:20:58Z</time><pdop>4.0</pdop><geoidheight>50.60</geoidheight><course>35.461037</course><type>1</type></trkpt>
      <trkpt lat="39.42285794070584" lon="-5.91348436236938"><ele>2482</ele><speed>12.17</speed><time>2016-07-09T14:20:59Z</time><pdop>4.0</pdop><geoidheight>50.60</geoidheight><course>34.99031</course><type>1</type></trkpt>
      <trkpt lat="39.42295238363579" lon="-5.913398618901153"><ele>2481</ele><speed>12.16</speed><time>2016-07-09T14:21:01Z</time><pdop>6.0</pdop><geoidheight>50.60</geoidheight><course>35.32649</course><type>1</type></trkpt>
      <trkpt lat="39.42304399362945" lon="-5.9133114845260755"><ele>2480</ele><speed>12.07</speed><time>2016-07-09T14:21:02Z</time><pdop>6.0</pdop><geoidheight>50.60</geoidheight><course>36.530346</course><type>1</type></trkpt>
      <trkpt lat="39.423210177095896" lon="-5.913137234349766"><ele>2478</ele><speed>12.19</speed><time>2016-07-09T14:21:04Z</time><pdop>6.0</pdop><geoidheight>50.60</geoidheight><course>38.705795</course><type>1</type></trkpt>
      <trkpt lat="39.42329003611035" lon="-5.913047689601585"><ele>2477</ele><speed>12.27</speed><time>2016-07-09T14:21:05Z</time><pdop>4.0</pdop><geoidheight>50.60</geoidheight><course>39.521</course><type>1</type></trkpt>
      <trkpt lat="39.42337400305088" lon="-5.912955188007845"><ele>2476</ele><speed>12.21</speed><time>2016-07-09T14:21:06Z</time><pdop>4.0</pdop><geoidheight>50.60</geoidheight><course>40.520008</course><type>1</type></trkpt>
      <trkpt lat="39.42345841340439" lon="-5.912862498619625"><ele>2475</ele><speed>12.09</speed><time>2016-07-09T14:21:07Z</time><pdop>4.0</pdop><geoidheight>50.60</geoidheight><course>39.770657</course><type>1</type></trkpt>
      <trkpt lat="39.42354187361752" lon="-5.9127727084375605"><ele>2474</ele><speed>12.01</speed><time>2016-07-09T14:21:08Z</time><pdop>4.0</pdop><geoidheight>50.60</geoidheight><course>39.25168</course><type>1</type></trkpt>
      <trkpt lat="39.42362839412928" lon="-5.912684579013309"><ele>2473</ele><speed>12.10</speed><time>2016-07-09T14:21:09Z</time><pdop>4.0</pdop><geoidheight>50.60</geoidheight><course>38.419003</course><type>1</type></trkpt>
      <trkpt lat="39.4237100180093" lon="-5.912602947695826"><ele>2472</ele><speed>12.31</speed><time>2016-07-09T14:21:10Z</time><pdop>6.0</pdop><geoidheight>50.60</geoidheight><course>37.379066</course><type>1</type></trkpt>
      <trkpt lat="39.42379577484917" lon="-5.912518234411227"><ele>2471</ele><speed>12.76</speed><time>2016-07-09T14:21:11Z</time><pdop>4.0</pdop><geoidheight>50.60</geoidheight><course>36.593296</course><type>1</type></trkpt>
      <trkpt lat="39.42388678325175" lon="-5.912434066236877"><ele>2469</ele><speed>13.01</speed><time>2016-07-09T14:21:12Z</time><pdop>4.0</pdop><geoidheight>50.60</geoidheight><course>35.841774</course><type>1</type></trkpt>
      <trkpt lat="39.42397851049381" lon="-5.9123485767037085"><ele>2468</ele><speed>12.86</speed><time>2016-07-09T14:21:13Z</time><pdop>4.0</pdop><geoidheight>50.60</geoidheight><course>35.63769</course><type>1</type></trkpt>
      <trkpt lat="39.424068695378345" lon="-5.912263733070775"><ele>2467</ele><speed>12.57</speed><time>2016-07-09T14:21:14Z</time><pdop>4.0</pdop><geoidheight>50.60</geoidheight><course>36.140118</course><type>1</type></trkpt>
      <trkpt lat="39.42415937440691" lon="-5.912179209780398"><ele>2466</ele><speed>12.26</speed><time>2016-07-09T14:21:15Z</time><pdop>4.0</pdop><geoidheight>50.60</geoidheight><course>35.99969</course><type>1</type></trkpt>
      <trkpt lat="39.42424793121932" lon="-5.912097675679501"><ele>2465</ele><speed>11.98</speed><time>2016-07-09T14:21:16Z</time><pdop>4.0</pdop><geoidheight>50.60</geoidheight><course>35.528458</course><type>1</type></trkpt>
      <trkpt lat="39.42434111544236" lon="-5.912015217740987"><ele>2464</ele><speed>12.46</speed><time>2016-07-09T14:21:17Z</time><pdop>6.0</pdop><geoidheight>50.60</geoidheight><course>34.820976</course><type>1</type></trkpt>
      <trkpt lat="39.424534035887085" lon="-5.911847704915751"><ele>2460</ele><speed>13.15</speed><time>2016-07-09T14:21:19Z</time><pdop>8.0</pdop><geoidheight>50.60</geoidheight><course>33.803333</course><type>1</type></trkpt>
      <trkpt lat="39.42473201373272" lon="-5.9116807550197965"><ele>2457</ele><speed>12.97</speed><time>2016-07-09T14:21:21Z</time><pdop>8.0</pdop><geoidheight>50.60</geoidheight><course>34.64943</course><type>1</type></trkpt>
      <trkpt lat="39.42491300718782" lon="-5.911495439410664"><ele>2455</ele><speed>12.44</speed><time>2016-07-09T14:21:23Z</time><pdop>8.0</pdop><geoidheight>50.60</geoidheight><course>39.529015</course><type>1</type></trkpt>
      <trkpt lat="39.425076518987794" lon="-5.91130646152547"><ele>2453</ele><speed>11.71</speed><time>2016-07-09T14:21:25Z</time><pdop>8.0</pdop><geoidheight>50.60</geoidheight><course>40.242683</course><type>1</type></trkpt>
      <trkpt lat="39.42522962388766" lon="-5.911137666669898"><ele>2451</ele><speed>10.94</speed><time>2016-07-09T14:21:27Z</time><pdop>8.0</pdop><geoidheight>50.60</geoidheight><course>40.183918</course><type>1</type></trkpt>
      <trkpt lat="39.42537249460828" lon="-5.910971999319859"><ele>2449</ele><speed>10.69</speed><time>2016-07-09T14:21:29Z</time><pdop>8.0</pdop><geoidheight>50.60</geoidheight><course>40.770836</course><type>1</type></trkpt>
      <trkpt lat="39.425514682312055" lon="-5.910829105706991"><ele>2447</ele><speed>10.59</speed><time>2016-07-09T14:21:31Z</time><pdop>12.0</pdop><geoidheight>50.60</geoidheight><course>37.257046</course><type>1</type></trkpt>
      <trkpt lat="39.42568452490027" lon="-5.910684553221488"><ele>2445</ele><speed>11.96</speed><time>2016-07-09T14:21:33Z</time><pdop>8.0</pdop><geoidheight>50.60</geoidheight><course>34.05612</course><type>1</type></trkpt>
      <trkpt lat="39.425872956482024" lon="-5.910535546531485"><ele>2441</ele><speed>12.53</speed><time>2016-07-09T14:21:35Z</time><pdop>8.0</pdop><geoidheight>50.60</geoidheight><course>31.889442</course><type>1</type></trkpt>
      <trkpt lat="39.42606631451743" lon="-5.910401238297935"><ele>2438</ele><speed>12.53</speed><time>2016-07-09T14:21:37Z</time><pdop>8.0</pdop><geoidheight>50.60</geoidheight><course>29.973726</course><type>1</type></trkpt>
      <trkpt lat="39.42616357689203" lon="-5.910334877862775"><ele>2437</ele><speed>12.72</speed><time>2016-07-09T14:21:38Z</time><pdop>4.0</pdop><geoidheight>50.60</geoidheight><course>30.004179</course><type>1</type></trkpt>
      <trkpt lat="39.426265502093855" lon="-5.910262757392992"><ele>2435</ele><speed>13.28</speed><time>2016-07-09T14:21:39Z</time><pdop>4.0</pdop><geoidheight>50.60</geoidheight><course>30.73659</course><type>1</type></trkpt>
      <trkpt lat="39.42637188337045" lon="-5.910186172226646"><ele>2434</ele><speed>13.49</speed><time>2016-07-09T14:21:40Z</time><pdop>4.0</pdop><geoidheight>50.60</geoidheight><course>30.775759</course><type>1</type></trkpt>
      <trkpt lat="39.426478493046126" lon="-5.910108587987432"><ele>2433</ele><speed>13.25</speed><time>2016-07-09T14:21:41Z</time><pdop>4.0</pdop><geoidheight>50.60</geoidheight><course>30.60579</course><type>1</type></trkpt>
      <trkpt lat="39.426580194302346" lon="-5.910033632277728"><ele>2432</ele><speed>12.58</speed><time>2016-07-09T14:21:42Z</time><pdop>4.0</pdop><geoidheight>50.60</geoidheight><course>30.80287</course><type>1</type></trkpt>
      <trkpt lat="39.426675542561966" lon="-5.909961761591034"><ele>2431</ele><speed>11.86</speed><time>2016-07-09T14:21:43Z</time><pdop>4.0</pdop><geoidheight>50.60</geoidheight><course>31.335794</course><type>1</type></trkpt>
      <trkpt lat="39.426764226763204" lon="-5.9098889985657195"><ele>2431</ele><speed>11.58</speed><time>2016-07-09T14:21:44Z</time><pdop>4.0</pdop><geoidheight>50.60</geoidheight><course>32.5581</course><type>1</type></trkpt>
      <trkpt lat="39.426852645649106" lon="-5.909811412241966"><ele>2431</ele><speed>11.22</speed><time>2016-07-09T14:21:45Z</time><pdop>4.0</pdop><geoidheight>50.60</geoidheight><course>33.924763</course><type>1</type></trkpt>
      <trkpt lat="39.426931927297" lon="-5.909735067176975"><ele>2431</ele><speed>10.90</speed><time>2016-07-09T14:21:45Z</time><pdop>4.0</pdop><geoidheight>50.60</geoidheight><course>35.496082</course><type>1</type></trkpt>
      <trkpt lat="39.42708589561729" lon="-5.909573713850241"><ele>2431</ele><speed>11.40</speed><time>2016-07-09T14:21:48Z</time><pdop>6.0</pdop><geoidheight>50.60</geoidheight><course>38.44446</course><type>1</type></trkpt>
      <trkpt lat="39.42724030929235" lon="-5.909391535568356"><ele>2432</ele><speed>11.97</speed><time>2016-07-09T14:21:50Z</time><pdop>6.0</pdop><geoidheight>50.60</geoidheight><course>40.924423</course><type>1</type></trkpt>
      <trkpt lat="39.42738516637497" lon="-5.909216571916902"><ele>2433</ele><speed>9.52</speed><time>2016-07-09T14:21:52Z</time><pdop>4.0</pdop><geoidheight>50.60</geoidheight><course>41.425358</course><type>1</type></trkpt>
      <trkpt lat="39.42745420796158" lon="-5.909128987646069"><ele>2435</ele><speed>9.21</speed><time>2016-07-09T14:21:53Z</time><pdop>4.0</pdop><geoidheight>50.60</geoidheight><course>42.625202</course><type>1</type></trkpt>
      <trkpt lat="39.42757767199603" lon="-5.908955997572389"><ele>2437</ele><speed>11.29</speed><time>2016-07-09T14:21:55Z</time><pdop>4.0</pdop><geoidheight>50.60</geoidheight><course>44.343754</course><type>1</type></trkpt>
      <trkpt lat="39.42764885481989" lon="-5.908860483566219"><ele>2439</ele><speed>11.71</speed><time>2016-07-09T14:21:56Z</time><pdop>4.0</pdop><geoidheight>50.60</geoidheight><course>43.86343</course><type>1</type></trkpt>
      <trkpt lat="39.427723010790686" lon="-5.908769167066976"><ele>2440</ele><speed>11.30</speed><time>2016-07-09T14:21:57Z</time><pdop>4.0</pdop><geoidheight>50.60</geoidheight><course>42.06456</course><type>1</type></trkpt>
      <trkpt lat="39.42780320384845" lon="-5.908681694800046"><ele>2441</ele><speed>11.40</speed><time>2016-07-09T14:21:58Z</time><pdop>4.0</pdop><geoidheight>50.60</geoidheight><course>39.834736</course><type>1</type></trkpt>
      <trkpt lat="39.427889653471624" lon="-5.908598503567102"><ele>2442</ele><speed>11.61</speed><time>2016-07-09T14:21:59Z</time><pdop>4.0</pdop><geoidheight>50.60</geoidheight><course>37.70088</course><type>1</type></trkpt>
      <trkpt lat="39.4279771803083" lon="-5.908521013083807"><ele>2443</ele><speed>11.62</speed><time>2016-07-09T14:22:00Z</time><pdop>4.0</pdop><geoidheight>50.60</geoidheight><course>35.912163</course><type>1</type></trkpt>
      <trkpt lat="39.42806531614947" lon="-5.9084474448490445"><ele>2445</ele><speed>11.35</speed><time>2016-07-09T14:22:01Z</time><pdop>4.0</pdop><geoidheight>50.60</geoidheight><course>34.768986</course><type>1</type></trkpt>
      <trkpt lat="39.428150024797695" lon="-5.908377679681139"><ele>2446</ele><speed>10.75</speed><time>2016-07-09T14:22:02Z</time><pdop>4.0</pdop><geoidheight>50.60</geoidheight><course>33.863335</course><type>1</type></trkpt>
      <trkpt lat="39.42823388127281" lon="-5.908314134070103"><ele>2447</ele><speed>10.41</speed><time>2016-07-09T14:22:03Z</time><pdop>4.0</pdop><geoidheight>50.60</geoidheight><course>32.502068</course><type>1</type></trkpt>
      <trkpt lat="39.428318626779436" lon="-5.9082530370439965"><ele>2448</ele><speed>10.87</speed><time>2016-07-09T14:22:04Z</time><pdop>4.0</pdop><geoidheight>50.60</geoidheight><course>31.085161</course><type>1</type></trkpt>
      <trkpt lat="39.42840636344445" lon="-5.908189950994545"><ele>2449</ele><speed>11.53</speed><time>2016-07-09T14:22:05Z</time><pdop>4.0</pdop><geoidheight>50.60</geoidheight><course>30.211582</course><type>1</type></trkpt>
      <trkpt lat="39.428498376615096" lon="-5.908123960724126"><ele>2449</ele><speed>11.88</speed><time>2016-07-09T14:22:06Z</time><pdop>4.0</pdop><geoidheight>50.60</geoidheight><course>30.221796</course><type>1</type></trkpt>
      <trkpt lat="39.42858476151024" lon="-5.9080593897027995"><ele>2450</ele><speed>11.69</speed><time>2016-07-09T14:22:07Z</time><pdop>4.0</pdop><geoidheight>50.60</geoidheight><course>30.785044</course><type>1</type></trkpt>
      <trkpt lat="39.42867313981249" lon="-5.907991098079071"><ele>2450</ele><speed>11.51</speed><time>2016-07-09T14:22:08Z</time><pdop>4.0</pdop><geoidheight>50.60</geoidheight><course>31.88388</course><type>1</type></trkpt>
      <trkpt lat="39.42875710400076" lon="-5.907921013424356"><ele>2451</ele><speed>10.43</speed><time>2016-07-09T14:22:09Z</time><pdop>4.0</pdop><geoidheight>50.60</geoidheight><course>32.61627</course><type>1</type></trkpt>
      <trkpt lat="39.42883949098921" lon="-5.907853327816803"><ele>2452</ele><speed>9.49</speed><time>2016-07-09T14:22:10Z</time><pdop>4.0</pdop><geoidheight>50.60</geoidheight><course>32.26026</course><type>1</type></trkpt>
      <trkpt lat="39.42896513322812" lon="-5.907744827171198"><ele>2453</ele><speed>7.43</speed><time>2016-07-09T14:22:12Z</time><pdop>6.0</pdop><geoidheight>50.60</geoidheight><course>35.33733</course><type>1</type></trkpt>
      <trkpt lat="39.429086641421776" lon="-5.907610150647076"><ele>2455</ele><speed>10.58</speed><time>2016-07-09T14:22:14Z</time><pdop>4.0</pdop><geoidheight>50.60</geoidheight><course>39.317234</course><type>1</type></trkpt>
      <trkpt lat="39.42915692128242" lon="-5.907532233405467"><ele>2455</ele><speed>10.66</speed><time>2016-07-09T14:22:15Z</time><pdop>4.0</pdop><geoidheight>50.60</geoidheight><course>38.79866</course><type>1</type></trkpt>
      <trkpt lat="39.429229464528575" lon="-5.907458581116381"><ele>2456</ele><speed>9.87</speed><time>2016-07-09T14:22:16Z</time><pdop>4.0</pdop><geoidheight>50.60</geoidheight><course>37.347916</course><type>1</type></trkpt>
      <trkpt lat="39.42936104896294" lon="-5.907323354714155"><ele>2457</ele><speed>8.56</speed><time>2016-07-09T14:22:18Z</time><pdop>8.0</pdop><geoidheight>50.60</geoidheight><course>38.79085</course><type>1</type></trkpt>
      <trkpt lat="39.4294717112585" lon="-5.907187949466244"><ele>2458</ele><speed>8.27</speed><time>2016-07-09T14:22:19Z</time><pdop>4.0</pdop><geoidheight>50.60</geoidheight><course>42.870823</course><type>1</type></trkpt>
      <trkpt lat="39.42952382526888" lon="-5.907119868187077"><ele>2458</ele><speed>8.32</speed><time>2016-07-09T14:22:20Z</time><pdop>4.0</pdop><geoidheight>50.60</geoidheight><course>43.277596</course><type>1</type></trkpt>
      <trkpt lat="39.42963879329868" lon="-5.906993735714782"><ele>2459</ele><speed>9.07</speed><time>2016-07-09T14:22:23Z</time><pdop>6.0</pdop><geoidheight>50.60</geoidheight><course>37.929977</course><type>1</type></trkpt>
      <trkpt lat="39.42976840340049" lon="-5.906882930613315"><ele>2458</ele><speed>8.99</speed><time>2016-07-09T14:22:25Z</time><pdop>6.0</pdop><geoidheight>50.60</geoidheight><course>33.335175</course><type>1</type></trkpt>
      <trkpt lat="39.42989291377921" lon="-5.90677107487306"><ele>2457</ele><speed>9.25</speed><time>2016-07-09T14:22:27Z</time><pdop>8.0</pdop><geoidheight>50.60</geoidheight><course>37.423866</course><type>1</type></trkpt>
      <trkpt lat="39.43002750632235" lon="-5.9066193955259445"><ele>2457</ele><speed>10.49</speed><time>2016-07-09T14:22:29Z</time><pdop>6.0</pdop><geoidheight>50.60</geoidheight><course>40.916542</course><type>1</type></trkpt>
      <trkpt lat="39.43016208438882" lon="-5.906462721360448"><ele>2456</ele><speed>9.14</speed><time>2016-07-09T14:22:31Z</time><pdop>4.0</pdop><geoidheight>50.60</geoidheight><course>41.311043</course><type>1</type></trkpt>
      <trkpt lat="39.430294040565414" lon="-5.906327979866098"><ele>2458</ele><speed>8.39</speed><time>2016-07-09T14:22:33Z</time><pdop>6.0</pdop><geoidheight>50.60</geoidheight><course>36.17385</course><type>1</type></trkpt>
      <trkpt lat="39.430430890052385" lon="-5.906217605453527"><ele>2459</ele><speed>10.83</speed><time>2016-07-09T14:22:35Z</time><pdop>8.0</pdop><geoidheight>50.60</geoidheight><course>32.116447</course><type>1</type></trkpt>
      <trkpt lat="39.430587982404724" lon="-5.906091669255485"><ele>2459</ele><speed>10.06</speed><time>2016-07-09T14:22:37Z</time><pdop>8.0</pdop><geoidheight>50.60</geoidheight><course>33.13871</course><type>1</type></trkpt>
      <trkpt lat="39.43073077332433" lon="-5.90596528336271"><ele>2460</ele><speed>8.89</speed><time>2016-07-09T14:22:39Z</time><pdop>8.0</pdop><geoidheight>50.60</geoidheight><course>35.660034</course><type>1</type></trkpt>
      <trkpt lat="39.430869485012394" lon="-5.905825443513104"><ele>2461</ele><speed>10.21</speed><time>2016-07-09T14:22:41Z</time><pdop>8.0</pdop><geoidheight>50.60</geoidheight><course>37.81752</course><type>1</type></trkpt>
      <trkpt lat="39.431005316553914" lon="-5.905682678761182"><ele>2461</ele><speed>9.05</speed><time>2016-07-09T14:22:43Z</time><pdop>6.0</pdop><geoidheight>50.60</geoidheight><course>37.830364</course><type>1</type></trkpt>
      <trkpt lat="39.43112941013956" lon="-5.905551260973098"><ele>2462</ele><speed>8.68</speed><time>2016-07-09T14:22:45Z</time><pdop>8.0</pdop><geoidheight>50.60</geoidheight><course>40.04518</course><type>1</type></trkpt>
      <trkpt lat="39.43125410529944" lon="-5.905403491247794"><ele>2463</ele><speed>9.53</speed><time>2016-07-09T14:22:47Z</time><pdop>8.0</pdop><geoidheight>50.60</geoidheight><course>42.015892</course><type>1</type></trkpt>
      <trkpt lat="39.43138647808842" lon="-5.905248659581007"><ele>2464</ele><speed>10.07</speed><time>2016-07-09T14:22:49Z</time><pdop>4.0</pdop><geoidheight>50.60</geoidheight><course>40.969585</course><type>1</type></trkpt>
      <trkpt lat="39.431519724635834" lon="-5.90510304877257"><ele>2465</ele><speed>9.13</speed><time>2016-07-09T14:22:51Z</time><pdop>8.0</pdop><geoidheight>50.60</geoidheight><course>40.496445</course><type>1</type></trkpt>
      <trkpt lat="39.43165232444146" lon="-5.904945557658275"><ele>2467</ele><speed>10.23</speed><time>2016-07-09T14:22:53Z</time><pdop>6.0</pdop><geoidheight>50.60</geoidheight><course>43.330082</course><type>1</type></trkpt>
      <trkpt lat="39.43171962000772" lon="-5.90485419558909"><ele>2468</ele><speed>11.06</speed><time>2016-07-09T14:22:54Z</time><pdop>4.0</pdop><geoidheight>50.60</geoidheight><course>45.448555</course><type>1</type></trkpt>
      <trkpt lat="39.431785979063484" lon="-5.9047566180701905"><ele>2469</ele><speed>10.82</speed><time>2016-07-09T14:22:55Z</time><pdop>4.0</pdop><geoidheight>50.60</geoidheight><course>47.545113</course><type>1</type></trkpt>
      <trkpt lat="39.43184705698039" lon="-5.904659571949494"><ele>2470</ele><speed>10.16</speed><time>2016-07-09T14:22:56Z</time><pdop>4.0</pdop><geoidheight>50.60</geoidheight><course>49.36285</course><type>1</type></trkpt>
      <trkpt lat="39.431905533917366" lon="-5.904564982373244"><ele>2471</ele><speed>9.73</speed><time>2016-07-09T14:22:57Z</time><pdop>4.0</pdop><geoidheight>50.60</geoidheight><course>50.23332</course><type>1</type></trkpt>
      <trkpt lat="39.43195858739991" lon="-5.904479182758872"><ele>2473</ele><speed>8.87</speed><time>2016-07-09T14:22:58Z</time><pdop>4.0</pdop><geoidheight>50.60</geoidheight><course>49.264378</course><type>1</type></trkpt>
      <trkpt lat="39.43201015501219" lon="-5.904401076574631"><ele>2474</ele><speed>8.79</speed><time>2016-07-09T14:22:59Z</time><pdop>4.0</pdop><geoidheight>50.60</geoidheight><course>48.050484</course><type>1</type></trkpt>
      <trkpt lat="39.43206420221722" lon="-5.904320099894456"><ele>2475</ele><speed>9.35</speed><time>2016-07-09T14:23:00Z</time><pdop>4.0</pdop><geoidheight>50.60</geoidheight><course>48.526566</course><type>1</type></trkpt>
      <trkpt lat="39.43211901918973" lon="-5.904231267458276"><ele>2477</ele><speed>9.95</speed><time>2016-07-09T14:23:01Z</time><pdop>4.0</pdop><geoidheight>50.60</geoidheight><course>50.115875</course><type>1</type></trkpt>
      <trkpt lat="39.432222405747076" lon="-5.90405152282117"><ele>2479</ele><speed>9.13</speed><time>2016-07-09T14:23:03Z</time><pdop>4.0</pdop><geoidheight>50.60</geoidheight><course>52.28796</course><type>1</type></trkpt>
      <trkpt lat="39.432271723529134" lon="-5.903969246825518"><ele>2480</ele><speed>8.81</speed><time>2016-07-09T14:23:04Z</time><pdop>4.0</pdop><geoidheight>50.60</geoidheight><course>50.596367</course><type>1</type></trkpt>
      <trkpt lat="39.432323526415054" lon="-5.903892899959241"><ele>2481</ele><speed>8.89</speed><time>2016-07-09T14:23:05Z</time><pdop>4.0</pdop><geoidheight>50.60</geoidheight><course>48.19061</course><type>1</type></trkpt>
      <trkpt lat="39.43237890295788" lon="-5.903817916077971"><ele>2482</ele><speed>9.22</speed><time>2016-07-09T14:23:06Z</time><pdop>4.0</pdop><geoidheight>50.60</geoidheight><course>46.74157</course><type>1</type></trkpt>
      <trkpt lat="39.43243888399874" lon="-5.903737734992244"><ele>2482</ele><speed>9.82</speed><time>2016-07-09T14:23:07Z</time><pdop>4.0</pdop><geoidheight>50.60</geoidheight><course>46.852512</course><type>1</type></trkpt>
      <trkpt lat="39.4325011250565" lon="-5.903653178002937"><ele>2483</ele><speed>10.27</speed><time>2016-07-09T14:23:08Z</time><pdop>4.0</pdop><geoidheight>50.60</geoidheight><course>47.510296</course><type>1</type></trkpt>
      <trkpt lat="39.43256105228283" lon="-5.903571134965974"><ele>2483</ele><speed>9.95</speed><time>2016-07-09T14:23:09Z</time><pdop>4.0</pdop><geoidheight>50.60</geoidheight><course>45.819576</course><type>1</type></trkpt>
      <trkpt lat="39.432625376024845" lon="-5.903497698874276"><ele>2483</ele><speed>9.32</speed><time>2016-07-09T14:23:10Z</time><pdop>4.0</pdop><geoidheight>50.60</geoidheight><course>42.68662</course><type>1</type></trkpt>
      <trkpt lat="39.43269132228365" lon="-5.903433027829421"><ele>2483</ele><speed>9.18</speed><time>2016-07-09T14:23:11Z</time><pdop>4.0</pdop><geoidheight>50.60</geoidheight><course>39.56112</course><type>1</type></trkpt>
      <trkpt lat="39.43282973303022" lon="-5.9033068376329165"><ele>2483</ele><speed>10.03</speed><time>2016-07-09T14:23:13Z</time><pdop>4.0</pdop><geoidheight>50.60</geoidheight><course>37.107685</course><type>1</type></trkpt>
      <trkpt lat="39.43290103979212" lon="-5.903240646055404"><ele>2483</ele><speed>9.82</speed><time>2016-07-09T14:23:14Z</time><pdop>4.0</pdop><geoidheight>50.60</geoidheight><course>37.164684</course><type>1</type></trkpt>
      <trkpt lat="39.43297225342301" lon="-5.903174966675489"><ele>2483</ele><speed>9.21</speed><time>2016-07-09T14:23:15Z</time><pdop>4.0</pdop><geoidheight>50.60</geoidheight><course>37.980682</course><type>1</type></trkpt>
      <trkpt lat="39.43310663003276" lon="-5.903046679977197"><ele>2483</ele><speed>9.17</speed><time>2016-07-09T14:23:17Z</time><pdop>4.0</pdop><geoidheight>50.60</geoidheight><course>38.685085</course><type>1</type></trkpt>
      <trkpt lat="39.43324557744203" lon="-5.902913618065262"><ele>2483</ele><speed>10.23</speed><time>2016-07-09T14:23:19Z</time><pdop>4.0</pdop><geoidheight>50.60</geoidheight><course>36.716835</course><type>1</type></trkpt>
      <trkpt lat="39.43331778875534" lon="-5.902847760616298"><ele>2482</ele><speed>10.42</speed><time>2016-07-09T14:23:20Z</time><pdop>4.0</pdop><geoidheight>50.60</geoidheight><course>35.998035</course><type>1</type></trkpt>
      <trkpt lat="39.4333974808729" lon="-5.902775054205765"><ele>2482</ele><speed>11.02</speed><time>2016-07-09T14:23:21Z</time><pdop>4.0</pdop><geoidheight>50.60</geoidheight><course>36.514996</course><type>1</type></trkpt>
      <trkpt lat="39.43347884960406" lon="-5.902698916520443"><ele>2481</ele><speed>10.76</speed><time>2016-07-09T14:23:22Z</time><pdop>4.0</pdop><geoidheight>50.60</geoidheight><course>37.08947</course><type>1</type></trkpt>
      <trkpt lat="39.433556283296326" lon="-5.902625852654916"><ele>2481</ele><speed>10.24</speed><time>2016-07-09T14:23:23Z</time><pdop>4.0</pdop><geoidheight>50.60</geoidheight><course>36.18571</course><type>1</type></trkpt>
      <trkpt lat="39.43363442996811" lon="-5.902560167666453"><ele>2481</ele><speed>9.42</speed><time>2016-07-09T14:23:24Z</time><pdop>4.0</pdop><geoidheight>50.60</geoidheight><course>33.976433</course><type>1</type></trkpt>
      <trkpt lat="39.43370877363604" lon="-5.90250286856452"><ele>2482</ele><speed>9.20</speed><time>2016-07-09T14:23:25Z</time><pdop>4.0</pdop><geoidheight>50.60</geoidheight><course>32.19444</course><type>1</type></trkpt>
      <trkpt lat="39.433785461266005" lon="-5.9024435900712655"><ele>2482</ele><speed>10.36</speed><time>2016-07-09T14:23:26Z</time><pdop>4.0</pdop><geoidheight>50.60</geoidheight><course>33.003185</course><type>1</type></trkpt>
      <trkpt lat="39.43394401956785" lon="-5.902308246389671"><ele>2481</ele><speed>10.59</speed><time>2016-07-09T14:23:28Z</time><pdop>4.0</pdop><geoidheight>50.60</geoidheight><course>33.153652</course><type>1</type></trkpt>
      <trkpt lat="39.43402259538216" lon="-5.902250154555226"><ele>2482</ele><speed>9.43</speed><time>2016-07-09T14:23:29Z</time><pdop>4.0</pdop><geoidheight>50.60</geoidheight><course>30.841032</course><type>1</type></trkpt>
      <trkpt lat="39.43409395667976" lon="-5.902203101022432"><ele>2482</ele><speed>8.51</speed><time>2016-07-09T14:23:30Z</time><pdop>4.0</pdop><geoidheight>50.60</geoidheight><course>28.729168</course><type>1</type></trkpt>
      <trkpt lat="39.43416078412487" lon="-5.902158947564019"><ele>2482</ele><speed>8.20</speed><time>2016-07-09T14:23:31Z</time><pdop>4.0</pdop><geoidheight>50.60</geoidheight><course>28.47968</course><type>1</type></trkpt>
      <trkpt lat="39.43422522577718" lon="-5.902111525386715"><ele>2482</ele><speed>8.77</speed><time>2016-07-09T14:23:31Z</time><pdop>4.0</pdop><geoidheight>50.60</geoidheight><course>30.574736</course><type>1</type></trkpt>
      <trkpt lat="39.43429288303953" lon="-5.902052226184459"><ele>2482</ele><speed>9.39</speed><time>2016-07-09T14:23:32Z</time><pdop>4.0</pdop><geoidheight>50.60</geoidheight><course>33.73594</course><type>1</type></trkpt>
      <trkpt lat="39.4344296459228" lon="-5.90192095557418"><ele>2481</ele><speed>9.14</speed><time>2016-07-09T14:23:35Z</time><pdop>6.0</pdop><geoidheight>50.60</geoidheight><course>36.464787</course><type>1</type></trkpt>
      <trkpt lat="39.43455704370635" lon="-5.9018006688695905"><ele>2480</ele><speed>8.80</speed><time>2016-07-09T14:23:37Z</time><pdop>6.0</pdop><geoidheight>50.60</geoidheight><course>36.280716</course><type>1</type></trkpt>
      <trkpt lat="39.434690397278224" lon="-5.901679770550172"><ele>2479</ele><speed>9.42</speed><time>2016-07-09T14:23:39Z</time><pdop>4.0</pdop><geoidheight>50.60</geoidheight><course>34.34489</course><type>1</type></trkpt>
      <trkpt lat="39.434761279467885" lon="-5.901617608415252"><ele>2478</ele><speed>9.80</speed><time>2016-07-09T14:23:40Z</time><pdop>4.0</pdop><geoidheight>50.60</geoidheight><course>34.378956</course><type>1</type></trkpt>
      <trkpt lat="39.43483239247376" lon="-5.90154731421418"><ele>2477</ele><speed>10.14</speed><time>2016-07-09T14:23:41Z</time><pdop>4.0</pdop><geoidheight>50.60</geoidheight><course>37.00616</course><type>1</type></trkpt>
      <trkpt lat="39.43489845230727" lon="-5.901471913403254"><ele>2477</ele><speed>9.79</speed><time>2016-07-09T14:23:42Z</time><pdop>4.0</pdop><geoidheight>50.60</geoidheight><course>40.480846</course><type>1</type></trkpt>
      <trkpt lat="39.43502786712542" lon="-5.901306673815492"><ele>2475</ele><speed>9.91</speed><time>2016-07-09T14:23:44Z</time><pdop>8.0</pdop><geoidheight>50.60</geoidheight><course>43.432354</course><type>1</type></trkpt>
      <trkpt lat="39.435158215839756" lon="-5.9011591478774985"><ele>2474</ele><speed>9.82</speed><time>2016-07-09T14:23:46Z</time><pdop>4.0</pdop><geoidheight>50.60</geoidheight><course>39.374508</course><type>1</type></trkpt>
      <trkpt lat="39.435223878357114" lon="-5.90109146008186"><ele>2474</ele><speed>9.27</speed><time>2016-07-09T14:23:47Z</time><pdop>4.0</pdop><geoidheight>50.60</geoidheight><course>38.719875</course><type>1</type></trkpt>
      <trkpt lat="39.43528737339424" lon="-5.901021322304067"><ele>2474</ele><speed>9.42</speed><time>2016-07-09T14:23:48Z</time><pdop>4.0</pdop><geoidheight>50.60</geoidheight><course>40.619167</course><type>1</type></trkpt>
      <trkpt lat="39.43534883118232" lon="-5.900944592821638"><ele>2474</ele><speed>9.57</speed><time>2016-07-09T14:23:49Z</time><pdop>4.0</pdop><geoidheight>50.60</geoidheight><course>43.249763</course><type>1</type></trkpt>
      <trkpt lat="39.43540852765916" lon="-5.90086177826622"><ele>2473</ele><speed>9.78</speed><time>2016-07-09T14:23:50Z</time><pdop>4.0</pdop><geoidheight>50.60</geoidheight><course>45.406796</course><type>1</type></trkpt>
      <trkpt lat="39.43546557448972" lon="-5.900779938039126"><ele>2473</ele><speed>9.77</speed><time>2016-07-09T14:23:50Z</time><pdop>4.0</pdop><geoidheight>50.60</geoidheight><course>46.129894</course><type>1</type></trkpt>
      <trkpt lat="39.435523317593955" lon="-5.900695200753222"><ele>2473</ele><speed>9.71</speed><time>2016-07-09T14:23:51Z</time><pdop>4.0</pdop><geoidheight>50.60</geoidheight><course>46.500004</course><type>1</type></trkpt>
      <trkpt lat="39.43564297594252" lon="-5.900517506484064"><ele>2473</ele><speed>9.63</speed><time>2016-07-09T14:23:54Z</time><pdop>8.0</pdop><geoidheight>50.60</geoidheight><course>46.600315</course><type>1</type></trkpt>
      <trkpt lat="39.43575860110656" lon="-5.9003698983567"><ele>2473</ele><speed>9.30</speed><time>2016-07-09T14:23:56Z</time><pdop>8.0</pdop><geoidheight>50.60</geoidheight><course>40.97745</course><type>1</type></trkpt>
      <trkpt lat="39.43589292948799" lon="-5.900215804835822"><ele>2472</ele><speed>10.48</speed><time>2016-07-09T14:23:58Z</time><pdop>8.0</pdop><geoidheight>50.60</geoidheight><course>42.26868</course><type>1</type></trkpt>
      <trkpt lat="39.43601852089778" lon="-5.900076606829536"><ele>2471</ele><speed>8.49</speed><time>2016-07-09T14:24:00Z</time><pdop>8.0</pdop><geoidheight>50.60</geoidheight><course>40.649017</course><type>1</type></trkpt>
      <trkpt lat="39.43613616498236" lon="-5.899957843297156"><ele>2471</ele><speed>8.19</speed><time>2016-07-09T14:24:02Z</time><pdop>8.0</pdop><geoidheight>50.60</geoidheight><course>40.353153</course><type>1</type></trkpt>
      <trkpt lat="39.436262819502446" lon="-5.8998054656474554"><ele>2471</ele><speed>10.11</speed><time>2016-07-09T14:24:04Z</time><pdop>8.0</pdop><geoidheight>50.60</geoidheight><course>44.15066</course><type>1</type></trkpt>
      <trkpt lat="39.43639243261765" lon="-5.899641702694788"><ele>2471</ele><speed>9.25</speed><time>2016-07-09T14:24:06Z</time><pdop>8.0</pdop><geoidheight>50.60</geoidheight><course>44.353184</course><type>1</type></trkpt>
      <trkpt lat="39.436527684317134" lon="-5.899442032955317"><ele>2473</ele><speed>6.68</speed><time>2016-07-09T14:24:09Z</time><pdop>8.0</pdop><geoidheight>50.60</geoidheight><course>49.760517</course><type>1</type></trkpt>
      <trkpt lat="39.43667012041026" lon="-5.899230293124652"><ele>2475</ele><speed>9.18</speed><time>2016-07-09T14:24:12Z</time><pdop>8.0</pdop><geoidheight>50.60</geoidheight><course>48.37748</course><type>1</type></trkpt>
      <trkpt lat="39.4367718093361" lon="-5.899071124565774"><ele>2477</ele><speed>7.94</speed><time>2016-07-09T14:24:14Z</time><pdop>8.0</pdop><geoidheight>50.60</geoidheight><course>49.806267</course><type>1</type></trkpt>
      <trkpt lat="39.43692430606509" lon="-5.898918258281497"><ele>2479</ele><speed>7.29</speed><time>2016-07-09T14:24:17Z</time><pdop>8.0</pdop><geoidheight>50.60</geoidheight><course>30.884518</course><type>1</type></trkpt>
      <trkpt lat="39.43706385762611" lon="-5.8987292859732445"><ele>2480</ele><speed>7.43</speed><time>2016-07-09T14:24:20Z</time><pdop>8.0</pdop><geoidheight>50.60</geoidheight><course>47.21743</course><type>1</type></trkpt>
      <trkpt lat="39.43719682034078" lon="-5.898564279356118"><ele>2481</ele><speed>6.48</speed><time>2016-07-09T14:24:23Z</time><pdop>8.0</pdop><geoidheight>50.60</geoidheight><course>42.94245</course><type>1</type></trkpt>
      <trkpt lat="39.43733557957576" lon="-5.898377565858198"><ele>2481</ele><speed>8.51</speed><time>2016-07-09T14:24:26Z</time><pdop>8.0</pdop><geoidheight>50.60</geoidheight><course>47.03464</course><type>1</type></trkpt>
      <trkpt lat="39.43746760130736" lon="-5.898176285765478"><ele>2481</ele><speed>7.17</speed><time>2016-07-09T14:24:29Z</time><pdop>8.0</pdop><geoidheight>50.60</geoidheight><course>50.750057</course><type>1</type></trkpt>
      <trkpt lat="39.43756172908638" lon="-5.898030442718573"><ele>2479</ele><speed>9.51</speed><time>2016-07-09T14:24:31Z</time><pdop>8.0</pdop><geoidheight>50.60</geoidheight><course>48.157078</course><type>1</type></trkpt>
      <trkpt lat="39.43767990647985" lon="-5.897887673022187"><ele>2478</ele><speed>8.57</speed><time>2016-07-09T14:24:33Z</time><pdop>8.0</pdop><geoidheight>50.60</geoidheight><course>42.7158</course><type>1</type></trkpt>
      <trkpt lat="39.43783394651755" lon="-5.897720589117582"><ele>2478</ele><speed>7.43</speed><time>2016-07-09T14:24:36Z</time><pdop>8.0</pdop><geoidheight>50.60</geoidheight><course>40.887756</course><type>1</type></trkpt>
      <trkpt lat="39.43795279839735" lon="-5.897593829052156"><ele>2478</ele><speed>9.41</speed><time>2016-07-09T14:24:38Z</time><pdop>8.0</pdop><geoidheight>50.60</geoidheight><course>40.32706</course><type>1</type></trkpt>
      <trkpt lat="39.43807810150463" lon="-5.8974629032943175"><ele>2477</ele><speed>8.51</speed><time>2016-07-09T14:24:40Z</time><pdop>8.0</pdop><geoidheight>50.60</geoidheight><course>39.374966</course><type>1</type></trkpt>
      <trkpt lat="39.43819122445768" lon="-5.897347184733092"><ele>2477</ele><speed>7.00</speed><time>2016-07-09T14:24:42Z</time><pdop>8.0</pdop><geoidheight>50.60</geoidheight><course>40.719955</course><type>1</type></trkpt>
      <trkpt lat="39.438307161725916" lon="-5.897183781707435"><ele>2479</ele><speed>5.92</speed><time>2016-07-09T14:24:45Z</time><pdop>8.0</pdop><geoidheight>50.60</geoidheight><course>48.247677</course><type>1</type></trkpt>
      <trkpt lat="39.438427321049566" lon="-5.897013176577545"><ele>2482</ele><speed>5.99</speed><time>2016-07-09T14:24:48Z</time><pdop>8.0</pdop><geoidheight>50.60</geoidheight><course>49.04916</course><type>1</type></trkpt>
      <trkpt lat="39.43850154017584" lon="-5.896825350087311"><ele>2485</ele><speed>7.02</speed><time>2016-07-09T14:24:51Z</time><pdop>8.0</pdop><geoidheight>50.60</geoidheight><course>60.971714</course><type>1</type></trkpt>
      <trkpt lat="39.4386337087901" lon="-5.896623433017319"><ele>2488</ele><speed>7.17</speed><time>2016-07-09T14:24:54Z</time><pdop>8.0</pdop><geoidheight>50.60</geoidheight><course>39.775974</course><type>1</type></trkpt>
      <trkpt lat="39.438813021978255" lon="-5.896454663838041"><ele>2491</ele><speed>8.59</speed><time>2016-07-09T14:24:57Z</time><pdop>8.0</pdop><geoidheight>50.60</geoidheight><course>37.122177</course><type>1</type></trkpt>
      <trkpt lat="39.43891650644572" lon="-5.89621849299101"><ele>2495</ele><speed>7.52</speed><time>2016-07-09T14:25:00Z</time><pdop>8.0</pdop><geoidheight>50.60</geoidheight><course>68.35442</course><type>1</type></trkpt>
      <trkpt lat="39.439010067777104" lon="-5.8960574220136674"><ele>2497</ele><speed>9.40</speed><time>2016-07-09T14:25:02Z</time><pdop>8.0</pdop><geoidheight>50.60</geoidheight><course>45.220863</course><type>1</type></trkpt>
      <trkpt lat="39.439177596943146" lon="-5.895836820203712"><ele>2500</ele><speed>7.16</speed><time>2016-07-09T14:25:05Z</time><pdop>8.0</pdop><geoidheight>50.60</geoidheight><course>48.237938</course><type>1</type></trkpt>
      <trkpt lat="39.43929760661349" lon="-5.895634789023659"><ele>2503</ele><speed>7.50</speed><time>2016-07-09T14:25:08Z</time><pdop>8.0</pdop><geoidheight>50.60</geoidheight><course>50.197346</course><type>1</type></trkpt>
      <trkpt lat="39.43943487636961" lon="-5.895440081962496"><ele>2507</ele><speed>6.48</speed><time>2016-07-09T14:25:11Z</time><pdop>8.0</pdop><geoidheight>50.60</geoidheight><course>46.969604</course><type>1</type></trkpt>
      <trkpt lat="39.43959035350642" lon="-5.895260149337533"><ele>2511</ele><speed>7.40</speed><time>2016-07-09T14:25:14Z</time><pdop>8.0</pdop><geoidheight>50.60</geoidheight><course>39.95471</course><type>1</type></trkpt>
      <trkpt lat="39.439713804035485" lon="-5.895134416568656"><ele>2514</ele><speed>8.35</speed><time>2016-07-09T14:25:16Z</time><pdop>4.0</pdop><geoidheight>50.60</geoidheight><course>37.633083</course><type>1</type></trkpt>
      <trkpt lat="39.439834554725536" lon="-5.895018299963093"><ele>2517</ele><speed>8.09</speed><time>2016-07-09T14:25:18Z</time><pdop>8.0</pdop><geoidheight>50.60</geoidheight><course>34.104458</course><type>1</type></trkpt>
      <trkpt lat="39.43996698786118" lon="-5.894909308401146"><ele>2520</ele><speed>8.79</speed><time>2016-07-09T14:25:20Z</time><pdop>8.0</pdop><geoidheight>50.60</geoidheight><course>31.03432</course><type>1</type></trkpt>
      <trkpt lat="39.440123671333545" lon="-5.894789718682899"><ele>2523</ele><speed>10.08</speed><time>2016-07-09T14:25:22Z</time><pdop>8.0</pdop><geoidheight>50.60</geoidheight><course>29.330612</course><type>1</type></trkpt>
      <trkpt lat="39.44026952778669" lon="-5.894681954615016"><ele>2527</ele><speed>8.33</speed><time>2016-07-09T14:25:24Z</time><pdop>8.0</pdop><geoidheight>50.60</geoidheight><course>29.590681</course><type>1</type></trkpt>
      <trkpt lat="39.440406778598415" lon="-5.894559220427135"><ele>2531</ele><speed>8.79</speed><time>2016-07-09T14:25:26Z</time><pdop>8.0</pdop><geoidheight>50.60</geoidheight><course>34.01153</course><type>1</type></trkpt>
      <trkpt lat="39.44054075781385" lon="-5.894418636253318"><ele>2535</ele><speed>8.76</speed><time>2016-07-09T14:25:28Z</time><pdop>8.0</pdop><geoidheight>50.60</geoidheight><course>36.640827</course><type>1</type></trkpt>
      <trkpt lat="39.440717615882555" lon="-5.894248250490122"><ele>2542</ele><speed>8.57</speed><time>2016-07-09T14:25:31Z</time><pdop>8.0</pdop><geoidheight>50.60</geoidheight><course>33.040985</course><type>1</type></trkpt>
      <trkpt lat="39.440866992919" lon="-5.894134105949259"><ele>2547</ele><speed>9.10</speed><time>2016-07-09T14:25:33Z</time><pdop>8.0</pdop><geoidheight>50.60</geoidheight><course>28.233107</course><type>1</type></trkpt>
      <trkpt lat="39.44102449123533" lon="-5.894023382447222"><ele>2554</ele><speed>8.72</speed><time>2016-07-09T14:25:35Z</time><pdop>8.0</pdop><geoidheight>50.60</geoidheight><course>26.101828</course><type>1</type></trkpt>
      <trkpt lat="39.4411667190554" lon="-5.893914273051541"><ele>2560</ele><speed>8.16</speed><time>2016-07-09T14:25:37Z</time><pdop>8.0</pdop><geoidheight>50.60</geoidheight><course>30.10767</course><type>1</type></trkpt>
      <trkpt lat="39.44129255663544" lon="-5.8937820051800704"><ele>2567</ele><speed>7.63</speed><time>2016-07-09T14:25:39Z</time><pdop>8.0</pdop><geoidheight>50.60</geoidheight><course>36.665245</course><type>1</type></trkpt>
      <trkpt lat="39.44140957659226" lon="-5.893646084898729"><ele>2574</ele><speed>7.75</speed><time>2016-07-09T14:25:41Z</time><pdop>8.0</pdop><geoidheight>50.60</geoidheight><course>36.053185</course><type>1</type></trkpt>
      <trkpt lat="39.44153239435835" lon="-5.893513957104806"><ele>2581</ele><speed>8.10</speed><time>2016-07-09T14:25:43Z</time><pdop>8.0</pdop><geoidheight>50.60</geoidheight><course>35.837673</course><type>1</type></trkpt>
      <trkpt lat="39.44165281435807" lon="-5.893376491529323"><ele>2588</ele><speed>8.31</speed><time>2016-07-09T14:25:45Z</time><pdop>8.0</pdop><geoidheight>50.60</geoidheight><course>37.905373</course><type>1</type></trkpt>
      <trkpt lat="39.44177277377374" lon="-5.893238894727653"><ele>2594</ele><speed>8.20</speed><time>2016-07-09T14:25:47Z</time><pdop>8.0</pdop><geoidheight>50.60</geoidheight><course>37.936638</course><type>1</type></trkpt>
      <trkpt lat="39.44189030225508" lon="-5.893106534655791"><ele>2600</ele><speed>7.56</speed><time>2016-07-09T14:25:49Z</time><pdop>8.0</pdop><geoidheight>50.60</geoidheight><course>38.380318</course><type>1</type></trkpt>
      <trkpt lat="39.44200837757068" lon="-5.8929744572156775"><ele>2607</ele><speed>8.21</speed><time>2016-07-09T14:25:51Z</time><pdop>8.0</pdop><geoidheight>50.60</geoidheight><course>36.65994</course><type>1</type></trkpt>
      <trkpt lat="39.44214152869901" lon="-5.892843442536111"><ele>2614</ele><speed>8.62</speed><time>2016-07-09T14:25:53Z</time><pdop>8.0</pdop><geoidheight>50.60</geoidheight><course>33.667965</course><type>1</type></trkpt>
      <trkpt lat="39.442275603904456" lon="-5.892714647738865"><ele>2621</ele><speed>8.72</speed><time>2016-07-09T14:25:55Z</time><pdop>8.0</pdop><geoidheight>50.60</geoidheight><course>33.98431</course><type>1</type></trkpt>
      <trkpt lat="39.44240856307573" lon="-5.8925771912562"><ele>2627</ele><speed>9.52</speed><time>2016-07-09T14:25:57Z</time><pdop>8.0</pdop><geoidheight>50.60</geoidheight><course>36.934547</course><type>1</type></trkpt>
      <trkpt lat="39.442561434058995" lon="-5.892414902836071"><ele>2633</ele><speed>10.35</speed><time>2016-07-09T14:25:59Z</time><pdop>8.0</pdop><geoidheight>50.60</geoidheight><course>37.854668</course><type>1</type></trkpt>
      <trkpt lat="39.44269770756834" lon="-5.89226918781103"><ele>2639</ele><speed>8.93</speed><time>2016-07-09T14:26:01Z</time><pdop>8.0</pdop><geoidheight>50.60</geoidheight><course>37.1629</course><type>1</type></trkpt>
      <trkpt lat="39.442831260475494" lon="-5.892108326889876"><ele>2644</ele><speed>9.30</speed><time>2016-07-09T14:26:03Z</time><pdop>8.0</pdop><geoidheight>50.60</geoidheight><course>40.85115</course><type>1</type></trkpt>
      <trkpt lat="39.442954550818946" lon="-5.891951559642762"><ele>2649</ele><speed>7.41</speed><time>2016-07-09T14:26:05Z</time><pdop>8.0</pdop><geoidheight>50.60</geoidheight><course>40.46872</course><type>1</type></trkpt>
      <trkpt lat="39.44306447008103" lon="-5.891807803882643"><ele>2654</ele><speed>6.46</speed><time>2016-07-09T14:26:07Z</time><pdop>8.0</pdop><geoidheight>50.60</geoidheight><course>40.649384</course><type>1</type></trkpt>
      <trkpt lat="39.44315679986733" lon="-5.89166395581941"><ele>2659</ele><speed>7.74</speed><time>2016-07-09T14:26:09Z</time><pdop>8.0</pdop><geoidheight>50.60</geoidheight><course>45.553955</course><type>1</type></trkpt>
      <trkpt lat="39.443266002829965" lon="-5.891478955885987"><ele>2663</ele><speed>10.04</speed><time>2016-07-09T14:26:11Z</time><pdop>8.0</pdop><geoidheight>50.60</geoidheight><course>50.59838</course><type>1</type></trkpt>
      <trkpt lat="39.44335954313104" lon="-5.891295765345363"><ele>2667</ele><speed>7.67</speed><time>2016-07-09T14:26:13Z</time><pdop>8.0</pdop><geoidheight>50.60</geoidheight><course>53.48633</course><type>1</type></trkpt>
      <trkpt lat="39.44346638662797" lon="-5.891066422946899"><ele>2673</ele><speed>7.74</speed><time>2016-07-09T14:26:16Z</time><pdop>8.0</pdop><geoidheight>50.60</geoidheight><course>54.374344</course><type>1</type></trkpt>
      <trkpt lat="39.44355463517294" lon="-5.890900047333957"><ele>2675</ele><speed>9.51</speed><time>2016-07-09T14:26:18Z</time><pdop>6.0</pdop><geoidheight>50.60</geoidheight><course>52.223576</course><type>1</type></trkpt>
      <trkpt lat="39.44366528931654" lon="-5.890744159203579"><ele>2676</ele><speed>9.22</speed><time>2016-07-09T14:26:20Z</time><pdop>6.0</pdop><geoidheight>50.60</geoidheight><course>45.792465</course><type>1</type></trkpt>
      <trkpt lat="39.44378942599644" lon="-5.890603581852048"><ele>2677</ele><speed>9.57</speed><time>2016-07-09T14:26:22Z</time><pdop>8.0</pdop><geoidheight>50.60</geoidheight><course>42.797207</course><type>1</type></trkpt>
      <trkpt lat="39.44391820706932" lon="-5.890442894391291"><ele>2677</ele><speed>9.97</speed><time>2016-07-09T14:26:24Z</time><pdop>8.0</pdop><geoidheight>50.60</geoidheight><course>45.402843</course><type>1</type></trkpt>
      <trkpt lat="39.444041921215366" lon="-5.8902982050622965"><ele>2678</ele><speed>8.67</speed><time>2016-07-09T14:26:26Z</time><pdop>8.0</pdop><geoidheight>50.60</geoidheight><course>40.281017</course><type>1</type></trkpt>
      <trkpt lat="39.44419842871859" lon="-5.890191216314603"><ele>2678</ele><speed>10.76</speed><time>2016-07-09T14:26:28Z</time><pdop>8.0</pdop><geoidheight>50.60</geoidheight><course>28.155512</course><type>1</type></trkpt>
      <trkpt lat="39.4443380571527" lon="-5.890032663551432"><ele>2677</ele><speed>9.66</speed><time>2016-07-09T14:26:30Z</time><pdop>8.0</pdop><geoidheight>50.60</geoidheight><course>42.521523</course><type>1</type></trkpt>
      <trkpt lat="39.44445535591688" lon="-5.88988470480449"><ele>2678</ele><speed>8.44</speed><time>2016-07-09T14:26:32Z</time><pdop>8.0</pdop><geoidheight>50.60</geoidheight><course>44.821167</course><type>1</type></trkpt>
      <trkpt lat="39.44457878061863" lon="-5.8897265075234735"><ele>2678</ele><speed>11.15</speed><time>2016-07-09T14:26:34Z</time><pdop>8.0</pdop><geoidheight>50.60</geoidheight><course>44.516197</course><type>1</type></trkpt>
      <trkpt lat="39.44473049526003" lon="-5.889546656772778"><ele>2677</ele><speed>11.28</speed><time>2016-07-09T14:26:36Z</time><pdop>8.0</pdop><geoidheight>50.60</geoidheight><course>41.410587</course><type>1</type></trkpt>
      <trkpt lat="39.44487278166887" lon="-5.889415361089478"><ele>2676</ele><speed>8.70</speed><time>2016-07-09T14:26:38Z</time><pdop>8.0</pdop><geoidheight>50.60</geoidheight><course>35.906883</course><type>1</type></trkpt>
      <trkpt lat="39.445009884056276" lon="-5.889299681084037"><ele>2677</ele><speed>10.15</speed><time>2016-07-09T14:26:40Z</time><pdop>8.0</pdop><geoidheight>50.60</geoidheight><course>35.267353</course><type>1</type></trkpt>
      <trkpt lat="39.44517458571646" lon="-5.889154860212824"><ele>2676</ele><speed>11.58</speed><time>2016-07-09T14:26:42Z</time><pdop>8.0</pdop><geoidheight>50.60</geoidheight><course>35.089096</course><type>1</type></trkpt>
      <trkpt lat="39.4453343445783" lon="-5.889024539453352"><ele>2676</ele><speed>9.11</speed><time>2016-07-09T14:26:44Z</time><pdop>8.0</pdop><geoidheight>50.60</geoidheight><course>33.54446</course><type>1</type></trkpt>
      <trkpt lat="39.44547087968236" lon="-5.888910463278758"><ele>2676</ele><speed>8.96</speed><time>2016-07-09T14:26:46Z</time><pdop>8.0</pdop><geoidheight>50.60</geoidheight><course>35.17405</course><type>1</type></trkpt>
      <trkpt lat="39.44561602196905" lon="-5.888776687877495"><ele>2675</ele><speed>10.87</speed><time>2016-07-09T14:26:48Z</time><pdop>8.0</pdop><geoidheight>50.60</geoidheight><course>36.46463</course><type>1</type></trkpt>
      <trkpt lat="39.445778013752935" lon="-5.888630865781552"><ele>2675</ele><speed>10.40</speed><time>2016-07-09T14:26:50Z</time><pdop>8.0</pdop><geoidheight>50.60</geoidheight><course>34.25606</course><type>1</type></trkpt>
      <trkpt lat="39.44592061873179" lon="-5.88851752734188"><ele>2675</ele><speed>8.21</speed><time>2016-07-09T14:26:52Z</time><pdop>8.0</pdop><geoidheight>50.60</geoidheight><course>31.95908</course><type>1</type></trkpt>
      <trkpt lat="39.44606093625599" lon="-5.888399079455156"><ele>2676</ele><speed>9.93</speed><time>2016-07-09T14:26:54Z</time><pdop>8.0</pdop><geoidheight>50.60</geoidheight><course>34.656307</course><type>1</type></trkpt>
      <trkpt lat="39.44620781241629" lon="-5.888255466671633"><ele>2676</ele><speed>10.19</speed><time>2016-07-09T14:26:56Z</time><pdop>8.0</pdop><geoidheight>50.60</geoidheight><course>37.073597</course><type>1</type></trkpt>
      <trkpt lat="39.44634543995664" lon="-5.888114389056463"><ele>2675</ele><speed>9.53</speed><time>2016-07-09T14:26:58Z</time><pdop>8.0</pdop><geoidheight>50.60</geoidheight><course>38.368332</course><type>1</type></trkpt>
      <trkpt lat="39.44647239438671" lon="-5.887961141845528"><ele>2675</ele><speed>9.95</speed><time>2016-07-09T14:27:00Z</time><pdop>8.0</pdop><geoidheight>50.60</geoidheight><course>42.76461</course><type>1</type></trkpt>
      <trkpt lat="39.44658237545699" lon="-5.88780091722557"><ele>2674</ele><speed>8.68</speed><time>2016-07-09T14:27:01Z</time><pdop>4.0</pdop><geoidheight>50.60</geoidheight><course>46.647507</course><type>1</type></trkpt>
      <trkpt lat="39.44668166520578" lon="-5.887649188760151"><ele>2675</ele><speed>8.36</speed><time>2016-07-09T14:27:03Z</time><pdop>8.0</pdop><geoidheight>50.60</geoidheight><course>50.040295</course><type>1</type></trkpt>
      <trkpt lat="39.446781766050115" lon="-5.887491159199123"><ele>2676</ele><speed>9.92</speed><time>2016-07-09T14:27:06Z</time><pdop>6.0</pdop><geoidheight>50.60</geoidheight><course>50.2326</course><type>1</type></trkpt>
      <trkpt lat="39.44688861034463" lon="-5.887322039782008"><ele>2676</ele><speed>8.20</speed><time>2016-07-09T14:27:08Z</time><pdop>4.0</pdop><geoidheight>50.60</geoidheight><course>49.511547</course><type>1</type></trkpt>
      <trkpt lat="39.44699308479064" lon="-5.88719406149811"><ele>2675</ele><speed>8.32</speed><time>2016-07-09T14:27:10Z</time><pdop>6.0</pdop><geoidheight>50.60</geoidheight><course>41.732002</course><type>1</type></trkpt>
      <trkpt lat="39.44712100404251" lon="-5.887052467968042"><ele>2673</ele><speed>11.16</speed><time>2016-07-09T14:27:12Z</time><pdop>8.0</pdop><geoidheight>50.60</geoidheight><course>41.403957</course><type>1</type></trkpt>
      <trkpt lat="39.44726148892604" lon="-5.886895185818052"><ele>2671</ele><speed>10.03</speed><time>2016-07-09T14:27:14Z</time><pdop>8.0</pdop><geoidheight>50.60</geoidheight><course>41.605934</course><type>1</type></trkpt>
      <trkpt lat="39.44739313826627" lon="-5.886749572204848"><ele>2670</ele><speed>8.80</speed><time>2016-07-09T14:27:16Z</time><pdop>8.0</pdop><geoidheight>50.60</geoidheight><course>40.820213</course><type>1</type></trkpt>
      <trkpt lat="39.447514936724836" lon="-5.886609398870984"><ele>2670</ele><speed>9.13</speed><time>2016-07-09T14:27:18Z</time><pdop>8.0</pdop><geoidheight>50.60</geoidheight><course>42.99755</course><type>1</type></trkpt>
      <trkpt lat="39.44763928132168" lon="-5.8864602079129105"><ele>2670</ele><speed>9.60</speed><time>2016-07-09T14:27:20Z</time><pdop>8.0</pdop><geoidheight>50.60</geoidheight><course>42.650795</course><type>1</type></trkpt>
      <trkpt lat="39.44776339683761" lon="-5.886323595803003"><ele>2670</ele><speed>9.08</speed><time>2016-07-09T14:27:21Z</time><pdop>8.0</pdop><geoidheight>50.60</geoidheight><course>40.249226</course><type>1</type></trkpt>
      <trkpt lat="39.44788879017958" lon="-5.8861865759934515"><ele>2670</ele><speed>9.40</speed><time>2016-07-09T14:27:24Z</time><pdop>8.0</pdop><geoidheight>50.60</geoidheight><course>41.008522</course><type>1</type></trkpt>
      <trkpt lat="39.44802588776678" lon="-5.886019917400329"><ele>2670</ele><speed>10.74</speed><time>2016-07-09T14:27:26Z</time><pdop>8.0</pdop><geoidheight>50.60</geoidheight><course>43.238995</course><type>1</type></trkpt>
      <trkpt lat="39.448154318688644" lon="-5.885837544971295"><ele>2671</ele><speed>9.89</speed><time>2016-07-09T14:27:28Z</time><pdop>8.0</pdop><geoidheight>50.60</geoidheight><course>47.667297</course><type>1</type></trkpt>
      <trkpt lat="39.44826339612366" lon="-5.885654075001685"><ele>2671</ele><speed>10.06</speed><time>2016-07-09T14:27:30Z</time><pdop>8.0</pdop><geoidheight>50.60</geoidheight><course>50.385586</course><type>1</type></trkpt>
      <trkpt lat="39.44838701716791" lon="-5.8854690235433145"><ele>2672</ele><speed>9.41</speed><time>2016-07-09T14:27:32Z</time><pdop>8.0</pdop><geoidheight>50.60</geoidheight><course>45.6012</course><type>1</type></trkpt>
      <trkpt lat="39.44851318801134" lon="-5.885312578192503"><ele>2675</ele><speed>8.12</speed><time>2016-07-09T14:27:34Z</time><pdop>8.0</pdop><geoidheight>50.60</geoidheight><course>43.88752</course><type>1</type></trkpt>
      <trkpt lat="39.44862596527931" lon="-5.885168641823828"><ele>2679</ele><speed>8.43</speed><time>2016-07-09T14:27:36Z</time><pdop>4.0</pdop><geoidheight>50.60</geoidheight><course>43.221893</course><type>1</type></trkpt>
      <trkpt lat="39.448683974983936" lon="-5.885099923936723"><ele>2681</ele><speed>8.45</speed><time>2016-07-09T14:27:37Z</time><pdop>4.0</pdop><geoidheight>50.60</geoidheight><course>41.117477</course><type>1</type></trkpt>
      <trkpt lat="39.44879908965671" lon="-5.884983389043163"><ele>2686</ele><speed>7.25</speed><time>2016-07-09T14:27:39Z</time><pdop>4.0</pdop><geoidheight>50.60</geoidheight><course>36.801216</course><type>1</type></trkpt>
      <trkpt lat="39.44891361819468" lon="-5.884866790805429"><ele>2691</ele><speed>7.88</speed><time>2016-07-09T14:27:41Z</time><pdop>8.0</pdop><geoidheight>50.60</geoidheight><course>37.965523</course><type>1</type></trkpt>
      <trkpt lat="39.449049295902704" lon="-5.884725252655369"><ele>2695</ele><speed>11.34</speed><time>2016-07-09T14:27:43Z</time><pdop>8.0</pdop><geoidheight>50.60</geoidheight><course>37.311707</course><type>1</type></trkpt>
      <trkpt lat="39.449220157094324" lon="-5.884561061207773"><ele>2698</ele><speed>11.52</speed><time>2016-07-09T14:27:45Z</time><pdop>8.0</pdop><geoidheight>50.60</geoidheight><course>35.5486</course><type>1</type></trkpt>
      <trkpt lat="39.449388473390556" lon="-5.884414760298422"><ele>2702</ele><speed>10.13</speed><time>2016-07-09T14:27:47Z</time><pdop>8.0</pdop><geoidheight>50.60</geoidheight><course>32.763973</course><type>1</type></trkpt>
      <trkpt lat="39.44955474089131" lon="-5.884292847364052"><ele>2707</ele><speed>10.20</speed><time>2016-07-09T14:27:49Z</time><pdop>8.0</pdop><geoidheight>50.60</geoidheight><course>29.404598</course><type>1</type></trkpt>
      <trkpt lat="39.44973155669321" lon="-5.884166406232789"><ele>2711</ele><speed>11.11</speed><time>2016-07-09T14:27:51Z</time><pdop>8.0</pdop><geoidheight>50.60</geoidheight><course>29.811377</course><type>1</type></trkpt>
      <trkpt lat="39.44990417864248" lon="-5.884046924592368"><ele>2716</ele><speed>9.48</speed><time>2016-07-09T14:27:53Z</time><pdop>8.0</pdop><geoidheight>50.60</geoidheight><course>25.8824</course><type>1</type></trkpt>
      <trkpt lat="39.45006235521773" lon="-5.883944455339844"><ele>2721</ele><speed>9.12</speed><time>2016-07-09T14:27:55Z</time><pdop>8.0</pdop><geoidheight>50.60</geoidheight><course>26.203732</course><type>1</type></trkpt>
      <trkpt lat="39.45021590075468" lon="-5.883824169033446"><ele>2725</ele><speed>10.62</speed><time>2016-07-09T14:27:57Z</time><pdop>8.0</pdop><geoidheight>50.60</geoidheight><course>30.902153</course><type>1</type></trkpt>
      <trkpt lat="39.4503704888036" lon="-5.883671766296869"><ele>2728</ele><speed>9.38</speed><time>2016-07-09T14:27:59Z</time><pdop>8.0</pdop><geoidheight>50.60</geoidheight><course>37.63918</course><type>1</type></trkpt>
      <trkpt lat="39.450494993465064" lon="-5.8835314249063115"><ele>2733</ele><speed>7.74</speed><time>2016-07-09T14:28:01Z</time><pdop>8.0</pdop><geoidheight>50.60</geoidheight><course>37.316948</course><type>1</type></trkpt>
      <trkpt lat="39.450615912605784" lon="-5.883405505565185"><ele>2737</ele><speed>10.57</speed><time>2016-07-09T14:28:03Z</time><pdop>8.0</pdop><geoidheight>50.60</geoidheight><course>34.46824</course><type>1</type></trkpt>
      <trkpt lat="39.45078536990866" lon="-5.88328205025668"><ele>2739</ele><speed>9.39</speed><time>2016-07-09T14:28:05Z</time><pdop>8.0</pdop><geoidheight>50.60</geoidheight><course>21.36887</course><type>1</type></trkpt>
      <trkpt lat="39.450928646872434" lon="-5.8831869050885786"><ele>2742</ele><speed>7.13</speed><time>2016-07-09T14:28:06Z</time><pdop>6.0</pdop><geoidheight>50.60</geoidheight><course>22.66974</course><type>1</type></trkpt>
      <trkpt lat="39.451054001809624" lon="-5.883109857970702"><ele>2746</ele><speed>9.26</speed><time>2016-07-09T14:28:09Z</time><pdop>8.0</pdop><geoidheight>50.60</geoidheight><course>26.544739</course><type>1</type></trkpt>
      <trkpt lat="39.45122524338207" lon="-5.882981385312835"><ele>2747</ele><speed>11.16</speed><time>2016-07-09T14:28:10Z</time><pdop>8.0</pdop><geoidheight>50.60</geoidheight><course>28.672493</course><type>1</type></trkpt>
      <trkpt lat="39.45137855268124" lon="-5.882860849078343"><ele>2748</ele><speed>8.75</speed><time>2016-07-09T14:28:13Z</time><pdop>8.0</pdop><geoidheight>50.60</geoidheight><course>28.954638</course><type>1</type></trkpt>
      <trkpt lat="39.45150563607936" lon="-5.8827314750792565"><ele>2750</ele><speed>9.41</speed><time>2016-07-09T14:28:15Z</time><pdop>8.0</pdop><geoidheight>50.60</geoidheight><course>34.05701</course><type>1</type></trkpt>
      <trkpt lat="39.45164780443399" lon="-5.882575741630665"><ele>2751</ele><speed>10.99</speed><time>2016-07-09T14:28:17Z</time><pdop>8.0</pdop><geoidheight>50.60</geoidheight><course>36.701332</course><type>1</type></trkpt>
      <trkpt lat="39.45179512903742" lon="-5.882414764065994"><ele>2752</ele><speed>10.67</speed><time>2016-07-09T14:28:19Z</time><pdop>8.0</pdop><geoidheight>50.60</geoidheight><course>38.08741</course><type>1</type></trkpt>
      <trkpt lat="39.45192450292707" lon="-5.882274964919768"><ele>2753</ele><speed>8.63</speed><time>2016-07-09T14:28:21Z</time><pdop>8.0</pdop><geoidheight>50.60</geoidheight><course>37.14589</course><type>1</type></trkpt>
      <trkpt lat="39.45205256189082" lon="-5.8821313050043065"><ele>2755</ele><speed>10.15</speed><time>2016-07-09T14:28:23Z</time><pdop>8.0</pdop><geoidheight>50.60</geoidheight><course>39.42558</course><type>1</type></trkpt>
      <trkpt lat="39.45219862026018" lon="-5.881954409521869"><ele>2756</ele><speed>11.58</speed><time>2016-07-09T14:28:25Z</time><pdop>8.0</pdop><geoidheight>50.60</geoidheight><course>42.271965</course><type>1</type></trkpt>
      <trkpt lat="39.45233761980048" lon="-5.881755595618828"><ele>2757</ele><speed>10.96</speed><time>2016-07-09T14:28:27Z</time><pdop>8.0</pdop><geoidheight>50.60</geoidheight><course>47.89425</course><type>1</type></trkpt>
      <trkpt lat="39.452457342599146" lon="-5.88155807058318"><ele>2759</ele><speed>9.44</speed><time>2016-07-09T14:28:29Z</time><pdop>8.0</pdop><geoidheight>50.60</geoidheight><course>50.472023</course><type>1</type></trkpt>
      <trkpt lat="39.45256826578381" lon="-5.881367634697017"><ele>2762</ele><speed>10.73</speed><time>2016-07-09T14:28:31Z</time><pdop>4.0</pdop><geoidheight>50.60</geoidheight><course>51.326153</course><type>1</type></trkpt>
      <trkpt lat="39.45261201308589" lon="-5.881246055720094"><ele>2763</ele><speed>11.74</speed><time>2016-07-09T14:28:32Z</time><pdop>4.0</pdop><geoidheight>50.60</geoidheight><course>66.32932</course><type>1</type></trkpt>
      <trkpt lat="39.452695802349666" lon="-5.881013040760269"><ele>2766</ele><speed>9.82</speed><time>2016-07-09T14:28:34Z</time><pdop>8.0</pdop><geoidheight>50.60</geoidheight><course>66.34207</course><type>1</type></trkpt>
      <trkpt lat="39.452783813698716" lon="-5.880811904741502"><ele>2771</ele><speed>8.73</speed><time>2016-07-09T14:28:36Z</time><pdop>8.0</pdop><geoidheight>50.60</geoidheight><course>60.02255</course><type>1</type></trkpt>
      <trkpt lat="39.45288530291221" lon="-5.880624803253869"><ele>2776</ele><speed>9.72</speed><time>2016-07-09T14:28:38Z</time><pdop>8.0</pdop><geoidheight>50.60</geoidheight><course>54.018017</course><type>1</type></trkpt>
      <trkpt lat="39.45299942974275" lon="-5.880444879021383"><ele>2780</ele><speed>10.37</speed><time>2016-07-09T14:28:40Z</time><pdop>8.0</pdop><geoidheight>50.60</geoidheight><course>51.53472</course><type>1</type></trkpt>
      <trkpt lat="39.45312533207477" lon="-5.880255602506827"><ele>2783</ele><speed>10.87</speed><time>2016-07-09T14:28:42Z</time><pdop>8.0</pdop><geoidheight>50.60</geoidheight><course>49.521954</course><type>1</type></trkpt>
      <trkpt lat="39.45325215633691" lon="-5.880084499585747"><ele>2785</ele><speed>9.75</speed><time>2016-07-09T14:28:44Z</time><pdop>8.0</pdop><geoidheight>50.60</geoidheight><course>47.970367</course><type>1</type></trkpt>
      <trkpt lat="39.453374394703" lon="-5.87990802322227"><ele>2787</ele><speed>9.62</speed><time>2016-07-09T14:28:46Z</time><pdop>8.0</pdop><geoidheight>50.60</geoidheight><course>50.10388</course><type>1</type></trkpt>
      <trkpt lat="39.45349523482883" lon="-5.879720615655566"><ele>2789</ele><speed>11.10</speed><time>2016-07-09T14:28:48Z</time><pdop>8.0</pdop><geoidheight>50.60</geoidheight><course>50.94678</course><type>1</type></trkpt>
      <trkpt lat="39.4536170335076" lon="-5.879508423790823"><ele>2791</ele><speed>10.91</speed><time>2016-07-09T14:28:50Z</time><pdop>8.0</pdop><geoidheight>50.60</geoidheight><course>54.028564</course><type>1</type></trkpt>
      <trkpt lat="39.45372970603004" lon="-5.879292823206392"><ele>2792</ele><speed>10.63</speed><time>2016-07-09T14:28:52Z</time><pdop>4.0</pdop><geoidheight>50.60</geoidheight><course>54.458454</course><type>1</type></trkpt>
      <trkpt lat="39.453788338479086" lon="-5.879189256493618"><ele>2793</ele><speed>10.47</speed><time>2016-07-09T14:28:53Z</time><pdop>4.0</pdop><geoidheight>50.60</geoidheight><course>53.152344</course><type>1</type></trkpt>
      <trkpt lat="39.45390705571965" lon="-5.878990164911029"><ele>2795</ele><speed>11.02</speed><time>2016-07-09T14:28:55Z</time><pdop>8.0</pdop><geoidheight>50.60</geoidheight><course>51.554764</course><type>1</type></trkpt>
      <trkpt lat="39.45403245978641" lon="-5.878772492717476"><ele>2797</ele><speed>12.27</speed><time>2016-07-09T14:28:57Z</time><pdop>8.0</pdop><geoidheight>50.60</geoidheight><course>53.373898</course><type>1</type></trkpt>
      <trkpt lat="39.454162715788556" lon="-5.878530749244356"><ele>2798</ele><speed>12.33</speed><time>2016-07-09T14:28:59Z</time><pdop>8.0</pdop><geoidheight>50.60</geoidheight><course>54.76396</course><type>1</type></trkpt>
      <trkpt lat="39.45427745952902" lon="-5.878312207081777"><ele>2800</ele><speed>9.95</speed><time>2016-07-09T14:29:01Z</time><pdop>8.0</pdop><geoidheight>50.60</geoidheight><course>54.69539</course><type>1</type></trkpt>
      <trkpt lat="39.45439562329879" lon="-5.878088785465441"><ele>2803</ele><speed>11.72</speed><time>2016-07-09T14:29:03Z</time><pdop>8.0</pdop><geoidheight>50.60</geoidheight><course>55.277428</course><type>1</type></trkpt>
      <trkpt lat="39.454508962296984" lon="-5.8778635691231775"><ele>2806</ele><speed>9.40</speed><time>2016-07-09T14:29:04Z</time><pdop>8.0</pdop><geoidheight>50.60</geoidheight><course>58.159588</course><type>1</type></trkpt>
      <trkpt lat="39.45447433950941" lon="-5.877567761985723"><ele>2812</ele><speed>9.37</speed><time>2016-07-09T14:29:07Z</time><pdop>8.0</pdop><geoidheight>50.60</geoidheight><course>131.29951</course><type>1</type></trkpt>
      <trkpt lat="39.4542827947156" lon="-5.877435986156612"><ele>2817</ele><speed>10.42</speed><time>2016-07-09T14:29:09Z</time><pdop>8.0</pdop><geoidheight>50.60</geoidheight><course>160.31927</course><type>1</type></trkpt>
      <trkpt lat="39.45412811532069" lon="-5.877391622511911"><ele>2820</ele><speed>8.32</speed><time>2016-07-09T14:29:12Z</time><pdop>8.0</pdop><geoidheight>50.60</geoidheight><course>164.93155</course><type>1</type></trkpt>
      <trkpt lat="39.45395485390314" lon="-5.877340511134172"><ele>2824</ele><speed>9.54</speed><time>2016-07-09T14:29:13Z</time><pdop>6.0</pdop><geoidheight>50.60</geoidheight><course>163.95706</course><type>1</type></trkpt>
      <trkpt lat="39.453776449801744" lon="-5.877271792758727"><ele>2826</ele><speed>10.01</speed><time>2016-07-09T14:29:16Z</time><pdop>6.0</pdop><geoidheight>50.60</geoidheight><course>160.84544</course><type>1</type></trkpt>
      <trkpt lat="39.45364221714275" lon="-5.877200013980286"><ele>2830</ele><speed>6.47</speed><time>2016-07-09T14:29:18Z</time><pdop>6.0</pdop><geoidheight>50.60</geoidheight><course>158.41762</course><type>1</type></trkpt>
      <trkpt lat="39.45351636015529" lon="-5.877157582810172"><ele>2834</ele><speed>7.09</speed><time>2016-07-09T14:29:20Z</time><pdop>6.0</pdop><geoidheight>50.60</geoidheight><course>174.21657</course><type>1</type></trkpt>
      <trkpt lat="39.45334015558748" lon="-5.877127753583115"><ele>2837</ele><speed>11.09</speed><time>2016-07-09T14:29:22Z</time><pdop>6.0</pdop><geoidheight>50.60</geoidheight><course>172.84534</course><type>1</type></trkpt>
      <trkpt lat="39.453142266060084" lon="-5.877084891928867"><ele>2838</ele><speed>11.73</speed><time>2016-07-09T14:29:24Z</time><pdop>8.0</pdop><geoidheight>50.60</geoidheight><course>169.28632</course><type>1</type></trkpt>
      <trkpt lat="39.45297010490941" lon="-5.8770308545968275"><ele>2840</ele><speed>8.46</speed><time>2016-07-09T14:29:26Z</time><pdop>8.0</pdop><geoidheight>50.60</geoidheight><course>166.76459</course><type>1</type></trkpt>
      <trkpt lat="39.4528058479781" lon="-5.876944287591301"><ele>2844</ele><speed>10.24</speed><time>2016-07-09T14:29:27Z</time><pdop>6.0</pdop><geoidheight>50.60</geoidheight><course>161.66685</course><type>1</type></trkpt>
      <trkpt lat="39.4527067987229" lon="-5.876886805443782"><ele>2846</ele><speed>11.85</speed><time>2016-07-09T14:29:28Z</time><pdop>6.0</pdop><geoidheight>50.60</geoidheight><course>160.32933</course><type>1</type></trkpt>
      <trkpt lat="39.452500414705206" lon="-5.876781876520081"><ele>2850</ele><speed>11.71</speed><time>2016-07-09T14:29:31Z</time><pdop>8.0</pdop><geoidheight>50.60</geoidheight><course>161.14258</course><type>1</type></trkpt>
      <trkpt lat="39.45231093502098" lon="-5.876688842217786"><ele>2852</ele><speed>9.52</speed><time>2016-07-09T14:29:33Z</time><pdop>6.0</pdop><geoidheight>50.60</geoidheight><course>162.84195</course><type>1</type></trkpt>
      <trkpt lat="39.452148166960654" lon="-5.87661066426942"><ele>2854</ele><speed>9.75</speed><time>2016-07-09T14:29:35Z</time><pdop>6.0</pdop><geoidheight>50.60</geoidheight><course>161.77213</course><type>1</type></trkpt>
      <trkpt lat="39.451966244469695" lon="-5.876532952295013"><ele>2858</ele><speed>10.62</speed><time>2016-07-09T14:29:37Z</time><pdop>6.0</pdop><geoidheight>50.60</geoidheight><course>163.64421</course><type>1</type></trkpt>
      <trkpt lat="39.451782373261665" lon="-5.876479542109878"><ele>2861</ele><speed>10.66</speed><time>2016-07-09T14:29:39Z</time><pdop>6.0</pdop><geoidheight>50.60</geoidheight><course>166.75684</course><type>1</type></trkpt>
      <trkpt lat="39.4515980745272" lon="-5.8764308000539085"><ele>2864</ele><speed>10.18</speed><time>2016-07-09T14:29:41Z</time><pdop>6.0</pdop><geoidheight>50.60</geoidheight><course>167.00482</course><type>1</type></trkpt>
      <trkpt lat="39.451418856756305" lon="-5.876380157399154"><ele>2868</ele><speed>10.21</speed><time>2016-07-09T14:29:42Z</time><pdop>4.0</pdop><geoidheight>50.60</geoidheight><course>166.83138</course><type>1</type></trkpt>
      <trkpt lat="39.451327456007306" lon="-5.876357653243193"><ele>2870</ele><speed>10.23</speed><time>2016-07-09T14:29:43Z</time><pdop>4.0</pdop><geoidheight>50.60</geoidheight><course>168.48268</course><type>1</type></trkpt>
      <trkpt lat="39.451236724654535" lon="-5.8763361152047535"><ele>2872</ele><speed>9.80</speed><time>2016-07-09T14:29:45Z</time><pdop>6.0</pdop><geoidheight>50.60</geoidheight><course>169.61974</course><type>1</type></trkpt>
      <trkpt lat="39.45107453320214" lon="-5.876299468244414"><ele>2875</ele><speed>9.44</speed><time>2016-07-09T14:29:47Z</time><pdop>6.0</pdop><geoidheight>50.60</geoidheight><course>169.42537</course><type>1</type></trkpt>
      <trkpt lat="39.450984296037824" lon="-5.8762774098158745"><ele>2877</ele><speed>10.82</speed><time>2016-07-09T14:29:48Z</time><pdop>4.0</pdop><geoidheight>50.60</geoidheight><course>168.56693</course><type>1</type></trkpt>
      <trkpt lat="39.45088530523568" lon="-5.876251579041718"><ele>2878</ele><speed>12.26</speed><time>2016-07-09T14:29:49Z</time><pdop>4.0</pdop><geoidheight>50.60</geoidheight><course>167.73705</course><type>1</type></trkpt>
      <trkpt lat="39.45077491904878" lon="-5.876214341882405"><ele>2879</ele><speed>12.37</speed><time>2016-07-09T14:29:50Z</time><pdop>4.0</pdop><geoidheight>50.60</geoidheight><course>166.14148</course><type>1</type></trkpt>
      <trkpt lat="39.45067968163429" lon="-5.876177059481827"><ele>2881</ele><speed>11.03</speed><time>2016-07-09T14:29:50Z</time><pdop>4.0</pdop><geoidheight>50.60</geoidheight><course>163.90485</course><type>1</type></trkpt>
      <trkpt lat="39.45059530428082" lon="-5.876136814042382"><ele>2882</ele><speed>9.26</speed><time>2016-07-09T14:29:51Z</time><pdop>4.0</pdop><geoidheight>50.60</geoidheight><course>161.5967</course><type>1</type></trkpt>
      <trkpt lat="39.45043450931572" lon="-5.876047382534537"><ele>2885</ele><speed>10.09</speed><time>2016-07-09T14:29:53Z</time><pdop>8.0</pdop><geoidheight>50.60</geoidheight><course>157.59508</course><type>1</type></trkpt>
      <trkpt lat="39.45025074567659" lon="-5.875927508051188"><ele>2887</ele><speed>12.35</speed><time>2016-07-09T14:29:56Z</time><pdop>6.0</pdop><geoidheight>50.60</geoidheight><course>155.84003</course><type>1</type></trkpt>
      <trkpt lat="39.45014929489412" lon="-5.875861037340702"><ele>2888</ele><speed>12.38</speed><time>2016-07-09T14:29:57Z</time><pdop>6.0</pdop><geoidheight>50.60</geoidheight><course>155.76088</course><type>1</type></trkpt>
      <trkpt lat="39.450043792058395" lon="-5.87578775661785"><ele>2889</ele><speed>11.81</speed><time>2016-07-09T14:29:58Z</time><pdop>6.0</pdop><geoidheight>50.60</geoidheight><course>154.86534</course><type>1</type></trkpt>
      <trkpt lat="39.44987299659658" lon="-5.8756681209648685"><ele>2892</ele><speed>10.03</speed><time>2016-07-09T14:30:00Z</time><pdop>4.0</pdop><geoidheight>50.60</geoidheight><course>153.0312</course><type>1</type></trkpt>
      <trkpt lat="39.44979220457324" lon="-5.875607633117687"><ele>2894</ele><speed>10.54</speed><time>2016-07-09T14:30:01Z</time><pdop>4.0</pdop><geoidheight>50.60</geoidheight><course>151.74431</course><type>1</type></trkpt>
      <trkpt lat="39.449704550811525" lon="-5.875541953683704"><ele>2896</ele><speed>11.64</speed><time>2016-07-09T14:30:02Z</time><pdop>4.0</pdop><geoidheight>50.60</geoidheight><course>150.76259</course><type>1</type></trkpt>
      <trkpt lat="39.44960944378889" lon="-5.8754667041473665"><ele>2898</ele><speed>12.70</speed><time>2016-07-09T14:30:03Z</time><pdop>4.0</pdop><geoidheight>50.60</geoidheight><course>150.00247</course><type>1</type></trkpt>
      <trkpt lat="39.449512066219" lon="-5.87538970261721"><ele>2901</ele><speed>13.01</speed><time>2016-07-09T14:30:04Z</time><pdop>4.0</pdop><geoidheight>50.60</geoidheight><course>149.03853</course><type>1</type></trkpt>
      <trkpt lat="39.44941846723667" lon="-5.8753085666535"><ele>2904</ele><speed>12.38</speed><time>2016-07-09T14:30:05Z</time><pdop>4.0</pdop><geoidheight>50.60</geoidheight><course>147.42526</course><type>1</type></trkpt>
      <trkpt lat="39.44933317347153" lon="-5.875230039836719"><ele>2906</ele><speed>11.51</speed><time>2016-07-09T14:30:06Z</time><pdop>4.0</pdop><geoidheight>50.60</geoidheight><course>146.03212</course><type>1</type></trkpt>
      <trkpt lat="39.44925100448922" lon="-5.875154296465887"><ele>2910</ele><speed>11.16</speed><time>2016-07-09T14:30:07Z</time><pdop>4.0</pdop><geoidheight>50.60</geoidheight><course>145.43138</course><type>1</type></trkpt>
      <trkpt lat="39.44916853600326" lon="-5.875079807080489"><ele>2913</ele><speed>11.76</speed><time>2016-07-09T14:30:08Z</time><pdop>4.0</pdop><geoidheight>50.60</geoidheight><course>145.44255</course><type>1</type></trkpt>
      <trkpt lat="39.44908035806687" lon="-5.875001517539645"><ele>2915</ele><speed>12.64</speed><time>2016-07-09T14:30:09Z</time><pdop>4.0</pdop><geoidheight>50.60</geoidheight><course>145.11708</course><type>1</type></trkpt>
      <trkpt lat="39.448985679423636" lon="-5.874910524449824"><ele>2918</ele><speed>12.78</speed><time>2016-07-09T14:30:10Z</time><pdop>4.0</pdop><geoidheight>50.60</geoidheight><course>144.566</course><type>1</type></trkpt>
      <trkpt lat="39.44889653138694" lon="-5.874824013354544"><ele>2921</ele><speed>11.99</speed><time>2016-07-09T14:30:11Z</time><pdop>4.0</pdop><geoidheight>50.60</geoidheight><course>144.00032</course><type>1</type></trkpt>
      <trkpt lat="39.448817373717816" lon="-5.874744553243104"><ele>2924</ele><speed>10.35</speed><time>2016-07-09T14:30:12Z</time><pdop>4.0</pdop><geoidheight>50.60</geoidheight><course>143.40118</course><type>1</type></trkpt>
      <trkpt lat="39.448743178143665" lon="-5.874670970609973"><ele>2927</ele><speed>10.00</speed><time>2016-07-09T14:30:13Z</time><pdop>4.0</pdop><geoidheight>50.60</geoidheight><course>142.83434</course><type>1</type></trkpt>
      <trkpt lat="39.448666240769654" lon="-5.87459443740068"><ele>2929</ele><speed>10.81</speed><time>2016-07-09T14:30:14Z</time><pdop>4.0</pdop><geoidheight>50.60</geoidheight><course>143.92194</course><type>1</type></trkpt>
      <trkpt lat="39.448575607069564" lon="-5.87451512942551"><ele>2932</ele><speed>12.33</speed><time>2016-07-09T14:30:15Z</time><pdop>4.0</pdop><geoidheight>50.60</geoidheight><course>146.24712</course><type>1</type></trkpt>
      <trkpt lat="39.448474886090985" lon="-5.874437534932274"><ele>2934</ele><speed>13.24</speed><time>2016-07-09T14:30:16Z</time><pdop>4.0</pdop><geoidheight>50.60</geoidheight><course>148.42462</course><type>1</type></trkpt>
      <trkpt lat="39.4483671600713" lon="-5.87435875553877"><ele>2936</ele><speed>12.89</speed><time>2016-07-09T14:30:17Z</time><pdop>4.0</pdop><geoidheight>50.60</geoidheight><course>149.09465</course><type>1</type></trkpt>
      <trkpt lat="39.44827560071464" lon="-5.874290498378866"><ele>2938</ele><speed>12.09</speed><time>2016-07-09T14:30:18Z</time><pdop>4.0</pdop><geoidheight>50.60</geoidheight><course>148.29716</course><type>1</type></trkpt>
      <trkpt lat="39.4481904524195" lon="-5.8742215408688505"><ele>2939</ele><speed>11.58</speed><time>2016-07-09T14:30:19Z</time><pdop>4.0</pdop><geoidheight>50.60</geoidheight><course>146.88177</course><type>1</type></trkpt>
      <trkpt lat="39.448104358167946" lon="-5.874150094965594"><ele>2941</ele><speed>11.64</speed><time>2016-07-09T14:30:20Z</time><pdop>4.0</pdop><geoidheight>50.60</geoidheight><course>146.08359</course><type>1</type></trkpt>
      <trkpt lat="39.44801215534355" lon="-5.874073635091123"><ele>2943</ele><speed>12.08</speed><time>2016-07-09T14:30:21Z</time><pdop>4.0</pdop><geoidheight>50.60</geoidheight><course>147.5936</course><type>1</type></trkpt>
      <trkpt lat="39.44790608177515" lon="-5.873996817260728"><ele>2945</ele><speed>12.68</speed><time>2016-07-09T14:30:22Z</time><pdop>4.0</pdop><geoidheight>50.60</geoidheight><course>149.87764</course><type>1</type></trkpt>
      <trkpt lat="39.44780590310892" lon="-5.873932192012984"><ele>2946</ele><speed>12.64</speed><time>2016-07-09T14:30:23Z</time><pdop>4.0</pdop><geoidheight>50.60</geoidheight><course>152.11584</course><type>1</type></trkpt>
      <trkpt lat="39.44769479104182" lon="-5.873869118094211"><ele>2948</ele><speed>12.48</speed><time>2016-07-09T14:30:24Z</time><pdop>4.0</pdop><geoidheight>50.60</geoidheight><course>154.46555</course><type>1</type></trkpt>
      <trkpt lat="39.44759400941011" lon="-5.873819766070395"><ele>2950</ele><speed>11.79</speed><time>2016-07-09T14:30:25Z</time><pdop>4.0</pdop><geoidheight>50.60</geoidheight><course>156.9831</course><type>1</type></trkpt>
      <trkpt lat="39.44749662895957" lon="-5.873776949186198"><ele>2952</ele><speed>10.72</speed><time>2016-07-09T14:30:26Z</time><pdop>4.0</pdop><geoidheight>50.60</geoidheight><course>158.97041</course><type>1</type></trkpt>
      <trkpt lat="39.44730480828246" lon="-5.873692007084593"><ele>2956</ele><speed>11.13</speed><time>2016-07-09T14:30:27Z</time><pdop>4.0</pdop><geoidheight>50.60</geoidheight><course>158.91109</course><type>1</type></trkpt>
      <trkpt lat="39.44720861644141" lon="-5.873650094287259"><ele>2957</ele><speed>11.96</speed><time>2016-07-09T14:30:29Z</time><pdop>4.0</pdop><geoidheight>50.60</geoidheight><course>158.8025</course><type>1</type></trkpt>
      <trkpt lat="39.44710700290446" lon="-5.873608350975954"><ele>2959</ele><speed>12.35</speed><time>2016-07-09T14:30:30Z</time><pdop>4.0</pdop><geoidheight>50.60</geoidheight><course>160.10347</course><type>1</type></trkpt>
      <trkpt lat="39.44699812899816" lon="-5.873569947565015"><ele>2960</ele><speed>12.60</speed><time>2016-07-09T14:30:30Z</time><pdop>4.0</pdop><geoidheight>50.60</geoidheight><course>162.59743</course><type>1</type></trkpt>
      <trkpt lat="39.44688449872669" lon="-5.873536060525428"><ele>2960</ele><speed>12.72</speed><time>2016-07-09T14:30:31Z</time><pdop>4.0</pdop><geoidheight>50.60</geoidheight><course>165.16435</course><type>1</type></trkpt>
      <trkpt lat="39.44677417951743" lon="-5.873507314842021"><ele>2961</ele><speed>13.08</speed><time>2016-07-09T14:30:32Z</time><pdop>4.0</pdop><geoidheight>50.60</geoidheight><course>166.73955</course><type>1</type></trkpt>
      <trkpt lat="39.44664622684961" lon="-5.873470328538608"><ele>2962</ele><speed>14.19</speed><time>2016-07-09T14:30:33Z</time><pdop>4.0</pdop><geoidheight>50.60</geoidheight><course>166.15152</course><type>1</type></trkpt>
      <trkpt lat="39.44652665939082" lon="-5.873425964378421"><ele>2961</ele><speed>15.51</speed><time>2016-07-09T14:30:34Z</time><pdop>6.0</pdop><geoidheight>50.60</geoidheight><course>163.53171</course><type>1</type></trkpt>
      <trkpt lat="39.446397295847596" lon="-5.8733683803097225"><ele>2961</ele><speed>16.08</speed><time>2016-07-09T14:30:35Z</time><pdop>6.0</pdop><geoidheight>50.60</geoidheight><course>160.45467</course><type>1</type></trkpt>
      <trkpt lat="39.4462750456067" lon="-5.873303434845011"><ele>2961</ele><speed>15.28</speed><time>2016-07-09T14:30:36Z</time><pdop>6.0</pdop><geoidheight>50.60</geoidheight><course>158.05359</course><type>1</type></trkpt>
      <trkpt lat="39.44615800002143" lon="-5.873236795821558"><ele>2961</ele><speed>12.44</speed><time>2016-07-09T14:30:37Z</time><pdop>6.0</pdop><geoidheight>50.80</geoidheight><course>157.8905</course><type>1</type></trkpt>
      <trkpt lat="39.44598330993824" lon="-5.873139696213002"><ele>2962</ele><speed>9.48</speed><time>2016-07-09T14:30:39Z</time><pdop>6.0</pdop><geoidheight>50.80</geoidheight><course>157.98875</course><type>1</type></trkpt>
      <trkpt lat="39.445813133040275" lon="-5.873032726463695"><ele>2962</ele><speed>12.01</speed><time>2016-07-09T14:30:41Z</time><pdop>6.0</pdop><geoidheight>50.80</geoidheight><course>154.381</course><type>1</type></trkpt>
      <trkpt lat="39.445603821674865" lon="-5.872880275476582"><ele>2960</ele><speed>14.65</speed><time>2016-07-09T14:30:43Z</time><pdop>6.0</pdop><geoidheight>50.80</geoidheight><course>150.19186</course><type>1</type></trkpt>
      <trkpt lat="39.44549400511611" lon="-5.872790147336914"><ele>2959</ele><speed>13.09</speed><time>2016-07-09T14:30:44Z</time><pdop>6.0</pdop><geoidheight>50.80</geoidheight><course>149.31097</course><type>1</type></trkpt>
      <trkpt lat="39.44539256810706" lon="-5.87270515449686"><ele>2958</ele><speed>11.71</speed><time>2016-07-09T14:30:45Z</time><pdop>4.0</pdop><geoidheight>50.80</geoidheight><course>148.38043</course><type>1</type></trkpt>
      <trkpt lat="39.44530370111542" lon="-5.872624649774606"><ele>2957</ele><speed>11.34</speed><time>2016-07-09T14:30:46Z</time><pdop>4.0</pdop><geoidheight>50.80</geoidheight><course>147.6249</course><type>1</type></trkpt>
      <trkpt lat="39.44521358253369" lon="-5.872542867397889"><ele>2956</ele><speed>12.14</speed><time>2016-07-09T14:30:47Z</time><pdop>4.0</pdop><geoidheight>50.80</geoidheight><course>148.55193</course><type>1</type></trkpt>
      <trkpt lat="39.445106783644064" lon="-5.872453186079953"><ele>2955</ele><speed>14.00</speed><time>2016-07-09T14:30:48Z</time><pdop>4.0</pdop><geoidheight>50.80</geoidheight><course>149.3901</course><type>1</type></trkpt>
      <trkpt lat="39.44499745726403" lon="-5.872367624876292"><ele>2954</ele><speed>14.83</speed><time>2016-07-09T14:30:49Z</time><pdop>4.0</pdop><geoidheight>50.80</geoidheight><course>149.73465</course><type>1</type></trkpt>
      <trkpt lat="39.444889539214174" lon="-5.872277713512381"><ele>2953</ele><speed>14.31</speed><time>2016-07-09T14:30:50Z</time><pdop>4.0</pdop><geoidheight>50.80</geoidheight><course>147.74388</course><type>1</type></trkpt>
      <trkpt lat="39.444804582638085" lon="-5.872164557457804"><ele>2952</ele><speed>13.00</speed><time>2016-07-09T14:30:51Z</time><pdop>8.0</pdop><geoidheight>50.80</geoidheight><course>134.11314</course><type>1</type></trkpt>
      <trkpt lat="39.44464965299911" lon="-5.871967858257876"><ele>2950</ele><speed>12.21</speed><time>2016-07-09T14:30:53Z</time><pdop>6.0</pdop><geoidheight>50.80</geoidheight><course>137.65244</course><type>1</type></trkpt>
      <trkpt lat="39.44447547476107" lon="-5.871805352530027"><ele>2947</ele><speed>12.21</speed><time>2016-07-09T14:30:55Z</time><pdop>6.0</pdop><geoidheight>50.80</geoidheight><course>142.65714</course><type>1</type></trkpt>
      <trkpt lat="39.44438768802865" lon="-5.871722788937082"><ele>2946</ele><speed>11.94</speed><time>2016-07-09T14:30:56Z</time><pdop>6.0</pdop><geoidheight>50.80</geoidheight><course>141.07301</course><type>1</type></trkpt>
      <trkpt lat="39.444210822974846" lon="-5.871553939694708"><ele>2943</ele><speed>13.83</speed><time>2016-07-09T14:30:58Z</time><pdop>6.0</pdop><geoidheight>50.80</geoidheight><course>142.21506</course><type>1</type></trkpt>
      <trkpt lat="39.4441048980709" lon="-5.871468336313848"><ele>2941</ele><speed>14.74</speed><time>2016-07-09T14:30:59Z</time><pdop>6.0</pdop><geoidheight>50.80</geoidheight><course>145.86128</course><type>1</type></trkpt>
      <trkpt lat="39.44398999758802" lon="-5.87139272722468"><ele>2939</ele><speed>14.31</speed><time>2016-07-09T14:31:00Z</time><pdop>6.0</pdop><geoidheight>50.80</geoidheight><course>149.87564</course><type>1</type></trkpt>
      <trkpt lat="39.443876008663814" lon="-5.87132778263028"><ele>2936</ele><speed>13.06</speed><time>2016-07-09T14:31:01Z</time><pdop>6.0</pdop><geoidheight>50.80</geoidheight><course>152.26514</course><type>1</type></trkpt>
      <trkpt lat="39.44377325943552" lon="-5.871267825742885"><ele>2934</ele><speed>11.95</speed><time>2016-07-09T14:31:02Z</time><pdop>6.0</pdop><geoidheight>50.80</geoidheight><course>151.53012</course><type>1</type></trkpt>
      <trkpt lat="39.443592708480196" lon="-5.8711595366557265"><ele>2930</ele><speed>12.15</speed><time>2016-07-09T14:31:04Z</time><pdop>4.0</pdop><geoidheight>50.80</geoidheight><course>149.99461</course><type>1</type></trkpt>
      <trkpt lat="39.4434996481059" lon="-5.871100355983727"><ele>2927</ele><speed>13.03</speed><time>2016-07-09T14:31:05Z</time><pdop>4.0</pdop><geoidheight>50.80</geoidheight><course>149.19296</course><type>1</type></trkpt>
      <trkpt lat="39.443399968356374" lon="-5.871029072543504"><ele>2923</ele><speed>13.65</speed><time>2016-07-09T14:31:06Z</time><pdop>4.0</pdop><geoidheight>50.80</geoidheight><course>148.07326</course><type>1</type></trkpt>
      <trkpt lat="39.44330359807931" lon="-5.870945744122769"><ele>2920</ele><speed>13.86</speed><time>2016-07-09T14:31:07Z</time><pdop>4.0</pdop><geoidheight>50.80</geoidheight><course>145.42424</course><type>1</type></trkpt>
      <trkpt lat="39.443227311146195" lon="-5.870838223215839"><ele>2917</ele><speed>12.39</speed><time>2016-07-09T14:31:08Z</time><pdop>4.0</pdop><geoidheight>50.80</geoidheight><course>130.92213</course><type>1</type></trkpt>
      <trkpt lat="39.443161342211354" lon="-5.870741780536619"><ele>2914</ele><speed>11.50</speed><time>2016-07-09T14:31:09Z</time><pdop>4.0</pdop><geoidheight>50.80</geoidheight><course>130.45688</course><type>1</type></trkpt>
      <trkpt lat="39.44309543302829" lon="-5.870647683037414"><ele>2912</ele><speed>11.08</speed><time>2016-07-09T14:31:10Z</time><pdop>4.0</pdop><geoidheight>50.80</geoidheight><course>131.26743</course><type>1</type></trkpt>
      <trkpt lat="39.44302530504187" lon="-5.870559217971368"><ele>2909</ele><speed>11.02</speed><time>2016-07-09T14:31:11Z</time><pdop>4.0</pdop><geoidheight>50.80</geoidheight><course>133.61502</course><type>1</type></trkpt>
      <trkpt lat="39.44295100125154" lon="-5.87047288931857"><ele>2907</ele><speed>11.13</speed><time>2016-07-09T14:31:12Z</time><pdop>4.0</pdop><geoidheight>50.80</geoidheight><course>136.47595</course><type>1</type></trkpt>
      <trkpt lat="39.44286664829117" lon="-5.870387372153732"><ele>2905</ele><speed>11.61</speed><time>2016-07-09T14:31:13Z</time><pdop>4.0</pdop><geoidheight>50.80</geoidheight><course>138.64166</course><type>1</type></trkpt>
      <trkpt lat="39.44278556121071" lon="-5.870303729380535"><ele>2904</ele><speed>11.65</speed><time>2016-07-09T14:31:14Z</time><pdop>4.0</pdop><geoidheight>50.80</geoidheight><course>139.22289</course><type>1</type></trkpt>
      <trkpt lat="39.4427067486418" lon="-5.8702184099859664"><ele>2902</ele><speed>11.06</speed><time>2016-07-09T14:31:15Z</time><pdop>4.0</pdop><geoidheight>50.80</geoidheight><course>137.47324</course><type>1</type></trkpt>
      <trkpt lat="39.442638868113924" lon="-5.870137270343758"><ele>2900</ele><speed>10.23</speed><time>2016-07-09T14:31:16Z</time><pdop>4.0</pdop><geoidheight>50.80</geoidheight><course>135.54198</course><type>1</type></trkpt>
      <trkpt lat="39.442573236290585" lon="-5.870054289705437"><ele>2899</ele><speed>9.74</speed><time>2016-07-09T14:31:17Z</time><pdop>4.0</pdop><geoidheight>50.80</geoidheight><course>134.60733</course><type>1</type></trkpt>
      <trkpt lat="39.44251360325522" lon="-5.869969590484828"><ele>2897</ele><speed>10.06</speed><time>2016-07-09T14:31:18Z</time><pdop>4.0</pdop><geoidheight>50.80</geoidheight><course>133.78598</course><type>1</type></trkpt>
      <trkpt lat="39.442450580944964" lon="-5.869878354901338"><ele>2896</ele><speed>10.92</speed><time>2016-07-09T14:31:19Z</time><pdop>4.0</pdop><geoidheight>50.80</geoidheight><course>132.0918</course><type>1</type></trkpt>
      <trkpt lat="39.44238827912101" lon="-5.869778685563252"><ele>2894</ele><speed>11.54</speed><time>2016-07-09T14:31:20Z</time><pdop>4.0</pdop><geoidheight>50.80</geoidheight><course>129.50598</course><type>1</type></trkpt>
      <trkpt lat="39.44232863462187" lon="-5.8696728776641365"><ele>2892</ele><speed>11.35</speed><time>2016-07-09T14:31:21Z</time><pdop>4.0</pdop><geoidheight>50.80</geoidheight><course>127.46979</course><type>1</type></trkpt>
      <trkpt lat="39.44227961564632" lon="-5.869574245756853"><ele>2890</ele><speed>10.28</speed><time>2016-07-09T14:31:22Z</time><pdop>4.0</pdop><geoidheight>50.80</geoidheight><course>126.23109</course><type>1</type></trkpt>
      <trkpt lat="39.442232226291495" lon="-5.869481547394457"><ele>2889</ele><speed>9.67</speed><time>2016-07-09T14:31:23Z</time><pdop>4.0</pdop><geoidheight>50.80</geoidheight><course>126.55473</course><type>1</type></trkpt>
      <trkpt lat="39.44217912742988" lon="-5.869386710924333"><ele>2888</ele><speed>10.45</speed><time>2016-07-09T14:31:24Z</time><pdop>4.0</pdop><geoidheight>50.80</geoidheight><course>127.48023</course><type>1</type></trkpt>
      <trkpt lat="39.44211835274516" lon="-5.869286101875494"><ele>2886</ele><speed>11.48</speed><time>2016-07-09T14:31:25Z</time><pdop>4.0</pdop><geoidheight>50.80</geoidheight><course>128.7076</course><type>1</type></trkpt>
      <trkpt lat="39.44205197475284" lon="-5.869183293783952"><ele>2884</ele><speed>11.87</speed><time>2016-07-09T14:31:26Z</time><pdop>4.0</pdop><geoidheight>50.80</geoidheight><course>129.77844</course><type>1</type></trkpt>
      <trkpt lat="39.44198600592571" lon="-5.8690831985674"><ele>2883</ele><speed>11.70</speed><time>2016-07-09T14:31:27Z</time><pdop>4.0</pdop><geoidheight>50.80</geoidheight><course>129.83806</course><type>1</type></trkpt>
      <trkpt lat="39.44192432009047" lon="-5.868983295152192"><ele>2881</ele><speed>10.79</speed><time>2016-07-09T14:31:28Z</time><pdop>4.0</pdop><geoidheight>50.80</geoidheight><course>128.29034</course><type>1</type></trkpt>
      <trkpt lat="39.44187157485547" lon="-5.868887028086164"><ele>2880</ele><speed>9.85</speed><time>2016-07-09T14:31:29Z</time><pdop>4.0</pdop><geoidheight>50.80</geoidheight><course>125.729935</course><type>1</type></trkpt>
      <trkpt lat="39.44182294946134" lon="-5.8687940820958175"><ele>2878</ele><speed>9.21</speed><time>2016-07-09T14:31:30Z</time><pdop>4.0</pdop><geoidheight>50.80</geoidheight><course>123.73431</course><type>1</type></trkpt>
      <trkpt lat="39.441778047775834" lon="-5.868705901605952"><ele>2877</ele><speed>8.78</speed><time>2016-07-09T14:31:31Z</time><pdop>4.0</pdop><geoidheight>50.80</geoidheight><course>124.124084</course><type>1</type></trkpt>
      <trkpt lat="39.44173182381884" lon="-5.868620486294325"><ele>2875</ele><speed>9.33</speed><time>2016-07-09T14:31:32Z</time><pdop>4.0</pdop><geoidheight>50.80</geoidheight><course>126.560165</course><type>1</type></trkpt>
      <trkpt lat="39.4416752582315" lon="-5.868532641684376"><ele>2874</ele><speed>10.60</speed><time>2016-07-09T14:31:33Z</time><pdop>4.0</pdop><geoidheight>50.80</geoidheight><course>129.28806</course><type>1</type></trkpt>
      <trkpt lat="39.44160770037265" lon="-5.8684344924008"><ele>2872</ele><speed>11.42</speed><time>2016-07-09T14:31:34Z</time><pdop>4.0</pdop><geoidheight>50.80</geoidheight><course>130.63481</course><type>1</type></trkpt>
      <trkpt lat="39.441539947443815" lon="-5.868336493996471"><ele>2870</ele><speed>11.49</speed><time>2016-07-09T14:31:35Z</time><pdop>4.0</pdop><geoidheight>50.80</geoidheight><course>130.28352</course><type>1</type></trkpt>
      <trkpt lat="39.44142355882641" lon="-5.868148257392383"><ele>2866</ele><speed>10.18</speed><time>2016-07-09T14:31:38Z</time><pdop>8.0</pdop><geoidheight>50.80</geoidheight><course>128.67882</course><type>1</type></trkpt>
      <trkpt lat="39.441312465067725" lon="-5.867961484872134"><ele>2863</ele><speed>10.28</speed><time>2016-07-09T14:31:39Z</time><pdop>6.0</pdop><geoidheight>50.80</geoidheight><course>128.64662</course><type>1</type></trkpt>
      <trkpt lat="39.44119114103309" lon="-5.8677683234521085"><ele>2860</ele><speed>10.62</speed><time>2016-07-09T14:31:41Z</time><pdop>6.0</pdop><geoidheight>50.80</geoidheight><course>130.33379</course><type>1</type></trkpt>
      <trkpt lat="39.44106666914801" lon="-5.867598039855746"><ele>2856</ele><speed>10.39</speed><time>2016-07-09T14:31:43Z</time><pdop>6.0</pdop><geoidheight>50.80</geoidheight><course>132.68001</course><type>1</type></trkpt>
      <trkpt lat="39.44093797894636" lon="-5.867438796573619"><ele>2851</ele><speed>11.25</speed><time>2016-07-09T14:31:46Z</time><pdop>4.0</pdop><geoidheight>50.80</geoidheight><course>134.33568</course><type>1</type></trkpt>
      <trkpt lat="39.440865583547854" lon="-5.867346649259252"><ele>2849</ele><speed>11.97</speed><time>2016-07-09T14:31:46Z</time><pdop>4.0</pdop><geoidheight>50.80</geoidheight><course>133.16362</course><type>1</type></trkpt>
      <trkpt lat="39.44077383979537" lon="-5.867242280416316"><ele>2846</ele><speed>14.91</speed><time>2016-07-09T14:31:47Z</time><pdop>4.0</pdop><geoidheight>50.80</geoidheight><course>136.2481</course><type>1</type></trkpt>
      <trkpt lat="39.44066216429541" lon="-5.867133967892207"><ele>2843</ele><speed>15.16</speed><time>2016-07-09T14:31:48Z</time><pdop>4.0</pdop><geoidheight>50.80</geoidheight><course>139.95499</course><type>1</type></trkpt>
      <trkpt lat="39.4405516616015" lon="-5.867026725674971"><ele>2842</ele><speed>13.83</speed><time>2016-07-09T14:31:49Z</time><pdop>8.0</pdop><geoidheight>50.80</geoidheight><course>141.61316</course><type>1</type></trkpt>
      <trkpt lat="39.44035189945601" lon="-5.866840601817136"><ele>2839</ele><speed>12.71</speed><time>2016-07-09T14:31:51Z</time><pdop>6.0</pdop><geoidheight>50.80</geoidheight><course>142.70348</course><type>1</type></trkpt>
      <trkpt lat="39.44025883916404" lon="-5.866757560343072"><ele>2838</ele><speed>12.46</speed><time>2016-07-09T14:31:52Z</time><pdop>6.0</pdop><geoidheight>50.80</geoidheight><course>142.27116</course><type>1</type></trkpt>
      <trkpt lat="39.44016938365798" lon="-5.866668149093"><ele>2837</ele><speed>11.91</speed><time>2016-07-09T14:31:53Z</time><pdop>6.0</pdop><geoidheight>50.80</geoidheight><course>141.2648</course><type>1</type></trkpt>
      <trkpt lat="39.440006799083406" lon="-5.866491903980691"><ele>2835</ele><speed>12.07</speed><time>2016-07-09T14:31:55Z</time><pdop>6.0</pdop><geoidheight>50.80</geoidheight><course>138.56429</course><type>1</type></trkpt>
      <trkpt lat="39.43983597395863" lon="-5.8663111150927"><ele>2833</ele><speed>13.47</speed><time>2016-07-09T14:31:58Z</time><pdop>6.0</pdop><geoidheight>50.80</geoidheight><course>139.52412</course><type>1</type></trkpt>
      <trkpt lat="39.4397459487122" lon="-5.866211612174875"><ele>2832</ele><speed>12.86</speed><time>2016-07-09T14:31:58Z</time><pdop>6.0</pdop><geoidheight>50.80</geoidheight><course>139.04962</course><type>1</type></trkpt>
      <trkpt lat="39.43959925222892" lon="-5.866030831418282"><ele>2829</ele><speed>10.68</speed><time>2016-07-09T14:32:00Z</time><pdop>6.0</pdop><geoidheight>50.80</geoidheight><course>135.93098</course><type>1</type></trkpt>
      <trkpt lat="39.439465401576946" lon="-5.865857350232003"><ele>2827</ele><speed>11.72</speed><time>2016-07-09T14:32:03Z</time><pdop>6.0</pdop><geoidheight>50.80</geoidheight><course>136.02943</course><type>1</type></trkpt>
      <trkpt lat="39.439305653080076" lon="-5.865657087571647"><ele>2823</ele><speed>14.07</speed><time>2016-07-09T14:32:04Z</time><pdop>8.0</pdop><geoidheight>50.80</geoidheight><course>135.27498</course><type>1</type></trkpt>
      <trkpt lat="39.43914869135193" lon="-5.865456769470385"><ele>2819</ele><speed>10.41</speed><time>2016-07-09T14:32:06Z</time><pdop>6.0</pdop><geoidheight>50.80</geoidheight><course>132.67198</course><type>1</type></trkpt>
      <trkpt lat="39.43902850557916" lon="-5.86528818580276"><ele>2819</ele><speed>8.59</speed><time>2016-07-09T14:32:08Z</time><pdop>6.0</pdop><geoidheight>50.80</geoidheight><course>132.89236</course><type>1</type></trkpt>
      <trkpt lat="39.43889994852716" lon="-5.865085822126119"><ele>2817</ele><speed>13.40</speed><time>2016-07-09T14:32:10Z</time><pdop>6.0</pdop><geoidheight>50.80</geoidheight><course>127.908104</course><type>1</type></trkpt>
      <trkpt lat="39.43882842741713" lon="-5.864948043234517"><ele>2815</ele><speed>15.22</speed><time>2016-07-09T14:32:12Z</time><pdop>6.0</pdop><geoidheight>50.80</geoidheight><course>125.19224</course><type>1</type></trkpt>
      <trkpt lat="39.438765091405706" lon="-5.864822652555158"><ele>2813</ele><speed>14.05</speed><time>2016-07-09T14:32:13Z</time><pdop>6.0</pdop><geoidheight>50.80</geoidheight><course>125.74462</course><type>1</type></trkpt>
      <trkpt lat="39.43864263428256" lon="-5.864617086058864"><ele>2810</ele><speed>10.58</speed><time>2016-07-09T14:32:14Z</time><pdop>6.0</pdop><geoidheight>50.80</geoidheight><course>130.34772</course><type>1</type></trkpt>
      <trkpt lat="39.438508444530875" lon="-5.864409080900779"><ele>2807</ele><speed>12.51</speed><time>2016-07-09T14:32:16Z</time><pdop>6.0</pdop><geoidheight>50.80</geoidheight><course>129.10832</course><type>1</type></trkpt>
      <trkpt lat="39.43842876261338" lon="-5.864274237956518"><ele>2806</ele><speed>15.29</speed><time>2016-07-09T14:32:17Z</time><pdop>6.0</pdop><geoidheight>50.80</geoidheight><course>127.45173</course><type>1</type></trkpt>
      <trkpt lat="39.438359615828524" lon="-5.8641547821273186"><ele>2804</ele><speed>14.81</speed><time>2016-07-09T14:32:18Z</time><pdop>6.0</pdop><geoidheight>50.80</geoidheight><course>126.89163</course><type>1</type></trkpt>
      <trkpt lat="39.43828830881968" lon="-5.864031027776788"><ele>2802</ele><speed>13.03</speed><time>2016-07-09T14:32:19Z</time><pdop>6.0</pdop><geoidheight>50.80</geoidheight><course>126.86928</course><type>1</type></trkpt>
      <trkpt lat="39.438224092467365" lon="-5.863918670679588"><ele>2802</ele><speed>10.64</speed><time>2016-07-09T14:32:20Z</time><pdop>6.0</pdop><geoidheight>50.80</geoidheight><course>127.4083</course><type>1</type></trkpt>
      <trkpt lat="39.43810397636804" lon="-5.863704514828963"><ele>2801</ele><speed>11.15</speed><time>2016-07-09T14:32:22Z</time><pdop>6.0</pdop><geoidheight>50.80</geoidheight><course>126.39482</course><type>1</type></trkpt>
      <trkpt lat="39.43803912485529" lon="-5.863586188678233"><ele>2800</ele><speed>13.20</speed><time>2016-07-09T14:32:23Z</time><pdop>6.0</pdop><geoidheight>50.80</geoidheight><course>126.18199</course><type>1</type></trkpt>
      <trkpt lat="39.437961276538466" lon="-5.863450195583963"><ele>2799</ele><speed>14.95</speed><time>2016-07-09T14:32:24Z</time><pdop>6.0</pdop><geoidheight>50.80</geoidheight><course>127.07108</course><type>1</type></trkpt>
      <trkpt lat="39.43788079162706" lon="-5.863320350466477"><ele>2798</ele><speed>14.37</speed><time>2016-07-09T14:32:25Z</time><pdop>6.0</pdop><geoidheight>50.80</geoidheight><course>128.4151</course><type>1</type></trkpt>
      <trkpt lat="39.43780607677593" lon="-5.863202636633608"><ele>2796</ele><speed>13.07</speed><time>2016-07-09T14:32:26Z</time><pdop>4.0</pdop><geoidheight>50.80</geoidheight><course>129.01378</course><type>1</type></trkpt>
      <trkpt lat="39.43773666694875" lon="-5.8630942238317"><ele>2796</ele><speed>11.90</speed><time>2016-07-09T14:32:27Z</time><pdop>4.0</pdop><geoidheight>50.80</geoidheight><course>128.11685</course><type>1</type></trkpt>
      <trkpt lat="39.43767440389718" lon="-5.862988096359501"><ele>2795</ele><speed>11.78</speed><time>2016-07-09T14:32:28Z</time><pdop>4.0</pdop><geoidheight>50.80</geoidheight><course>126.301544</course><type>1</type></trkpt>
      <trkpt lat="39.43761512568056" lon="-5.862874665649676"><ele>2795</ele><speed>12.33</speed><time>2016-07-09T14:32:29Z</time><pdop>4.0</pdop><geoidheight>50.80</geoidheight><course>124.74259</course><type>1</type></trkpt>
      <trkpt lat="39.43755015216145" lon="-5.862750775718782"><ele>2794</ele><speed>13.37</speed><time>2016-07-09T14:32:30Z</time><pdop>6.0</pdop><geoidheight>50.80</geoidheight><course>123.8904</course><type>1</type></trkpt>
      <trkpt lat="39.43748257209637" lon="-5.862609944167723"><ele>2794</ele><speed>13.96</speed><time>2016-07-09T14:32:31Z</time><pdop>6.0</pdop><geoidheight>50.80</geoidheight><course>123.34381</course><type>1</type></trkpt>
      <trkpt lat="39.437416724508765" lon="-5.86247353358108"><ele>2793</ele><speed>13.79</speed><time>2016-07-09T14:32:32Z</time><pdop>6.0</pdop><geoidheight>50.80</geoidheight><course>122.62533</course><type>1</type></trkpt>
      <trkpt lat="39.43735324919099" lon="-5.862347158269275"><ele>2792</ele><speed>13.09</speed><time>2016-07-09T14:32:34Z</time><pdop>6.0</pdop><geoidheight>50.80</geoidheight><course>122.99181</course><type>1</type></trkpt>
      <trkpt lat="39.437234195102285" lon="-5.86211100786335"><ele>2791</ele><speed>12.85</speed><time>2016-07-09T14:32:35Z</time><pdop>6.0</pdop><geoidheight>50.80</geoidheight><course>124.321815</course><type>1</type></trkpt>
      <trkpt lat="39.43716622177363" lon="-5.861985015799139"><ele>2790</ele><speed>13.94</speed><time>2016-07-09T14:32:36Z</time><pdop>6.0</pdop><geoidheight>50.80</geoidheight><course>125.074394</course><type>1</type></trkpt>
      <trkpt lat="39.43708892392275" lon="-5.861850038285012"><ele>2789</ele><speed>14.95</speed><time>2016-07-09T14:32:37Z</time><pdop>6.0</pdop><geoidheight>50.80</geoidheight><course>126.16743</course><type>1</type></trkpt>
      <trkpt lat="39.43700712905214" lon="-5.8617090731489565"><ele>2788</ele><speed>14.97</speed><time>2016-07-09T14:32:38Z</time><pdop>6.0</pdop><geoidheight>50.80</geoidheight><course>126.9175</course><type>1</type></trkpt>
      <trkpt lat="39.43692794728646" lon="-5.861580158241608"><ele>2787</ele><speed>13.94</speed><time>2016-07-09T14:32:39Z</time><pdop>6.0</pdop><geoidheight>50.80</geoidheight><course>127.48002</course><type>1</type></trkpt>
      <trkpt lat="39.43685213309673" lon="-5.8614550320740575"><ele>2786</ele><speed>13.38</speed><time>2016-07-09T14:32:40Z</time><pdop>6.0</pdop><geoidheight>50.80</geoidheight><course>127.04978</course><type>1</type></trkpt>
      <trkpt lat="39.43677696666103" lon="-5.861331196339253"><ele>2784</ele><speed>13.40</speed><time>2016-07-09T14:32:41Z</time><pdop>6.0</pdop><geoidheight>50.80</geoidheight><course>127.61152</course><type>1</type></trkpt>
      <trkpt lat="39.436700470207" lon="-5.861207749461292"><ele>2783</ele><speed>14.01</speed><time>2016-07-09T14:32:42Z</time><pdop>4.0</pdop><geoidheight>50.80</geoidheight><course>128.31274</course><type>1</type></trkpt>
      <trkpt lat="39.43662138213381" lon="-5.861086327188657"><ele>2782</ele><speed>14.34</speed><time>2016-07-09T14:32:43Z</time><pdop>4.0</pdop><geoidheight>50.80</geoidheight><course>129.1275</course><type>1</type></trkpt>
      <trkpt lat="39.436544133183574" lon="-5.86095853434928"><ele>2781</ele><speed>14.44</speed><time>2016-07-09T14:32:44Z</time><pdop>6.0</pdop><geoidheight>50.80</geoidheight><course>127.77714</course><type>1</type></trkpt>
      <trkpt lat="39.43646715359461" lon="-5.860818863193648"><ele>2780</ele><speed>14.65</speed><time>2016-07-09T14:32:45Z</time><pdop>6.0</pdop><geoidheight>50.80</geoidheight><course>125.78967</course><type>1</type></trkpt>
      <trkpt lat="39.43639638599378" lon="-5.860680899351627"><ele>2779</ele><speed>14.47</speed><time>2016-07-09T14:32:46Z</time><pdop>6.0</pdop><geoidheight>50.80</geoidheight><course>124.45971</course><type>1</type></trkpt>
      <trkpt lat="39.436324088431334" lon="-5.860539096942026"><ele>2778</ele><speed>14.54</speed><time>2016-07-09T14:32:47Z</time><pdop>6.0</pdop><geoidheight>50.80</geoidheight><course>123.9583</course><type>1</type></trkpt>
      <trkpt lat="39.436249472476334" lon="-5.8603948522826945"><ele>2777</ele><speed>14.39</speed><time>2016-07-09T14:32:48Z</time><pdop>4.0</pdop><geoidheight>50.80</geoidheight><course>124.72278</course><type>1</type></trkpt>
      <trkpt lat="39.43617199104602" lon="-5.860253970234372"><ele>2776</ele><speed>14.37</speed><time>2016-07-09T14:32:49Z</time><pdop>4.0</pdop><geoidheight>50.80</geoidheight><course>125.5449</course><type>1</type></trkpt>
      <trkpt lat="39.43609305503694" lon="-5.860121744233892"><ele>2775</ele><speed>14.28</speed><time>2016-07-09T14:32:50Z</time><pdop>6.0</pdop><geoidheight>50.80</geoidheight><course>126.57266</course><type>1</type></trkpt>
      <trkpt lat="39.43600785942539" lon="-5.85998292636611"><ele>2774</ele><speed>14.09</speed><time>2016-07-09T14:32:51Z</time><pdop>6.0</pdop><geoidheight>50.80</geoidheight><course>127.23542</course><type>1</type></trkpt>
      <trkpt lat="39.435932059260004" lon="-5.859862757477402"><ele>2773</ele><speed>13.38</speed><time>2016-07-09T14:32:52Z</time><pdop>6.0</pdop><geoidheight>50.80</geoidheight><course>127.289375</course><type>1</type></trkpt>
      <trkpt lat="39.435862031927805" lon="-5.859753243797782"><ele>2772</ele><speed>12.96</speed><time>2016-07-09T14:32:53Z</time><pdop>6.0</pdop><geoidheight>50.80</geoidheight><course>127.808075</course><type>1</type></trkpt>
      <trkpt lat="39.435790877945365" lon="-5.859639268902383"><ele>2771</ele><speed>12.61</speed><time>2016-07-09T14:32:54Z</time><pdop>4.0</pdop><geoidheight>50.80</geoidheight><course>128.63344</course><type>1</type></trkpt>
      <trkpt lat="39.43571826580342" lon="-5.8595289565338"><ele>2769</ele><speed>12.72</speed><time>2016-07-09T14:32:55Z</time><pdop>4.0</pdop><geoidheight>50.80</geoidheight><course>128.9989</course><type>1</type></trkpt>
      <trkpt lat="39.435645427728254" lon="-5.85941531287126"><ele>2767</ele><speed>13.06</speed><time>2016-07-09T14:32:56Z</time><pdop>4.0</pdop><geoidheight>50.80</geoidheight><course>128.56825</course><type>1</type></trkpt>
      <trkpt lat="39.43557411174203" lon="-5.859298002476808"><ele>2766</ele><speed>13.17</speed><time>2016-07-09T14:32:57Z</time><pdop>4.0</pdop><geoidheight>50.80</geoidheight><course>127.798416</course><type>1</type></trkpt>
      <trkpt lat="39.43549547705825" lon="-5.859168233046066"><ele>2764</ele><speed>13.37</speed><time>2016-07-09T14:32:58Z</time><pdop>4.0</pdop><geoidheight>50.80</geoidheight><course>128.17432</course><type>1</type></trkpt>
      <trkpt lat="39.43541979845031" lon="-5.859044890643646"><ele>2763</ele><speed>12.79</speed><time>2016-07-09T14:32:59Z</time><pdop>4.0</pdop><geoidheight>50.80</geoidheight><course>128.51933</course><type>1</type></trkpt>
      <trkpt lat="39.43535043250584" lon="-5.858929147408511"><ele>2761</ele><speed>12.57</speed><time>2016-07-09T14:33:00Z</time><pdop>4.0</pdop><geoidheight>50.80</geoidheight><course>127.78364</course><type>1</type></trkpt>
      <trkpt lat="39.43528018528204" lon="-5.858803819603671"><ele>2760</ele><speed>13.34</speed><time>2016-07-09T14:33:01Z</time><pdop>4.0</pdop><geoidheight>50.80</geoidheight><course>126.44896</course><type>1</type></trkpt>
      <trkpt lat="39.435209980578996" lon="-5.858675947137847"><ele>2757</ele><speed>14.17</speed><time>2016-07-09T14:33:02Z</time><pdop>8.0</pdop><geoidheight>50.80</geoidheight><course>125.47767</course><type>1</type></trkpt>
      <trkpt lat="39.43506116850875" lon="-5.858410869124669"><ele>2752</ele><speed>14.71</speed><time>2016-07-09T14:33:04Z</time><pdop>8.0</pdop><geoidheight>50.80</geoidheight><course>126.96239</course><type>1</type></trkpt>
      <trkpt lat="39.43498089080799" lon="-5.858278024313308"><ele>2749</ele><speed>14.81</speed><time>2016-07-09T14:33:05Z</time><pdop>6.0</pdop><geoidheight>50.80</geoidheight><course>127.86662</course><type>1</type></trkpt>
      <trkpt lat="39.43490039652698" lon="-5.858147396362649"><ele>2747</ele><speed>14.69</speed><time>2016-07-09T14:33:06Z</time><pdop>6.0</pdop><geoidheight>50.80</geoidheight><course>128.86021</course><type>1</type></trkpt>
      <trkpt lat="39.4348203589631" lon="-5.858017257215923"><ele>2744</ele><speed>14.51</speed><time>2016-07-09T14:33:07Z</time><pdop>6.0</pdop><geoidheight>50.80</geoidheight><course>128.46315</course><type>1</type></trkpt>
      <trkpt lat="39.43474186371169" lon="-5.857887624396694"><ele>2742</ele><speed>14.00</speed><time>2016-07-09T14:33:08Z</time><pdop>6.0</pdop><geoidheight>50.80</geoidheight><course>127.911644</course><type>1</type></trkpt>
      <trkpt lat="39.434666164363406" lon="-5.857763857611622"><ele>2739</ele><speed>13.72</speed><time>2016-07-09T14:33:09Z</time><pdop>4.0</pdop><geoidheight>50.80</geoidheight><course>128.33727</course><type>1</type></trkpt>
      <trkpt lat="39.43458369740302" lon="-5.857640928492718"><ele>2737</ele><speed>14.21</speed><time>2016-07-09T14:33:10Z</time><pdop>4.0</pdop><geoidheight>50.80</geoidheight><course>130.33972</course><type>1</type></trkpt>
      <trkpt lat="39.43449039809537" lon="-5.857516312140435"><ele>2734</ele><speed>14.85</speed><time>2016-07-09T14:33:11Z</time><pdop>4.0</pdop><geoidheight>50.80</geoidheight><course>132.94466</course><type>1</type></trkpt>
      <trkpt lat="39.43439010162952" lon="-5.857395256332335"><ele>2732</ele><speed>15.17</speed><time>2016-07-09T14:33:12Z</time><pdop>4.0</pdop><geoidheight>50.80</geoidheight><course>135.15002</course><type>1</type></trkpt>
      <trkpt lat="39.434287717395335" lon="-5.857273457238833"><ele>2729</ele><speed>15.47</speed><time>2016-07-09T14:33:13Z</time><pdop>4.0</pdop><geoidheight>50.80</geoidheight><course>135.6676</course><type>1</type></trkpt>
      <trkpt lat="39.43418682326333" lon="-5.857150115566402"><ele>2726</ele><speed>15.24</speed><time>2016-07-09T14:33:14Z</time><pdop>4.0</pdop><geoidheight>50.80</geoidheight><course>135.098</course><type>1</type></trkpt>
      <trkpt lat="39.434094039266434" lon="-5.857035217595418"><ele>2723</ele><speed>14.67</speed><time>2016-07-09T14:33:15Z</time><pdop>4.0</pdop><geoidheight>50.80</geoidheight><course>134.54184</course><type>1</type></trkpt>
      <trkpt lat="39.434007626125975" lon="-5.856930314744342"><ele>2720</ele><speed>14.02</speed><time>2016-07-09T14:33:16Z</time><pdop>4.0</pdop><geoidheight>50.80</geoidheight><course>135.27618</course><type>1</type></trkpt>
      <trkpt lat="39.433920287492576" lon="-5.856826561204137"><ele>2718</ele><speed>13.53</speed><time>2016-07-09T14:33:17Z</time><pdop>4.0</pdop><geoidheight>50.80</geoidheight><course>136.19397</course><type>1</type></trkpt>
      <trkpt lat="39.433832843892134" lon="-5.856722525116962"><ele>2716</ele><speed>13.31</speed><time>2016-07-09T14:33:18Z</time><pdop>4.0</pdop><geoidheight>50.80</geoidheight><course>136.57942</course><type>1</type></trkpt>
      <trkpt lat="39.43374474774949" lon="-5.8566190392551984"><ele>2713</ele><speed>13.66</speed><time>2016-07-09T14:33:19Z</time><pdop>4.0</pdop><geoidheight>50.80</geoidheight><course>137.02013</course><type>1</type></trkpt>
      <trkpt lat="39.433650666451726" lon="-5.856510354389717"><ele>2710</ele><speed>14.39</speed><time>2016-07-09T14:33:20Z</time><pdop>4.0</pdop><geoidheight>50.80</geoidheight><course>136.51227</course><type>1</type></trkpt>
      <trkpt lat="39.43355601922093" lon="-5.856397449834115"><ele>2707</ele><speed>15.22</speed><time>2016-07-09T14:33:21Z</time><pdop>4.0</pdop><geoidheight>50.80</geoidheight><course>135.96231</course><type>1</type></trkpt>
      <trkpt lat="39.433457729143406" lon="-5.8562761684763105"><ele>2704</ele><speed>15.30</speed><time>2016-07-09T14:33:22Z</time><pdop>4.0</pdop><geoidheight>50.80</geoidheight><course>135.12035</course><type>1</type></trkpt>
      <trkpt lat="39.43336088591848" lon="-5.856156270933691"><ele>2701</ele><speed>14.94</speed><time>2016-07-09T14:33:23Z</time><pdop>4.0</pdop><geoidheight>50.80</geoidheight><course>135.73668</course><type>1</type></trkpt>
      <trkpt lat="39.43326265662019" lon="-5.85604118868472"><ele>2697</ele><speed>14.33</speed><time>2016-07-09T14:33:24Z</time><pdop>4.0</pdop><geoidheight>50.80</geoidheight><course>136.84221</course><type>1</type></trkpt>
      <trkpt lat="39.43316763610071" lon="-5.855931061680006"><ele>2694</ele><speed>13.82</speed><time>2016-07-09T14:33:25Z</time><pdop>4.0</pdop><geoidheight>50.80</geoidheight><course>137.39194</course><type>1</type></trkpt>
      <trkpt lat="39.433078404254175" lon="-5.855826534009569"><ele>2691</ele><speed>13.96</speed><time>2016-07-09T14:33:26Z</time><pdop>4.0</pdop><geoidheight>50.80</geoidheight><course>137.23314</course><type>1</type></trkpt>
      <trkpt lat="39.43298515146886" lon="-5.855720538791148"><ele>2687</ele><speed>14.37</speed><time>2016-07-09T14:33:27Z</time><pdop>4.0</pdop><geoidheight>50.80</geoidheight><course>137.97414</course><type>1</type></trkpt>
      <trkpt lat="39.432886095433155" lon="-5.855614767265637"><ele>2683</ele><speed>14.79</speed><time>2016-07-09T14:33:28Z</time><pdop>4.0</pdop><geoidheight>50.80</geoidheight><course>139.48798</course><type>1</type></trkpt>
      <trkpt lat="39.432780787739745" lon="-5.85551148392329"><ele>2680</ele><speed>14.52</speed><time>2016-07-09T14:33:29Z</time><pdop>4.0</pdop><geoidheight>50.80</geoidheight><course>141.38252</course><type>1</type></trkpt>
      <trkpt lat="39.4326778119102" lon="-5.855412298566165"><ele>2676</ele><speed>13.85</speed><time>2016-07-09T14:33:30Z</time><pdop>4.0</pdop><geoidheight>50.80</geoidheight><course>142.3425</course><type>1</type></trkpt>
      <trkpt lat="39.432579511288885" lon="-5.855323054219008"><ele>2672</ele><speed>13.38</speed><time>2016-07-09T14:33:31Z</time><pdop>4.0</pdop><geoidheight>50.80</geoidheight><course>142.85292</course><type>1</type></trkpt>
      <trkpt lat="39.43248318940774" lon="-5.855235160063373"><ele>2669</ele><speed>13.49</speed><time>2016-07-09T14:33:32Z</time><pdop>4.0</pdop><geoidheight>50.80</geoidheight><course>142.91228</course><type>1</type></trkpt>
      <trkpt lat="39.43238859961549" lon="-5.855149213385872"><ele>2665</ele><speed>13.60</speed><time>2016-07-09T14:33:33Z</time><pdop>4.0</pdop><geoidheight>50.80</geoidheight><course>143.76326</course><type>1</type></trkpt>
      <trkpt lat="39.43229038273266" lon="-5.855061875850212"><ele>2661</ele><speed>13.66</speed><time>2016-07-09T14:33:34Z</time><pdop>4.0</pdop><geoidheight>50.80</geoidheight><course>143.92647</course><type>1</type></trkpt>
      <trkpt lat="39.43219149223966" lon="-5.854973475257548"><ele>2657</ele><speed>13.77</speed><time>2016-07-09T14:33:35Z</time><pdop>4.0</pdop><geoidheight>50.80</geoidheight><course>143.94266</course><type>1</type></trkpt>
      <trkpt lat="39.432088826170684" lon="-5.8548795823299375"><ele>2652</ele><speed>14.17</speed><time>2016-07-09T14:33:36Z</time><pdop>4.0</pdop><geoidheight>50.80</geoidheight><course>143.4264</course><type>1</type></trkpt>
      <trkpt lat="39.43198117127332" lon="-5.854778919443721"><ele>2648</ele><speed>14.81</speed><time>2016-07-09T14:33:37Z</time><pdop>4.0</pdop><geoidheight>50.80</geoidheight><course>142.77715</course><type>1</type></trkpt>
      <trkpt lat="39.43187852096678" lon="-5.854680389722006"><ele>2643</ele><speed>15.04</speed><time>2016-07-09T14:33:38Z</time><pdop>4.0</pdop><geoidheight>50.80</geoidheight><course>142.49725</course><type>1</type></trkpt>
      <trkpt lat="39.43177246486761" lon="-5.854579371734796"><ele>2639</ele><speed>14.45</speed><time>2016-07-09T14:33:39Z</time><pdop>4.0</pdop><geoidheight>50.80</geoidheight><course>142.0103</course><type>1</type></trkpt>
      <trkpt lat="39.43167343317298" lon="-5.8544850109353535"><ele>2635</ele><speed>13.48</speed><time>2016-07-09T14:33:40Z</time><pdop>4.0</pdop><geoidheight>50.80</geoidheight><course>142.3627</course><type>1</type></trkpt>
      <trkpt lat="39.43157861116438" lon="-5.85439486745666"><ele>2631</ele><speed>13.12</speed><time>2016-07-09T14:33:41Z</time><pdop>4.0</pdop><geoidheight>50.80</geoidheight><course>141.80103</course><type>1</type></trkpt>
      <trkpt lat="39.431491353852934" lon="-5.854302937434402"><ele>2627</ele><speed>13.07</speed><time>2016-07-09T14:33:42Z</time><pdop>4.0</pdop><geoidheight>50.80</geoidheight><course>141.14651</course><type>1</type></trkpt>
      <trkpt lat="39.43140400876102" lon="-5.854210927509146"><ele>2623</ele><speed>12.50</speed><time>2016-07-09T14:33:43Z</time><pdop>4.0</pdop><geoidheight>50.80</geoidheight><course>140.89984</course><type>1</type></trkpt>
      <trkpt lat="39.4313173332479" lon="-5.854121256778555"><ele>2619</ele><speed>12.32</speed><time>2016-07-09T14:33:44Z</time><pdop>4.0</pdop><geoidheight>50.80</geoidheight><course>141.9308</course><type>1</type></trkpt>
      <trkpt lat="39.43122177550764" lon="-5.854032614454744"><ele>2615</ele><speed>12.97</speed><time>2016-07-09T14:33:45Z</time><pdop>4.0</pdop><geoidheight>50.80</geoidheight><course>142.9774</course><type>1</type></trkpt>
      <trkpt lat="39.43112424128422" lon="-5.853943333629635"><ele>2611</ele><speed>14.03</speed><time>2016-07-09T14:33:46Z</time><pdop>4.0</pdop><geoidheight>50.80</geoidheight><course>143.84114</course><type>1</type></trkpt>
      <trkpt lat="39.431020581634634" lon="-5.853848875925911"><ele>2606</ele><speed>15.25</speed><time>2016-07-09T14:33:47Z</time><pdop>4.0</pdop><geoidheight>50.80</geoidheight><course>143.05743</course><type>1</type></trkpt>
      <trkpt lat="39.4309147513413" lon="-5.853747757558189"><ele>2601</ele><speed>15.62</speed><time>2016-07-09T14:33:48Z</time><pdop>4.0</pdop><geoidheight>50.80</geoidheight><course>143.46884</course><type>1</type></trkpt>
      <trkpt lat="39.43080380530564" lon="-5.853644274690595"><ele>2596</ele><speed>14.96</speed><time>2016-07-09T14:33:49Z</time><pdop>4.0</pdop><geoidheight>50.80</geoidheight><course>143.0717</course><type>1</type></trkpt>
      <trkpt lat="39.43070214881885" lon="-5.8535495830906825"><ele>2592</ele><speed>13.74</speed><time>2016-07-09T14:33:50Z</time><pdop>4.0</pdop><geoidheight>50.80</geoidheight><course>142.48094</course><type>1</type></trkpt>
      <trkpt lat="39.43061191409547" lon="-5.8534589158731825"><ele>2588</ele><speed>12.58</speed><time>2016-07-09T14:33:51Z</time><pdop>4.0</pdop><geoidheight>50.80</geoidheight><course>141.32108</course><type>1</type></trkpt>
      <trkpt lat="39.43052584163263" lon="-5.853369807743237"><ele>2584</ele><speed>12.44</speed><time>2016-07-09T14:33:52Z</time><pdop>4.0</pdop><geoidheight>50.80</geoidheight><course>140.35796</course><type>1</type></trkpt>
      <trkpt lat="39.430437680662955" lon="-5.8532725606096845"><ele>2579</ele><speed>13.37</speed><time>2016-07-09T14:33:53Z</time><pdop>4.0</pdop><geoidheight>50.80</geoidheight><course>139.86438</course><type>1</type></trkpt>
      <trkpt lat="39.43033993291391" lon="-5.853163357072021"><ele>2575</ele><speed>14.28</speed><time>2016-07-09T14:33:54Z</time><pdop>4.0</pdop><geoidheight>50.80</geoidheight><course>139.28285</course><type>1</type></trkpt>
      <trkpt lat="39.43024623171565" lon="-5.853055506105741"><ele>2571</ele><speed>14.49</speed><time>2016-07-09T14:33:55Z</time><pdop>4.0</pdop><geoidheight>50.80</geoidheight><course>139.24532</course><type>1</type></trkpt>
      <trkpt lat="39.43015263190066" lon="-5.852943785751778"><ele>2567</ele><speed>13.99</speed><time>2016-07-09T14:33:56Z</time><pdop>4.0</pdop><geoidheight>50.80</geoidheight><course>138.35405</course><type>1</type></trkpt>
      <trkpt lat="39.43005813257334" lon="-5.852833025720443"><ele>2563</ele><speed>13.18</speed><time>2016-07-09T14:33:57Z</time><pdop>4.0</pdop><geoidheight>50.80</geoidheight><course>137.61835</course><type>1</type></trkpt>
      <trkpt lat="39.429975645580015" lon="-5.852730149406176"><ele>2559</ele><speed>12.50</speed><time>2016-07-09T14:33:58Z</time><pdop>4.0</pdop><geoidheight>50.80</geoidheight><course>136.26643</course><type>1</type></trkpt>
      <trkpt lat="39.429904630288775" lon="-5.8526327179245525"><ele>2556</ele><speed>12.30</speed><time>2016-07-09T14:34:00Z</time><pdop>4.0</pdop><geoidheight>50.80</geoidheight><course>134.72739</course><type>1</type></trkpt>
      <trkpt lat="39.429828676960014" lon="-5.852526396540968"><ele>2552</ele><speed>12.71</speed><time>2016-07-09T14:34:01Z</time><pdop>4.0</pdop><geoidheight>50.80</geoidheight><course>133.31732</course><type>1</type></trkpt>
      <trkpt lat="39.42975679293154" lon="-5.852415136042395"><ele>2548</ele><speed>13.37</speed><time>2016-07-09T14:34:01Z</time><pdop>4.0</pdop><geoidheight>50.80</geoidheight><course>131.76445</course><type>1</type></trkpt>
      <trkpt lat="39.429683954071535" lon="-5.852294739274851"><ele>2544</ele><speed>13.88</speed><time>2016-07-09T14:34:02Z</time><pdop>4.0</pdop><geoidheight>50.80</geoidheight><course>129.93384</course><type>1</type></trkpt>
      <trkpt lat="39.42961333494658" lon="-5.852171019487905"><ele>2539</ele><speed>14.04</speed><time>2016-07-09T14:34:03Z</time><pdop>4.0</pdop><geoidheight>50.80</geoidheight><course>128.30568</course><type>1</type></trkpt>
      <trkpt lat="39.429546414402814" lon="-5.852045403007116"><ele>2536</ele><speed>13.10</speed><time>2016-07-09T14:34:04Z</time><pdop>4.0</pdop><geoidheight>50.80</geoidheight><course>126.596016</course><type>1</type></trkpt>
      <trkpt lat="39.42948148772893" lon="-5.851922633079582"><ele>2532</ele><speed>12.03</speed><time>2016-07-09T14:34:05Z</time><pdop>4.0</pdop><geoidheight>50.80</geoidheight><course>125.555695</course><type>1</type></trkpt>
      <trkpt lat="39.429424386949925" lon="-5.8518110830082515"><ele>2528</ele><speed>11.59</speed><time>2016-07-09T14:34:06Z</time><pdop>4.0</pdop><geoidheight>50.80</geoidheight><course>125.9208</course><type>1</type></trkpt>
      <trkpt lat="39.42936377906887" lon="-5.851702159641427"><ele>2525</ele><speed>11.63</speed><time>2016-07-09T14:34:07Z</time><pdop>4.0</pdop><geoidheight>50.80</geoidheight><course>126.83576</course><type>1</type></trkpt>
      <trkpt lat="39.42930000804794" lon="-5.851590689860155"><ele>2521</ele><speed>12.26</speed><time>2016-07-09T14:34:08Z</time><pdop>4.0</pdop><geoidheight>50.80</geoidheight><course>127.70947</course><type>1</type></trkpt>
      <trkpt lat="39.42923275571342" lon="-5.851473464398206"><ele>2517</ele><speed>12.78</speed><time>2016-07-09T14:34:09Z</time><pdop>4.0</pdop><geoidheight>50.80</geoidheight><course>127.04602</course><type>1</type></trkpt>
      <trkpt lat="39.42916223095898" lon="-5.851349907511743"><ele>2513</ele><speed>13.17</speed><time>2016-07-09T14:34:10Z</time><pdop>4.0</pdop><geoidheight>50.80</geoidheight><course>127.77028</course><type>1</type></trkpt>
      <trkpt lat="39.42908674873556" lon="-5.8512290601923675"><ele>2508</ele><speed>13.45</speed><time>2016-07-09T14:34:11Z</time><pdop>4.0</pdop><geoidheight>50.80</geoidheight><course>129.0452</course><type>1</type></trkpt>
      <trkpt lat="39.42900504517042" lon="-5.851106057310625"><ele>2504</ele><speed>13.59</speed><time>2016-07-09T14:34:12Z</time><pdop>4.0</pdop><geoidheight>50.80</geoidheight><course>130.37468</course><type>1</type></trkpt>
      <trkpt lat="39.42892317606288" lon="-5.85098656732551"><ele>2500</ele><speed>13.65</speed><time>2016-07-09T14:34:13Z</time><pdop>4.0</pdop><geoidheight>50.80</geoidheight><course>131.3715</course><type>1</type></trkpt>
      <trkpt lat="39.428842089007716" lon="-5.850875324981319"><ele>2496</ele><speed>12.95</speed><time>2016-07-09T14:34:14Z</time><pdop>4.0</pdop><geoidheight>50.80</geoidheight><course>132.31212</course><type>1</type></trkpt>
      <trkpt lat="39.42876823332576" lon="-5.850776469386338"><ele>2493</ele><speed>12.07</speed><time>2016-07-09T14:34:15Z</time><pdop>4.0</pdop><geoidheight>50.80</geoidheight><course>132.80008</course><type>1</type></trkpt>
      <trkpt lat="39.42869152925109" lon="-5.850675337613684"><ele>2490</ele><speed>11.56</speed><time>2016-07-09T14:34:16Z</time><pdop>4.0</pdop><geoidheight>50.80</geoidheight><course>133.6579</course><type>1</type></trkpt>
      <trkpt lat="39.428614518512674" lon="-5.850574351749577"><ele>2487</ele><speed>11.79</speed><time>2016-07-09T14:34:17Z</time><pdop>4.0</pdop><geoidheight>50.80</geoidheight><course>134.38757</course><type>1</type></trkpt>
      <trkpt lat="39.428534700547154" lon="-5.850475345295353"><ele>2484</ele><speed>12.55</speed><time>2016-07-09T14:34:18Z</time><pdop>4.0</pdop><geoidheight>50.80</geoidheight><course>134.8775</course><type>1</type></trkpt>
      <trkpt lat="39.42845031669069" lon="-5.850367931487199"><ele>2481</ele><speed>12.99</speed><time>2016-07-09T14:34:19Z</time><pdop>4.0</pdop><geoidheight>50.80</geoidheight><course>135.28264</course><type>1</type></trkpt>
      <trkpt lat="39.42836645357787" lon="-5.850262723176718"><ele>2477</ele><speed>13.24</speed><time>2016-07-09T14:34:20Z</time><pdop>4.0</pdop><geoidheight>50.80</geoidheight><course>135.77046</course><type>1</type></trkpt>
      <trkpt lat="39.42828214972997" lon="-5.85016216958972"><ele>2474</ele><speed>13.11</speed><time>2016-07-09T14:34:21Z</time><pdop>4.0</pdop><geoidheight>50.80</geoidheight><course>136.23637</course><type>1</type></trkpt>
      <trkpt lat="39.42819698298693" lon="-5.850060468925496"><ele>2471</ele><speed>12.79</speed><time>2016-07-09T14:34:22Z</time><pdop>4.0</pdop><geoidheight>50.80</geoidheight><course>136.8153</course><type>1</type></trkpt>
      <trkpt lat="39.42811294987729" lon="-5.849961250304096"><ele>2468</ele><speed>12.87</speed><time>2016-07-09T14:34:23Z</time><pdop>4.0</pdop><geoidheight>50.80</geoidheight><course>136.71176</course><type>1</type></trkpt>
      <trkpt lat="39.42803271363579" lon="-5.849869005451735"><ele>2465</ele><speed>13.04</speed><time>2016-07-09T14:34:24Z</time><pdop>4.0</pdop><geoidheight>50.80</geoidheight><course>135.7377</course><type>1</type></trkpt>
      <trkpt lat="39.427952508874995" lon="-5.849772579558623"><ele>2461</ele><speed>13.09</speed><time>2016-07-09T14:34:25Z</time><pdop>4.0</pdop><geoidheight>50.80</geoidheight><course>135.19458</course><type>1</type></trkpt>
      <trkpt lat="39.42786953726233" lon="-5.849669880254375"><ele>2458</ele><speed>13.08</speed><time>2016-07-09T14:34:26Z</time><pdop>4.0</pdop><geoidheight>50.80</geoidheight><course>134.79121</course><type>1</type></trkpt>
      <trkpt lat="39.42778890352127" lon="-5.849569452884074"><ele>2454</ele><speed>12.80</speed><time>2016-07-09T14:34:27Z</time><pdop>4.0</pdop><geoidheight>50.80</geoidheight><course>134.44336</course><type>1</type></trkpt>
      <trkpt lat="39.427712007804914" lon="-5.849470449268888"><ele>2451</ele><speed>12.68</speed><time>2016-07-09T14:34:28Z</time><pdop>4.0</pdop><geoidheight>50.80</geoidheight><course>133.93274</course><type>1</type></trkpt>
      <trkpt lat="39.42763426079754" lon="-5.849371741252062"><ele>2448</ele><speed>12.72</speed><time>2016-07-09T14:34:29Z</time><pdop>4.0</pdop><geoidheight>50.80</geoidheight><course>134.73904</course><type>1</type></trkpt>
      <trkpt lat="39.427552326854205" lon="-5.849277601298475"><ele>2445</ele><speed>12.44</speed><time>2016-07-09T14:34:30Z</time><pdop>4.0</pdop><geoidheight>50.80</geoidheight><course>136.56819</course><type>1</type></trkpt>
      <trkpt lat="39.427465206657445" lon="-5.849185489236171"><ele>2441</ele><speed>12.50</speed><time>2016-07-09T14:34:31Z</time><pdop>4.0</pdop><geoidheight>50.80</geoidheight><course>138.0584</course><type>1</type></trkpt>
      <trkpt lat="39.42737712975033" lon="-5.849093504951037"><ele>2437</ele><speed>13.02</speed><time>2016-07-09T14:34:32Z</time><pdop>4.0</pdop><geoidheight>50.80</geoidheight><course>139.05801</course><type>1</type></trkpt>
      <trkpt lat="39.42728512018819" lon="-5.848993335877897"><ele>2434</ele><speed>13.21</speed><time>2016-07-09T14:34:33Z</time><pdop>4.0</pdop><geoidheight>50.80</geoidheight><course>138.31952</course><type>1</type></trkpt>
      <trkpt lat="39.42719905975288" lon="-5.848896972038881"><ele>2430</ele><speed>13.19</speed><time>2016-07-09T14:34:34Z</time><pdop>4.0</pdop><geoidheight>50.80</geoidheight><course>137.16368</course><type>1</type></trkpt>
      <trkpt lat="39.42711580876295" lon="-5.848795943291563"><ele>2426</ele><speed>12.99</speed><time>2016-07-09T14:34:35Z</time><pdop>4.0</pdop><geoidheight>50.80</geoidheight><course>136.43217</course><type>1</type></trkpt>
      <trkpt lat="39.427032738623716" lon="-5.848693822065735"><ele>2422</ele><speed>12.66</speed><time>2016-07-09T14:34:36Z</time><pdop>4.0</pdop><geoidheight>50.80</geoidheight><course>136.16289</course><type>1</type></trkpt>
      <trkpt lat="39.42694992463989" lon="-5.848592241506265"><ele>2419</ele><speed>12.58</speed><time>2016-07-09T14:34:37Z</time><pdop>4.0</pdop><geoidheight>50.80</geoidheight><course>136.61617</course><type>1</type></trkpt>
      <trkpt lat="39.426866083245805" lon="-5.8484886522221196"><ele>2415</ele><speed>12.83</speed><time>2016-07-09T14:34:38Z</time><pdop>4.0</pdop><geoidheight>50.80</geoidheight><course>135.90686</course><type>1</type></trkpt>
      <trkpt lat="39.42678661634828" lon="-5.848387170426722"><ele>2412</ele><speed>13.21</speed><time>2016-07-09T14:34:39Z</time><pdop>4.0</pdop><geoidheight>50.80</geoidheight><course>135.96593</course><type>1</type></trkpt>
      <trkpt lat="39.426698060763464" lon="-5.848277962611256"><ele>2408</ele><speed>13.43</speed><time>2016-07-09T14:34:40Z</time><pdop>4.0</pdop><geoidheight>50.80</geoidheight><course>136.4808</course><type>1</type></trkpt>
      <trkpt lat="39.42660986221768" lon="-5.848169928254081"><ele>2404</ele><speed>13.51</speed><time>2016-07-09T14:34:41Z</time><pdop>4.0</pdop><geoidheight>50.80</geoidheight><course>136.36052</course><type>1</type></trkpt>
      <trkpt lat="39.42652338584349" lon="-5.848063527899369"><ele>2401</ele><speed>13.41</speed><time>2016-07-09T14:34:42Z</time><pdop>4.0</pdop><geoidheight>50.80</geoidheight><course>135.88922</course><type>1</type></trkpt>
      <trkpt lat="39.42644009536429" lon="-5.84795493769032"><ele>2397</ele><speed>13.22</speed><time>2016-07-09T14:34:43Z</time><pdop>4.0</pdop><geoidheight>50.80</geoidheight><course>135.00899</course><type>1</type></trkpt>
      <trkpt lat="39.42635821960469" lon="-5.847842344680542"><ele>2394</ele><speed>13.07</speed><time>2016-07-09T14:34:44Z</time><pdop>4.0</pdop><geoidheight>50.80</geoidheight><course>133.88635</course><type>1</type></trkpt>
      <trkpt lat="39.42628064882898" lon="-5.847731029110499"><ele>2391</ele><speed>13.57</speed><time>2016-07-09T14:34:45Z</time><pdop>6.0</pdop><geoidheight>50.80</geoidheight><course>132.84918</course><type>1</type></trkpt>
      <trkpt lat="39.42620216485038" lon="-5.847617679293967"><ele>2387</ele><speed>13.68</speed><time>2016-07-09T14:34:46Z</time><pdop>6.0</pdop><geoidheight>50.80</geoidheight><course>131.94899</course><type>1</type></trkpt>
      <trkpt lat="39.426126098870924" lon="-5.847499962175503"><ele>2383</ele><speed>13.88</speed><time>2016-07-09T14:34:47Z</time><pdop>6.0</pdop><geoidheight>50.80</geoidheight><course>131.16563</course><type>1</type></trkpt>
      <trkpt lat="39.426053682988154" lon="-5.847384783361844"><ele>2380</ele><speed>13.46</speed><time>2016-07-09T14:34:48Z</time><pdop>6.0</pdop><geoidheight>50.80</geoidheight><course>132.07751</course><type>1</type></trkpt>
      <trkpt lat="39.42597758838708" lon="-5.847273854616587"><ele>2376</ele><speed>13.00</speed><time>2016-07-09T14:34:49Z</time><pdop>4.0</pdop><geoidheight>50.80</geoidheight><course>132.73848</course><type>1</type></trkpt>
      <trkpt lat="39.42589829482384" lon="-5.84716099192456"><ele>2372</ele><speed>13.07</speed><time>2016-07-09T14:34:50Z</time><pdop>4.0</pdop><geoidheight>50.80</geoidheight><course>133.39134</course><type>1</type></trkpt>
      <trkpt lat="39.4258137942799" lon="-5.847047168795507"><ele>2369</ele><speed>13.38</speed><time>2016-07-09T14:34:51Z</time><pdop>4.0</pdop><geoidheight>50.80</geoidheight><course>133.58566</course><type>1</type></trkpt>
      <trkpt lat="39.425732818869314" lon="-5.846934974020883"><ele>2365</ele><speed>13.71</speed><time>2016-07-09T14:34:52Z</time><pdop>6.0</pdop><geoidheight>50.80</geoidheight><course>132.79822</course><type>1</type></trkpt>
      <trkpt lat="39.425652290009424" lon="-5.8468172049511775"><ele>2361</ele><speed>13.81</speed><time>2016-07-09T14:34:53Z</time><pdop>6.0</pdop><geoidheight>50.80</geoidheight><course>131.48373</course><type>1</type></trkpt>
      <trkpt lat="39.42557653358559" lon="-5.846701629864161"><ele>2357</ele><speed>13.79</speed><time>2016-07-09T14:34:54Z</time><pdop>6.0</pdop><geoidheight>50.80</geoidheight><course>130.397</course><type>1</type></trkpt>
      <trkpt lat="39.42550324425605" lon="-5.846588389474147"><ele>2353</ele><speed>13.41</speed><time>2016-07-09T14:34:55Z</time><pdop>6.0</pdop><geoidheight>50.80</geoidheight><course>129.78972</course><type>1</type></trkpt>
      <trkpt lat="39.42543136439179" lon="-5.8464725787406415"><ele>2349</ele><speed>12.86</speed><time>2016-07-09T14:34:56Z</time><pdop>4.0</pdop><geoidheight>50.80</geoidheight><course>129.27135</course><type>1</type></trkpt>
      <trkpt lat="39.425359893111185" lon="-5.846357275924446"><ele>2346</ele><speed>12.98</speed><time>2016-07-09T14:34:57Z</time><pdop>4.0</pdop><geoidheight>50.80</geoidheight><course>128.66457</course><type>1</type></trkpt>
      <trkpt lat="39.42528479779169" lon="-5.846235318814001"><ele>2343</ele><speed>13.25</speed><time>2016-07-09T14:34:58Z</time><pdop>4.0</pdop><geoidheight>50.80</geoidheight><course>129.1691</course><type>1</type></trkpt>
      <trkpt lat="39.42520711188368" lon="-5.846111734975522"><ele>2339</ele><speed>13.42</speed><time>2016-07-09T14:34:59Z</time><pdop>4.0</pdop><geoidheight>50.80</geoidheight><course>129.75673</course><type>1</type></trkpt>
      <trkpt lat="39.42513161972695" lon="-5.845992871076253"><ele>2336</ele><speed>13.20</speed><time>2016-07-09T14:35:00Z</time><pdop>4.0</pdop><geoidheight>50.80</geoidheight><course>129.18852</course><type>1</type></trkpt>
      <trkpt lat="39.42506388207139" lon="-5.845889551656599"><ele>2333</ele><speed>12.74</speed><time>2016-07-09T14:35:01Z</time><pdop>4.0</pdop><geoidheight>50.80</geoidheight><course>128.4225</course><type>1</type></trkpt>
      <trkpt lat="39.424996587344104" lon="-5.845777224269203"><ele>2330</ele><speed>12.47</speed><time>2016-07-09T14:35:02Z</time><pdop>4.0</pdop><geoidheight>50.80</geoidheight><course>128.03188</course><type>1</type></trkpt>
      <trkpt lat="39.42492733118204" lon="-5.845660638524066"><ele>2326</ele><speed>12.82</speed><time>2016-07-09T14:35:03Z</time><pdop>4.0</pdop><geoidheight>50.80</geoidheight><course>127.405914</course><type>1</type></trkpt>
      <trkpt lat="39.42485446465067" lon="-5.845530369375835"><ele>2323</ele><speed>13.63</speed><time>2016-07-09T14:35:04Z</time><pdop>6.0</pdop><geoidheight>50.80</geoidheight><course>126.36804</course><type>1</type></trkpt>
      <trkpt lat="39.42478527108335" lon="-5.845398926420228"><ele>2320</ele><speed>14.14</speed><time>2016-07-09T14:35:05Z</time><pdop>6.0</pdop><geoidheight>50.80</geoidheight><course>124.49978</course><type>1</type></trkpt>
      <trkpt lat="39.42472092354518" lon="-5.845278418938773"><ele>2316</ele><speed>13.40</speed><time>2016-07-09T14:35:06Z</time><pdop>6.0</pdop><geoidheight>50.80</geoidheight><course>124.28947</course><type>1</type></trkpt>
      <trkpt lat="39.424595509885215" lon="-5.8450626090406645"><ele>2310</ele><speed>13.40</speed><time>2016-07-09T14:35:08Z</time><pdop>4.0</pdop><geoidheight>50.80</geoidheight><course>125.61339</course><type>1</type></trkpt>
      <trkpt lat="39.42453049887376" lon="-5.8449538215444745"><ele>2307</ele><speed>13.26</speed><time>2016-07-09T14:35:09Z</time><pdop>4.0</pdop><geoidheight>50.80</geoidheight><course>125.09513</course><type>1</type></trkpt>
      <trkpt lat="39.42446428818408" lon="-5.844833554331091"><ele>2303</ele><speed>14.11</speed><time>2016-07-09T14:35:10Z</time><pdop>4.0</pdop><geoidheight>50.80</geoidheight><course>124.12672</course><type>1</type></trkpt>
      <trkpt lat="39.4243933767324" lon="-5.8447001776672005"><ele>2299</ele><speed>14.21</speed><time>2016-07-09T14:35:11Z</time><pdop>4.0</pdop><geoidheight>50.80</geoidheight><course>123.72026</course><type>1</type></trkpt>
      <trkpt lat="39.424324339260274" lon="-5.844572026229652"><ele>2295</ele><speed>13.91</speed><time>2016-07-09T14:35:12Z</time><pdop>4.0</pdop><geoidheight>50.80</geoidheight><course>124.7757</course><type>1</type></trkpt>
      <trkpt lat="39.42425254081973" lon="-5.84445293790654"><ele>2292</ele><speed>13.17</speed><time>2016-07-09T14:35:13Z</time><pdop>4.0</pdop><geoidheight>50.80</geoidheight><course>126.71847</course><type>1</type></trkpt>
      <trkpt lat="39.4241780372519" lon="-5.844341369531278"><ele>2288</ele><speed>12.83</speed><time>2016-07-09T14:35:14Z</time><pdop>4.0</pdop><geoidheight>50.80</geoidheight><course>128.69545</course><type>1</type></trkpt>
      <trkpt lat="39.42410028262797" lon="-5.8442241775701085"><ele>2285</ele><speed>12.62</speed><time>2016-07-09T14:35:15Z</time><pdop>4.0</pdop><geoidheight>50.80</geoidheight><course>129.5512</course><type>1</type></trkpt>
      <trkpt lat="39.42402861747777" lon="-5.844120033330994"><ele>2282</ele><speed>12.77</speed><time>2016-07-09T14:35:16Z</time><pdop>4.0</pdop><geoidheight>50.80</geoidheight><course>129.34935</course><type>1</type></trkpt>
      <trkpt lat="39.42395100931854" lon="-5.844006402803514"><ele>2278</ele><speed>13.10</speed><time>2016-07-09T14:35:17Z</time><pdop>4.0</pdop><geoidheight>50.80</geoidheight><course>129.8211</course><type>1</type></trkpt>
      <trkpt lat="39.4238726224074" lon="-5.843900287293293"><ele>2275</ele><speed>13.39</speed><time>2016-07-09T14:35:18Z</time><pdop>4.0</pdop><geoidheight>50.80</geoidheight><course>131.3346</course><type>1</type></trkpt>
      <trkpt lat="39.42378488609874" lon="-5.843787167961566"><ele>2272</ele><speed>13.22</speed><time>2016-07-09T14:35:19Z</time><pdop>4.0</pdop><geoidheight>50.80</geoidheight><course>133.52318</course><type>1</type></trkpt>
      <trkpt lat="39.423695361682654" lon="-5.843680881499937"><ele>2269</ele><speed>13.05</speed><time>2016-07-09T14:35:20Z</time><pdop>4.0</pdop><geoidheight>50.80</geoidheight><course>135.67487</course><type>1</type></trkpt>
      <trkpt lat="39.42360475232024" lon="-5.843580080016766"><ele>2266</ele><speed>13.06</speed><time>2016-07-09T14:35:21Z</time><pdop>4.0</pdop><geoidheight>50.80</geoidheight><course>137.1641</course><type>1</type></trkpt>
      <trkpt lat="39.42351456338456" lon="-5.84348073936121"><ele>2262</ele><speed>13.08</speed><time>2016-07-09T14:35:22Z</time><pdop>4.0</pdop><geoidheight>50.80</geoidheight><course>137.85439</course><type>1</type></trkpt>
      <trkpt lat="39.423430258036774" lon="-5.8433922577567605"><ele>2258</ele><speed>13.16</speed><time>2016-07-09T14:35:23Z</time><pdop>4.0</pdop><geoidheight>50.80</geoidheight><course>137.5381</course><type>1</type></trkpt>
      <trkpt lat="39.423345708565876" lon="-5.843302171111822"><ele>2254</ele><speed>12.63</speed><time>2016-07-09T14:35:24Z</time><pdop>4.0</pdop><geoidheight>50.80</geoidheight><course>136.74591</course><type>1</type></trkpt>
      <trkpt lat="39.42326604633604" lon="-5.843208039250546"><ele>2250</ele><speed>12.61</speed><time>2016-07-09T14:35:25Z</time><pdop>4.0</pdop><geoidheight>50.80</geoidheight><course>135.25453</course><type>1</type></trkpt>
      <trkpt lat="39.4231884724933" lon="-5.843108989830879"><ele>2245</ele><speed>13.07</speed><time>2016-07-09T14:35:26Z</time><pdop>4.0</pdop><geoidheight>50.80</geoidheight><course>134.08212</course><type>1</type></trkpt>
      <trkpt lat="39.42310722182772" lon="-5.84300342318412"><ele>2241</ele><speed>13.69</speed><time>2016-07-09T14:35:27Z</time><pdop>4.0</pdop><geoidheight>50.80</geoidheight><course>133.6803</course><type>1</type></trkpt>
      <trkpt lat="39.423021378504096" lon="-5.842892643759318"><ele>2236</ele><speed>13.94</speed><time>2016-07-09T14:35:28Z</time><pdop>4.0</pdop><geoidheight>50.80</geoidheight><course>134.81677</course><type>1</type></trkpt>
      <trkpt lat="39.422937043829116" lon="-5.842788065335345"><ele>2231</ele><speed>13.83</speed><time>2016-07-09T14:35:29Z</time><pdop>4.0</pdop><geoidheight>50.80</geoidheight><course>135.56175</course><type>1</type></trkpt>
      <trkpt lat="39.42284649004501" lon="-5.84267964115895"><ele>2227</ele><speed>14.14</speed><time>2016-07-09T14:35:30Z</time><pdop>4.0</pdop><geoidheight>50.80</geoidheight><course>136.56427</course><type>1</type></trkpt>
      <trkpt lat="39.42275292019409" lon="-5.842580897635566"><ele>2223</ele><speed>13.53</speed><time>2016-07-09T14:35:31Z</time><pdop>4.0</pdop><geoidheight>50.80</geoidheight><course>139.36472</course><type>1</type></trkpt>
      <trkpt lat="39.42265200987757" lon="-5.842493443526286"><ele>2220</ele><speed>12.61</speed><time>2016-07-09T14:35:32Z</time><pdop>4.0</pdop><geoidheight>50.80</geoidheight><course>143.32898</course><type>1</type></trkpt>
      <trkpt lat="39.4225539263971" lon="-5.842418986059247"><ele>2217</ele><speed>12.11</speed><time>2016-07-09T14:35:33Z</time><pdop>4.0</pdop><geoidheight>50.80</geoidheight><course>146.25507</course><type>1</type></trkpt>
      <trkpt lat="39.422458615159" lon="-5.842348877568971"><ele>2213</ele><speed>11.79</speed><time>2016-07-09T14:35:34Z</time><pdop>4.0</pdop><geoidheight>50.80</geoidheight><course>146.88232</course><type>1</type></trkpt>
      <trkpt lat="39.422366085139736" lon="-5.842275823095129"><ele>2210</ele><speed>12.43</speed><time>2016-07-09T14:35:35Z</time><pdop>4.0</pdop><geoidheight>50.80</geoidheight><course>146.28093</course><type>1</type></trkpt>
      <trkpt lat="39.42227479196408" lon="-5.84220103394313"><ele>2207</ele><speed>12.69</speed><time>2016-07-09T14:35:36Z</time><pdop>4.0</pdop><geoidheight>50.80</geoidheight><course>145.45366</course><type>1</type></trkpt>
      <trkpt lat="39.42218609230471" lon="-5.8421227087170315"><ele>2203</ele><speed>12.35</speed><time>2016-07-09T14:35:37Z</time><pdop>4.0</pdop><geoidheight>50.80</geoidheight><course>144.70825</course><type>1</type></trkpt>
      <trkpt lat="39.4220923230319" lon="-5.842041278361603"><ele>2200</ele><speed>12.12</speed><time>2016-07-09T14:35:38Z</time><pdop>4.0</pdop><geoidheight>50.80</geoidheight><course>144.28802</course><type>1</type></trkpt>
      <trkpt lat="39.422005042983535" lon="-5.841963005245604"><ele>2197</ele><speed>12.35</speed><time>2016-07-09T14:35:39Z</time><pdop>4.0</pdop><geoidheight>50.80</geoidheight><course>144.85005</course><type>1</type></trkpt>
      <trkpt lat="39.42191385733688" lon="-5.84188111584656"><ele>2194</ele><speed>12.55</speed><time>2016-07-09T14:35:40Z</time><pdop>4.0</pdop><geoidheight>50.80</geoidheight><course>145.20966</course><type>1</type></trkpt>
      <trkpt lat="39.42182296501175" lon="-5.841798824035586"><ele>2191</ele><speed>12.08</speed><time>2016-07-09T14:35:41Z</time><pdop>4.0</pdop><geoidheight>50.80</geoidheight><course>144.69966</course><type>1</type></trkpt>
      <trkpt lat="39.421732992806234" lon="-5.84171634902744"><ele>2189</ele><speed>11.64</speed><time>2016-07-09T14:35:42Z</time><pdop>4.0</pdop><geoidheight>50.80</geoidheight><course>143.53604</course><type>1</type></trkpt>
      <trkpt lat="39.42165032560142" lon="-5.841635674299004"><ele>2186</ele><speed>11.41</speed><time>2016-07-09T14:35:43Z</time><pdop>4.0</pdop><geoidheight>50.80</geoidheight><course>142.25926</course><type>1</type></trkpt>
      <trkpt lat="39.4215703237114" lon="-5.841556016608181"><ele>2183</ele><speed>11.36</speed><time>2016-07-09T14:35:44Z</time><pdop>4.0</pdop><geoidheight>50.80</geoidheight><course>141.69345</course><type>1</type></trkpt>
      <trkpt lat="39.42149211759439" lon="-5.841477804629224"><ele>2181</ele><speed>11.25</speed><time>2016-07-09T14:35:45Z</time><pdop>4.0</pdop><geoidheight>50.80</geoidheight><course>141.457</course><type>1</type></trkpt>
      <trkpt lat="39.42141413934315" lon="-5.8413953167464685"><ele>2178</ele><speed>11.31</speed><time>2016-07-09T14:35:46Z</time><pdop>4.0</pdop><geoidheight>50.80</geoidheight><course>140.7379</course><type>1</type></trkpt>
      <trkpt lat="39.42133833787882" lon="-5.841315800606954"><ele>2176</ele><speed>10.90</speed><time>2016-07-09T14:35:47Z</time><pdop>4.0</pdop><geoidheight>50.80</geoidheight><course>139.89674</course><type>1</type></trkpt>
      <trkpt lat="39.42126651471609" lon="-5.841234673736582"><ele>2173</ele><speed>10.30</speed><time>2016-07-09T14:35:48Z</time><pdop>4.0</pdop><geoidheight>50.80</geoidheight><course>139.04465</course><type>1</type></trkpt>
      <trkpt lat="39.42120378911602" lon="-5.84115605093316"><ele>2171</ele><speed>10.29</speed><time>2016-07-09T14:35:49Z</time><pdop>4.0</pdop><geoidheight>50.80</geoidheight><course>137.97298</course><type>1</type></trkpt>
      <trkpt lat="39.421136729515595" lon="-5.8410726553995564"><ele>2168</ele><speed>10.80</speed><time>2016-07-09T14:35:50Z</time><pdop>4.0</pdop><geoidheight>50.80</geoidheight><course>137.3592</course><type>1</type></trkpt>
      <trkpt lat="39.42106575681643" lon="-5.840985974454684"><ele>2166</ele><speed>11.43</speed><time>2016-07-09T14:35:51Z</time><pdop>4.0</pdop><geoidheight>50.80</geoidheight><course>137.0126</course><type>1</type></trkpt>
      <trkpt lat="39.420987615527025" lon="-5.8408924080992906"><ele>2163</ele><speed>12.34</speed><time>2016-07-09T14:35:52Z</time><pdop>4.0</pdop><geoidheight>50.80</geoidheight><course>137.62422</course><type>1</type></trkpt>
      <trkpt lat="39.42090348837583" lon="-5.840793577127708"><ele>2160</ele><speed>12.76</speed><time>2016-07-09T14:35:53Z</time><pdop>4.0</pdop><geoidheight>50.80</geoidheight><course>138.64935</course><type>1</type></trkpt>
      <trkpt lat="39.42081010398091" lon="-5.840700359246193"><ele>2157</ele><speed>12.58</speed><time>2016-07-09T14:35:54Z</time><pdop>4.0</pdop><geoidheight>50.80</geoidheight><course>141.11746</course><type>1</type></trkpt>
      <trkpt lat="39.420720105706664" lon="-5.84062115195659"><ele>2155</ele><speed>12.27</speed><time>2016-07-09T14:35:55Z</time><pdop>4.0</pdop><geoidheight>50.80</geoidheight><course>143.85464</course><type>1</type></trkpt>
      <trkpt lat="39.420625980533586" lon="-5.8405435793453435"><ele>2152</ele><speed>12.50</speed><time>2016-07-09T14:35:56Z</time><pdop>6.0</pdop><geoidheight>50.80</geoidheight><course>145.58377</course><type>1</type></trkpt>
      <trkpt lat="39.42052646544345" lon="-5.840461236715102"><ele>2149</ele><speed>13.58</speed><time>2016-07-09T14:35:57Z</time><pdop>6.0</pdop><geoidheight>50.80</geoidheight><course>145.81088</course><type>1</type></trkpt>
      <trkpt lat="39.42042017546929" lon="-5.840369819485416"><ele>2146</ele><speed>14.10</speed><time>2016-07-09T14:35:58Z</time><pdop>6.0</pdop><geoidheight>50.80</geoidheight><course>145.4543</course><type>1</type></trkpt>
      <trkpt lat="39.42031438064593" lon="-5.8402798155253155"><ele>2143</ele><speed>14.09</speed><time>2016-07-09T14:35:59Z</time><pdop>6.0</pdop><geoidheight>50.80</geoidheight><course>145.9113</course><type>1</type></trkpt>
      <trkpt lat="39.420215042060214" lon="-5.840194622600338"><ele>2140</ele><speed>13.38</speed><time>2016-07-09T14:36:00Z</time><pdop>6.0</pdop><geoidheight>50.80</geoidheight><course>146.19376</course><type>1</type></trkpt>
      <trkpt lat="39.42011551716614" lon="-5.840113176734073"><ele>2137</ele><speed>12.89</speed><time>2016-07-09T14:36:01Z</time><pdop>6.0</pdop><geoidheight>50.80</geoidheight><course>146.72377</course><type>1</type></trkpt>
      <trkpt lat="39.420014511967736" lon="-5.84003095505658"><ele>2134</ele><speed>12.81</speed><time>2016-07-09T14:36:03Z</time><pdop>6.0</pdop><geoidheight>50.80</geoidheight><course>147.11731</course><type>1</type></trkpt>
      <trkpt lat="39.41991914900478" lon="-5.839956572762842"><ele>2131</ele><speed>12.58</speed><time>2016-07-09T14:36:04Z</time><pdop>6.0</pdop><geoidheight>50.80</geoidheight><course>147.91943</course><type>1</type></trkpt>
      <trkpt lat="39.419821578363866" lon="-5.839879235269899"><ele>2128</ele><speed>12.55</speed><time>2016-07-09T14:36:04Z</time><pdop>4.0</pdop><geoidheight>50.80</geoidheight><course>147.40755</course><type>1</type></trkpt>
      <trkpt lat="39.4197281816454" lon="-5.839804218101302"><ele>2125</ele><speed>12.76</speed><time>2016-07-09T14:36:05Z</time><pdop>4.0</pdop><geoidheight>50.80</geoidheight><course>147.0489</course><type>1</type></trkpt>
      <trkpt lat="39.41962935084284" lon="-5.839724643596908"><ele>2123</ele><speed>13.14</speed><time>2016-07-09T14:36:06Z</time><pdop>4.0</pdop><geoidheight>50.80</geoidheight><course>147.50296</course><type>1</type></trkpt>
      <trkpt lat="39.41952849077187" lon="-5.839640218858487"><ele>2120</ele><speed>12.98</speed><time>2016-07-09T14:36:07Z</time><pdop>6.0</pdop><geoidheight>50.80</geoidheight><course>146.60997</course><type>1</type></trkpt>
      <trkpt lat="39.41943308867156" lon="-5.839556432718474"><ele>2118</ele><speed>12.45</speed><time>2016-07-09T14:36:08Z</time><pdop>6.0</pdop><geoidheight>50.80</geoidheight><course>145.4014</course><type>1</type></trkpt>
      <trkpt lat="39.419343101080955" lon="-5.839473802793927"><ele>2115</ele><speed>12.34</speed><time>2016-07-09T14:36:09Z</time><pdop>6.0</pdop><geoidheight>50.80</geoidheight><course>144.37189</course><type>1</type></trkpt>
      <trkpt lat="39.419251983372156" lon="-5.839390027791358"><ele>2112</ele><speed>12.65</speed><time>2016-07-09T14:36:10Z</time><pdop>6.0</pdop><geoidheight>50.80</geoidheight><course>145.0373</course><type>1</type></trkpt>
      <trkpt lat="39.419155597983185" lon="-5.839310414616179"><ele>2109</ele><speed>13.12</speed><time>2016-07-09T14:36:11Z</time><pdop>4.0</pdop><geoidheight>50.80</geoidheight><course>146.54915</course><type>1</type></trkpt>
      <trkpt lat="39.41905635003048" lon="-5.839228420213833"><ele>2106</ele><speed>13.81</speed><time>2016-07-09T14:36:12Z</time><pdop>4.0</pdop><geoidheight>50.80</geoidheight><course>147.11711</course><type>1</type></trkpt>
      <trkpt lat="39.418947343682255" lon="-5.8391389369650595"><ele>2103</ele><speed>14.29</speed><time>2016-07-09T14:36:13Z</time><pdop>4.0</pdop><geoidheight>50.80</geoidheight><course>146.59198</course><type>1</type></trkpt>
      <trkpt lat="39.41884458134574" lon="-5.839053356970773"><ele>2099</ele><speed>14.36</speed><time>2016-07-09T14:36:14Z</time><pdop>4.0</pdop><geoidheight>50.80</geoidheight><course>145.82147</course><type>1</type></trkpt>
      <trkpt lat="39.41873905448161" lon="-5.838965825734544"><ele>2095</ele><speed>14.25</speed><time>2016-07-09T14:36:15Z</time><pdop>4.0</pdop><geoidheight>50.80</geoidheight><course>146.7787</course><type>1</type></trkpt>
      <trkpt lat="39.41863083610288" lon="-5.8388835134948085"><ele>2092</ele><speed>13.68</speed><time>2016-07-09T14:36:16Z</time><pdop>4.0</pdop><geoidheight>50.80</geoidheight><course>148.03836</course><type>1</type></trkpt>
      <trkpt lat="39.41852427001542" lon="-5.838803180265617"><ele>2089</ele><speed>13.02</speed><time>2016-07-09T14:36:17Z</time><pdop>4.0</pdop><geoidheight>50.80</geoidheight><course>148.81987</course><type>1</type></trkpt>
      <trkpt lat="39.41842200118201" lon="-5.838727990144952"><ele>2087</ele><speed>12.56</speed><time>2016-07-09T14:36:18Z</time><pdop>4.0</pdop><geoidheight>50.80</geoidheight><course>149.26697</course><type>1</type></trkpt>
      <trkpt lat="39.418330217810784" lon="-5.838656564561956"><ele>2084</ele><speed>12.71</speed><time>2016-07-09T14:36:19Z</time><pdop>6.0</pdop><geoidheight>50.80</geoidheight><course>148.29309</course><type>1</type></trkpt>
      <trkpt lat="39.41823279776441" lon="-5.838581233954584"><ele>2081</ele><speed>13.33</speed><time>2016-07-09T14:36:21Z</time><pdop>6.0</pdop><geoidheight>50.80</geoidheight><course>148.61813</course><type>1</type></trkpt>
      <trkpt lat="39.41813003638998" lon="-5.8385025497234"><ele>2078</ele><speed>13.89</speed><time>2016-07-09T14:36:22Z</time><pdop>6.0</pdop><geoidheight>50.80</geoidheight><course>149.49797</course><type>1</type></trkpt>
      <trkpt lat="39.41801816755996" lon="-5.8384159899999615"><ele>2075</ele><speed>14.37</speed><time>2016-07-09T14:36:22Z</time><pdop>6.0</pdop><geoidheight>50.80</geoidheight><course>148.97182</course><type>1</type></trkpt>
      <trkpt lat="39.41791019622284" lon="-5.83833256209942"><ele>2071</ele><speed>14.33</speed><time>2016-07-09T14:36:23Z</time><pdop>4.0</pdop><geoidheight>50.80</geoidheight><course>148.4085</course><type>1</type></trkpt>
      <trkpt lat="39.41780848706057" lon="-5.83824920990564"><ele>2068</ele><speed>14.10</speed><time>2016-07-09T14:36:24Z</time><pdop>4.0</pdop><geoidheight>50.80</geoidheight><course>147.65477</course><type>1</type></trkpt>
      <trkpt lat="39.417704747642865" lon="-5.838163461443814"><ele>2065</ele><speed>13.50</speed><time>2016-07-09T14:36:25Z</time><pdop>4.0</pdop><geoidheight>50.80</geoidheight><course>148.60243</course><type>1</type></trkpt>
      <trkpt lat="39.41760349794147" lon="-5.838080340332751"><ele>2062</ele><speed>13.29</speed><time>2016-07-09T14:36:26Z</time><pdop>4.0</pdop><geoidheight>50.80</geoidheight><course>148.24411</course><type>1</type></trkpt>
      <trkpt lat="39.41750327354899" lon="-5.83799804632778"><ele>2059</ele><speed>13.47</speed><time>2016-07-09T14:36:27Z</time><pdop>6.0</pdop><geoidheight>50.80</geoidheight><course>147.65839</course><type>1</type></trkpt>
      <trkpt lat="39.41739841724881" lon="-5.837913108375294"><ele>2056</ele><speed>13.97</speed><time>2016-07-09T14:36:28Z</time><pdop>4.0</pdop><geoidheight>50.80</geoidheight><course>148.11186</course><type>1</type></trkpt>
      <trkpt lat="39.41729287819514" lon="-5.8378315423092095"><ele>2053</ele><speed>14.40</speed><time>2016-07-09T14:36:29Z</time><pdop>4.0</pdop><geoidheight>50.80</geoidheight><course>148.95853</course><type>1</type></trkpt>
      <trkpt lat="39.417180943786434" lon="-5.83774840846022"><ele>2050</ele><speed>14.20</speed><time>2016-07-09T14:36:30Z</time><pdop>4.0</pdop><geoidheight>50.80</geoidheight><course>149.58362</course><type>1</type></trkpt>
      <trkpt lat="39.417073128009505" lon="-5.837669235027791"><ele>2047</ele><speed>13.62</speed><time>2016-07-09T14:36:31Z</time><pdop>4.0</pdop><geoidheight>50.80</geoidheight><course>149.02899</course><type>1</type></trkpt>
      <trkpt lat="39.41697576634994" lon="-5.83759095365754"><ele>2045</ele><speed>13.12</speed><time>2016-07-09T14:36:32Z</time><pdop>6.0</pdop><geoidheight>50.80</geoidheight><course>147.5999</course><type>1</type></trkpt>
      <trkpt lat="39.41687680447641" lon="-5.837505584226482"><ele>2043</ele><speed>13.10</speed><time>2016-07-09T14:36:33Z</time><pdop>4.0</pdop><geoidheight>50.80</geoidheight><course>146.16241</course><type>1</type></trkpt>
      <trkpt lat="39.416783629025744" lon="-5.837420798664544"><ele>2041</ele><speed>13.37</speed><time>2016-07-09T14:36:34Z</time><pdop>4.0</pdop><geoidheight>50.80</geoidheight><course>146.16864</course><type>1</type></trkpt>
      <trkpt lat="39.41667787452397" lon="-5.837334959705155"><ele>2038</ele><speed>13.64</speed><time>2016-07-09T14:36:35Z</time><pdop>4.0</pdop><geoidheight>50.80</geoidheight><course>148.00464</course><type>1</type></trkpt>
      <trkpt lat="39.4165717341344" lon="-5.8372565877336315"><ele>2036</ele><speed>14.20</speed><time>2016-07-09T14:36:36Z</time><pdop>4.0</pdop><geoidheight>50.80</geoidheight><course>149.33925</course><type>1</type></trkpt>
      <trkpt lat="39.41646193030446" lon="-5.837176135940053"><ele>2034</ele><speed>14.48</speed><time>2016-07-09T14:36:37Z</time><pdop>4.0</pdop><geoidheight>50.80</geoidheight><course>149.3475</course><type>1</type></trkpt>
      <trkpt lat="39.41634801892796" lon="-5.837088601664805"><ele>2032</ele><speed>14.40</speed><time>2016-07-09T14:36:38Z</time><pdop>4.0</pdop><geoidheight>50.80</geoidheight><course>148.10521</course><type>1</type></trkpt>
      <trkpt lat="39.416239683415604" lon="-5.836996921076706"><ele>2030</ele><speed>14.12</speed><time>2016-07-09T14:36:39Z</time><pdop>4.0</pdop><geoidheight>50.80</geoidheight><course>146.37253</course><type>1</type></trkpt>
      <trkpt lat="39.41613018142938" lon="-5.836895750149507"><ele>2028</ele><speed>13.41</speed><time>2016-07-09T14:36:40Z</time><pdop>6.0</pdop><geoidheight>50.80</geoidheight><course>144.91689</course><type>1</type></trkpt>
      <trkpt lat="39.41602993656334" lon="-5.8367965996757025"><ele>2027</ele><speed>13.58</speed><time>2016-07-09T14:36:41Z</time><pdop>6.0</pdop><geoidheight>50.80</geoidheight><course>143.30956</course><type>1</type></trkpt>
      <trkpt lat="39.41593512940675" lon="-5.836696494358067"><ele>2026</ele><speed>13.79</speed><time>2016-07-09T14:36:42Z</time><pdop>6.0</pdop><geoidheight>50.80</geoidheight><course>141.71646</course><type>1</type></trkpt>
      <trkpt lat="39.415844847804" lon="-5.836600548709233"><ele>2026</ele><speed>13.50</speed><time>2016-07-09T14:36:43Z</time><pdop>6.0</pdop><geoidheight>50.80</geoidheight><course>141.32597</course><type>1</type></trkpt>
      <trkpt lat="39.415758570657395" lon="-5.836510719789764"><ele>2025</ele><speed>13.02</speed><time>2016-07-09T14:36:45Z</time><pdop>4.0</pdop><geoidheight>50.80</geoidheight><course>141.81233</course><type>1</type></trkpt>
      <trkpt lat="39.41566800766721" lon="-5.83641650511401"><ele>2024</ele><speed>12.70</speed><time>2016-07-09T14:36:46Z</time><pdop>4.0</pdop><geoidheight>50.80</geoidheight><course>142.2837</course><type>1</type></trkpt>
      <trkpt lat="39.415581106059435" lon="-5.836327083479389"><ele>2023</ele><speed>12.85</speed><time>2016-07-09T14:36:46Z</time><pdop>4.0</pdop><geoidheight>50.80</geoidheight><course>141.20796</course><type>1</type></trkpt>
      <trkpt lat="39.41549421628211" lon="-5.83623142036489"><ele>2022</ele><speed>12.92</speed><time>2016-07-09T14:36:47Z</time><pdop>4.0</pdop><geoidheight>50.80</geoidheight><course>139.81003</course><type>1</type></trkpt>
      <trkpt lat="39.4154075530266" lon="-5.836134975706532"><ele>2021</ele><speed>13.42</speed><time>2016-07-09T14:36:48Z</time><pdop>6.0</pdop><geoidheight>50.80</geoidheight><course>138.97244</course><type>1</type></trkpt>
      <trkpt lat="39.41532281067722" lon="-5.836032919674889"><ele>2021</ele><speed>13.75</speed><time>2016-07-09T14:36:49Z</time><pdop>6.0</pdop><geoidheight>50.80</geoidheight><course>138.47914</course><type>1</type></trkpt>
      <trkpt lat="39.41523269465916" lon="-5.835922530563915"><ele>2020</ele><speed>13.73</speed><time>2016-07-09T14:36:50Z</time><pdop>6.0</pdop><geoidheight>50.80</geoidheight><course>139.31552</course><type>1</type></trkpt>
      <trkpt lat="39.41514167501349" lon="-5.835813316774013"><ele>2019</ele><speed>13.48</speed><time>2016-07-09T14:36:51Z</time><pdop>6.0</pdop><geoidheight>50.80</geoidheight><course>138.7379</course><type>1</type></trkpt>
      <trkpt lat="39.415052543736074" lon="-5.835706340941722"><ele>2018</ele><speed>13.25</speed><time>2016-07-09T14:36:52Z</time><pdop>4.0</pdop><geoidheight>50.80</geoidheight><course>138.20192</course><type>1</type></trkpt>
      <trkpt lat="39.41496471938195" lon="-5.835597291616483"><ele>2017</ele><speed>13.36</speed><time>2016-07-09T14:36:53Z</time><pdop>4.0</pdop><geoidheight>50.80</geoidheight><course>137.17448</course><type>1</type></trkpt>
      <trkpt lat="39.414878258518875" lon="-5.835484081178375"><ele>2017</ele><speed>13.68</speed><time>2016-07-09T14:36:54Z</time><pdop>4.0</pdop><geoidheight>50.80</geoidheight><course>136.0246</course><type>1</type></trkpt>
      <trkpt lat="39.41479500067332" lon="-5.835372189827519"><ele>2016</ele><speed>13.83</speed><time>2016-07-09T14:36:55Z</time><pdop>4.0</pdop><geoidheight>50.80</geoidheight><course>134.85623</course><type>1</type></trkpt>
      <trkpt lat="39.41470849107897" lon="-5.835254794210246"><ele>2016</ele><speed>14.08</speed><time>2016-07-09T14:36:56Z</time><pdop>6.0</pdop><geoidheight>50.80</geoidheight><course>134.46185</course><type>1</type></trkpt>
      <trkpt lat="39.41461896458759" lon="-5.835132917015048"><ele>2016</ele><speed>14.06</speed><time>2016-07-09T14:36:57Z</time><pdop>6.0</pdop><geoidheight>50.80</geoidheight><course>134.63605</course><type>1</type></trkpt>
      <trkpt lat="39.414530128674976" lon="-5.835015066179171"><ele>2015</ele><speed>13.97</speed><time>2016-07-09T14:36:58Z</time><pdop>6.0</pdop><geoidheight>50.80</geoidheight><course>134.17126</course><type>1</type></trkpt>
      <trkpt lat="39.41444525029043" lon="-5.834898540687979"><ele>2016</ele><speed>13.52</speed><time>2016-07-09T14:36:59Z</time><pdop>6.0</pdop><geoidheight>50.80</geoidheight><course>133.6505</course><type>1</type></trkpt>
      <trkpt lat="39.41436229618876" lon="-5.83478260149731"><ele>2016</ele><speed>12.88</speed><time>2016-07-09T14:37:00Z</time><pdop>6.0</pdop><geoidheight>50.80</geoidheight><course>133.29869</course><type>1</type></trkpt>
      <trkpt lat="39.41428276895271" lon="-5.834672205482163"><ele>2016</ele><speed>12.53</speed><time>2016-07-09T14:37:01Z</time><pdop>4.0</pdop><geoidheight>50.80</geoidheight><course>134.12747</course><type>1</type></trkpt>
      <trkpt lat="39.41420145916911" lon="-5.83457110482364"><ele>2016</ele><speed>12.38</speed><time>2016-07-09T14:37:03Z</time><pdop>4.0</pdop><geoidheight>50.80</geoidheight><course>136.03604</course><type>1</type></trkpt>
      <trkpt lat="39.414119467106296" lon="-5.834478226398001"><ele>2016</ele><speed>12.17</speed><time>2016-07-09T14:37:04Z</time><pdop>4.0</pdop><geoidheight>50.80</geoidheight><course>138.1085</course><type>1</type></trkpt>
      <trkpt lat="39.4140345780042" lon="-5.8343893917045015"><ele>2016</ele><speed>12.08</speed><time>2016-07-09T14:37:04Z</time><pdop>4.0</pdop><geoidheight>50.80</geoidheight><course>139.60893</course><type>1</type></trkpt>
      <trkpt lat="39.41395153422515" lon="-5.83430709297603"><ele>2016</ele><speed>11.57</speed><time>2016-07-09T14:37:05Z</time><pdop>6.0</pdop><geoidheight>50.80</geoidheight><course>140.8051</course><type>1</type></trkpt>
      <trkpt lat="39.413788343431875" lon="-5.8341551698403205"><ele>2017</ele><speed>10.74</speed><time>2016-07-09T14:37:07Z</time><pdop>4.0</pdop><geoidheight>50.80</geoidheight><course>142.13625</course><type>1</type></trkpt>
      <trkpt lat="39.41371151238628" lon="-5.834077900203081"><ele>2017</ele><speed>11.00</speed><time>2016-07-09T14:37:08Z</time><pdop>4.0</pdop><geoidheight>50.80</geoidheight><course>140.53366</course><type>1</type></trkpt>
      <trkpt lat="39.41363264193499" lon="-5.833990973160476"><ele>2018</ele><speed>11.78</speed><time>2016-07-09T14:37:09Z</time><pdop>4.0</pdop><geoidheight>50.80</geoidheight><course>138.9844</course><type>1</type></trkpt>
      <trkpt lat="39.41355298061975" lon="-5.833897793130748"><ele>2018</ele><speed>12.26</speed><time>2016-07-09T14:37:10Z</time><pdop>4.0</pdop><geoidheight>50.80</geoidheight><course>139.79897</course><type>1</type></trkpt>
      <trkpt lat="39.413463374030734" lon="-5.8338019804792935"><ele>2018</ele><speed>12.40</speed><time>2016-07-09T14:37:11Z</time><pdop>4.0</pdop><geoidheight>50.80</geoidheight><course>140.82007</course><type>1</type></trkpt>
      <trkpt lat="39.41337677725313" lon="-5.833711595895952"><ele>2019</ele><speed>11.71</speed><time>2016-07-09T14:37:12Z</time><pdop>4.0</pdop><geoidheight>50.80</geoidheight><course>141.44873</course><type>1</type></trkpt>
      <trkpt lat="39.413297659857385" lon="-5.833628965714804"><ele>2019</ele><speed>10.89</speed><time>2016-07-09T14:37:13Z</time><pdop>4.0</pdop><geoidheight>50.80</geoidheight><course>140.3152</course><type>1</type></trkpt>
      <trkpt lat="39.41322928662907" lon="-5.833548157575322"><ele>2020</ele><speed>10.55</speed><time>2016-07-09T14:37:14Z</time><pdop>4.0</pdop><geoidheight>50.80</geoidheight><course>138.62903</course><type>1</type></trkpt>
      <trkpt lat="39.41315752287893" lon="-5.833463370562305"><ele>2021</ele><speed>10.35</speed><time>2016-07-09T14:37:15Z</time><pdop>4.0</pdop><geoidheight>50.80</geoidheight><course>137.98189</course><type>1</type></trkpt>
      <trkpt lat="39.4130868532942" lon="-5.833381162397023"><ele>2022</ele><speed>10.44</speed><time>2016-07-09T14:37:16Z</time><pdop>4.0</pdop><geoidheight>50.80</geoidheight><course>139.00076</course><type>1</type></trkpt>
      <trkpt lat="39.41300948456222" lon="-5.8332955525305"><ele>2022</ele><speed>11.01</speed><time>2016-07-09T14:37:17Z</time><pdop>4.0</pdop><geoidheight>50.80</geoidheight><course>139.92827</course><type>1</type></trkpt>
      <trkpt lat="39.41293619195134" lon="-5.833217717083208"><ele>2023</ele><speed>11.12</speed><time>2016-07-09T14:37:18Z</time><pdop>4.0</pdop><geoidheight>50.80</geoidheight><course>139.20767</course><type>1</type></trkpt>
      <trkpt lat="39.41286392042217" lon="-5.833131971028078"><ele>2024</ele><speed>11.16</speed><time>2016-07-09T14:37:19Z</time><pdop>6.0</pdop><geoidheight>50.80</geoidheight><course>137.39536</course><type>1</type></trkpt>
      <trkpt lat="39.41273081631294" lon="-5.83295921413945"><ele>2025</ele><speed>10.73</speed><time>2016-07-09T14:37:21Z</time><pdop>6.0</pdop><geoidheight>50.80</geoidheight><course>136.33768</course><type>1</type></trkpt>
      <trkpt lat="39.41259947583455" lon="-5.832795201815024"><ele>2027</ele><speed>9.71</speed><time>2016-07-09T14:37:23Z</time><pdop>8.0</pdop><geoidheight>50.80</geoidheight><course>136.0065</course><type>1</type></trkpt>
      <trkpt lat="39.412480197559184" lon="-5.832641879795142"><ele>2029</ele><speed>8.85</speed><time>2016-07-09T14:37:25Z</time><pdop>6.0</pdop><geoidheight>50.80</geoidheight><course>136.02551</course><type>1</type></trkpt>
      <trkpt lat="39.41235555547343" lon="-5.83247967295296"><ele>2032</ele><speed>9.70</speed><time>2016-07-09T14:37:27Z</time><pdop>4.0</pdop><geoidheight>50.80</geoidheight><course>135.36919</course><type>1</type></trkpt>
      <trkpt lat="39.41229573699239" lon="-5.832393534602108"><ele>2033</ele><speed>10.19</speed><time>2016-07-09T14:37:28Z</time><pdop>4.0</pdop><geoidheight>50.80</geoidheight><course>133.5661</course><type>1</type></trkpt>
      <trkpt lat="39.412232996810786" lon="-5.832292571548902"><ele>2034</ele><speed>10.49</speed><time>2016-07-09T14:37:29Z</time><pdop>4.0</pdop><geoidheight>50.80</geoidheight><course>131.33568</course><type>1</type></trkpt>
      <trkpt lat="39.41217908043476" lon="-5.8321894965409635"><ele>2035</ele><speed>10.42</speed><time>2016-07-09T14:37:30Z</time><pdop>4.0</pdop><geoidheight>50.80</geoidheight><course>129.08565</course><type>1</type></trkpt>
      <trkpt lat="39.41212230675175" lon="-5.8320875738045865"><ele>2037</ele><speed>10.05</speed><time>2016-07-09T14:37:31Z</time><pdop>6.0</pdop><geoidheight>50.80</geoidheight><course>126.87219</course><type>1</type></trkpt>
      <trkpt lat="39.41202269815106" lon="-5.8318841527325125"><ele>2039</ele><speed>9.89</speed><time>2016-07-09T14:37:33Z</time><pdop>6.0</pdop><geoidheight>50.80</geoidheight><course>124.83209</course><type>1</type></trkpt>
      <trkpt lat="39.41191839947473" lon="-5.83169669028507"><ele>2040</ele><speed>10.30</speed><time>2016-07-09T14:37:35Z</time><pdop>6.0</pdop><geoidheight>50.80</geoidheight><course>129.53929</course><type>1</type></trkpt>
      <trkpt lat="39.41178187187017" lon="-5.831563156038504"><ele>2042</ele><speed>9.71</speed><time>2016-07-09T14:37:37Z</time><pdop>4.0</pdop><geoidheight>50.80</geoidheight><course>144.4549</course><type>1</type></trkpt>
      <trkpt lat="39.41170772942752" lon="-5.831504333158153"><ele>2043</ele><speed>9.70</speed><time>2016-07-09T14:37:38Z</time><pdop>4.0</pdop><geoidheight>50.80</geoidheight><course>147.73778</course><type>1</type></trkpt>
      <trkpt lat="39.411628465230976" lon="-5.831452030369139"><ele>2043</ele><speed>10.13</speed><time>2016-07-09T14:37:39Z</time><pdop>4.0</pdop><geoidheight>50.80</geoidheight><course>150.95074</course><type>1</type></trkpt>
      <trkpt lat="39.411539624560625" lon="-5.831401627084246"><ele>2044</ele><speed>10.83</speed><time>2016-07-09T14:37:40Z</time><pdop>4.0</pdop><geoidheight>50.80</geoidheight><course>154.42653</course><type>1</type></trkpt>
      <trkpt lat="39.411434528613796" lon="-5.831374225788878"><ele>2044</ele><speed>11.75</speed><time>2016-07-09T14:37:41Z</time><pdop>4.0</pdop><geoidheight>50.80</geoidheight><course>168.12108</course><type>1</type></trkpt>
      <trkpt lat="39.411326599936" lon="-5.831353155122554"><ele>2045</ele><speed>11.99</speed><time>2016-07-09T14:37:42Z</time><pdop>4.0</pdop><geoidheight>50.80</geoidheight><course>171.01567</course><type>1</type></trkpt>
      <trkpt lat="39.41121447178154" lon="-5.83134185437754"><ele>2046</ele><speed>12.16</speed><time>2016-07-09T14:37:43Z</time><pdop>4.0</pdop><geoidheight>50.80</geoidheight><course>174.2399</course><type>1</type></trkpt>
      <trkpt lat="39.41109924559796" lon="-5.831332937018727"><ele>2047</ele><speed>12.39</speed><time>2016-07-09T14:37:44Z</time><pdop>8.0</pdop><geoidheight>50.80</geoidheight><course>175.67084</course><type>1</type></trkpt>
      <trkpt lat="39.410870760808656" lon="-5.831323360121165"><ele>2048</ele><speed>12.35</speed><time>2016-07-09T14:37:46Z</time><pdop>4.0</pdop><geoidheight>50.80</geoidheight><course>178.3757</course><type>1</type></trkpt>
      <trkpt lat="39.410759531848434" lon="-5.831350941287828"><ele>2049</ele><speed>12.40</speed><time>2016-07-09T14:37:47Z</time><pdop>4.0</pdop><geoidheight>50.80</geoidheight><course>191.46802</course><type>1</type></trkpt>
      <trkpt lat="39.41064364001136" lon="-5.831386568720489"><ele>2049</ele><speed>12.41</speed><time>2016-07-09T14:37:48Z</time><pdop>6.0</pdop><geoidheight>50.80</geoidheight><course>193.91194</course><type>1</type></trkpt>
      <trkpt lat="39.41054124902287" lon="-5.831431511987388"><ele>2050</ele><speed>12.83</speed><time>2016-07-09T14:37:49Z</time><pdop>6.0</pdop><geoidheight>50.80</geoidheight><course>196.9544</course><type>1</type></trkpt>
      <trkpt lat="39.41044083008025" lon="-5.831486261687567"><ele>2050</ele><speed>13.06</speed><time>2016-07-09T14:37:50Z</time><pdop>6.0</pdop><geoidheight>50.80</geoidheight><course>199.4728</course><type>1</type></trkpt>
      <trkpt lat="39.410239872280314" lon="-5.831609140567999"><ele>2050</ele><speed>12.88</speed><time>2016-07-09T14:37:53Z</time><pdop>6.0</pdop><geoidheight>50.80</geoidheight><course>201.6363</course><type>1</type></trkpt>
      <trkpt lat="39.41013602874829" lon="-5.831673214791132"><ele>2050</ele><speed>12.50</speed><time>2016-07-09T14:37:54Z</time><pdop>6.0</pdop><geoidheight>50.80</geoidheight><course>202.0393</course><type>1</type></trkpt>
      <trkpt lat="39.410031836382906" lon="-5.831734988311326"><ele>2050</ele><speed>12.05</speed><time>2016-07-09T14:37:54Z</time><pdop>6.0</pdop><geoidheight>50.80</geoidheight><course>201.40672</course><type>1</type></trkpt>
      <trkpt lat="39.40993193273916" lon="-5.8317940689101135"><ele>2050</ele><speed>11.87</speed><time>2016-07-09T14:37:55Z</time><pdop>6.0</pdop><geoidheight>50.80</geoidheight><course>203.09518</course><type>1</type></trkpt>
      <trkpt lat="39.409794240804075" lon="-5.831998863177871"><ele>2050</ele><speed>12.30</speed><time>2016-07-09T14:37:58Z</time><pdop>6.0</pdop><geoidheight>50.80</geoidheight><course>242.5239</course><type>1</type></trkpt>
      <trkpt lat="39.40977939036709" lon="-5.832243553226515"><ele>2050</ele><speed>11.41</speed><time>2016-07-09T14:37:59Z</time><pdop>6.0</pdop><geoidheight>50.80</geoidheight><course>275.20566</course><type>1</type></trkpt>
      <trkpt lat="39.40983381144544" lon="-5.8324320742487945"><ele>2049</ele><speed>7.85</speed><time>2016-07-09T14:38:01Z</time><pdop>8.0</pdop><geoidheight>50.80</geoidheight><course>310.07965</course><type>1</type></trkpt>
      <trkpt lat="39.4100208579072" lon="-5.8325544677845125"><ele>2046</ele><speed>8.65</speed><time>2016-07-09T14:38:05Z</time><pdop>8.0</pdop><geoidheight>50.80</geoidheight><course>347.5837</course><type>1</type></trkpt>
      <trkpt lat="39.41015308095183" lon="-5.832532984321926"><ele>2044</ele><speed>8.10</speed><time>2016-07-09T14:38:06Z</time><pdop>6.0</pdop><geoidheight>50.80</geoidheight><course>9.036207</course><type>1</type></trkpt>
      <trkpt lat="39.410312068361364" lon="-5.832455397223551"><ele>2042</ele><speed>5.81</speed><time>2016-07-09T14:38:09Z</time><pdop>8.0</pdop><geoidheight>50.80</geoidheight><course>31.198616</course><type>1</type></trkpt>
      <trkpt lat="39.41046114221376" lon="-5.832355704463302"><ele>2042</ele><speed>6.39</speed><time>2016-07-09T14:38:12Z</time><pdop>6.0</pdop><geoidheight>50.80</geoidheight><course>27.328417</course><type>1</type></trkpt>
      <trkpt lat="39.41058243445504" lon="-5.832280210511437"><ele>2041</ele><speed>8.01</speed><time>2016-07-09T14:38:14Z</time><pdop>6.0</pdop><geoidheight>50.80</geoidheight><course>27.119514</course><type>1</type></trkpt>
      <trkpt lat="39.410716034472294" lon="-5.832179808154229"><ele>2042</ele><speed>8.10</speed><time>2016-07-09T14:38:16Z</time><pdop>8.0</pdop><geoidheight>50.80</geoidheight><course>32.029896</course><type>1</type></trkpt>
      <trkpt lat="39.4108807951525" lon="-5.832027264323912"><ele>2045</ele><speed>6.21</speed><time>2016-07-09T14:38:19Z</time><pdop>8.0</pdop><geoidheight>50.80</geoidheight><course>32.781204</course><type>1</type></trkpt>
      <trkpt lat="39.41102800625948" lon="-5.831909455570807"><ele>2053</ele><speed>6.13</speed><time>2016-07-09T14:38:22Z</time><pdop>8.0</pdop><geoidheight>50.80</geoidheight><course>31.304455</course><type>1</type></trkpt>
      <trkpt lat="39.411180571626616" lon="-5.831798042081881"><ele>2060</ele><speed>5.69</speed><time>2016-07-09T14:38:25Z</time><pdop>6.0</pdop><geoidheight>50.80</geoidheight><course>27.19386</course><type>1</type></trkpt>
      <trkpt lat="39.41131338509776" lon="-5.831649770922645"><ele>2065</ele><speed>8.24</speed><time>2016-07-09T14:38:28Z</time><pdop>8.0</pdop><geoidheight>50.80</geoidheight><course>49.768166</course><type>1</type></trkpt>
      <trkpt lat="39.41146269167443" lon="-5.831470245411181"><ele>2066</ele><speed>6.51</speed><time>2016-07-09T14:38:31Z</time><pdop>6.0</pdop><geoidheight>50.80</geoidheight><course>47.212265</course><type>1</type></trkpt>
      <trkpt lat="39.41156579624978" lon="-5.831307574716165"><ele>2067</ele><speed>6.11</speed><time>2016-07-09T14:38:34Z</time><pdop>8.0</pdop><geoidheight>50.80</geoidheight><course>51.378746</course><type>1</type></trkpt>
      <trkpt lat="39.411687552341895" lon="-5.831114447979807"><ele>2068</ele><speed>7.97</speed><time>2016-07-09T14:38:37Z</time><pdop>8.0</pdop><geoidheight>50.80</geoidheight><course>49.651165</course><type>1</type></trkpt>
      <trkpt lat="39.411794613943805" lon="-5.830911432619579"><ele>2069</ele><speed>6.75</speed><time>2016-07-09T14:38:40Z</time><pdop>8.0</pdop><geoidheight>50.80</geoidheight><course>57.91991</course><type>1</type></trkpt>
      <trkpt lat="39.411884010484926" lon="-5.830663933951118"><ele>2070</ele><speed>8.19</speed><time>2016-07-09T14:38:43Z</time><pdop>8.0</pdop><geoidheight>50.80</geoidheight><course>65.502975</course><type>1</type></trkpt>
      <trkpt lat="39.41193535156969" lon="-5.830492944142773"><ele>2070</ele><speed>7.27</speed><time>2016-07-09T14:38:45Z</time><pdop>6.0</pdop><geoidheight>50.80</geoidheight><course>67.45797</course><type>1</type></trkpt>
      <trkpt lat="39.411984785108004" lon="-5.830326106509219"><ele>2071</ele><speed>7.62</speed><time>2016-07-09T14:38:47Z</time><pdop>6.0</pdop><geoidheight>50.80</geoidheight><course>68.56608</course><type>1</type></trkpt>
      <trkpt lat="39.41203441537248" lon="-5.830153601738807"><ele>2071</ele><speed>8.37</speed><time>2016-07-09T14:38:49Z</time><pdop>8.0</pdop><geoidheight>50.80</geoidheight><course>67.50772</course><type>1</type></trkpt>
      <trkpt lat="39.4121005072604" lon="-5.82997795946009"><ele>2071</ele><speed>8.11</speed><time>2016-07-09T14:38:51Z</time><pdop>8.0</pdop><geoidheight>50.80</geoidheight><course>62.103275</course><type>1</type></trkpt>
      <trkpt lat="39.412207003304836" lon="-5.829763120073419"><ele>2073</ele><speed>7.36</speed><time>2016-07-09T14:38:54Z</time><pdop>8.0</pdop><geoidheight>50.80</geoidheight><course>56.61277</course><type>1</type></trkpt>
      <trkpt lat="39.412289422767394" lon="-5.829603439767291"><ele>2074</ele><speed>8.97</speed><time>2016-07-09T14:38:56Z</time><pdop>8.0</pdop><geoidheight>50.80</geoidheight><course>55.658955</course><type>1</type></trkpt>
      <trkpt lat="39.4123806012016" lon="-5.829435155044196"><ele>2075</ele><speed>8.32</speed><time>2016-07-09T14:38:58Z</time><pdop>8.0</pdop><geoidheight>50.80</geoidheight><course>54.96134</course><type>1</type></trkpt>
      <trkpt lat="39.41251125470516" lon="-5.829220705530599"><ele>2076</ele><speed>7.65</speed><time>2016-07-09T14:39:02Z</time><pdop>8.0</pdop><geoidheight>50.80</geoidheight><course>51.700867</course><type>1</type></trkpt>
      <trkpt lat="39.4126080247168" lon="-5.829079545531289"><ele>2077</ele><speed>7.61</speed><time>2016-07-09T14:39:04Z</time><pdop>8.0</pdop><geoidheight>50.80</geoidheight><course>51.746387</course><type>1</type></trkpt>
      <trkpt lat="39.41273973872851" lon="-5.828854394087323"><ele>2077</ele><speed>8.44</speed><time>2016-07-09T14:39:06Z</time><pdop>8.0</pdop><geoidheight>50.80</geoidheight><course>55.558308</course><type>1</type></trkpt>
      <trkpt lat="39.41282680919145" lon="-5.828704452818798"><ele>2077</ele><speed>7.65</speed><time>2016-07-09T14:39:08Z</time><pdop>8.0</pdop><geoidheight>50.80</geoidheight><course>53.297043</course><type>1</type></trkpt>
      <trkpt lat="39.41292996965334" lon="-5.82849061747966"><ele>2078</ele><speed>7.32</speed><time>2016-07-09T14:39:11Z</time><pdop>8.0</pdop><geoidheight>50.80</geoidheight><course>69.79779</course><type>1</type></trkpt>
      <trkpt lat="39.41295377441659" lon="-5.828302925292949"><ele>2078</ele><speed>9.26</speed><time>2016-07-09T14:39:14Z</time><pdop>8.0</pdop><geoidheight>50.80</geoidheight><course>88.06026</course><type>1</type></trkpt>
      <trkpt lat="39.41295421574283" lon="-5.828096852917382"><ele>2079</ele><speed>9.57</speed><time>2016-07-09T14:39:15Z</time><pdop>6.0</pdop><geoidheight>50.80</geoidheight><course>88.07977</course><type>1</type></trkpt>
      <trkpt lat="39.41296622468952" lon="-5.827886143067651"><ele>2080</ele><speed>7.82</speed><time>2016-07-09T14:39:17Z</time><pdop>6.0</pdop><geoidheight>50.80</geoidheight><course>85.26098</course><type>1</type></trkpt>
      <trkpt lat="39.41297828538171" lon="-5.827699196031993"><ele>2081</ele><speed>7.49</speed><time>2016-07-09T14:39:19Z</time><pdop>8.0</pdop><geoidheight>50.80</geoidheight><course>88.90534</course><type>1</type></trkpt>
      <trkpt lat="39.41297832598194" lon="-5.827507371420772"><ele>2081</ele><speed>8.92</speed><time>2016-07-09T14:39:21Z</time><pdop>4.0</pdop><geoidheight>50.80</geoidheight><course>91.387215</course><type>1</type></trkpt>
      <trkpt lat="39.41296253978759" lon="-5.827300530667575"><ele>2080</ele><speed>10.01</speed><time>2016-07-09T14:39:23Z</time><pdop>4.0</pdop><geoidheight>50.80</geoidheight><course>96.24546</course><type>1</type></trkpt>
      <trkpt lat="39.41294698661786" lon="-5.827196001373658"><ele>2079</ele><speed>9.85</speed><time>2016-07-09T14:39:24Z</time><pdop>4.0</pdop><geoidheight>50.80</geoidheight><course>99.3388</course><type>1</type></trkpt>
      <trkpt lat="39.41292499318479" lon="-5.8270888936677085"><ele>2079</ele><speed>9.24</speed><time>2016-07-09T14:39:25Z</time><pdop>4.0</pdop><geoidheight>50.80</geoidheight><course>102.31572</course><type>1</type></trkpt>
      <trkpt lat="39.41290083759578" lon="-5.826986561803729"><ele>2079</ele><speed>8.78</speed><time>2016-07-09T14:39:26Z</time><pdop>4.0</pdop><geoidheight>50.80</geoidheight><course>103.62563</course><type>1</type></trkpt>
      <trkpt lat="39.41287754200598" lon="-5.826888011858794"><ele>2078</ele><speed>8.83</speed><time>2016-07-09T14:39:27Z</time><pdop>4.0</pdop><geoidheight>50.80</geoidheight><course>103.44422</course><type>1</type></trkpt>
      <trkpt lat="39.41285462754395" lon="-5.826786437547996"><ele>2078</ele><speed>9.29</speed><time>2016-07-09T14:39:28Z</time><pdop>4.0</pdop><geoidheight>50.80</geoidheight><course>103.43581</course><type>1</type></trkpt>
      <trkpt lat="39.41283146173937" lon="-5.826684668177121"><ele>2078</ele><speed>9.62</speed><time>2016-07-09T14:39:29Z</time><pdop>4.0</pdop><geoidheight>50.80</geoidheight><course>104.628265</course><type>1</type></trkpt>
      <trkpt lat="39.4128058320763" lon="-5.8265752050059465"><ele>2078</ele><speed>10.46</speed><time>2016-07-09T14:39:30Z</time><pdop>4.0</pdop><geoidheight>50.80</geoidheight><course>105.23423</course><type>1</type></trkpt>
      <trkpt lat="39.41278139773642" lon="-5.8264583893896935"><ele>2078</ele><speed>10.34</speed><time>2016-07-09T14:39:31Z</time><pdop>4.0</pdop><geoidheight>50.80</geoidheight><course>104.01943</course><type>1</type></trkpt>
      <trkpt lat="39.41276436744541" lon="-5.826355505702013"><ele>2078</ele><speed>8.72</speed><time>2016-07-09T14:39:32Z</time><pdop>4.0</pdop><geoidheight>50.80</geoidheight><course>102.0908</course><type>1</type></trkpt>
      <trkpt lat="39.412733605866784" lon="-5.826185618303863"><ele>2080</ele><speed>6.83</speed><time>2016-07-09T14:39:34Z</time><pdop>8.0</pdop><geoidheight>50.80</geoidheight><course>104.607315</course><type>1</type></trkpt>
      <trkpt lat="39.41269365110036" lon="-5.8260007998927"><ele>2083</ele><speed>8.21</speed><time>2016-07-09T14:39:36Z</time><pdop>8.0</pdop><geoidheight>50.80</geoidheight><course>105.1363</course><type>1</type></trkpt>
      <trkpt lat="39.41265821560325" lon="-5.825783979083084"><ele>2085</ele><speed>10.20</speed><time>2016-07-09T14:39:38Z</time><pdop>4.0</pdop><geoidheight>50.80</geoidheight><course>102.32544</course><type>1</type></trkpt>
      <trkpt lat="39.41264085795101" lon="-5.8256641320550395"><ele>2087</ele><speed>10.13</speed><time>2016-07-09T14:39:39Z</time><pdop>4.0</pdop><geoidheight>50.80</geoidheight><course>101.729195</course><type>1</type></trkpt>
      <trkpt lat="39.4126280358387" lon="-5.825553759940499"><ele>2088</ele><speed>9.15</speed><time>2016-07-09T14:39:40Z</time><pdop>4.0</pdop><geoidheight>50.80</geoidheight><course>100.423225</course><type>1</type></trkpt>
      <trkpt lat="39.41261818979476" lon="-5.825449698810188"><ele>2089</ele><speed>8.44</speed><time>2016-07-09T14:39:41Z</time><pdop>4.0</pdop><geoidheight>50.80</geoidheight><course>99.04206</course><type>1</type></trkpt>
      <trkpt lat="39.412607165329725" lon="-5.825348232027169"><ele>2090</ele><speed>8.90</speed><time>2016-07-09T14:39:42Z</time><pdop>4.0</pdop><geoidheight>50.80</geoidheight><course>98.668655</course><type>1</type></trkpt>
      <trkpt lat="39.41259632831166" lon="-5.825236509784737"><ele>2090</ele><speed>10.15</speed><time>2016-07-09T14:39:43Z</time><pdop>4.0</pdop><geoidheight>50.80</geoidheight><course>99.96709</course><type>1</type></trkpt>
      <trkpt lat="39.41257630192755" lon="-5.825118767831693"><ele>2091</ele><speed>10.81</speed><time>2016-07-09T14:39:44Z</time><pdop>4.0</pdop><geoidheight>50.80</geoidheight><course>102.93633</course><type>1</type></trkpt>
      <trkpt lat="39.41254724769275" lon="-5.82500109344517"><ele>2091</ele><speed>11.00</speed><time>2016-07-09T14:39:45Z</time><pdop>4.0</pdop><geoidheight>50.80</geoidheight><course>106.67425</course><type>1</type></trkpt>
      <trkpt lat="39.41251188396717" lon="-5.824887237006626"><ele>2091</ele><speed>10.71</speed><time>2016-07-09T14:39:46Z</time><pdop>4.0</pdop><geoidheight>50.80</geoidheight><course>109.86414</course><type>1</type></trkpt>
      <trkpt lat="39.41246976480417" lon="-5.824765492237695"><ele>2091</ele><speed>10.44</speed><time>2016-07-09T14:39:47Z</time><pdop>4.0</pdop><geoidheight>50.80</geoidheight><course>111.70719</course><type>1</type></trkpt>
      <trkpt lat="39.41242584312979" lon="-5.824646967412826"><ele>2092</ele><speed>10.95</speed><time>2016-07-09T14:39:48Z</time><pdop>4.0</pdop><geoidheight>50.80</geoidheight><course>112.292694</course><type>1</type></trkpt>
      <trkpt lat="39.41237983098348" lon="-5.824521706282536"><ele>2092</ele><speed>11.52</speed><time>2016-07-09T14:39:49Z</time><pdop>4.0</pdop><geoidheight>50.80</geoidheight><course>112.13626</course><type>1</type></trkpt>
      <trkpt lat="39.41233569180874" lon="-5.824400276312613"><ele>2093</ele><speed>11.16</speed><time>2016-07-09T14:39:50Z</time><pdop>6.0</pdop><geoidheight>50.80</geoidheight><course>112.95811</course><type>1</type></trkpt>
      <trkpt lat="39.41226995011124" lon="-5.824207116336302"><ele>2094</ele><speed>7.41</speed><time>2016-07-09T14:39:52Z</time><pdop>6.0</pdop><geoidheight>50.80</geoidheight><course>113.10506</course><type>1</type></trkpt>
      <trkpt lat="39.41221252953042" lon="-5.824022269926211"><ele>2096</ele><speed>7.70</speed><time>2016-07-09T14:39:54Z</time><pdop>8.0</pdop><geoidheight>50.80</geoidheight><course>109.71042</course><type>1</type></trkpt>
      <trkpt lat="39.412173225099316" lon="-5.823822608643969"><ele>2098</ele><speed>8.98</speed><time>2016-07-09T14:39:56Z</time><pdop>8.0</pdop><geoidheight>50.80</geoidheight><course>102.90712</course><type>1</type></trkpt>
      <trkpt lat="39.412147852878824" lon="-5.823618176605852"><ele>2101</ele><speed>8.65</speed><time>2016-07-09T14:39:58Z</time><pdop>6.0</pdop><geoidheight>50.80</geoidheight><course>100.93677</course><type>1</type></trkpt>
      <trkpt lat="39.41211548544737" lon="-5.823399226765228"><ele>2104</ele><speed>10.56</speed><time>2016-07-09T14:40:00Z</time><pdop>6.0</pdop><geoidheight>50.80</geoidheight><course>103.73214</course><type>1</type></trkpt>
      <trkpt lat="39.412029167096854" lon="-5.823145434135377"><ele>2106</ele><speed>11.95</speed><time>2016-07-09T14:40:02Z</time><pdop>6.0</pdop><geoidheight>50.80</geoidheight><course>120.69275</course><type>1</type></trkpt>
      <trkpt lat="39.41192184018107" lon="-5.8229359069392315"><ele>2108</ele><speed>10.83</speed><time>2016-07-09T14:40:04Z</time><pdop>6.0</pdop><geoidheight>50.80</geoidheight><course>125.61146</course><type>1</type></trkpt>
      <trkpt lat="39.411785411038544" lon="-5.8227189623307805"><ele>2110</ele><speed>11.75</speed><time>2016-07-09T14:40:06Z</time><pdop>8.0</pdop><geoidheight>50.80</geoidheight><course>130.18263</course><type>1</type></trkpt>
      <trkpt lat="39.41165325845643" lon="-5.8225285568458105"><ele>2111</ele><speed>10.28</speed><time>2016-07-09T14:40:09Z</time><pdop>8.0</pdop><geoidheight>50.80</geoidheight><course>130.37585</course><type>1</type></trkpt>
      <trkpt lat="39.411536002279426" lon="-5.822344216664309"><ele>2113</ele><speed>9.89</speed><time>2016-07-09T14:40:10Z</time><pdop>8.0</pdop><geoidheight>50.80</geoidheight><course>128.23172</course><type>1</type></trkpt>
      <trkpt lat="39.41142120372621" lon="-5.822171609796898"><ele>2115</ele><speed>10.80</speed><time>2016-07-09T14:40:12Z</time><pdop>6.0</pdop><geoidheight>50.80</geoidheight><course>131.89418</course><type>1</type></trkpt>
      <trkpt lat="39.411255626528735" lon="-5.822027581099249"><ele>2117</ele><speed>11.15</speed><time>2016-07-09T14:40:14Z</time><pdop>6.0</pdop><geoidheight>50.80</geoidheight><course>158.16669</course><type>1</type></trkpt>
      <trkpt lat="39.411063863518706" lon="-5.822028407881196"><ele>2119</ele><speed>11.04</speed><time>2016-07-09T14:40:16Z</time><pdop>6.0</pdop><geoidheight>50.80</geoidheight><course>190.39442</course><type>1</type></trkpt>
      <trkpt lat="39.41087230544641" lon="-5.8220976358816525"><ele>2122</ele><speed>10.31</speed><time>2016-07-09T14:40:19Z</time><pdop>6.0</pdop><geoidheight>50.80</geoidheight><course>197.28743</course><type>1</type></trkpt>
      <trkpt lat="39.41074995896539" lon="-5.8222288371103135"><ele>2125</ele><speed>9.42</speed><time>2016-07-09T14:40:20Z</time><pdop>6.0</pdop><geoidheight>50.80</geoidheight><course>221.05225</course><type>1</type></trkpt>
      <trkpt lat="39.41068292871738" lon="-5.822446380818383"><ele>2127</ele><speed>11.08</speed><time>2016-07-09T14:40:22Z</time><pdop>6.0</pdop><geoidheight>50.80</geoidheight><course>255.21468</course><type>1</type></trkpt>
      <trkpt lat="39.41065569722511" lon="-5.822699098079922"><ele>2130</ele><speed>11.56</speed><time>2016-07-09T14:40:25Z</time><pdop>6.0</pdop><geoidheight>50.80</geoidheight><course>271.36572</course><type>1</type></trkpt>
      <trkpt lat="39.41065849931254" lon="-5.822962175747346"><ele>2133</ele><speed>10.16</speed><time>2016-07-09T14:40:26Z</time><pdop>6.0</pdop><geoidheight>50.80</geoidheight><course>272.63315</course><type>1</type></trkpt>
      <trkpt lat="39.41065879874185" lon="-5.823178169818142"><ele>2137</ele><speed>8.89</speed><time>2016-07-09T14:40:28Z</time><pdop>6.0</pdop><geoidheight>50.80</geoidheight><course>270.91772</course><type>1</type></trkpt>
      <trkpt lat="39.410702631648064" lon="-5.82338571828806"><ele>2141</ele><speed>9.23</speed><time>2016-07-09T14:40:30Z</time><pdop>8.0</pdop><geoidheight>50.80</geoidheight><course>302.9972</course><type>1</type></trkpt>
      <trkpt lat="39.41087258079992" lon="-5.823497684035539"><ele>2144</ele><speed>10.61</speed><time>2016-07-09T14:40:32Z</time><pdop>8.0</pdop><geoidheight>50.80</geoidheight><course>346.03418</course><type>1</type></trkpt>
      <trkpt lat="39.41104134247497" lon="-5.823486994774406"><ele>2147</ele><speed>4.58</speed><time>2016-07-09T14:40:35Z</time><pdop>8.0</pdop><geoidheight>50.80</geoidheight><course>31.4349</course><type>1</type></trkpt>
      <trkpt lat="39.411111045213424" lon="-5.823260035832078"><ele>2153</ele><speed>7.84</speed><time>2016-07-09T14:40:38Z</time><pdop>8.0</pdop><geoidheight>50.80</geoidheight><course>75.99934</course><type>1</type></trkpt>
      <trkpt lat="39.41111973761956" lon="-5.8230671904681"><ele>2157</ele><speed>8.47</speed><time>2016-07-09T14:40:40Z</time><pdop>6.0</pdop><geoidheight>50.80</geoidheight><course>98.30888</course><type>1</type></trkpt>
      <trkpt lat="39.41105844336629" lon="-5.822853079753162"><ele>2160</ele><speed>10.25</speed><time>2016-07-09T14:40:42Z</time><pdop>6.0</pdop><geoidheight>50.80</geoidheight><course>114.930595</course><type>1</type></trkpt>
      <trkpt lat="39.41099720015831" lon="-5.822737530011501"><ele>2161</ele><speed>10.75</speed><time>2016-07-09T14:40:43Z</time><pdop>6.0</pdop><geoidheight>50.80</geoidheight><course>131.5635</course><type>1</type></trkpt>
      <trkpt lat="39.41086024468458" lon="-5.82253981451092"><ele>2164</ele><speed>11.12</speed><time>2016-07-09T14:40:45Z</time><pdop>6.0</pdop><geoidheight>50.80</geoidheight><course>134.5674</course><type>1</type></trkpt>
      <trkpt lat="39.41072146954312" lon="-5.822354008257761"><ele>2166</ele><speed>11.39</speed><time>2016-07-09T14:40:47Z</time><pdop>6.0</pdop><geoidheight>50.80</geoidheight><course>136.79378</course><type>1</type></trkpt>
      <trkpt lat="39.41063794053091" lon="-5.822262734608872"><ele>2167</ele><speed>11.63</speed><time>2016-07-09T14:40:48Z</time><pdop>6.0</pdop><geoidheight>50.80</geoidheight><course>139.57864</course><type>1</type></trkpt>
      <trkpt lat="39.41055553555929" lon="-5.8221894535944445"><ele>2168</ele><speed>11.62</speed><time>2016-07-09T14:40:49Z</time><pdop>4.0</pdop><geoidheight>50.80</geoidheight><course>142.14426</course><type>1</type></trkpt>
      <trkpt lat="39.41047016207884" lon="-5.822115363157066"><ele>2169</ele><speed>11.55</speed><time>2016-07-09T14:40:51Z</time><pdop>6.0</pdop><geoidheight>50.80</geoidheight><course>143.70816</course><type>1</type></trkpt>
      <trkpt lat="39.410291515560715" lon="-5.821972217690729"><ele>2174</ele><speed>10.60</speed><time>2016-07-09T14:40:52Z</time><pdop>6.0</pdop><geoidheight>50.80</geoidheight><course>147.21408</course><type>1</type></trkpt>
      <trkpt lat="39.410140856967466" lon="-5.82186361900509"><ele>2179</ele><speed>8.54</speed><time>2016-07-09T14:40:54Z</time><pdop>4.0</pdop><geoidheight>50.80</geoidheight><course>148.66425</course><type>1</type></trkpt>
      <trkpt lat="39.410069744955656" lon="-5.821815535897724"><ele>2181</ele><speed>8.82</speed><time>2016-07-09T14:40:55Z</time><pdop>4.0</pdop><geoidheight>50.80</geoidheight><course>149.94028</course><type>1</type></trkpt>
      <trkpt lat="39.40999080618649" lon="-5.821766256453922"><ele>2182</ele><speed>10.12</speed><time>2016-07-09T14:40:56Z</time><pdop>4.0</pdop><geoidheight>50.80</geoidheight><course>151.68588</course><type>1</type></trkpt>
      <trkpt lat="39.40989894180305" lon="-5.821715055114739"><ele>2183</ele><speed>11.64</speed><time>2016-07-09T14:40:57Z</time><pdop>4.0</pdop><geoidheight>50.80</geoidheight><course>154.09457</course><type>1</type></trkpt>
      <trkpt lat="39.4097996383856" lon="-5.821668081710894"><ele>2184</ele><speed>11.78</speed><time>2016-07-09T14:40:58Z</time><pdop>4.0</pdop><geoidheight>50.80</geoidheight><course>157.62985</course><type>1</type></trkpt>
      <trkpt lat="39.40970020708147" lon="-5.821649753076073"><ele>2186</ele><speed>10.76</speed><time>2016-07-09T14:40:59Z</time><pdop>4.0</pdop><geoidheight>50.80</geoidheight><course>171.19684</course><type>1</type></trkpt>
      <trkpt lat="39.409605222305146" lon="-5.8216328973542515"><ele>2187</ele><speed>10.11</speed><time>2016-07-09T14:41:00Z</time><pdop>4.0</pdop><geoidheight>50.80</geoidheight><course>171.7054</course><type>1</type></trkpt>
      <trkpt lat="39.40951152069843" lon="-5.821615940152688"><ele>2189</ele><speed>9.75</speed><time>2016-07-09T14:41:01Z</time><pdop>4.0</pdop><geoidheight>50.80</geoidheight><course>170.71672</course><type>1</type></trkpt>
      <trkpt lat="39.40941790829751" lon="-5.821599015292099"><ele>2191</ele><speed>9.92</speed><time>2016-07-09T14:41:02Z</time><pdop>6.0</pdop><geoidheight>50.80</geoidheight><course>170.53639</course><type>1</type></trkpt>
      <trkpt lat="39.40923278286015" lon="-5.821568645237939"><ele>2194</ele><speed>10.52</speed><time>2016-07-09T14:41:04Z</time><pdop>6.0</pdop><geoidheight>50.80</geoidheight><course>173.18587</course><type>1</type></trkpt>
      <trkpt lat="39.40904468807687" lon="-5.821549239551033"><ele>2198</ele><speed>10.57</speed><time>2016-07-09T14:41:06Z</time><pdop>6.0</pdop><geoidheight>50.80</geoidheight><course>175.17348</course><type>1</type></trkpt>
      <trkpt lat="39.40894441834982" lon="-5.821542612902685"><ele>2199</ele><speed>11.09</speed><time>2016-07-09T14:41:08Z</time><pdop>4.0</pdop><geoidheight>50.80</geoidheight><course>175.67085</course><type>1</type></trkpt>
      <trkpt lat="39.40884053627187" lon="-5.821539127223944"><ele>2201</ele><speed>11.77</speed><time>2016-07-09T14:41:09Z</time><pdop>6.0</pdop><geoidheight>50.80</geoidheight><course>176.94057</course><type>1</type></trkpt>
      <trkpt lat="39.40873319203893" lon="-5.821540993414026"><ele>2203</ele><speed>11.94</speed><time>2016-07-09T14:41:09Z</time><pdop>4.0</pdop><geoidheight>50.80</geoidheight><course>179.12402</course><type>1</type></trkpt>
      <trkpt lat="39.4086268689468" lon="-5.821548928419185"><ele>2205</ele><speed>11.35</speed><time>2016-07-09T14:41:10Z</time><pdop>4.0</pdop><geoidheight>50.80</geoidheight><course>182.12325</course><type>1</type></trkpt>
      <trkpt lat="39.40853063259586" lon="-5.821583874200104"><ele>2206</ele><speed>10.28</speed><time>2016-07-09T14:41:11Z</time><pdop>4.0</pdop><geoidheight>50.80</geoidheight><course>195.8828</course><type>1</type></trkpt>
      <trkpt lat="39.40844243214249" lon="-5.82161692497517"><ele>2208</ele><speed>9.88</speed><time>2016-07-09T14:41:12Z</time><pdop>4.0</pdop><geoidheight>50.80</geoidheight><course>196.82968</course><type>1</type></trkpt>
      <trkpt lat="39.40835543445182" lon="-5.821652551540947"><ele>2210</ele><speed>10.26</speed><time>2016-07-09T14:41:13Z</time><pdop>6.0</pdop><geoidheight>50.80</geoidheight><course>197.17293</course><type>1</type></trkpt>
      <trkpt lat="39.40826814831765" lon="-5.821692332361636"><ele>2211</ele><speed>10.50</speed><time>2016-07-09T14:41:14Z</time><pdop>4.0</pdop><geoidheight>50.80</geoidheight><course>198.89638</course><type>1</type></trkpt>
      <trkpt lat="39.40818207677912" lon="-5.82175855726466"><ele>2213</ele><speed>10.98</speed><time>2016-07-09T14:41:15Z</time><pdop>6.0</pdop><geoidheight>50.80</geoidheight><course>212.23964</course><type>1</type></trkpt>
      <trkpt lat="39.40807017495983" lon="-5.821985083134755"><ele>2214</ele><speed>13.29</speed><time>2016-07-09T14:41:17Z</time><pdop>6.0</pdop><geoidheight>50.80</geoidheight><course>250.40573</course><type>1</type></trkpt>
      <trkpt lat="39.40804217203879" lon="-5.8222819868363995"><ele>2215</ele><speed>13.35</speed><time>2016-07-09T14:41:20Z</time><pdop>8.0</pdop><geoidheight>50.80</geoidheight><course>267.44147</course><type>1</type></trkpt>
      <trkpt lat="39.40810754207766" lon="-5.82252567594214"><ele>2216</ele><speed>10.02</speed><time>2016-07-09T14:41:21Z</time><pdop>8.0</pdop><geoidheight>50.80</geoidheight><course>292.74512</course><type>1</type></trkpt>
      <trkpt lat="39.40816457167714" lon="-5.822755174333836"><ele>2217</ele><speed>8.87</speed><time>2016-07-09T14:41:24Z</time><pdop>8.0</pdop><geoidheight>50.80</geoidheight><course>290.5237</course><type>1</type></trkpt>
      <trkpt lat="39.40820143217388" lon="-5.823009884389178"><ele>2219</ele><speed>11.09</speed><time>2016-07-09T14:41:25Z</time><pdop>6.0</pdop><geoidheight>50.80</geoidheight><course>284.82028</course><type>1</type></trkpt>
      <trkpt lat="39.408236042464104" lon="-5.8232405425834095"><ele>2221</ele><speed>10.39</speed><time>2016-07-09T14:41:27Z</time><pdop>8.0</pdop><geoidheight>50.80</geoidheight><course>287.16183</course><type>1</type></trkpt>
      <trkpt lat="39.40829600258928" lon="-5.82348021816333"><ele>2224</ele><speed>10.59</speed><time>2016-07-09T14:41:29Z</time><pdop>6.0</pdop><geoidheight>50.80</geoidheight><course>288.86</course><type>1</type></trkpt>
      <trkpt lat="39.40829546736948" lon="-5.823727859884684"><ele>2227</ele><speed>10.57</speed><time>2016-07-09T14:41:31Z</time><pdop>6.0</pdop><geoidheight>50.80</geoidheight><course>261.51917</course><type>1</type></trkpt>
      <trkpt lat="39.40823611631898" lon="-5.823946887588278"><ele>2229</ele><speed>9.90</speed><time>2016-07-09T14:41:33Z</time><pdop>6.0</pdop><geoidheight>50.80</geoidheight><course>236.7895</course><type>1</type></trkpt>
      <trkpt lat="39.4081139410928" lon="-5.824106484763298"><ele>2231</ele><speed>10.25</speed><time>2016-07-09T14:41:35Z</time><pdop>6.0</pdop><geoidheight>50.80</geoidheight><course>219.27606</course><type>1</type></trkpt>
      <trkpt lat="39.4079406520304" lon="-5.824131561766436"><ele>2235</ele><speed>9.96</speed><time>2016-07-09T14:41:37Z</time><pdop>6.0</pdop><geoidheight>50.80</geoidheight><course>165.4293</course><type>1</type></trkpt>
      <trkpt lat="39.4078045524425" lon="-5.823981823527056"><ele>2237</ele><speed>8.66</speed><time>2016-07-09T14:41:39Z</time><pdop>6.0</pdop><geoidheight>50.80</geoidheight><course>127.95075</course><type>1</type></trkpt>
      <trkpt lat="39.407714926741406" lon="-5.823817641448904"><ele>2239</ele><speed>7.46</speed><time>2016-07-09T14:41:41Z</time><pdop>4.0</pdop><geoidheight>50.80</geoidheight><course>125.74354</course><type>1</type></trkpt>
      <trkpt lat="39.4076763979662" lon="-5.823735989974649"><ele>2240</ele><speed>7.58</speed><time>2016-07-09T14:41:42Z</time><pdop>4.0</pdop><geoidheight>50.80</geoidheight><course>123.73612</course><type>1</type></trkpt>
      <trkpt lat="39.407643452236634" lon="-5.8235765162879005"><ele>2242</ele><speed>6.98</speed><time>2016-07-09T14:41:44Z</time><pdop>4.0</pdop><geoidheight>50.80</geoidheight><course>96.74672</course><type>1</type></trkpt>
      <trkpt lat="39.40763630237083" lon="-5.823425749458891"><ele>2245</ele><speed>5.10</speed><time>2016-07-09T14:41:46Z</time><pdop>4.0</pdop><geoidheight>50.80</geoidheight><course>91.85507</course><type>1</type></trkpt>
      <trkpt lat="39.4076658293763" lon="-5.823208097594095"><ele>2249</ele><speed>7.40</speed><time>2016-07-09T14:41:49Z</time><pdop>4.0</pdop><geoidheight>50.80</geoidheight><course>69.52304</course><type>1</type></trkpt>
      <trkpt lat="39.40769582994594" lon="-5.823116118440766"><ele>2249</ele><speed>7.83</speed><time>2016-07-09T14:41:50Z</time><pdop>4.0</pdop><geoidheight>50.80</geoidheight><course>67.48086</course><type>1</type></trkpt>
      <trkpt lat="39.4077566223907" lon="-5.822964618642012"><ele>2251</ele><speed>7.13</speed><time>2016-07-09T14:41:53Z</time><pdop>6.0</pdop><geoidheight>50.80</geoidheight><course>61.70717</course><type>1</type></trkpt>
      <trkpt lat="39.40783047629136" lon="-5.82281435324701"><ele>2253</ele><speed>7.88</speed><time>2016-07-09T14:41:54Z</time><pdop>6.0</pdop><geoidheight>50.80</geoidheight><course>57.23508</course><type>1</type></trkpt>
      <trkpt lat="39.40792007173902" lon="-5.822656908497559"><ele>2255</ele><speed>9.04</speed><time>2016-07-09T14:41:56Z</time><pdop>6.0</pdop><geoidheight>50.80</geoidheight><course>56.77983</course><type>1</type></trkpt>
      <trkpt lat="39.40793640472579" lon="-5.822491997983912"><ele>2256</ele><speed>7.58</speed><time>2016-07-09T14:41:58Z</time><pdop>6.0</pdop><geoidheight>50.80</geoidheight><course>97.709145</course><type>1</type></trkpt>
      <trkpt lat="39.4079225251874" lon="-5.822326622440296"><ele>2258</ele><speed>7.51</speed><time>2016-07-09T14:42:00Z</time><pdop>4.0</pdop><geoidheight>50.80</geoidheight><course>100.62097</course><type>1</type></trkpt>
      <trkpt lat="39.407873526284966" lon="-5.822151998399962"><ele>2261</ele><speed>8.81</speed><time>2016-07-09T14:42:02Z</time><pdop>4.0</pdop><geoidheight>50.80</geoidheight><course>119.375465</course><type>1</type></trkpt>
      <trkpt lat="39.40776471700946" lon="-5.821971655376507"><ele>2264</ele><speed>9.82</speed><time>2016-07-09T14:42:04Z</time><pdop>8.0</pdop><geoidheight>50.80</geoidheight><course>139.38335</course><type>1</type></trkpt>
      <trkpt lat="39.407621677177" lon="-5.821820688427045"><ele>2266</ele><speed>10.46</speed><time>2016-07-09T14:42:06Z</time><pdop>6.0</pdop><geoidheight>50.80</geoidheight><course>141.29689</course><type>1</type></trkpt>
      <trkpt lat="39.4074811492212" lon="-5.821669763080871"><ele>2269</ele><speed>10.41</speed><time>2016-07-09T14:42:08Z</time><pdop>6.0</pdop><geoidheight>50.80</geoidheight><course>139.36026</course><type>1</type></trkpt>
      <trkpt lat="39.40741005100481" lon="-5.821590003071596"><ele>2270</ele><speed>10.95</speed><time>2016-07-09T14:42:10Z</time><pdop>4.0</pdop><geoidheight>50.80</geoidheight><course>140.10721</course><type>1</type></trkpt>
      <trkpt lat="39.407331237188046" lon="-5.821509015710719"><ele>2271</ele><speed>11.64</speed><time>2016-07-09T14:42:11Z</time><pdop>4.0</pdop><geoidheight>50.80</geoidheight><course>141.41345</course><type>1</type></trkpt>
      <trkpt lat="39.40724928004792" lon="-5.821427382629543"><ele>2272</ele><speed>11.96</speed><time>2016-07-09T14:42:11Z</time><pdop>4.0</pdop><geoidheight>50.80</geoidheight><course>142.02304</course><type>1</type></trkpt>
      <trkpt lat="39.407165772371144" lon="-5.8213413985319855"><ele>2273</ele><speed>11.89</speed><time>2016-07-09T14:42:12Z</time><pdop>4.0</pdop><geoidheight>50.80</geoidheight><course>140.72139</course><type>1</type></trkpt>
      <trkpt lat="39.40709114437905" lon="-5.8212534310600095"><ele>2275</ele><speed>11.12</speed><time>2016-07-09T14:42:13Z</time><pdop>6.0</pdop><geoidheight>50.80</geoidheight><course>138.33647</course><type>1</type></trkpt>
      <trkpt lat="39.406955491969036" lon="-5.821087948402839"><ele>2277</ele><speed>10.04</speed><time>2016-07-09T14:42:15Z</time><pdop>8.0</pdop><geoidheight>50.80</geoidheight><course>137.30446</course><type>1</type></trkpt>
      <trkpt lat="39.40681998497065" lon="-5.820913383157012"><ele>2280</ele><speed>10.95</speed><time>2016-07-09T14:42:17Z</time><pdop>4.0</pdop><geoidheight>50.80</geoidheight><course>137.5093</course><type>1</type></trkpt>
      <trkpt lat="39.40674684166059" lon="-5.820825335948309"><ele>2282</ele><speed>10.87</speed><time>2016-07-09T14:42:18Z</time><pdop>4.0</pdop><geoidheight>50.80</geoidheight><course>138.37032</course><type>1</type></trkpt>
      <trkpt lat="39.40667100269237" lon="-5.820739411356363"><ele>2283</ele><speed>11.33</speed><time>2016-07-09T14:42:19Z</time><pdop>4.0</pdop><geoidheight>50.80</geoidheight><course>139.43161</course><type>1</type></trkpt>
      <trkpt lat="39.40658995203111" lon="-5.8206557861552595"><ele>2285</ele><speed>11.52</speed><time>2016-07-09T14:42:20Z</time><pdop>4.0</pdop><geoidheight>50.80</geoidheight><course>141.44249</course><type>1</type></trkpt>
      <trkpt lat="39.40650635060834" lon="-5.820571592704145"><ele>2287</ele><speed>11.50</speed><time>2016-07-09T14:42:21Z</time><pdop>4.0</pdop><geoidheight>50.80</geoidheight><course>142.3552</course><type>1</type></trkpt>
      <trkpt lat="39.406418853628125" lon="-5.8204873200368"><ele>2289</ele><speed>11.78</speed><time>2016-07-09T14:42:22Z</time><pdop>4.0</pdop><geoidheight>50.80</geoidheight><course>142.92949</course><type>1</type></trkpt>
      <trkpt lat="39.406331434133385" lon="-5.820402714033889"><ele>2290</ele><speed>11.17</speed><time>2016-07-09T14:42:23Z</time><pdop>8.0</pdop><geoidheight>50.80</geoidheight><course>142.57527</course><type>1</type></trkpt>
      <trkpt lat="39.40619119505951" lon="-5.820279214066255"><ele>2295</ele><speed>7.91</speed><time>2016-07-09T14:42:25Z</time><pdop>4.0</pdop><geoidheight>50.80</geoidheight><course>148.69931</course><type>1</type></trkpt>
      <trkpt lat="39.406051283388265" lon="-5.8201469626114815"><ele>2300</ele><speed>10.19</speed><time>2016-07-09T14:42:27Z</time><pdop>6.0</pdop><geoidheight>50.80</geoidheight><course>146.15773</course><type>1</type></trkpt>
      <trkpt lat="39.405891865733864" lon="-5.819987749157241"><ele>2304</ele><speed>11.01</speed><time>2016-07-09T14:42:29Z</time><pdop>4.0</pdop><geoidheight>50.80</geoidheight><course>146.43971</course><type>1</type></trkpt>
      <trkpt lat="39.40581063253929" lon="-5.819917986340149"><ele>2307</ele><speed>10.13</speed><time>2016-07-09T14:42:30Z</time><pdop>4.0</pdop><geoidheight>50.80</geoidheight><course>148.83174</course><type>1</type></trkpt>
      <trkpt lat="39.40573111130264" lon="-5.8198562444536845"><ele>2309</ele><speed>9.28</speed><time>2016-07-09T14:42:31Z</time><pdop>4.0</pdop><geoidheight>50.80</geoidheight><course>150.6235</course><type>1</type></trkpt>
      <trkpt lat="39.4055884341836" lon="-5.8197556272358995"><ele>2313</ele><speed>8.24</speed><time>2016-07-09T14:42:33Z</time><pdop>8.0</pdop><geoidheight>50.80</geoidheight><course>151.73247</course><type>1</type></trkpt>
      <trkpt lat="39.40544334452024" lon="-5.8196605329818905"><ele>2317</ele><speed>8.94</speed><time>2016-07-09T14:42:35Z</time><pdop>4.0</pdop><geoidheight>50.80</geoidheight><course>154.96974</course><type>1</type></trkpt>
      <trkpt lat="39.40536169589869" lon="-5.819618621517801"><ele>2319</ele><speed>9.39</speed><time>2016-07-09T14:42:36Z</time><pdop>4.0</pdop><geoidheight>50.80</geoidheight><course>158.21092</course><type>1</type></trkpt>
      <trkpt lat="39.40527950929818" lon="-5.819585175245178"><ele>2321</ele><speed>9.00</speed><time>2016-07-09T14:42:37Z</time><pdop>4.0</pdop><geoidheight>50.80</geoidheight><course>160.99606</course><type>1</type></trkpt>
      <trkpt lat="39.40520429786516" lon="-5.819560714270019"><ele>2323</ele><speed>8.15</speed><time>2016-07-09T14:42:38Z</time><pdop>4.0</pdop><geoidheight>50.80</geoidheight><course>163.55612</course><type>1</type></trkpt>
      <trkpt lat="39.40506419528034" lon="-5.8195689103464785"><ele>2327</ele><speed>9.98</speed><time>2016-07-09T14:42:41Z</time><pdop>6.0</pdop><geoidheight>50.80</geoidheight><course>189.40666</course><type>1</type></trkpt>
      <trkpt lat="39.40486525166996" lon="-5.819697353866578"><ele>2328</ele><speed>14.57</speed><time>2016-07-09T14:42:42Z</time><pdop>8.0</pdop><geoidheight>50.80</geoidheight><course>207.1619</course><type>1</type></trkpt>
      <trkpt lat="39.404692290392056" lon="-5.820000653678378"><ele>2327</ele><speed>15.21</speed><time>2016-07-09T14:42:44Z</time><pdop>8.0</pdop><geoidheight>50.80</geoidheight><course>225.01689</course><type>1</type></trkpt>
      <trkpt lat="39.40466796198735" lon="-5.8203209645757275"><ele>2327</ele><speed>12.02</speed><time>2016-07-09T14:42:47Z</time><pdop>8.0</pdop><geoidheight>50.80</geoidheight><course>262.19818</course><type>1</type></trkpt>
      <trkpt lat="39.40464650800926" lon="-5.8206301190714305"><ele>2328</ele><speed>12.73</speed><time>2016-07-09T14:42:48Z</time><pdop>8.0</pdop><geoidheight>50.80</geoidheight><course>266.39606</course><type>1</type></trkpt>
      <trkpt lat="39.40470347378242" lon="-5.8209175056751095"><ele>2329</ele><speed>12.44</speed><time>2016-07-09T14:42:50Z</time><pdop>8.0</pdop><geoidheight>50.80</geoidheight><course>285.37747</course><type>1</type></trkpt>
      <trkpt lat="39.404815756750565" lon="-5.821134234496108"><ele>2329</ele><speed>10.52</speed><time>2016-07-09T14:42:52Z</time><pdop>8.0</pdop><geoidheight>50.80</geoidheight><course>304.96194</course><type>1</type></trkpt>
      <trkpt lat="39.404898432979174" lon="-5.82129881817205"><ele>2330</ele><speed>7.60</speed><time>2016-07-09T14:42:55Z</time><pdop>8.0</pdop><geoidheight>50.80</geoidheight><course>302.51172</course><type>1</type></trkpt>
      <trkpt lat="39.405052483449424" lon="-5.8214524647528885"><ele>2333</ele><speed>6.33</speed><time>2016-07-09T14:42:57Z</time><pdop>8.0</pdop><geoidheight>50.80</geoidheight><course>345.70905</course><type>1</type></trkpt>
      <trkpt lat="39.40520575753447" lon="-5.821494582076922"><ele>2336</ele><speed>3.94</speed><time>2016-07-09T14:43:00Z</time><pdop>8.0</pdop><geoidheight>50.80</geoidheight><course>354.2938</course><type>1</type></trkpt>
      <trkpt lat="39.40534130289242" lon="-5.821432400965267"><ele>2340</ele><speed>4.67</speed><time>2016-07-09T14:43:03Z</time><pdop>6.0</pdop><geoidheight>50.80</geoidheight><course>32.002754</course><type>1</type></trkpt>
      <trkpt lat="39.40546730869024" lon="-5.821317614257029"><ele>2344</ele><speed>4.90</speed><time>2016-07-09T14:43:06Z</time><pdop>6.0</pdop><geoidheight>50.80</geoidheight><course>49.047432</course><type>1</type></trkpt>
      <trkpt lat="39.4055046535285" lon="-5.8211308446262855"><ele>2350</ele><speed>6.76</speed><time>2016-07-09T14:43:09Z</time><pdop>8.0</pdop><geoidheight>50.80</geoidheight><course>103.56106</course><type>1</type></trkpt>
      <trkpt lat="39.40536860224807" lon="-5.82097189744331"><ele>2356</ele><speed>9.43</speed><time>2016-07-09T14:43:12Z</time><pdop>8.0</pdop><geoidheight>50.80</geoidheight><course>162.72551</course><type>1</type></trkpt>
      <trkpt lat="39.40519471247395" lon="-5.8209563263286155"><ele>2360</ele><speed>13.24</speed><time>2016-07-09T14:43:14Z</time><pdop>8.0</pdop><geoidheight>50.80</geoidheight><course>192.82785</course><type>1</type></trkpt>
      <trkpt lat="39.40497810198382" lon="-5.821088164719588"><ele>2364</ele><speed>14.28</speed><time>2016-07-09T14:43:16Z</time><pdop>6.0</pdop><geoidheight>50.80</geoidheight><course>210.38382</course><type>1</type></trkpt>
      <trkpt lat="39.40484247600645" lon="-5.821304728235498"><ele>2367</ele><speed>12.81</speed><time>2016-07-09T14:43:18Z</time><pdop>6.0</pdop><geoidheight>50.80</geoidheight><course>244.39568</course><type>1</type></trkpt>
      <trkpt lat="39.40478950920901" lon="-5.821452347114968"><ele>2369</ele><speed>12.39</speed><time>2016-07-09T14:43:19Z</time><pdop>6.0</pdop><geoidheight>50.80</geoidheight><course>248.10895</course><type>1</type></trkpt>
      <trkpt lat="39.404776913145994" lon="-5.821597441559232"><ele>2370</ele><speed>12.93</speed><time>2016-07-09T14:43:20Z</time><pdop>6.0</pdop><geoidheight>50.80</geoidheight><course>267.1821</course><type>1</type></trkpt>
      <trkpt lat="39.40481499732229" lon="-5.821848376420281"><ele>2372</ele><speed>11.31</speed><time>2016-07-09T14:43:22Z</time><pdop>6.0</pdop><geoidheight>50.80</geoidheight><course>296.6338</course><type>1</type></trkpt>
      <trkpt lat="39.40492423560428" lon="-5.8219951541130674"><ele>2374</ele><speed>5.75</speed><time>2016-07-09T14:43:24Z</time><pdop>6.0</pdop><geoidheight>50.80</geoidheight><course>315.50833</course><type>1</type></trkpt>
      <trkpt lat="39.40501674967466" lon="-5.8220838976130125"><ele>2375</ele><speed>3.84</speed><time>2016-07-09T14:43:26Z</time><pdop>6.0</pdop><geoidheight>50.80</geoidheight><course>319.2742</course><type>1</type></trkpt>
      <trkpt lat="39.40513275949388" lon="-5.822094304873125"><ele>2377</ele><speed>6.66</speed><time>2016-07-09T14:43:29Z</time><pdop>6.0</pdop><geoidheight>50.80</geoidheight><course>9.67167</course><type>1</type></trkpt>
      <trkpt lat="39.40521921242662" lon="-5.821893625971562"><ele>2381</ele><speed>8.68</speed><time>2016-07-09T14:43:31Z</time><pdop>8.0</pdop><geoidheight>50.80</geoidheight><course>90.493034</course><type>1</type></trkpt>
      <trkpt lat="39.4051798344644" lon="-5.821710648784731"><ele>2385</ele><speed>8.59</speed><time>2016-07-09T14:43:33Z</time><pdop>8.0</pdop><geoidheight>50.80</geoidheight><course>127.68571</course><type>1</type></trkpt>
      <trkpt lat="39.405058112947714" lon="-5.821536104465005"><ele>2389</ele><speed>9.21</speed><time>2016-07-09T14:43:35Z</time><pdop>6.0</pdop><geoidheight>50.80</geoidheight><course>144.73413</course><type>1</type></trkpt>
      <trkpt lat="39.40489851849848" lon="-5.821429946770322"><ele>2393</ele><speed>10.86</speed><time>2016-07-09T14:43:38Z</time><pdop>8.0</pdop><geoidheight>50.80</geoidheight><course>164.2377</course><type>1</type></trkpt>
      <trkpt lat="39.40471263034861" lon="-5.821463396019812"><ele>2396</ele><speed>11.41</speed><time>2016-07-09T14:43:39Z</time><pdop>6.0</pdop><geoidheight>50.80</geoidheight><course>196.16672</course><type>1</type></trkpt>
      <trkpt lat="39.40461629327066" lon="-5.821528946019571"><ele>2397</ele><speed>12.50</speed><time>2016-07-09T14:43:40Z</time><pdop>6.0</pdop><geoidheight>50.80</geoidheight><course>212.89615</course><type>1</type></trkpt>
      <trkpt lat="39.40452264460337" lon="-5.821611614594609"><ele>2398</ele><speed>12.84</speed><time>2016-07-09T14:43:41Z</time><pdop>6.0</pdop><geoidheight>50.80</geoidheight><course>216.93661</course><type>1</type></trkpt>
      <trkpt lat="39.404452353264645" lon="-5.821727122226782"><ele>2399</ele><speed>13.07</speed><time>2016-07-09T14:43:42Z</time><pdop>6.0</pdop><geoidheight>50.80</geoidheight><course>236.86147</course><type>1</type></trkpt>
      <trkpt lat="39.40438481655618" lon="-5.821871855911226"><ele>2399</ele><speed>13.37</speed><time>2016-07-09T14:43:44Z</time><pdop>6.0</pdop><geoidheight>50.80</geoidheight><course>240.92627</course><type>1</type></trkpt>
      <trkpt lat="39.404362733065184" lon="-5.822012621923859"><ele>2400</ele><speed>13.26</speed><time>2016-07-09T14:43:45Z</time><pdop>6.0</pdop><geoidheight>50.80</geoidheight><course>259.48123</course><type>1</type></trkpt>
      <trkpt lat="39.404345577269986" lon="-5.822170309388825"><ele>2401</ele><speed>12.97</speed><time>2016-07-09T14:43:45Z</time><pdop>6.0</pdop><geoidheight>50.80</geoidheight><course>262.67358</course><type>1</type></trkpt>
      <trkpt lat="39.40437278636363" lon="-5.822312493758559"><ele>2402</ele><speed>12.61</speed><time>2016-07-09T14:43:46Z</time><pdop>6.0</pdop><geoidheight>50.80</geoidheight><course>285.94876</course><type>1</type></trkpt>
      <trkpt lat="39.40440245503412" lon="-5.82245413236182"><ele>2402</ele><speed>11.95</speed><time>2016-07-09T14:43:47Z</time><pdop>6.0</pdop><geoidheight>50.80</geoidheight><course>289.85245</course><type>1</type></trkpt>
      <trkpt lat="39.40453157199642" lon="-5.822610114124942"><ele>2403</ele><speed>8.78</speed><time>2016-07-09T14:43:49Z</time><pdop>6.0</pdop><geoidheight>50.80</geoidheight><course>319.42096</course><type>1</type></trkpt>
      <trkpt lat="39.40468409770122" lon="-5.822646905468733"><ele>2404</ele><speed>4.94</speed><time>2016-07-09T14:43:52Z</time><pdop>8.0</pdop><geoidheight>50.80</geoidheight><course>25.551477</course><type>1</type></trkpt>
      <trkpt lat="39.4047852433677" lon="-5.822442849568028"><ele>2405</ele><speed>8.46</speed><time>2016-07-09T14:43:55Z</time><pdop>8.0</pdop><geoidheight>50.80</geoidheight><course>73.59284</course><type>1</type></trkpt>
      <trkpt lat="39.404764475857284" lon="-5.822196649769238"><ele>2407</ele><speed>7.28</speed><time>2016-07-09T14:43:58Z</time><pdop>8.0</pdop><geoidheight>50.80</geoidheight><course>116.955444</course><type>1</type></trkpt>
      <trkpt lat="39.404647555848285" lon="-5.821947908692164"><ele>2410</ele><speed>9.24</speed><time>2016-07-09T14:44:01Z</time><pdop>8.0</pdop><geoidheight>50.80</geoidheight><course>121.47489</course><type>1</type></trkpt>
      <trkpt lat="39.40454292666372" lon="-5.821744251838791"><ele>2411</ele><speed>10.76</speed><time>2016-07-09T14:44:04Z</time><pdop>8.0</pdop><geoidheight>50.80</geoidheight><course>123.33086</course><type>1</type></trkpt>
      <trkpt lat="39.404438028981495" lon="-5.821555451745615"><ele>2413</ele><speed>8.37</speed><time>2016-07-09T14:44:05Z</time><pdop>6.0</pdop><geoidheight>50.80</geoidheight><course>125.407776</course><type>1</type></trkpt>
      <trkpt lat="39.40434646335428" lon="-5.821374700677917"><ele>2415</ele><speed>8.67</speed><time>2016-07-09T14:44:07Z</time><pdop>6.0</pdop><geoidheight>50.80</geoidheight><course>122.85466</course><type>1</type></trkpt>
      <trkpt lat="39.40425113673187" lon="-5.821186778908541"><ele>2416</ele><speed>10.30</speed><time>2016-07-09T14:44:09Z</time><pdop>6.0</pdop><geoidheight>50.80</geoidheight><course>124.61597</course><type>1</type></trkpt>
      <trkpt lat="39.40414632441865" lon="-5.820982692528266"><ele>2417</ele><speed>9.56</speed><time>2016-07-09T14:44:11Z</time><pdop>6.0</pdop><geoidheight>50.80</geoidheight><course>124.47622</course><type>1</type></trkpt>
      <trkpt lat="39.40406101532261" lon="-5.820793156335367"><ele>2418</ele><speed>9.03</speed><time>2016-07-09T14:44:13Z</time><pdop>6.0</pdop><geoidheight>50.80</geoidheight><course>121.491615</course><type>1</type></trkpt>
      <trkpt lat="39.40398691710303" lon="-5.820604721478707"><ele>2420</ele><speed>9.32</speed><time>2016-07-09T14:44:15Z</time><pdop>6.0</pdop><geoidheight>50.80</geoidheight><course>118.12248</course><type>1</type></trkpt>
      <trkpt lat="39.403921673851194" lon="-5.820405825388469"><ele>2421</ele><speed>9.49</speed><time>2016-07-09T14:44:17Z</time><pdop>4.0</pdop><geoidheight>50.80</geoidheight><course>114.78764</course><type>1</type></trkpt>
      <trkpt lat="39.40388937560251" lon="-5.820304539672812"><ele>2422</ele><speed>9.44</speed><time>2016-07-09T14:44:18Z</time><pdop>4.0</pdop><geoidheight>50.80</geoidheight><course>114.16424</course><type>1</type></trkpt>
      <trkpt lat="39.40382286684921" lon="-5.820104979360617"><ele>2423</ele><speed>9.12</speed><time>2016-07-09T14:44:20Z</time><pdop>4.0</pdop><geoidheight>50.80</geoidheight><course>115.49091</course><type>1</type></trkpt>
      <trkpt lat="39.40378884952686" lon="-5.820014015378542"><ele>2424</ele><speed>8.53</speed><time>2016-07-09T14:44:21Z</time><pdop>4.0</pdop><geoidheight>50.80</geoidheight><course>116.415085</course><type>1</type></trkpt>
      <trkpt lat="39.403757067216155" lon="-5.8199303768248285"><ele>2424</ele><speed>7.60</speed><time>2016-07-09T14:44:22Z</time><pdop>4.0</pdop><geoidheight>50.80</geoidheight><course>116.99127</course><type>1</type></trkpt>
      <trkpt lat="39.40369502913493" lon="-5.819780763923418"><ele>2424</ele><speed>7.59</speed><time>2016-07-09T14:44:24Z</time><pdop>4.0</pdop><geoidheight>50.80</geoidheight><course>118.40581</course><type>1</type></trkpt>
      <trkpt lat="39.40365725658047" lon="-5.8196958322739585"><ele>2424</ele><speed>9.07</speed><time>2016-07-09T14:44:25Z</time><pdop>4.0</pdop><geoidheight>50.80</geoidheight><course>120.09425</course><type>1</type></trkpt>
      <trkpt lat="39.4036108464687" lon="-5.8196022827478595"><ele>2423</ele><speed>9.84</speed><time>2016-07-09T14:44:26Z</time><pdop>4.0</pdop><geoidheight>50.80</geoidheight><course>122.43187</course><type>1</type></trkpt>
      <trkpt lat="39.403558653731885" lon="-5.8195046763293306"><ele>2422</ele><speed>9.69</speed><time>2016-07-09T14:44:27Z</time><pdop>4.0</pdop><geoidheight>50.80</geoidheight><course>123.99284</course><type>1</type></trkpt>
      <trkpt lat="39.40350853620233" lon="-5.819411942271821"><ele>2421</ele><speed>9.06</speed><time>2016-07-09T14:44:28Z</time><pdop>4.0</pdop><geoidheight>50.80</geoidheight><course>123.48493</course><type>1</type></trkpt>
      <trkpt lat="39.403424706076294" lon="-5.819238489704238"><ele>2420</ele><speed>8.53</speed><time>2016-07-09T14:44:30Z</time><pdop>6.0</pdop><geoidheight>50.80</geoidheight><course>120.70285</course><type>1</type></trkpt>
      <trkpt lat="39.40334507437846" lon="-5.819061723499656"><ele>2419</ele><speed>8.85</speed><time>2016-07-09T14:44:32Z</time><pdop>6.0</pdop><geoidheight>50.80</geoidheight><course>119.43253</course><type>1</type></trkpt>
      <trkpt lat="39.40327259324704" lon="-5.818872673735741"><ele>2416</ele><speed>9.37</speed><time>2016-07-09T14:44:34Z</time><pdop>4.0</pdop><geoidheight>50.80</geoidheight><course>115.426575</course><type>1</type></trkpt>
      <trkpt lat="39.40324051191452" lon="-5.818780909732871"><ele>2415</ele><speed>9.02</speed><time>2016-07-09T14:44:35Z</time><pdop>4.0</pdop><geoidheight>50.80</geoidheight><course>114.72147</course><type>1</type></trkpt>
      <trkpt lat="39.40320863825886" lon="-5.818692809366617"><ele>2414</ele><speed>8.66</speed><time>2016-07-09T14:44:36Z</time><pdop>4.0</pdop><geoidheight>50.80</geoidheight><course>116.242424</course><type>1</type></trkpt>
      <trkpt lat="39.403170601044714" lon="-5.8186003501385795"><ele>2413</ele><speed>9.14</speed><time>2016-07-09T14:44:37Z</time><pdop>4.0</pdop><geoidheight>50.80</geoidheight><course>117.32913</course><type>1</type></trkpt>
      <trkpt lat="39.403133670036354" lon="-5.818511792066126"><ele>2412</ele><speed>8.64</speed><time>2016-07-09T14:44:38Z</time><pdop>4.0</pdop><geoidheight>50.80</geoidheight><course>116.96728</course><type>1</type></trkpt>
      <trkpt lat="39.40305827884875" lon="-5.818327941134827"><ele>2408</ele><speed>8.74</speed><time>2016-07-09T14:44:40Z</time><pdop>6.0</pdop><geoidheight>50.80</geoidheight><course>117.552155</course><type>1</type></trkpt>
      <trkpt lat="39.40297289712398" lon="-5.818146313328827"><ele>2404</ele><speed>9.32</speed><time>2016-07-09T14:44:42Z</time><pdop>6.0</pdop><geoidheight>50.80</geoidheight><course>122.498856</course><type>1</type></trkpt>
      <trkpt lat="39.402873229833936" lon="-5.81797237804739"><ele>2400</ele><speed>9.37</speed><time>2016-07-09T14:44:44Z</time><pdop>4.0</pdop><geoidheight>50.80</geoidheight><course>125.5012</course><type>1</type></trkpt>
      <trkpt lat="39.402821806805726" lon="-5.817886510964082"><ele>2397</ele><speed>9.41</speed><time>2016-07-09T14:44:45Z</time><pdop>4.0</pdop><geoidheight>50.80</geoidheight><course>125.85826</course><type>1</type></trkpt>
      <trkpt lat="39.40276944547094" lon="-5.817796792008904"><ele>2395</ele><speed>9.55</speed><time>2016-07-09T14:44:46Z</time><pdop>4.0</pdop><geoidheight>50.80</geoidheight><course>125.838585</course><type>1</type></trkpt>
      <trkpt lat="39.402718867970215" lon="-5.8177103808225645"><ele>2393</ele><speed>9.66</speed><time>2016-07-09T14:44:48Z</time><pdop>4.0</pdop><geoidheight>50.80</geoidheight><course>126.18684</course><type>1</type></trkpt>
      <trkpt lat="39.40266669300021" lon="-5.817625396089203"><ele>2391</ele><speed>9.84</speed><time>2016-07-09T14:44:49Z</time><pdop>4.0</pdop><geoidheight>50.80</geoidheight><course>127.088295</course><type>1</type></trkpt>
      <trkpt lat="39.40261581315626" lon="-5.817544026302748"><ele>2389</ele><speed>9.39</speed><time>2016-07-09T14:44:49Z</time><pdop>4.0</pdop><geoidheight>50.80</geoidheight><course>128.04068</course><type>1</type></trkpt>
      <trkpt lat="39.40256382046348" lon="-5.8174627018183545"><ele>2387</ele><speed>8.86</speed><time>2016-07-09T14:44:50Z</time><pdop>4.0</pdop><geoidheight>50.80</geoidheight><course>128.42624</course><type>1</type></trkpt>
      <trkpt lat="39.40251367500924" lon="-5.81738236739219"><ele>2385</ele><speed>8.70</speed><time>2016-07-09T14:44:51Z</time><pdop>4.0</pdop><geoidheight>50.80</geoidheight><course>127.70483</course><type>1</type></trkpt>
      <trkpt lat="39.402413486881926" lon="-5.817213683428162"><ele>2381</ele><speed>9.44</speed><time>2016-07-09T14:44:53Z</time><pdop>4.0</pdop><geoidheight>50.80</geoidheight><course>127.943474</course><type>1</type></trkpt>
      <trkpt lat="39.4023595052615" lon="-5.817131687291906"><ele>2379</ele><speed>9.58</speed><time>2016-07-09T14:44:54Z</time><pdop>4.0</pdop><geoidheight>50.80</geoidheight><course>129.60463</course><type>1</type></trkpt>
      <trkpt lat="39.40230230226217" lon="-5.817050966637754"><ele>2377</ele><speed>9.70</speed><time>2016-07-09T14:44:55Z</time><pdop>4.0</pdop><geoidheight>50.80</geoidheight><course>131.10773</course><type>1</type></trkpt>
      <trkpt lat="39.4022451199481" lon="-5.816969900794455"><ele>2375</ele><speed>9.35</speed><time>2016-07-09T14:44:56Z</time><pdop>4.0</pdop><geoidheight>50.80</geoidheight><course>131.50569</course><type>1</type></trkpt>
      <trkpt lat="39.40219250273363" lon="-5.816895752826331"><ele>2373</ele><speed>9.13</speed><time>2016-07-09T14:44:57Z</time><pdop>4.0</pdop><geoidheight>50.80</geoidheight><course>130.33253</course><type>1</type></trkpt>
      <trkpt lat="39.402139282269935" lon="-5.816819460561971"><ele>2371</ele><speed>9.74</speed><time>2016-07-09T14:44:58Z</time><pdop>4.0</pdop><geoidheight>50.80</geoidheight><course>130.6408</course><type>1</type></trkpt>
      <trkpt lat="39.402080907015076" lon="-5.816738076039665"><ele>2368</ele><speed>10.54</speed><time>2016-07-09T14:44:59Z</time><pdop>4.0</pdop><geoidheight>50.80</geoidheight><course>132.02623</course><type>1</type></trkpt>
      <trkpt lat="39.40201665629" lon="-5.81665619844393"><ele>2366</ele><speed>10.44</speed><time>2016-07-09T14:45:00Z</time><pdop>4.0</pdop><geoidheight>50.80</geoidheight><course>133.23068</course><type>1</type></trkpt>
      <trkpt lat="39.40195340238681" lon="-5.8165736908388075"><ele>2364</ele><speed>9.66</speed><time>2016-07-09T14:45:01Z</time><pdop>4.0</pdop><geoidheight>50.80</geoidheight><course>132.87291</course><type>1</type></trkpt>
      <trkpt lat="39.40189704584055" lon="-5.816495980052249"><ele>2362</ele><speed>8.72</speed><time>2016-07-09T14:45:02Z</time><pdop>4.0</pdop><geoidheight>50.80</geoidheight><course>132.0846</course><type>1</type></trkpt>
      <trkpt lat="39.40184668492604" lon="-5.816421653125541"><ele>2360</ele><speed>8.15</speed><time>2016-07-09T14:45:03Z</time><pdop>4.0</pdop><geoidheight>50.80</geoidheight><course>131.0676</course><type>1</type></trkpt>
      <trkpt lat="39.40179887746625" lon="-5.816347492201962"><ele>2359</ele><speed>8.58</speed><time>2016-07-09T14:45:04Z</time><pdop>4.0</pdop><geoidheight>50.80</geoidheight><course>129.95743</course><type>1</type></trkpt>
      <trkpt lat="39.401690220478265" lon="-5.816167208385238"><ele>2355</ele><speed>9.92</speed><time>2016-07-09T14:45:06Z</time><pdop>6.0</pdop><geoidheight>50.80</geoidheight><course>128.26309</course><type>1</type></trkpt>
      <trkpt lat="39.40159131442986" lon="-5.815980589526338"><ele>2352</ele><speed>9.19</speed><time>2016-07-09T14:45:08Z</time><pdop>6.0</pdop><geoidheight>50.80</geoidheight><course>125.34106</course><type>1</type></trkpt>
      <trkpt lat="39.40150210732089" lon="-5.815796951093501"><ele>2349</ele><speed>9.87</speed><time>2016-07-09T14:45:10Z</time><pdop>6.0</pdop><geoidheight>50.80</geoidheight><course>121.88967</course><type>1</type></trkpt>
      <trkpt lat="39.40141886037777" lon="-5.815582840063445"><ele>2346</ele><speed>11.00</speed><time>2016-07-09T14:45:12Z</time><pdop>6.0</pdop><geoidheight>50.80</geoidheight><course>116.13193</course><type>1</type></trkpt>
      <trkpt lat="39.40135559017738" lon="-5.815387178348252"><ele>2342</ele><speed>10.93</speed><time>2016-07-09T14:45:15Z</time><pdop>6.0</pdop><geoidheight>50.80</geoidheight><course>115.17055</course><type>1</type></trkpt>
      <trkpt lat="39.40128576319726" lon="-5.815214224762892"><ele>2339</ele><speed>8.57</speed><time>2016-07-09T14:45:16Z</time><pdop>6.0</pdop><geoidheight>50.80</geoidheight><course>118.51955</course><type>1</type></trkpt>
      <trkpt lat="39.40120074862723" lon="-5.815017505906079"><ele>2335</ele><speed>11.04</speed><time>2016-07-09T14:45:18Z</time><pdop>6.0</pdop><geoidheight>50.80</geoidheight><course>118.846375</course><type>1</type></trkpt>
      <trkpt lat="39.40109484813722" lon="-5.814778972032021"><ele>2330</ele><speed>13.44</speed><time>2016-07-09T14:45:20Z</time><pdop>6.0</pdop><geoidheight>50.80</geoidheight><course>120.875275</course><type>1</type></trkpt>
      <trkpt lat="39.4010335146428" lon="-5.814661505360424"><ele>2327</ele><speed>12.39</speed><time>2016-07-09T14:45:21Z</time><pdop>6.0</pdop><geoidheight>50.80</geoidheight><course>123.23969</course><type>1</type></trkpt>
      <trkpt lat="39.400910791012535" lon="-5.8144616683481045"><ele>2323</ele><speed>9.69</speed><time>2016-07-09T14:45:23Z</time><pdop>6.0</pdop><geoidheight>50.80</geoidheight><course>127.542366</course><type>1</type></trkpt>
      <trkpt lat="39.40078852461822" lon="-5.814260757030583"><ele>2320</ele><speed>11.18</speed><time>2016-07-09T14:45:25Z</time><pdop>8.0</pdop><geoidheight>50.80</geoidheight><course>127.852875</course><type>1</type></trkpt>
      <trkpt lat="39.40066118873406" lon="-5.814047998593795"><ele>2315</ele><speed>11.64</speed><time>2016-07-09T14:45:27Z</time><pdop>8.0</pdop><geoidheight>50.80</geoidheight><course>125.61514</course><type>1</type></trkpt>
      <trkpt lat="39.40055651734091" lon="-5.813849331474715"><ele>2310</ele><speed>10.65</speed><time>2016-07-09T14:45:29Z</time><pdop>8.0</pdop><geoidheight>50.80</geoidheight><course>121.44281</course><type>1</type></trkpt>
      <trkpt lat="39.40048181549881" lon="-5.813662456338597"><ele>2307</ele><speed>9.73</speed><time>2016-07-09T14:45:31Z</time><pdop>8.0</pdop><geoidheight>50.80</geoidheight><course>117.54788</course><type>1</type></trkpt>
      <trkpt lat="39.40041501680612" lon="-5.813494114470877"><ele>2304</ele><speed>9.69</speed><time>2016-07-09T14:45:34Z</time><pdop>6.0</pdop><geoidheight>50.80</geoidheight><course>118.48498</course><type>1</type></trkpt>
      <trkpt lat="39.40033044384781" lon="-5.813316959497522"><ele>2300</ele><speed>9.98</speed><time>2016-07-09T14:45:35Z</time><pdop>6.0</pdop><geoidheight>50.80</geoidheight><course>121.514366</course><type>1</type></trkpt>
      <trkpt lat="39.40022407683683" lon="-5.813111936364939"><ele>2295</ele><speed>10.46</speed><time>2016-07-09T14:45:37Z</time><pdop>6.0</pdop><geoidheight>50.80</geoidheight><course>122.891884</course><type>1</type></trkpt>
      <trkpt lat="39.40011487768816" lon="-5.812902913925173"><ele>2291</ele><speed>10.44</speed><time>2016-07-09T14:45:39Z</time><pdop>6.0</pdop><geoidheight>50.80</geoidheight><course>122.1131</course><type>1</type></trkpt>
      <trkpt lat="39.40002042387753" lon="-5.812730194071155"><ele>2288</ele><speed>9.38</speed><time>2016-07-09T14:45:41Z</time><pdop>6.0</pdop><geoidheight>50.80</geoidheight><course>123.944305</course><type>1</type></trkpt>
      <trkpt lat="39.39992848320129" lon="-5.8125679251679125"><ele>2285</ele><speed>9.34</speed><time>2016-07-09T14:45:43Z</time><pdop>6.0</pdop><geoidheight>50.80</geoidheight><course>125.51502</course><type>1</type></trkpt>
      <trkpt lat="39.39982498085669" lon="-5.8124030204231385"><ele>2281</ele><speed>11.53</speed><time>2016-07-09T14:45:45Z</time><pdop>6.0</pdop><geoidheight>50.80</geoidheight><course>127.603546</course><type>1</type></trkpt>
      <trkpt lat="39.3996938182811" lon="-5.81219835209113"><ele>2278</ele><speed>12.33</speed><time>2016-07-09T14:45:47Z</time><pdop>6.0</pdop><geoidheight>50.80</geoidheight><course>128.24457</course><type>1</type></trkpt>
      <trkpt lat="39.399627653338584" lon="-5.81208574493056"><ele>2277</ele><speed>11.33</speed><time>2016-07-09T14:45:48Z</time><pdop>6.0</pdop><geoidheight>50.80</geoidheight><course>127.13336</course><type>1</type></trkpt>
      <trkpt lat="39.39951449311585" lon="-5.811881290638749"><ele>2276</ele><speed>9.65</speed><time>2016-07-09T14:45:50Z</time><pdop>6.0</pdop><geoidheight>50.80</geoidheight><course>126.4432</course><type>1</type></trkpt>
      <trkpt lat="39.399401597040324" lon="-5.811670962927175"><ele>2276</ele><speed>10.57</speed><time>2016-07-09T14:45:52Z</time><pdop>6.0</pdop><geoidheight>50.80</geoidheight><course>126.14488</course><type>1</type></trkpt>
      <trkpt lat="39.399281187782016" lon="-5.811449880062247"><ele>2276</ele><speed>11.83</speed><time>2016-07-09T14:45:54Z</time><pdop>6.0</pdop><geoidheight>50.80</geoidheight><course>126.1896</course><type>1</type></trkpt>
      <trkpt lat="39.39916354916665" lon="-5.811248973755328"><ele>2275</ele><speed>11.33</speed><time>2016-07-09T14:45:56Z</time><pdop>6.0</pdop><geoidheight>50.80</geoidheight><course>126.64497</course><type>1</type></trkpt>
      <trkpt lat="39.39905531769276" lon="-5.811048252089209"><ele>2275</ele><speed>11.24</speed><time>2016-07-09T14:45:58Z</time><pdop>6.0</pdop><geoidheight>50.80</geoidheight><course>123.04456</course><type>1</type></trkpt>
      <trkpt lat="39.39893923752808" lon="-5.810836598907449"><ele>2274</ele><speed>12.80</speed><time>2016-07-09T14:46:00Z</time><pdop>6.0</pdop><geoidheight>50.80</geoidheight><course>126.02896</course><type>1</type></trkpt>
      <trkpt lat="39.39886840000065" lon="-5.810725538637861"><ele>2274</ele><speed>12.93</speed><time>2016-07-09T14:46:01Z</time><pdop>6.0</pdop><geoidheight>50.80</geoidheight><course>127.55558</course><type>1</type></trkpt>
      <trkpt lat="39.39874027635232" lon="-5.8105185113094535"><ele>2275</ele><speed>9.95</speed><time>2016-07-09T14:46:04Z</time><pdop>6.0</pdop><geoidheight>50.80</geoidheight><course>126.685295</course><type>1</type></trkpt>
      <trkpt lat="39.39864056452103" lon="-5.810352467448053"><ele>2277</ele><speed>8.51</speed><time>2016-07-09T14:46:05Z</time><pdop>6.0</pdop><geoidheight>50.80</geoidheight><course>127.59159</course><type>1</type></trkpt>
      <trkpt lat="39.39855419800423" lon="-5.810200249063129"><ele>2280</ele><speed>8.70</speed><time>2016-07-09T14:46:07Z</time><pdop>6.0</pdop><geoidheight>50.80</geoidheight><course>125.239525</course><type>1</type></trkpt>
      <trkpt lat="39.39847272603278" lon="-5.810009130749795"><ele>2282</ele><speed>9.51</speed><time>2016-07-09T14:46:09Z</time><pdop>4.0</pdop><geoidheight>50.80</geoidheight><course>119.26079</course><type>1</type></trkpt>
      <trkpt lat="39.39843642751251" lon="-5.809905068335633"><ele>2283</ele><speed>9.44</speed><time>2016-07-09T14:46:10Z</time><pdop>4.0</pdop><geoidheight>50.80</geoidheight><course>117.22919</course><type>1</type></trkpt>
      <trkpt lat="39.3984023656547" lon="-5.809805201144464"><ele>2284</ele><speed>8.12</speed><time>2016-07-09T14:46:11Z</time><pdop>4.0</pdop><geoidheight>50.80</geoidheight><course>116.65156</course><type>1</type></trkpt>
      <trkpt lat="39.39835008860598" lon="-5.80965027535606"><ele>2287</ele><speed>6.23</speed><time>2016-07-09T14:46:13Z</time><pdop>6.0</pdop><geoidheight>50.80</geoidheight><course>115.298355</course><type>1</type></trkpt>
      <trkpt lat="39.39833134271365" lon="-5.809485151009097"><ele>2292</ele><speed>6.60</speed><time>2016-07-09T14:46:15Z</time><pdop>6.0</pdop><geoidheight>50.80</geoidheight><course>98.63071</course><type>1</type></trkpt>
      <trkpt lat="39.39830940974301" lon="-5.8093273753154815"><ele>2296</ele><speed>6.42</speed><time>2016-07-09T14:46:17Z</time><pdop>4.0</pdop><geoidheight>50.80</geoidheight><course>103.359406</course><type>1</type></trkpt>
      <trkpt lat="39.39824676001537" lon="-5.80918988405571"><ele>2300</ele><speed>6.55</speed><time>2016-07-09T14:46:19Z</time><pdop>4.0</pdop><geoidheight>50.80</geoidheight><course>125.34624</course><type>1</type></trkpt>
      <trkpt lat="39.398128886146196" lon="-5.809120177544706"><ele>2303</ele><speed>8.31</speed><time>2016-07-09T14:46:21Z</time><pdop>4.0</pdop><geoidheight>50.80</geoidheight><course>166.37238</course><type>1</type></trkpt>
      <trkpt lat="39.39796042427364" lon="-5.809175085920305"><ele>2305</ele><speed>9.53</speed><time>2016-07-09T14:46:23Z</time><pdop>8.0</pdop><geoidheight>50.80</geoidheight><course>206.71724</course><type>1</type></trkpt>
      <trkpt lat="39.39784178700276" lon="-5.8093585929514795"><ele>2306</ele><speed>12.17</speed><time>2016-07-09T14:46:25Z</time><pdop>8.0</pdop><geoidheight>50.80</geoidheight><course>248.53812</course><type>1</type></trkpt>
      <trkpt lat="39.39778253609341" lon="-5.809617785778843"><ele>2305</ele><speed>11.17</speed><time>2016-07-09T14:46:27Z</time><pdop>8.0</pdop><geoidheight>50.80</geoidheight><course>253.88072</course><type>1</type></trkpt>
      <trkpt lat="39.39773972468064" lon="-5.809852791909329"><ele>2304</ele><speed>9.10</speed><time>2016-07-09T14:46:29Z</time><pdop>12.0</pdop><geoidheight>50.80</geoidheight><course>256.92227</course><type>1</type></trkpt>
      <trkpt lat="39.397746165819974" lon="-5.8100886561920895"><ele>2305</ele><speed>10.41</speed><time>2016-07-09T14:46:32Z</time><pdop>8.0</pdop><geoidheight>50.80</geoidheight><course>277.54037</course><type>1</type></trkpt>
      <trkpt lat="39.39780444491969" lon="-5.810338975073571"><ele>2306</ele><speed>10.81</speed><time>2016-07-09T14:46:34Z</time><pdop>8.0</pdop><geoidheight>50.80</geoidheight><course>291.46677</course><type>1</type></trkpt>
      <trkpt lat="39.39787825498688" lon="-5.810561682545324"><ele>2308</ele><speed>9.84</speed><time>2016-07-09T14:46:36Z</time><pdop>8.0</pdop><geoidheight>50.80</geoidheight><course>292.41498</course><type>1</type></trkpt>
      <trkpt lat="39.397988441783184" lon="-5.810750150993436"><ele>2311</ele><speed>10.53</speed><time>2016-07-09T14:46:37Z</time><pdop>8.0</pdop><geoidheight>50.80</geoidheight><course>309.21762</course><type>1</type></trkpt>
      <trkpt lat="39.39814094485436" lon="-5.810900649713147"><ele>2314</ele><speed>10.61</speed><time>2016-07-09T14:46:39Z</time><pdop>8.0</pdop><geoidheight>50.80</geoidheight><course>328.20242</course><type>1</type></trkpt>
      <trkpt lat="39.39828091212116" lon="-5.810974082771778"><ele>2318</ele><speed>9.00</speed><time>2016-07-09T14:46:41Z</time><pdop>8.0</pdop><geoidheight>50.80</geoidheight><course>345.62628</course><type>1</type></trkpt>
      <trkpt lat="39.398481511949164" lon="-5.810975750335861"><ele>2324</ele><speed>8.15</speed><time>2016-07-09T14:46:44Z</time><pdop>8.0</pdop><geoidheight>50.80</geoidheight><course>9.840387</course><type>1</type></trkpt>
      <trkpt lat="39.398637158864794" lon="-5.810898161273098"><ele>2327</ele><speed>8.63</speed><time>2016-07-09T14:46:46Z</time><pdop>8.0</pdop><geoidheight>50.80</geoidheight><course>28.739542</course><type>1</type></trkpt>
      <trkpt lat="39.398749602835856" lon="-5.810772429660579"><ele>2329</ele><speed>8.39</speed><time>2016-07-09T14:46:48Z</time><pdop>6.0</pdop><geoidheight>50.80</geoidheight><course>61.897945</course><type>1</type></trkpt>
      <trkpt lat="39.398784470950176" lon="-5.810595076048688"><ele>2332</ele><speed>8.54</speed><time>2016-07-09T14:46:51Z</time><pdop>6.0</pdop><geoidheight>50.80</geoidheight><course>93.55274</course><type>1</type></trkpt>
      <trkpt lat="39.39876295773625" lon="-5.810415806920936"><ele>2335</ele><speed>7.40</speed><time>2016-07-09T14:46:52Z</time><pdop>6.0</pdop><geoidheight>50.80</geoidheight><course>110.15254</course><type>1</type></trkpt>
      <trkpt lat="39.398681073473334" lon="-5.810277204482608"><ele>2338</ele><speed>7.76</speed><time>2016-07-09T14:46:54Z</time><pdop>6.0</pdop><geoidheight>50.80</geoidheight><course>139.76192</course><type>1</type></trkpt>
      <trkpt lat="39.39856561870095" lon="-5.810179658020349"><ele>2342</ele><speed>6.65</speed><time>2016-07-09T14:46:56Z</time><pdop>6.0</pdop><geoidheight>50.80</geoidheight><course>154.64075</course><type>1</type></trkpt>
      <trkpt lat="39.39847875141252" lon="-5.810057325199333"><ele>2346</ele><speed>6.05</speed><time>2016-07-09T14:46:58Z</time><pdop>6.0</pdop><geoidheight>50.80</geoidheight><course>122.488846</course><type>1</type></trkpt>
      <trkpt lat="39.39843822963455" lon="-5.809913540210427"><ele>2348</ele><speed>6.88</speed><time>2016-07-09T14:47:01Z</time><pdop>6.0</pdop><geoidheight>50.80</geoidheight><course>106.663315</course><type>1</type></trkpt>
      <trkpt lat="39.39842523998423" lon="-5.8096600606082704"><ele>2352</ele><speed>7.67</speed><time>2016-07-09T14:47:04Z</time><pdop>8.0</pdop><geoidheight>50.80</geoidheight><course>90.985466</course><type>1</type></trkpt>
      <trkpt lat="39.398434676772446" lon="-5.809399896755671"><ele>2353</ele><speed>8.30</speed><time>2016-07-09T14:47:07Z</time><pdop>6.0</pdop><geoidheight>50.80</geoidheight><course>85.24898</course><type>1</type></trkpt>
      <trkpt lat="39.39845846890233" lon="-5.809191692083446"><ele>2355</ele><speed>9.79</speed><time>2016-07-09T14:47:08Z</time><pdop>8.0</pdop><geoidheight>50.80</geoidheight><course>82.695656</course><type>1</type></trkpt>
      <trkpt lat="39.398476669446076" lon="-5.808964781861086"><ele>2357</ele><speed>9.85</speed><time>2016-07-09T14:47:10Z</time><pdop>8.0</pdop><geoidheight>50.80</geoidheight><course>86.80696</course><type>1</type></trkpt>
      <trkpt lat="39.39847161890502" lon="-5.808755583542028"><ele>2359</ele><speed>8.65</speed><time>2016-07-09T14:47:12Z</time><pdop>8.0</pdop><geoidheight>50.80</geoidheight><course>93.838615</course><type>1</type></trkpt>
      <trkpt lat="39.39843778572671" lon="-5.808531045052431"><ele>2360</ele><speed>10.59</speed><time>2016-07-09T14:47:14Z</time><pdop>8.0</pdop><geoidheight>50.80</geoidheight><course>100.4412</course><type>1</type></trkpt>
      <trkpt lat="39.39838649566059" lon="-5.808323361656662"><ele>2362</ele><speed>9.25</speed><time>2016-07-09T14:47:16Z</time><pdop>8.0</pdop><geoidheight>50.80</geoidheight><course>106.18068</course><type>1</type></trkpt>
      <trkpt lat="39.39831965399221" lon="-5.808112379973022"><ele>2365</ele><speed>8.82</speed><time>2016-07-09T14:47:18Z</time><pdop>6.0</pdop><geoidheight>50.80</geoidheight><course>110.50942</course><type>1</type></trkpt>
      <trkpt lat="39.3982686755228" lon="-5.807909179404225"><ele>2367</ele><speed>9.13</speed><time>2016-07-09T14:47:21Z</time><pdop>6.0</pdop><geoidheight>50.80</geoidheight><course>105.008095</course><type>1</type></trkpt>
      <trkpt lat="39.39823570429668" lon="-5.807704104900527"><ele>2369</ele><speed>8.78</speed><time>2016-07-09T14:47:23Z</time><pdop>6.0</pdop><geoidheight>50.80</geoidheight><course>103.90149</course><type>1</type></trkpt>
      <trkpt lat="39.398163915477305" lon="-5.807501402555167"><ele>2371</ele><speed>9.34</speed><time>2016-07-09T14:47:24Z</time><pdop>6.0</pdop><geoidheight>50.80</geoidheight><course>125.93522</course><type>1</type></trkpt>
      <trkpt lat="39.39805817025051" lon="-5.807313036576698"><ele>2372</ele><speed>9.89</speed><time>2016-07-09T14:47:26Z</time><pdop>6.0</pdop><geoidheight>50.80</geoidheight><course>127.73526</course><type>1</type></trkpt>
      <trkpt lat="39.397948792238026" lon="-5.80711342444277"><ele>2372</ele><speed>10.81</speed><time>2016-07-09T14:47:28Z</time><pdop>8.0</pdop><geoidheight>50.80</geoidheight><course>124.50201</course><type>1</type></trkpt>
      <trkpt lat="39.39785470422697" lon="-5.80690357148451"><ele>2372</ele><speed>10.40</speed><time>2016-07-09T14:47:30Z</time><pdop>6.0</pdop><geoidheight>50.80</geoidheight><course>120.880554</course><type>1</type></trkpt>
      <trkpt lat="39.39776038026677" lon="-5.806677135031066"><ele>2373</ele><speed>10.27</speed><time>2016-07-09T14:47:32Z</time><pdop>6.0</pdop><geoidheight>50.80</geoidheight><course>120.723274</course><type>1</type></trkpt>
      <trkpt lat="39.39764603225504" lon="-5.806431451281748"><ele>2373</ele><speed>12.28</speed><time>2016-07-09T14:47:34Z</time><pdop>8.0</pdop><geoidheight>50.80</geoidheight><course>122.790665</course><type>1</type></trkpt>
      <trkpt lat="39.39753310985843" lon="-5.806211420748532"><ele>2375</ele><speed>9.76</speed><time>2016-07-09T14:47:36Z</time><pdop>8.0</pdop><geoidheight>50.80</geoidheight><course>125.208046</course><type>1</type></trkpt>
      <trkpt lat="39.39744181667517" lon="-5.806048021388682"><ele>2377</ele><speed>9.37</speed><time>2016-07-09T14:47:39Z</time><pdop>8.0</pdop><geoidheight>50.80</geoidheight><course>124.8597</course><type>1</type></trkpt>
      <trkpt lat="39.39733467072597" lon="-5.805833964436356"><ele>2378</ele><speed>12.67</speed><time>2016-07-09T14:47:40Z</time><pdop>8.0</pdop><geoidheight>50.80</geoidheight><course>122.34928</course><type>1</type></trkpt>
      <trkpt lat="39.39721179194424" lon="-5.805581620062099"><ele>2378</ele><speed>11.32</speed><time>2016-07-09T14:47:42Z</time><pdop>8.0</pdop><geoidheight>50.80</geoidheight><course>124.28872</course><type>1</type></trkpt>
      <trkpt lat="39.397105700581655" lon="-5.805382428795582"><ele>2380</ele><speed>9.44</speed><time>2016-07-09T14:47:44Z</time><pdop>8.0</pdop><geoidheight>50.80</geoidheight><course>126.20374</course><type>1</type></trkpt>
      <trkpt lat="39.39700336759309" lon="-5.805179908656967"><ele>2382</ele><speed>10.65</speed><time>2016-07-09T14:47:46Z</time><pdop>8.0</pdop><geoidheight>50.80</geoidheight><course>123.35594</course><type>1</type></trkpt>
      <trkpt lat="39.39690590511617" lon="-5.804961332216395"><ele>2384</ele><speed>10.87</speed><time>2016-07-09T14:47:48Z</time><pdop>6.0</pdop><geoidheight>50.80</geoidheight><course>122.756004</course><type>1</type></trkpt>
      <trkpt lat="39.39679074779919" lon="-5.804736997442909"><ele>2387</ele><speed>11.15</speed><time>2016-07-09T14:47:50Z</time><pdop>6.0</pdop><geoidheight>50.80</geoidheight><course>126.14755</course><type>1</type></trkpt>
      <trkpt lat="39.39666709532043" lon="-5.804521077177921"><ele>2389</ele><speed>11.01</speed><time>2016-07-09T14:47:52Z</time><pdop>6.0</pdop><geoidheight>50.80</geoidheight><course>126.52453</course><type>1</type></trkpt>
      <trkpt lat="39.39655387137021" lon="-5.804306221753164"><ele>2393</ele><speed>10.94</speed><time>2016-07-09T14:47:54Z</time><pdop>6.0</pdop><geoidheight>50.80</geoidheight><course>124.64501</course><type>1</type></trkpt>
      <trkpt lat="39.396441305789786" lon="-5.804088712898431"><ele>2397</ele><speed>10.52</speed><time>2016-07-09T14:47:56Z</time><pdop>6.0</pdop><geoidheight>50.80</geoidheight><course>124.90586</course><type>1</type></trkpt>
      <trkpt lat="39.396359298469854" lon="-5.803933471807419"><ele>2401</ele><speed>8.05</speed><time>2016-07-09T14:47:58Z</time><pdop>6.0</pdop><geoidheight>50.80</geoidheight><course>125.18778</course><type>1</type></trkpt>
      <trkpt lat="39.396272893386936" lon="-5.8037873698515465"><ele>2405</ele><speed>10.39</speed><time>2016-07-09T14:48:00Z</time><pdop>4.0</pdop><geoidheight>50.80</geoidheight><course>125.41805</course><type>1</type></trkpt>
      <trkpt lat="39.39621882030571" lon="-5.8036890032553226"><ele>2406</ele><speed>11.83</speed><time>2016-07-09T14:48:01Z</time><pdop>4.0</pdop><geoidheight>50.80</geoidheight><course>124.681175</course><type>1</type></trkpt>
      <trkpt lat="39.396147512137404" lon="-5.803560655773832"><ele>2407</ele><speed>12.36</speed><time>2016-07-09T14:48:02Z</time><pdop>6.0</pdop><geoidheight>50.80</geoidheight><course>125.74361</course><type>1</type></trkpt>
      <trkpt lat="39.39607522117181" lon="-5.803440243541215"><ele>2409</ele><speed>11.31</speed><time>2016-07-09T14:48:03Z</time><pdop>6.0</pdop><geoidheight>50.80</geoidheight><course>128.87424</course><type>1</type></trkpt>
      <trkpt lat="39.39592083033731" lon="-5.8032675739867186"><ele>2414</ele><speed>9.84</speed><time>2016-07-09T14:48:05Z</time><pdop>6.0</pdop><geoidheight>50.80</geoidheight><course>142.79883</course><type>1</type></trkpt>
      <trkpt lat="39.395761831846094" lon="-5.803123036849381"><ele>2421</ele><speed>10.97</speed><time>2016-07-09T14:48:07Z</time><pdop>6.0</pdop><geoidheight>50.80</geoidheight><course>145.51974</course><type>1</type></trkpt>
      <trkpt lat="39.39558825463616" lon="-5.802998491748357"><ele>2426</ele><speed>10.75</speed><time>2016-07-09T14:48:09Z</time><pdop>6.0</pdop><geoidheight>50.80</geoidheight><course>149.74171</course><type>1</type></trkpt>
      <trkpt lat="39.395391772660965" lon="-5.802929799408764"><ele>2431</ele><speed>11.25</speed><time>2016-07-09T14:48:11Z</time><pdop>6.0</pdop><geoidheight>50.80</geoidheight><course>169.32738</course><type>1</type></trkpt>
      <trkpt lat="39.39519424793442" lon="-5.802934259667545"><ele>2437</ele><speed>11.40</speed><time>2016-07-09T14:48:14Z</time><pdop>4.0</pdop><geoidheight>50.80</geoidheight><course>188.01167</course><type>1</type></trkpt>
      <trkpt lat="39.39509909185424" lon="-5.802961874038581"><ele>2439</ele><speed>11.51</speed><time>2016-07-09T14:48:14Z</time><pdop>6.0</pdop><geoidheight>50.80</geoidheight><course>191.3585</course><type>1</type></trkpt>
      <trkpt lat="39.39490036063493" lon="-5.803124959158829"><ele>2442</ele><speed>13.80</speed><time>2016-07-09T14:48:16Z</time><pdop>8.0</pdop><geoidheight>50.80</geoidheight><course>214.3167</course><type>1</type></trkpt>
      <trkpt lat="39.394790877620444" lon="-5.803353565957465"><ele>2445</ele><speed>12.19</speed><time>2016-07-09T14:48:18Z</time><pdop>8.0</pdop><geoidheight>50.80</geoidheight><course>250.55362</course><type>1</type></trkpt>
      <trkpt lat="39.39483924576588" lon="-5.803588767855186"><ele>2448</ele><speed>10.10</speed><time>2016-07-09T14:48:21Z</time><pdop>12.0</pdop><geoidheight>50.80</geoidheight><course>292.11435</course><type>1</type></trkpt>
      <trkpt lat="39.39504595362539" lon="-5.8036973861487935"><ele>2454</ele><speed>6.36</speed><time>2016-07-09T14:48:24Z</time><pdop>12.0</pdop><geoidheight>50.80</geoidheight><course>27.879814</course><type>1</type></trkpt>
      <trkpt lat="39.39519704226251" lon="-5.8035421613367975"><ele>2460</ele><speed>4.94</speed><time>2016-07-09T14:48:28Z</time><pdop>8.0</pdop><geoidheight>50.80</geoidheight><course>47.443165</course><type>1</type></trkpt>
      <trkpt lat="39.39530652088911" lon="-5.803371008560247"><ele>2470</ele><speed>5.32</speed><time>2016-07-09T14:48:31Z</time><pdop>8.0</pdop><geoidheight>50.80</geoidheight><course>70.643974</course><type>1</type></trkpt>
      <trkpt lat="39.395321915253355" lon="-5.803116801483352"><ele>2477</ele><speed>10.51</speed><time>2016-07-09T14:48:34Z</time><pdop>8.0</pdop><geoidheight>50.80</geoidheight><course>105.995514</course><type>1</type></trkpt>
      <trkpt lat="39.39528884998534" lon="-5.802899796353315"><ele>2483</ele><speed>11.70</speed><time>2016-07-09T14:48:35Z</time><pdop>8.0</pdop><geoidheight>50.80</geoidheight><course>101.42359</course><type>1</type></trkpt>
      <trkpt lat="39.395063437065915" lon="-5.802902101889721"><ele>2487</ele><speed>13.77</speed><time>2016-07-09T14:48:38Z</time><pdop>8.0</pdop><geoidheight>50.80</geoidheight><course>204.3673</course><type>1</type></trkpt>
      <trkpt lat="39.3948705660397" lon="-5.8031115142180685"><ele>2491</ele><speed>12.26</speed><time>2016-07-09T14:48:39Z</time><pdop>12.0</pdop><geoidheight>50.80</geoidheight><course>221.64307</course><type>1</type></trkpt>
      <trkpt lat="39.394725481586406" lon="-5.80335022439044"><ele>2495</ele><speed>10.25</speed><time>2016-07-09T14:48:41Z</time><pdop>8.0</pdop><geoidheight>50.80</geoidheight><course>240.05519</course><type>1</type></trkpt>
      <trkpt lat="39.394624310391926" lon="-5.803621840576901"><ele>2498</ele><speed>12.89</speed><time>2016-07-09T14:48:43Z</time><pdop>12.0</pdop><geoidheight>50.80</geoidheight><course>244.83043</course><type>1</type></trkpt>
      <trkpt lat="39.394601380564765" lon="-5.803909249994685"><ele>2502</ele><speed>11.29</speed><time>2016-07-09T14:48:46Z</time><pdop>8.0</pdop><geoidheight>50.80</geoidheight><course>268.31635</course><type>1</type></trkpt>
      <trkpt lat="39.39465236987065" lon="-5.804152168838064"><ele>2507</ele><speed>9.70</speed><time>2016-07-09T14:48:48Z</time><pdop>8.0</pdop><geoidheight>50.80</geoidheight><course>289.2319</course><type>1</type></trkpt>
      <trkpt lat="39.39474629991064" lon="-5.804324810800287"><ele>2514</ele><speed>8.79</speed><time>2016-07-09T14:48:49Z</time><pdop>6.0</pdop><geoidheight>50.80</geoidheight><course>311.0428</course><type>1</type></trkpt>
      <trkpt lat="39.39485809539603" lon="-5.804434575660798"><ele>2520</ele><speed>7.23</speed><time>2016-07-09T14:48:51Z</time><pdop>8.0</pdop><geoidheight>50.80</geoidheight><course>330.65097</course><type>1</type></trkpt>
      <trkpt lat="39.395068858432126" lon="-5.804479145659526"><ele>2530</ele><speed>6.80</speed><time>2016-07-09T14:48:54Z</time><pdop>8.0</pdop><geoidheight>50.80</geoidheight><course>10.221616</course><type>1</type></trkpt>
      <trkpt lat="39.39520875000663" lon="-5.804344557190672"><ele>2539</ele><speed>6.81</speed><time>2016-07-09T14:48:57Z</time><pdop>8.0</pdop><geoidheight>50.80</geoidheight><course>66.39589</course><type>1</type></trkpt>
      <trkpt lat="39.39522116698535" lon="-5.80411800901255"><ele>2545</ele><speed>7.29</speed><time>2016-07-09T14:49:00Z</time><pdop>8.0</pdop><geoidheight>50.80</geoidheight><course>100.65397</course><type>1</type></trkpt>
      <trkpt lat="39.39507756226736" lon="-5.803932378411222"><ele>2553</ele><speed>10.81</speed><time>2016-07-09T14:49:03Z</time><pdop>12.0</pdop><geoidheight>50.80</geoidheight><course>154.40952</course><type>1</type></trkpt>
      <trkpt lat="39.3947680140785" lon="-5.803910074524377"><ele>2563</ele><speed>11.83</speed><time>2016-07-09T14:49:07Z</time><pdop>12.0</pdop><geoidheight>50.80</geoidheight><course>201.49748</course><type>1</type></trkpt>
      <trkpt lat="39.394574565826794" lon="-5.804065806275816"><ele>2570</ele><speed>13.27</speed><time>2016-07-09T14:49:09Z</time><pdop>8.0</pdop><geoidheight>50.80</geoidheight><course>221.88435</course><type>1</type></trkpt>
      <trkpt lat="39.394459488506676" lon="-5.804300656040253"><ele>2575</ele><speed>13.85</speed><time>2016-07-09T14:49:10Z</time><pdop>8.0</pdop><geoidheight>50.80</geoidheight><course>253.65257</course><type>1</type></trkpt>
      <trkpt lat="39.394476702219535" lon="-5.804547631613942"><ele>2581</ele><speed>10.76</speed><time>2016-07-09T14:49:13Z</time><pdop>8.0</pdop><geoidheight>50.80</geoidheight><course>289.5458</course><type>1</type></trkpt>
      <trkpt lat="39.39455888942222" lon="-5.804735674822245"><ele>2587</ele><speed>8.54</speed><time>2016-07-09T14:49:14Z</time><pdop>8.0</pdop><geoidheight>50.80</geoidheight><course>320.99557</course><type>1</type></trkpt>
      <trkpt lat="39.3947126570999" lon="-5.804824201837953"><ele>2591</ele><speed>7.79</speed><time>2016-07-09T14:49:16Z</time><pdop>8.0</pdop><geoidheight>50.80</geoidheight><course>349.93765</course><type>1</type></trkpt>
      <trkpt lat="39.394866441953646" lon="-5.8047338081668025"><ele>2598</ele><speed>7.57</speed><time>2016-07-09T14:49:19Z</time><pdop>8.0</pdop><geoidheight>50.80</geoidheight><course>54.230587</course><type>1</type></trkpt>
      <trkpt lat="39.394890798864964" lon="-5.804546655927146"><ele>2603</ele><speed>7.55</speed><time>2016-07-09T14:49:21Z</time><pdop>8.0</pdop><geoidheight>50.80</geoidheight><course>97.060745</course><type>1</type></trkpt>
      <trkpt lat="39.39482735484635" lon="-5.804305128030326"><ele>2612</ele><speed>9.23</speed><time>2016-07-09T14:49:24Z</time><pdop>8.0</pdop><geoidheight>50.80</geoidheight><course>133.18546</course><type>1</type></trkpt>
      <trkpt lat="39.394658657075915" lon="-5.804162284680515"><ele>2617</ele><speed>12.19</speed><time>2016-07-09T14:49:26Z</time><pdop>8.0</pdop><geoidheight>50.80</geoidheight><course>156.5941</course><type>1</type></trkpt>
      <trkpt lat="39.39443829423232" lon="-5.804176187167504"><ele>2620</ele><speed>11.40</speed><time>2016-07-09T14:49:29Z</time><pdop>8.0</pdop><geoidheight>50.80</geoidheight><course>198.84566</course><type>1</type></trkpt>
      <trkpt lat="39.39426795746358" lon="-5.804290393891692"><ele>2624</ele><speed>11.13</speed><time>2016-07-09T14:49:30Z</time><pdop>8.0</pdop><geoidheight>50.80</geoidheight><course>220.976</course><type>1</type></trkpt>
      <trkpt lat="39.39411691240899" lon="-5.804450184280035"><ele>2628</ele><speed>13.49</speed><time>2016-07-09T14:49:32Z</time><pdop>8.0</pdop><geoidheight>50.80</geoidheight><course>224.52928</course><type>1</type></trkpt>
      <trkpt lat="39.394034746783376" lon="-5.8047193351269675"><ele>2633</ele><speed>14.10</speed><time>2016-07-09T14:49:34Z</time><pdop>8.0</pdop><geoidheight>50.80</geoidheight><course>258.39508</course><type>1</type></trkpt>
      <trkpt lat="39.39403453121417" lon="-5.804983522122156"><ele>2639</ele><speed>11.56</speed><time>2016-07-09T14:49:36Z</time><pdop>8.0</pdop><geoidheight>50.80</geoidheight><course>272.8166</course><type>1</type></trkpt>
      <trkpt lat="39.39416720706946" lon="-5.805189674081711"><ele>2648</ele><speed>8.47</speed><time>2016-07-09T14:49:40Z</time><pdop>12.0</pdop><geoidheight>50.80</geoidheight><course>346.1806</course><type>1</type></trkpt>
      <trkpt lat="39.39437370984436" lon="-5.805076549989454"><ele>2658</ele><speed>6.77</speed><time>2016-07-09T14:49:43Z</time><pdop>8.0</pdop><geoidheight>50.80</geoidheight><course>55.894295</course><type>1</type></trkpt>
      <trkpt lat="39.394423162780875" lon="-5.804820419521135"><ele>2667</ele><speed>9.09</speed><time>2016-07-09T14:49:46Z</time><pdop>8.0</pdop><geoidheight>50.80</geoidheight><course>111.15476</course><type>1</type></trkpt>
      <trkpt lat="39.39433018053108" lon="-5.804649492052132"><ele>2673</ele><speed>11.11</speed><time>2016-07-09T14:49:48Z</time><pdop>8.0</pdop><geoidheight>50.80</geoidheight><course>131.88774</course><type>1</type></trkpt>
      <trkpt lat="39.394187297052774" lon="-5.804505630527206"><ele>2678</ele><speed>10.43</speed><time>2016-07-09T14:49:50Z</time><pdop>8.0</pdop><geoidheight>50.80</geoidheight><course>146.37407</course><type>1</type></trkpt>
      <trkpt lat="39.394022844445914" lon="-5.804359190675186"><ele>2684</ele><speed>10.58</speed><time>2016-07-09T14:49:52Z</time><pdop>8.0</pdop><geoidheight>50.80</geoidheight><course>150.21156</course><type>1</type></trkpt>
      <trkpt lat="39.3938390537875" lon="-5.804250181330255"><ele>2690</ele><speed>10.79</speed><time>2016-07-09T14:49:54Z</time><pdop>8.0</pdop><geoidheight>50.80</geoidheight><course>156.79688</course><type>1</type></trkpt>
      <trkpt lat="39.393651307790044" lon="-5.804185506834282"><ele>2696</ele><speed>10.43</speed><time>2016-07-09T14:49:56Z</time><pdop>6.0</pdop><geoidheight>50.80</geoidheight><course>164.20984</course><type>1</type></trkpt>
      <trkpt lat="39.393459131583825" lon="-5.804148806423929"><ele>2702</ele><speed>11.48</speed><time>2016-07-09T14:49:59Z</time><pdop>6.0</pdop><geoidheight>50.80</geoidheight><course>170.81021</course><type>1</type></trkpt>
      <trkpt lat="39.3932537367428" lon="-5.804146182267697"><ele>2707</ele><speed>10.54</speed><time>2016-07-09T14:50:00Z</time><pdop>6.0</pdop><geoidheight>50.80</geoidheight><course>178.13895</course><type>1</type></trkpt>
      <trkpt lat="39.393060224700605" lon="-5.80416488013094"><ele>2714</ele><speed>9.82</speed><time>2016-07-09T14:50:02Z</time><pdop>6.0</pdop><geoidheight>50.80</geoidheight><course>180.61848</course><type>1</type></trkpt>
      <trkpt lat="39.39287159570246" lon="-5.804166803189263"><ele>2718</ele><speed>10.35</speed><time>2016-07-09T14:50:04Z</time><pdop>6.0</pdop><geoidheight>50.80</geoidheight><course>176.6756</course><type>1</type></trkpt>
      <trkpt lat="39.392700179723576" lon="-5.80415438604322"><ele>2722</ele><speed>8.78</speed><time>2016-07-09T14:50:06Z</time><pdop>8.0</pdop><geoidheight>50.80</geoidheight><course>173.55017</course><type>1</type></trkpt>
      <trkpt lat="39.392548102948204" lon="-5.804139298876898"><ele>2728</ele><speed>7.98</speed><time>2016-07-09T14:50:08Z</time><pdop>6.0</pdop><geoidheight>50.80</geoidheight><course>175.94835</course><type>1</type></trkpt>
      <trkpt lat="39.3923864829837" lon="-5.8041343018100875"><ele>2734</ele><speed>9.93</speed><time>2016-07-09T14:50:10Z</time><pdop>6.0</pdop><geoidheight>50.80</geoidheight><course>181.24113</course><type>1</type></trkpt>
      <trkpt lat="39.39221032025572" lon="-5.804153127499646"><ele>2738</ele><speed>9.50</speed><time>2016-07-09T14:50:12Z</time><pdop>6.0</pdop><geoidheight>50.80</geoidheight><course>186.8151</course><type>1</type></trkpt>
      <trkpt lat="39.39206337102576" lon="-5.804186183221485"><ele>2743</ele><speed>8.65</speed><time>2016-07-09T14:50:14Z</time><pdop>6.0</pdop><geoidheight>50.80</geoidheight><course>189.82002</course><type>1</type></trkpt>
      <trkpt lat="39.39186116353238" lon="-5.804219992447226"><ele>2746</ele><speed>12.72</speed><time>2016-07-09T14:50:16Z</time><pdop>6.0</pdop><geoidheight>50.80</geoidheight><course>185.85104</course><type>1</type></trkpt>
      <trkpt lat="39.391750921657966" lon="-5.80422998580862"><ele>2747</ele><speed>13.42</speed><time>2016-07-09T14:50:17Z</time><pdop>6.0</pdop><geoidheight>50.80</geoidheight><course>184.19888</course><type>1</type></trkpt>
      <trkpt lat="39.39163825687542" lon="-5.804241622432556"><ele>2748</ele><speed>12.69</speed><time>2016-07-09T14:50:18Z</time><pdop>6.0</pdop><geoidheight>50.80</geoidheight><course>183.27109</course><type>1</type></trkpt>
      <trkpt lat="39.39153001033835" lon="-5.8042533679255435"><ele>2748</ele><speed>12.08</speed><time>2016-07-09T14:50:19Z</time><pdop>6.0</pdop><geoidheight>50.80</geoidheight><course>183.92795</course><type>1</type></trkpt>
      <trkpt lat="39.391420859624915" lon="-5.804264703755705"><ele>2748</ele><speed>12.10</speed><time>2016-07-09T14:50:20Z</time><pdop>6.0</pdop><geoidheight>50.80</geoidheight><course>184.32848</course><type>1</type></trkpt>
      <trkpt lat="39.39130817601028" lon="-5.8042754449906475"><ele>2747</ele><speed>12.85</speed><time>2016-07-09T14:50:21Z</time><pdop>6.0</pdop><geoidheight>50.80</geoidheight><course>183.88472</course><type>1</type></trkpt>
      <trkpt lat="39.391184811873956" lon="-5.80428462569731"><ele>2746</ele><speed>13.77</speed><time>2016-07-09T14:50:22Z</time><pdop>6.0</pdop><geoidheight>50.80</geoidheight><course>183.17885</course><type>1</type></trkpt>
      <trkpt lat="39.391057584810916" lon="-5.804294017070326"><ele>2745</ele><speed>14.01</speed><time>2016-07-09T14:50:23Z</time><pdop>6.0</pdop><geoidheight>50.80</geoidheight><course>182.81787</course><type>1</type></trkpt>
      <trkpt lat="39.39081352587083" lon="-5.804305341254023"><ele>2744</ele><speed>13.46</speed><time>2016-07-09T14:50:25Z</time><pdop>8.0</pdop><geoidheight>50.80</geoidheight><course>181.96817</course><type>1</type></trkpt>
      <trkpt lat="39.390568757158974" lon="-5.804309913235406"><ele>2744</ele><speed>12.95</speed><time>2016-07-09T14:50:27Z</time><pdop>6.0</pdop><geoidheight>50.80</geoidheight><course>181.4783</course><type>1</type></trkpt>
      <trkpt lat="39.39045424885484" lon="-5.804310209096032"><ele>2745</ele><speed>11.42</speed><time>2016-07-09T14:50:28Z</time><pdop>6.0</pdop><geoidheight>50.80</geoidheight><course>182.30003</course><type>1</type></trkpt>
      <trkpt lat="39.39026933292813" lon="-5.804314037991323"><ele>2746</ele><speed>8.92</speed><time>2016-07-09T14:50:30Z</time><pdop>6.0</pdop><geoidheight>50.80</geoidheight><course>181.50047</course><type>1</type></trkpt>
      <trkpt lat="39.39010545967625" lon="-5.804311856254309"><ele>2748</ele><speed>9.89</speed><time>2016-07-09T14:50:33Z</time><pdop>6.0</pdop><geoidheight>50.80</geoidheight><course>181.69754</course><type>1</type></trkpt>
      <trkpt lat="39.38991358064029" lon="-5.804320777607638"><ele>2749</ele><speed>10.74</speed><time>2016-07-09T14:50:34Z</time><pdop>6.0</pdop><geoidheight>50.80</geoidheight><course>182.33339</course><type>1</type></trkpt>
      <trkpt lat="39.38972434532043" lon="-5.804326813699152"><ele>2751</ele><speed>9.91</speed><time>2016-07-09T14:50:36Z</time><pdop>6.0</pdop><geoidheight>50.80</geoidheight><course>181.88045</course><type>1</type></trkpt>
      <trkpt lat="39.38954721311503" lon="-5.804326705634809"><ele>2753</ele><speed>9.40</speed><time>2016-07-09T14:50:38Z</time><pdop>4.0</pdop><geoidheight>50.80</geoidheight><course>181.26064</course><type>1</type></trkpt>
      <trkpt lat="39.38945933702303" lon="-5.804321095459799"><ele>2754</ele><speed>9.81</speed><time>2016-07-09T14:50:39Z</time><pdop>4.0</pdop><geoidheight>50.80</geoidheight><course>179.23477</course><type>1</type></trkpt>
      <trkpt lat="39.38936791527259" lon="-5.804309531684343"><ele>2755</ele><speed>10.69</speed><time>2016-07-09T14:50:40Z</time><pdop>4.0</pdop><geoidheight>50.80</geoidheight><course>177.15723</course><type>1</type></trkpt>
      <trkpt lat="39.38927234768401" lon="-5.804295673208314"><ele>2756</ele><speed>10.85</speed><time>2016-07-09T14:50:41Z</time><pdop>4.0</pdop><geoidheight>50.80</geoidheight><course>175.98492</course><type>1</type></trkpt>
      <trkpt lat="39.38917714257849" lon="-5.804281947486204"><ele>2757</ele><speed>10.70</speed><time>2016-07-09T14:50:42Z</time><pdop>4.0</pdop><geoidheight>50.80</geoidheight><course>176.4285</course><type>1</type></trkpt>
      <trkpt lat="39.389081727697516" lon="-5.8042733375497795"><ele>2758</ele><speed>10.79</speed><time>2016-07-09T14:50:43Z</time><pdop>4.0</pdop><geoidheight>50.80</geoidheight><course>177.68379</course><type>1</type></trkpt>
      <trkpt lat="39.388996847766684" lon="-5.804265156524174"><ele>2760</ele><speed>11.02</speed><time>2016-07-09T14:50:44Z</time><pdop>4.0</pdop><geoidheight>50.80</geoidheight><course>178.96173</course><type>1</type></trkpt>
      <trkpt lat="39.38890192599345" lon="-5.804258129767559"><ele>2762</ele><speed>10.76</speed><time>2016-07-09T14:50:45Z</time><pdop>4.0</pdop><geoidheight>50.80</geoidheight><course>179.63586</course><type>1</type></trkpt>
      <trkpt lat="39.38870579346622" lon="-5.80424809687905"><ele>2765</ele><speed>10.19</speed><time>2016-07-09T14:50:47Z</time><pdop>6.0</pdop><geoidheight>50.80</geoidheight><course>179.45518</course><type>1</type></trkpt>
      <trkpt lat="39.38851040937473" lon="-5.804248648052531"><ele>2768</ele><speed>9.82</speed><time>2016-07-09T14:50:49Z</time><pdop>6.0</pdop><geoidheight>50.80</geoidheight><course>180.36862</course><type>1</type></trkpt>
      <trkpt lat="39.3883408707825" lon="-5.8042516715360675"><ele>2771</ele><speed>9.01</speed><time>2016-07-09T14:50:51Z</time><pdop>6.0</pdop><geoidheight>50.80</geoidheight><course>178.38162</course><type>1</type></trkpt>
      <trkpt lat="39.388154562509804" lon="-5.804243745194806"><ele>2774</ele><speed>11.33</speed><time>2016-07-09T14:50:53Z</time><pdop>6.0</pdop><geoidheight>50.80</geoidheight><course>177.8856</course><type>1</type></trkpt>
      <trkpt lat="39.387955934326506" lon="-5.804236710692949"><ele>2777</ele><speed>10.00</speed><time>2016-07-09T14:50:55Z</time><pdop>6.0</pdop><geoidheight>50.80</geoidheight><course>179.20898</course><type>1</type></trkpt>
      <trkpt lat="39.38778221928917" lon="-5.804224335411582"><ele>2780</ele><speed>9.12</speed><time>2016-07-09T14:50:57Z</time><pdop>6.0</pdop><geoidheight>50.80</geoidheight><course>176.73358</course><type>1</type></trkpt>
      <trkpt lat="39.38761121091638" lon="-5.804198387247387"><ele>2783</ele><speed>10.69</speed><time>2016-07-09T14:50:59Z</time><pdop>6.0</pdop><geoidheight>50.80</geoidheight><course>174.27861</course><type>1</type></trkpt>
      <trkpt lat="39.38740937939885" lon="-5.804171644031541"><ele>2784</ele><speed>11.73</speed><time>2016-07-09T14:51:01Z</time><pdop>6.0</pdop><geoidheight>50.80</geoidheight><course>174.27351</course><type>1</type></trkpt>
      <trkpt lat="39.38730045747042" lon="-5.804153230502233"><ele>2785</ele><speed>12.41</speed><time>2016-07-09T14:51:02Z</time><pdop>6.0</pdop><geoidheight>50.80</geoidheight><course>173.31776</course><type>1</type></trkpt>
      <trkpt lat="39.387186168877555" lon="-5.80412905641459"><ele>2786</ele><speed>13.12</speed><time>2016-07-09T14:51:03Z</time><pdop>6.0</pdop><geoidheight>50.80</geoidheight><course>171.77216</course><type>1</type></trkpt>
      <trkpt lat="39.38707180393667" lon="-5.804095209296685"><ele>2786</ele><speed>13.02</speed><time>2016-07-09T14:51:04Z</time><pdop>6.0</pdop><geoidheight>50.80</geoidheight><course>168.64792</course><type>1</type></trkpt>
      <trkpt lat="39.38697461281734" lon="-5.804031512629863"><ele>2787</ele><speed>11.62</speed><time>2016-07-09T14:51:05Z</time><pdop>6.0</pdop><geoidheight>50.80</geoidheight><course>153.46234</course><type>1</type></trkpt>
      <trkpt lat="39.38679671502017" lon="-5.803903929543286"><ele>2788</ele><speed>10.92</speed><time>2016-07-09T14:51:07Z</time><pdop>6.0</pdop><geoidheight>50.80</geoidheight><course>151.20561</course><type>1</type></trkpt>
      <trkpt lat="39.38662781746773" lon="-5.803784888505775"><ele>2789</ele><speed>10.44</speed><time>2016-07-09T14:51:09Z</time><pdop>6.0</pdop><geoidheight>50.80</geoidheight><course>153.16061</course><type>1</type></trkpt>
      <trkpt lat="39.38646256961691" lon="-5.803674553846095"><ele>2790</ele><speed>10.67</speed><time>2016-07-09T14:51:11Z</time><pdop>6.0</pdop><geoidheight>50.80</geoidheight><course>152.29175</course><type>1</type></trkpt>
      <trkpt lat="39.38629044820982" lon="-5.8035279492808085"><ele>2791</ele><speed>12.18</speed><time>2016-07-09T14:51:13Z</time><pdop>6.0</pdop><geoidheight>50.80</geoidheight><course>146.92525</course><type>1</type></trkpt>
      <trkpt lat="39.38619907465575" lon="-5.803444961384915"><ele>2791</ele><speed>12.79</speed><time>2016-07-09T14:51:14Z</time><pdop>6.0</pdop><geoidheight>50.80</geoidheight><course>146.14221</course><type>1</type></trkpt>
      <trkpt lat="39.38610182361101" lon="-5.803357091644496"><ele>2792</ele><speed>13.26</speed><time>2016-07-09T14:51:15Z</time><pdop>6.0</pdop><geoidheight>50.80</geoidheight><course>146.81593</course><type>1</type></trkpt>
      <trkpt lat="39.38600256826099" lon="-5.803265718062352"><ele>2792</ele><speed>13.55</speed><time>2016-07-09T14:51:16Z</time><pdop>6.0</pdop><geoidheight>50.80</geoidheight><course>145.89659</course><type>1</type></trkpt>
      <trkpt lat="39.38590048976742" lon="-5.803171359827599"><ele>2792</ele><speed>14.06</speed><time>2016-07-09T14:51:17Z</time><pdop>4.0</pdop><geoidheight>50.80</geoidheight><course>144.95636</course><type>1</type></trkpt>
      <trkpt lat="39.38579707938709" lon="-5.803069984537834"><ele>2792</ele><speed>14.53</speed><time>2016-07-09T14:51:18Z</time><pdop>4.0</pdop><geoidheight>50.80</geoidheight><course>144.16827</course><type>1</type></trkpt>
      <trkpt lat="39.38569762994588" lon="-5.802972076609317"><ele>2792</ele><speed>13.29</speed><time>2016-07-09T14:51:19Z</time><pdop>4.0</pdop><geoidheight>50.80</geoidheight><course>143.23604</course><type>1</type></trkpt>
      <trkpt lat="39.38561444202069" lon="-5.802883924896927"><ele>2793</ele><speed>11.14</speed><time>2016-07-09T14:51:20Z</time><pdop>4.0</pdop><geoidheight>50.80</geoidheight><course>141.91486</course><type>1</type></trkpt>
      <trkpt lat="39.38556165521383" lon="-5.802784233369753"><ele>2793</ele><speed>9.81</speed><time>2016-07-09T14:51:21Z</time><pdop>6.0</pdop><geoidheight>50.80</geoidheight><course>123.46817</course><type>1</type></trkpt>
      <trkpt lat="39.38546359111899" lon="-5.802571910848135"><ele>2794</ele><speed>10.72</speed><time>2016-07-09T14:51:23Z</time><pdop>6.0</pdop><geoidheight>50.80</geoidheight><course>122.05019</course><type>1</type></trkpt>
      <trkpt lat="39.38534443978823" lon="-5.8023435731050075"><ele>2795</ele><speed>12.75</speed><time>2016-07-09T14:51:25Z</time><pdop>8.0</pdop><geoidheight>50.80</geoidheight><course>126.07112</course><type>1</type></trkpt>
      <trkpt lat="39.385202397712575" lon="-5.802098629902088"><ele>2794</ele><speed>13.71</speed><time>2016-07-09T14:51:27Z</time><pdop>6.0</pdop><geoidheight>50.80</geoidheight><course>127.11029</course><type>1</type></trkpt>
      <trkpt lat="39.38512602323476" lon="-5.801975079773032"><ele>2794</ele><speed>13.64</speed><time>2016-07-09T14:51:28Z</time><pdop>6.0</pdop><geoidheight>50.80</geoidheight><course>128.25713</course><type>1</type></trkpt>
      <trkpt lat="39.385047666809974" lon="-5.801861876893982"><ele>2793</ele><speed>13.11</speed><time>2016-07-09T14:51:29Z</time><pdop>6.0</pdop><geoidheight>50.80</geoidheight><course>130.342</course><type>1</type></trkpt>
      <trkpt lat="39.38496510916255" lon="-5.801755005828979"><ele>2792</ele><speed>13.03</speed><time>2016-07-09T14:51:30Z</time><pdop>6.0</pdop><geoidheight>50.80</geoidheight><course>133.04488</course><type>1</type></trkpt>
      <trkpt lat="39.38487480706349" lon="-5.801649647478013"><ele>2790</ele><speed>13.38</speed><time>2016-07-09T14:51:31Z</time><pdop>6.0</pdop><geoidheight>50.80</geoidheight><course>135.33571</course><type>1</type></trkpt>
      <trkpt lat="39.38478198047044" lon="-5.801542245086318"><ele>2789</ele><speed>14.28</speed><time>2016-07-09T14:51:32Z</time><pdop>6.0</pdop><geoidheight>50.80</geoidheight><course>136.09251</course><type>1</type></trkpt>
      <trkpt lat="39.38468480566585" lon="-5.801426928325328"><ele>2787</ele><speed>14.78</speed><time>2016-07-09T14:51:33Z</time><pdop>6.0</pdop><geoidheight>50.80</geoidheight><course>136.63647</course><type>1</type></trkpt>
      <trkpt lat="39.38459242226836" lon="-5.8013195581368"><ele>2785</ele><speed>13.72</speed><time>2016-07-09T14:51:34Z</time><pdop>6.0</pdop><geoidheight>50.80</geoidheight><course>137.60648</course><type>1</type></trkpt>
      <trkpt lat="39.38450046638957" lon="-5.801223418476999"><ele>2784</ele><speed>12.97</speed><time>2016-07-09T14:51:35Z</time><pdop>6.0</pdop><geoidheight>50.80</geoidheight><course>139.16454</course><type>1</type></trkpt>
      <trkpt lat="39.384408592018836" lon="-5.801134586031812"><ele>2782</ele><speed>12.82</speed><time>2016-07-09T14:51:36Z</time><pdop>6.0</pdop><geoidheight>50.80</geoidheight><course>141.45201</course><type>1</type></trkpt>
      <trkpt lat="39.38431099590401" lon="-5.801047331370226"><ele>2781</ele><speed>13.12</speed><time>2016-07-09T14:51:37Z</time><pdop>6.0</pdop><geoidheight>50.80</geoidheight><course>143.34618</course><type>1</type></trkpt>
      <trkpt lat="39.38421658267814" lon="-5.8009626567299835"><ele>2780</ele><speed>12.54</speed><time>2016-07-09T14:51:38Z</time><pdop>6.0</pdop><geoidheight>50.80</geoidheight><course>144.32982</course><type>1</type></trkpt>
      <trkpt lat="39.384125644478786" lon="-5.800879722575937"><ele>2779</ele><speed>11.85</speed><time>2016-07-09T14:51:39Z</time><pdop>6.0</pdop><geoidheight>50.80</geoidheight><course>144.46902</course><type>1</type></trkpt>
      <trkpt lat="39.38403523758932" lon="-5.800797211958489"><ele>2779</ele><speed>11.37</speed><time>2016-07-09T14:51:40Z</time><pdop>6.0</pdop><geoidheight>50.80</geoidheight><course>144.07199</course><type>1</type></trkpt>
      <trkpt lat="39.38386770497395" lon="-5.80064095826222"><ele>2778</ele><speed>11.48</speed><time>2016-07-09T14:51:42Z</time><pdop>6.0</pdop><geoidheight>50.80</geoidheight><course>144.68457</course><type>1</type></trkpt>
      <trkpt lat="39.38378227272001" lon="-5.800564812095371"><ele>2777</ele><speed>11.87</speed><time>2016-07-09T14:51:43Z</time><pdop>4.0</pdop><geoidheight>50.80</geoidheight><course>145.9363</course><type>1</type></trkpt>
      <trkpt lat="39.38368934078707" lon="-5.800485264698524"><ele>2777</ele><speed>11.92</speed><time>2016-07-09T14:51:44Z</time><pdop>6.0</pdop><geoidheight>50.80</geoidheight><course>146.86691</course><type>1</type></trkpt>
      <trkpt lat="39.383595909389236" lon="-5.800405208655697"><ele>2776</ele><speed>12.06</speed><time>2016-07-09T14:51:45Z</time><pdop>6.0</pdop><geoidheight>50.80</geoidheight><course>146.23978</course><type>1</type></trkpt>
      <trkpt lat="39.383434529484894" lon="-5.800232275291712"><ele>2774</ele><speed>11.64</speed><time>2016-07-09T14:51:47Z</time><pdop>6.0</pdop><geoidheight>50.80</geoidheight><course>140.37195</course><type>1</type></trkpt>
      <trkpt lat="39.38329786530377" lon="-5.8000386031988596"><ele>2773</ele><speed>11.11</speed><time>2016-07-09T14:51:49Z</time><pdop>6.0</pdop><geoidheight>50.80</geoidheight><course>134.98874</course><type>1</type></trkpt>
      <trkpt lat="39.383167784246396" lon="-5.799861570508255"><ele>2773</ele><speed>10.40</speed><time>2016-07-09T14:51:51Z</time><pdop>6.0</pdop><geoidheight>50.80</geoidheight><course>136.78787</course><type>1</type></trkpt>
      <trkpt lat="39.38303191965182" lon="-5.799692488398344"><ele>2772</ele><speed>10.04</speed><time>2016-07-09T14:51:53Z</time><pdop>6.0</pdop><geoidheight>50.80</geoidheight><course>138.61742</course><type>1</type></trkpt>
      <trkpt lat="39.38287593460833" lon="-5.799533708890291"><ele>2772</ele><speed>10.60</speed><time>2016-07-09T14:51:55Z</time><pdop>8.0</pdop><geoidheight>50.80</geoidheight><course>144.26924</course><type>1</type></trkpt>
      <trkpt lat="39.382704173077805" lon="-5.799397245407871"><ele>2770</ele><speed>11.02</speed><time>2016-07-09T14:51:58Z</time><pdop>6.0</pdop><geoidheight>50.80</geoidheight><course>147.8517</course><type>1</type></trkpt>
      <trkpt lat="39.38254490738755" lon="-5.799286632152738"><ele>2768</ele><speed>10.34</speed><time>2016-07-09T14:51:59Z</time><pdop>6.0</pdop><geoidheight>50.80</geoidheight><course>148.97424</course><type>1</type></trkpt>
      <trkpt lat="39.382396157465315" lon="-5.7992010121574715"><ele>2766</ele><speed>9.69</speed><time>2016-07-09T14:52:01Z</time><pdop>6.0</pdop><geoidheight>50.80</geoidheight><course>149.74242</course><type>1</type></trkpt>
      <trkpt lat="39.382247764323346" lon="-5.799112558141083"><ele>2764</ele><speed>9.65</speed><time>2016-07-09T14:52:04Z</time><pdop>4.0</pdop><geoidheight>50.80</geoidheight><course>146.81938</course><type>1</type></trkpt>
      <trkpt lat="39.38217555376247" lon="-5.799055637065435"><ele>2763</ele><speed>10.02</speed><time>2016-07-09T14:52:04Z</time><pdop>4.0</pdop><geoidheight>50.80</geoidheight><course>144.00429</course><type>1</type></trkpt>
      <trkpt lat="39.38210756014996" lon="-5.798989523782137"><ele>2763</ele><speed>9.95</speed><time>2016-07-09T14:52:05Z</time><pdop>4.0</pdop><geoidheight>50.80</geoidheight><course>140.38153</course><type>1</type></trkpt>
      <trkpt lat="39.382045984851345" lon="-5.798918879198036"><ele>2762</ele><speed>9.04</speed><time>2016-07-09T14:52:06Z</time><pdop>4.0</pdop><geoidheight>50.80</geoidheight><course>137.03595</course><type>1</type></trkpt>
      <trkpt lat="39.38199362318166" lon="-5.798848433533355"><ele>2762</ele><speed>8.15</speed><time>2016-07-09T14:52:07Z</time><pdop>4.0</pdop><geoidheight>50.80</geoidheight><course>133.95544</course><type>1</type></trkpt>
      <trkpt lat="39.38194403538595" lon="-5.7987770818267155"><ele>2762</ele><speed>8.13</speed><time>2016-07-09T14:52:08Z</time><pdop>4.0</pdop><geoidheight>50.80</geoidheight><course>132.59698</course><type>1</type></trkpt>
      <trkpt lat="39.381892279619414" lon="-5.798702546275729"><ele>2762</ele><speed>8.71</speed><time>2016-07-09T14:52:09Z</time><pdop>4.0</pdop><geoidheight>50.80</geoidheight><course>133.16962</course><type>1</type></trkpt>
      <trkpt lat="39.38183613507778" lon="-5.798626982145122"><ele>2761</ele><speed>9.26</speed><time>2016-07-09T14:52:10Z</time><pdop>4.0</pdop><geoidheight>50.80</geoidheight><course>134.22261</course><type>1</type></trkpt>
      <trkpt lat="39.38177663749922" lon="-5.798549098879904"><ele>2761</ele><speed>9.72</speed><time>2016-07-09T14:52:11Z</time><pdop>4.0</pdop><geoidheight>50.80</geoidheight><course>134.83263</course><type>1</type></trkpt>
      <trkpt lat="39.38171601027018" lon="-5.798470334722605"><ele>2760</ele><speed>9.61</speed><time>2016-07-09T14:52:12Z</time><pdop>4.0</pdop><geoidheight>50.80</geoidheight><course>134.36407</course><type>1</type></trkpt>
      <trkpt lat="39.381658425764094" lon="-5.7983943274213265"><ele>2760</ele><speed>8.87</speed><time>2016-07-09T14:52:13Z</time><pdop>4.0</pdop><geoidheight>50.80</geoidheight><course>133.38428</course><type>1</type></trkpt>
      <trkpt lat="39.38160649756844" lon="-5.798320359632505"><ele>2760</ele><speed>8.47</speed><time>2016-07-09T14:52:14Z</time><pdop>4.0</pdop><geoidheight>50.80</geoidheight><course>132.4464</course><type>1</type></trkpt>
      <trkpt lat="39.38155572572282" lon="-5.798247607221704"><ele>2759</ele><speed>8.38</speed><time>2016-07-09T14:52:15Z</time><pdop>4.0</pdop><geoidheight>50.80</geoidheight><course>133.02753</course><type>1</type></trkpt>
      <trkpt lat="39.381501477995755" lon="-5.798175089758586"><ele>2759</ele><speed>8.81</speed><time>2016-07-09T14:52:16Z</time><pdop>4.0</pdop><geoidheight>50.80</geoidheight><course>134.3567</course><type>1</type></trkpt>
      <trkpt lat="39.38144064924801" lon="-5.798101818221891"><ele>2758</ele><speed>9.75</speed><time>2016-07-09T14:52:17Z</time><pdop>4.0</pdop><geoidheight>50.80</geoidheight><course>136.63785</course><type>1</type></trkpt>
      <trkpt lat="39.38137197818793" lon="-5.7980194006732235"><ele>2758</ele><speed>10.22</speed><time>2016-07-09T14:52:18Z</time><pdop>6.0</pdop><geoidheight>50.80</geoidheight><course>137.21881</course><type>1</type></trkpt>
      <trkpt lat="39.381247888081795" lon="-5.797859786304245"><ele>2757</ele><speed>9.21</speed><time>2016-07-09T14:52:20Z</time><pdop>6.0</pdop><geoidheight>50.80</geoidheight><course>133.27193</course><type>1</type></trkpt>
      <trkpt lat="39.381125816715176" lon="-5.797724413863925"><ele>2757</ele><speed>8.83</speed><time>2016-07-09T14:52:22Z</time><pdop>8.0</pdop><geoidheight>50.80</geoidheight><course>147.86671</course><type>1</type></trkpt>
      <trkpt lat="39.38097051416817" lon="-5.7975902200191625"><ele>2755</ele><speed>11.26</speed><time>2016-07-09T14:52:24Z</time><pdop>6.0</pdop><geoidheight>50.80</geoidheight><course>148.7233</course><type>1</type></trkpt>
      <trkpt lat="39.38079097331958" lon="-5.797457845188669"><ele>2753</ele><speed>11.79</speed><time>2016-07-09T14:52:26Z</time><pdop>6.0</pdop><geoidheight>50.80</geoidheight><course>151.33453</course><type>1</type></trkpt>
      <trkpt lat="39.380626367397795" lon="-5.7973632205748435"><ele>2751</ele><speed>8.59</speed><time>2016-07-09T14:52:28Z</time><pdop>6.0</pdop><geoidheight>50.80</geoidheight><course>155.83464</course><type>1</type></trkpt>
      <trkpt lat="39.38048331308598" lon="-5.79727616420565"><ele>2749</ele><speed>9.05</speed><time>2016-07-09T14:52:30Z</time><pdop>6.0</pdop><geoidheight>50.80</geoidheight><course>151.83342</course><type>1</type></trkpt>
      <trkpt lat="39.3803258507538" lon="-5.797153468046398"><ele>2746</ele><speed>11.17</speed><time>2016-07-09T14:52:32Z</time><pdop>6.0</pdop><geoidheight>50.80</geoidheight><course>148.83168</course><type>1</type></trkpt>
      <trkpt lat="39.38016743691932" lon="-5.797001125237348"><ele>2743</ele><speed>10.57</speed><time>2016-07-09T14:52:34Z</time><pdop>6.0</pdop><geoidheight>50.80</geoidheight><course>143.73853</course><type>1</type></trkpt>
      <trkpt lat="39.38004412221581" lon="-5.79685705532725"><ele>2741</ele><speed>9.53</speed><time>2016-07-09T14:52:37Z</time><pdop>6.0</pdop><geoidheight>50.80</geoidheight><course>141.45714</course><type>1</type></trkpt>
      <trkpt lat="39.379915676578584" lon="-5.796703132006284"><ele>2739</ele><speed>10.26</speed><time>2016-07-09T14:52:38Z</time><pdop>6.0</pdop><geoidheight>50.80</geoidheight><course>140.29587</course><type>1</type></trkpt>
      <trkpt lat="39.37984594883245" lon="-5.79662089890043"><ele>2738</ele><speed>11.10</speed><time>2016-07-09T14:52:39Z</time><pdop>4.0</pdop><geoidheight>50.80</geoidheight><course>139.99219</course><type>1</type></trkpt>
      <trkpt lat="39.37976142038367" lon="-5.796527953639476"><ele>2736</ele><speed>11.74</speed><time>2016-07-09T14:52:41Z</time><pdop>8.0</pdop><geoidheight>50.80</geoidheight><course>140.91704</course><type>1</type></trkpt>
      <trkpt lat="39.379591584556366" lon="-5.796347678763773"><ele>2733</ele><speed>11.22</speed><time>2016-07-09T14:52:42Z</time><pdop>6.0</pdop><geoidheight>50.80</geoidheight><course>141.02417</course><type>1</type></trkpt>
      <trkpt lat="39.37944557828173" lon="-5.796187516522409"><ele>2731</ele><speed>10.49</speed><time>2016-07-09T14:52:44Z</time><pdop>6.0</pdop><geoidheight>50.80</geoidheight><course>139.71945</course><type>1</type></trkpt>
      <trkpt lat="39.379308968829854" lon="-5.796023206526916"><ele>2729</ele><speed>10.69</speed><time>2016-07-09T14:52:46Z</time><pdop>4.0</pdop><geoidheight>50.80</geoidheight><course>137.61195</course><type>1</type></trkpt>
      <trkpt lat="39.37924073855951" lon="-5.795938250275288"><ele>2728</ele><speed>10.20</speed><time>2016-07-09T14:52:47Z</time><pdop>4.0</pdop><geoidheight>50.80</geoidheight><course>137.18044</course><type>1</type></trkpt>
      <trkpt lat="39.37917362455324" lon="-5.795857945149957"><ele>2727</ele><speed>9.95</speed><time>2016-07-09T14:52:48Z</time><pdop>6.0</pdop><geoidheight>50.80</geoidheight><course>138.34593</course><type>1</type></trkpt>
      <trkpt lat="39.379029151140855" lon="-5.79570319708059"><ele>2724</ele><speed>11.06</speed><time>2016-07-09T14:52:50Z</time><pdop>6.0</pdop><geoidheight>50.80</geoidheight><course>140.63014</course><type>1</type></trkpt>
      <trkpt lat="39.37888709684552" lon="-5.795550617008998"><ele>2720</ele><speed>10.85</speed><time>2016-07-09T14:52:52Z</time><pdop>6.0</pdop><geoidheight>50.80</geoidheight><course>139.77</course><type>1</type></trkpt>
      <trkpt lat="39.37874090113899" lon="-5.7954112323346285"><ele>2716</ele><speed>10.34</speed><time>2016-07-09T14:52:54Z</time><pdop>6.0</pdop><geoidheight>50.80</geoidheight><course>142.41566</course><type>1</type></trkpt>
      <trkpt lat="39.378581497009336" lon="-5.7952763415792345"><ele>2712</ele><speed>10.71</speed><time>2016-07-09T14:52:56Z</time><pdop>6.0</pdop><geoidheight>50.80</geoidheight><course>143.34325</course><type>1</type></trkpt>
      <trkpt lat="39.378424587264064" lon="-5.7951368203535205"><ele>2707</ele><speed>10.97</speed><time>2016-07-09T14:52:58Z</time><pdop>6.0</pdop><geoidheight>50.80</geoidheight><course>141.86609</course><type>1</type></trkpt>
      <trkpt lat="39.378269368025165" lon="-5.794988906211226"><ele>2703</ele><speed>10.60</speed><time>2016-07-09T14:53:00Z</time><pdop>6.0</pdop><geoidheight>50.80</geoidheight><course>141.41536</course><type>1</type></trkpt>
      <trkpt lat="39.37812101632144" lon="-5.7948460778428945"><ele>2697</ele><speed>10.45</speed><time>2016-07-09T14:53:02Z</time><pdop>6.0</pdop><geoidheight>50.80</geoidheight><course>141.44156</course><type>1</type></trkpt>
      <trkpt lat="39.37795952044422" lon="-5.7946960726548244"><ele>2690</ele><speed>11.68</speed><time>2016-07-09T14:53:04Z</time><pdop>4.0</pdop><geoidheight>50.80</geoidheight><course>142.70651</course><type>1</type></trkpt>
      <trkpt lat="39.37787535486391" lon="-5.794617754655531"><ele>2687</ele><speed>11.25</speed><time>2016-07-09T14:53:05Z</time><pdop>4.0</pdop><geoidheight>50.80</geoidheight><course>142.29895</course><type>1</type></trkpt>
      <trkpt lat="39.37779545888954" lon="-5.794539132159187"><ele>2683</ele><speed>10.78</speed><time>2016-07-09T14:53:06Z</time><pdop>4.0</pdop><geoidheight>50.80</geoidheight><course>141.65036</course><type>1</type></trkpt>
      <trkpt lat="39.37771930631882" lon="-5.7944634432198106"><ele>2679</ele><speed>10.33</speed><time>2016-07-09T14:53:07Z</time><pdop>4.0</pdop><geoidheight>50.80</geoidheight><course>142.213</course><type>1</type></trkpt>
      <trkpt lat="39.37764206289905" lon="-5.794391982267446"><ele>2676</ele><speed>10.40</speed><time>2016-07-09T14:53:08Z</time><pdop>6.0</pdop><geoidheight>50.80</geoidheight><course>143.66606</course><type>1</type></trkpt>
      <trkpt lat="39.37747916919655" lon="-5.794254546913726"><ele>2668</ele><speed>11.47</speed><time>2016-07-09T14:53:10Z</time><pdop>8.0</pdop><geoidheight>50.80</geoidheight><course>145.35378</course><type>1</type></trkpt>
      <trkpt lat="39.377307028028504" lon="-5.794096386406951"><ele>2661</ele><speed>11.57</speed><time>2016-07-09T14:53:12Z</time><pdop>8.0</pdop><geoidheight>50.80</geoidheight><course>143.47307</course><type>1</type></trkpt>
      <trkpt lat="39.377144141295084" lon="-5.793921950781883"><ele>2653</ele><speed>11.49</speed><time>2016-07-09T14:53:14Z</time><pdop>8.0</pdop><geoidheight>50.80</geoidheight><course>140.88728</course><type>1</type></trkpt>
      <trkpt lat="39.376996022273524" lon="-5.7937443415057395"><ele>2647</ele><speed>12.09</speed><time>2016-07-09T14:53:16Z</time><pdop>8.0</pdop><geoidheight>50.80</geoidheight><course>137.03638</course><type>1</type></trkpt>
      <trkpt lat="39.37686530006521" lon="-5.793564248395749"><ele>2640</ele><speed>11.10</speed><time>2016-07-09T14:53:18Z</time><pdop>8.0</pdop><geoidheight>50.80</geoidheight><course>134.20615</course><type>1</type></trkpt>
      <trkpt lat="39.37673461042369" lon="-5.793376805919504"><ele>2634</ele><speed>11.15</speed><time>2016-07-09T14:53:21Z</time><pdop>8.0</pdop><geoidheight>50.80</geoidheight><course>133.76302</course><type>1</type></trkpt>
      <trkpt lat="39.37657978293831" lon="-5.793186850798604"><ele>2627</ele><speed>12.59</speed><time>2016-07-09T14:53:23Z</time><pdop>6.0</pdop><geoidheight>50.80</geoidheight><course>139.39291</course><type>1</type></trkpt>
      <trkpt lat="39.37649251755702" lon="-5.793096865061314"><ele>2623</ele><speed>12.35</speed><time>2016-07-09T14:53:24Z</time><pdop>6.0</pdop><geoidheight>50.80</geoidheight><course>141.99928</course><type>1</type></trkpt>
      <trkpt lat="39.37640454944459" lon="-5.793015874681136"><ele>2619</ele><speed>12.50</speed><time>2016-07-09T14:53:24Z</time><pdop>6.0</pdop><geoidheight>50.80</geoidheight><course>143.31287</course><type>1</type></trkpt>
      <trkpt lat="39.37631297292811" lon="-5.792931273391351"><ele>2614</ele><speed>12.85</speed><time>2016-07-09T14:53:25Z</time><pdop>6.0</pdop><geoidheight>50.80</geoidheight><course>143.6825</course><type>1</type></trkpt>
      <trkpt lat="39.376218482930724" lon="-5.792846232501591"><ele>2610</ele><speed>13.29</speed><time>2016-07-09T14:53:26Z</time><pdop>6.0</pdop><geoidheight>50.80</geoidheight><course>143.60234</course><type>1</type></trkpt>
      <trkpt lat="39.37612162661429" lon="-5.792759993897958"><ele>2605</ele><speed>13.62</speed><time>2016-07-09T14:53:27Z</time><pdop>6.0</pdop><geoidheight>50.80</geoidheight><course>143.96121</course><type>1</type></trkpt>
      <trkpt lat="39.3760204038126" lon="-5.792673217486328"><ele>2600</ele><speed>13.47</speed><time>2016-07-09T14:53:28Z</time><pdop>6.0</pdop><geoidheight>50.80</geoidheight><course>144.59938</course><type>1</type></trkpt>
      <trkpt lat="39.37591970865598" lon="-5.792587332868858"><ele>2596</ele><speed>13.27</speed><time>2016-07-09T14:53:29Z</time><pdop>6.0</pdop><geoidheight>50.80</geoidheight><course>145.44858</course><type>1</type></trkpt>
      <trkpt lat="39.37582779380048" lon="-5.792513170783773"><ele>2591</ele><speed>12.92</speed><time>2016-07-09T14:53:30Z</time><pdop>6.0</pdop><geoidheight>50.80</geoidheight><course>146.12099</course><type>1</type></trkpt>
      <trkpt lat="39.37572732551781" lon="-5.792432405550048"><ele>2587</ele><speed>12.67</speed><time>2016-07-09T14:53:31Z</time><pdop>6.0</pdop><geoidheight>50.80</geoidheight><course>146.95805</course><type>1</type></trkpt>
      <trkpt lat="39.37563541966106" lon="-5.792357135722899"><ele>2583</ele><speed>12.82</speed><time>2016-07-09T14:53:32Z</time><pdop>6.0</pdop><geoidheight>50.80</geoidheight><course>146.4101</course><type>1</type></trkpt>
      <trkpt lat="39.37553461809005" lon="-5.792274441472736"><ele>2579</ele><speed>13.18</speed><time>2016-07-09T14:53:33Z</time><pdop>6.0</pdop><geoidheight>50.80</geoidheight><course>145.61797</course><type>1</type></trkpt>
      <trkpt lat="39.375434421130784" lon="-5.792187480933595"><ele>2575</ele><speed>13.45</speed><time>2016-07-09T14:53:34Z</time><pdop>6.0</pdop><geoidheight>50.80</geoidheight><course>144.86398</course><type>1</type></trkpt>
      <trkpt lat="39.375335686282774" lon="-5.792101779128883"><ele>2572</ele><speed>13.51</speed><time>2016-07-09T14:53:35Z</time><pdop>6.0</pdop><geoidheight>50.80</geoidheight><course>144.06303</course><type>1</type></trkpt>
      <trkpt lat="39.37523918585534" lon="-5.792013491559798"><ele>2568</ele><speed>13.37</speed><time>2016-07-09T14:53:36Z</time><pdop>6.0</pdop><geoidheight>50.80</geoidheight><course>143.50719</course><type>1</type></trkpt>
      <trkpt lat="39.375146673073004" lon="-5.791928361221231"><ele>2564</ele><speed>13.08</speed><time>2016-07-09T14:53:37Z</time><pdop>6.0</pdop><geoidheight>50.80</geoidheight><course>143.09982</course><type>1</type></trkpt>
      <trkpt lat="39.375057303085356" lon="-5.791838730597949"><ele>2561</ele><speed>13.00</speed><time>2016-07-09T14:53:38Z</time><pdop>4.0</pdop><geoidheight>50.80</geoidheight><course>142.21886</course><type>1</type></trkpt>
      <trkpt lat="39.374964997310684" lon="-5.791746234161606"><ele>2557</ele><speed>13.18</speed><time>2016-07-09T14:53:39Z</time><pdop>4.0</pdop><geoidheight>50.80</geoidheight><course>141.44368</course><type>1</type></trkpt>
      <trkpt lat="39.37487248646863" lon="-5.791648570761069"><ele>2554</ele><speed>13.44</speed><time>2016-07-09T14:53:40Z</time><pdop>4.0</pdop><geoidheight>50.80</geoidheight><course>140.62581</course><type>1</type></trkpt>
      <trkpt lat="39.37477889792768" lon="-5.791550829712104"><ele>2550</ele><speed>13.36</speed><time>2016-07-09T14:53:41Z</time><pdop>4.0</pdop><geoidheight>50.80</geoidheight><course>141.47757</course><type>1</type></trkpt>
      <trkpt lat="39.37468335232778" lon="-5.791458023285485"><ele>2547</ele><speed>13.33</speed><time>2016-07-09T14:53:42Z</time><pdop>4.0</pdop><geoidheight>50.80</geoidheight><course>142.29701</course><type>1</type></trkpt>
      <trkpt lat="39.37458853902574" lon="-5.791366404910679"><ele>2544</ele><speed>13.21</speed><time>2016-07-09T14:53:43Z</time><pdop>4.0</pdop><geoidheight>50.80</geoidheight><course>142.68573</course><type>1</type></trkpt>
      <trkpt lat="39.37449530176851" lon="-5.791276405203136"><ele>2540</ele><speed>13.18</speed><time>2016-07-09T14:53:44Z</time><pdop>4.0</pdop><geoidheight>50.80</geoidheight><course>142.23538</course><type>1</type></trkpt>
      <trkpt lat="39.37440040691639" lon="-5.7911836722063965"><ele>2537</ele><speed>13.19</speed><time>2016-07-09T14:53:45Z</time><pdop>4.0</pdop><geoidheight>50.80</geoidheight><course>142.6066</course><type>1</type></trkpt>
      <trkpt lat="39.37430617178317" lon="-5.791092633210972"><ele>2533</ele><speed>13.22</speed><time>2016-07-09T14:53:46Z</time><pdop>4.0</pdop><geoidheight>50.80</geoidheight><course>143.12668</course><type>1</type></trkpt>
      <trkpt lat="39.37421189125775" lon="-5.791006186800462"><ele>2530</ele><speed>13.16</speed><time>2016-07-09T14:53:47Z</time><pdop>4.0</pdop><geoidheight>50.80</geoidheight><course>143.54149</course><type>1</type></trkpt>
      <trkpt lat="39.37411584987738" lon="-5.79091811766475"><ele>2526</ele><speed>13.25</speed><time>2016-07-09T14:53:48Z</time><pdop>4.0</pdop><geoidheight>50.80</geoidheight><course>144.15895</course><type>1</type></trkpt>
      <trkpt lat="39.374017940992715" lon="-5.7908356530220795"><ele>2523</ele><speed>13.27</speed><time>2016-07-09T14:53:49Z</time><pdop>4.0</pdop><geoidheight>50.80</geoidheight><course>145.52594</course><type>1</type></trkpt>
      <trkpt lat="39.37391868249672" lon="-5.790756585303693"><ele>2519</ele><speed>13.40</speed><time>2016-07-09T14:53:50Z</time><pdop>4.0</pdop><geoidheight>50.80</geoidheight><course>146.77145</course><type>1</type></trkpt>
      <trkpt lat="39.37381696284355" lon="-5.790676091407771"><ele>2515</ele><speed>13.78</speed><time>2016-07-09T14:53:51Z</time><pdop>4.0</pdop><geoidheight>50.80</geoidheight><course>147.42696</course><type>1</type></trkpt>
      <trkpt lat="39.373712880674816" lon="-5.790593855994962"><ele>2511</ele><speed>13.81</speed><time>2016-07-09T14:53:52Z</time><pdop>4.0</pdop><geoidheight>50.80</geoidheight><course>147.4251</course><type>1</type></trkpt>
      <trkpt lat="39.37360839711358" lon="-5.790515276851518"><ele>2508</ele><speed>13.38</speed><time>2016-07-09T14:53:53Z</time><pdop>4.0</pdop><geoidheight>50.80</geoidheight><course>148.26736</course><type>1</type></trkpt>
      <trkpt lat="39.37350809563532" lon="-5.7904394087833495"><ele>2504</ele><speed>12.75</speed><time>2016-07-09T14:53:54Z</time><pdop>4.0</pdop><geoidheight>50.80</geoidheight><course>148.77959</course><type>1</type></trkpt>
      <trkpt lat="39.373414176738194" lon="-5.7903691381893045"><ele>2500</ele><speed>11.90</speed><time>2016-07-09T14:53:55Z</time><pdop>4.0</pdop><geoidheight>50.80</geoidheight><course>149.26315</course><type>1</type></trkpt>
      <trkpt lat="39.37332413906486" lon="-5.790301700657165"><ele>2497</ele><speed>11.38</speed><time>2016-07-09T14:53:56Z</time><pdop>4.0</pdop><geoidheight>50.80</geoidheight><course>148.70747</course><type>1</type></trkpt>
      <trkpt lat="39.37323512407824" lon="-5.79023324917705"><ele>2493</ele><speed>11.69</speed><time>2016-07-09T14:53:57Z</time><pdop>4.0</pdop><geoidheight>50.80</geoidheight><course>147.32925</course><type>1</type></trkpt>
      <trkpt lat="39.373149656068016" lon="-5.790158993371218"><ele>2489</ele><speed>11.60</speed><time>2016-07-09T14:53:58Z</time><pdop>4.0</pdop><geoidheight>50.80</geoidheight><course>145.56451</course><type>1</type></trkpt>
      <trkpt lat="39.37306585977387" lon="-5.790085081775821"><ele>2485</ele><speed>11.70</speed><time>2016-07-09T14:53:59Z</time><pdop>4.0</pdop><geoidheight>50.80</geoidheight><course>144.732</course><type>1</type></trkpt>
      <trkpt lat="39.37297538783695" lon="-5.790003426119604"><ele>2481</ele><speed>11.92</speed><time>2016-07-09T14:54:00Z</time><pdop>4.0</pdop><geoidheight>50.80</geoidheight><course>145.14198</course><type>1</type></trkpt>
      <trkpt lat="39.372880626469446" lon="-5.789919552939923"><ele>2477</ele><speed>12.41</speed><time>2016-07-09T14:54:01Z</time><pdop>4.0</pdop><geoidheight>50.80</geoidheight><course>145.75269</course><type>1</type></trkpt>
      <trkpt lat="39.372786700954386" lon="-5.789836597500868"><ele>2473</ele><speed>12.65</speed><time>2016-07-09T14:54:02Z</time><pdop>4.0</pdop><geoidheight>50.80</geoidheight><course>145.30917</course><type>1</type></trkpt>
      <trkpt lat="39.37269227388311" lon="-5.789753893383264"><ele>2469</ele><speed>12.43</speed><time>2016-07-09T14:54:03Z</time><pdop>8.0</pdop><geoidheight>50.80</geoidheight><course>144.57921</course><type>1</type></trkpt>
      <trkpt lat="39.37252660616476" lon="-5.789597223805279"><ele>2463</ele><speed>9.78</speed><time>2016-07-09T14:54:06Z</time><pdop>8.0</pdop><geoidheight>50.80</geoidheight><course>144.76498</course><type>1</type></trkpt>
      <trkpt lat="39.37239471484629" lon="-5.789465674958457"><ele>2458</ele><speed>8.41</speed><time>2016-07-09T14:54:07Z</time><pdop>6.0</pdop><geoidheight>50.80</geoidheight><course>143.97223</course><type>1</type></trkpt>
      <trkpt lat="39.372253241568046" lon="-5.7893198452933525"><ele>2451</ele><speed>10.95</speed><time>2016-07-09T14:54:10Z</time><pdop>8.0</pdop><geoidheight>50.80</geoidheight><course>142.41298</course><type>1</type></trkpt>
      <trkpt lat="39.37208924573695" lon="-5.789165747245013"><ele>2443</ele><speed>11.79</speed><time>2016-07-09T14:54:11Z</time><pdop>8.0</pdop><geoidheight>50.80</geoidheight><course>144.45747</course><type>1</type></trkpt>
      <trkpt lat="39.37193411274881" lon="-5.789032237934273"><ele>2436</ele><speed>10.63</speed><time>2016-07-09T14:54:14Z</time><pdop>8.0</pdop><geoidheight>50.80</geoidheight><course>145.532</course><type>1</type></trkpt>
      <trkpt lat="39.371772272362605" lon="-5.788915139012868"><ele>2430</ele><speed>10.73</speed><time>2016-07-09T14:54:15Z</time><pdop>6.0</pdop><geoidheight>50.80</geoidheight><course>150.06891</course><type>1</type></trkpt>
      <trkpt lat="39.371586300740674" lon="-5.788782977521991"><ele>2424</ele><speed>13.08</speed><time>2016-07-09T14:54:17Z</time><pdop>6.0</pdop><geoidheight>50.80</geoidheight><course>149.88698</course><type>1</type></trkpt>
      <trkpt lat="39.37138644526057" lon="-5.788641273599027"><ele>2420</ele><speed>11.60</speed><time>2016-07-09T14:54:19Z</time><pdop>8.0</pdop><geoidheight>50.80</geoidheight><course>150.76099</course><type>1</type></trkpt>
      <trkpt lat="39.37123180997325" lon="-5.7885843613175885"><ele>2418</ele><speed>6.93</speed><time>2016-07-09T14:54:21Z</time><pdop>8.0</pdop><geoidheight>50.80</geoidheight><course>164.80923</course><type>1</type></trkpt>
      <trkpt lat="39.37105773676277" lon="-5.788512411362881"><ele>2421</ele><speed>7.58</speed><time>2016-07-09T14:54:25Z</time><pdop>8.0</pdop><geoidheight>50.80</geoidheight><course>156.70012</course><type>1</type></trkpt>
      <trkpt lat="39.37093282886373" lon="-5.7884163189111"><ele>2425</ele><speed>8.05</speed><time>2016-07-09T14:54:26Z</time><pdop>4.0</pdop><geoidheight>50.80</geoidheight><course>148.66699</course><type>1</type></trkpt>
      <trkpt lat="39.37082761051346" lon="-5.788313950320372"><ele>2429</ele><speed>7.76</speed><time>2016-07-09T14:54:29Z</time><pdop>8.0</pdop><geoidheight>50.80</geoidheight><course>145.92189</course><type>1</type></trkpt>
      <trkpt lat="39.37072210026433" lon="-5.788211957837752"><ele>2435</ele><speed>7.63</speed><time>2016-07-09T14:54:30Z</time><pdop>6.0</pdop><geoidheight>50.80</geoidheight><course>148.97446</course><type>1</type></trkpt>
      <trkpt lat="39.370605116460645" lon="-5.788062869606193"><ele>2440</ele><speed>9.15</speed><time>2016-07-09T14:54:32Z</time><pdop>6.0</pdop><geoidheight>50.80</geoidheight><course>133.51253</course><type>1</type></trkpt>
      <trkpt lat="39.370480341748156" lon="-5.7878989394944576"><ele>2442</ele><speed>9.35</speed><time>2016-07-09T14:54:34Z</time><pdop>6.0</pdop><geoidheight>50.80</geoidheight><course>137.43</course><type>1</type></trkpt>
      <trkpt lat="39.370362831288226" lon="-5.787765347395332"><ele>2444</ele><speed>7.55</speed><time>2016-07-09T14:54:36Z</time><pdop>6.0</pdop><geoidheight>50.80</geoidheight><course>138.98083</course><type>1</type></trkpt>
      <trkpt lat="39.370272250963225" lon="-5.787632542393768"><ele>2447</ele><speed>6.28</speed><time>2016-07-09T14:54:39Z</time><pdop>8.0</pdop><geoidheight>50.80</geoidheight><course>123.258316</course><type>1</type></trkpt>
      <trkpt lat="39.370223671139115" lon="-5.787391762964162"><ele>2455</ele><speed>7.50</speed><time>2016-07-09T14:54:42Z</time><pdop>8.0</pdop><geoidheight>50.80</geoidheight><course>98.79452</course><type>1</type></trkpt>
      <trkpt lat="39.37019284707611" lon="-5.787162287666161"><ele>2461</ele><speed>6.01</speed><time>2016-07-09T14:54:45Z</time><pdop>8.0</pdop><geoidheight>50.80</geoidheight><course>98.80376</course><type>1</type></trkpt>
      <trkpt lat="39.370169093421346" lon="-5.786941692911374"><ele>2469</ele><speed>4.99</speed><time>2016-07-09T14:54:48Z</time><pdop>8.0</pdop><geoidheight>50.80</geoidheight><course>99.189186</course><type>1</type></trkpt>
      <trkpt lat="39.370137827945776" lon="-5.786734537594733"><ele>2477</ele><speed>5.70</speed><time>2016-07-09T14:54:51Z</time><pdop>8.0</pdop><geoidheight>50.80</geoidheight><course>114.232</course><type>1</type></trkpt>
      <trkpt lat="39.37008410950315" lon="-5.786579928746185"><ele>2483</ele><speed>7.18</speed><time>2016-07-09T14:54:53Z</time><pdop>6.0</pdop><geoidheight>50.80</geoidheight><course>117.83134</course><type>1</type></trkpt>
      <trkpt lat="39.370003134538806" lon="-5.786441137793923"><ele>2488</ele><speed>7.71</speed><time>2016-07-09T14:54:55Z</time><pdop>6.0</pdop><geoidheight>50.80</geoidheight><course>135.38316</course><type>1</type></trkpt>
      <trkpt lat="39.36990809067371" lon="-5.786330554739922"><ele>2495</ele><speed>6.38</speed><time>2016-07-09T14:54:57Z</time><pdop>6.0</pdop><geoidheight>50.80</geoidheight><course>140.85428</course><type>1</type></trkpt>
      <trkpt lat="39.3698127035592" lon="-5.78622840526323"><ele>2501</ele><speed>7.48</speed><time>2016-07-09T14:54:59Z</time><pdop>6.0</pdop><geoidheight>50.80</geoidheight><course>140.06023</course><type>1</type></trkpt>
      <trkpt lat="39.36970370244855" lon="-5.786102606885709"><ele>2506</ele><speed>8.72</speed><time>2016-07-09T14:55:01Z</time><pdop>6.0</pdop><geoidheight>50.80</geoidheight><course>138.97028</course><type>1</type></trkpt>
      <trkpt lat="39.36960438325389" lon="-5.7859696650736625"><ele>2511</ele><speed>7.25</speed><time>2016-07-09T14:55:03Z</time><pdop>6.0</pdop><geoidheight>50.80</geoidheight><course>133.15111</course><type>1</type></trkpt>
      <trkpt lat="39.36955134250906" lon="-5.785813767877693"><ele>2516</ele><speed>7.06</speed><time>2016-07-09T14:55:05Z</time><pdop>6.0</pdop><geoidheight>50.80</geoidheight><course>112.50278</course><type>1</type></trkpt>
      <trkpt lat="39.3694964188045" lon="-5.785649010045637"><ele>2520</ele><speed>7.44</speed><time>2016-07-09T14:55:07Z</time><pdop>8.0</pdop><geoidheight>50.80</geoidheight><course>114.97387</course><type>1</type></trkpt>
      <trkpt lat="39.369406414046" lon="-5.785502992470689"><ele>2525</ele><speed>7.93</speed><time>2016-07-09T14:55:09Z</time><pdop>8.0</pdop><geoidheight>50.80</geoidheight><course>132.04887</course><type>1</type></trkpt>
      <trkpt lat="39.36923021245227" lon="-5.7853734895716356"><ele>2531</ele><speed>9.14</speed><time>2016-07-09T14:55:12Z</time><pdop>6.0</pdop><geoidheight>50.80</geoidheight><course>160.0319</course><type>1</type></trkpt>
      <trkpt lat="39.369052139660724" lon="-5.785348747423253"><ele>2535</ele><speed>10.94</speed><time>2016-07-09T14:55:15Z</time><pdop>6.0</pdop><geoidheight>50.80</geoidheight><course>177.48097</course><type>1</type></trkpt>
      <trkpt lat="39.36894579767322" lon="-5.785376973770531"><ele>2538</ele><speed>11.95</speed><time>2016-07-09T14:55:15Z</time><pdop>6.0</pdop><geoidheight>50.80</geoidheight><course>193.34514</course><type>1</type></trkpt>
      <trkpt lat="39.36883000147366" lon="-5.785411652621366"><ele>2541</ele><speed>12.72</speed><time>2016-07-09T14:55:16Z</time><pdop>6.0</pdop><geoidheight>50.80</geoidheight><course>195.07686</course><type>1</type></trkpt>
      <trkpt lat="39.3686021386325" lon="-5.7854990143454215"><ele>2546</ele><speed>11.80</speed><time>2016-07-09T14:55:18Z</time><pdop>8.0</pdop><geoidheight>50.80</geoidheight><course>199.83838</course><type>1</type></trkpt>
      <trkpt lat="39.36846988006247" lon="-5.785652922231435"><ele>2550</ele><speed>10.26</speed><time>2016-07-09T14:55:21Z</time><pdop>8.0</pdop><geoidheight>50.80</geoidheight><course>233.88788</course><type>1</type></trkpt>
      <trkpt lat="39.36835991307208" lon="-5.785858430059893"><ele>2553</ele><speed>12.08</speed><time>2016-07-09T14:55:23Z</time><pdop>8.0</pdop><geoidheight>50.80</geoidheight><course>240.06967</course><type>1</type></trkpt>
      <trkpt lat="39.36834733666883" lon="-5.786136888510702"><ele>2556</ele><speed>13.44</speed><time>2016-07-09T14:55:25Z</time><pdop>8.0</pdop><geoidheight>50.80</geoidheight><course>275.4738</course><type>1</type></trkpt>
      <trkpt lat="39.368443700086516" lon="-5.786378564096568"><ele>2559</ele><speed>12.27</speed><time>2016-07-09T14:55:26Z</time><pdop>8.0</pdop><geoidheight>50.80</geoidheight><course>308.62888</course><type>1</type></trkpt>
      <trkpt lat="39.368590377221985" lon="-5.786597210220215"><ele>2562</ele><speed>11.57</speed><time>2016-07-09T14:55:28Z</time><pdop>12.0</pdop><geoidheight>50.80</geoidheight><course>313.1672</course><type>1</type></trkpt>
      <trkpt lat="39.36879726960198" lon="-5.786851686040523"><ele>2568</ele><speed>10.53</speed><time>2016-07-09T14:55:31Z</time><pdop>12.0</pdop><geoidheight>50.80</geoidheight><course>316.33908</course><type>1</type></trkpt>
      <trkpt lat="39.36899562241377" lon="-5.786917262155123"><ele>2573</ele><speed>11.50</speed><time>2016-07-09T14:55:33Z</time><pdop>8.0</pdop><geoidheight>50.80</geoidheight><course>359.2591</course><type>1</type></trkpt>
      <trkpt lat="39.36918380818448" lon="-5.786928565190235"><ele>2578</ele><speed>10.13</speed><time>2016-07-09T14:55:36Z</time><pdop>8.0</pdop><geoidheight>50.80</geoidheight><course>2.623405</course><type>1</type></trkpt>
      <trkpt lat="39.3693646618619" lon="-5.78690224551991"><ele>2585</ele><speed>9.35</speed><time>2016-07-09T14:55:37Z</time><pdop>8.0</pdop><geoidheight>50.80</geoidheight><course>8.690464</course><type>1</type></trkpt>
      <trkpt lat="39.36958059424707" lon="-5.786739139351995"><ele>2592</ele><speed>7.96</speed><time>2016-07-09T14:55:40Z</time><pdop>6.0</pdop><geoidheight>50.80</geoidheight><course>48.283924</course><type>1</type></trkpt>
      <trkpt lat="39.369684032007314" lon="-5.786585607898079"><ele>2598</ele><speed>6.92</speed><time>2016-07-09T14:55:42Z</time><pdop>8.0</pdop><geoidheight>50.80</geoidheight><course>64.92599</course><type>1</type></trkpt>
      <trkpt lat="39.36971773411239" lon="-5.786331982188822"><ele>2607</ele><speed>6.67</speed><time>2016-07-09T14:55:46Z</time><pdop>8.0</pdop><geoidheight>50.80</geoidheight><course>105.55078</course><type>1</type></trkpt>
      <trkpt lat="39.36964615607396" lon="-5.7861288916333535"><ele>2616</ele><speed>6.17</speed><time>2016-07-09T14:55:49Z</time><pdop>8.0</pdop><geoidheight>50.80</geoidheight><course>124.73638</course><type>1</type></trkpt>
      <trkpt lat="39.36954801651526" lon="-5.785991566235355"><ele>2621</ele><speed>9.19</speed><time>2016-07-09T14:55:50Z</time><pdop>6.0</pdop><geoidheight>50.80</geoidheight><course>144.16551</course><type>1</type></trkpt>
      <trkpt lat="39.36937047661693" lon="-5.785935980214917"><ele>2624</ele><speed>10.64</speed><time>2016-07-09T14:55:52Z</time><pdop>8.0</pdop><geoidheight>50.80</geoidheight><course>176.08493</course><type>1</type></trkpt>
      <trkpt lat="39.36917869569919" lon="-5.785974439904793"><ele>2628</ele><speed>10.94</speed><time>2016-07-09T14:55:54Z</time><pdop>8.0</pdop><geoidheight>50.80</geoidheight><course>194.1121</course><type>1</type></trkpt>
      <trkpt lat="39.369007930523416" lon="-5.786103353443735"><ele>2631</ele><speed>11.15</speed><time>2016-07-09T14:55:56Z</time><pdop>6.0</pdop><geoidheight>50.80</geoidheight><course>213.15953</course><type>1</type></trkpt>
      <trkpt lat="39.368866042249074" lon="-5.786314216799706"><ele>2631</ele><speed>12.85</speed><time>2016-07-09T14:55:59Z</time><pdop>8.0</pdop><geoidheight>50.80</geoidheight><course>231.48302</course><type>1</type></trkpt>
      <trkpt lat="39.3688130054436" lon="-5.786566095348817"><ele>2630</ele><speed>11.64</speed><time>2016-07-09T14:56:00Z</time><pdop>8.0</pdop><geoidheight>50.80</geoidheight><course>263.54318</course><type>1</type></trkpt>
      <trkpt lat="39.368794100795085" lon="-5.786841436568598"><ele>2630</ele><speed>10.51</speed><time>2016-07-09T14:56:02Z</time><pdop>8.0</pdop><geoidheight>50.80</geoidheight><course>269.3062</course><type>1</type></trkpt>
      <trkpt lat="39.36884058332997" lon="-5.787099128720457"><ele>2631</ele><speed>11.91</speed><time>2016-07-09T14:56:04Z</time><pdop>8.0</pdop><geoidheight>50.80</geoidheight><course>285.6549</course><type>1</type></trkpt>
      <trkpt lat="39.36894225446718" lon="-5.78734610627272"><ele>2632</ele><speed>12.93</speed><time>2016-07-09T14:56:06Z</time><pdop>8.0</pdop><geoidheight>50.80</geoidheight><course>306.15518</course><type>1</type></trkpt>
      <trkpt lat="39.369076724467206" lon="-5.787568729957321"><ele>2635</ele><speed>11.54</speed><time>2016-07-09T14:56:08Z</time><pdop>8.0</pdop><geoidheight>50.80</geoidheight><course>311.02646</course><type>1</type></trkpt>
      <trkpt lat="39.36921762902636" lon="-5.787758996437435"><ele>2639</ele><speed>11.31</speed><time>2016-07-09T14:56:10Z</time><pdop>6.0</pdop><geoidheight>50.80</geoidheight><course>315.63083</course><type>1</type></trkpt>
      <trkpt lat="39.36938247683312" lon="-5.787882423258278"><ele>2643</ele><speed>12.25</speed><time>2016-07-09T14:56:12Z</time><pdop>8.0</pdop><geoidheight>50.80</geoidheight><course>335.70685</course><type>1</type></trkpt>
      <trkpt lat="39.36954230492348" lon="-5.787966711895239"><ele>2647</ele><speed>9.85</speed><time>2016-07-09T14:56:14Z</time><pdop>8.0</pdop><geoidheight>50.80</geoidheight><course>336.82343</course><type>1</type></trkpt>
      <trkpt lat="39.369718103324146" lon="-5.788072517687868"><ele>2652</ele><speed>9.87</speed><time>2016-07-09T14:56:16Z</time><pdop>6.0</pdop><geoidheight>50.80</geoidheight><course>333.79712</course><type>1</type></trkpt>
      <trkpt lat="39.3698919201165" lon="-5.788152639757625"><ele>2656</ele><speed>9.27</speed><time>2016-07-09T14:56:18Z</time><pdop>6.0</pdop><geoidheight>50.80</geoidheight><course>349.9126</course><type>1</type></trkpt>
      <trkpt lat="39.37005155035006" lon="-5.788120185716612"><ele>2659</ele><speed>8.23</speed><time>2016-07-09T14:56:21Z</time><pdop>8.0</pdop><geoidheight>50.80</geoidheight><course>22.178795</course><type>1</type></trkpt>
      <trkpt lat="39.37023475534093" lon="-5.788033948559875"><ele>2664</ele><speed>5.87</speed><time>2016-07-09T14:56:23Z</time><pdop>8.0</pdop><geoidheight>50.80</geoidheight><course>21.486898</course><type>1</type></trkpt>
      <trkpt lat="39.37033330080143" lon="-5.7878864600870275"><ele>2669</ele><speed>6.54</speed><time>2016-07-09T14:56:26Z</time><pdop>6.0</pdop><geoidheight>50.80</geoidheight><course>89.67764</course><type>1</type></trkpt>
      <trkpt lat="39.37029308613577" lon="-5.787745889369272"><ele>2672</ele><speed>7.54</speed><time>2016-07-09T14:56:28Z</time><pdop>6.0</pdop><geoidheight>50.80</geoidheight><course>123.775475</course><type>1</type></trkpt>
      <trkpt lat="39.37020946649646" lon="-5.787629580391513"><ele>2675</ele><speed>7.69</speed><time>2016-07-09T14:56:31Z</time><pdop>6.0</pdop><geoidheight>50.80</geoidheight><course>148.85432</course><type>1</type></trkpt>
      <trkpt lat="39.37007026158858" lon="-5.787563192285604"><ele>2678</ele><speed>9.52</speed><time>2016-07-09T14:56:32Z</time><pdop>8.0</pdop><geoidheight>50.80</geoidheight><course>173.05807</course><type>1</type></trkpt>
      <trkpt lat="39.36986805457673" lon="-5.787562904442865"><ele>2681</ele><speed>10.25</speed><time>2016-07-09T14:56:34Z</time><pdop>8.0</pdop><geoidheight>50.80</geoidheight><course>188.42519</course><type>1</type></trkpt>
      <trkpt lat="39.36967653560447" lon="-5.7876030498518976"><ele>2683</ele><speed>11.96</speed><time>2016-07-09T14:56:37Z</time><pdop>8.0</pdop><geoidheight>50.80</geoidheight><course>189.38463</course><type>1</type></trkpt>
      <trkpt lat="39.36947008610444" lon="-5.787629102909115"><ele>2684</ele><speed>12.34</speed><time>2016-07-09T14:56:38Z</time><pdop>6.0</pdop><geoidheight>50.80</geoidheight><course>185.07414</course><type>1</type></trkpt>
      <trkpt lat="39.36935537027482" lon="-5.7876077676830295"><ele>2685</ele><speed>12.30</speed><time>2016-07-09T14:56:39Z</time><pdop>6.0</pdop><geoidheight>50.80</geoidheight><course>171.80608</course><type>1</type></trkpt>
      <trkpt lat="39.36924679294682" lon="-5.787587105311774"><ele>2685</ele><speed>11.81</speed><time>2016-07-09T14:56:40Z</time><pdop>6.0</pdop><geoidheight>50.80</geoidheight><course>170.963</course><type>1</type></trkpt>
      <trkpt lat="39.369041169405065" lon="-5.787545723265227"><ele>2687</ele><speed>10.33</speed><time>2016-07-09T14:56:42Z</time><pdop>6.0</pdop><geoidheight>50.80</geoidheight><course>171.48549</course><type>1</type></trkpt>
      <trkpt lat="39.36886255811404" lon="-5.787505495420702"><ele>2689</ele><speed>9.89</speed><time>2016-07-09T14:56:44Z</time><pdop>8.0</pdop><geoidheight>50.80</geoidheight><course>170.02695</course><type>1</type></trkpt>
      <trkpt lat="39.368680141645044" lon="-5.787466895488614"><ele>2690</ele><speed>11.35</speed><time>2016-07-09T14:56:46Z</time><pdop>8.0</pdop><geoidheight>50.80</geoidheight><course>172.38947</course><type>1</type></trkpt>
      <trkpt lat="39.36847427231785" lon="-5.7874390480054485"><ele>2691</ele><speed>10.70</speed><time>2016-07-09T14:56:48Z</time><pdop>6.0</pdop><geoidheight>50.80</geoidheight><course>174.50351</course><type>1</type></trkpt>
      <trkpt lat="39.36826417449808" lon="-5.7874142648608995"><ele>2693</ele><speed>11.78</speed><time>2016-07-09T14:56:50Z</time><pdop>6.0</pdop><geoidheight>50.80</geoidheight><course>174.02382</course><type>1</type></trkpt>
      <trkpt lat="39.36815349806311" lon="-5.787401964659792"><ele>2694</ele><speed>12.68</speed><time>2016-07-09T14:56:51Z</time><pdop>6.0</pdop><geoidheight>50.80</geoidheight><course>174.41806</course><type>1</type></trkpt>
      <trkpt lat="39.368041026977544" lon="-5.787393811383362"><ele>2695</ele><speed>12.82</speed><time>2016-07-09T14:56:52Z</time><pdop>6.0</pdop><geoidheight>50.80</geoidheight><course>175.0391</course><type>1</type></trkpt>
      <trkpt lat="39.36783699514428" lon="-5.787375007639126"><ele>2697</ele><speed>10.06</speed><time>2016-07-09T14:56:54Z</time><pdop>6.0</pdop><geoidheight>50.80</geoidheight><course>173.57613</course><type>1</type></trkpt>
      <trkpt lat="39.3676771266368" lon="-5.7873377472692455"><ele>2701</ele><speed>8.81</speed><time>2016-07-09T14:56:56Z</time><pdop>6.0</pdop><geoidheight>50.80</geoidheight><course>168.69908</course><type>1</type></trkpt>
      <trkpt lat="39.36749570187912" lon="-5.787275261073336"><ele>2705</ele><speed>11.51</speed><time>2016-07-09T14:56:58Z</time><pdop>6.0</pdop><geoidheight>50.80</geoidheight><course>166.25893</course><type>1</type></trkpt>
      <trkpt lat="39.36731490292726" lon="-5.787217256652552"><ele>2709</ele><speed>8.22</speed><time>2016-07-09T14:57:00Z</time><pdop>6.0</pdop><geoidheight>50.80</geoidheight><course>169.92802</course><type>1</type></trkpt>
      <trkpt lat="39.36714310593264" lon="-5.787175562539755"><ele>2717</ele><speed>8.53</speed><time>2016-07-09T14:57:03Z</time><pdop>8.0</pdop><geoidheight>50.80</geoidheight><course>171.1389</course><type>1</type></trkpt>
      <trkpt lat="39.366954293963595" lon="-5.787132570211693"><ele>2721</ele><speed>11.35</speed><time>2016-07-09T14:57:05Z</time><pdop>8.0</pdop><geoidheight>50.80</geoidheight><course>170.96825</course><type>1</type></trkpt>
      <trkpt lat="39.366763968901665" lon="-5.787060559074912"><ele>2727</ele><speed>10.22</speed><time>2016-07-09T14:57:07Z</time><pdop>6.0</pdop><geoidheight>50.80</geoidheight><course>164.20682</course><type>1</type></trkpt>
      <trkpt lat="39.366609276392474" lon="-5.786978057324934"><ele>2735</ele><speed>8.88</speed><time>2016-07-09T14:57:09Z</time><pdop>6.0</pdop><geoidheight>50.80</geoidheight><course>161.7137</course><type>1</type></trkpt>
      <trkpt lat="39.366462778839434" lon="-5.786902514402514"><ele>2742</ele><speed>9.04</speed><time>2016-07-09T14:57:11Z</time><pdop>6.0</pdop><geoidheight>50.80</geoidheight><course>163.0639</course><type>1</type></trkpt>
      <trkpt lat="39.366304050235385" lon="-5.786825340510864"><ele>2747</ele><speed>9.68</speed><time>2016-07-09T14:57:13Z</time><pdop>6.0</pdop><geoidheight>50.80</geoidheight><course>163.03418</course><type>1</type></trkpt>
      <trkpt lat="39.36614218050356" lon="-5.78674737770972"><ele>2752</ele><speed>8.95</speed><time>2016-07-09T14:57:15Z</time><pdop>6.0</pdop><geoidheight>50.80</geoidheight><course>161.23582</course><type>1</type></trkpt>
      <trkpt lat="39.3660062796483" lon="-5.786684791712505"><ele>2756</ele><speed>7.22</speed><time>2016-07-09T14:57:17Z</time><pdop>6.0</pdop><geoidheight>50.80</geoidheight><course>161.65822</course><type>1</type></trkpt>
      <trkpt lat="39.365875239159855" lon="-5.786606979168741"><ele>2761</ele><speed>8.60</speed><time>2016-07-09T14:57:19Z</time><pdop>6.0</pdop><geoidheight>50.80</geoidheight><course>155.39917</course><type>1</type></trkpt>
      <trkpt lat="39.36573879674523" lon="-5.786518703121526"><ele>2767</ele><speed>7.90</speed><time>2016-07-09T14:57:21Z</time><pdop>6.0</pdop><geoidheight>50.80</geoidheight><course>155.29353</course><type>1</type></trkpt>
      <trkpt lat="39.365571888464046" lon="-5.7864170978491325"><ele>2775</ele><speed>5.99</speed><time>2016-07-09T14:57:24Z</time><pdop>8.0</pdop><geoidheight>50.80</geoidheight><course>158.16699</course><type>1</type></trkpt>
      <trkpt lat="39.365413959108515" lon="-5.786295160066916"><ele>2782</ele><speed>6.86</speed><time>2016-07-09T14:57:27Z</time><pdop>8.0</pdop><geoidheight>50.80</geoidheight><course>131.98917</course><type>1</type></trkpt>
      <trkpt lat="39.36541055231535" lon="-5.786042221576696"><ele>2787</ele><speed>8.51</speed><time>2016-07-09T14:57:31Z</time><pdop>8.0</pdop><geoidheight>50.80</geoidheight><course>99.40864</course><type>1</type></trkpt>
      <trkpt lat="39.36559048921264" lon="-5.78590574055384"><ele>2791</ele><speed>11.85</speed><time>2016-07-09T14:57:33Z</time><pdop>8.0</pdop><geoidheight>50.80</geoidheight><course>14.142567</course><type>1</type></trkpt>
      <trkpt lat="39.36576256513908" lon="-5.785943591176729"><ele>2796</ele><speed>9.39</speed><time>2016-07-09T14:57:34Z</time><pdop>8.0</pdop><geoidheight>50.80</geoidheight><course>348.14944</course><type>1</type></trkpt>
      <trkpt lat="39.36595158462023" lon="-5.78607451775184"><ele>2804</ele><speed>12.02</speed><time>2016-07-09T14:57:36Z</time><pdop>8.0</pdop><geoidheight>50.80</geoidheight><course>326.17285</course><type>1</type></trkpt>
      <trkpt lat="39.36609365035296" lon="-5.786287976843237"><ele>2814</ele><speed>11.31</speed><time>2016-07-09T14:57:38Z</time><pdop>8.0</pdop><geoidheight>50.80</geoidheight><course>306.0631</course><type>1</type></trkpt>
      <trkpt lat="39.366156698082044" lon="-5.786548412637536"><ele>2821</ele><speed>9.68</speed><time>2016-07-09T14:57:41Z</time><pdop>12.0</pdop><geoidheight>50.80</geoidheight><course>271.30698</course><type>1</type></trkpt>
      <trkpt lat="39.36602345579634" lon="-5.7868106074108905"><ele>2831</ele><speed>8.69</speed><time>2016-07-09T14:57:43Z</time><pdop>8.0</pdop><geoidheight>50.80</geoidheight><course>204.97643</course><type>1</type></trkpt>
      <trkpt lat="39.36588102142803" lon="-5.786709079924813"><ele>2838</ele><speed>6.48</speed><time>2016-07-09T14:57:46Z</time><pdop>8.0</pdop><geoidheight>50.80</geoidheight><course>122.325</course><type>1</type></trkpt>
      <trkpt lat="39.36590384324052" lon="-5.7864787573697685"><ele>2850</ele><speed>7.26</speed><time>2016-07-09T14:57:49Z</time><pdop>8.0</pdop><geoidheight>50.80</geoidheight><course>64.11722</course><type>1</type></trkpt>
      <trkpt lat="39.36602036758421" lon="-5.786338153314573"><ele>2858</ele><speed>10.09</speed><time>2016-07-09T14:57:51Z</time><pdop>8.0</pdop><geoidheight>50.80</geoidheight><course>38.06076</course><type>1</type></trkpt>
      <trkpt lat="39.36620579036587" lon="-5.786256976122586"><ele>2865</ele><speed>11.53</speed><time>2016-07-09T14:57:54Z</time><pdop>6.0</pdop><geoidheight>50.80</geoidheight><course>5.877463</course><type>1</type></trkpt>
      <trkpt lat="39.36646830238064" lon="-5.7863268363576505"><ele>2872</ele><speed>16.06</speed><time>2016-07-09T14:57:55Z</time><pdop>12.0</pdop><geoidheight>50.80</geoidheight><course>331.66034</course><type>1</type></trkpt>
      <trkpt lat="39.36662690409459" lon="-5.786568783276176"><ele>2879</ele><speed>14.46</speed><time>2016-07-09T14:57:57Z</time><pdop>12.0</pdop><geoidheight>50.80</geoidheight><course>309.9484</course><type>1</type></trkpt>
      <trkpt lat="39.36663792214585" lon="-5.78698255323554"><ele>2887</ele><speed>11.05</speed><time>2016-07-09T14:58:01Z</time><pdop>12.0</pdop><geoidheight>50.80</geoidheight><course>250.78793</course><type>1</type></trkpt>
      <trkpt lat="39.366529209742694" lon="-5.787185546693831"><ele>2892</ele><speed>10.06</speed><time>2016-07-09T14:58:02Z</time><pdop>8.0</pdop><geoidheight>50.80</geoidheight><course>223.62407</course><type>1</type></trkpt>
      <trkpt lat="39.366385211339995" lon="-5.787294065537179"><ele>2895</ele><speed>8.81</speed><time>2016-07-09T14:58:04Z</time><pdop>8.0</pdop><geoidheight>50.80</geoidheight><course>207.25583</course><type>1</type></trkpt>
      <trkpt lat="39.36619476141184" lon="-5.787311861924464"><ele>2903</ele><speed>6.45</speed><time>2016-07-09T14:58:07Z</time><pdop>8.0</pdop><geoidheight>50.80</geoidheight><course>169.7645</course><type>1</type></trkpt>
      <trkpt lat="39.36607582744727" lon="-5.787180932938121"><ele>2914</ele><speed>5.90</speed><time>2016-07-09T14:58:11Z</time><pdop>6.0</pdop><geoidheight>50.80</geoidheight><course>118.86537</course><type>1</type></trkpt>
      <trkpt lat="39.36605476638222" lon="-5.7869999111410255"><ele>2922</ele><speed>5.31</speed><time>2016-07-09T14:58:13Z</time><pdop>8.0</pdop><geoidheight>50.80</geoidheight><course>74.06002</course><type>1</type></trkpt>
      <trkpt lat="39.36618454401228" lon="-5.786825843916617"><ele>2930</ele><speed>8.27</speed><time>2016-07-09T14:58:17Z</time><pdop>8.0</pdop><geoidheight>50.80</geoidheight><course>28.141731</course><type>1</type></trkpt>
      <trkpt lat="39.36634640461951" lon="-5.786753187596441"><ele>2934</ele><speed>10.54</speed><time>2016-07-09T14:58:18Z</time><pdop>8.0</pdop><geoidheight>50.80</geoidheight><course>6.1602845</course><type>1</type></trkpt>
      <trkpt lat="39.36655756741139" lon="-5.7868052028380355"><ele>2939</ele><speed>12.78</speed><time>2016-07-09T14:58:20Z</time><pdop>8.0</pdop><geoidheight>50.80</geoidheight><course>334.08453</course><type>1</type></trkpt>
      <trkpt lat="39.36673872770917" lon="-5.787029009388358"><ele>2944</ele><speed>13.55</speed><time>2016-07-09T14:58:22Z</time><pdop>8.0</pdop><geoidheight>50.80</geoidheight><course>303.8427</course><type>1</type></trkpt>
      <trkpt lat="39.36685280078644" lon="-5.7872938247657375"><ele>2949</ele><speed>12.40</speed><time>2016-07-09T14:58:24Z</time><pdop>8.0</pdop><geoidheight>50.80</geoidheight><course>284.60806</course><type>1</type></trkpt>
      <trkpt lat="39.36690310291724" lon="-5.787560815620216"><ele>2955</ele><speed>11.00</speed><time>2016-07-09T14:58:27Z</time><pdop>8.0</pdop><geoidheight>50.80</geoidheight><course>277.8365</course><type>1</type></trkpt>
      <trkpt lat="39.36685544139679" lon="-5.787794455313187"><ele>2961</ele><speed>11.68</speed><time>2016-07-09T14:58:29Z</time><pdop>8.0</pdop><geoidheight>50.80</geoidheight><course>245.69551</course><type>1</type></trkpt>
      <trkpt lat="39.36673883965152" lon="-5.787997541911678"><ele>2965</ele><speed>11.25</speed><time>2016-07-09T14:58:30Z</time><pdop>8.0</pdop><geoidheight>50.80</geoidheight><course>222.68584</course><type>1</type></trkpt>
      <trkpt lat="39.366520386858994" lon="-5.788149799311175"><ele>2968</ele><speed>13.43</speed><time>2016-07-09T14:58:32Z</time><pdop>8.0</pdop><geoidheight>50.80</geoidheight><course>205.70924</course><type>1</type></trkpt>
      <trkpt lat="39.36629408326124" lon="-5.788266980210351"><ele>2971</ele><speed>12.99</speed><time>2016-07-09T14:58:35Z</time><pdop>12.0</pdop><geoidheight>50.80</geoidheight><course>200.71034</course><type>1</type></trkpt>
      <trkpt lat="39.3660469666104" lon="-5.788347738620506"><ele>2976</ele><speed>8.44</speed><time>2016-07-09T14:58:38Z</time><pdop>8.0</pdop><geoidheight>50.80</geoidheight><course>191.8484</course><type>1</type></trkpt>
      <trkpt lat="39.3658637126398" lon="-5.788396271867013"><ele>2980</ele><speed>10.18</speed><time>2016-07-09T14:58:39Z</time><pdop>6.0</pdop><geoidheight>50.80</geoidheight><course>194.1671</course><type>1</type></trkpt>
      <trkpt lat="39.36567830022211" lon="-5.788451516201275"><ele>2983</ele><speed>10.37</speed><time>2016-07-09T14:58:41Z</time><pdop>8.0</pdop><geoidheight>50.80</geoidheight><course>192.87369</course><type>1</type></trkpt>
      <trkpt lat="39.36550692406646" lon="-5.788481384698364"><ele>2987</ele><speed>9.04</speed><time>2016-07-09T14:58:43Z</time><pdop>8.0</pdop><geoidheight>50.80</geoidheight><course>189.0018</course><type>1</type></trkpt>
      <trkpt lat="39.36533341851671" lon="-5.788490187624502"><ele>2992</ele><speed>8.87</speed><time>2016-07-09T14:58:45Z</time><pdop>6.0</pdop><geoidheight>50.80</geoidheight><course>186.37567</course><type>1</type></trkpt>
      <trkpt lat="39.36514926904402" lon="-5.788476436129207"><ele>2996</ele><speed>10.96</speed><time>2016-07-09T14:58:48Z</time><pdop>6.0</pdop><geoidheight>50.80</geoidheight><course>181.30696</course><type>1</type></trkpt>
      <trkpt lat="39.36494689288904" lon="-5.7884542035350925"><ele>2999</ele><speed>10.88</speed><time>2016-07-09T14:58:49Z</time><pdop>8.0</pdop><geoidheight>50.80</geoidheight><course>176.71518</course><type>1</type></trkpt>
      <trkpt lat="39.36477442364219" lon="-5.78840175634261"><ele>3002</ele><speed>8.03</speed><time>2016-07-09T14:58:51Z</time><pdop>8.0</pdop><geoidheight>50.80</geoidheight><course>169.62909</course><type>1</type></trkpt>
      <trkpt lat="39.36462399427264" lon="-5.788341191713362"><ele>3005</ele><speed>8.42</speed><time>2016-07-09T14:58:53Z</time><pdop>6.0</pdop><geoidheight>50.80</geoidheight><course>167.22385</course><type>1</type></trkpt>
      <trkpt lat="39.36445497019477" lon="-5.788272618997324"><ele>3009</ele><speed>10.98</speed><time>2016-07-09T14:58:55Z</time><pdop>6.0</pdop><geoidheight>50.80</geoidheight><course>166.77718</course><type>1</type></trkpt>
      <trkpt lat="39.36427638268004" lon="-5.788194030913499"><ele>3013</ele><speed>9.77</speed><time>2016-07-09T14:58:57Z</time><pdop>8.0</pdop><geoidheight>50.80</geoidheight><course>161.87509</course><type>1</type></trkpt>
      <trkpt lat="39.3641235039016" lon="-5.788097251636125"><ele>3017</ele><speed>10.01</speed><time>2016-07-09T14:58:59Z</time><pdop>8.0</pdop><geoidheight>50.80</geoidheight><course>157.37206</course><type>1</type></trkpt>
      <trkpt lat="39.36395315587512" lon="-5.7879797662900785"><ele>3023</ele><speed>10.66</speed><time>2016-07-09T14:59:01Z</time><pdop>6.0</pdop><geoidheight>50.80</geoidheight><course>157.89793</course><type>1</type></trkpt>
      <trkpt lat="39.36377533949021" lon="-5.78786212857674"><ele>3029</ele><speed>10.53</speed><time>2016-07-09T14:59:03Z</time><pdop>8.0</pdop><geoidheight>50.80</geoidheight><course>156.73195</course><type>1</type></trkpt>
      <trkpt lat="39.36359781857898" lon="-5.787752236969249"><ele>3035</ele><speed>10.52</speed><time>2016-07-09T14:59:05Z</time><pdop>8.0</pdop><geoidheight>50.80</geoidheight><course>159.43045</course><type>1</type></trkpt>
      <trkpt lat="39.36341786660698" lon="-5.787662383514524"><ele>3039</ele><speed>10.85</speed><time>2016-07-09T14:59:07Z</time><pdop>6.0</pdop><geoidheight>50.80</geoidheight><course>162.51248</course><type>1</type></trkpt>
      <trkpt lat="39.36324145194807" lon="-5.78757733411124"><ele>3044</ele><speed>10.88</speed><time>2016-07-09T14:59:10Z</time><pdop>6.0</pdop><geoidheight>50.80</geoidheight><course>160.80843</course><type>1</type></trkpt>
      <trkpt lat="39.363057661022964" lon="-5.787491078485774"><ele>3050</ele><speed>11.21</speed><time>2016-07-09T14:59:11Z</time><pdop>6.0</pdop><geoidheight>50.80</geoidheight><course>162.33824</course><type>1</type></trkpt>
      <trkpt lat="39.362870965822445" lon="-5.787410528754704"><ele>3056</ele><speed>9.62</speed><time>2016-07-09T14:59:13Z</time><pdop>6.0</pdop><geoidheight>50.80</geoidheight><course>162.4056</course><type>1</type></trkpt>
      <trkpt lat="39.362711694741826" lon="-5.787325945257875"><ele>3062</ele><speed>10.60</speed><time>2016-07-09T14:59:15Z</time><pdop>8.0</pdop><geoidheight>50.80</geoidheight><course>158.96329</course><type>1</type></trkpt>
      <trkpt lat="39.36252368326783" lon="-5.787201241881573"><ele>3070</ele><speed>11.75</speed><time>2016-07-09T14:59:17Z</time><pdop>8.0</pdop><geoidheight>50.80</geoidheight><course>155.45822</course><type>1</type></trkpt>
      <trkpt lat="39.36233550058527" lon="-5.787082162795841"><ele>3078</ele><speed>10.19</speed><time>2016-07-09T14:59:19Z</time><pdop>6.0</pdop><geoidheight>50.80</geoidheight><course>158.91585</course><type>1</type></trkpt>
      <trkpt lat="39.36217981721687" lon="-5.786988104890637"><ele>3086</ele><speed>8.58</speed><time>2016-07-09T14:59:22Z</time><pdop>6.0</pdop><geoidheight>50.80</geoidheight><course>160.66028</course><type>1</type></trkpt>
      <trkpt lat="39.36203289448678" lon="-5.786883823924162"><ele>3094</ele><speed>9.33</speed><time>2016-07-09T14:59:23Z</time><pdop>6.0</pdop><geoidheight>50.80</geoidheight><course>156.79597</course><type>1</type></trkpt>
      <trkpt lat="39.36186918206949" lon="-5.7867752798395236"><ele>3102</ele><speed>10.40</speed><time>2016-07-09T14:59:25Z</time><pdop>6.0</pdop><geoidheight>50.80</geoidheight><course>160.63615</course><type>1</type></trkpt>
      <trkpt lat="39.361688000461264" lon="-5.786678155458738"><ele>3110</ele><speed>11.13</speed><time>2016-07-09T14:59:27Z</time><pdop>6.0</pdop><geoidheight>50.80</geoidheight><course>163.54347</course><type>1</type></trkpt>
      <trkpt lat="39.36150814532656" lon="-5.7865902073161335"><ele>3118</ele><speed>9.85</speed><time>2016-07-09T14:59:29Z</time><pdop>6.0</pdop><geoidheight>50.80</geoidheight><course>165.3196</course><type>1</type></trkpt>
      <trkpt lat="39.36135327535023" lon="-5.786525765318835"><ele>3127</ele><speed>8.08</speed><time>2016-07-09T14:59:31Z</time><pdop>6.0</pdop><geoidheight>50.80</geoidheight><course>167.52019</course><type>1</type></trkpt>
      <trkpt lat="39.36120646463229" lon="-5.786469869021008"><ele>3134</ele><speed>9.20</speed><time>2016-07-09T14:59:34Z</time><pdop>8.0</pdop><geoidheight>50.80</geoidheight><course>165.80109</course><type>1</type></trkpt>
      <trkpt lat="39.36104401299052" lon="-5.78639121049933"><ele>3141</ele><speed>8.92</speed><time>2016-07-09T14:59:35Z</time><pdop>6.0</pdop><geoidheight>50.80</geoidheight><course>164.29344</course><type>1</type></trkpt>
      <trkpt lat="39.36088646860172" lon="-5.786297022111106"><ele>3149</ele><speed>8.34</speed><time>2016-07-09T14:59:37Z</time><pdop>6.0</pdop><geoidheight>50.80</geoidheight><course>160.84535</course><type>1</type></trkpt>
      <trkpt lat="39.36074542167466" lon="-5.786203806061778"><ele>3158</ele><speed>7.84</speed><time>2016-07-09T14:59:39Z</time><pdop>6.0</pdop><geoidheight>50.80</geoidheight><course>161.59262</course><type>1</type></trkpt>
      <trkpt lat="39.36060410529928" lon="-5.786115926005626"><ele>3166</ele><speed>8.49</speed><time>2016-07-09T14:59:41Z</time><pdop>8.0</pdop><geoidheight>50.80</geoidheight><course>161.30133</course><type>1</type></trkpt>
      <trkpt lat="39.36045563261124" lon="-5.786011491493646"><ele>3174</ele><speed>8.80</speed><time>2016-07-09T14:59:43Z</time><pdop>6.0</pdop><geoidheight>50.80</geoidheight><course>157.97997</course><type>1</type></trkpt>
      <trkpt lat="39.36030740026987" lon="-5.785898570346349"><ele>3181</ele><speed>8.47</speed><time>2016-07-09T14:59:45Z</time><pdop>6.0</pdop><geoidheight>50.80</geoidheight><course>156.08974</course><type>1</type></trkpt>
      <trkpt lat="39.36015759128873" lon="-5.785776503166431"><ele>3189</ele><speed>9.58</speed><time>2016-07-09T14:59:47Z</time><pdop>6.0</pdop><geoidheight>50.80</geoidheight><course>153.79231</course><type>1</type></trkpt>
      <trkpt lat="39.35999379798062" lon="-5.785630820767141"><ele>3196</ele><speed>10.13</speed><time>2016-07-09T14:59:49Z</time><pdop>6.0</pdop><geoidheight>50.80</geoidheight><course>149.96661</course><type>1</type></trkpt>
      <trkpt lat="39.359829820753056" lon="-5.785506602613048"><ele>3204</ele><speed>9.42</speed><time>2016-07-09T14:59:51Z</time><pdop>6.0</pdop><geoidheight>50.80</geoidheight><course>154.63368</course><type>1</type></trkpt>
      <trkpt lat="39.359656488141866" lon="-5.785396423337813"><ele>3212</ele><speed>10.79</speed><time>2016-07-09T14:59:53Z</time><pdop>6.0</pdop><geoidheight>50.80</geoidheight><course>156.32314</course><type>1</type></trkpt>
      <trkpt lat="39.359467703120785" lon="-5.785257526815172"><ele>3221</ele><speed>11.90</speed><time>2016-07-09T14:59:55Z</time><pdop>6.0</pdop><geoidheight>50.80</geoidheight><course>153.40323</course><type>1</type></trkpt>
      <trkpt lat="39.359370787350485" lon="-5.785184062766239"><ele>3226</ele><speed>11.71</speed><time>2016-07-09T14:59:56Z</time><pdop>6.0</pdop><geoidheight>50.80</geoidheight><course>154.33122</course><type>1</type></trkpt>
      <trkpt lat="39.35927465174129" lon="-5.785119682933072"><ele>3230</ele><speed>10.99</speed><time>2016-07-09T14:59:57Z</time><pdop>6.0</pdop><geoidheight>50.80</geoidheight><course>156.17499</course><type>1</type></trkpt>
      <trkpt lat="39.35909296119787" lon="-5.7849979814430625"><ele>3239</ele><speed>9.95</speed><time>2016-07-09T14:59:59Z</time><pdop>6.0</pdop><geoidheight>50.80</geoidheight><course>156.73004</course><type>1</type></trkpt>
      <trkpt lat="39.35892208774702" lon="-5.784870527129714"><ele>3247</ele><speed>10.65</speed><time>2016-07-09T15:00:01Z</time><pdop>6.0</pdop><geoidheight>50.80</geoidheight><course>154.48393</course><type>1</type></trkpt>
      <trkpt lat="39.35873860305844" lon="-5.784744009672825"><ele>3255</ele><speed>11.25</speed><time>2016-07-09T15:00:03Z</time><pdop>6.0</pdop><geoidheight>50.80</geoidheight><course>156.36494</course><type>1</type></trkpt>
      <trkpt lat="39.35855174071539" lon="-5.784612576525625"><ele>3261</ele><speed>11.88</speed><time>2016-07-09T15:00:05Z</time><pdop>8.0</pdop><geoidheight>50.80</geoidheight><course>153.05391</course><type>1</type></trkpt>
      <trkpt lat="39.35836218540511" lon="-5.7844549188640615"><ele>3267</ele><speed>12.08</speed><time>2016-07-09T15:00:07Z</time><pdop>8.0</pdop><geoidheight>50.80</geoidheight><course>149.86555</course><type>1</type></trkpt>
      <trkpt lat="39.35817094848472" lon="-5.784320884727512"><ele>3271</ele><speed>10.99</speed><time>2016-07-09T15:00:09Z</time><pdop>8.0</pdop><geoidheight>50.80</geoidheight><course>154.13081</course><type>1</type></trkpt>
      <trkpt lat="39.357990047468654" lon="-5.7841993198494634"><ele>3274</ele><speed>10.77</speed><time>2016-07-09T15:00:11Z</time><pdop>8.0</pdop><geoidheight>50.80</geoidheight><course>153.22867</course><type>1</type></trkpt>
      <trkpt lat="39.35781483834028" lon="-5.7840507922385145"><ele>3278</ele><speed>11.47</speed><time>2016-07-09T15:00:13Z</time><pdop>8.0</pdop><geoidheight>50.80</geoidheight><course>147.17216</course><type>1</type></trkpt>
      <trkpt lat="39.357677772561146" lon="-5.783913860654965"><ele>3283</ele><speed>8.72</speed><time>2016-07-09T15:00:15Z</time><pdop>8.0</pdop><geoidheight>50.80</geoidheight><course>144.7694</course><type>1</type></trkpt>
      <trkpt lat="39.35753518199468" lon="-5.78376072144124"><ele>3288</ele><speed>10.35</speed><time>2016-07-09T15:00:17Z</time><pdop>6.0</pdop><geoidheight>50.80</geoidheight><course>145.05038</course><type>1</type></trkpt>
      <trkpt lat="39.35736943891164" lon="-5.78359223341723"><ele>3293</ele><speed>11.69</speed><time>2016-07-09T15:00:19Z</time><pdop>8.0</pdop><geoidheight>50.80</geoidheight><course>145.02611</course><type>1</type></trkpt>
      <trkpt lat="39.35721565762099" lon="-5.783434616032434"><ele>3297</ele><speed>9.73</speed><time>2016-07-09T15:00:21Z</time><pdop>6.0</pdop><geoidheight>50.80</geoidheight><course>144.98978</course><type>1</type></trkpt>
      <trkpt lat="39.35699612306124" lon="-5.7832222399619155"><ele>3304</ele><speed>10.53</speed><time>2016-07-09T15:00:24Z</time><pdop>12.0</pdop><geoidheight>50.80</geoidheight><course>144.77487</course><type>1</type></trkpt>
      <trkpt lat="39.35675751911476" lon="-5.782963440247976"><ele>3310</ele><speed>10.56</speed><time>2016-07-09T15:00:28Z</time><pdop>8.0</pdop><geoidheight>50.80</geoidheight><course>142.30287</course><type>1</type></trkpt>
      <trkpt lat="39.3566095530609" lon="-5.78280247698896"><ele>3314</ele><speed>9.96</speed><time>2016-07-09T15:00:29Z</time><pdop>8.0</pdop><geoidheight>50.80</geoidheight><course>144.5828</course><type>1</type></trkpt>
      <trkpt lat="39.35646379579389" lon="-5.78266270230712"><ele>3318</ele><speed>10.05</speed><time>2016-07-09T15:00:31Z</time><pdop>8.0</pdop><geoidheight>50.80</geoidheight><course>146.75621</course><type>1</type></trkpt>
      <trkpt lat="39.356318386009825" lon="-5.782526970505879"><ele>3323</ele><speed>10.06</speed><time>2016-07-09T15:00:33Z</time><pdop>8.0</pdop><geoidheight>50.80</geoidheight><course>144.89334</course><type>1</type></trkpt>
      <trkpt lat="39.35615631627755" lon="-5.782385300939429"><ele>3328</ele><speed>11.28</speed><time>2016-07-09T15:00:35Z</time><pdop>8.0</pdop><geoidheight>50.80</geoidheight><course>148.40282</course><type>1</type></trkpt>
      <trkpt lat="39.35597306249984" lon="-5.782263619594127"><ele>3332</ele><speed>11.28</speed><time>2016-07-09T15:00:37Z</time><pdop>8.0</pdop><geoidheight>50.80</geoidheight><course>153.11256</course><type>1</type></trkpt>
      <trkpt lat="39.355793017944286" lon="-5.782166172372769"><ele>3338</ele><speed>9.78</speed><time>2016-07-09T15:00:39Z</time><pdop>8.0</pdop><geoidheight>50.80</geoidheight><course>156.65506</course><type>1</type></trkpt>
      <trkpt lat="39.355620817933996" lon="-5.7820755726826"><ele>3345</ele><speed>10.43</speed><time>2016-07-09T15:00:42Z</time><pdop>8.0</pdop><geoidheight>50.80</geoidheight><course>157.51915</course><type>1</type></trkpt>
      <trkpt lat="39.35544121827534" lon="-5.781964200142212"><ele>3353</ele><speed>10.99</speed><time>2016-07-09T15:00:43Z</time><pdop>6.0</pdop><geoidheight>50.80</geoidheight><course>155.55386</course><type>1</type></trkpt>
      <trkpt lat="39.355277826496305" lon="-5.781855126408335"><ele>3360</ele><speed>9.32</speed><time>2016-07-09T15:00:45Z</time><pdop>6.0</pdop><geoidheight>50.80</geoidheight><course>156.03136</course><type>1</type></trkpt>
      <trkpt lat="39.355127724207655" lon="-5.781757159510584"><ele>3366</ele><speed>9.67</speed><time>2016-07-09T15:00:47Z</time><pdop>6.0</pdop><geoidheight>50.80</geoidheight><course>154.36848</course><type>1</type></trkpt>
      <trkpt lat="39.35496508077969" lon="-5.781631803883688"><ele>3371</ele><speed>11.91</speed><time>2016-07-09T15:00:49Z</time><pdop>6.0</pdop><geoidheight>50.80</geoidheight><course>149.73756</course><type>1</type></trkpt>
      <trkpt lat="39.354793899086296" lon="-5.781493316429062"><ele>3375</ele><speed>10.85</speed><time>2016-07-09T15:00:51Z</time><pdop>8.0</pdop><geoidheight>50.80</geoidheight><course>148.43645</course><type>1</type></trkpt>
      <trkpt lat="39.354639244638896" lon="-5.7813529534342845"><ele>3379</ele><speed>9.78</speed><time>2016-07-09T15:00:53Z</time><pdop>8.0</pdop><geoidheight>50.80</geoidheight><course>145.5453</course><type>1</type></trkpt>
      <trkpt lat="39.35448089440771" lon="-5.781196105655875"><ele>3381</ele><speed>11.67</speed><time>2016-07-09T15:00:55Z</time><pdop>8.0</pdop><geoidheight>50.80</geoidheight><course>143.24683</course><type>1</type></trkpt>
      <trkpt lat="39.35432843477662" lon="-5.781034257269518"><ele>3382</ele><speed>10.67</speed><time>2016-07-09T15:00:57Z</time><pdop>8.0</pdop><geoidheight>50.80</geoidheight><course>141.59015</course><type>1</type></trkpt>
      <trkpt lat="39.354190927600825" lon="-5.780862551167406"><ele>3383</ele><speed>10.14</speed><time>2016-07-09T15:00:59Z</time><pdop>8.0</pdop><geoidheight>50.80</geoidheight><course>137.19102</course><type>1</type></trkpt>
      <trkpt lat="39.35404845664274" lon="-5.780677269152268"><ele>3384</ele><speed>10.73</speed><time>2016-07-09T15:01:01Z</time><pdop>12.0</pdop><geoidheight>50.80</geoidheight><course>139.4585</course><type>1</type></trkpt>
      <trkpt lat="39.35386837679528" lon="-5.780487882091949"><ele>3386</ele><speed>11.51</speed><time>2016-07-09T15:01:03Z</time><pdop>12.0</pdop><geoidheight>50.80</geoidheight><course>143.56868</course><type>1</type></trkpt>
      <trkpt lat="39.353699716970105" lon="-5.780312619933631"><ele>3388</ele><speed>11.58</speed><time>2016-07-09T15:01:05Z</time><pdop>12.0</pdop><geoidheight>50.80</geoidheight><course>143.91696</course><type>1</type></trkpt>
      <trkpt lat="39.35352322948074" lon="-5.780152272721488"><ele>3391</ele><speed>11.42</speed><time>2016-07-09T15:01:07Z</time><pdop>8.0</pdop><geoidheight>50.80</geoidheight><course>148.39911</course><type>1</type></trkpt>
      <trkpt lat="39.35335078928285" lon="-5.780002433183104"><ele>3394</ele><speed>11.12</speed><time>2016-07-09T15:01:09Z</time><pdop>8.0</pdop><geoidheight>50.80</geoidheight><course>147.30428</course><type>1</type></trkpt>
      <trkpt lat="39.35318310568989" lon="-5.779842664432043"><ele>3397</ele><speed>11.99</speed><time>2016-07-09T15:01:12Z</time><pdop>8.0</pdop><geoidheight>50.80</geoidheight><course>144.98546</course><type>1</type></trkpt>
      <trkpt lat="39.35300651326383" lon="-5.779695973789171"><ele>3398</ele><speed>11.74</speed><time>2016-07-09T15:01:13Z</time><pdop>8.0</pdop><geoidheight>50.80</geoidheight><course>149.4396</course><type>1</type></trkpt>
      <trkpt lat="39.352830282597665" lon="-5.779559744626894"><ele>3400</ele><speed>10.93</speed><time>2016-07-09T15:01:15Z</time><pdop>8.0</pdop><geoidheight>50.80</geoidheight><course>149.0287</course><type>1</type></trkpt>
      <trkpt lat="39.35266187148179" lon="-5.779419494668332"><ele>3402</ele><speed>11.51</speed><time>2016-07-09T15:01:17Z</time><pdop>8.0</pdop><geoidheight>50.80</geoidheight><course>148.70958</course><type>1</type></trkpt>
      <trkpt lat="39.3524671867744" lon="-5.779289907943758"><ele>3403</ele><speed>12.38</speed><time>2016-07-09T15:01:19Z</time><pdop>8.0</pdop><geoidheight>50.80</geoidheight><course>154.63248</course><type>1</type></trkpt>
      <trkpt lat="39.35227875465784" lon="-5.779182112249981"><ele>3404</ele><speed>9.72</speed><time>2016-07-09T15:01:21Z</time><pdop>8.0</pdop><geoidheight>50.80</geoidheight><course>155.52287</course><type>1</type></trkpt>
      <trkpt lat="39.35212607295516" lon="-5.779083219783057"><ele>3404</ele><speed>9.39</speed><time>2016-07-09T15:01:23Z</time><pdop>8.0</pdop><geoidheight>50.80</geoidheight><course>152.28903</course><type>1</type></trkpt>
      <trkpt lat="39.351945077903835" lon="-5.778971154788213"><ele>3404</ele><speed>12.39</speed><time>2016-07-09T15:01:25Z</time><pdop>8.0</pdop><geoidheight>50.80</geoidheight><course>154.89291</course><type>1</type></trkpt>
      <trkpt lat="39.351742766344834" lon="-5.778861244434099"><ele>3401</ele><speed>11.83</speed><time>2016-07-09T15:01:27Z</time><pdop>8.0</pdop><geoidheight>50.80</geoidheight><course>158.12247</course><type>1</type></trkpt>
      <trkpt lat="39.3515699923587" lon="-5.778778503445034"><ele>3398</ele><speed>9.50</speed><time>2016-07-09T15:01:29Z</time><pdop>8.0</pdop><geoidheight>50.80</geoidheight><course>157.1479</course><type>1</type></trkpt>
      <trkpt lat="39.351401453537626" lon="-5.778662149423469"><ele>3393</ele><speed>11.18</speed><time>2016-07-09T15:01:31Z</time><pdop>12.0</pdop><geoidheight>50.80</geoidheight><course>149.57512</course><type>1</type></trkpt>
      <trkpt lat="39.35121966213631" lon="-5.778510887334742"><ele>3387</ele><speed>11.89</speed><time>2016-07-09T15:01:34Z</time><pdop>8.0</pdop><geoidheight>50.80</geoidheight><course>146.6561</course><type>1</type></trkpt>
      <trkpt lat="39.35108194972084" lon="-5.778345395620946"><ele>3381</ele><speed>10.85</speed><time>2016-07-09T15:01:35Z</time><pdop>8.0</pdop><geoidheight>50.80</geoidheight><course>130.85826</course><type>1</type></trkpt>
      <trkpt lat="39.350955781742535" lon="-5.778150720920923"><ele>3375</ele><speed>12.39</speed><time>2016-07-09T15:01:37Z</time><pdop>8.0</pdop><geoidheight>50.80</geoidheight><course>130.90898</course><type>1</type></trkpt>
      <trkpt lat="39.35080082847275" lon="-5.777944738136408"><ele>3370</ele><speed>13.20</speed><time>2016-07-09T15:01:39Z</time><pdop>8.0</pdop><geoidheight>50.80</geoidheight><course>136.46564</course><type>1</type></trkpt>
      <trkpt lat="39.35062331908794" lon="-5.777754176535364"><ele>3366</ele><speed>12.99</speed><time>2016-07-09T15:01:41Z</time><pdop>8.0</pdop><geoidheight>50.80</geoidheight><course>140.50758</course><type>1</type></trkpt>
      <trkpt lat="39.350445612572145" lon="-5.777571501575091"><ele>3364</ele><speed>12.32</speed><time>2016-07-09T15:01:43Z</time><pdop>8.0</pdop><geoidheight>50.80</geoidheight><course>140.11206</course><type>1</type></trkpt>
      <trkpt lat="39.350261783657025" lon="-5.777382448048781"><ele>3361</ele><speed>12.78</speed><time>2016-07-09T15:01:45Z</time><pdop>8.0</pdop><geoidheight>50.80</geoidheight><course>141.88261</course><type>1</type></trkpt>
      <trkpt lat="39.35008414207041" lon="-5.777220698791804"><ele>3359</ele><speed>11.87</speed><time>2016-07-09T15:01:47Z</time><pdop>8.0</pdop><geoidheight>50.80</geoidheight><course>144.60086</course><type>1</type></trkpt>
      <trkpt lat="39.34991299060215" lon="-5.777087123187117"><ele>3356</ele><speed>11.80</speed><time>2016-07-09T15:01:50Z</time><pdop>6.0</pdop><geoidheight>50.80</geoidheight><course>146.37822</course><type>1</type></trkpt>
      <trkpt lat="39.34973892092315" lon="-5.77696721786636"><ele>3352</ele><speed>12.45</speed><time>2016-07-09T15:01:51Z</time><pdop>6.0</pdop><geoidheight>50.80</geoidheight><course>146.44548</course><type>1</type></trkpt>
      <trkpt lat="39.349644176050866" lon="-5.77690007331883"><ele>3350</ele><speed>13.06</speed><time>2016-07-09T15:01:52Z</time><pdop>6.0</pdop><geoidheight>50.80</geoidheight><course>146.6195</course><type>1</type></trkpt>
      <trkpt lat="39.34954529638532" lon="-5.77682743393481"><ele>3348</ele><speed>13.21</speed><time>2016-07-09T15:01:53Z</time><pdop>6.0</pdop><geoidheight>50.80</geoidheight><course>147.25941</course><type>1</type></trkpt>
      <trkpt lat="39.34944649862936" lon="-5.776757485262697"><ele>3346</ele><speed>12.83</speed><time>2016-07-09T15:01:54Z</time><pdop>6.0</pdop><geoidheight>50.80</geoidheight><course>147.70024</course><type>1</type></trkpt>
      <trkpt lat="39.34926389292201" lon="-5.776617753499183"><ele>3343</ele><speed>11.85</speed><time>2016-07-09T15:01:57Z</time><pdop>6.0</pdop><geoidheight>50.80</geoidheight><course>145.51666</course><type>1</type></trkpt>
      <trkpt lat="39.349098331319816" lon="-5.7764580001226"><ele>3340</ele><speed>12.04</speed><time>2016-07-09T15:01:58Z</time><pdop>8.0</pdop><geoidheight>50.80</geoidheight><course>140.75084</course><type>1</type></trkpt>
      <trkpt lat="39.348937200458955" lon="-5.776279856861943"><ele>3337</ele><speed>11.67</speed><time>2016-07-09T15:02:00Z</time><pdop>8.0</pdop><geoidheight>50.80</geoidheight><course>138.95924</course><type>1</type></trkpt>
      <trkpt lat="39.348782455644226" lon="-5.776103728304589"><ele>3335</ele><speed>10.79</speed><time>2016-07-09T15:02:02Z</time><pdop>8.0</pdop><geoidheight>50.80</geoidheight><course>138.57918</course><type>1</type></trkpt>
      <trkpt lat="39.34863463269659" lon="-5.775932478626832"><ele>3332</ele><speed>11.41</speed><time>2016-07-09T15:02:04Z</time><pdop>8.0</pdop><geoidheight>50.80</geoidheight><course>137.21187</course><type>1</type></trkpt>
      <trkpt lat="39.34847725246076" lon="-5.775740131398156"><ele>3329</ele><speed>11.71</speed><time>2016-07-09T15:02:06Z</time><pdop>8.0</pdop><geoidheight>50.80</geoidheight><course>136.79237</course><type>1</type></trkpt>
      <trkpt lat="39.34831270474452" lon="-5.775530903364872"><ele>3326</ele><speed>12.90</speed><time>2016-07-09T15:02:08Z</time><pdop>8.0</pdop><geoidheight>50.80</geoidheight><course>134.61589</course><type>1</type></trkpt>
      <trkpt lat="39.34815192940151" lon="-5.775298304101104"><ele>3323</ele><speed>13.98</speed><time>2016-07-09T15:02:10Z</time><pdop>8.0</pdop><geoidheight>50.80</geoidheight><course>130.9371</course><type>1</type></trkpt>
      <trkpt lat="39.34799513749735" lon="-5.775095696643147"><ele>3320</ele><speed>14.48</speed><time>2016-07-09T15:02:12Z</time><pdop>8.0</pdop><geoidheight>50.80</geoidheight><course>135.20686</course><type>1</type></trkpt>
      <trkpt lat="39.34778853972402" lon="-5.774870003329201"><ele>3316</ele><speed>15.43</speed><time>2016-07-09T15:02:14Z</time><pdop>8.0</pdop><geoidheight>50.80</geoidheight><course>139.24266</course><type>1</type></trkpt>
      <trkpt lat="39.34757665287015" lon="-5.774645706031051"><ele>3313</ele><speed>15.56</speed><time>2016-07-09T15:02:17Z</time><pdop>8.0</pdop><geoidheight>50.80</geoidheight><course>138.77907</course><type>1</type></trkpt>
      <trkpt lat="39.34737984462079" lon="-5.774459254142059"><ele>3309</ele><speed>14.99</speed><time>2016-07-09T15:02:18Z</time><pdop>8.0</pdop><geoidheight>50.80</geoidheight><course>142.08348</course><type>1</type></trkpt>
      <trkpt lat="39.34715209518814" lon="-5.774277109992306"><ele>3304</ele><speed>17.10</speed><time>2016-07-09T15:02:20Z</time><pdop>8.0</pdop><geoidheight>50.80</geoidheight><course>144.33243</course><type>1</type></trkpt>
      <trkpt lat="39.34691369973055" lon="-5.774088165572381"><ele>3298</ele><speed>16.32</speed><time>2016-07-09T15:02:22Z</time><pdop>8.0</pdop><geoidheight>50.80</geoidheight><course>144.9317</course><type>1</type></trkpt>
      <trkpt lat="39.34679310218306" lon="-5.773994177273974"><ele>3295</ele><speed>16.77</speed><time>2016-07-09T15:02:23Z</time><pdop>6.0</pdop><geoidheight>50.80</geoidheight><course>144.5739</course><type>1</type></trkpt>
      <trkpt lat="39.346668928812264" lon="-5.773896609789356"><ele>3293</ele><speed>17.27</speed><time>2016-07-09T15:02:24Z</time><pdop>6.0</pdop><geoidheight>50.80</geoidheight><course>143.7561</course><type>1</type></trkpt>
      <trkpt lat="39.34654571474496" lon="-5.773795089401106"><ele>3290</ele><speed>17.49</speed><time>2016-07-09T15:02:25Z</time><pdop>6.0</pdop><geoidheight>50.80</geoidheight><course>143.23802</course><type>1</type></trkpt>
      <trkpt lat="39.34641832020508" lon="-5.773686204279625"><ele>3287</ele><speed>17.97</speed><time>2016-07-09T15:02:26Z</time><pdop>6.0</pdop><geoidheight>50.80</geoidheight><course>142.31093</course><type>1</type></trkpt>
      <trkpt lat="39.34629376860856" lon="-5.773567064071792"><ele>3284</ele><speed>18.35</speed><time>2016-07-09T15:02:27Z</time><pdop>6.0</pdop><geoidheight>50.80</geoidheight><course>140.71526</course><type>1</type></trkpt>
      <trkpt lat="39.34617092806831" lon="-5.773434443394053"><ele>3281</ele><speed>19.29</speed><time>2016-07-09T15:02:28Z</time><pdop>6.0</pdop><geoidheight>50.80</geoidheight><course>138.10818</course><type>1</type></trkpt>
      <trkpt lat="39.34605167733076" lon="-5.773291372378242"><ele>3278</ele><speed>19.61</speed><time>2016-07-09T15:02:29Z</time><pdop>6.0</pdop><geoidheight>50.80</geoidheight><course>135.79478</course><type>1</type></trkpt>
      <trkpt lat="39.34593210465852" lon="-5.773135745681605"><ele>3274</ele><speed>18.96</speed><time>2016-07-09T15:02:30Z</time><pdop>6.0</pdop><geoidheight>50.80</geoidheight><course>134.50317</course><type>1</type></trkpt>
      <trkpt lat="39.34581776933991" lon="-5.772984835292701"><ele>3271</ele><speed>18.25</speed><time>2016-07-09T15:02:31Z</time><pdop>6.0</pdop><geoidheight>50.80</geoidheight><course>134.04048</course><type>1</type></trkpt>
      <trkpt lat="39.34570644883862" lon="-5.772839686007548"><ele>3268</ele><speed>16.95</speed><time>2016-07-09T15:02:32Z</time><pdop>6.0</pdop><geoidheight>50.80</geoidheight><course>134.20605</course><type>1</type></trkpt>
      <trkpt lat="39.34560444935358" lon="-5.772708317076098"><ele>3266</ele><speed>15.24</speed><time>2016-07-09T15:02:33Z</time><pdop>6.0</pdop><geoidheight>50.80</geoidheight><course>135.04027</course><type>1</type></trkpt>
      <trkpt lat="39.34551014772006" lon="-5.772589478863241"><ele>3265</ele><speed>14.62</speed><time>2016-07-09T15:02:34Z</time><pdop>6.0</pdop><geoidheight>50.80</geoidheight><course>135.42976</course><type>1</type></trkpt>
      <trkpt lat="39.34541296999185" lon="-5.77247267759149"><ele>3263</ele><speed>14.66</speed><time>2016-07-09T15:02:35Z</time><pdop>6.0</pdop><geoidheight>50.80</geoidheight><course>135.87766</course><type>1</type></trkpt>
      <trkpt lat="39.3453124319553" lon="-5.772348325070005"><ele>3263</ele><speed>15.28</speed><time>2016-07-09T15:02:36Z</time><pdop>6.0</pdop><geoidheight>50.80</geoidheight><course>136.34596</course><type>1</type></trkpt>
      <trkpt lat="39.345208088985935" lon="-5.772223318581584"><ele>3262</ele><speed>15.76</speed><time>2016-07-09T15:02:37Z</time><pdop>6.0</pdop><geoidheight>50.80</geoidheight><course>136.94371</course><type>1</type></trkpt>
      <trkpt lat="39.34510145464136" lon="-5.772097517841726"><ele>3261</ele><speed>16.32</speed><time>2016-07-09T15:02:38Z</time><pdop>6.0</pdop><geoidheight>50.80</geoidheight><course>137.39877</course><type>1</type></trkpt>
      <trkpt lat="39.34499307829376" lon="-5.7719708570248764"><ele>3260</ele><speed>16.67</speed><time>2016-07-09T15:02:39Z</time><pdop>8.0</pdop><geoidheight>50.80</geoidheight><course>137.42195</course><type>1</type></trkpt>
      <trkpt lat="39.34488203095118" lon="-5.771840204263895"><ele>3260</ele><speed>16.98</speed><time>2016-07-09T15:02:40Z</time><pdop>8.0</pdop><geoidheight>50.80</geoidheight><course>136.94038</course><type>1</type></trkpt>
      <trkpt lat="39.34476804669541" lon="-5.77170602976562"><ele>3259</ele><speed>16.95</speed><time>2016-07-09T15:02:41Z</time><pdop>8.0</pdop><geoidheight>50.80</geoidheight><course>137.27135</course><type>1</type></trkpt>
      <trkpt lat="39.344656344020144" lon="-5.771574219022786"><ele>3258</ele><speed>16.56</speed><time>2016-07-09T15:02:42Z</time><pdop>8.0</pdop><geoidheight>50.80</geoidheight><course>137.63492</course><type>1</type></trkpt>
      <trkpt lat="39.344546929671026" lon="-5.771449529535167"><ele>3258</ele><speed>16.41</speed><time>2016-07-09T15:02:43Z</time><pdop>6.0</pdop><geoidheight>50.80</geoidheight><course>138.00635</course><type>1</type></trkpt>
      <trkpt lat="39.344437854688714" lon="-5.771321422358408"><ele>3257</ele><speed>16.55</speed><time>2016-07-09T15:02:45Z</time><pdop>6.0</pdop><geoidheight>50.80</geoidheight><course>138.51405</course><type>1</type></trkpt>
      <trkpt lat="39.34432814673021" lon="-5.77119279965353"><ele>3257</ele><speed>16.71</speed><time>2016-07-09T15:02:46Z</time><pdop>6.0</pdop><geoidheight>50.80</geoidheight><course>139.00047</course><type>1</type></trkpt>
      <trkpt lat="39.344216358936066" lon="-5.7710701395674215"><ele>3257</ele><speed>16.95</speed><time>2016-07-09T15:02:46Z</time><pdop>6.0</pdop><geoidheight>50.80</geoidheight><course>139.6189</course><type>1</type></trkpt>
      <trkpt lat="39.34410147008932" lon="-5.770943822917571"><ele>3257</ele><speed>17.18</speed><time>2016-07-09T15:02:47Z</time><pdop>6.0</pdop><geoidheight>50.80</geoidheight><course>139.31415</course><type>1</type></trkpt>
      <trkpt lat="39.34398203147011" lon="-5.770810865270557"><ele>3257</ele><speed>17.04</speed><time>2016-07-09T15:02:48Z</time><pdop>6.0</pdop><geoidheight>50.80</geoidheight><course>138.90442</course><type>1</type></trkpt>
      <trkpt lat="39.34386845049172" lon="-5.770676383700475"><ele>3257</ele><speed>16.90</speed><time>2016-07-09T15:02:49Z</time><pdop>6.0</pdop><geoidheight>50.80</geoidheight><course>137.98132</course><type>1</type></trkpt>
      <trkpt lat="39.34375829196533" lon="-5.770545270621746"><ele>3257</ele><speed>17.01</speed><time>2016-07-09T15:02:50Z</time><pdop>6.0</pdop><geoidheight>50.80</geoidheight><course>137.30252</course><type>1</type></trkpt>
      <trkpt lat="39.34364852669508" lon="-5.770409567634419"><ele>3257</ele><speed>17.30</speed><time>2016-07-09T15:02:51Z</time><pdop>6.0</pdop><geoidheight>50.80</geoidheight><course>136.61356</course><type>1</type></trkpt>
      <trkpt lat="39.343536415283474" lon="-5.770272529191308"><ele>3257</ele><speed>17.65</speed><time>2016-07-09T15:02:52Z</time><pdop>6.0</pdop><geoidheight>50.80</geoidheight><course>136.67842</course><type>1</type></trkpt>
      <trkpt lat="39.34342222537945" lon="-5.770133651179398"><ele>3256</ele><speed>17.79</speed><time>2016-07-09T15:02:53Z</time><pdop>6.0</pdop><geoidheight>50.80</geoidheight><course>136.85269</course><type>1</type></trkpt>
      <trkpt lat="39.3433081337658" lon="-5.7699972395370915"><ele>3256</ele><speed>17.56</speed><time>2016-07-09T15:02:54Z</time><pdop>6.0</pdop><geoidheight>50.80</geoidheight><course>137.38336</course><type>1</type></trkpt>
      <trkpt lat="39.343191849866976" lon="-5.769867508031449"><ele>3256</ele><speed>17.10</speed><time>2016-07-09T15:02:55Z</time><pdop>8.0</pdop><geoidheight>50.80</geoidheight><course>137.9955</course><type>1</type></trkpt>
      <trkpt lat="39.34307855465365" lon="-5.769741918130105"><ele>3255</ele><speed>16.48</speed><time>2016-07-09T15:02:56Z</time><pdop>8.0</pdop><geoidheight>50.80</geoidheight><course>138.7139</course><type>1</type></trkpt>
      <trkpt lat="39.342861352183796" lon="-5.769497810184662"><ele>3254</ele><speed>15.39</speed><time>2016-07-09T15:02:58Z</time><pdop>8.0</pdop><geoidheight>50.80</geoidheight><course>137.08359</course><type>1</type></trkpt>
      <trkpt lat="39.34276007320584" lon="-5.769374443605836"><ele>3253</ele><speed>15.47</speed><time>2016-07-09T15:02:59Z</time><pdop>6.0</pdop><geoidheight>50.80</geoidheight><course>136.47156</course><type>1</type></trkpt>
      <trkpt lat="39.342656796252534" lon="-5.7692490960583065"><ele>3253</ele><speed>16.07</speed><time>2016-07-09T15:03:00Z</time><pdop>6.0</pdop><geoidheight>50.80</geoidheight><course>135.81924</course><type>1</type></trkpt>
      <trkpt lat="39.34255119909238" lon="-5.769121205718394"><ele>3251</ele><speed>16.63</speed><time>2016-07-09T15:03:01Z</time><pdop>6.0</pdop><geoidheight>50.80</geoidheight><course>135.76102</course><type>1</type></trkpt>
      <trkpt lat="39.34244288402987" lon="-5.768983580744902"><ele>3250</ele><speed>17.28</speed><time>2016-07-09T15:03:02Z</time><pdop>6.0</pdop><geoidheight>50.80</geoidheight><course>135.30254</course><type>1</type></trkpt>
      <trkpt lat="39.342333176552174" lon="-5.768843210921734"><ele>3249</ele><speed>17.79</speed><time>2016-07-09T15:03:03Z</time><pdop>6.0</pdop><geoidheight>50.80</geoidheight><course>134.54851</course><type>1</type></trkpt>
      <trkpt lat="39.34222468127483" lon="-5.768696650610662"><ele>3247</ele><speed>17.87</speed><time>2016-07-09T15:03:04Z</time><pdop>6.0</pdop><geoidheight>50.80</geoidheight><course>133.84575</course><type>1</type></trkpt>
      <trkpt lat="39.34211817537311" lon="-5.768551851271411"><ele>3246</ele><speed>17.41</speed><time>2016-07-09T15:03:05Z</time><pdop>6.0</pdop><geoidheight>50.80</geoidheight><course>133.35962</course><type>1</type></trkpt>
      <trkpt lat="39.34201888612901" lon="-5.768411886753319"><ele>3245</ele><speed>16.85</speed><time>2016-07-09T15:03:06Z</time><pdop>6.0</pdop><geoidheight>50.80</geoidheight><course>132.60254</course><type>1</type></trkpt>
      <trkpt lat="39.341918379952084" lon="-5.768262136804894"><ele>3244</ele><speed>16.77</speed><time>2016-07-09T15:03:07Z</time><pdop>6.0</pdop><geoidheight>50.80</geoidheight><course>131.48709</course><type>1</type></trkpt>
      <trkpt lat="39.341821160063034" lon="-5.768115806886297"><ele>3243</ele><speed>16.44</speed><time>2016-07-09T15:03:08Z</time><pdop>6.0</pdop><geoidheight>50.80</geoidheight><course>130.88773</course><type>1</type></trkpt>
      <trkpt lat="39.34172878526151" lon="-5.767977138993711"><ele>3242</ele><speed>16.00</speed><time>2016-07-09T15:03:09Z</time><pdop>6.0</pdop><geoidheight>50.80</geoidheight><course>130.48767</course><type>1</type></trkpt>
      <trkpt lat="39.34164007081696" lon="-5.7678365223547585"><ele>3242</ele><speed>15.67</speed><time>2016-07-09T15:03:10Z</time><pdop>6.0</pdop><geoidheight>50.80</geoidheight><course>129.88962</course><type>1</type></trkpt>
      <trkpt lat="39.341550221871586" lon="-5.7676951858814345"><ele>3241</ele><speed>15.42</speed><time>2016-07-09T15:03:11Z</time><pdop>6.0</pdop><geoidheight>50.80</geoidheight><course>130.78584</course><type>1</type></trkpt>
      <trkpt lat="39.34145787767356" lon="-5.767559748078126"><ele>3239</ele><speed>15.66</speed><time>2016-07-09T15:03:12Z</time><pdop>6.0</pdop><geoidheight>50.80</geoidheight><course>131.47754</course><type>1</type></trkpt>
      <trkpt lat="39.34136811749581" lon="-5.767429354351037"><ele>3238</ele><speed>15.46</speed><time>2016-07-09T15:03:13Z</time><pdop>6.0</pdop><geoidheight>50.80</geoidheight><course>131.84933</course><type>1</type></trkpt>
      <trkpt lat="39.34127831593694" lon="-5.76729930085297"><ele>3237</ele><speed>15.76</speed><time>2016-07-09T15:03:14Z</time><pdop>6.0</pdop><geoidheight>50.80</geoidheight><course>131.23912</course><type>1</type></trkpt>
      <trkpt lat="39.34119164406948" lon="-5.767175247677422"><ele>3235</ele><speed>14.97</speed><time>2016-07-09T15:03:15Z</time><pdop>8.0</pdop><geoidheight>50.80</geoidheight><course>131.8031</course><type>1</type></trkpt>
      <trkpt lat="39.34100660969888" lon="-5.766920944478309"><ele>3231</ele><speed>15.96</speed><time>2016-07-09T15:03:17Z</time><pdop>8.0</pdop><geoidheight>50.80</geoidheight><course>132.30093</course><type>1</type></trkpt>
      <trkpt lat="39.3408193132231" lon="-5.766667298717709"><ele>3227</ele><speed>16.58</speed><time>2016-07-09T15:03:19Z</time><pdop>8.0</pdop><geoidheight>50.80</geoidheight><course>132.00139</course><type>1</type></trkpt>
      <trkpt lat="39.34062883380227" lon="-5.766387936735747"><ele>3221</ele><speed>16.47</speed><time>2016-07-09T15:03:21Z</time><pdop>8.0</pdop><geoidheight>50.80</geoidheight><course>130.14603</course><type>1</type></trkpt>
      <trkpt lat="39.340537532056345" lon="-5.766247619825369"><ele>3218</ele><speed>16.89</speed><time>2016-07-09T15:03:22Z</time><pdop>6.0</pdop><geoidheight>50.80</geoidheight><course>129.11159</course><type>1</type></trkpt>
      <trkpt lat="39.34044885847148" lon="-5.766109553122983"><ele>3215</ele><speed>15.52</speed><time>2016-07-09T15:03:23Z</time><pdop>8.0</pdop><geoidheight>50.80</geoidheight><course>128.71922</course><type>1</type></trkpt>
      <trkpt lat="39.34029374903141" lon="-5.765823629525333"><ele>3211</ele><speed>15.83</speed><time>2016-07-09T15:03:25Z</time><pdop>8.0</pdop><geoidheight>50.80</geoidheight><course>123.47712</course><type>1</type></trkpt>
      <trkpt lat="39.340217185531124" lon="-5.7656640523374385"><ele>3208</ele><speed>17.37</speed><time>2016-07-09T15:03:26Z</time><pdop>8.0</pdop><geoidheight>50.80</geoidheight><course>122.27869</course><type>1</type></trkpt>
      <trkpt lat="39.34005242590164" lon="-5.7653777849350725"><ele>3204</ele><speed>15.88</speed><time>2016-07-09T15:03:28Z</time><pdop>8.0</pdop><geoidheight>50.80</geoidheight><course>127.40237</course><type>1</type></trkpt>
      <trkpt lat="39.339868661144834" lon="-5.76511887744113"><ele>3198</ele><speed>16.55</speed><time>2016-07-09T15:03:30Z</time><pdop>8.0</pdop><geoidheight>50.80</geoidheight><course>130.5658</course><type>1</type></trkpt>
      <trkpt lat="39.339684222796166" lon="-5.764852525910822"><ele>3192</ele><speed>17.57</speed><time>2016-07-09T15:03:32Z</time><pdop>8.0</pdop><geoidheight>50.80</geoidheight><course>127.57807</course><type>1</type></trkpt>
      <trkpt lat="39.33951558948012" lon="-5.764566736389433"><ele>3186</ele><speed>15.17</speed><time>2016-07-09T15:03:34Z</time><pdop>8.0</pdop><geoidheight>50.80</geoidheight><course>124.729706</course><type>1</type></trkpt>
      <trkpt lat="39.33935587517183" lon="-5.7642966528617965"><ele>3181</ele><speed>15.38</speed><time>2016-07-09T15:03:36Z</time><pdop>12.0</pdop><geoidheight>50.80</geoidheight><course>127.03372</course><type>1</type></trkpt>
      <trkpt lat="39.33917058277177" lon="-5.764011597079425"><ele>3178</ele><speed>16.77</speed><time>2016-07-09T15:03:38Z</time><pdop>8.0</pdop><geoidheight>50.80</geoidheight><course>129.98465</course><type>1</type></trkpt>
      <trkpt lat="39.33906717972119" lon="-5.763873603042926"><ele>3176</ele><speed>17.22</speed><time>2016-07-09T15:03:39Z</time><pdop>8.0</pdop><geoidheight>50.80</geoidheight><course>132.28888</course><type>1</type></trkpt>
      <trkpt lat="39.33896175506659" lon="-5.763741600706302"><ele>3174</ele><speed>16.59</speed><time>2016-07-09T15:03:40Z</time><pdop>8.0</pdop><geoidheight>50.80</geoidheight><course>134.15392</course><type>1</type></trkpt>
      <trkpt lat="39.33875688418504" lon="-5.763494451736275"><ele>3170</ele><speed>16.25</speed><time>2016-07-09T15:03:42Z</time><pdop>8.0</pdop><geoidheight>50.80</geoidheight><course>134.26396</course><type>1</type></trkpt>
      <trkpt lat="39.33855594565968" lon="-5.7632543352473915"><ele>3166</ele><speed>16.59</speed><time>2016-07-09T15:03:44Z</time><pdop>8.0</pdop><geoidheight>50.80</geoidheight><course>134.39932</course><type>1</type></trkpt>
      <trkpt lat="39.33834173110537" lon="-5.762996497957709"><ele>3161</ele><speed>16.76</speed><time>2016-07-09T15:03:46Z</time><pdop>8.0</pdop><geoidheight>50.80</geoidheight><course>134.34512</course><type>1</type></trkpt>
      <trkpt lat="39.338234216304365" lon="-5.762863887037517"><ele>3159</ele><speed>16.33</speed><time>2016-07-09T15:03:47Z</time><pdop>8.0</pdop><geoidheight>50.80</geoidheight><course>134.69438</course><type>1</type></trkpt>
      <trkpt lat="39.338127852781284" lon="-5.762730962169482"><ele>3157</ele><speed>16.33</speed><time>2016-07-09T15:03:48Z</time><pdop>8.0</pdop><geoidheight>50.80</geoidheight><course>134.35738</course><type>1</type></trkpt>
      <trkpt lat="39.338023418246785" lon="-5.762601702864418"><ele>3155</ele><speed>16.61</speed><time>2016-07-09T15:03:49Z</time><pdop>8.0</pdop><geoidheight>50.80</geoidheight><course>134.70938</course><type>1</type></trkpt>
      <trkpt lat="39.337917430530155" lon="-5.7624702670049155"><ele>3153</ele><speed>16.98</speed><time>2016-07-09T15:03:50Z</time><pdop>8.0</pdop><geoidheight>50.80</geoidheight><course>134.91643</course><type>1</type></trkpt>
      <trkpt lat="39.33780808961069" lon="-5.762332779778183"><ele>3151</ele><speed>17.69</speed><time>2016-07-09T15:03:51Z</time><pdop>8.0</pdop><geoidheight>50.80</geoidheight><course>134.57071</course><type>1</type></trkpt>
      <trkpt lat="39.33769884792931" lon="-5.762195763828685"><ele>3149</ele><speed>17.76</speed><time>2016-07-09T15:03:52Z</time><pdop>8.0</pdop><geoidheight>50.80</geoidheight><course>134.18591</course><type>1</type></trkpt>
      <trkpt lat="39.33758989580899" lon="-5.762059769018734"><ele>3147</ele><speed>17.77</speed><time>2016-07-09T15:03:53Z</time><pdop>8.0</pdop><geoidheight>50.80</geoidheight><course>134.62537</course><type>1</type></trkpt>
      <trkpt lat="39.33747843084735" lon="-5.761918883634625"><ele>3145</ele><speed>17.63</speed><time>2016-07-09T15:03:54Z</time><pdop>8.0</pdop><geoidheight>50.80</geoidheight><course>134.53598</course><type>1</type></trkpt>
      <trkpt lat="39.33736994274219" lon="-5.761782253983046"><ele>3142</ele><speed>17.19</speed><time>2016-07-09T15:03:55Z</time><pdop>8.0</pdop><geoidheight>50.80</geoidheight><course>134.8583</course><type>1</type></trkpt>
      <trkpt lat="39.337260262928666" lon="-5.761651663939359"><ele>3140</ele><speed>17.55</speed><time>2016-07-09T15:03:56Z</time><pdop>8.0</pdop><geoidheight>50.80</geoidheight><course>135.38431</course><type>1</type></trkpt>
      <trkpt lat="39.33714824545435" lon="-5.76151878827938"><ele>3137</ele><speed>17.81</speed><time>2016-07-09T15:03:57Z</time><pdop>8.0</pdop><geoidheight>50.80</geoidheight><course>135.61646</course><type>1</type></trkpt>
      <trkpt lat="39.337039802565336" lon="-5.761396006060114"><ele>3134</ele><speed>18.05</speed><time>2016-07-09T15:03:58Z</time><pdop>8.0</pdop><geoidheight>50.80</geoidheight><course>134.6857</course><type>1</type></trkpt>
      <trkpt lat="39.33693349026406" lon="-5.761270243297231"><ele>3132</ele><speed>18.00</speed><time>2016-07-09T15:03:59Z</time><pdop>8.0</pdop><geoidheight>50.80</geoidheight><course>133.84378</course><type>1</type></trkpt>
      <trkpt lat="39.33672185074194" lon="-5.76102312566038"><ele>3126</ele><speed>17.46</speed><time>2016-07-09T15:04:02Z</time><pdop>8.0</pdop><geoidheight>50.80</geoidheight><course>134.6319</course><type>1</type></trkpt>
      <trkpt lat="39.33661198326761" lon="-5.760898475140915"><ele>3123</ele><speed>16.49</speed><time>2016-07-09T15:04:03Z</time><pdop>8.0</pdop><geoidheight>50.80</geoidheight><course>135.48683</course><type>1</type></trkpt>
      <trkpt lat="39.33640132470059" lon="-5.760646292507684"><ele>3118</ele><speed>15.64</speed><time>2016-07-09T15:04:04Z</time><pdop>8.0</pdop><geoidheight>50.80</geoidheight><course>134.01485</course><type>1</type></trkpt>
      <trkpt lat="39.33619766620766" lon="-5.760396746283302"><ele>3115</ele><speed>15.41</speed><time>2016-07-09T15:04:07Z</time><pdop>8.0</pdop><geoidheight>50.80</geoidheight><course>135.56662</course><type>1</type></trkpt>
      <trkpt lat="39.335994299705156" lon="-5.7601723809522305"><ele>3112</ele><speed>16.27</speed><time>2016-07-09T15:04:09Z</time><pdop>8.0</pdop><geoidheight>50.80</geoidheight><course>137.37665</course><type>1</type></trkpt>
      <trkpt lat="39.33580708584533" lon="-5.759967702660366"><ele>3108</ele><speed>14.60</speed><time>2016-07-09T15:04:10Z</time><pdop>6.0</pdop><geoidheight>50.80</geoidheight><course>135.05684</course><type>1</type></trkpt>
      <trkpt lat="39.33563582286022" lon="-5.7597377244395265"><ele>3103</ele><speed>14.58</speed><time>2016-07-09T15:04:12Z</time><pdop>6.0</pdop><geoidheight>50.80</geoidheight><course>131.2045</course><type>1</type></trkpt>
      <trkpt lat="39.33555263040877" lon="-5.759623739422885"><ele>3101</ele><speed>14.79</speed><time>2016-07-09T15:04:13Z</time><pdop>6.0</pdop><geoidheight>50.80</geoidheight><course>131.15799</course><type>1</type></trkpt>
      <trkpt lat="39.335466970206134" lon="-5.759508771609342"><ele>3098</ele><speed>15.40</speed><time>2016-07-09T15:04:14Z</time><pdop>6.0</pdop><geoidheight>50.80</geoidheight><course>132.15906</course><type>1</type></trkpt>
      <trkpt lat="39.335377236920394" lon="-5.759398681012323"><ele>3096</ele><speed>15.68</speed><time>2016-07-09T15:04:15Z</time><pdop>6.0</pdop><geoidheight>50.80</geoidheight><course>133.21887</course><type>1</type></trkpt>
      <trkpt lat="39.335283669894494" lon="-5.759286121602042"><ele>3092</ele><speed>16.01</speed><time>2016-07-09T15:04:16Z</time><pdop>6.0</pdop><geoidheight>50.80</geoidheight><course>133.9016</course><type>1</type></trkpt>
      <trkpt lat="39.335185716155564" lon="-5.759175914435629"><ele>3089</ele><speed>15.93</speed><time>2016-07-09T15:04:17Z</time><pdop>6.0</pdop><geoidheight>50.80</geoidheight><course>134.58395</course><type>1</type></trkpt>
      <trkpt lat="39.3350831283322" lon="-5.759066211183533"><ele>3085</ele><speed>16.23</speed><time>2016-07-09T15:04:18Z</time><pdop>6.0</pdop><geoidheight>50.80</geoidheight><course>135.75145</course><type>1</type></trkpt>
      <trkpt lat="39.33497754633115" lon="-5.758958866045701"><ele>3082</ele><speed>16.15</speed><time>2016-07-09T15:04:19Z</time><pdop>6.0</pdop><geoidheight>50.80</geoidheight><course>137.11559</course><type>1</type></trkpt>
      <trkpt lat="39.33486950437315" lon="-5.7588572792148955"><ele>3078</ele><speed>15.59</speed><time>2016-07-09T15:04:20Z</time><pdop>6.0</pdop><geoidheight>50.80</geoidheight><course>138.80875</course><type>1</type></trkpt>
      <trkpt lat="39.3347644506312" lon="-5.758764227803972"><ele>3075</ele><speed>14.87</speed><time>2016-07-09T15:04:22Z</time><pdop>6.0</pdop><geoidheight>50.80</geoidheight><course>140.12375</course><type>1</type></trkpt>
      <trkpt lat="39.334659780399654" lon="-5.758673736592457"><ele>3072</ele><speed>14.53</speed><time>2016-07-09T15:04:22Z</time><pdop>6.0</pdop><geoidheight>50.80</geoidheight><course>140.64539</course><type>1</type></trkpt>
      <trkpt lat="39.33455565689872" lon="-5.758588760084581"><ele>3069</ele><speed>14.20</speed><time>2016-07-09T15:04:23Z</time><pdop>6.0</pdop><geoidheight>50.80</geoidheight><course>141.31433</course><type>1</type></trkpt>
      <trkpt lat="39.334452235105196" lon="-5.758503095657767"><ele>3066</ele><speed>14.40</speed><time>2016-07-09T15:04:24Z</time><pdop>6.0</pdop><geoidheight>50.80</geoidheight><course>140.45872</course><type>1</type></trkpt>
      <trkpt lat="39.33434760498235" lon="-5.758404445187644"><ele>3063</ele><speed>14.14</speed><time>2016-07-09T15:04:25Z</time><pdop>8.0</pdop><geoidheight>50.80</geoidheight><course>140.99243</course><type>1</type></trkpt>
      <trkpt lat="39.334138988718564" lon="-5.758209308128121"><ele>3058</ele><speed>13.72</speed><time>2016-07-09T15:04:27Z</time><pdop>8.0</pdop><geoidheight>50.80</geoidheight><course>142.27937</course><type>1</type></trkpt>
      <trkpt lat="39.33393435743205" lon="-5.758050313016007"><ele>3053</ele><speed>12.64</speed><time>2016-07-09T15:04:29Z</time><pdop>6.0</pdop><geoidheight>50.80</geoidheight><course>143.50577</course><type>1</type></trkpt>
      <trkpt lat="39.33384203388359" lon="-5.757971747524745"><ele>3050</ele><speed>13.57</speed><time>2016-07-09T15:04:30Z</time><pdop>6.0</pdop><geoidheight>50.80</geoidheight><course>142.52245</course><type>1</type></trkpt>
      <trkpt lat="39.333688239054574" lon="-5.757864889220467"><ele>3044</ele><speed>9.20</speed><time>2016-07-09T15:04:32Z</time><pdop>8.0</pdop><geoidheight>50.80</geoidheight><course>157.83704</course><type>1</type></trkpt>
      <trkpt lat="39.333492457840904" lon="-5.757921659429905"><ele>3038</ele><speed>9.71</speed><time>2016-07-09T15:04:34Z</time><pdop>12.0</pdop><geoidheight>50.80</geoidheight><course>193.60646</course><type>1</type></trkpt>
      <trkpt lat="39.333304094580676" lon="-5.757952964219146"><ele>3030</ele><speed>11.17</speed><time>2016-07-09T15:04:36Z</time><pdop>8.0</pdop><geoidheight>50.80</geoidheight><course>174.4811</course><type>1</type></trkpt>
      <trkpt lat="39.33309298887746" lon="-5.757876602673486"><ele>3021</ele><speed>9.92</speed><time>2016-07-09T15:04:38Z</time><pdop>8.0</pdop><geoidheight>50.80</geoidheight><course>163.02737</course><type>1</type></trkpt>
      <trkpt lat="39.332936740453675" lon="-5.757832504177999"><ele>3017</ele><speed>7.77</speed><time>2016-07-09T15:04:40Z</time><pdop>8.0</pdop><geoidheight>50.80</geoidheight><course>165.45287</course><type>1</type></trkpt>
      <trkpt lat="39.33272773993985" lon="-5.757713430951875"><ele>3010</ele><speed>10.27</speed><time>2016-07-09T15:04:43Z</time><pdop>8.0</pdop><geoidheight>50.80</geoidheight><course>145.75291</course><type>1</type></trkpt>
      <trkpt lat="39.332595429020586" lon="-5.757608016470544"><ele>3004</ele><speed>8.94</speed><time>2016-07-09T15:04:45Z</time><pdop>8.0</pdop><geoidheight>50.80</geoidheight><course>148.83577</course><type>1</type></trkpt>
      <trkpt lat="39.33248068903923" lon="-5.7575355294655575"><ele>3000</ele><speed>6.27</speed><time>2016-07-09T15:04:47Z</time><pdop>6.0</pdop><geoidheight>50.80</geoidheight><course>150.59676</course><type>1</type></trkpt>
      <trkpt lat="39.33237059919299" lon="-5.757432408313315"><ele>2998</ele><speed>9.35</speed><time>2016-07-09T15:04:49Z</time><pdop>6.0</pdop><geoidheight>50.80</geoidheight><course>133.72012</course><type>1</type></trkpt>
      <trkpt lat="39.33223968137403" lon="-5.757310619331409"><ele>2994</ele><speed>10.52</speed><time>2016-07-09T15:04:52Z</time><pdop>6.0</pdop><geoidheight>50.80</geoidheight><course>140.77142</course><type>1</type></trkpt>
      <trkpt lat="39.33208995823809" lon="-5.757184404711892"><ele>2990</ele><speed>9.85</speed><time>2016-07-09T15:04:53Z</time><pdop>6.0</pdop><geoidheight>50.80</geoidheight><course>141.31055</course><type>1</type></trkpt>
      <trkpt lat="39.33196110438192" lon="-5.757056121587643"><ele>2985</ele><speed>8.53</speed><time>2016-07-09T15:04:55Z</time><pdop>6.0</pdop><geoidheight>50.80</geoidheight><course>137.14923</course><type>1</type></trkpt>
      <trkpt lat="39.33183305608952" lon="-5.756935243037817"><ele>2981</ele><speed>8.99</speed><time>2016-07-09T15:04:57Z</time><pdop>6.0</pdop><geoidheight>50.80</geoidheight><course>142.39948</course><type>1</type></trkpt>
      <trkpt lat="39.33167934212146" lon="-5.756824454393535"><ele>2976</ele><speed>9.90</speed><time>2016-07-09T15:04:59Z</time><pdop>8.0</pdop><geoidheight>50.80</geoidheight><course>147.15813</course><type>1</type></trkpt>
      <trkpt lat="39.33153830145778" lon="-5.756730860133732"><ele>2970</ele><speed>9.09</speed><time>2016-07-09T15:05:01Z</time><pdop>6.0</pdop><geoidheight>50.80</geoidheight><course>147.4357</course><type>1</type></trkpt>
      <trkpt lat="39.331387972498135" lon="-5.756639856214699"><ele>2964</ele><speed>9.79</speed><time>2016-07-09T15:05:03Z</time><pdop>12.0</pdop><geoidheight>50.80</geoidheight><course>151.55385</course><type>1</type></trkpt>
      <trkpt lat="39.33122257881995" lon="-5.756557393146166"><ele>2959</ele><speed>10.17</speed><time>2016-07-09T15:05:05Z</time><pdop>6.0</pdop><geoidheight>50.80</geoidheight><course>156.64253</course><type>1</type></trkpt>
      <trkpt lat="39.33103781772789" lon="-5.756502223157033"><ele>2955</ele><speed>10.84</speed><time>2016-07-09T15:05:07Z</time><pdop>6.0</pdop><geoidheight>50.80</geoidheight><course>161.54483</course><type>1</type></trkpt>
      <trkpt lat="39.33086970827058" lon="-5.756455368584484"><ele>2949</ele><speed>8.86</speed><time>2016-07-09T15:05:09Z</time><pdop>6.0</pdop><geoidheight>50.80</geoidheight><course>160.23955</course><type>1</type></trkpt>
      <trkpt lat="39.33072042266674" lon="-5.756413601079399"><ele>2943</ele><speed>8.48</speed><time>2016-07-09T15:05:11Z</time><pdop>6.0</pdop><geoidheight>50.80</geoidheight><course>162.27988</course><type>1</type></trkpt>
      <trkpt lat="39.33056752130191" lon="-5.756373014933135"><ele>2937</ele><speed>9.71</speed><time>2016-07-09T15:05:13Z</time><pdop>6.0</pdop><geoidheight>50.80</geoidheight><course>161.86855</course><type>1</type></trkpt>
      <trkpt lat="39.3303933032256" lon="-5.756317494035073"><ele>2929</ele><speed>10.29</speed><time>2016-07-09T15:05:15Z</time><pdop>6.0</pdop><geoidheight>50.80</geoidheight><course>160.16652</course><type>1</type></trkpt>
      <trkpt lat="39.33030625797387" lon="-5.756288395487749"><ele>2925</ele><speed>9.68</speed><time>2016-07-09T15:05:16Z</time><pdop>4.0</pdop><geoidheight>50.80</geoidheight><course>160.80301</course><type>1</type></trkpt>
      <trkpt lat="39.33022046497642" lon="-5.7562599151579485"><ele>2921</ele><speed>9.22</speed><time>2016-07-09T15:05:17Z</time><pdop>4.0</pdop><geoidheight>50.80</geoidheight><course>161.25604</course><type>1</type></trkpt>
      <trkpt lat="39.330142589621985" lon="-5.7562328254137345"><ele>2917</ele><speed>8.69</speed><time>2016-07-09T15:05:18Z</time><pdop>4.0</pdop><geoidheight>50.80</geoidheight><course>160.35858</course><type>1</type></trkpt>
      <trkpt lat="39.33006868917952" lon="-5.75620108759092"><ele>2913</ele><speed>9.06</speed><time>2016-07-09T15:05:19Z</time><pdop>4.0</pdop><geoidheight>50.80</geoidheight><course>158.28477</course><type>1</type></trkpt>
      <trkpt lat="39.32990972994817" lon="-5.75612679542899"><ele>2905</ele><speed>10.85</speed><time>2016-07-09T15:05:21Z</time><pdop>6.0</pdop><geoidheight>50.80</geoidheight><course>156.88112</course><type>1</type></trkpt>
      <trkpt lat="39.32974289918264" lon="-5.756045391896858"><ele>2897</ele><speed>10.19</speed><time>2016-07-09T15:05:23Z</time><pdop>6.0</pdop><geoidheight>50.80</geoidheight><course>157.51671</course><type>1</type></trkpt>
      <trkpt lat="39.329576803997966" lon="-5.755974980944456"><ele>2889</ele><speed>9.73</speed><time>2016-07-09T15:05:25Z</time><pdop>4.0</pdop><geoidheight>50.80</geoidheight><course>157.79372</course><type>1</type></trkpt>
      <trkpt lat="39.3294941717961" lon="-5.755936033588573"><ele>2886</ele><speed>10.22</speed><time>2016-07-09T15:05:26Z</time><pdop>4.0</pdop><geoidheight>50.80</geoidheight><course>157.00354</course><type>1</type></trkpt>
      <trkpt lat="39.32941369657613" lon="-5.755898861005845"><ele>2882</ele><speed>9.97</speed><time>2016-07-09T15:05:27Z</time><pdop>4.0</pdop><geoidheight>50.80</geoidheight><course>157.69124</course><type>1</type></trkpt>
      <trkpt lat="39.329333896870786" lon="-5.755867987543033"><ele>2878</ele><speed>9.27</speed><time>2016-07-09T15:05:28Z</time><pdop>4.0</pdop><geoidheight>50.80</geoidheight><course>159.06207</course><type>1</type></trkpt>
      <trkpt lat="39.329253242096875" lon="-5.755837826765865"><ele>2875</ele><speed>9.51</speed><time>2016-07-09T15:05:29Z</time><pdop>4.0</pdop><geoidheight>50.80</geoidheight><course>159.87924</course><type>1</type></trkpt>
      <trkpt lat="39.329166373108" lon="-5.75580436568163"><ele>2871</ele><speed>10.64</speed><time>2016-07-09T15:05:30Z</time><pdop>4.0</pdop><geoidheight>50.80</geoidheight><course>159.36719</course><type>1</type></trkpt>
      <trkpt lat="39.32907718572388" lon="-5.755760349115799"><ele>2867</ele><speed>11.67</speed><time>2016-07-09T15:05:31Z</time><pdop>4.0</pdop><geoidheight>50.80</geoidheight><course>155.8833</course><type>1</type></trkpt>
      <trkpt lat="39.32899319026051" lon="-5.755714034854704"><ele>2863</ele><speed>10.91</speed><time>2016-07-09T15:05:32Z</time><pdop>6.0</pdop><geoidheight>50.80</geoidheight><course>153.66144</course><type>1</type></trkpt>
      <trkpt lat="39.328825538811394" lon="-5.755618983919921"><ele>2856</ele><speed>10.48</speed><time>2016-07-09T15:05:34Z</time><pdop>6.0</pdop><geoidheight>50.80</geoidheight><course>153.79733</course><type>1</type></trkpt>
      <trkpt lat="39.328658135606275" lon="-5.755534744033468"><ele>2849</ele><speed>10.28</speed><time>2016-07-09T15:05:36Z</time><pdop>4.0</pdop><geoidheight>50.80</geoidheight><course>156.49768</course><type>1</type></trkpt>
      <trkpt lat="39.32848619373646" lon="-5.755439702117216"><ele>2843</ele><speed>9.87</speed><time>2016-07-09T15:05:38Z</time><pdop>8.0</pdop><geoidheight>50.80</geoidheight><course>155.67087</course><type>1</type></trkpt>
      <trkpt lat="39.32832745953266" lon="-5.755339848005506"><ele>2838</ele><speed>9.82</speed><time>2016-07-09T15:05:40Z</time><pdop>8.0</pdop><geoidheight>50.80</geoidheight><course>151.39084</course><type>1</type></trkpt>
      <trkpt lat="39.32817412236363" lon="-5.755227565662972"><ele>2832</ele><speed>9.85</speed><time>2016-07-09T15:05:42Z</time><pdop>6.0</pdop><geoidheight>50.80</geoidheight><course>147.58105</course><type>1</type></trkpt>
      <trkpt lat="39.32802358804221" lon="-5.755120452588649"><ele>2826</ele><speed>9.57</speed><time>2016-07-09T15:05:44Z</time><pdop>6.0</pdop><geoidheight>50.80</geoidheight><course>146.76332</course><type>1</type></trkpt>
      <trkpt lat="39.32786897156719" lon="-5.754993871183583"><ele>2820</ele><speed>10.47</speed><time>2016-07-09T15:05:46Z</time><pdop>6.0</pdop><geoidheight>50.80</geoidheight><course>143.82724</course><type>1</type></trkpt>
      <trkpt lat="39.32772099297024" lon="-5.75487429242277"><ele>2811</ele><speed>10.52</speed><time>2016-07-09T15:05:48Z</time><pdop>6.0</pdop><geoidheight>50.80</geoidheight><course>145.97574</course><type>1</type></trkpt>
      <trkpt lat="39.32756110990611" lon="-5.754765807087972"><ele>2803</ele><speed>9.77</speed><time>2016-07-09T15:05:50Z</time><pdop>6.0</pdop><geoidheight>50.80</geoidheight><course>149.9205</course><type>1</type></trkpt>
      <trkpt lat="39.32742194805062" lon="-5.754685381960187"><ele>2795</ele><speed>9.41</speed><time>2016-07-09T15:05:52Z</time><pdop>6.0</pdop><geoidheight>50.80</geoidheight><course>151.45268</course><type>1</type></trkpt>
      <trkpt lat="39.32724817800318" lon="-5.754621459462527"><ele>2787</ele><speed>12.44</speed><time>2016-07-09T15:05:54Z</time><pdop>6.0</pdop><geoidheight>50.80</geoidheight><course>164.9481</course><type>1</type></trkpt>
      <trkpt lat="39.327035867587945" lon="-5.754561089114891"><ele>2778</ele><speed>12.83</speed><time>2016-07-09T15:05:56Z</time><pdop>6.0</pdop><geoidheight>50.80</geoidheight><course>165.01335</course><type>1</type></trkpt>
      <trkpt lat="39.326928689790776" lon="-5.754530246582583"><ele>2775</ele><speed>11.60</speed><time>2016-07-09T15:05:57Z</time><pdop>6.0</pdop><geoidheight>50.80</geoidheight><course>164.21942</course><type>1</type></trkpt>
      <trkpt lat="39.32672872521514" lon="-5.754451435099087"><ele>2768</ele><speed>12.14</speed><time>2016-07-09T15:05:59Z</time><pdop>8.0</pdop><geoidheight>50.80</geoidheight><course>160.35808</course><type>1</type></trkpt>
      <trkpt lat="39.32654624168199" lon="-5.7543785921331425"><ele>2761</ele><speed>11.84</speed><time>2016-07-09T15:06:01Z</time><pdop>6.0</pdop><geoidheight>50.80</geoidheight><course>159.624</course><type>1</type></trkpt>
      <trkpt lat="39.32636287819184" lon="-5.754305552862517"><ele>2753</ele><speed>11.51</speed><time>2016-07-09T15:06:04Z</time><pdop>6.0</pdop><geoidheight>50.80</geoidheight><course>157.94167</course><type>1</type></trkpt>
      <trkpt lat="39.32617962729125" lon="-5.75422640128229"><ele>2746</ele><speed>10.87</speed><time>2016-07-09T15:06:06Z</time><pdop>6.0</pdop><geoidheight>50.80</geoidheight><course>155.6011</course><type>1</type></trkpt>
      <trkpt lat="39.32601077507094" lon="-5.75409579245856"><ele>2741</ele><speed>12.65</speed><time>2016-07-09T15:06:08Z</time><pdop>8.0</pdop><geoidheight>50.80</geoidheight><course>141.45528</course><type>1</type></trkpt>
      <trkpt lat="39.32584891597126" lon="-5.753945866213784"><ele>2737</ele><speed>12.69</speed><time>2016-07-09T15:06:10Z</time><pdop>8.0</pdop><geoidheight>50.80</geoidheight><course>142.43008</course><type>1</type></trkpt>
      <trkpt lat="39.32566701741091" lon="-5.7537721190630355"><ele>2730</ele><speed>13.16</speed><time>2016-07-09T15:06:12Z</time><pdop>6.0</pdop><geoidheight>50.80</geoidheight><course>140.5553</course><type>1</type></trkpt>
      <trkpt lat="39.325573167062444" lon="-5.7536903488708875"><ele>2727</ele><speed>13.68</speed><time>2016-07-09T15:06:13Z</time><pdop>6.0</pdop><geoidheight>50.80</geoidheight><course>141.3062</course><type>1</type></trkpt>
      <trkpt lat="39.32547536441792" lon="-5.753607005106277"><ele>2724</ele><speed>13.58</speed><time>2016-07-09T15:06:14Z</time><pdop>6.0</pdop><geoidheight>50.80</geoidheight><course>141.86942</course><type>1</type></trkpt>
      <trkpt lat="39.32529224278782" lon="-5.753466735685981"><ele>2717</ele><speed>12.38</speed><time>2016-07-09T15:06:16Z</time><pdop>6.0</pdop><geoidheight>50.80</geoidheight><course>143.66742</course><type>1</type></trkpt>
      <trkpt lat="39.32519586904867" lon="-5.753399763657421"><ele>2713</ele><speed>12.05</speed><time>2016-07-09T15:06:17Z</time><pdop>6.0</pdop><geoidheight>50.80</geoidheight><course>144.32918</course><type>1</type></trkpt>
      <trkpt lat="39.325018470235406" lon="-5.753266141541437"><ele>2706</ele><speed>11.56</speed><time>2016-07-09T15:06:19Z</time><pdop>6.0</pdop><geoidheight>50.80</geoidheight><course>143.0533</course><type>1</type></trkpt>
      <trkpt lat="39.32484597927263" lon="-5.753130503883865"><ele>2700</ele><speed>10.96</speed><time>2016-07-09T15:06:21Z</time><pdop>6.0</pdop><geoidheight>50.80</geoidheight><course>144.2712</course><type>1</type></trkpt>
      <trkpt lat="39.32467714069371" lon="-5.753002384692287"><ele>2694</ele><speed>11.21</speed><time>2016-07-09T15:06:23Z</time><pdop>6.0</pdop><geoidheight>50.80</geoidheight><course>144.37311</course><type>1</type></trkpt>
      <trkpt lat="39.324590644245454" lon="-5.752935236454521"><ele>2691</ele><speed>12.48</speed><time>2016-07-09T15:06:24Z</time><pdop>4.0</pdop><geoidheight>50.80</geoidheight><course>143.32391</course><type>1</type></trkpt>
      <trkpt lat="39.32450230330294" lon="-5.75286081337627"><ele>2687</ele><speed>12.75</speed><time>2016-07-09T15:06:25Z</time><pdop>4.0</pdop><geoidheight>50.80</geoidheight><course>142.56163</course><type>1</type></trkpt>
      <trkpt lat="39.32441896566493" lon="-5.752794649197277"><ele>2684</ele><speed>12.15</speed><time>2016-07-09T15:06:26Z</time><pdop>4.0</pdop><geoidheight>50.80</geoidheight><course>143.06195</course><type>1</type></trkpt>
      <trkpt lat="39.324330917609245" lon="-5.752734562099667"><ele>2681</ele><speed>11.64</speed><time>2016-07-09T15:06:27Z</time><pdop>4.0</pdop><geoidheight>50.80</geoidheight><course>145.60928</course><type>1</type></trkpt>
      <trkpt lat="39.32423654010815" lon="-5.752665925288974"><ele>2677</ele><speed>12.26</speed><time>2016-07-09T15:06:28Z</time><pdop>4.0</pdop><geoidheight>50.80</geoidheight><course>146.22853</course><type>1</type></trkpt>
      <trkpt lat="39.324145072970516" lon="-5.7526035591930755"><ele>2674</ele><speed>12.22</speed><time>2016-07-09T15:06:29Z</time><pdop>4.0</pdop><geoidheight>50.80</geoidheight><course>146.72107</course><type>1</type></trkpt>
      <trkpt lat="39.324051755033565" lon="-5.752540631967253"><ele>2671</ele><speed>12.39</speed><time>2016-07-09T15:06:30Z</time><pdop>4.0</pdop><geoidheight>50.80</geoidheight><course>146.10602</course><type>1</type></trkpt>
      <trkpt lat="39.32396022794994" lon="-5.752478683059741"><ele>2668</ele><speed>11.49</speed><time>2016-07-09T15:06:31Z</time><pdop>6.0</pdop><geoidheight>50.80</geoidheight><course>145.85454</course><type>1</type></trkpt>
      <trkpt lat="39.32378129676945" lon="-5.7523582689786235"><ele>2662</ele><speed>10.87</speed><time>2016-07-09T15:06:32Z</time><pdop>6.0</pdop><geoidheight>50.80</geoidheight><course>147.6032</course><type>1</type></trkpt>
      <trkpt lat="39.32362494302906" lon="-5.752249739934299"><ele>2657</ele><speed>9.70</speed><time>2016-07-09T15:06:35Z</time><pdop>12.0</pdop><geoidheight>50.80</geoidheight><course>148.87552</course><type>1</type></trkpt>
      <trkpt lat="39.32345261221902" lon="-5.752133059798275"><ele>2654</ele><speed>12.63</speed><time>2016-07-09T15:06:37Z</time><pdop>8.0</pdop><geoidheight>50.80</geoidheight><course>149.37581</course><type>1</type></trkpt>
      <trkpt lat="39.32326705444173" lon="-5.752013164860833"><ele>2650</ele><speed>11.40</speed><time>2016-07-09T15:06:39Z</time><pdop>8.0</pdop><geoidheight>50.80</geoidheight><course>149.86119</course><type>1</type></trkpt>
      <trkpt lat="39.32311266243786" lon="-5.751916650435919"><ele>2647</ele><speed>9.20</speed><time>2016-07-09T15:06:41Z</time><pdop>6.0</pdop><geoidheight>50.80</geoidheight><course>149.71812</course><type>1</type></trkpt>
      <trkpt lat="39.322949936205816" lon="-5.7518013785252045"><ele>2644</ele><speed>11.09</speed><time>2016-07-09T15:06:43Z</time><pdop>6.0</pdop><geoidheight>50.80</geoidheight><course>147.16624</course><type>1</type></trkpt>
      <trkpt lat="39.32276301062716" lon="-5.751670834567095"><ele>2637</ele><speed>12.66</speed><time>2016-07-09T15:06:45Z</time><pdop>6.0</pdop><geoidheight>50.80</geoidheight><course>150.24138</course><type>1</type></trkpt>
      <trkpt lat="39.32265498982806" lon="-5.7516031973916615"><ele>2634</ele><speed>13.07</speed><time>2016-07-09T15:06:46Z</time><pdop>6.0</pdop><geoidheight>50.80</geoidheight><course>152.83434</course><type>1</type></trkpt>
      <trkpt lat="39.32254710296118" lon="-5.751544174254445"><ele>2631</ele><speed>12.11</speed><time>2016-07-09T15:06:46Z</time><pdop>6.0</pdop><geoidheight>50.80</geoidheight><course>154.4456</course><type>1</type></trkpt>
      <trkpt lat="39.32244569785722" lon="-5.751490429559439"><ele>2629</ele><speed>11.21</speed><time>2016-07-09T15:06:47Z</time><pdop>6.0</pdop><geoidheight>50.80</geoidheight><course>153.88672</course><type>1</type></trkpt>
      <trkpt lat="39.32226135635655" lon="-5.751373984467171"><ele>2624</ele><speed>11.83</speed><time>2016-07-09T15:06:50Z</time><pdop>8.0</pdop><geoidheight>50.80</geoidheight><course>151.7488</course><type>1</type></trkpt>
      <trkpt lat="39.32205353808751" lon="-5.75125962801722"><ele>2618</ele><speed>13.38</speed><time>2016-07-09T15:06:52Z</time><pdop>8.0</pdop><geoidheight>50.80</geoidheight><course>153.28271</course><type>1</type></trkpt>
      <trkpt lat="39.321845321279575" lon="-5.751146222528372"><ele>2611</ele><speed>11.32</speed><time>2016-07-09T15:06:54Z</time><pdop>6.0</pdop><geoidheight>50.80</geoidheight><course>150.8959</course><type>1</type></trkpt>
      <trkpt lat="39.3216652297978" lon="-5.751020984805532"><ele>2607</ele><speed>10.72</speed><time>2016-07-09T15:06:56Z</time><pdop>6.0</pdop><geoidheight>50.80</geoidheight><course>147.70361</course><type>1</type></trkpt>
      <trkpt lat="39.32156844377088" lon="-5.750951169987572"><ele>2604</ele><speed>12.06</speed><time>2016-07-09T15:06:56Z</time><pdop>6.0</pdop><geoidheight>50.80</geoidheight><course>148.38528</course><type>1</type></trkpt>
      <trkpt lat="39.32146714746984" lon="-5.750877950376135"><ele>2602</ele><speed>13.19</speed><time>2016-07-09T15:06:57Z</time><pdop>6.0</pdop><geoidheight>50.80</geoidheight><course>147.15007</course><type>1</type></trkpt>
      <trkpt lat="39.32128184434941" lon="-5.750717857982827"><ele>2598</ele><speed>12.42</speed><time>2016-07-09T15:07:00Z</time><pdop>8.0</pdop><geoidheight>50.80</geoidheight><course>144.45247</course><type>1</type></trkpt>
      <trkpt lat="39.32112206903123" lon="-5.7505743476059505"><ele>2594</ele><speed>11.09</speed><time>2016-07-09T15:07:02Z</time><pdop>8.0</pdop><geoidheight>50.80</geoidheight><course>144.11758</course><type>1</type></trkpt>
      <trkpt lat="39.320966105508184" lon="-5.7504197175811935"><ele>2590</ele><speed>11.90</speed><time>2016-07-09T15:07:04Z</time><pdop>8.0</pdop><geoidheight>50.80</geoidheight><course>140.40355</course><type>1</type></trkpt>
      <trkpt lat="39.320790374741435" lon="-5.750235570843457"><ele>2586</ele><speed>13.11</speed><time>2016-07-09T15:07:06Z</time><pdop>8.0</pdop><geoidheight>50.80</geoidheight><course>140.55711</course><type>1</type></trkpt>
      <trkpt lat="39.320612734374606" lon="-5.750070174743089"><ele>2583</ele><speed>11.24</speed><time>2016-07-09T15:07:08Z</time><pdop>6.0</pdop><geoidheight>50.80</geoidheight><course>143.59627</course><type>1</type></trkpt>
      <trkpt lat="39.32046744292269" lon="-5.749939863918064"><ele>2581</ele><speed>9.80</speed><time>2016-07-09T15:07:09Z</time><pdop>6.0</pdop><geoidheight>50.80</geoidheight><course>141.67267</course><type>1</type></trkpt>
      <trkpt lat="39.320321410550996" lon="-5.749787740075719"><ele>2578</ele><speed>11.92</speed><time>2016-07-09T15:07:12Z</time><pdop>8.0</pdop><geoidheight>50.80</geoidheight><course>139.62552</course><type>1</type></trkpt>
      <trkpt lat="39.320142778008154" lon="-5.749588806349064"><ele>2575</ele><speed>12.65</speed><time>2016-07-09T15:07:14Z</time><pdop>8.0</pdop><geoidheight>50.80</geoidheight><course>138.11682</course><type>1</type></trkpt>
      <trkpt lat="39.31996061063146" lon="-5.749396797224111"><ele>2572</ele><speed>13.52</speed><time>2016-07-09T15:07:16Z</time><pdop>8.0</pdop><geoidheight>50.80</geoidheight><course>140.80087</course><type>1</type></trkpt>
      <trkpt lat="39.319785003151566" lon="-5.749255435533386"><ele>2567</ele><speed>12.42</speed><time>2016-07-09T15:07:18Z</time><pdop>6.0</pdop><geoidheight>50.80</geoidheight><course>144.34273</course><type>1</type></trkpt>
      <trkpt lat="39.319600881018474" lon="-5.749111040589116"><ele>2564</ele><speed>12.23</speed><time>2016-07-09T15:07:20Z</time><pdop>6.0</pdop><geoidheight>50.80</geoidheight><course>145.48463</course><type>1</type></trkpt>
      <trkpt lat="39.31941454564475" lon="-5.748964809938605"><ele>2563</ele><speed>12.42</speed><time>2016-07-09T15:07:22Z</time><pdop>6.0</pdop><geoidheight>50.80</geoidheight><course>145.23163</course><type>1</type></trkpt>
      <trkpt lat="39.31932221811215" lon="-5.748892166381847"><ele>2562</ele><speed>12.58</speed><time>2016-07-09T15:07:23Z</time><pdop>6.0</pdop><geoidheight>50.80</geoidheight><course>144.53859</course><type>1</type></trkpt>
      <trkpt lat="39.31922801482571" lon="-5.748814125859235"><ele>2560</ele><speed>12.94</speed><time>2016-07-09T15:07:24Z</time><pdop>6.0</pdop><geoidheight>50.80</geoidheight><course>144.17242</course><type>1</type></trkpt>
      <trkpt lat="39.319129328402" lon="-5.74873186831539"><ele>2559</ele><speed>13.05</speed><time>2016-07-09T15:07:25Z</time><pdop>6.0</pdop><geoidheight>50.80</geoidheight><course>143.27765</course><type>1</type></trkpt>
      <trkpt lat="39.31903071160811" lon="-5.74864965623881"><ele>2558</ele><speed>13.41</speed><time>2016-07-09T15:07:26Z</time><pdop>6.0</pdop><geoidheight>50.80</geoidheight><course>143.5144</course><type>1</type></trkpt>
      <trkpt lat="39.31893392659333" lon="-5.7485721934189815"><ele>2556</ele><speed>12.90</speed><time>2016-07-09T15:07:27Z</time><pdop>6.0</pdop><geoidheight>50.80</geoidheight><course>144.30023</course><type>1</type></trkpt>
      <trkpt lat="39.3188353579469" lon="-5.748508449917755"><ele>2554</ele><speed>12.90</speed><time>2016-07-09T15:07:27Z</time><pdop>6.0</pdop><geoidheight>50.80</geoidheight><course>146.65413</course><type>1</type></trkpt>
      <trkpt lat="39.31873146110354" lon="-5.748436833244703"><ele>2552</ele><speed>13.70</speed><time>2016-07-09T15:07:28Z</time><pdop>6.0</pdop><geoidheight>50.80</geoidheight><course>145.74333</course><type>1</type></trkpt>
      <trkpt lat="39.318525295710344" lon="-5.74826982327201"><ele>2548</ele><speed>13.93</speed><time>2016-07-09T15:07:31Z</time><pdop>8.0</pdop><geoidheight>50.80</geoidheight><course>144.09773</course><type>1</type></trkpt>
      <trkpt lat="39.31833052585411" lon="-5.748121893820696"><ele>2544</ele><speed>13.63</speed><time>2016-07-09T15:07:32Z</time><pdop>8.0</pdop><geoidheight>50.80</geoidheight><course>145.61751</course><type>1</type></trkpt>
      <trkpt lat="39.3181439610893" lon="-5.747969062321931"><ele>2540</ele><speed>13.00</speed><time>2016-07-09T15:07:35Z</time><pdop>8.0</pdop><geoidheight>50.80</geoidheight><course>146.45656</course><type>1</type></trkpt>
      <trkpt lat="39.31794950896746" lon="-5.747814902833825"><ele>2536</ele><speed>12.60</speed><time>2016-07-09T15:07:37Z</time><pdop>8.0</pdop><geoidheight>50.80</geoidheight><course>145.55891</course><type>1</type></trkpt>
      <trkpt lat="39.31774894188059" lon="-5.7476584573842535"><ele>2532</ele><speed>13.12</speed><time>2016-07-09T15:07:39Z</time><pdop>6.0</pdop><geoidheight>50.80</geoidheight><course>144.95723</course><type>1</type></trkpt>
      <trkpt lat="39.31764649680463" lon="-5.7475754526127165"><ele>2530</ele><speed>13.53</speed><time>2016-07-09T15:07:39Z</time><pdop>6.0</pdop><geoidheight>50.80</geoidheight><course>144.6238</course><type>1</type></trkpt>
      <trkpt lat="39.31746192453012" lon="-5.747415181148165"><ele>2527</ele><speed>12.79</speed><time>2016-07-09T15:07:42Z</time><pdop>8.0</pdop><geoidheight>50.80</geoidheight><course>144.3048</course><type>1</type></trkpt>
      <trkpt lat="39.31727167210479" lon="-5.747269613255834"><ele>2523</ele><speed>12.70</speed><time>2016-07-09T15:07:44Z</time><pdop>8.0</pdop><geoidheight>50.80</geoidheight><course>144.5287</course><type>1</type></trkpt>
      <trkpt lat="39.31707514777906" lon="-5.747112514526391"><ele>2517</ele><speed>13.02</speed><time>2016-07-09T15:07:46Z</time><pdop>8.0</pdop><geoidheight>50.80</geoidheight><course>142.67247</course><type>1</type></trkpt>
      <trkpt lat="39.31687937150389" lon="-5.7469758396216655"><ele>2512</ele><speed>12.06</speed><time>2016-07-09T15:07:48Z</time><pdop>8.0</pdop><geoidheight>50.80</geoidheight><course>148.27722</course><type>1</type></trkpt>
      <trkpt lat="39.31669347838185" lon="-5.746887705046166"><ele>2507</ele><speed>12.22</speed><time>2016-07-09T15:07:50Z</time><pdop>6.0</pdop><geoidheight>50.80</geoidheight><course>149.62073</course><type>1</type></trkpt>
      <trkpt lat="39.316501180229196" lon="-5.746767867255571"><ele>2503</ele><speed>13.87</speed><time>2016-07-09T15:07:52Z</time><pdop>6.0</pdop><geoidheight>50.80</geoidheight><course>146.8137</course><type>1</type></trkpt>
      <trkpt lat="39.31640371079564" lon="-5.7466907260306375"><ele>2500</ele><speed>14.27</speed><time>2016-07-09T15:07:53Z</time><pdop>6.0</pdop><geoidheight>50.80</geoidheight><course>145.52507</course><type>1</type></trkpt>
      <trkpt lat="39.31630694714354" lon="-5.746615641511062"><ele>2498</ele><speed>13.11</speed><time>2016-07-09T15:07:54Z</time><pdop>6.0</pdop><geoidheight>50.80</geoidheight><course>146.13</course><type>1</type></trkpt>
      <trkpt lat="39.31620937971148" lon="-5.746547474994648"><ele>2496</ele><speed>12.80</speed><time>2016-07-09T15:07:55Z</time><pdop>6.0</pdop><geoidheight>50.80</geoidheight><course>147.17052</course><type>1</type></trkpt>
      <trkpt lat="39.31610610213987" lon="-5.746480208740325"><ele>2494</ele><speed>13.12</speed><time>2016-07-09T15:07:56Z</time><pdop>6.0</pdop><geoidheight>50.80</geoidheight><course>148.47154</course><type>1</type></trkpt>
      <trkpt lat="39.31600241867145" lon="-5.746412538125794"><ele>2492</ele><speed>12.97</speed><time>2016-07-09T15:07:57Z</time><pdop>4.0</pdop><geoidheight>50.80</geoidheight><course>147.67194</course><type>1</type></trkpt>
      <trkpt lat="39.31589922261954" lon="-5.746336063383345"><ele>2490</ele><speed>13.21</speed><time>2016-07-09T15:07:58Z</time><pdop>4.0</pdop><geoidheight>50.80</geoidheight><course>146.22922</course><type>1</type></trkpt>
      <trkpt lat="39.31579731430742" lon="-5.7462498198600445"><ele>2488</ele><speed>13.16</speed><time>2016-07-09T15:07:59Z</time><pdop>4.0</pdop><geoidheight>50.80</geoidheight><course>145.14987</course><type>1</type></trkpt>
      <trkpt lat="39.31570014489339" lon="-5.7461660692557865"><ele>2486</ele><speed>12.96</speed><time>2016-07-09T15:08:00Z</time><pdop>6.0</pdop><geoidheight>50.80</geoidheight><course>145.40344</course><type>1</type></trkpt>
      <trkpt lat="39.3156063802812" lon="-5.746086789403785"><ele>2484</ele><speed>12.85</speed><time>2016-07-09T15:08:01Z</time><pdop>6.0</pdop><geoidheight>50.80</geoidheight><course>145.80003</course><type>1</type></trkpt>
      <trkpt lat="39.31550905730365" lon="-5.7460059999509365"><ele>2483</ele><speed>13.05</speed><time>2016-07-09T15:08:01Z</time><pdop>6.0</pdop><geoidheight>50.80</geoidheight><course>145.70483</course><type>1</type></trkpt>
      <trkpt lat="39.31541030604033" lon="-5.745924979903414"><ele>2481</ele><speed>13.52</speed><time>2016-07-09T15:08:02Z</time><pdop>6.0</pdop><geoidheight>50.80</geoidheight><course>145.3278</course><type>1</type></trkpt>
      <trkpt lat="39.315211251822866" lon="-5.74574529805971"><ele>2479</ele><speed>13.43</speed><time>2016-07-09T15:08:05Z</time><pdop>8.0</pdop><geoidheight>50.80</geoidheight><course>143.1183</course><type>1</type></trkpt>
      <trkpt lat="39.31503177825312" lon="-5.745560828539876"><ele>2475</ele><speed>12.70</speed><time>2016-07-09T15:08:07Z</time><pdop>8.0</pdop><geoidheight>50.80</geoidheight><course>138.77492</course><type>1</type></trkpt>
      <trkpt lat="39.314874127884444" lon="-5.745380878326068"><ele>2471</ele><speed>13.15</speed><time>2016-07-09T15:08:09Z</time><pdop>6.0</pdop><geoidheight>50.80</geoidheight><course>135.65192</course><type>1</type></trkpt>
      <trkpt lat="39.31478781880509" lon="-5.745276015455048"><ele>2469</ele><speed>14.20</speed><time>2016-07-09T15:08:10Z</time><pdop>6.0</pdop><geoidheight>50.80</geoidheight><course>134.99844</course><type>1</type></trkpt>
      <trkpt lat="39.314700819363075" lon="-5.745171140810185"><ele>2466</ele><speed>14.11</speed><time>2016-07-09T15:08:11Z</time><pdop>6.0</pdop><geoidheight>50.80</geoidheight><course>135.71342</course><type>1</type></trkpt>
      <trkpt lat="39.31452441890151" lon="-5.744977478326441"><ele>2462</ele><speed>12.81</speed><time>2016-07-09T15:08:13Z</time><pdop>8.0</pdop><geoidheight>50.80</geoidheight><course>137.95226</course><type>1</type></trkpt>
      <trkpt lat="39.31435565957508" lon="-5.744791945607115"><ele>2458</ele><speed>13.39</speed><time>2016-07-09T15:08:15Z</time><pdop>8.0</pdop><geoidheight>50.80</geoidheight><course>135.4823</course><type>1</type></trkpt>
      <trkpt lat="39.3141810637198" lon="-5.744570475354316"><ele>2453</ele><speed>14.57</speed><time>2016-07-09T15:08:17Z</time><pdop>6.0</pdop><geoidheight>50.80</geoidheight><course>133.29045</course><type>1</type></trkpt>
      <trkpt lat="39.31410105650301" lon="-5.744473781405251"><ele>2451</ele><speed>13.50</speed><time>2016-07-09T15:08:18Z</time><pdop>6.0</pdop><geoidheight>50.80</geoidheight><course>133.09932</course><type>1</type></trkpt>
      <trkpt lat="39.31394348511184" lon="-5.744285782030822"><ele>2446</ele><speed>12.44</speed><time>2016-07-09T15:08:20Z</time><pdop>6.0</pdop><geoidheight>50.80</geoidheight><course>133.09732</course><type>1</type></trkpt>
      <trkpt lat="39.313788280899544" lon="-5.744067411716696"><ele>2442</ele><speed>13.71</speed><time>2016-07-09T15:08:21Z</time><pdop>8.0</pdop><geoidheight>50.80</geoidheight><course>130.53886</course><type>1</type></trkpt>
      <trkpt lat="39.31364157320105" lon="-5.743843856681679"><ele>2438</ele><speed>13.94</speed><time>2016-07-09T15:08:24Z</time><pdop>8.0</pdop><geoidheight>50.80</geoidheight><course>128.16756</course><type>1</type></trkpt>
      <trkpt lat="39.31352586052101" lon="-5.743632104484101"><ele>2433</ele><speed>13.81</speed><time>2016-07-09T15:08:26Z</time><pdop>8.0</pdop><geoidheight>50.80</geoidheight><course>123.175186</course><type>1</type></trkpt>
      <trkpt lat="39.31339732035119" lon="-5.743387580861218"><ele>2427</ele><speed>13.11</speed><time>2016-07-09T15:08:28Z</time><pdop>8.0</pdop><geoidheight>50.80</geoidheight><course>124.016815</course><type>1</type></trkpt>
      <trkpt lat="39.31323981735048" lon="-5.743125903240437"><ele>2421</ele><speed>14.39</speed><time>2016-07-09T15:08:30Z</time><pdop>8.0</pdop><geoidheight>50.80</geoidheight><course>125.82184</course><type>1</type></trkpt>
      <trkpt lat="39.313099115161826" lon="-5.742859430127575"><ele>2415</ele><speed>14.79</speed><time>2016-07-09T15:08:32Z</time><pdop>12.0</pdop><geoidheight>50.80</geoidheight><course>120.61736</course><type>1</type></trkpt>
      <trkpt lat="39.31296325201822" lon="-5.7426068682001015"><ele>2409</ele><speed>14.49</speed><time>2016-07-09T15:08:34Z</time><pdop>8.0</pdop><geoidheight>50.80</geoidheight><course>123.419876</course><type>1</type></trkpt>
      <trkpt lat="39.31280665964554" lon="-5.742395021950418"><ele>2401</ele><speed>14.18</speed><time>2016-07-09T15:08:36Z</time><pdop>8.0</pdop><geoidheight>50.80</geoidheight><course>129.16928</course><type>1</type></trkpt>
      <trkpt lat="39.31266108277088" lon="-5.74223280997508"><ele>2393</ele><speed>13.04</speed><time>2016-07-09T15:08:38Z</time><pdop>6.0</pdop><geoidheight>50.80</geoidheight><course>127.961784</course><type>1</type></trkpt>
      <trkpt lat="39.312519487732764" lon="-5.742056653106046"><ele>2383</ele><speed>14.67</speed><time>2016-07-09T15:08:40Z</time><pdop>6.0</pdop><geoidheight>50.80</geoidheight><course>126.399796</course><type>1</type></trkpt>
      <trkpt lat="39.31243456565435" lon="-5.741935612622051"><ele>2379</ele><speed>16.18</speed><time>2016-07-09T15:08:40Z</time><pdop>6.0</pdop><geoidheight>50.80</geoidheight><course>125.94159</course><type>1</type></trkpt>
      <trkpt lat="39.31234316969864" lon="-5.741809297488518"><ele>2374</ele><speed>15.86</speed><time>2016-07-09T15:08:42Z</time><pdop>6.0</pdop><geoidheight>50.80</geoidheight><course>127.55352</course><type>1</type></trkpt>
      <trkpt lat="39.31224921315396" lon="-5.741672165579625"><ele>2370</ele><speed>15.05</speed><time>2016-07-09T15:08:43Z</time><pdop>8.0</pdop><geoidheight>50.80</geoidheight><course>129.046</course><type>1</type></trkpt>
      <trkpt lat="39.31208074195615" lon="-5.741425314128749"><ele>2364</ele><speed>13.54</speed><time>2016-07-09T15:08:45Z</time><pdop>8.0</pdop><geoidheight>50.80</geoidheight><course>126.99463</course><type>1</type></trkpt>
      <trkpt lat="39.31192996464206" lon="-5.741196086244137"><ele>2359</ele><speed>14.03</speed><time>2016-07-09T15:08:47Z</time><pdop>6.0</pdop><geoidheight>50.80</geoidheight><course>126.85392</course><type>1</type></trkpt>
      <trkpt lat="39.311847464866794" lon="-5.741085279856506"><ele>2357</ele><speed>12.63</speed><time>2016-07-09T15:08:48Z</time><pdop>6.0</pdop><geoidheight>50.80</geoidheight><course>129.20413</course><type>1</type></trkpt>
      <trkpt lat="39.311696855962175" lon="-5.740905412494588"><ele>2352</ele><speed>10.52</speed><time>2016-07-09T15:08:50Z</time><pdop>6.0</pdop><geoidheight>50.80</geoidheight><course>132.48654</course><type>1</type></trkpt>
      <trkpt lat="39.31155321237598" lon="-5.740747084953391"><ele>2348</ele><speed>11.24</speed><time>2016-07-09T15:08:51Z</time><pdop>8.0</pdop><geoidheight>50.80</geoidheight><course>133.49979</course><type>1</type></trkpt>
      <trkpt lat="39.31141748682264" lon="-5.740581207042969"><ele>2344</ele><speed>10.84</speed><time>2016-07-09T15:08:54Z</time><pdop>8.0</pdop><geoidheight>50.80</geoidheight><course>132.11153</course><type>1</type></trkpt>
      <trkpt lat="39.311283308182155" lon="-5.74042692086592"><ele>2341</ele><speed>10.93</speed><time>2016-07-09T15:08:56Z</time><pdop>6.0</pdop><geoidheight>50.80</geoidheight><course>133.18645</course><type>1</type></trkpt>
      <trkpt lat="39.3111463647507" lon="-5.740273718410214"><ele>2338</ele><speed>10.46</speed><time>2016-07-09T15:08:58Z</time><pdop>6.0</pdop><geoidheight>50.80</geoidheight><course>132.9405</course><type>1</type></trkpt>
      <trkpt lat="39.31102122001512" lon="-5.740121806226717"><ele>2334</ele><speed>9.85</speed><time>2016-07-09T15:09:00Z</time><pdop>8.0</pdop><geoidheight>50.80</geoidheight><course>131.6469</course><type>1</type></trkpt>
      <trkpt lat="39.310890783539975" lon="-5.739974499265043"><ele>2331</ele><speed>10.86</speed><time>2016-07-09T15:09:02Z</time><pdop>8.0</pdop><geoidheight>50.80</geoidheight><course>135.19453</course><type>1</type></trkpt>
      <trkpt lat="39.31074519611706" lon="-5.739836663356037"><ele>2329</ele><speed>10.60</speed><time>2016-07-09T15:09:04Z</time><pdop>6.0</pdop><geoidheight>50.80</geoidheight><course>139.28578</course><type>1</type></trkpt>
      <trkpt lat="39.31059567067862" lon="-5.739701300758023"><ele>2327</ele><speed>10.34</speed><time>2016-07-09T15:09:06Z</time><pdop>6.0</pdop><geoidheight>50.80</geoidheight><course>141.34492</course><type>1</type></trkpt>
      <trkpt lat="39.3104320306051" lon="-5.739559546546459"><ele>2325</ele><speed>10.71</speed><time>2016-07-09T15:09:08Z</time><pdop>6.0</pdop><geoidheight>50.80</geoidheight><course>143.47044</course><type>1</type></trkpt>
      <trkpt lat="39.31027022697367" lon="-5.73943659392441"><ele>2323</ele><speed>10.07</speed><time>2016-07-09T15:09:10Z</time><pdop>6.0</pdop><geoidheight>50.80</geoidheight><course>146.48767</course><type>1</type></trkpt>
      <trkpt lat="39.31011191473463" lon="-5.739324188189346"><ele>2321</ele><speed>10.72</speed><time>2016-07-09T15:09:12Z</time><pdop>6.0</pdop><geoidheight>50.80</geoidheight><course>147.67572</course><type>1</type></trkpt>
      <trkpt lat="39.30994365238342" lon="-5.739200031777537"><ele>2318</ele><speed>11.73</speed><time>2016-07-09T15:09:14Z</time><pdop>8.0</pdop><geoidheight>50.80</geoidheight><course>146.28886</course><type>1</type></trkpt>
      <trkpt lat="39.30977762286458" lon="-5.739062081126888"><ele>2315</ele><speed>12.16</speed><time>2016-07-09T15:09:16Z</time><pdop>8.0</pdop><geoidheight>50.80</geoidheight><course>143.31836</course><type>1</type></trkpt>
      <trkpt lat="39.309619079009764" lon="-5.738921322787448"><ele>2311</ele><speed>11.65</speed><time>2016-07-09T15:09:17Z</time><pdop>8.0</pdop><geoidheight>50.80</geoidheight><course>141.2942</course><type>1</type></trkpt>
      <trkpt lat="39.309472614437176" lon="-5.738772873056824"><ele>2308</ele><speed>10.46</speed><time>2016-07-09T15:09:20Z</time><pdop>8.0</pdop><geoidheight>50.80</geoidheight><course>139.93489</course><type>1</type></trkpt>
      <trkpt lat="39.309319650789845" lon="-5.738608663407657"><ele>2305</ele><speed>12.26</speed><time>2016-07-09T15:09:22Z</time><pdop>8.0</pdop><geoidheight>50.80</geoidheight><course>137.84508</course><type>1</type></trkpt>
      <trkpt lat="39.30916237267084" lon="-5.738424661991247"><ele>2302</ele><speed>12.64</speed><time>2016-07-09T15:09:24Z</time><pdop>8.0</pdop><geoidheight>50.80</geoidheight><course>136.73358</course><type>1</type></trkpt>
      <trkpt lat="39.3090131198509" lon="-5.738256556187136"><ele>2300</ele><speed>11.44</speed><time>2016-07-09T15:09:26Z</time><pdop>8.0</pdop><geoidheight>50.80</geoidheight><course>137.99149</course><type>1</type></trkpt>
      <trkpt lat="39.308866312218754" lon="-5.738100312638448"><ele>2298</ele><speed>11.31</speed><time>2016-07-09T15:09:28Z</time><pdop>8.0</pdop><geoidheight>50.80</geoidheight><course>138.33647</course><type>1</type></trkpt>
      <trkpt lat="39.30871107754617" lon="-5.737944459549814"><ele>2295</ele><speed>12.57</speed><time>2016-07-09T15:09:30Z</time><pdop>8.0</pdop><geoidheight>50.80</geoidheight><course>137.3664</course><type>1</type></trkpt>
      <trkpt lat="39.30854632684569" lon="-5.7377896970162725"><ele>2290</ele><speed>12.79</speed><time>2016-07-09T15:09:31Z</time><pdop>8.0</pdop><geoidheight>50.80</geoidheight><course>137.91788</course><type>1</type></trkpt>
      <trkpt lat="39.30838151350934" lon="-5.7376241399365595"><ele>2285</ele><speed>11.67</speed><time>2016-07-09T15:09:34Z</time><pdop>8.0</pdop><geoidheight>50.80</geoidheight><course>139.08836</course><type>1</type></trkpt>
      <trkpt lat="39.30822753096526" lon="-5.737485479586834"><ele>2281</ele><speed>10.62</speed><time>2016-07-09T15:09:36Z</time><pdop>8.0</pdop><geoidheight>50.80</geoidheight><course>142.74557</course><type>1</type></trkpt>
      <trkpt lat="39.3080667521925" lon="-5.737371303618029"><ele>2277</ele><speed>10.42</speed><time>2016-07-09T15:09:38Z</time><pdop>8.0</pdop><geoidheight>50.80</geoidheight><course>146.82678</course><type>1</type></trkpt>
      <trkpt lat="39.3078762996924" lon="-5.737233474573624"><ele>2272</ele><speed>12.06</speed><time>2016-07-09T15:09:40Z</time><pdop>8.0</pdop><geoidheight>50.80</geoidheight><course>146.89133</course><type>1</type></trkpt>
      <trkpt lat="39.30768650712386" lon="-5.7370959658599014"><ele>2267</ele><speed>11.59</speed><time>2016-07-09T15:09:42Z</time><pdop>8.0</pdop><geoidheight>50.80</geoidheight><course>147.662</course><type>1</type></trkpt>
      <trkpt lat="39.30751246915203" lon="-5.736981193158739"><ele>2264</ele><speed>10.85</speed><time>2016-07-09T15:09:44Z</time><pdop>8.0</pdop><geoidheight>50.80</geoidheight><course>147.358</course><type>1</type></trkpt>
      <trkpt lat="39.307352335629865" lon="-5.736857794355375"><ele>2261</ele><speed>11.15</speed><time>2016-07-09T15:09:46Z</time><pdop>8.0</pdop><geoidheight>50.80</geoidheight><course>143.20366</course><type>1</type></trkpt>
      <trkpt lat="39.30718607202979" lon="-5.736716550786826"><ele>2257</ele><speed>11.96</speed><time>2016-07-09T15:09:47Z</time><pdop>8.0</pdop><geoidheight>50.80</geoidheight><course>143.36131</course><type>1</type></trkpt>
      <trkpt lat="39.30702454873975" lon="-5.736589045026375"><ele>2254</ele><speed>11.19</speed><time>2016-07-09T15:09:50Z</time><pdop>8.0</pdop><geoidheight>50.80</geoidheight><course>143.97041</course><type>1</type></trkpt>
      <trkpt lat="39.30687108310558" lon="-5.736471922435053"><ele>2252</ele><speed>9.46</speed><time>2016-07-09T15:09:52Z</time><pdop>8.0</pdop><geoidheight>50.80</geoidheight><course>144.55286</course><type>1</type></trkpt>
      <trkpt lat="39.30673460655655" lon="-5.736379121750883"><ele>2251</ele><speed>8.74</speed><time>2016-07-09T15:09:54Z</time><pdop>8.0</pdop><geoidheight>50.80</geoidheight><course>147.46985</course><type>1</type></trkpt>
      <trkpt lat="39.306567675555534" lon="-5.736219280764109"><ele>2248</ele><speed>13.20</speed><time>2016-07-09T15:09:56Z</time><pdop>12.0</pdop><geoidheight>50.80</geoidheight><course>134.79082</course><type>1</type></trkpt>
      <trkpt lat="39.30638845098861" lon="-5.7360197977604415"><ele>2245</ele><speed>12.61</speed><time>2016-07-09T15:09:57Z</time><pdop>12.0</pdop><geoidheight>50.80</geoidheight><course>138.45847</course><type>1</type></trkpt>
      <trkpt lat="39.30616045197425" lon="-5.7358486119824965"><ele>2239</ele><speed>10.19</speed><time>2016-07-09T15:10:01Z</time><pdop>12.0</pdop><geoidheight>50.80</geoidheight><course>146.54846</course><type>1</type></trkpt>
      <trkpt lat="39.305931626324735" lon="-5.735686620099206"><ele>2236</ele><speed>12.37</speed><time>2016-07-09T15:10:04Z</time><pdop>8.0</pdop><geoidheight>50.80</geoidheight><course>139.57831</course><type>1</type></trkpt>
      <trkpt lat="39.305766181983714" lon="-5.735514225056011"><ele>2234</ele><speed>11.65</speed><time>2016-07-09T15:10:06Z</time><pdop>8.0</pdop><geoidheight>50.80</geoidheight><course>137.04355</course><type>1</type></trkpt>
      <trkpt lat="39.3056217307041" lon="-5.735364580611547"><ele>2232</ele><speed>10.11</speed><time>2016-07-09T15:10:08Z</time><pdop>8.0</pdop><geoidheight>50.80</geoidheight><course>138.16307</course><type>1</type></trkpt>
      <trkpt lat="39.30546816346489" lon="-5.735206267696075"><ele>2231</ele><speed>11.41</speed><time>2016-07-09T15:10:09Z</time><pdop>8.0</pdop><geoidheight>50.80</geoidheight><course>138.35681</course><type>1</type></trkpt>
      <trkpt lat="39.305319881258654" lon="-5.735033054604776"><ele>2230</ele><speed>11.06</speed><time>2016-07-09T15:10:12Z</time><pdop>8.0</pdop><geoidheight>50.80</geoidheight><course>136.00023</course><type>1</type></trkpt>
      <trkpt lat="39.30517479844896" lon="-5.734859711636601"><ele>2229</ele><speed>11.35</speed><time>2016-07-09T15:10:14Z</time><pdop>8.0</pdop><geoidheight>50.80</geoidheight><course>135.19472</course><type>1</type></trkpt>
      <trkpt lat="39.305032358681004" lon="-5.734682664039992"><ele>2228</ele><speed>11.87</speed><time>2016-07-09T15:10:16Z</time><pdop>8.0</pdop><geoidheight>50.80</geoidheight><course>135.0931</course><type>1</type></trkpt>
      <trkpt lat="39.30488058436104" lon="-5.7345065227561545"><ele>2226</ele><speed>11.69</speed><time>2016-07-09T15:10:18Z</time><pdop>8.0</pdop><geoidheight>50.80</geoidheight><course>137.1455</course><type>1</type></trkpt>
      <trkpt lat="39.304730898314524" lon="-5.734336340891073"><ele>2224</ele><speed>11.31</speed><time>2016-07-09T15:10:20Z</time><pdop>8.0</pdop><geoidheight>50.80</geoidheight><course>135.49022</course><type>1</type></trkpt>
      <trkpt lat="39.3045872704269" lon="-5.734155979990307"><ele>2222</ele><speed>12.14</speed><time>2016-07-09T15:10:22Z</time><pdop>8.0</pdop><geoidheight>50.80</geoidheight><course>133.17145</course><type>1</type></trkpt>
      <trkpt lat="39.3044416672369" lon="-5.7339607567401085"><ele>2221</ele><speed>12.75</speed><time>2016-07-09T15:10:24Z</time><pdop>8.0</pdop><geoidheight>50.80</geoidheight><course>133.56079</course><type>1</type></trkpt>
      <trkpt lat="39.30429036838132" lon="-5.733768414528221"><ele>2221</ele><speed>11.64</speed><time>2016-07-09T15:10:26Z</time><pdop>12.0</pdop><geoidheight>50.80</geoidheight><course>135.67772</course><type>1</type></trkpt>
      <trkpt lat="39.30413785883899" lon="-5.733577901512891"><ele>2221</ele><speed>12.05</speed><time>2016-07-09T15:10:27Z</time><pdop>8.0</pdop><geoidheight>50.80</geoidheight><course>135.03554</course><type>1</type></trkpt>
      <trkpt lat="39.303974346926466" lon="-5.733373384560828"><ele>2221</ele><speed>11.86</speed><time>2016-07-09T15:10:30Z</time><pdop>8.0</pdop><geoidheight>50.80</geoidheight><course>136.7768</course><type>1</type></trkpt>
      <trkpt lat="39.3038176591582" lon="-5.733202415151752"><ele>2220</ele><speed>10.56</speed><time>2016-07-09T15:10:32Z</time><pdop>8.0</pdop><geoidheight>50.80</geoidheight><course>139.96887</course><type>1</type></trkpt>
      <trkpt lat="39.3036627961307" lon="-5.733046043482464"><ele>2218</ele><speed>11.87</speed><time>2016-07-09T15:10:34Z</time><pdop>8.0</pdop><geoidheight>50.80</geoidheight><course>139.32951</course><type>1</type></trkpt>
      <trkpt lat="39.30351039177935" lon="-5.732888473419415"><ele>2217</ele><speed>11.21</speed><time>2016-07-09T15:10:36Z</time><pdop>8.0</pdop><geoidheight>50.80</geoidheight><course>139.3095</course><type>1</type></trkpt>
      <trkpt lat="39.30336139714947" lon="-5.732726927375585"><ele>2215</ele><speed>11.03</speed><time>2016-07-09T15:10:38Z</time><pdop>8.0</pdop><geoidheight>50.80</geoidheight><course>140.22423</course><type>1</type></trkpt>
      <trkpt lat="39.30319975481782" lon="-5.732564651605065"><ele>2213</ele><speed>13.29</speed><time>2016-07-09T15:10:40Z</time><pdop>8.0</pdop><geoidheight>50.80</geoidheight><course>140.07343</course><type>1</type></trkpt>
      <trkpt lat="39.303016123272" lon="-5.732407206565093"><ele>2209</ele><speed>12.69</speed><time>2016-07-09T15:10:42Z</time><pdop>8.0</pdop><geoidheight>50.80</geoidheight><course>144.74834</course><type>1</type></trkpt>
      <trkpt lat="39.302803698631564" lon="-5.732334914884398"><ele>2206</ele><speed>10.80</speed><time>2016-07-09T15:10:43Z</time><pdop>8.0</pdop><geoidheight>50.80</geoidheight><course>161.35686</course><type>1</type></trkpt>
      <trkpt lat="39.302628171378856" lon="-5.73220620461735"><ele>2203</ele><speed>11.80</speed><time>2016-07-09T15:10:46Z</time><pdop>12.0</pdop><geoidheight>50.80</geoidheight><course>145.50455</course><type>1</type></trkpt>
      <trkpt lat="39.30244433146043" lon="-5.732055419314815"><ele>2200</ele><speed>13.23</speed><time>2016-07-09T15:10:48Z</time><pdop>8.0</pdop><geoidheight>50.80</geoidheight><course>144.70804</course><type>1</type></trkpt>
      <trkpt lat="39.302266644807034" lon="-5.7319297590201375"><ele>2197</ele><speed>11.54</speed><time>2016-07-09T15:10:50Z</time><pdop>8.0</pdop><geoidheight>50.80</geoidheight><course>146.88524</course><type>1</type></trkpt>
      <trkpt lat="39.30209867278842" lon="-5.7317980957846375"><ele>2196</ele><speed>11.48</speed><time>2016-07-09T15:10:52Z</time><pdop>8.0</pdop><geoidheight>50.80</geoidheight><course>145.39915</course><type>1</type></trkpt>
      <trkpt lat="39.301925700655744" lon="-5.7316616100859195"><ele>2195</ele><speed>13.21</speed><time>2016-07-09T15:10:54Z</time><pdop>8.0</pdop><geoidheight>50.80</geoidheight><course>145.206</course><type>1</type></trkpt>
      <trkpt lat="39.301733047805385" lon="-5.731526348015257"><ele>2192</ele><speed>12.93</speed><time>2016-07-09T15:10:56Z</time><pdop>8.0</pdop><geoidheight>50.80</geoidheight><course>147.37653</course><type>1</type></trkpt>
      <trkpt lat="39.30153941401658" lon="-5.731382852905973"><ele>2190</ele><speed>12.13</speed><time>2016-07-09T15:10:58Z</time><pdop>8.0</pdop><geoidheight>50.80</geoidheight><course>147.0427</course><type>1</type></trkpt>
      <trkpt lat="39.301349212102984" lon="-5.731238334797881"><ele>2187</ele><speed>13.31</speed><time>2016-07-09T15:11:00Z</time><pdop>6.0</pdop><geoidheight>50.80</geoidheight><course>145.90704</course><type>1</type></trkpt>
      <trkpt lat="39.301248038010314" lon="-5.731157157810624"><ele>2185</ele><speed>13.82</speed><time>2016-07-09T15:11:01Z</time><pdop>6.0</pdop><geoidheight>50.80</geoidheight><course>144.91966</course><type>1</type></trkpt>
      <trkpt lat="39.30115624438459" lon="-5.731082733737561"><ele>2183</ele><speed>13.28</speed><time>2016-07-09T15:11:02Z</time><pdop>6.0</pdop><geoidheight>50.80</geoidheight><course>144.31706</course><type>1</type></trkpt>
      <trkpt lat="39.300986320232596" lon="-5.7309524868455535"><ele>2180</ele><speed>11.61</speed><time>2016-07-09T15:11:04Z</time><pdop>6.0</pdop><geoidheight>50.80</geoidheight><course>144.90417</course><type>1</type></trkpt>
      <trkpt lat="39.3008235426418" lon="-5.730831813234968"><ele>2176</ele><speed>11.82</speed><time>2016-07-09T15:11:05Z</time><pdop>6.0</pdop><geoidheight>50.80</geoidheight><course>142.85318</course><type>1</type></trkpt>
      <trkpt lat="39.300651448111005" lon="-5.730664431956896"><ele>2172</ele><speed>13.18</speed><time>2016-07-09T15:11:08Z</time><pdop>8.0</pdop><geoidheight>50.80</geoidheight><course>139.68448</course><type>1</type></trkpt>
      <trkpt lat="39.30048266681451" lon="-5.730501236704511"><ele>2167</ele><speed>11.87</speed><time>2016-07-09T15:11:10Z</time><pdop>8.0</pdop><geoidheight>50.80</geoidheight><course>138.55452</course><type>1</type></trkpt>
      <trkpt lat="39.300327117790665" lon="-5.730354142782382"><ele>2161</ele><speed>10.20</speed><time>2016-07-09T15:11:12Z</time><pdop>6.0</pdop><geoidheight>50.80</geoidheight><course>138.62756</course><type>1</type></trkpt>
      <trkpt lat="39.30016157889535" lon="-5.730191128543656"><ele>2154</ele><speed>12.69</speed><time>2016-07-09T15:11:14Z</time><pdop>6.0</pdop><geoidheight>50.80</geoidheight><course>137.02617</course><type>1</type></trkpt>
      <trkpt lat="39.29999326877595" lon="-5.7300167111142875"><ele>2148</ele><speed>13.18</speed><time>2016-07-09T15:11:16Z</time><pdop>8.0</pdop><geoidheight>50.80</geoidheight><course>136.98634</course><type>1</type></trkpt>
      <trkpt lat="39.299840307754316" lon="-5.729868666943063"><ele>2141</ele><speed>11.43</speed><time>2016-07-09T15:11:18Z</time><pdop>8.0</pdop><geoidheight>50.80</geoidheight><course>135.43776</course><type>1</type></trkpt>
      <trkpt lat="39.299704147027796" lon="-5.729725507321367"><ele>2134</ele><speed>11.13</speed><time>2016-07-09T15:11:20Z</time><pdop>6.0</pdop><geoidheight>50.80</geoidheight><course>133.00668</course><type>1</type></trkpt>
      <trkpt lat="39.29955427391609" lon="-5.729562459725681"><ele>2127</ele><speed>12.93</speed><time>2016-07-09T15:11:22Z</time><pdop>6.0</pdop><geoidheight>50.80</geoidheight><course>133.04782</course><type>1</type></trkpt>
      <trkpt lat="39.29939216002634" lon="-5.729385566019074"><ele>2120</ele><speed>12.29</speed><time>2016-07-09T15:11:24Z</time><pdop>6.0</pdop><geoidheight>50.80</geoidheight><course>133.36092</course><type>1</type></trkpt>
      <trkpt lat="39.2992473737956" lon="-5.72922931731402"><ele>2113</ele><speed>10.88</speed><time>2016-07-09T15:11:26Z</time><pdop>6.0</pdop><geoidheight>50.80</geoidheight><course>133.35637</course><type>1</type></trkpt>
      <trkpt lat="39.2991091562957" lon="-5.729079019297428"><ele>2108</ele><speed>11.98</speed><time>2016-07-09T15:11:28Z</time><pdop>6.0</pdop><geoidheight>50.80</geoidheight><course>133.75891</course><type>1</type></trkpt>
      <trkpt lat="39.298933465901506" lon="-5.728892223873133"><ele>2102</ele><speed>12.71</speed><time>2016-07-09T15:11:30Z</time><pdop>6.0</pdop><geoidheight>50.80</geoidheight><course>136.18364</course><type>1</type></trkpt>
      <trkpt lat="39.29876978814873" lon="-5.728719316208114"><ele>2097</ele><speed>11.66</speed><time>2016-07-09T15:11:32Z</time><pdop>8.0</pdop><geoidheight>50.80</geoidheight><course>138.87527</course><type>1</type></trkpt>
      <trkpt lat="39.29860609549035" lon="-5.72855807014913"><ele>2094</ele><speed>11.30</speed><time>2016-07-09T15:11:34Z</time><pdop>8.0</pdop><geoidheight>50.80</geoidheight><course>139.84265</course><type>1</type></trkpt>
      <trkpt lat="39.29844078325454" lon="-5.728395119712441"><ele>2091</ele><speed>13.10</speed><time>2016-07-09T15:11:36Z</time><pdop>8.0</pdop><geoidheight>50.80</geoidheight><course>138.18037</course><type>1</type></trkpt>
      <trkpt lat="39.29828160892165" lon="-5.728216491759875"><ele>2092</ele><speed>11.91</speed><time>2016-07-09T15:11:38Z</time><pdop>8.0</pdop><geoidheight>50.80</geoidheight><course>136.47203</course><type>1</type></trkpt>
      <trkpt lat="39.29814282239941" lon="-5.7280391769884496"><ele>2092</ele><speed>11.09</speed><time>2016-07-09T15:11:40Z</time><pdop>8.0</pdop><geoidheight>50.80</geoidheight><course>133.6013</course><type>1</type></trkpt>
      <trkpt lat="39.298019016803494" lon="-5.727879523250498"><ele>2090</ele><speed>14.17</speed><time>2016-07-09T15:11:42Z</time><pdop>6.0</pdop><geoidheight>50.80</geoidheight><course>129.90363</course><type>1</type></trkpt>
      <trkpt lat="39.297861101064335" lon="-5.727648906484956"><ele>2085</ele><speed>15.35</speed><time>2016-07-09T15:11:44Z</time><pdop>8.0</pdop><geoidheight>50.80</geoidheight><course>129.04294</course><type>1</type></trkpt>
      <trkpt lat="39.297696381153756" lon="-5.7274483627506285"><ele>2081</ele><speed>15.04</speed><time>2016-07-09T15:11:46Z</time><pdop>8.0</pdop><geoidheight>50.80</geoidheight><course>131.88211</course><type>1</type></trkpt>
      <trkpt lat="39.297482847224856" lon="-5.7272155733955605"><ele>2074</ele><speed>15.54</speed><time>2016-07-09T15:11:48Z</time><pdop>8.0</pdop><geoidheight>50.80</geoidheight><course>135.01234</course><type>1</type></trkpt>
      <trkpt lat="39.29736713945968" lon="-5.727087249190148"><ele>2071</ele><speed>15.43</speed><time>2016-07-09T15:11:49Z</time><pdop>8.0</pdop><geoidheight>50.80</geoidheight><course>136.1907</course><type>1</type></trkpt>
      <trkpt lat="39.29716056221954" lon="-5.7268679148378325"><ele>2068</ele><speed>16.13</speed><time>2016-07-09T15:11:51Z</time><pdop>8.0</pdop><geoidheight>50.80</geoidheight><course>137.62276</course><type>1</type></trkpt>
      <trkpt lat="39.29705539498559" lon="-5.726760790811934"><ele>2067</ele><speed>16.43</speed><time>2016-07-09T15:11:52Z</time><pdop>6.0</pdop><geoidheight>50.80</geoidheight><course>138.0661</course><type>1</type></trkpt>
      <trkpt lat="39.296943784312866" lon="-5.726650524502849"><ele>2066</ele><speed>17.20</speed><time>2016-07-09T15:11:53Z</time><pdop>6.0</pdop><geoidheight>50.80</geoidheight><course>138.64288</course><type>1</type></trkpt>
      <trkpt lat="39.29682991019615" lon="-5.72653789143252"><ele>2065</ele><speed>16.68</speed><time>2016-07-09T15:11:54Z</time><pdop>6.0</pdop><geoidheight>50.80</geoidheight><course>139.58418</course><type>1</type></trkpt>
      <trkpt lat="39.296714920330125" lon="-5.7264209431201385"><ele>2063</ele><speed>16.00</speed><time>2016-07-09T15:11:55Z</time><pdop>6.0</pdop><geoidheight>50.80</geoidheight><course>138.82692</course><type>1</type></trkpt>
      <trkpt lat="39.29659968403052" lon="-5.726298562782959"><ele>2061</ele><speed>16.37</speed><time>2016-07-09T15:11:56Z</time><pdop>8.0</pdop><geoidheight>50.80</geoidheight><course>137.62746</course><type>1</type></trkpt>
      <trkpt lat="39.296487087477466" lon="-5.726173701231365"><ele>2059</ele><speed>17.14</speed><time>2016-07-09T15:11:57Z</time><pdop>8.0</pdop><geoidheight>50.80</geoidheight><course>136.17892</course><type>1</type></trkpt>
      <trkpt lat="39.296281805333294" lon="-5.725952177252"><ele>2054</ele><speed>16.89</speed><time>2016-07-09T15:11:59Z</time><pdop>8.0</pdop><geoidheight>50.80</geoidheight><course>135.7829</course><type>1</type></trkpt>
      <trkpt lat="39.296181865871226" lon="-5.725846111094739"><ele>2053</ele><speed>16.74</speed><time>2016-07-09T15:12:00Z</time><pdop>6.0</pdop><geoidheight>50.80</geoidheight><course>135.39183</course><type>1</type></trkpt>
      <trkpt lat="39.29608528121242" lon="-5.725740271668478"><ele>2050</ele><speed>15.67</speed><time>2016-07-09T15:12:01Z</time><pdop>6.0</pdop><geoidheight>50.80</geoidheight><course>134.76839</course><type>1</type></trkpt>
      <trkpt lat="39.295985469027336" lon="-5.725633614254172"><ele>2048</ele><speed>16.18</speed><time>2016-07-09T15:12:02Z</time><pdop>6.0</pdop><geoidheight>50.80</geoidheight><course>134.32262</course><type>1</type></trkpt>
      <trkpt lat="39.295884585846416" lon="-5.725526502145237"><ele>2044</ele><speed>16.01</speed><time>2016-07-09T15:12:03Z</time><pdop>8.0</pdop><geoidheight>50.80</geoidheight><course>134.21857</course><type>1</type></trkpt>
      <trkpt lat="39.29568101812721" lon="-5.725337879552842"><ele>2037</ele><speed>14.06</speed><time>2016-07-09T15:12:05Z</time><pdop>8.0</pdop><geoidheight>50.80</geoidheight><course>138.99834</course><type>1</type></trkpt>
      <trkpt lat="39.295477203061886" lon="-5.725174306745014"><ele>2030</ele><speed>13.82</speed><time>2016-07-09T15:12:07Z</time><pdop>6.0</pdop><geoidheight>50.80</geoidheight><course>140.41765</course><type>1</type></trkpt>
      <trkpt lat="39.295376221040776" lon="-5.725092522239521"><ele>2027</ele><speed>13.71</speed><time>2016-07-09T15:12:08Z</time><pdop>6.0</pdop><geoidheight>50.80</geoidheight><course>140.88193</course><type>1</type></trkpt>
      <trkpt lat="39.29527296613467" lon="-5.725011776348353"><ele>2024</ele><speed>14.79</speed><time>2016-07-09T15:12:09Z</time><pdop>6.0</pdop><geoidheight>50.80</geoidheight><course>140.00667</course><type>1</type></trkpt>
      <trkpt lat="39.29515698409004" lon="-5.724911471294985"><ele>2020</ele><speed>14.73</speed><time>2016-07-09T15:12:10Z</time><pdop>6.0</pdop><geoidheight>50.80</geoidheight><course>139.17657</course><type>1</type></trkpt>
      <trkpt lat="39.295044606455804" lon="-5.724812245680362"><ele>2017</ele><speed>15.15</speed><time>2016-07-09T15:12:11Z</time><pdop>8.0</pdop><geoidheight>50.80</geoidheight><course>139.15608</course><type>1</type></trkpt>
      <trkpt lat="39.29482525205324" lon="-5.724616439476739"><ele>2010</ele><speed>15.20</speed><time>2016-07-09T15:12:13Z</time><pdop>8.0</pdop><geoidheight>50.80</geoidheight><course>140.30177</course><type>1</type></trkpt>
      <trkpt lat="39.29461252853852" lon="-5.72440714145409"><ele>2005</ele><speed>14.95</speed><time>2016-07-09T15:12:15Z</time><pdop>8.0</pdop><geoidheight>50.80</geoidheight><course>137.05069</course><type>1</type></trkpt>
      <trkpt lat="39.29440983139168" lon="-5.724189573882314"><ele>2000</ele><speed>16.18</speed><time>2016-07-09T15:12:17Z</time><pdop>8.0</pdop><geoidheight>50.80</geoidheight><course>136.61836</course><type>1</type></trkpt>
      <trkpt lat="39.29420129696768" lon="-5.723988451922318"><ele>1995</ele><speed>16.43</speed><time>2016-07-09T15:12:19Z</time><pdop>6.0</pdop><geoidheight>50.80</geoidheight><course>136.24742</course><type>1</type></trkpt>
      <trkpt lat="39.29408955075521" lon="-5.723871400990611"><ele>1992</ele><speed>15.36</speed><time>2016-07-09T15:12:20Z</time><pdop>6.0</pdop><geoidheight>50.80</geoidheight><course>136.6929</course><type>1</type></trkpt>
      <trkpt lat="39.29398456978777" lon="-5.7237594274405055"><ele>1990</ele><speed>14.81</speed><time>2016-07-09T15:12:21Z</time><pdop>6.0</pdop><geoidheight>50.80</geoidheight><course>136.67404</course><type>1</type></trkpt>
      <trkpt lat="39.293885039668254" lon="-5.723647561002679"><ele>1989</ele><speed>14.65</speed><time>2016-07-09T15:12:22Z</time><pdop>8.0</pdop><geoidheight>50.80</geoidheight><course>136.15808</course><type>1</type></trkpt>
      <trkpt lat="39.293693492156564" lon="-5.723411285725261"><ele>1986</ele><speed>15.77</speed><time>2016-07-09T15:12:24Z</time><pdop>8.0</pdop><geoidheight>50.80</geoidheight><course>133.50554</course><type>1</type></trkpt>
      <trkpt lat="39.293500252640335" lon="-5.723160271737809"><ele>1984</ele><speed>16.19</speed><time>2016-07-09T15:12:26Z</time><pdop>12.0</pdop><geoidheight>50.80</geoidheight><course>133.46088</course><type>1</type></trkpt>
      <trkpt lat="39.29329968240407" lon="-5.722908524520278"><ele>1982</ele><speed>15.14</speed><time>2016-07-09T15:12:28Z</time><pdop>12.0</pdop><geoidheight>50.80</geoidheight><course>135.0218</course><type>1</type></trkpt>
      <trkpt lat="39.293115893668336" lon="-5.722680537085252"><ele>1981</ele><speed>14.06</speed><time>2016-07-09T15:12:30Z</time><pdop>12.0</pdop><geoidheight>50.80</geoidheight><course>134.7151</course><type>1</type></trkpt>
      <trkpt lat="39.29292375126753" lon="-5.722455737315069"><ele>1980</ele><speed>13.61</speed><time>2016-07-09T15:12:32Z</time><pdop>12.0</pdop><geoidheight>50.80</geoidheight><course>137.97066</course><type>1</type></trkpt>
      <trkpt lat="39.29273020140357" lon="-5.722248868921788"><ele>1980</ele><speed>13.82</speed><time>2016-07-09T15:12:34Z</time><pdop>12.0</pdop><geoidheight>50.80</geoidheight><course>138.52206</course><type>1</type></trkpt>
      <trkpt lat="39.29255387769898" lon="-5.7220636941480745"><ele>1980</ele><speed>12.15</speed><time>2016-07-09T15:12:36Z</time><pdop>12.0</pdop><geoidheight>50.80</geoidheight><course>140.38252</course><type>1</type></trkpt>
      <trkpt lat="39.29239642815149" lon="-5.721895837359978"><ele>1980</ele><speed>10.33</speed><time>2016-07-09T15:12:38Z</time><pdop>8.0</pdop><geoidheight>50.80</geoidheight><course>137.80724</course><type>1</type></trkpt>
      <trkpt lat="39.29225573294001" lon="-5.721717748512876"><ele>1980</ele><speed>11.51</speed><time>2016-07-09T15:12:40Z</time><pdop>8.0</pdop><geoidheight>50.80</geoidheight><course>135.06812</course><type>1</type></trkpt>
      <trkpt lat="39.2921083202534" lon="-5.721515198079861"><ele>1979</ele><speed>12.79</speed><time>2016-07-09T15:12:42Z</time><pdop>6.0</pdop><geoidheight>50.80</geoidheight><course>132.6497</course><type>1</type></trkpt>
      <trkpt lat="39.29197237132492" lon="-5.721314784481678"><ele>1978</ele><speed>11.10</speed><time>2016-07-09T15:12:44Z</time><pdop>6.0</pdop><geoidheight>50.80</geoidheight><course>130.19818</course><type>1</type></trkpt>
      <trkpt lat="39.291849788285" lon="-5.72111648992884"><ele>1976</ele><speed>11.47</speed><time>2016-07-09T15:12:45Z</time><pdop>6.0</pdop><geoidheight>50.80</geoidheight><course>128.3595</course><type>1</type></trkpt>
      <trkpt lat="39.29173307967839" lon="-5.720914926312846"><ele>1976</ele><speed>12.65</speed><time>2016-07-09T15:12:48Z</time><pdop>8.0</pdop><geoidheight>50.80</geoidheight><course>127.766014</course><type>1</type></trkpt>
      <trkpt lat="39.291605380386656" lon="-5.720709115687629"><ele>1974</ele><speed>11.46</speed><time>2016-07-09T15:12:50Z</time><pdop>8.0</pdop><geoidheight>50.80</geoidheight><course>131.04495</course><type>1</type></trkpt>
      <trkpt lat="39.291487420800586" lon="-5.720542895192059"><ele>1974</ele><speed>10.68</speed><time>2016-07-09T15:12:52Z</time><pdop>8.0</pdop><geoidheight>50.80</geoidheight><course>131.6815</course><type>1</type></trkpt>
      <trkpt lat="39.29135729123733" lon="-5.7203442719525315"><ele>1975</ele><speed>12.54</speed><time>2016-07-09T15:12:54Z</time><pdop>8.0</pdop><geoidheight>50.80</geoidheight><course>129.67375</course><type>1</type></trkpt>
      <trkpt lat="39.29121388334187" lon="-5.720137570191799"><ele>1975</ele><speed>11.92</speed><time>2016-07-09T15:12:55Z</time><pdop>8.0</pdop><geoidheight>50.80</geoidheight><course>133.61157</course><type>1</type></trkpt>
      <trkpt lat="39.29106220991539" lon="-5.719952586178718"><ele>1975</ele><speed>10.47</speed><time>2016-07-09T15:12:58Z</time><pdop>8.0</pdop><geoidheight>50.80</geoidheight><course>135.60822</course><type>1</type></trkpt>
      <trkpt lat="39.29090443653965" lon="-5.719727580144285"><ele>1975</ele><speed>12.32</speed><time>2016-07-09T15:13:00Z</time><pdop>8.0</pdop><geoidheight>50.80</geoidheight><course>129.92336</course><type>1</type></trkpt>
      <trkpt lat="39.29074374499663" lon="-5.719482058222713"><ele>1974</ele><speed>13.78</speed><time>2016-07-09T15:13:02Z</time><pdop>8.0</pdop><geoidheight>50.80</geoidheight><course>130.84126</course><type>1</type></trkpt>
      <trkpt lat="39.290569102627096" lon="-5.71925799276431"><ele>1974</ele><speed>12.98</speed><time>2016-07-09T15:13:04Z</time><pdop>8.0</pdop><geoidheight>50.80</geoidheight><course>134.85275</course><type>1</type></trkpt>
      <trkpt lat="39.29040897566772" lon="-5.719056389951878"><ele>1975</ele><speed>12.86</speed><time>2016-07-09T15:13:06Z</time><pdop>8.0</pdop><geoidheight>50.80</geoidheight><course>133.17458</course><type>1</type></trkpt>
      <trkpt lat="39.29025328525861" lon="-5.718852939392058"><ele>1975</ele><speed>13.55</speed><time>2016-07-09T15:13:08Z</time><pdop>8.0</pdop><geoidheight>50.80</geoidheight><course>132.28893</course><type>1</type></trkpt>
      <trkpt lat="39.290089464907716" lon="-5.718624036656138"><ele>1974</ele><speed>13.69</speed><time>2016-07-09T15:13:10Z</time><pdop>8.0</pdop><geoidheight>50.80</geoidheight><course>131.5684</course><type>1</type></trkpt>
      <trkpt lat="39.289936377812474" lon="-5.718395997850125"><ele>1974</ele><speed>12.87</speed><time>2016-07-09T15:13:12Z</time><pdop>8.0</pdop><geoidheight>50.80</geoidheight><course>130.19911</course><type>1</type></trkpt>
      <trkpt lat="39.28979181932397" lon="-5.7181806727898685"><ele>1974</ele><speed>12.51</speed><time>2016-07-09T15:13:14Z</time><pdop>8.0</pdop><geoidheight>50.80</geoidheight><course>131.62994</course><type>1</type></trkpt>
      <trkpt lat="39.28964328671744" lon="-5.717966297619106"><ele>1974</ele><speed>12.93</speed><time>2016-07-09T15:13:16Z</time><pdop>16.0</pdop><geoidheight>50.80</geoidheight><course>130.97281</course><type>1</type></trkpt>
      <trkpt lat="39.28949599455731" lon="-5.717751609290489"><ele>1973</ele><speed>12.18</speed><time>2016-07-09T15:13:18Z</time><pdop>8.0</pdop><geoidheight>50.80</geoidheight><course>132.83524</course><type>1</type></trkpt>
      <trkpt lat="39.28933854592248" lon="-5.7175530382968285"><ele>1972</ele><speed>12.47</speed><time>2016-07-09T15:13:20Z</time><pdop>8.0</pdop><geoidheight>50.80</geoidheight><course>134.76701</course><type>1</type></trkpt>
      <trkpt lat="39.28920286394908" lon="-5.71736607729144"><ele>1970</ele><speed>11.25</speed><time>2016-07-09T15:13:21Z</time><pdop>6.0</pdop><geoidheight>50.80</geoidheight><course>130.4713</course><type>1</type></trkpt>
      <trkpt lat="39.289068178294784" lon="-5.717165742614837"><ele>1967</ele><speed>11.03</speed><time>2016-07-09T15:13:24Z</time><pdop>8.0</pdop><geoidheight>50.80</geoidheight><course>131.90967</course><type>1</type></trkpt>
      <trkpt lat="39.2889286858328" lon="-5.716983005847"><ele>1962</ele><speed>11.69</speed><time>2016-07-09T15:13:26Z</time><pdop>8.0</pdop><geoidheight>50.80</geoidheight><course>131.08318</course><type>1</type></trkpt>
      <trkpt lat="39.288815941375844" lon="-5.716815228723263"><ele>1955</ele><speed>10.53</speed><time>2016-07-09T15:13:28Z</time><pdop>6.0</pdop><geoidheight>50.80</geoidheight><course>124.83643</course><type>1</type></trkpt>
      <trkpt lat="39.28871820079819" lon="-5.716640966208835"><ele>1951</ele><speed>10.35</speed><time>2016-07-09T15:13:30Z</time><pdop>6.0</pdop><geoidheight>50.80</geoidheight><course>122.334015</course><type>1</type></trkpt>
      <trkpt lat="39.28861751930995" lon="-5.716449898440916"><ele>1949</ele><speed>11.59</speed><time>2016-07-09T15:13:32Z</time><pdop>6.0</pdop><geoidheight>50.80</geoidheight><course>122.58579</course><type>1</type></trkpt>
      <trkpt lat="39.28850943874128" lon="-5.716238269570774"><ele>1948</ele><speed>11.70</speed><time>2016-07-09T15:13:34Z</time><pdop>6.0</pdop><geoidheight>50.80</geoidheight><course>122.43674</course><type>1</type></trkpt>
      <trkpt lat="39.28838913840467" lon="-5.71602111509345"><ele>1948</ele><speed>12.09</speed><time>2016-07-09T15:13:36Z</time><pdop>6.0</pdop><geoidheight>50.80</geoidheight><course>126.03609</course><type>1</type></trkpt>
      <trkpt lat="39.28832027982106" lon="-5.715910624485934"><ele>1948</ele><speed>12.27</speed><time>2016-07-09T15:13:37Z</time><pdop>6.0</pdop><geoidheight>50.80</geoidheight><course>127.587</course><type>1</type></trkpt>
      <trkpt lat="39.288192803158175" lon="-5.715701491797554"><ele>1950</ele><speed>10.48</speed><time>2016-07-09T15:13:39Z</time><pdop>6.0</pdop><geoidheight>50.80</geoidheight><course>127.19286</course><type>1</type></trkpt>
      <trkpt lat="39.288079029149486" lon="-5.715488617553076"><ele>1951</ele><speed>11.93</speed><time>2016-07-09T15:13:41Z</time><pdop>6.0</pdop><geoidheight>50.80</geoidheight><course>124.5654</course><type>1</type></trkpt>
      <trkpt lat="39.28795171974494" lon="-5.7152407963320515"><ele>1953</ele><speed>12.94</speed><time>2016-07-09T15:13:43Z</time><pdop>6.0</pdop><geoidheight>50.80</geoidheight><course>124.64747</course><type>1</type></trkpt>
      <trkpt lat="39.287891320571774" lon="-5.715123745932948"><ele>1954</ele><speed>10.66</speed><time>2016-07-09T15:13:44Z</time><pdop>6.0</pdop><geoidheight>50.80</geoidheight><course>125.317604</course><type>1</type></trkpt>
      <trkpt lat="39.28778659249808" lon="-5.714935641475771"><ele>1957</ele><speed>7.23</speed><time>2016-07-09T15:13:46Z</time><pdop>6.0</pdop><geoidheight>50.80</geoidheight><course>127.32816</course><type>1</type></trkpt>
      <trkpt lat="39.28769035336218" lon="-5.71476378051173"><ele>1959</ele><speed>9.17</speed><time>2016-07-09T15:13:48Z</time><pdop>8.0</pdop><geoidheight>50.80</geoidheight><course>123.46789</course><type>1</type></trkpt>
      <trkpt lat="39.287592223130176" lon="-5.7145598627885"><ele>1958</ele><speed>11.31</speed><time>2016-07-09T15:13:50Z</time><pdop>8.0</pdop><geoidheight>50.80</geoidheight><course>120.40621</course><type>1</type></trkpt>
      <trkpt lat="39.28749521451988" lon="-5.714365844302887"><ele>1958</ele><speed>8.49</speed><time>2016-07-09T15:13:52Z</time><pdop>6.0</pdop><geoidheight>50.80</geoidheight><course>123.29382</course><type>1</type></trkpt>
      <trkpt lat="39.28741130218887" lon="-5.714224291025747"><ele>1960</ele><speed>7.85</speed><time>2016-07-09T15:13:54Z</time><pdop>8.0</pdop><geoidheight>50.80</geoidheight><course>126.82264</course><type>1</type></trkpt>
      <trkpt lat="39.28731231682673" lon="-5.7140520839022315"><ele>1962</ele><speed>10.08</speed><time>2016-07-09T15:13:56Z</time><pdop>8.0</pdop><geoidheight>50.80</geoidheight><course>126.9817</course><type>1</type></trkpt>
      <trkpt lat="39.28718820019187" lon="-5.7138509772802175"><ele>1964</ele><speed>11.50</speed><time>2016-07-09T15:13:58Z</time><pdop>8.0</pdop><geoidheight>50.80</geoidheight><course>130.19623</course><type>1</type></trkpt>
      <trkpt lat="39.28705443354627" lon="-5.713659735215292"><ele>1966</ele><speed>10.43</speed><time>2016-07-09T15:14:00Z</time><pdop>8.0</pdop><geoidheight>50.80</geoidheight><course>132.86172</course><type>1</type></trkpt>
      <trkpt lat="39.28692025262983" lon="-5.713495420182254"><ele>1968</ele><speed>10.52</speed><time>2016-07-09T15:14:02Z</time><pdop>8.0</pdop><geoidheight>50.80</geoidheight><course>136.28395</course><type>1</type></trkpt>
      <trkpt lat="39.286788580663384" lon="-5.713341685894604"><ele>1971</ele><speed>9.68</speed><time>2016-07-09T15:14:04Z</time><pdop>8.0</pdop><geoidheight>50.80</geoidheight><course>137.1085</course><type>1</type></trkpt>
      <trkpt lat="39.286664465172656" lon="-5.7131896749681745"><ele>1974</ele><speed>9.15</speed><time>2016-07-09T15:14:06Z</time><pdop>8.0</pdop><geoidheight>50.80</geoidheight><course>135.22638</course><type>1</type></trkpt>
      <trkpt lat="39.28654766727894" lon="-5.71300735647554"><ele>1977</ele><speed>11.05</speed><time>2016-07-09T15:14:08Z</time><pdop>8.0</pdop><geoidheight>50.80</geoidheight><course>128.5755</course><type>1</type></trkpt>
      <trkpt lat="39.28642232652035" lon="-5.712777975900666"><ele>1979</ele><speed>12.56</speed><time>2016-07-09T15:14:10Z</time><pdop>8.0</pdop><geoidheight>50.80</geoidheight><course>126.67461</course><type>1</type></trkpt>
      <trkpt lat="39.2862958359519" lon="-5.712549781400459"><ele>1981</ele><speed>11.61</speed><time>2016-07-09T15:14:11Z</time><pdop>8.0</pdop><geoidheight>50.80</geoidheight><course>126.51818</course><type>1</type></trkpt>
      <trkpt lat="39.286187064232394" lon="-5.712330791166799"><ele>1983</ele><speed>11.11</speed><time>2016-07-09T15:14:14Z</time><pdop>8.0</pdop><geoidheight>50.80</geoidheight><course>123.001015</course><type>1</type></trkpt>
      <trkpt lat="39.2860858123029" lon="-5.712115517608656"><ele>1986</ele><speed>10.89</speed><time>2016-07-09T15:14:15Z</time><pdop>8.0</pdop><geoidheight>50.80</geoidheight><course>123.82552</course><type>1</type></trkpt>
      <trkpt lat="39.285987988615844" lon="-5.711901644831065"><ele>1989</ele><speed>10.83</speed><time>2016-07-09T15:14:18Z</time><pdop>12.0</pdop><geoidheight>50.80</geoidheight><course>121.38332</course><type>1</type></trkpt>
      <trkpt lat="39.285890861457105" lon="-5.711677732281447"><ele>1991</ele><speed>11.66</speed><time>2016-07-09T15:14:20Z</time><pdop>6.0</pdop><geoidheight>50.80</geoidheight><course>121.94018</course><type>1</type></trkpt>
      <trkpt lat="39.285770023168034" lon="-5.711465550754259"><ele>1991</ele><speed>11.47</speed><time>2016-07-09T15:14:22Z</time><pdop>6.0</pdop><geoidheight>50.80</geoidheight><course>128.20738</course><type>1</type></trkpt>
      <trkpt lat="39.285646907192856" lon="-5.711287453652043"><ele>1991</ele><speed>10.27</speed><time>2016-07-09T15:14:24Z</time><pdop>12.0</pdop><geoidheight>50.80</geoidheight><course>130.59341</course><type>1</type></trkpt>
      <trkpt lat="39.28551508416174" lon="-5.711112419653028"><ele>1991</ele><speed>11.17</speed><time>2016-07-09T15:14:26Z</time><pdop>6.0</pdop><geoidheight>50.80</geoidheight><course>132.53844</course><type>1</type></trkpt>
      <trkpt lat="39.28535540987948" lon="-5.71092106542903"><ele>1989</ele><speed>12.76</speed><time>2016-07-09T15:14:28Z</time><pdop>6.0</pdop><geoidheight>50.80</geoidheight><course>134.49377</course><type>1</type></trkpt>
      <trkpt lat="39.285209928924" lon="-5.710707560097277"><ele>1987</ele><speed>11.65</speed><time>2016-07-09T15:14:30Z</time><pdop>8.0</pdop><geoidheight>50.80</geoidheight><course>128.40262</course><type>1</type></trkpt>
      <trkpt lat="39.285100533772386" lon="-5.710528364424937"><ele>1989</ele><speed>9.34</speed><time>2016-07-09T15:14:31Z</time><pdop>8.0</pdop><geoidheight>50.80</geoidheight><course>128.7463</course><type>1</type></trkpt>
      <trkpt lat="39.28498827324647" lon="-5.7103489490764625"><ele>1990</ele><speed>10.31</speed><time>2016-07-09T15:14:34Z</time><pdop>8.0</pdop><geoidheight>50.80</geoidheight><course>127.735374</course><type>1</type></trkpt>
      <trkpt lat="39.28487572121454" lon="-5.710144377955978"><ele>1991</ele><speed>11.03</speed><time>2016-07-09T15:14:36Z</time><pdop>8.0</pdop><geoidheight>50.80</geoidheight><course>123.74896</course><type>1</type></trkpt>
      <trkpt lat="39.284777220281384" lon="-5.709968196370101"><ele>1990</ele><speed>9.36</speed><time>2016-07-09T15:14:38Z</time><pdop>6.0</pdop><geoidheight>50.80</geoidheight><course>125.22718</course><type>1</type></trkpt>
      <trkpt lat="39.28465989707364" lon="-5.709788473334653"><ele>1989</ele><speed>10.57</speed><time>2016-07-09T15:14:40Z</time><pdop>12.0</pdop><geoidheight>50.80</geoidheight><course>128.4182</course><type>1</type></trkpt>
      <trkpt lat="39.28452802755965" lon="-5.709596260850043"><ele>1988</ele><speed>11.09</speed><time>2016-07-09T15:14:41Z</time><pdop>6.0</pdop><geoidheight>50.80</geoidheight><course>130.74936</course><type>1</type></trkpt>
      <trkpt lat="39.28439002312975" lon="-5.709431893239875"><ele>1988</ele><speed>10.12</speed><time>2016-07-09T15:14:44Z</time><pdop>6.0</pdop><geoidheight>50.80</geoidheight><course>136.81871</course><type>1</type></trkpt>
      <trkpt lat="39.284248089118734" lon="-5.709276746485487"><ele>1988</ele><speed>10.19</speed><time>2016-07-09T15:14:46Z</time><pdop>8.0</pdop><geoidheight>50.80</geoidheight><course>136.23193</course><type>1</type></trkpt>
      <trkpt lat="39.284100518556805" lon="-5.709104660630641"><ele>1990</ele><speed>10.61</speed><time>2016-07-09T15:14:48Z</time><pdop>6.0</pdop><geoidheight>50.80</geoidheight><course>137.17055</course><type>1</type></trkpt>
      <trkpt lat="39.283946475008534" lon="-5.7089591328521685"><ele>1992</ele><speed>10.56</speed><time>2016-07-09T15:14:50Z</time><pdop>6.0</pdop><geoidheight>50.80</geoidheight><course>144.27922</course><type>1</type></trkpt>
      <trkpt lat="39.2837906197585" lon="-5.708825330911624"><ele>1995</ele><speed>9.81</speed><time>2016-07-09T15:14:52Z</time><pdop>12.0</pdop><geoidheight>50.80</geoidheight><course>143.82068</course><type>1</type></trkpt>
      <trkpt lat="39.2835759528735" lon="-5.708630806314496"><ele>1999</ele><speed>10.35</speed><time>2016-07-09T15:14:55Z</time><pdop>8.0</pdop><geoidheight>50.80</geoidheight><course>145.78804</course><type>1</type></trkpt>
      <trkpt lat="39.28343797365592" lon="-5.70851848707504"><ele>2001</ele><speed>7.61</speed><time>2016-07-09T15:14:57Z</time><pdop>6.0</pdop><geoidheight>50.80</geoidheight><course>148.84216</course><type>1</type></trkpt>
      <trkpt lat="39.2833256908648" lon="-5.708426745881168"><ele>2004</ele><speed>6.66</speed><time>2016-07-09T15:14:59Z</time><pdop>6.0</pdop><geoidheight>50.80</geoidheight><course>149.31891</course><type>1</type></trkpt>
      <trkpt lat="39.28321416432426" lon="-5.708334922359175"><ele>2008</ele><speed>7.01</speed><time>2016-07-09T15:15:01Z</time><pdop>6.0</pdop><geoidheight>50.80</geoidheight><course>150.4617</course><type>1</type></trkpt>
      <trkpt lat="39.28309646901429" lon="-5.708238014844609"><ele>2012</ele><speed>7.60</speed><time>2016-07-09T15:15:03Z</time><pdop>6.0</pdop><geoidheight>50.80</geoidheight><course>151.92035</course><type>1</type></trkpt>
      <trkpt lat="39.28296317545494" lon="-5.70813671675968"><ele>2016</ele><speed>8.53</speed><time>2016-07-09T15:15:05Z</time><pdop>6.0</pdop><geoidheight>50.80</geoidheight><course>153.00627</course><type>1</type></trkpt>
      <trkpt lat="39.28284641299811" lon="-5.708045110454591"><ele>2020</ele><speed>6.33</speed><time>2016-07-09T15:15:07Z</time><pdop>6.0</pdop><geoidheight>50.80</geoidheight><course>155.70816</course><type>1</type></trkpt>
      <trkpt lat="39.28274680220762" lon="-5.70797464549562"><ele>2024</ele><speed>6.03</speed><time>2016-07-09T15:15:09Z</time><pdop>6.0</pdop><geoidheight>50.80</geoidheight><course>157.65656</course><type>1</type></trkpt>
      <trkpt lat="39.28263473514793" lon="-5.707884754550296"><ele>2027</ele><speed>7.76</speed><time>2016-07-09T15:15:11Z</time><pdop>6.0</pdop><geoidheight>50.80</geoidheight><course>151.42323</course><type>1</type></trkpt>
      <trkpt lat="39.282546160909725" lon="-5.707766535940167"><ele>2030</ele><speed>6.61</speed><time>2016-07-09T15:15:13Z</time><pdop>8.0</pdop><geoidheight>50.80</geoidheight><course>135.8599</course><type>1</type></trkpt>
      <trkpt lat="39.28242809101539" lon="-5.707624402038491"><ele>2032</ele><speed>5.25</speed><time>2016-07-09T15:15:16Z</time><pdop>6.0</pdop><geoidheight>50.80</geoidheight><course>143.09418</course><type>1</type></trkpt>
      <trkpt lat="39.28234258903699" lon="-5.707535095611001"><ele>2034</ele><speed>6.26</speed><time>2016-07-09T15:15:18Z</time><pdop>6.0</pdop><geoidheight>50.80</geoidheight><course>141.697</course><type>1</type></trkpt>
      <trkpt lat="39.28224174501378" lon="-5.707424055372425"><ele>2035</ele><speed>7.74</speed><time>2016-07-09T15:15:20Z</time><pdop>6.0</pdop><geoidheight>50.80</geoidheight><course>139.15866</course><type>1</type></trkpt>
      <trkpt lat="39.28214424654157" lon="-5.707317598335557"><ele>2037</ele><speed>6.25</speed><time>2016-07-09T15:15:22Z</time><pdop>6.0</pdop><geoidheight>50.80</geoidheight><course>142.6957</course><type>1</type></trkpt>
      <trkpt lat="39.282009865493826" lon="-5.707172396410362"><ele>2042</ele><speed>6.57</speed><time>2016-07-09T15:15:25Z</time><pdop>6.0</pdop><geoidheight>50.80</geoidheight><course>142.25935</course><type>1</type></trkpt>
      <trkpt lat="39.28186674467957" lon="-5.707027646581725"><ele>2047</ele><speed>6.56</speed><time>2016-07-09T15:15:28Z</time><pdop>6.0</pdop><geoidheight>50.80</geoidheight><course>142.56277</course><type>1</type></trkpt>
      <trkpt lat="39.28178223042546" lon="-5.706939867354026"><ele>2050</ele><speed>6.08</speed><time>2016-07-09T15:15:30Z</time><pdop>6.0</pdop><geoidheight>50.80</geoidheight><course>142.15945</course><type>1</type></trkpt>
      <trkpt lat="39.28166907552724" lon="-5.706846815747585"><ele>2052</ele><speed>8.35</speed><time>2016-07-09T15:15:32Z</time><pdop>6.0</pdop><geoidheight>50.80</geoidheight><course>147.17343</course><type>1</type></trkpt>
      <trkpt lat="39.281528747014235" lon="-5.706742818680091"><ele>2053</ele><speed>9.34</speed><time>2016-07-09T15:15:34Z</time><pdop>8.0</pdop><geoidheight>50.80</geoidheight><course>148.74165</course><type>1</type></trkpt>
      <trkpt lat="39.281398293607666" lon="-5.706656802218113"><ele>2054</ele><speed>7.19</speed><time>2016-07-09T15:15:36Z</time><pdop>6.0</pdop><geoidheight>50.80</geoidheight><course>153.02606</course><type>1</type></trkpt>
      <trkpt lat="39.28127990314275" lon="-5.706582719090976"><ele>2056</ele><speed>7.14</speed><time>2016-07-09T15:15:38Z</time><pdop>8.0</pdop><geoidheight>50.80</geoidheight><course>157.1579</course><type>1</type></trkpt>
      <trkpt lat="39.28113972011046" lon="-5.706494783389934"><ele>2059</ele><speed>9.20</speed><time>2016-07-09T15:15:40Z</time><pdop>8.0</pdop><geoidheight>50.80</geoidheight><course>154.79716</course><type>1</type></trkpt>
      <trkpt lat="39.28100404140931" lon="-5.706396917240953"><ele>2062</ele><speed>8.25</speed><time>2016-07-09T15:15:42Z</time><pdop>6.0</pdop><geoidheight>50.80</geoidheight><course>153.21297</course><type>1</type></trkpt>
      <trkpt lat="39.280880037425156" lon="-5.706304260892887"><ele>2065</ele><speed>7.88</speed><time>2016-07-09T15:15:44Z</time><pdop>6.0</pdop><geoidheight>50.80</geoidheight><course>151.26108</course><type>1</type></trkpt>
      <trkpt lat="39.28075548985" lon="-5.706188950984528"><ele>2066</ele><speed>8.76</speed><time>2016-07-09T15:15:46Z</time><pdop>6.0</pdop><geoidheight>50.80</geoidheight><course>144.53514</course><type>1</type></trkpt>
      <trkpt lat="39.28064350004245" lon="-5.7060508892129205"><ele>2068</ele><speed>8.72</speed><time>2016-07-09T15:15:48Z</time><pdop>8.0</pdop><geoidheight>50.80</geoidheight><course>137.32993</course><type>1</type></trkpt>
      <trkpt lat="39.28055354239925" lon="-5.705900785497898"><ele>2069</ele><speed>8.03</speed><time>2016-07-09T15:15:50Z</time><pdop>6.0</pdop><geoidheight>50.80</geoidheight><course>130.76805</course><type>1</type></trkpt>
      <trkpt lat="39.280459202617486" lon="-5.705754435021523"><ele>2070</ele><speed>8.09</speed><time>2016-07-09T15:15:52Z</time><pdop>6.0</pdop><geoidheight>50.80</geoidheight><course>135.32616</course><type>1</type></trkpt>
      <trkpt lat="39.2803442976731" lon="-5.70565640181632"><ele>2072</ele><speed>7.06</speed><time>2016-07-09T15:15:54Z</time><pdop>6.0</pdop><geoidheight>50.80</geoidheight><course>150.12448</course><type>1</type></trkpt>
      <trkpt lat="39.28024453642521" lon="-5.7055599087497555"><ele>2074</ele><speed>6.90</speed><time>2016-07-09T15:15:56Z</time><pdop>6.0</pdop><geoidheight>50.80</geoidheight><course>145.22827</course><type>1</type></trkpt>
      <trkpt lat="39.28012299136906" lon="-5.705437786043914"><ele>2077</ele><speed>9.00</speed><time>2016-07-09T15:15:58Z</time><pdop>6.0</pdop><geoidheight>50.80</geoidheight><course>145.42473</course><type>1</type></trkpt>
      <trkpt lat="39.280003530208944" lon="-5.705331211081938"><ele>2080</ele><speed>7.72</speed><time>2016-07-09T15:16:00Z</time><pdop>6.0</pdop><geoidheight>50.80</geoidheight><course>147.53343</course><type>1</type></trkpt>
      <trkpt lat="39.27989914093744" lon="-5.70522938995733"><ele>2083</ele><speed>7.15</speed><time>2016-07-09T15:16:02Z</time><pdop>6.0</pdop><geoidheight>50.80</geoidheight><course>142.96675</course><type>1</type></trkpt>
      <trkpt lat="39.279791720061176" lon="-5.705117299403158"><ele>2086</ele><speed>8.11</speed><time>2016-07-09T15:16:04Z</time><pdop>6.0</pdop><geoidheight>50.80</geoidheight><course>143.30353</course><type>1</type></trkpt>
      <trkpt lat="39.27965851743237" lon="-5.705002537961502"><ele>2088</ele><speed>9.06</speed><time>2016-07-09T15:16:06Z</time><pdop>6.0</pdop><geoidheight>50.80</geoidheight><course>148.09312</course><type>1</type></trkpt>
      <trkpt lat="39.27953445192427" lon="-5.704909587285791"><ele>2091</ele><speed>7.31</speed><time>2016-07-09T15:16:08Z</time><pdop>6.0</pdop><geoidheight>50.80</geoidheight><course>149.40466</course><type>1</type></trkpt>
      <trkpt lat="39.279420639471226" lon="-5.704818329759043"><ele>2094</ele><speed>7.32</speed><time>2016-07-09T15:16:10Z</time><pdop>6.0</pdop><geoidheight>50.80</geoidheight><course>148.11781</course><type>1</type></trkpt>
      <trkpt lat="39.279293661371305" lon="-5.704704898962627"><ele>2099</ele><speed>8.27</speed><time>2016-07-09T15:16:12Z</time><pdop>6.0</pdop><geoidheight>50.80</geoidheight><course>148.19226</course><type>1</type></trkpt>
      <trkpt lat="39.27917458668402" lon="-5.704608891903395"><ele>2103</ele><speed>7.30</speed><time>2016-07-09T15:16:14Z</time><pdop>6.0</pdop><geoidheight>50.80</geoidheight><course>149.6055</course><type>1</type></trkpt>
      <trkpt lat="39.27905980109455" lon="-5.704525069104522"><ele>2108</ele><speed>7.24</speed><time>2016-07-09T15:16:16Z</time><pdop>6.0</pdop><geoidheight>50.80</geoidheight><course>153.49251</course><type>1</type></trkpt>
      <trkpt lat="39.27891582803091" lon="-5.704437040402638"><ele>2112</ele><speed>9.23</speed><time>2016-07-09T15:16:18Z</time><pdop>8.0</pdop><geoidheight>50.80</geoidheight><course>156.31035</course><type>1</type></trkpt>
      <trkpt lat="39.27874101490456" lon="-5.704350761986751"><ele>2116</ele><speed>10.51</speed><time>2016-07-09T15:16:20Z</time><pdop>8.0</pdop><geoidheight>50.80</geoidheight><course>159.82333</course><type>1</type></trkpt>
      <trkpt lat="39.278555197081424" lon="-5.704282943684091"><ele>2121</ele><speed>10.68</speed><time>2016-07-09T15:16:22Z</time><pdop>6.0</pdop><geoidheight>50.80</geoidheight><course>165.27388</course><type>1</type></trkpt>
      <trkpt lat="39.27836235618944" lon="-5.7042451477833245"><ele>2127</ele><speed>10.58</speed><time>2016-07-09T15:16:24Z</time><pdop>6.0</pdop><geoidheight>50.80</geoidheight><course>171.48885</course><type>1</type></trkpt>
      <trkpt lat="39.27815471092597" lon="-5.704231118714983"><ele>2133</ele><speed>11.80</speed><time>2016-07-09T15:16:26Z</time><pdop>6.0</pdop><geoidheight>50.80</geoidheight><course>176.78654</course><type>1</type></trkpt>
      <trkpt lat="39.27804731561295" lon="-5.704260489704334"><ele>2135</ele><speed>12.14</speed><time>2016-07-09T15:16:27Z</time><pdop>6.0</pdop><geoidheight>50.80</geoidheight><course>191.41054</course><type>1</type></trkpt>
      <trkpt lat="39.277819379620375" lon="-5.704420265119798"><ele>2141</ele><speed>16.05</speed><time>2016-07-09T15:16:29Z</time><pdop>8.0</pdop><geoidheight>50.80</geoidheight><course>220.7066</course><type>1</type></trkpt>
      <trkpt lat="39.277727258226996" lon="-5.704572435886605"><ele>2145</ele><speed>16.93</speed><time>2016-07-09T15:16:30Z</time><pdop>8.0</pdop><geoidheight>50.80</geoidheight><course>233.27916</course><type>1</type></trkpt>
      <trkpt lat="39.277671991271035" lon="-5.70489641646573"><ele>2150</ele><speed>13.55</speed><time>2016-07-09T15:16:32Z</time><pdop>8.0</pdop><geoidheight>50.80</geoidheight><course>272.1894</course><type>1</type></trkpt>
      <trkpt lat="39.27774638174787" lon="-5.705152490328385"><ele>2154</ele><speed>10.66</speed><time>2016-07-09T15:16:34Z</time><pdop>8.0</pdop><geoidheight>50.80</geoidheight><course>302.96674</course><type>1</type></trkpt>
      <trkpt lat="39.277833978110664" lon="-5.705333824846569"><ele>2156</ele><speed>7.77</speed><time>2016-07-09T15:16:35Z</time><pdop>6.0</pdop><geoidheight>50.80</geoidheight><course>319.18042</course><type>1</type></trkpt>
      <trkpt lat="39.27794657495299" lon="-5.705327886448799"><ele>2160</ele><speed>4.28</speed><time>2016-07-09T15:16:39Z</time><pdop>6.0</pdop><geoidheight>50.80</geoidheight><course>54.55596</course><type>1</type></trkpt>
      <trkpt lat="39.27792874153616" lon="-5.7051741228982005"><ele>2167</ele><speed>5.99</speed><time>2016-07-09T15:16:42Z</time><pdop>6.0</pdop><geoidheight>50.80</geoidheight><course>126.94674</course><type>1</type></trkpt>
      <trkpt lat="39.27781879185671" lon="-5.705080987927172"><ele>2173</ele><speed>9.00</speed><time>2016-07-09T15:16:44Z</time><pdop>6.0</pdop><geoidheight>50.80</geoidheight><course>156.9111</course><type>1</type></trkpt>
      <trkpt lat="39.2776299520838" lon="-5.70502858660564"><ele>2179</ele><speed>12.41</speed><time>2016-07-09T15:16:46Z</time><pdop>6.0</pdop><geoidheight>50.80</geoidheight><course>176.43024</course><type>1</type></trkpt>
      <trkpt lat="39.277504755742164" lon="-5.705070451607383"><ele>2182</ele><speed>15.12</speed><time>2016-07-09T15:16:47Z</time><pdop>6.0</pdop><geoidheight>50.80</geoidheight><course>194.74706</course><type>1</type></trkpt>
      <trkpt lat="39.27738170925898" lon="-5.705115801935479"><ele>2184</ele><speed>15.20</speed><time>2016-07-09T15:16:48Z</time><pdop>8.0</pdop><geoidheight>50.80</geoidheight><course>197.93228</course><type>1</type></trkpt>
      <trkpt lat="39.277167831795616" lon="-5.705340745929955"><ele>2190</ele><speed>15.71</speed><time>2016-07-09T15:16:50Z</time><pdop>8.0</pdop><geoidheight>50.80</geoidheight><course>222.14696</course><type>1</type></trkpt>
      <trkpt lat="39.27709912063836" lon="-5.705506039478989"><ele>2193</ele><speed>16.67</speed><time>2016-07-09T15:16:51Z</time><pdop>8.0</pdop><geoidheight>50.80</geoidheight><course>243.79588</course><type>1</type></trkpt>
      <trkpt lat="39.27705544073984" lon="-5.705847686160866"><ele>2196</ele><speed>14.86</speed><time>2016-07-09T15:16:53Z</time><pdop>8.0</pdop><geoidheight>50.80</geoidheight><course>272.63858</course><type>1</type></trkpt>
      <trkpt lat="39.27717043606508" lon="-5.706072577046685"><ele>2198</ele><speed>10.90</speed><time>2016-07-09T15:16:55Z</time><pdop>8.0</pdop><geoidheight>50.80</geoidheight><course>321.07806</course><type>1</type></trkpt>
      <trkpt lat="39.277331265422944" lon="-5.706160184162637"><ele>2200</ele><speed>8.65</speed><time>2016-07-09T15:16:56Z</time><pdop>8.0</pdop><geoidheight>50.80</geoidheight><course>340.49884</course><type>1</type></trkpt>
      <trkpt lat="39.277474104963716" lon="-5.7060959241168385"><ele>2203</ele><speed>3.67</speed><time>2016-07-09T15:17:01Z</time><pdop>6.0</pdop><geoidheight>50.80</geoidheight><course>65.6203</course><type>1</type></trkpt>
      <trkpt lat="39.27745736933525" lon="-5.705917003148315"><ele>2217</ele><speed>7.47</speed><time>2016-07-09T15:17:05Z</time><pdop>6.0</pdop><geoidheight>50.80</geoidheight><course>129.90216</course><type>1</type></trkpt>
      <trkpt lat="39.27732543994758" lon="-5.705840410957931"><ele>2223</ele><speed>10.35</speed><time>2016-07-09T15:17:07Z</time><pdop>6.0</pdop><geoidheight>50.80</geoidheight><course>162.76364</course><type>1</type></trkpt>
      <trkpt lat="39.277110717263994" lon="-5.705831255151633"><ele>2228</ele><speed>14.33</speed><time>2016-07-09T15:17:09Z</time><pdop>8.0</pdop><geoidheight>50.80</geoidheight><course>188.20572</course><type>1</type></trkpt>
      <trkpt lat="39.27684726988516" lon="-5.705914699884427"><ele>2233</ele><speed>16.14</speed><time>2016-07-09T15:17:11Z</time><pdop>8.0</pdop><geoidheight>50.80</geoidheight><course>191.52351</course><type>1</type></trkpt>
      <trkpt lat="39.27672630388075" lon="-5.7060527591179335"><ele>2235</ele><speed>17.72</speed><time>2016-07-09T15:17:12Z</time><pdop>8.0</pdop><geoidheight>50.80</geoidheight><course>199.0893</course><type>1</type></trkpt>
      <trkpt lat="39.27668496343328" lon="-5.70638045253683"><ele>2239</ele><speed>13.87</speed><time>2016-07-09T15:17:14Z</time><pdop>8.0</pdop><geoidheight>50.80</geoidheight><course>258.8978</course><type>1</type></trkpt>
      <trkpt lat="39.27675192093899" lon="-5.706659688992282"><ele>2244</ele><speed>11.51</speed><time>2016-07-09T15:17:16Z</time><pdop>8.0</pdop><geoidheight>50.80</geoidheight><course>294.2021</course><type>1</type></trkpt>
      <trkpt lat="39.27687284223802" lon="-5.706835492241359"><ele>2248</ele><speed>9.44</speed><time>2016-07-09T15:17:18Z</time><pdop>8.0</pdop><geoidheight>50.80</geoidheight><course>316.52112</course><type>1</type></trkpt>
      <trkpt lat="39.27702195184039" lon="-5.706936360250266"><ele>2252</ele><speed>10.26</speed><time>2016-07-09T15:17:20Z</time><pdop>6.0</pdop><geoidheight>50.80</geoidheight><course>333.53232</course><type>1</type></trkpt>
      <trkpt lat="39.27716342708268" lon="-5.707043061035794"><ele>2262</ele><speed>4.93</speed><time>2016-07-09T15:17:23Z</time><pdop>6.0</pdop><geoidheight>50.80</geoidheight><course>337.07172</course><type>1</type></trkpt>
      <trkpt lat="39.27725837380717" lon="-5.707066939560069"><ele>2268</ele><speed>4.48</speed><time>2016-07-09T15:17:25Z</time><pdop>4.0</pdop><geoidheight>50.80</geoidheight><course>353.37537</course><type>1</type></trkpt>
      <trkpt lat="39.277346261037884" lon="-5.707080105886137"><ele>2272</ele><speed>5.05</speed><time>2016-07-09T15:17:27Z</time><pdop>4.0</pdop><geoidheight>50.80</geoidheight><course>351.1183</course><type>1</type></trkpt>
      <trkpt lat="39.2774312439684" lon="-5.707069288395577"><ele>2274</ele><speed>4.13</speed><time>2016-07-09T15:17:29Z</time><pdop>4.0</pdop><geoidheight>50.80</geoidheight><course>24.80099</course><type>1</type></trkpt>
      <trkpt lat="39.27746536608752" lon="-5.706984625986385"><ele>2278</ele><speed>5.85</speed><time>2016-07-09T15:17:31Z</time><pdop>4.0</pdop><geoidheight>50.80</geoidheight><course>79.64201</course><type>1</type></trkpt>
      <trkpt lat="39.27743581190878" lon="-5.706855091119283"><ele>2280</ele><speed>7.72</speed><time>2016-07-09T15:17:33Z</time><pdop>6.0</pdop><geoidheight>50.80</geoidheight><course>120.568245</course><type>1</type></trkpt>
      <trkpt lat="39.27732313527946" lon="-5.706739716418587"><ele>2283</ele><speed>9.91</speed><time>2016-07-09T15:17:35Z</time><pdop>8.0</pdop><geoidheight>50.80</geoidheight><course>154.13542</course><type>1</type></trkpt>
      <trkpt lat="39.27713988007659" lon="-5.706687536750136"><ele>2286</ele><speed>13.05</speed><time>2016-07-09T15:17:37Z</time><pdop>8.0</pdop><geoidheight>50.80</geoidheight><course>171.33449</course><type>1</type></trkpt>
      <trkpt lat="39.27689596112312" lon="-5.706783314911423"><ele>2288</ele><speed>15.64</speed><time>2016-07-09T15:17:39Z</time><pdop>8.0</pdop><geoidheight>50.80</geoidheight><course>205.31976</course><type>1</type></trkpt>
      <trkpt lat="39.27675948715461" lon="-5.7068679943220255"><ele>2288</ele><speed>16.30</speed><time>2016-07-09T15:17:40Z</time><pdop>8.0</pdop><geoidheight>50.80</geoidheight><course>207.86002</course><type>1</type></trkpt>
      <trkpt lat="39.27659025466114" lon="-5.707114685643616"><ele>2288</ele><speed>16.38</speed><time>2016-07-09T15:17:42Z</time><pdop>6.0</pdop><geoidheight>50.80</geoidheight><course>232.926</course><type>1</type></trkpt>
      <trkpt lat="39.27651619465683" lon="-5.707250630956364"><ele>2288</ele><speed>14.47</speed><time>2016-07-09T15:17:43Z</time><pdop>6.0</pdop><geoidheight>50.80</geoidheight><course>235.88051</course><type>1</type></trkpt>
      <trkpt lat="39.276446727148766" lon="-5.707399736447449"><ele>2289</ele><speed>14.98</speed><time>2016-07-09T15:17:43Z</time><pdop>6.0</pdop><geoidheight>50.80</geoidheight><course>239.1201</course><type>1</type></trkpt>
      <trkpt lat="39.276403055406504" lon="-5.70757062223934"><ele>2289</ele><speed>15.45</speed><time>2016-07-09T15:17:44Z</time><pdop>6.0</pdop><geoidheight>50.80</geoidheight><course>252.8823</course><type>1</type></trkpt>
      <trkpt lat="39.276407628864376" lon="-5.707876228632076"><ele>2290</ele><speed>13.49</speed><time>2016-07-09T15:17:47Z</time><pdop>8.0</pdop><geoidheight>50.80</geoidheight><course>279.68515</course><type>1</type></trkpt>
      <trkpt lat="39.276444607251285" lon="-5.708135878289682"><ele>2292</ele><speed>9.74</speed><time>2016-07-09T15:17:49Z</time><pdop>8.0</pdop><geoidheight>50.80</geoidheight><course>283.86044</course><type>1</type></trkpt>
      <trkpt lat="39.27649038835941" lon="-5.708399181128085"><ele>2296</ele><speed>10.96</speed><time>2016-07-09T15:17:51Z</time><pdop>8.0</pdop><geoidheight>50.80</geoidheight><course>283.85355</course><type>1</type></trkpt>
      <trkpt lat="39.276556622427165" lon="-5.7086562441790285"><ele>2301</ele><speed>9.91</speed><time>2016-07-09T15:17:53Z</time><pdop>6.0</pdop><geoidheight>50.80</geoidheight><course>291.0062</course><type>1</type></trkpt>
      <trkpt lat="39.27663532459058" lon="-5.708858333161256"><ele>2306</ele><speed>8.80</speed><time>2016-07-09T15:17:55Z</time><pdop>4.0</pdop><geoidheight>50.80</geoidheight><course>295.7519</course><type>1</type></trkpt>
      <trkpt lat="39.276678177565515" lon="-5.708950557303862"><ele>2309</ele><speed>8.62</speed><time>2016-07-09T15:17:56Z</time><pdop>4.0</pdop><geoidheight>50.80</geoidheight><course>297.06735</course><type>1</type></trkpt>
      <trkpt lat="39.27672013680504" lon="-5.7090391561747165"><ele>2312</ele><speed>8.13</speed><time>2016-07-09T15:17:57Z</time><pdop>4.0</pdop><geoidheight>50.80</geoidheight><course>297.85233</course><type>1</type></trkpt>
      <trkpt lat="39.27682372320338" lon="-5.70919642490987"><ele>2316</ele><speed>8.27</speed><time>2016-07-09T15:17:59Z</time><pdop>6.0</pdop><geoidheight>50.80</geoidheight><course>315.6933</course><type>1</type></trkpt>
      <trkpt lat="39.27696702257338" lon="-5.70931195692883"><ele>2319</ele><speed>9.50</speed><time>2016-07-09T15:18:01Z</time><pdop>6.0</pdop><geoidheight>50.80</geoidheight><course>335.0727</course><type>1</type></trkpt>
      <trkpt lat="39.277120377254974" lon="-5.70940108841104"><ele>2323</ele><speed>7.20</speed><time>2016-07-09T15:18:02Z</time><pdop>6.0</pdop><geoidheight>50.80</geoidheight><course>334.33582</course><type>1</type></trkpt>
      <trkpt lat="39.27726090501109" lon="-5.709496276368445"><ele>2329</ele><speed>6.48</speed><time>2016-07-09T15:18:06Z</time><pdop>6.0</pdop><geoidheight>50.80</geoidheight><course>333.02026</course><type>1</type></trkpt>
      <trkpt lat="39.27738978987523" lon="-5.709565300106326"><ele>2332</ele><speed>8.19</speed><time>2016-07-09T15:18:08Z</time><pdop>6.0</pdop><geoidheight>50.80</geoidheight><course>337.8045</course><type>1</type></trkpt>
      <trkpt lat="39.27751408936054" lon="-5.709626855926113"><ele>2335</ele><speed>7.06</speed><time>2016-07-09T15:18:10Z</time><pdop>6.0</pdop><geoidheight>50.80</geoidheight><course>336.51068</course><type>1</type></trkpt>
      <trkpt lat="39.277638764195736" lon="-5.709704279930052"><ele>2338</ele><speed>7.51</speed><time>2016-07-09T15:18:11Z</time><pdop>6.0</pdop><geoidheight>50.80</geoidheight><course>334.3776</course><type>1</type></trkpt>
      <trkpt lat="39.2777729115877" lon="-5.709773441398325"><ele>2340</ele><speed>7.86</speed><time>2016-07-09T15:18:14Z</time><pdop>6.0</pdop><geoidheight>50.80</geoidheight><course>339.55133</course><type>1</type></trkpt>
      <trkpt lat="39.27790635204228" lon="-5.709815128499926"><ele>2343</ele><speed>6.73</speed><time>2016-07-09T15:18:16Z</time><pdop>6.0</pdop><geoidheight>50.80</geoidheight><course>344.26385</course><type>1</type></trkpt>
      <trkpt lat="39.27802328736936" lon="-5.709845515525002"><ele>2347</ele><speed>5.57</speed><time>2016-07-09T15:18:18Z</time><pdop>6.0</pdop><geoidheight>50.80</geoidheight><course>346.3171</course><type>1</type></trkpt>
      <trkpt lat="39.27813106326092" lon="-5.709808910673104"><ele>2351</ele><speed>5.48</speed><time>2016-07-09T15:18:20Z</time><pdop>6.0</pdop><geoidheight>50.80</geoidheight><course>33.873272</course><type>1</type></trkpt>
      <trkpt lat="39.27815380306758" lon="-5.709635129721641"><ele>2356</ele><speed>7.21</speed><time>2016-07-09T15:18:23Z</time><pdop>6.0</pdop><geoidheight>50.80</geoidheight><course>109.71761</course><type>1</type></trkpt>
      <trkpt lat="39.27806753521452" lon="-5.709517970811697"><ele>2360</ele><speed>7.98</speed><time>2016-07-09T15:18:25Z</time><pdop>6.0</pdop><geoidheight>50.80</geoidheight><course>148.89198</course><type>1</type></trkpt>
      <trkpt lat="39.27793786329818" lon="-5.709403127459495"><ele>2364</ele><speed>9.15</speed><time>2016-07-09T15:18:27Z</time><pdop>6.0</pdop><geoidheight>50.80</geoidheight><course>152.1891</course><type>1</type></trkpt>
      <trkpt lat="39.27777584052453" lon="-5.709297745387014"><ele>2367</ele><speed>10.94</speed><time>2016-07-09T15:18:29Z</time><pdop>6.0</pdop><geoidheight>50.80</geoidheight><course>155.61357</course><type>1</type></trkpt>
      <trkpt lat="39.27757617715523" lon="-5.709228256552632"><ele>2369</ele><speed>11.27</speed><time>2016-07-09T15:18:31Z</time><pdop>6.0</pdop><geoidheight>50.80</geoidheight><course>172.23454</course><type>1</type></trkpt>
      <trkpt lat="39.27736954072123" lon="-5.709216545016825"><ele>2372</ele><speed>12.18</speed><time>2016-07-09T15:18:33Z</time><pdop>6.0</pdop><geoidheight>50.80</geoidheight><course>178.50609</course><type>1</type></trkpt>
      <trkpt lat="39.27725563230913" lon="-5.709216818966501"><ele>2373</ele><speed>12.44</speed><time>2016-07-09T15:18:33Z</time><pdop>6.0</pdop><geoidheight>50.80</geoidheight><course>179.9263</course><type>1</type></trkpt>
      <trkpt lat="39.27713994559883" lon="-5.70922511279124"><ele>2375</ele><speed>12.99</speed><time>2016-07-09T15:18:34Z</time><pdop>6.0</pdop><geoidheight>50.80</geoidheight><course>182.4231</course><type>1</type></trkpt>
      <trkpt lat="39.277016837051825" lon="-5.709268849411561"><ele>2376</ele><speed>13.51</speed><time>2016-07-09T15:18:36Z</time><pdop>8.0</pdop><geoidheight>50.80</geoidheight><course>195.27133</course><type>1</type></trkpt>
      <trkpt lat="39.27677801511924" lon="-5.709433939595211"><ele>2378</ele><speed>15.33</speed><time>2016-07-09T15:18:38Z</time><pdop>8.0</pdop><geoidheight>50.80</geoidheight><course>217.4802</course><type>1</type></trkpt>
      <trkpt lat="39.27666167592971" lon="-5.709546376610525"><ele>2379</ele><speed>16.38</speed><time>2016-07-09T15:18:39Z</time><pdop>8.0</pdop><geoidheight>50.80</geoidheight><course>219.89114</course><type>1</type></trkpt>
      <trkpt lat="39.27659669015498" lon="-5.709718554021203"><ele>2379</ele><speed>15.96</speed><time>2016-07-09T15:18:39Z</time><pdop>8.0</pdop><geoidheight>50.80</geoidheight><course>243.97252</course><type>1</type></trkpt>
      <trkpt lat="39.276564927821" lon="-5.710034469205391"><ele>2382</ele><speed>13.08</speed><time>2016-07-09T15:18:42Z</time><pdop>8.0</pdop><geoidheight>50.80</geoidheight><course>264.6245</course><type>1</type></trkpt>
      <trkpt lat="39.27662356529087" lon="-5.710316072357903"><ele>2384</ele><speed>11.19</speed><time>2016-07-09T15:18:44Z</time><pdop>8.0</pdop><geoidheight>50.80</geoidheight><course>287.3954</course><type>1</type></trkpt>
      <trkpt lat="39.27671767882323" lon="-5.710520484398896"><ele>2385</ele><speed>8.91</speed><time>2016-07-09T15:18:46Z</time><pdop>8.0</pdop><geoidheight>50.80</geoidheight><course>310.65878</course><type>1</type></trkpt>
      <trkpt lat="39.276825739621295" lon="-5.710649499552416"><ele>2387</ele><speed>7.44</speed><time>2016-07-09T15:18:47Z</time><pdop>6.0</pdop><geoidheight>50.80</geoidheight><course>316.05276</course><type>1</type></trkpt>
      <trkpt lat="39.27697329637181" lon="-5.710742865129937"><ele>2390</ele><speed>5.45</speed><time>2016-07-09T15:18:51Z</time><pdop>8.0</pdop><geoidheight>50.80</geoidheight><course>350.2202</course><type>1</type></trkpt>
      <trkpt lat="39.27711739108151" lon="-5.71069843589297"><ele>2393</ele><speed>5.36</speed><time>2016-07-09T15:18:54Z</time><pdop>6.0</pdop><geoidheight>50.80</geoidheight><course>18.396175</course><type>1</type></trkpt>
      <trkpt lat="39.277266205602146" lon="-5.710652255841202"><ele>2395</ele><speed>5.04</speed><time>2016-07-09T15:18:57Z</time><pdop>6.0</pdop><geoidheight>50.80</geoidheight><course>359.5891</course><type>1</type></trkpt>
      <trkpt lat="39.277414791439845" lon="-5.710641744227545"><ele>2398</ele><speed>5.31</speed><time>2016-07-09T15:18:59Z</time><pdop>4.0</pdop><geoidheight>50.80</geoidheight><course>2.831538</course><type>1</type></trkpt>
      <trkpt lat="39.27752365764329" lon="-5.7106567263189065"><ele>2399</ele><speed>7.19</speed><time>2016-07-09T15:19:01Z</time><pdop>6.0</pdop><geoidheight>50.80</geoidheight><course>347.932</course><type>1</type></trkpt>
      <trkpt lat="39.277634306980865" lon="-5.710701106532359"><ele>2400</ele><speed>5.61</speed><time>2016-07-09T15:19:04Z</time><pdop>6.0</pdop><geoidheight>50.80</geoidheight><course>342.46387</course><type>1</type></trkpt>
      <trkpt lat="39.27777148499537" lon="-5.710755672589692"><ele>2401</ele><speed>6.78</speed><time>2016-07-09T15:19:07Z</time><pdop>6.0</pdop><geoidheight>50.80</geoidheight><course>345.87183</course><type>1</type></trkpt>
      <trkpt lat="39.27789610181436" lon="-5.710799210253329"><ele>2401</ele><speed>7.77</speed><time>2016-07-09T15:19:09Z</time><pdop>6.0</pdop><geoidheight>50.80</geoidheight><course>344.7212</course><type>1</type></trkpt>
      <trkpt lat="39.27800532061945" lon="-5.7108479617205505"><ele>2401</ele><speed>5.63</speed><time>2016-07-09T15:19:11Z</time><pdop>6.0</pdop><geoidheight>50.80</geoidheight><course>340.2344</course><type>1</type></trkpt>
      <trkpt lat="39.278116627490924" lon="-5.7109103565463615"><ele>2402</ele><speed>6.95</speed><time>2016-07-09T15:19:13Z</time><pdop>6.0</pdop><geoidheight>50.80</geoidheight><course>336.72638</course><type>1</type></trkpt>
      <trkpt lat="39.278248582092104" lon="-5.710977605052243"><ele>2402</ele><speed>8.16</speed><time>2016-07-09T15:19:15Z</time><pdop>6.0</pdop><geoidheight>50.80</geoidheight><course>340.50275</course><type>1</type></trkpt>
      <trkpt lat="39.278375065994155" lon="-5.7110161381057845"><ele>2402</ele><speed>7.13</speed><time>2016-07-09T15:19:17Z</time><pdop>6.0</pdop><geoidheight>50.80</geoidheight><course>345.52893</course><type>1</type></trkpt>
      <trkpt lat="39.278484473643466" lon="-5.711066777663493"><ele>2402</ele><speed>6.23</speed><time>2016-07-09T15:19:19Z</time><pdop>6.0</pdop><geoidheight>50.80</geoidheight><course>330.0187</course><type>1</type></trkpt>
      <trkpt lat="39.278588637589365" lon="-5.711135316036164"><ele>2404</ele><speed>6.43</speed><time>2016-07-09T15:19:21Z</time><pdop>6.0</pdop><geoidheight>50.80</geoidheight><course>330.82037</course><type>1</type></trkpt>
      <trkpt lat="39.27871677163847" lon="-5.711198574375084"><ele>2407</ele><speed>7.94</speed><time>2016-07-09T15:19:23Z</time><pdop>6.0</pdop><geoidheight>50.80</geoidheight><course>337.30228</course><type>1</type></trkpt>
      <trkpt lat="39.2788495445454" lon="-5.7112500112364275"><ele>2409</ele><speed>7.09</speed><time>2016-07-09T15:19:25Z</time><pdop>6.0</pdop><geoidheight>50.80</geoidheight><course>338.50812</course><type>1</type></trkpt>
      <trkpt lat="39.27897514433644" lon="-5.711320643088098"><ele>2412</ele><speed>6.84</speed><time>2016-07-09T15:19:26Z</time><pdop>6.0</pdop><geoidheight>50.80</geoidheight><course>332.31302</course><type>1</type></trkpt>
      <trkpt lat="39.27906982231187" lon="-5.711392378228487"><ele>2416</ele><speed>6.88</speed><time>2016-07-09T15:19:29Z</time><pdop>6.0</pdop><geoidheight>50.80</geoidheight><course>331.86154</course><type>1</type></trkpt>
      <trkpt lat="39.279179387879225" lon="-5.711471833167439"><ele>2420</ele><speed>7.36</speed><time>2016-07-09T15:19:31Z</time><pdop>6.0</pdop><geoidheight>50.80</geoidheight><course>331.22443</course><type>1</type></trkpt>
      <trkpt lat="39.27930913452615" lon="-5.711563721463044"><ele>2426</ele><speed>7.13</speed><time>2016-07-09T15:19:33Z</time><pdop>6.0</pdop><geoidheight>50.80</geoidheight><course>330.82822</course><type>1</type></trkpt>
      <trkpt lat="39.27943421733531" lon="-5.71163483327714"><ele>2432</ele><speed>6.42</speed><time>2016-07-09T15:19:35Z</time><pdop>6.0</pdop><geoidheight>50.80</geoidheight><course>334.31802</course><type>1</type></trkpt>
      <trkpt lat="39.27955756987461" lon="-5.71166730408297"><ele>2438</ele><speed>5.23</speed><time>2016-07-09T15:19:37Z</time><pdop>6.0</pdop><geoidheight>50.80</geoidheight><course>358.37198</course><type>1</type></trkpt>
      <trkpt lat="39.279617185458484" lon="-5.711540834426319"><ele>2445</ele><speed>7.67</speed><time>2016-07-09T15:19:40Z</time><pdop>6.0</pdop><geoidheight>50.80</geoidheight><course>96.51005</course><type>1</type></trkpt>
      <trkpt lat="39.27953205195516" lon="-5.711386856278029"><ele>2447</ele><speed>9.85</speed><time>2016-07-09T15:19:42Z</time><pdop>6.0</pdop><geoidheight>50.80</geoidheight><course>140.52338</course><type>1</type></trkpt>
      <trkpt lat="39.279376660391385" lon="-5.711271929904077"><ele>2449</ele><speed>10.04</speed><time>2016-07-09T15:19:44Z</time><pdop>6.0</pdop><geoidheight>50.80</geoidheight><course>157.32034</course><type>1</type></trkpt>
      <trkpt lat="39.27918489688358" lon="-5.71123409445604"><ele>2452</ele><speed>12.55</speed><time>2016-07-09T15:19:46Z</time><pdop>8.0</pdop><geoidheight>50.80</geoidheight><course>173.8859</course><type>1</type></trkpt>
      <trkpt lat="39.2789450967792" lon="-5.71128715271435"><ele>2456</ele><speed>15.08</speed><time>2016-07-09T15:19:48Z</time><pdop>8.0</pdop><geoidheight>50.80</geoidheight><course>190.93947</course><type>1</type></trkpt>
      <trkpt lat="39.27871860915484" lon="-5.711484071452597"><ele>2459</ele><speed>15.97</speed><time>2016-07-09T15:19:50Z</time><pdop>8.0</pdop><geoidheight>50.80</geoidheight><course>215.20622</course><type>1</type></trkpt>
      <trkpt lat="39.27855601299511" lon="-5.711754899512758"><ele>2463</ele><speed>15.31</speed><time>2016-07-09T15:19:52Z</time><pdop>8.0</pdop><geoidheight>50.80</geoidheight><course>236.00064</course><type>1</type></trkpt>
      <trkpt lat="39.2784975753174" lon="-5.712064113108629"><ele>2470</ele><speed>14.23</speed><time>2016-07-09T15:19:54Z</time><pdop>8.0</pdop><geoidheight>50.80</geoidheight><course>257.61142</course><type>1</type></trkpt>
      <trkpt lat="39.27855499072149" lon="-5.712367227865254"><ele>2477</ele><speed>12.53</speed><time>2016-07-09T15:19:56Z</time><pdop>8.0</pdop><geoidheight>50.80</geoidheight><course>290.81137</course><type>1</type></trkpt>
      <trkpt lat="39.278668282159835" lon="-5.712598073300472"><ele>2483</ele><speed>9.65</speed><time>2016-07-09T15:19:57Z</time><pdop>8.0</pdop><geoidheight>50.80</geoidheight><course>314.25507</course><type>1</type></trkpt>
      <trkpt lat="39.27864650553691" lon="-5.712374172793198"><ele>2497</ele><speed>8.89</speed><time>2016-07-09T15:20:05Z</time><pdop>8.0</pdop><geoidheight>50.80</geoidheight><course>144.72058</course><type>1</type></trkpt>
      <trkpt lat="39.27847988122484" lon="-5.712301788088233"><ele>2501</ele><speed>12.27</speed><time>2016-07-09T15:20:07Z</time><pdop>8.0</pdop><geoidheight>50.80</geoidheight><course>165.82889</course><type>1</type></trkpt>
      <trkpt lat="39.278281123001456" lon="-5.712362181375935"><ele>2506</ele><speed>13.62</speed><time>2016-07-09T15:20:09Z</time><pdop>8.0</pdop><geoidheight>50.80</geoidheight><course>199.4501</course><type>1</type></trkpt>
      <trkpt lat="39.27807375487366" lon="-5.712476360108088"><ele>2512</ele><speed>14.17</speed><time>2016-07-09T15:20:11Z</time><pdop>8.0</pdop><geoidheight>50.80</geoidheight><course>203.37389</course><type>1</type></trkpt>
      <trkpt lat="39.277973589195575" lon="-5.712576297410281"><ele>2515</ele><speed>15.13</speed><time>2016-07-09T15:20:12Z</time><pdop>6.0</pdop><geoidheight>50.80</geoidheight><course>218.13469</course><type>1</type></trkpt>
      <trkpt lat="39.27786577026508" lon="-5.712684383471647"><ele>2517</ele><speed>15.77</speed><time>2016-07-09T15:20:13Z</time><pdop>6.0</pdop><geoidheight>50.80</geoidheight><course>220.55016</course><type>1</type></trkpt>
      <trkpt lat="39.27778491399981" lon="-5.71280146875452"><ele>2519</ele><speed>16.12</speed><time>2016-07-09T15:20:14Z</time><pdop>6.0</pdop><geoidheight>50.80</geoidheight><course>234.67108</course><type>1</type></trkpt>
      <trkpt lat="39.27770273358784" lon="-5.712946957254576"><ele>2521</ele><speed>16.31</speed><time>2016-07-09T15:20:14Z</time><pdop>8.0</pdop><geoidheight>50.80</geoidheight><course>236.87015</course><type>1</type></trkpt>
      <trkpt lat="39.27760808438284" lon="-5.713287170218894"><ele>2526</ele><speed>16.05</speed><time>2016-07-09T15:20:17Z</time><pdop>8.0</pdop><geoidheight>50.80</geoidheight><course>253.47493</course><type>1</type></trkpt>
      <trkpt lat="39.27757019597797" lon="-5.713467730569267"><ele>2529</ele><speed>14.16</speed><time>2016-07-09T15:20:18Z</time><pdop>8.0</pdop><geoidheight>50.80</geoidheight><course>256.9503</course><type>1</type></trkpt>
      <trkpt lat="39.27756298525949" lon="-5.71380252052679"><ele>2536</ele><speed>12.40</speed><time>2016-07-09T15:20:20Z</time><pdop>8.0</pdop><geoidheight>50.80</geoidheight><course>272.35638</course><type>1</type></trkpt>
      <trkpt lat="39.27761186599562" lon="-5.714078671225048"><ele>2542</ele><speed>10.52</speed><time>2016-07-09T15:20:21Z</time><pdop>8.0</pdop><geoidheight>50.80</geoidheight><course>297.74744</course><type>1</type></trkpt>
      <trkpt lat="39.277738916238235" lon="-5.714263222844044"><ele>2546</ele><speed>9.15</speed><time>2016-07-09T15:20:24Z</time><pdop>8.0</pdop><geoidheight>50.80</geoidheight><course>325.5321</course><type>1</type></trkpt>
      <trkpt lat="39.277898283932885" lon="-5.71439837923706"><ele>2553</ele><speed>5.10</speed><time>2016-07-09T15:20:27Z</time><pdop>6.0</pdop><geoidheight>50.80</geoidheight><course>325.50394</course><type>1</type></trkpt>
      <trkpt lat="39.27799406819778" lon="-5.714331700408361"><ele>2559</ele><speed>5.66</speed><time>2016-07-09T15:20:31Z</time><pdop>6.0</pdop><geoidheight>50.80</geoidheight><course>106.520546</course><type>1</type></trkpt>
      <trkpt lat="39.27786224780813" lon="-5.714173975751014"><ele>2569</ele><speed>8.38</speed><time>2016-07-09T15:20:34Z</time><pdop>6.0</pdop><geoidheight>50.80</geoidheight><course>149.06291</course><type>1</type></trkpt>
      <trkpt lat="39.27771225987523" lon="-5.714148255485473"><ele>2576</ele><speed>9.91</speed><time>2016-07-09T15:20:35Z</time><pdop>8.0</pdop><geoidheight>50.80</geoidheight><course>181.65025</course><type>1</type></trkpt>
      <trkpt lat="39.27749919987492" lon="-5.714209700304958"><ele>2582</ele><speed>13.75</speed><time>2016-07-09T15:20:38Z</time><pdop>8.0</pdop><geoidheight>50.80</geoidheight><course>206.04684</course><type>1</type></trkpt>
      <trkpt lat="39.27724446297256" lon="-5.714370512114075"><ele>2584</ele><speed>14.32</speed><time>2016-07-09T15:20:40Z</time><pdop>8.0</pdop><geoidheight>50.80</geoidheight><course>212.8539</course><type>1</type></trkpt>
      <trkpt lat="39.27713906870719" lon="-5.714503949916078"><ele>2584</ele><speed>15.27</speed><time>2016-07-09T15:20:41Z</time><pdop>6.0</pdop><geoidheight>50.80</geoidheight><course>227.95712</course><type>1</type></trkpt>
      <trkpt lat="39.27706467188664" lon="-5.714657772148472"><ele>2585</ele><speed>16.70</speed><time>2016-07-09T15:20:42Z</time><pdop>6.0</pdop><geoidheight>50.80</geoidheight><course>240.71866</course><type>1</type></trkpt>
      <trkpt lat="39.27699558197633" lon="-5.714816114291856"><ele>2587</ele><speed>16.41</speed><time>2016-07-09T15:20:43Z</time><pdop>8.0</pdop><geoidheight>50.80</geoidheight><course>243.30682</course><type>1</type></trkpt>
      <trkpt lat="39.27697350049382" lon="-5.715137983721744"><ele>2591</ele><speed>13.33</speed><time>2016-07-09T15:20:45Z</time><pdop>8.0</pdop><geoidheight>50.80</geoidheight><course>278.32706</course><type>1</type></trkpt>
      <trkpt lat="39.27701338205852" lon="-5.715420119245303"><ele>2596</ele><speed>10.37</speed><time>2016-07-09T15:20:47Z</time><pdop>8.0</pdop><geoidheight>50.80</geoidheight><course>285.537</course><type>1</type></trkpt>
      <trkpt lat="39.27711504833517" lon="-5.715599416635868"><ele>2602</ele><speed>7.85</speed><time>2016-07-09T15:20:49Z</time><pdop>8.0</pdop><geoidheight>50.80</geoidheight><course>306.24005</course><type>1</type></trkpt>
      <trkpt lat="39.27725143563833" lon="-5.7156819766773515"><ele>2607</ele><speed>4.84</speed><time>2016-07-09T15:20:50Z</time><pdop>8.0</pdop><geoidheight>50.80</geoidheight><course>342.8376</course><type>1</type></trkpt>
      <trkpt lat="39.27732048564102" lon="-5.715496223413355"><ele>2615</ele><speed>6.59</speed><time>2016-07-09T15:20:55Z</time><pdop>6.0</pdop><geoidheight>50.80</geoidheight><course>107.79684</course><type>1</type></trkpt>
      <trkpt lat="39.27726035351161" lon="-5.715371038458781"><ele>2620</ele><speed>6.56</speed><time>2016-07-09T15:20:57Z</time><pdop>6.0</pdop><geoidheight>50.80</geoidheight><course>132.97342</course><type>1</type></trkpt>
      <trkpt lat="39.27715431337988" lon="-5.71528952166974"><ele>2624</ele><speed>9.63</speed><time>2016-07-09T15:20:59Z</time><pdop>6.0</pdop><geoidheight>50.80</geoidheight><course>156.80373</course><type>1</type></trkpt>
      <trkpt lat="39.27694964510404" lon="-5.715262286027706"><ele>2628</ele><speed>12.93</speed><time>2016-07-09T15:21:01Z</time><pdop>6.0</pdop><geoidheight>50.80</geoidheight><course>177.14554</course><type>1</type></trkpt>
      <trkpt lat="39.27670477311212" lon="-5.715323755530977"><ele>2630</ele><speed>13.63</speed><time>2016-07-09T15:21:02Z</time><pdop>8.0</pdop><geoidheight>50.80</geoidheight><course>193.11122</course><type>1</type></trkpt>
      <trkpt lat="39.2764444195108" lon="-5.715476701237388"><ele>2632</ele><speed>15.67</speed><time>2016-07-09T15:21:05Z</time><pdop>8.0</pdop><geoidheight>50.80</geoidheight><course>213.63335</course><type>1</type></trkpt>
      <trkpt lat="39.276320266377375" lon="-5.715590794898498"><ele>2633</ele><speed>16.83</speed><time>2016-07-09T15:21:06Z</time><pdop>8.0</pdop><geoidheight>50.80</geoidheight><course>216.02403</course><type>1</type></trkpt>
      <trkpt lat="39.27613955507974" lon="-5.715845935106556"><ele>2637</ele><speed>15.89</speed><time>2016-07-09T15:21:08Z</time><pdop>6.0</pdop><geoidheight>50.80</geoidheight><course>236.95677</course><type>1</type></trkpt>
      <trkpt lat="39.27607436087161" lon="-5.715991625256498"><ele>2640</ele><speed>14.93</speed><time>2016-07-09T15:21:09Z</time><pdop>6.0</pdop><geoidheight>50.80</geoidheight><course>239.67442</course><type>1</type></trkpt>
      <trkpt lat="39.276008507193396" lon="-5.716164203112805"><ele>2642</ele><speed>16.31</speed><time>2016-07-09T15:21:10Z</time><pdop>6.0</pdop><geoidheight>50.80</geoidheight><course>243.02051</course><type>1</type></trkpt>
      <trkpt lat="39.27598114273807" lon="-5.716339010070694"><ele>2644</ele><speed>15.06</speed><time>2016-07-09T15:21:11Z</time><pdop>6.0</pdop><geoidheight>50.80</geoidheight><course>258.84277</course><type>1</type></trkpt>
      <trkpt lat="39.275961683366766" lon="-5.716507879636008"><ele>2647</ele><speed>14.15</speed><time>2016-07-09T15:21:12Z</time><pdop>6.0</pdop><geoidheight>50.80</geoidheight><course>261.90417</course><type>1</type></trkpt>
      <trkpt lat="39.27597963876802" lon="-5.71667444083634"><ele>2651</ele><speed>13.24</speed><time>2016-07-09T15:21:13Z</time><pdop>8.0</pdop><geoidheight>50.80</geoidheight><course>281.3517</course><type>1</type></trkpt>
      <trkpt lat="39.27608782619502" lon="-5.716927737992932"><ele>2657</ele><speed>11.06</speed><time>2016-07-09T15:21:15Z</time><pdop>8.0</pdop><geoidheight>50.80</geoidheight><course>307.43744</course><type>1</type></trkpt>
      <trkpt lat="39.27621733953877" lon="-5.717097000241106"><ele>2662</ele><speed>8.48</speed><time>2016-07-09T15:21:16Z</time><pdop>6.0</pdop><geoidheight>50.80</geoidheight><course>329.4792</course><type>1</type></trkpt>
      <trkpt lat="39.27636248653596" lon="-5.7171791767014195"><ele>2668</ele><speed>4.76</speed><time>2016-07-09T15:21:20Z</time><pdop>6.0</pdop><geoidheight>50.80</geoidheight><course>353.50644</course><type>1</type></trkpt>
      <trkpt lat="39.276368419297974" lon="-5.717025097892223"><ele>2678</ele><speed>7.86</speed><time>2016-07-09T15:21:24Z</time><pdop>6.0</pdop><geoidheight>50.80</geoidheight><course>149.00208</course><type>1</type></trkpt>
      <trkpt lat="39.276221044513" lon="-5.716999999327938"><ele>2683</ele><speed>9.90</speed><time>2016-07-09T15:21:27Z</time><pdop>8.0</pdop><geoidheight>50.80</geoidheight><course>174.73042</course><type>1</type></trkpt>
      <trkpt lat="39.27601906558738" lon="-5.717022194876827"><ele>2688</ele><speed>12.81</speed><time>2016-07-09T15:21:29Z</time><pdop>8.0</pdop><geoidheight>50.80</geoidheight><course>193.07822</course><type>1</type></trkpt>
      <trkpt lat="39.27578970372302" lon="-5.717107030175875"><ele>2693</ele><speed>14.09</speed><time>2016-07-09T15:21:31Z</time><pdop>6.0</pdop><geoidheight>50.80</geoidheight><course>197.93703</course><type>1</type></trkpt>
      <trkpt lat="39.27568179569921" lon="-5.717197793787707"><ele>2694</ele><speed>14.47</speed><time>2016-07-09T15:21:31Z</time><pdop>6.0</pdop><geoidheight>50.80</geoidheight><course>213.66235</course><type>1</type></trkpt>
      <trkpt lat="39.27557406295587" lon="-5.71728659973468"><ele>2696</ele><speed>14.87</speed><time>2016-07-09T15:21:32Z</time><pdop>6.0</pdop><geoidheight>50.80</geoidheight><course>216.19984</course><type>1</type></trkpt>
      <trkpt lat="39.27548401396202" lon="-5.717423781533444"><ele>2698</ele><speed>15.78</speed><time>2016-07-09T15:21:33Z</time><pdop>8.0</pdop><geoidheight>50.80</geoidheight><course>232.7589</course><type>1</type></trkpt>
      <trkpt lat="39.27541189396425" lon="-5.717775395867102"><ele>2701</ele><speed>16.54</speed><time>2016-07-09T15:21:36Z</time><pdop>8.0</pdop><geoidheight>50.80</geoidheight><course>264.02823</course><type>1</type></trkpt>
      <trkpt lat="39.27549467040874" lon="-5.718056570045447"><ele>2706</ele><speed>11.84</speed><time>2016-07-09T15:21:38Z</time><pdop>8.0</pdop><geoidheight>50.80</geoidheight><course>305.09167</course><type>1</type></trkpt>
      <trkpt lat="39.27560259760976" lon="-5.718203010366276"><ele>2709</ele><speed>7.70</speed><time>2016-07-09T15:21:40Z</time><pdop>6.0</pdop><geoidheight>50.80</geoidheight><course>327.96252</course><type>1</type></trkpt>
      <trkpt lat="39.27571804640032" lon="-5.718215281156363"><ele>2711</ele><speed>3.20</speed><time>2016-07-09T15:21:43Z</time><pdop>6.0</pdop><geoidheight>50.80</geoidheight><course>45.370308</course><type>1</type></trkpt>
      <trkpt lat="39.27568764638501" lon="-5.718073705518309"><ele>2718</ele><speed>7.18</speed><time>2016-07-09T15:21:45Z</time><pdop>6.0</pdop><geoidheight>50.80</geoidheight><course>137.58142</course><type>1</type></trkpt>
      <trkpt lat="39.27553159516134" lon="-5.71797867692911"><ele>2722</ele><speed>10.21</speed><time>2016-07-09T15:21:48Z</time><pdop>6.0</pdop><geoidheight>50.80</geoidheight><course>159.6061</course><type>1</type></trkpt>
      <trkpt lat="39.27534984151691" lon="-5.717964395544918"><ele>2725</ele><speed>10.69</speed><time>2016-07-09T15:21:49Z</time><pdop>8.0</pdop><geoidheight>50.80</geoidheight><course>177.33905</course><type>1</type></trkpt>
      <trkpt lat="39.27512401889543" lon="-5.718104544990986"><ele>2728</ele><speed>15.71</speed><time>2016-07-09T15:21:52Z</time><pdop>8.0</pdop><geoidheight>50.80</geoidheight><course>205.51833</course><type>1</type></trkpt>
      <trkpt lat="39.27500701290373" lon="-5.7182166321327825"><ele>2729</ele><speed>15.91</speed><time>2016-07-09T15:21:53Z</time><pdop>8.0</pdop><geoidheight>50.80</geoidheight><course>220.84608</course><type>1</type></trkpt>
      <trkpt lat="39.274815091751464" lon="-5.718472146445887"><ele>2731</ele><speed>15.54</speed><time>2016-07-09T15:21:55Z</time><pdop>6.0</pdop><geoidheight>50.80</geoidheight><course>239.36623</course><type>1</type></trkpt>
      <trkpt lat="39.27474827077631" lon="-5.718618974452169"><ele>2732</ele><speed>15.11</speed><time>2016-07-09T15:21:56Z</time><pdop>8.0</pdop><geoidheight>50.80</geoidheight><course>241.28825</course><type>1</type></trkpt>
      <trkpt lat="39.274676261173234" lon="-5.718929709071458"><ele>2737</ele><speed>13.80</speed><time>2016-07-09T15:21:58Z</time><pdop>8.0</pdop><geoidheight>50.80</geoidheight><course>265.6556</course><type>1</type></trkpt>
      <trkpt lat="39.27472494683594" lon="-5.719229802736968"><ele>2742</ele><speed>12.68</speed><time>2016-07-09T15:22:00Z</time><pdop>8.0</pdop><geoidheight>50.80</geoidheight><course>294.2386</course><type>1</type></trkpt>
      <trkpt lat="39.274839281016504" lon="-5.719471628551329"><ele>2746</ele><speed>8.33</speed><time>2016-07-09T15:22:01Z</time><pdop>8.0</pdop><geoidheight>50.80</geoidheight><course>322.36774</course><type>1</type></trkpt>
      <trkpt lat="39.274817326383385" lon="-5.719289520457158"><ele>2757</ele><speed>5.82</speed><time>2016-07-09T15:22:08Z</time><pdop>6.0</pdop><geoidheight>50.80</geoidheight><course>160.85551</course><type>1</type></trkpt>
      <trkpt lat="39.27470534235543" lon="-5.719228859207728"><ele>2761</ele><speed>7.81</speed><time>2016-07-09T15:22:10Z</time><pdop>6.0</pdop><geoidheight>50.80</geoidheight><course>163.46754</course><type>1</type></trkpt>
      <trkpt lat="39.27456878090387" lon="-5.719167878144701"><ele>2766</ele><speed>9.52</speed><time>2016-07-09T15:22:12Z</time><pdop>6.0</pdop><geoidheight>50.80</geoidheight><course>163.34737</course><type>1</type></trkpt>
      <trkpt lat="39.27441576514039" lon="-5.719085102983926"><ele>2770</ele><speed>8.71</speed><time>2016-07-09T15:22:14Z</time><pdop>6.0</pdop><geoidheight>50.80</geoidheight><course>158.61674</course><type>1</type></trkpt>
      <trkpt lat="39.27427588229728" lon="-5.719005963449809"><ele>2773</ele><speed>7.27</speed><time>2016-07-09T15:22:16Z</time><pdop>6.0</pdop><geoidheight>50.80</geoidheight><course>160.68472</course><type>1</type></trkpt>
      <trkpt lat="39.274157359416776" lon="-5.718937981557669"><ele>2776</ele><speed>8.11</speed><time>2016-07-09T15:22:17Z</time><pdop>6.0</pdop><geoidheight>50.80</geoidheight><course>158.39096</course><type>1</type></trkpt>
      <trkpt lat="39.274030967874666" lon="-5.718860501648816"><ele>2780</ele><speed>7.29</speed><time>2016-07-09T15:22:20Z</time><pdop>6.0</pdop><geoidheight>50.80</geoidheight><course>156.47878</course><type>1</type></trkpt>
      <trkpt lat="39.27390858620678" lon="-5.718780586770111"><ele>2783</ele><speed>7.48</speed><time>2016-07-09T15:22:22Z</time><pdop>6.0</pdop><geoidheight>50.80</geoidheight><course>154.91515</course><type>1</type></trkpt>
      <trkpt lat="39.273774841048656" lon="-5.718677804702915"><ele>2785</ele><speed>9.90</speed><time>2016-07-09T15:22:24Z</time><pdop>6.0</pdop><geoidheight>50.80</geoidheight><course>151.38129</course><type>1</type></trkpt>
      <trkpt lat="39.27362745166675" lon="-5.718569573261688"><ele>2788</ele><speed>8.63</speed><time>2016-07-09T15:22:26Z</time><pdop>6.0</pdop><geoidheight>50.80</geoidheight><course>155.03629</course><type>1</type></trkpt>
      <trkpt lat="39.27348778016951" lon="-5.718489540374565"><ele>2791</ele><speed>8.31</speed><time>2016-07-09T15:22:28Z</time><pdop>6.0</pdop><geoidheight>50.80</geoidheight><course>158.75172</course><type>1</type></trkpt>
      <trkpt lat="39.273353774857675" lon="-5.7184104038814905"><ele>2794</ele><speed>9.07</speed><time>2016-07-09T15:22:30Z</time><pdop>6.0</pdop><geoidheight>50.80</geoidheight><course>154.34987</course><type>1</type></trkpt>
      <trkpt lat="39.27321310330642" lon="-5.7183116011775885"><ele>2797</ele><speed>8.61</speed><time>2016-07-09T15:22:31Z</time><pdop>6.0</pdop><geoidheight>50.80</geoidheight><course>152.12675</course><type>1</type></trkpt>
      <trkpt lat="39.27307948255425" lon="-5.7182213008683505"><ele>2799</ele><speed>7.32</speed><time>2016-07-09T15:22:34Z</time><pdop>8.0</pdop><geoidheight>50.80</geoidheight><course>152.2566</course><type>1</type></trkpt>
      <trkpt lat="39.27294914853621" lon="-5.718128469067367"><ele>2801</ele><speed>8.68</speed><time>2016-07-09T15:22:36Z</time><pdop>6.0</pdop><geoidheight>50.80</geoidheight><course>149.55571</course><type>1</type></trkpt>
      <trkpt lat="39.272814504324764" lon="-5.718017673252521"><ele>2802</ele><speed>8.64</speed><time>2016-07-09T15:22:38Z</time><pdop>6.0</pdop><geoidheight>50.80</geoidheight><course>146.8047</course><type>1</type></trkpt>
      <trkpt lat="39.27269261517751" lon="-5.717895836637389"><ele>2803</ele><speed>8.80</speed><time>2016-07-09T15:22:40Z</time><pdop>6.0</pdop><geoidheight>50.80</geoidheight><course>144.1158</course><type>1</type></trkpt>
      <trkpt lat="39.27257885638615" lon="-5.717767708569029"><ele>2803</ele><speed>9.21</speed><time>2016-07-09T15:22:42Z</time><pdop>6.0</pdop><geoidheight>50.80</geoidheight><course>141.68295</course><type>1</type></trkpt>
      <trkpt lat="39.27244832806534" lon="-5.717622886990623"><ele>2801</ele><speed>8.66</speed><time>2016-07-09T15:22:44Z</time><pdop>6.0</pdop><geoidheight>50.80</geoidheight><course>142.02344</course><type>1</type></trkpt>
      <trkpt lat="39.27232660385133" lon="-5.717503046129336"><ele>2800</ele><speed>8.67</speed><time>2016-07-09T15:22:46Z</time><pdop>6.0</pdop><geoidheight>50.80</geoidheight><course>145.05093</course><type>1</type></trkpt>
      <trkpt lat="39.27220451906622" lon="-5.717404649146393"><ele>2799</ele><speed>8.65</speed><time>2016-07-09T15:22:48Z</time><pdop>6.0</pdop><geoidheight>50.80</geoidheight><course>149.4949</course><type>1</type></trkpt>
      <trkpt lat="39.272068451279516" lon="-5.717318204816288"><ele>2799</ele><speed>9.11</speed><time>2016-07-09T15:22:50Z</time><pdop>6.0</pdop><geoidheight>50.80</geoidheight><course>153.04732</course><type>1</type></trkpt>
      <trkpt lat="39.27190958693427" lon="-5.717215629003407"><ele>2798</ele><speed>10.16</speed><time>2016-07-09T15:22:51Z</time><pdop>6.0</pdop><geoidheight>50.80</geoidheight><course>152.98282</course><type>1</type></trkpt>
      <trkpt lat="39.27172689377546" lon="-5.71713375810067"><ele>2798</ele><speed>9.70</speed><time>2016-07-09T15:22:54Z</time><pdop>6.0</pdop><geoidheight>50.80</geoidheight><course>167.33023</course><type>1</type></trkpt>
      <trkpt lat="39.271578630765426" lon="-5.7170649716189335"><ele>2797</ele><speed>8.37</speed><time>2016-07-09T15:22:56Z</time><pdop>6.0</pdop><geoidheight>50.80</geoidheight><course>152.02524</course><type>1</type></trkpt>
      <trkpt lat="39.271448122430805" lon="-5.71695901434044"><ele>2795</ele><speed>9.68</speed><time>2016-07-09T15:22:58Z</time><pdop>6.0</pdop><geoidheight>50.80</geoidheight><course>145.84561</course><type>1</type></trkpt>
      <trkpt lat="39.27132830709286" lon="-5.716837026804482"><ele>2793</ele><speed>8.89</speed><time>2016-07-09T15:23:00Z</time><pdop>6.0</pdop><geoidheight>50.80</geoidheight><course>139.00702</course><type>1</type></trkpt>
      <trkpt lat="39.271232526009065" lon="-5.716709207955079"><ele>2791</ele><speed>7.59</speed><time>2016-07-09T15:23:02Z</time><pdop>6.0</pdop><geoidheight>50.80</geoidheight><course>133.83545</course><type>1</type></trkpt>
      <trkpt lat="39.2711347800483" lon="-5.7165374788515715"><ele>2789</ele><speed>9.38</speed><time>2016-07-09T15:23:04Z</time><pdop>6.0</pdop><geoidheight>50.80</geoidheight><course>126.33599</course><type>1</type></trkpt>
      <trkpt lat="39.271048643168974" lon="-5.716336908569248"><ele>2787</ele><speed>10.19</speed><time>2016-07-09T15:23:06Z</time><pdop>6.0</pdop><geoidheight>50.80</geoidheight><course>121.47978</course><type>1</type></trkpt>
      <trkpt lat="39.27097118114468" lon="-5.716135133151348"><ele>2786</ele><speed>9.37</speed><time>2016-07-09T15:23:08Z</time><pdop>6.0</pdop><geoidheight>50.80</geoidheight><course>118.43512</course><type>1</type></trkpt>
      <trkpt lat="39.27090788287906" lon="-5.715940838613521"><ele>2786</ele><speed>8.98</speed><time>2016-07-09T15:23:10Z</time><pdop>6.0</pdop><geoidheight>50.80</geoidheight><course>115.13926</course><type>1</type></trkpt>
      <trkpt lat="39.2708467012721" lon="-5.715754061056678"><ele>2785</ele><speed>9.30</speed><time>2016-07-09T15:23:12Z</time><pdop>6.0</pdop><geoidheight>50.80</geoidheight><course>118.8263</course><type>1</type></trkpt>
      <trkpt lat="39.27073677905454" lon="-5.715586985829715"><ele>2785</ele><speed>9.85</speed><time>2016-07-09T15:23:14Z</time><pdop>6.0</pdop><geoidheight>50.80</geoidheight><course>134.25957</course><type>1</type></trkpt>
      <trkpt lat="39.270616131533416" lon="-5.7154312101343345"><ele>2784</ele><speed>9.31</speed><time>2016-07-09T15:23:16Z</time><pdop>4.0</pdop><geoidheight>50.80</geoidheight><course>136.41664</course><type>1</type></trkpt>
      <trkpt lat="39.27049588115384" lon="-5.7152663718584575"><ele>2782</ele><speed>10.08</speed><time>2016-07-09T15:23:18Z</time><pdop>6.0</pdop><geoidheight>50.80</geoidheight><course>131.9794</course><type>1</type></trkpt>
      <trkpt lat="39.2703521448206" lon="-5.71506241359762"><ele>2781</ele><speed>11.93</speed><time>2016-07-09T15:23:20Z</time><pdop>6.0</pdop><geoidheight>50.80</geoidheight><course>131.91585</course><type>1</type></trkpt>
      <trkpt lat="39.27021588415146" lon="-5.714870666048935"><ele>2781</ele><speed>9.30</speed><time>2016-07-09T15:23:22Z</time><pdop>6.0</pdop><geoidheight>50.80</geoidheight><course>132.39594</course><type>1</type></trkpt>
      <trkpt lat="39.27009821835514" lon="-5.714715645748479"><ele>2782</ele><speed>9.49</speed><time>2016-07-09T15:23:24Z</time><pdop>6.0</pdop><geoidheight>50.80</geoidheight><course>134.63524</course><type>1</type></trkpt>
      <trkpt lat="39.26997882810822" lon="-5.714555161999624"><ele>2784</ele><speed>10.78</speed><time>2016-07-09T15:23:26Z</time><pdop>6.0</pdop><geoidheight>50.80</geoidheight><course>133.9702</course><type>1</type></trkpt>
      <trkpt lat="39.26985854626863" lon="-5.714376555330784"><ele>2786</ele><speed>9.42</speed><time>2016-07-09T15:23:28Z</time><pdop>6.0</pdop><geoidheight>50.80</geoidheight><course>131.87259</course><type>1</type></trkpt>
      <trkpt lat="39.26975006001074" lon="-5.7142142316752045"><ele>2787</ele><speed>9.37</speed><time>2016-07-09T15:23:30Z</time><pdop>4.0</pdop><geoidheight>50.80</geoidheight><course>131.106</course><type>1</type></trkpt>
      <trkpt lat="39.26969696943846" lon="-5.7141267579731245"><ele>2788</ele><speed>10.29</speed><time>2016-07-09T15:23:31Z</time><pdop>4.0</pdop><geoidheight>50.80</geoidheight><course>129.61992</course><type>1</type></trkpt>
      <trkpt lat="39.269640435487574" lon="-5.714032883884593"><ele>2789</ele><speed>10.95</speed><time>2016-07-09T15:23:32Z</time><pdop>4.0</pdop><geoidheight>50.80</geoidheight><course>130.47076</course><type>1</type></trkpt>
      <trkpt lat="39.26957386941791" lon="-5.713939413703758"><ele>2790</ele><speed>10.82</speed><time>2016-07-09T15:23:33Z</time><pdop>6.0</pdop><geoidheight>50.80</geoidheight><course>133.49565</course><type>1</type></trkpt>
      <trkpt lat="39.269420812545434" lon="-5.713816149098717"><ele>2793</ele><speed>8.58</speed><time>2016-07-09T15:23:35Z</time><pdop>6.0</pdop><geoidheight>50.80</geoidheight><course>150.82242</course><type>1</type></trkpt>
      <trkpt lat="39.269290540168114" lon="-5.7137258556393125"><ele>2797</ele><speed>8.19</speed><time>2016-07-09T15:23:37Z</time><pdop>6.0</pdop><geoidheight>50.80</geoidheight><course>151.53539</course><type>1</type></trkpt>
      <trkpt lat="39.269168750209964" lon="-5.713593459530641"><ele>2800</ele><speed>9.36</speed><time>2016-07-09T15:23:38Z</time><pdop>6.0</pdop><geoidheight>50.80</geoidheight><course>133.8105</course><type>1</type></trkpt>
      <trkpt lat="39.26904199631334" lon="-5.713424384763379"><ele>2801</ele><speed>9.53</speed><time>2016-07-09T15:23:40Z</time><pdop>6.0</pdop><geoidheight>50.80</geoidheight><course>133.95024</course><type>1</type></trkpt>
      <trkpt lat="39.268914393272624" lon="-5.71328424522899"><ele>2802</ele><speed>9.10</speed><time>2016-07-09T15:23:43Z</time><pdop>6.0</pdop><geoidheight>50.80</geoidheight><course>139.22656</course><type>1</type></trkpt>
      <trkpt lat="39.2687927346075" lon="-5.713164362689865"><ele>2804</ele><speed>9.70</speed><time>2016-07-09T15:23:45Z</time><pdop>6.0</pdop><geoidheight>50.80</geoidheight><course>140.0457</course><type>1</type></trkpt>
      <trkpt lat="39.26865111771908" lon="-5.713007629408626"><ele>2805</ele><speed>11.52</speed><time>2016-07-09T15:23:47Z</time><pdop>6.0</pdop><geoidheight>50.80</geoidheight><course>137.24759</course><type>1</type></trkpt>
      <trkpt lat="39.26850647463328" lon="-5.712821730096707"><ele>2804</ele><speed>10.96</speed><time>2016-07-09T15:23:49Z</time><pdop>6.0</pdop><geoidheight>50.80</geoidheight><course>134.76115</course><type>1</type></trkpt>
      <trkpt lat="39.26836764161114" lon="-5.712658692692808"><ele>2803</ele><speed>9.82</speed><time>2016-07-09T15:23:51Z</time><pdop>6.0</pdop><geoidheight>50.80</geoidheight><course>139.95535</course><type>1</type></trkpt>
      <trkpt lat="39.26822035777828" lon="-5.712557106802621"><ele>2805</ele><speed>8.93</speed><time>2016-07-09T15:23:53Z</time><pdop>6.0</pdop><geoidheight>50.80</geoidheight><course>153.5656</course><type>1</type></trkpt>
      <trkpt lat="39.268081309853095" lon="-5.712463785427345"><ele>2807</ele><speed>8.65</speed><time>2016-07-09T15:23:55Z</time><pdop>6.0</pdop><geoidheight>50.80</geoidheight><course>154.20988</course><type>1</type></trkpt>
      <trkpt lat="39.26795539878594" lon="-5.712340153785896"><ele>2810</ele><speed>8.44</speed><time>2016-07-09T15:23:57Z</time><pdop>6.0</pdop><geoidheight>50.80</geoidheight><course>136.81079</course><type>1</type></trkpt>
      <trkpt lat="39.26784598550606" lon="-5.71220558534777"><ele>2812</ele><speed>7.52</speed><time>2016-07-09T15:23:59Z</time><pdop>6.0</pdop><geoidheight>50.80</geoidheight><course>139.36107</course><type>1</type></trkpt>
      <trkpt lat="39.267715868914934" lon="-5.712113506398025"><ele>2816</ele><speed>9.14</speed><time>2016-07-09T15:24:01Z</time><pdop>6.0</pdop><geoidheight>50.80</geoidheight><course>151.83241</course><type>1</type></trkpt>
      <trkpt lat="39.26761252644377" lon="-5.711930475812458"><ele>2818</ele><speed>10.12</speed><time>2016-07-09T15:24:03Z</time><pdop>6.0</pdop><geoidheight>50.80</geoidheight><course>114.94322</course><type>1</type></trkpt>
      <trkpt lat="39.26755345665497" lon="-5.711740319749437"><ele>2820</ele><speed>7.80</speed><time>2016-07-09T15:24:05Z</time><pdop>6.0</pdop><geoidheight>50.80</geoidheight><course>110.22303</course><type>1</type></trkpt>
      <trkpt lat="39.26748017451419" lon="-5.711572144564188"><ele>2822</ele><speed>8.63</speed><time>2016-07-09T15:24:07Z</time><pdop>6.0</pdop><geoidheight>50.80</geoidheight><course>130.85854</course><type>1</type></trkpt>
      <trkpt lat="39.267366380185976" lon="-5.711412471764334"><ele>2824</ele><speed>9.64</speed><time>2016-07-09T15:24:08Z</time><pdop>6.0</pdop><geoidheight>50.80</geoidheight><course>134.72072</course><type>1</type></trkpt>
      <trkpt lat="39.267235420414785" lon="-5.711270250255149"><ele>2826</ele><speed>10.07</speed><time>2016-07-09T15:24:11Z</time><pdop>6.0</pdop><geoidheight>50.80</geoidheight><course>138.17189</course><type>1</type></trkpt>
      <trkpt lat="39.267095817683796" lon="-5.711123493146405"><ele>2828</ele><speed>10.16</speed><time>2016-07-09T15:24:13Z</time><pdop>6.0</pdop><geoidheight>50.80</geoidheight><course>137.98706</course><type>1</type></trkpt>
      <trkpt lat="39.266940930982614" lon="-5.710975559219862"><ele>2830</ele><speed>11.78</speed><time>2016-07-09T15:24:15Z</time><pdop>6.0</pdop><geoidheight>50.80</geoidheight><course>142.3229</course><type>1</type></trkpt>
      <trkpt lat="39.26685106137507" lon="-5.710892066423002"><ele>2832</ele><speed>11.10</speed><time>2016-07-09T15:24:16Z</time><pdop>6.0</pdop><geoidheight>50.80</geoidheight><course>143.82805</course><type>1</type></trkpt>
      <trkpt lat="39.266703550858395" lon="-5.710767610665087"><ele>2837</ele><speed>8.42</speed><time>2016-07-09T15:24:18Z</time><pdop>6.0</pdop><geoidheight>50.80</geoidheight><course>147.0964</course><type>1</type></trkpt>
      <trkpt lat="39.26656033114872" lon="-5.710667603130536"><ele>2842</ele><speed>9.05</speed><time>2016-07-09T15:24:20Z</time><pdop>12.0</pdop><geoidheight>50.80</geoidheight><course>153.29022</course><type>1</type></trkpt>
      <trkpt lat="39.266393786288454" lon="-5.710574564549056"><ele>2845</ele><speed>10.35</speed><time>2016-07-09T15:24:22Z</time><pdop>8.0</pdop><geoidheight>50.80</geoidheight><course>156.25298</course><type>1</type></trkpt>
      <trkpt lat="39.266155946420284" lon="-5.7104266067329785"><ele>2849</ele><speed>8.97</speed><time>2016-07-09T15:24:25Z</time><pdop>12.0</pdop><geoidheight>50.80</geoidheight><course>153.60808</course><type>1</type></trkpt>
      <trkpt lat="39.265932070083274" lon="-5.71027055742549"><ele>2854</ele><speed>8.91</speed><time>2016-07-09T15:24:28Z</time><pdop>8.0</pdop><geoidheight>50.80</geoidheight><course>154.81194</course><type>1</type></trkpt>
      <trkpt lat="39.26579709471263" lon="-5.710187318849091"><ele>2857</ele><speed>7.95</speed><time>2016-07-09T15:24:30Z</time><pdop>8.0</pdop><geoidheight>50.80</geoidheight><course>157.10106</course><type>1</type></trkpt>
      <trkpt lat="39.2656506708807" lon="-5.710098242664981"><ele>2859</ele><speed>9.93</speed><time>2016-07-09T15:24:31Z</time><pdop>6.0</pdop><geoidheight>50.80</geoidheight><course>154.21356</course><type>1</type></trkpt>
      <trkpt lat="39.26550001338022" lon="-5.710002145541813"><ele>2861</ele><speed>9.38</speed><time>2016-07-09T15:24:34Z</time><pdop>8.0</pdop><geoidheight>50.80</geoidheight><course>153.75533</course><type>1</type></trkpt>
      <trkpt lat="39.26534698415584" lon="-5.709920174170474"><ele>2863</ele><speed>9.12</speed><time>2016-07-09T15:24:35Z</time><pdop>6.0</pdop><geoidheight>50.80</geoidheight><course>158.20877</course><type>1</type></trkpt>
      <trkpt lat="39.26519288612633" lon="-5.7098421065864216"><ele>2862</ele><speed>10.03</speed><time>2016-07-09T15:24:38Z</time><pdop>6.0</pdop><geoidheight>50.80</geoidheight><course>156.01889</course><type>1</type></trkpt>
      <trkpt lat="39.26503895738366" lon="-5.709697720520482"><ele>2860</ele><speed>10.61</speed><time>2016-07-09T15:24:40Z</time><pdop>6.0</pdop><geoidheight>50.80</geoidheight><course>142.14648</course><type>1</type></trkpt>
      <trkpt lat="39.26489317457441" lon="-5.709560296615426"><ele>2860</ele><speed>8.65</speed><time>2016-07-09T15:24:42Z</time><pdop>6.0</pdop><geoidheight>50.80</geoidheight><course>143.63132</course><type>1</type></trkpt>
      <trkpt lat="39.26476807712334" lon="-5.709454419348892"><ele>2860</ele><speed>8.00</speed><time>2016-07-09T15:24:44Z</time><pdop>6.0</pdop><geoidheight>50.80</geoidheight><course>147.25995</course><type>1</type></trkpt>
      <trkpt lat="39.26460655585883" lon="-5.709350038355756"><ele>2862</ele><speed>10.82</speed><time>2016-07-09T15:24:46Z</time><pdop>12.0</pdop><geoidheight>50.80</geoidheight><course>154.02364</course><type>1</type></trkpt>
      <trkpt lat="39.26434376512177" lon="-5.709202861871321"><ele>2866</ele><speed>9.90</speed><time>2016-07-09T15:24:49Z</time><pdop>12.0</pdop><geoidheight>50.80</geoidheight><course>157.2996</course><type>1</type></trkpt>
      <trkpt lat="39.264175278377024" lon="-5.709108375150011"><ele>2868</ele><speed>10.06</speed><time>2016-07-09T15:24:51Z</time><pdop>8.0</pdop><geoidheight>50.80</geoidheight><course>157.85612</course><type>1</type></trkpt>
      <trkpt lat="39.26399691968459" lon="-5.709001426369027"><ele>2870</ele><speed>10.91</speed><time>2016-07-09T15:24:53Z</time><pdop>8.0</pdop><geoidheight>50.80</geoidheight><course>154.8627</course><type>1</type></trkpt>
      <trkpt lat="39.26382872490428" lon="-5.708869015375244"><ele>2871</ele><speed>10.41</speed><time>2016-07-09T15:24:55Z</time><pdop>8.0</pdop><geoidheight>50.80</geoidheight><course>149.73465</course><type>1</type></trkpt>
      <trkpt lat="39.26367688967669" lon="-5.70875287926313"><ele>2873</ele><speed>9.51</speed><time>2016-07-09T15:24:57Z</time><pdop>8.0</pdop><geoidheight>50.80</geoidheight><course>152.99486</course><type>1</type></trkpt>
      <trkpt lat="39.263513424075455" lon="-5.708640388284845"><ele>2875</ele><speed>10.47</speed><time>2016-07-09T15:24:59Z</time><pdop>8.0</pdop><geoidheight>50.80</geoidheight><course>152.79002</course><type>1</type></trkpt>
      <trkpt lat="39.26333468466734" lon="-5.708499256073737"><ele>2875</ele><speed>11.80</speed><time>2016-07-09T15:25:01Z</time><pdop>6.0</pdop><geoidheight>50.80</geoidheight><course>149.31021</course><type>1</type></trkpt>
      <trkpt lat="39.26315210700372" lon="-5.708370291252743"><ele>2875</ele><speed>11.02</speed><time>2016-07-09T15:25:03Z</time><pdop>6.0</pdop><geoidheight>50.80</geoidheight><course>153.51196</course><type>1</type></trkpt>
      <trkpt lat="39.26298433056052" lon="-5.7082920281255"><ele>2876</ele><speed>9.78</speed><time>2016-07-09T15:25:05Z</time><pdop>8.0</pdop><geoidheight>50.80</geoidheight><course>161.47125</course><type>1</type></trkpt>
      <trkpt lat="39.26272549727236" lon="-5.708195985063991"><ele>2879</ele><speed>11.35</speed><time>2016-07-09T15:25:08Z</time><pdop>8.0</pdop><geoidheight>50.80</geoidheight><course>160.49516</course><type>1</type></trkpt>
      <trkpt lat="39.262542635205435" lon="-5.708112478914199"><ele>2880</ele><speed>11.74</speed><time>2016-07-09T15:25:10Z</time><pdop>6.0</pdop><geoidheight>50.80</geoidheight><course>158.6205</course><type>1</type></trkpt>
      <trkpt lat="39.262369689131326" lon="-5.7080263343552655"><ele>2880</ele><speed>9.79</speed><time>2016-07-09T15:25:12Z</time><pdop>6.0</pdop><geoidheight>50.80</geoidheight><course>158.82115</course><type>1</type></trkpt>
      <trkpt lat="39.26221167162398" lon="-5.707941757612402"><ele>2880</ele><speed>9.73</speed><time>2016-07-09T15:25:14Z</time><pdop>6.0</pdop><geoidheight>50.80</geoidheight><course>156.02924</course><type>1</type></trkpt>
      <trkpt lat="39.262055390868966" lon="-5.707834255513731"><ele>2879</ele><speed>10.00</speed><time>2016-07-09T15:25:16Z</time><pdop>6.0</pdop><geoidheight>50.80</geoidheight><course>151.70944</course><type>1</type></trkpt>
      <trkpt lat="39.26191105603335" lon="-5.707722733369345"><ele>2878</ele><speed>8.68</speed><time>2016-07-09T15:25:18Z</time><pdop>6.0</pdop><geoidheight>50.80</geoidheight><course>150.77928</course><type>1</type></trkpt>
      <trkpt lat="39.261771897107785" lon="-5.707627169860878"><ele>2878</ele><speed>8.51</speed><time>2016-07-09T15:25:20Z</time><pdop>6.0</pdop><geoidheight>50.80</geoidheight><course>153.63252</course><type>1</type></trkpt>
      <trkpt lat="39.26163090571586" lon="-5.707540839456068"><ele>2878</ele><speed>8.85</speed><time>2016-07-09T15:25:22Z</time><pdop>6.0</pdop><geoidheight>50.80</geoidheight><course>156.51202</course><type>1</type></trkpt>
      <trkpt lat="39.261466418293224" lon="-5.707454563031627"><ele>2878</ele><speed>11.42</speed><time>2016-07-09T15:25:24Z</time><pdop>6.0</pdop><geoidheight>50.80</geoidheight><course>158.38416</course><type>1</type></trkpt>
      <trkpt lat="39.26136609168931" lon="-5.707402196418024"><ele>2877</ele><speed>12.46</speed><time>2016-07-09T15:25:25Z</time><pdop>6.0</pdop><geoidheight>50.80</geoidheight><course>157.38478</course><type>1</type></trkpt>
      <trkpt lat="39.26118664091787" lon="-5.707285937801401"><ele>2876</ele><speed>10.07</speed><time>2016-07-09T15:25:27Z</time><pdop>6.0</pdop><geoidheight>50.80</geoidheight><course>152.49088</course><type>1</type></trkpt>
      <trkpt lat="39.261019011021844" lon="-5.707179294880288"><ele>2876</ele><speed>10.47</speed><time>2016-07-09T15:25:28Z</time><pdop>6.0</pdop><geoidheight>50.80</geoidheight><course>155.79425</course><type>1</type></trkpt>
      <trkpt lat="39.26083641649149" lon="-5.7070933893501925"><ele>2875</ele><speed>10.97</speed><time>2016-07-09T15:25:31Z</time><pdop>6.0</pdop><geoidheight>50.80</geoidheight><course>159.12349</course><type>1</type></trkpt>
      <trkpt lat="39.2606656393865" lon="-5.706995427350018"><ele>2873</ele><speed>10.60</speed><time>2016-07-09T15:25:33Z</time><pdop>6.0</pdop><geoidheight>50.80</geoidheight><course>152.5355</course><type>1</type></trkpt>
      <trkpt lat="39.260513485121436" lon="-5.706879484836182"><ele>2872</ele><speed>9.61</speed><time>2016-07-09T15:25:35Z</time><pdop>6.0</pdop><geoidheight>50.80</geoidheight><course>150.16452</course><type>1</type></trkpt>
      <trkpt lat="39.26035262719992" lon="-5.706774563539207"><ele>2871</ele><speed>10.63</speed><time>2016-07-09T15:25:37Z</time><pdop>6.0</pdop><geoidheight>50.80</geoidheight><course>154.44897</course><type>1</type></trkpt>
      <trkpt lat="39.26018749561108" lon="-5.706675684576921"><ele>2869</ele><speed>9.99</speed><time>2016-07-09T15:25:39Z</time><pdop>6.0</pdop><geoidheight>50.80</geoidheight><course>153.1446</course><type>1</type></trkpt>
      <trkpt lat="39.260044011072985" lon="-5.706572374247901"><ele>2868</ele><speed>9.17</speed><time>2016-07-09T15:25:41Z</time><pdop>6.0</pdop><geoidheight>50.80</geoidheight><course>149.65547</course><type>1</type></trkpt>
      <trkpt lat="39.25987924854802" lon="-5.706455000309694"><ele>2866</ele><speed>10.87</speed><time>2016-07-09T15:25:43Z</time><pdop>6.0</pdop><geoidheight>50.80</geoidheight><course>152.17255</course><type>1</type></trkpt>
      <trkpt lat="39.25970202056038" lon="-5.706346419234627"><ele>2863</ele><speed>11.35</speed><time>2016-07-09T15:25:45Z</time><pdop>6.0</pdop><geoidheight>50.80</geoidheight><course>153.6563</course><type>1</type></trkpt>
      <trkpt lat="39.259522448387685" lon="-5.7062337321425805"><ele>2861</ele><speed>11.22</speed><time>2016-07-09T15:25:47Z</time><pdop>6.0</pdop><geoidheight>50.80</geoidheight><course>151.7349</course><type>1</type></trkpt>
      <trkpt lat="39.25936297374523" lon="-5.7061175146720995"><ele>2861</ele><speed>10.17</speed><time>2016-07-09T15:25:49Z</time><pdop>8.0</pdop><geoidheight>50.80</geoidheight><course>149.14622</course><type>1</type></trkpt>
      <trkpt lat="39.25918779538699" lon="-5.70599449597386"><ele>2859</ele><speed>11.54</speed><time>2016-07-09T15:25:51Z</time><pdop>6.0</pdop><geoidheight>50.80</geoidheight><course>152.05502</course><type>1</type></trkpt>
      <trkpt lat="39.25900857857317" lon="-5.705867339148525"><ele>2857</ele><speed>11.09</speed><time>2016-07-09T15:25:53Z</time><pdop>6.0</pdop><geoidheight>50.80</geoidheight><course>149.0023</course><type>1</type></trkpt>
      <trkpt lat="39.25885207923825" lon="-5.705734785924724"><ele>2854</ele><speed>10.00</speed><time>2016-07-09T15:25:55Z</time><pdop>6.0</pdop><geoidheight>50.80</geoidheight><course>146.06972</course><type>1</type></trkpt>
      <trkpt lat="39.258693982118885" lon="-5.705616595232192"><ele>2853</ele><speed>10.18</speed><time>2016-07-09T15:25:57Z</time><pdop>6.0</pdop><geoidheight>50.80</geoidheight><course>151.23442</course><type>1</type></trkpt>
      <trkpt lat="39.25852625611844" lon="-5.705511782203776"><ele>2852</ele><speed>10.60</speed><time>2016-07-09T15:25:59Z</time><pdop>6.0</pdop><geoidheight>50.80</geoidheight><course>152.59314</course><type>1</type></trkpt>
      <trkpt lat="39.25835473371002" lon="-5.705394080091876"><ele>2851</ele><speed>10.85</speed><time>2016-07-09T15:26:01Z</time><pdop>6.0</pdop><geoidheight>50.80</geoidheight><course>151.92505</course><type>1</type></trkpt>
      <trkpt lat="39.258185463012275" lon="-5.705288112190524"><ele>2850</ele><speed>9.77</speed><time>2016-07-09T15:26:03Z</time><pdop>6.0</pdop><geoidheight>50.80</geoidheight><course>154.7694</course><type>1</type></trkpt>
      <trkpt lat="39.258038856984214" lon="-5.7051864015185805"><ele>2849</ele><speed>8.94</speed><time>2016-07-09T15:26:05Z</time><pdop>6.0</pdop><geoidheight>50.80</geoidheight><course>149.66185</course><type>1</type></trkpt>
      <trkpt lat="39.25791853854939" lon="-5.705046692174765"><ele>2847</ele><speed>10.29</speed><time>2016-07-09T15:26:07Z</time><pdop>6.0</pdop><geoidheight>50.80</geoidheight><course>136.53346</course><type>1</type></trkpt>
      <trkpt lat="39.2577786799323" lon="-5.704901477783335"><ele>2844</ele><speed>9.79</speed><time>2016-07-09T15:26:09Z</time><pdop>6.0</pdop><geoidheight>50.80</geoidheight><course>139.08083</course><type>1</type></trkpt>
      <trkpt lat="39.25764862185943" lon="-5.704776082055291"><ele>2841</ele><speed>8.80</speed><time>2016-07-09T15:26:11Z</time><pdop>6.0</pdop><geoidheight>50.80</geoidheight><course>140.08887</course><type>1</type></trkpt>
      <trkpt lat="39.25752289645835" lon="-5.704654684794747"><ele>2838</ele><speed>9.07</speed><time>2016-07-09T15:26:13Z</time><pdop>6.0</pdop><geoidheight>50.80</geoidheight><course>140.19186</course><type>1</type></trkpt>
      <trkpt lat="39.257389961837085" lon="-5.704513342173694"><ele>2835</ele><speed>10.02</speed><time>2016-07-09T15:26:15Z</time><pdop>6.0</pdop><geoidheight>50.80</geoidheight><course>139.99486</course><type>1</type></trkpt>
      <trkpt lat="39.25724379527462" lon="-5.704380837289742"><ele>2833</ele><speed>9.78</speed><time>2016-07-09T15:26:17Z</time><pdop>6.0</pdop><geoidheight>50.80</geoidheight><course>144.27972</course><type>1</type></trkpt>
      <trkpt lat="39.25709568142768" lon="-5.704256004140747"><ele>2831</ele><speed>9.93</speed><time>2016-07-09T15:26:19Z</time><pdop>6.0</pdop><geoidheight>50.80</geoidheight><course>144.00633</course><type>1</type></trkpt>
      <trkpt lat="39.256955059178765" lon="-5.704124645780634"><ele>2829</ele><speed>9.02</speed><time>2016-07-09T15:26:21Z</time><pdop>6.0</pdop><geoidheight>50.80</geoidheight><course>142.42957</course><type>1</type></trkpt>
      <trkpt lat="39.256827679014854" lon="-5.704001914351642"><ele>2827</ele><speed>8.92</speed><time>2016-07-09T15:26:23Z</time><pdop>6.0</pdop><geoidheight>50.80</geoidheight><course>143.74245</course><type>1</type></trkpt>
      <trkpt lat="39.25669718983078" lon="-5.703885733767641"><ele>2824</ele><speed>10.28</speed><time>2016-07-09T15:26:25Z</time><pdop>6.0</pdop><geoidheight>50.80</geoidheight><course>141.62994</course><type>1</type></trkpt>
      <trkpt lat="39.25657717812293" lon="-5.703753019769285"><ele>2820</ele><speed>9.50</speed><time>2016-07-09T15:26:27Z</time><pdop>6.0</pdop><geoidheight>50.80</geoidheight><course>135.80995</course><type>1</type></trkpt>
      <trkpt lat="39.25646108236998" lon="-5.7036120957913825"><ele>2815</ele><speed>9.43</speed><time>2016-07-09T15:26:29Z</time><pdop>6.0</pdop><geoidheight>50.80</geoidheight><course>134.99388</course><type>1</type></trkpt>
      <trkpt lat="39.25633001270475" lon="-5.7034505064965435"><ele>2810</ele><speed>10.75</speed><time>2016-07-09T15:26:31Z</time><pdop>6.0</pdop><geoidheight>50.80</geoidheight><course>135.56868</course><type>1</type></trkpt>
      <trkpt lat="39.25618760660597" lon="-5.703261430032516"><ele>2804</ele><speed>11.96</speed><time>2016-07-09T15:26:33Z</time><pdop>6.0</pdop><geoidheight>50.80</geoidheight><course>132.43689</course><type>1</type></trkpt>
      <trkpt lat="39.256071640756346" lon="-5.703081743044149"><ele>2799</ele><speed>10.45</speed><time>2016-07-09T15:26:35Z</time><pdop>6.0</pdop><geoidheight>50.80</geoidheight><course>129.77611</course><type>1</type></trkpt>
      <trkpt lat="39.255949515511055" lon="-5.702909121258914"><ele>2793</ele><speed>10.20</speed><time>2016-07-09T15:26:37Z</time><pdop>6.0</pdop><geoidheight>50.80</geoidheight><course>131.23215</course><type>1</type></trkpt>
      <trkpt lat="39.25583781491268" lon="-5.702739425852416"><ele>2788</ele><speed>9.95</speed><time>2016-07-09T15:26:39Z</time><pdop>6.0</pdop><geoidheight>50.80</geoidheight><course>127.155174</course><type>1</type></trkpt>
      <trkpt lat="39.25574567411586" lon="-5.7025884064502845"><ele>2782</ele><speed>8.91</speed><time>2016-07-09T15:26:41Z</time><pdop>6.0</pdop><geoidheight>50.80</geoidheight><course>126.22485</course><type>1</type></trkpt>
      <trkpt lat="39.25563690525143" lon="-5.702430367498846"><ele>2777</ele><speed>8.92</speed><time>2016-07-09T15:26:43Z</time><pdop>6.0</pdop><geoidheight>50.80</geoidheight><course>129.63222</course><type>1</type></trkpt>
      <trkpt lat="39.255541262845306" lon="-5.702310561942426"><ele>2770</ele><speed>8.15</speed><time>2016-07-09T15:26:45Z</time><pdop>6.0</pdop><geoidheight>50.80</geoidheight><course>130.29085</course><type>1</type></trkpt>
      <trkpt lat="39.2554460540807" lon="-5.702197178958672"><ele>2763</ele><speed>7.83</speed><time>2016-07-09T15:26:47Z</time><pdop>6.0</pdop><geoidheight>50.80</geoidheight><course>132.60196</course><type>1</type></trkpt>
      <trkpt lat="39.255308847470225" lon="-5.702107730720291"><ele>2757</ele><speed>8.58</speed><time>2016-07-09T15:26:49Z</time><pdop>6.0</pdop><geoidheight>50.80</geoidheight><course>151.5095</course><type>1</type></trkpt>
      <trkpt lat="39.25517951431157" lon="-5.701997903816995"><ele>2751</ele><speed>8.31</speed><time>2016-07-09T15:26:51Z</time><pdop>8.0</pdop><geoidheight>50.80</geoidheight><course>136.22049</course><type>1</type></trkpt>
      <trkpt lat="39.25508762203123" lon="-5.701874044204251"><ele>2744</ele><speed>7.40</speed><time>2016-07-09T15:26:53Z</time><pdop>6.0</pdop><geoidheight>50.80</geoidheight><course>128.93033</course><type>1</type></trkpt>
      <trkpt lat="39.25500170745159" lon="-5.70174448347085"><ele>2738</ele><speed>8.05</speed><time>2016-07-09T15:26:55Z</time><pdop>6.0</pdop><geoidheight>50.80</geoidheight><course>131.14328</course><type>1</type></trkpt>
      <trkpt lat="39.25490392792712" lon="-5.701622581247637"><ele>2731</ele><speed>7.46</speed><time>2016-07-09T15:26:57Z</time><pdop>6.0</pdop><geoidheight>50.80</geoidheight><course>134.12811</course><type>1</type></trkpt>
      <trkpt lat="39.254801258306124" lon="-5.701513517315629"><ele>2724</ele><speed>8.06</speed><time>2016-07-09T15:26:59Z</time><pdop>6.0</pdop><geoidheight>50.80</geoidheight><course>138.60283</course><type>1</type></trkpt>
      <trkpt lat="39.254669610237485" lon="-5.701430268053539"><ele>2717</ele><speed>7.60</speed><time>2016-07-09T15:27:01Z</time><pdop>6.0</pdop><geoidheight>50.80</geoidheight><course>151.1482</course><type>1</type></trkpt>
      <trkpt lat="39.25455656664341" lon="-5.7013411050722995"><ele>2710</ele><speed>8.03</speed><time>2016-07-09T15:27:03Z</time><pdop>6.0</pdop><geoidheight>50.80</geoidheight><course>145.91026</course><type>1</type></trkpt>
      <trkpt lat="39.254431633400436" lon="-5.70122425537677"><ele>2702</ele><speed>9.06</speed><time>2016-07-09T15:27:05Z</time><pdop>6.0</pdop><geoidheight>50.80</geoidheight><course>143.0271</course><type>1</type></trkpt>
      <trkpt lat="39.25431009391484" lon="-5.701121544598241"><ele>2696</ele><speed>7.25</speed><time>2016-07-09T15:27:07Z</time><pdop>6.0</pdop><geoidheight>50.80</geoidheight><course>147.63785</course><type>1</type></trkpt>
      <trkpt lat="39.25419501953878" lon="-5.701042279928171"><ele>2690</ele><speed>8.13</speed><time>2016-07-09T15:27:09Z</time><pdop>6.0</pdop><geoidheight>50.80</geoidheight><course>149.19179</course><type>1</type></trkpt>
      <trkpt lat="39.25408280275359" lon="-5.700920703458374"><ele>2683</ele><speed>8.69</speed><time>2016-07-09T15:27:11Z</time><pdop>6.0</pdop><geoidheight>50.80</geoidheight><course>126.04271</course><type>1</type></trkpt>
      <trkpt lat="39.254004511650656" lon="-5.7008246794746675"><ele>2680</ele><speed>8.69</speed><time>2016-07-09T15:27:12Z</time><pdop>6.0</pdop><geoidheight>50.80</geoidheight><course>137.02847</course><type>1</type></trkpt>
      <trkpt lat="39.25386702393026" lon="-5.700650931366475"><ele>2675</ele><speed>6.99</speed><time>2016-07-09T15:27:14Z</time><pdop>6.0</pdop><geoidheight>50.80</geoidheight><course>129.23108</course><type>1</type></trkpt>
      <trkpt lat="39.25380779798837" lon="-5.700525302264414"><ele>2670</ele><speed>4.20</speed><time>2016-07-09T15:27:16Z</time><pdop>6.0</pdop><geoidheight>50.80</geoidheight><course>114.428345</course><type>1</type></trkpt>
      <trkpt lat="39.253717624745086" lon="-5.700358891329505"><ele>2665</ele><speed>7.94</speed><time>2016-07-09T15:27:19Z</time><pdop>6.0</pdop><geoidheight>50.80</geoidheight><course>118.483894</course><type>1</type></trkpt>
      <trkpt lat="39.25364021062335" lon="-5.700191466104463"><ele>2661</ele><speed>9.12</speed><time>2016-07-09T15:27:21Z</time><pdop>6.0</pdop><geoidheight>50.80</geoidheight><course>118.90715</course><type>1</type></trkpt>
      <trkpt lat="39.25355911908339" lon="-5.700024341397674"><ele>2658</ele><speed>8.22</speed><time>2016-07-09T15:27:23Z</time><pdop>6.0</pdop><geoidheight>50.80</geoidheight><course>121.111946</course><type>1</type></trkpt>
      <trkpt lat="39.25349383541571" lon="-5.699905163383919"><ele>2654</ele><speed>7.17</speed><time>2016-07-09T15:27:25Z</time><pdop>6.0</pdop><geoidheight>50.80</geoidheight><course>119.74907</course><type>1</type></trkpt>
      <trkpt lat="39.25342960233848" lon="-5.699758290603427"><ele>2651</ele><speed>8.23</speed><time>2016-07-09T15:27:27Z</time><pdop>6.0</pdop><geoidheight>50.80</geoidheight><course>116.36364</course><type>1</type></trkpt>
      <trkpt lat="39.25337140053049" lon="-5.699598950279861"><ele>2646</ele><speed>7.67</speed><time>2016-07-09T15:27:29Z</time><pdop>6.0</pdop><geoidheight>50.80</geoidheight><course>113.86453</course><type>1</type></trkpt>
      <trkpt lat="39.25332509151534" lon="-5.699438193422471"><ele>2643</ele><speed>6.87</speed><time>2016-07-09T15:27:31Z</time><pdop>6.0</pdop><geoidheight>50.80</geoidheight><course>111.098145</course><type>1</type></trkpt>
      <trkpt lat="39.25327795656784" lon="-5.699303523219603"><ele>2641</ele><speed>5.39</speed><time>2016-07-09T15:27:33Z</time><pdop>6.0</pdop><geoidheight>50.80</geoidheight><course>128.53757</course><type>1</type></trkpt>
      <trkpt lat="39.25319438358954" lon="-5.699137553015897"><ele>2634</ele><speed>8.64</speed><time>2016-07-09T15:27:36Z</time><pdop>6.0</pdop><geoidheight>50.80</geoidheight><course>121.138</course><type>1</type></trkpt>
      <trkpt lat="39.25313118011125" lon="-5.698977470850919"><ele>2626</ele><speed>8.22</speed><time>2016-07-09T15:27:38Z</time><pdop>6.0</pdop><geoidheight>50.80</geoidheight><course>118.29529</course><type>1</type></trkpt>
      <trkpt lat="39.25307896707234" lon="-5.69884863116576"><ele>2620</ele><speed>6.93</speed><time>2016-07-09T15:27:39Z</time><pdop>6.0</pdop><geoidheight>50.80</geoidheight><course>118.31814</course><type>1</type></trkpt>
      <trkpt lat="39.25300838227062" lon="-5.698707297075418"><ele>2613</ele><speed>8.41</speed><time>2016-07-09T15:27:42Z</time><pdop>6.0</pdop><geoidheight>50.80</geoidheight><course>121.92311</course><type>1</type></trkpt>
      <trkpt lat="39.252924558858844" lon="-5.698537147765398"><ele>2604</ele><speed>10.26</speed><time>2016-07-09T15:27:44Z</time><pdop>8.0</pdop><geoidheight>50.80</geoidheight><course>119.41488</course><type>1</type></trkpt>
      <trkpt lat="39.252850058019455" lon="-5.698381430950048"><ele>2596</ele><speed>7.77</speed><time>2016-07-09T15:27:46Z</time><pdop>6.0</pdop><geoidheight>50.80</geoidheight><course>118.02482</course><type>1</type></trkpt>
      <trkpt lat="39.25276793098666" lon="-5.698230431373232"><ele>2588</ele><speed>7.94</speed><time>2016-07-09T15:27:48Z</time><pdop>6.0</pdop><geoidheight>50.80</geoidheight><course>121.33822</course><type>1</type></trkpt>
      <trkpt lat="39.25268423402767" lon="-5.698104578952242"><ele>2581</ele><speed>8.63</speed><time>2016-07-09T15:27:50Z</time><pdop>6.0</pdop><geoidheight>50.80</geoidheight><course>124.49234</course><type>1</type></trkpt>
      <trkpt lat="39.25259231475718" lon="-5.697955480625418"><ele>2575</ele><speed>8.36</speed><time>2016-07-09T15:27:52Z</time><pdop>6.0</pdop><geoidheight>50.80</geoidheight><course>124.36262</course><type>1</type></trkpt>
      <trkpt lat="39.252505026361106" lon="-5.697815037000438"><ele>2569</ele><speed>7.18</speed><time>2016-07-09T15:27:54Z</time><pdop>6.0</pdop><geoidheight>50.80</geoidheight><course>125.8529</course><type>1</type></trkpt>
      <trkpt lat="39.25242534082855" lon="-5.697694227463402"><ele>2563</ele><speed>7.51</speed><time>2016-07-09T15:27:55Z</time><pdop>6.0</pdop><geoidheight>50.80</geoidheight><course>125.49026</course><type>1</type></trkpt>
      <trkpt lat="39.25235295351108" lon="-5.697549307340455"><ele>2558</ele><speed>8.05</speed><time>2016-07-09T15:27:58Z</time><pdop>6.0</pdop><geoidheight>50.80</geoidheight><course>119.066795</course><type>1</type></trkpt>
      <trkpt lat="39.25229712091201" lon="-5.697400163448912"><ele>2553</ele><speed>7.03</speed><time>2016-07-09T15:28:00Z</time><pdop>6.0</pdop><geoidheight>50.80</geoidheight><course>112.71459</course><type>1</type></trkpt>
      <trkpt lat="39.2522498372981" lon="-5.697263345070804"><ele>2547</ele><speed>7.11</speed><time>2016-07-09T15:28:02Z</time><pdop>6.0</pdop><geoidheight>50.80</geoidheight><course>112.504395</course><type>1</type></trkpt>
      <trkpt lat="39.252211465443594" lon="-5.697092716887092"><ele>2541</ele><speed>8.69</speed><time>2016-07-09T15:28:04Z</time><pdop>6.0</pdop><geoidheight>50.80</geoidheight><course>98.07558</course><type>1</type></trkpt>
      <trkpt lat="39.25221004770001" lon="-5.696926323844872"><ele>2535</ele><speed>7.76</speed><time>2016-07-09T15:28:06Z</time><pdop>6.0</pdop><geoidheight>50.80</geoidheight><course>80.97311</course><type>1</type></trkpt>
      <trkpt lat="39.25219794774338" lon="-5.6967573648219485"><ele>2529</ele><speed>7.61</speed><time>2016-07-09T15:28:08Z</time><pdop>6.0</pdop><geoidheight>50.80</geoidheight><course>102.46036</course><type>1</type></trkpt>
      <trkpt lat="39.25215829399337" lon="-5.696581626941936"><ele>2523</ele><speed>8.23</speed><time>2016-07-09T15:28:10Z</time><pdop>6.0</pdop><geoidheight>50.80</geoidheight><course>105.71722</course><type>1</type></trkpt>
      <trkpt lat="39.25211863542995" lon="-5.696410927809341"><ele>2517</ele><speed>7.60</speed><time>2016-07-09T15:28:12Z</time><pdop>6.0</pdop><geoidheight>50.80</geoidheight><course>104.71324</course><type>1</type></trkpt>
      <trkpt lat="39.25207471769753" lon="-5.69625611134575"><ele>2512</ele><speed>7.49</speed><time>2016-07-09T15:28:14Z</time><pdop>6.0</pdop><geoidheight>50.80</geoidheight><course>110.49649</course><type>1</type></trkpt>
      <trkpt lat="39.2520098551536" lon="-5.6960874139053255"><ele>2506</ele><speed>9.25</speed><time>2016-07-09T15:28:16Z</time><pdop>6.0</pdop><geoidheight>50.80</geoidheight><course>113.689926</course><type>1</type></trkpt>
      <trkpt lat="39.251944394845644" lon="-5.695909558482227"><ele>2501</ele><speed>8.00</speed><time>2016-07-09T15:28:18Z</time><pdop>6.0</pdop><geoidheight>50.80</geoidheight><course>114.12834</course><type>1</type></trkpt>
      <trkpt lat="39.25189031159754" lon="-5.69577230830504"><ele>2498</ele><speed>7.10</speed><time>2016-07-09T15:28:20Z</time><pdop>6.0</pdop><geoidheight>50.80</geoidheight><course>113.40764</course><type>1</type></trkpt>
      <trkpt lat="39.25184870897289" lon="-5.695612909276247"><ele>2495</ele><speed>9.77</speed><time>2016-07-09T15:28:22Z</time><pdop>6.0</pdop><geoidheight>50.80</geoidheight><course>106.80044</course><type>1</type></trkpt>
      <trkpt lat="39.25180316807179" lon="-5.695423817133744"><ele>2490</ele><speed>9.18</speed><time>2016-07-09T15:28:24Z</time><pdop>6.0</pdop><geoidheight>50.80</geoidheight><course>107.43886</course><type>1</type></trkpt>
      <trkpt lat="39.25175999150833" lon="-5.695248619495032"><ele>2485</ele><speed>6.50</speed><time>2016-07-09T15:28:26Z</time><pdop>6.0</pdop><geoidheight>50.80</geoidheight><course>105.22513</course><type>1</type></trkpt>
      <trkpt lat="39.251731282926706" lon="-5.695103212430161"><ele>2480</ele><speed>7.60</speed><time>2016-07-09T15:28:28Z</time><pdop>6.0</pdop><geoidheight>50.80</geoidheight><course>104.312454</course><type>1</type></trkpt>
      <trkpt lat="39.25168929783235" lon="-5.694923453271127"><ele>2475</ele><speed>9.18</speed><time>2016-07-09T15:28:30Z</time><pdop>6.0</pdop><geoidheight>50.80</geoidheight><course>106.53833</course><type>1</type></trkpt>
      <trkpt lat="39.25164423837532" lon="-5.694733366967052"><ele>2471</ele><speed>8.10</speed><time>2016-07-09T15:28:32Z</time><pdop>6.0</pdop><geoidheight>50.80</geoidheight><course>105.81441</course><type>1</type></trkpt>
      <trkpt lat="39.25160361100827" lon="-5.694565179720966"><ele>2466</ele><speed>7.56</speed><time>2016-07-09T15:28:34Z</time><pdop>6.0</pdop><geoidheight>50.80</geoidheight><course>106.19505</course><type>1</type></trkpt>
      <trkpt lat="39.25155522774711" lon="-5.694405486730128"><ele>2462</ele><speed>8.29</speed><time>2016-07-09T15:28:36Z</time><pdop>6.0</pdop><geoidheight>50.80</geoidheight><course>109.99927</course><type>1</type></trkpt>
      <trkpt lat="39.25150319166407" lon="-5.694248742509866"><ele>2458</ele><speed>7.89</speed><time>2016-07-09T15:28:38Z</time><pdop>6.0</pdop><geoidheight>50.80</geoidheight><course>109.28161</course><type>1</type></trkpt>
      <trkpt lat="39.25146716078977" lon="-5.694088728736848"><ele>2454</ele><speed>8.21</speed><time>2016-07-09T15:28:40Z</time><pdop>6.0</pdop><geoidheight>50.80</geoidheight><course>103.62579</course><type>1</type></trkpt>
      <trkpt lat="39.2514350927052" lon="-5.693916317286551"><ele>2449</ele><speed>8.60</speed><time>2016-07-09T15:28:42Z</time><pdop>6.0</pdop><geoidheight>50.80</geoidheight><course>103.03676</course><type>1</type></trkpt>
      <trkpt lat="39.25140269294839" lon="-5.693740912645949"><ele>2444</ele><speed>8.72</speed><time>2016-07-09T15:28:44Z</time><pdop>6.0</pdop><geoidheight>50.80</geoidheight><course>102.25735</course><type>1</type></trkpt>
      <trkpt lat="39.251381612260985" lon="-5.693559864406006"><ele>2440</ele><speed>9.10</speed><time>2016-07-09T15:28:46Z</time><pdop>6.0</pdop><geoidheight>50.80</geoidheight><course>97.70114</course><type>1</type></trkpt>
      <trkpt lat="39.251362429749264" lon="-5.693373288657394"><ele>2435</ele><speed>8.58</speed><time>2016-07-09T15:28:48Z</time><pdop>6.0</pdop><geoidheight>50.80</geoidheight><course>98.98207</course><type>1</type></trkpt>
      <trkpt lat="39.25133934577162" lon="-5.693195326540107"><ele>2429</ele><speed>8.20</speed><time>2016-07-09T15:28:50Z</time><pdop>6.0</pdop><geoidheight>50.80</geoidheight><course>97.29787</course><type>1</type></trkpt>
      <trkpt lat="39.2513604437337" lon="-5.6930193446933535"><ele>2424</ele><speed>8.01</speed><time>2016-07-09T15:28:52Z</time><pdop>6.0</pdop><geoidheight>50.80</geoidheight><course>78.11134</course><type>1</type></trkpt>
      <trkpt lat="39.25136320011852" lon="-5.692851983282166"><ele>2419</ele><speed>8.76</speed><time>2016-07-09T15:28:53Z</time><pdop>6.0</pdop><geoidheight>50.80</geoidheight><course>96.41825</course><type>1</type></trkpt>
      <trkpt lat="39.25133807686721" lon="-5.692658901775811"><ele>2413</ele><speed>11.03</speed><time>2016-07-09T15:28:56Z</time><pdop>6.0</pdop><geoidheight>50.80</geoidheight><course>98.84959</course><type>1</type></trkpt>
      <trkpt lat="39.25131119864421" lon="-5.692445074461216"><ele>2407</ele><speed>10.30</speed><time>2016-07-09T15:28:58Z</time><pdop>6.0</pdop><geoidheight>50.80</geoidheight><course>96.30663</course><type>1</type></trkpt>
      <trkpt lat="39.25129017065884" lon="-5.692237848210011"><ele>2402</ele><speed>9.05</speed><time>2016-07-09T15:29:00Z</time><pdop>6.0</pdop><geoidheight>50.80</geoidheight><course>96.7163</course><type>1</type></trkpt>
      <trkpt lat="39.25126369495274" lon="-5.692041173549547"><ele>2396</ele><speed>9.56</speed><time>2016-07-09T15:29:02Z</time><pdop>6.0</pdop><geoidheight>50.80</geoidheight><course>98.82124</course><type>1</type></trkpt>
      <trkpt lat="39.251227608099754" lon="-5.691834757503174"><ele>2391</ele><speed>11.07</speed><time>2016-07-09T15:29:04Z</time><pdop>6.0</pdop><geoidheight>50.80</geoidheight><course>101.30441</course><type>1</type></trkpt>
      <trkpt lat="39.25118574627153" lon="-5.6916153632111826"><ele>2386</ele><speed>10.56</speed><time>2016-07-09T15:29:06Z</time><pdop>6.0</pdop><geoidheight>50.80</geoidheight><course>102.63632</course><type>1</type></trkpt>
      <trkpt lat="39.25113944221911" lon="-5.6914085490193935"><ele>2382</ele><speed>9.87</speed><time>2016-07-09T15:29:08Z</time><pdop>6.0</pdop><geoidheight>50.80</geoidheight><course>104.55401</course><type>1</type></trkpt>
      <trkpt lat="39.2510908653707" lon="-5.691206997679049"><ele>2377</ele><speed>10.30</speed><time>2016-07-09T15:29:10Z</time><pdop>6.0</pdop><geoidheight>50.80</geoidheight><course>104.51289</course><type>1</type></trkpt>
      <trkpt lat="39.251048823587915" lon="-5.690983971679561"><ele>2372</ele><speed>11.41</speed><time>2016-07-09T15:29:12Z</time><pdop>6.0</pdop><geoidheight>50.80</geoidheight><course>101.92304</course><type>1</type></trkpt>
      <trkpt lat="39.251009733200064" lon="-5.690746878490603"><ele>2368</ele><speed>11.35</speed><time>2016-07-09T15:29:14Z</time><pdop>6.0</pdop><geoidheight>50.80</geoidheight><course>101.63044</course><type>1</type></trkpt>
      <trkpt lat="39.250960064411395" lon="-5.690514142352192"><ele>2363</ele><speed>10.53</speed><time>2016-07-09T15:29:16Z</time><pdop>6.0</pdop><geoidheight>50.80</geoidheight><course>104.91557</course><type>1</type></trkpt>
      <trkpt lat="39.25090540540102" lon="-5.690299468558167"><ele>2359</ele><speed>9.83</speed><time>2016-07-09T15:29:18Z</time><pdop>6.0</pdop><geoidheight>50.80</geoidheight><course>106.68744</course><type>1</type></trkpt>
      <trkpt lat="39.250852386857346" lon="-5.6900948295350835"><ele>2356</ele><speed>10.26</speed><time>2016-07-09T15:29:20Z</time><pdop>6.0</pdop><geoidheight>50.80</geoidheight><course>105.76524</course><type>1</type></trkpt>
      <trkpt lat="39.25079648832776" lon="-5.689868288817102"><ele>2351</ele><speed>11.45</speed><time>2016-07-09T15:29:22Z</time><pdop>6.0</pdop><geoidheight>50.80</geoidheight><course>105.47815</course><type>1</type></trkpt>
      <trkpt lat="39.25074256600654" lon="-5.689637464135877"><ele>2347</ele><speed>10.61</speed><time>2016-07-09T15:29:24Z</time><pdop>6.0</pdop><geoidheight>50.80</geoidheight><course>105.04711</course><type>1</type></trkpt>
      <trkpt lat="39.25070140557142" lon="-5.689408493692237"><ele>2343</ele><speed>11.23</speed><time>2016-07-09T15:29:26Z</time><pdop>6.0</pdop><geoidheight>50.80</geoidheight><course>102.01696</course><type>1</type></trkpt>
      <trkpt lat="39.250661080276245" lon="-5.689166201471337"><ele>2339</ele><speed>12.14</speed><time>2016-07-09T15:29:28Z</time><pdop>6.0</pdop><geoidheight>50.80</geoidheight><course>101.13356</course><type>1</type></trkpt>
      <trkpt lat="39.250619778406936" lon="-5.688926404380328"><ele>2334</ele><speed>10.96</speed><time>2016-07-09T15:29:30Z</time><pdop>6.0</pdop><geoidheight>50.80</geoidheight><course>101.32393</course><type>1</type></trkpt>
      <trkpt lat="39.25058394724388" lon="-5.6887018076375035"><ele>2329</ele><speed>10.98</speed><time>2016-07-09T15:29:32Z</time><pdop>6.0</pdop><geoidheight>50.80</geoidheight><course>100.688835</course><type>1</type></trkpt>
      <trkpt lat="39.25054315364289" lon="-5.688470721053707"><ele>2323</ele><speed>11.66</speed><time>2016-07-09T15:29:34Z</time><pdop>6.0</pdop><geoidheight>50.80</geoidheight><course>102.05874</course><type>1</type></trkpt>
      <trkpt lat="39.2504940742227" lon="-5.688246039358708"><ele>2318</ele><speed>10.63</speed><time>2016-07-09T15:29:36Z</time><pdop>6.0</pdop><geoidheight>50.80</geoidheight><course>104.269714</course><type>1</type></trkpt>
      <trkpt lat="39.25044787760515" lon="-5.688036375507788"><ele>2313</ele><speed>9.77</speed><time>2016-07-09T15:29:38Z</time><pdop>6.0</pdop><geoidheight>50.80</geoidheight><course>103.165</course><type>1</type></trkpt>
      <trkpt lat="39.250403338479224" lon="-5.687826195043672"><ele>2308</ele><speed>10.95</speed><time>2016-07-09T15:29:40Z</time><pdop>6.0</pdop><geoidheight>50.80</geoidheight><course>103.49138</course><type>1</type></trkpt>
      <trkpt lat="39.250353560707474" lon="-5.68759826046753"><ele>2302</ele><speed>11.59</speed><time>2016-07-09T15:29:42Z</time><pdop>6.0</pdop><geoidheight>50.80</geoidheight><course>103.25253</course><type>1</type></trkpt>
      <trkpt lat="39.2503061239056" lon="-5.687366781247743"><ele>2295</ele><speed>11.04</speed><time>2016-07-09T15:29:43Z</time><pdop>6.0</pdop><geoidheight>50.80</geoidheight><course>101.590385</course><type>1</type></trkpt>
      <trkpt lat="39.25027252037276" lon="-5.6871471738538215"><ele>2289</ele><speed>10.29</speed><time>2016-07-09T15:29:46Z</time><pdop>6.0</pdop><geoidheight>50.80</geoidheight><course>99.97573</course><type>1</type></trkpt>
      <trkpt lat="39.250241856222196" lon="-5.686919876399441"><ele>2282</ele><speed>11.53</speed><time>2016-07-09T15:29:48Z</time><pdop>6.0</pdop><geoidheight>50.80</geoidheight><course>98.76035</course><type>1</type></trkpt>
      <trkpt lat="39.25021084606629" lon="-5.686676046289382"><ele>2274</ele><speed>12.07</speed><time>2016-07-09T15:29:50Z</time><pdop>6.0</pdop><geoidheight>50.80</geoidheight><course>97.43143</course><type>1</type></trkpt>
      <trkpt lat="39.2501842168477" lon="-5.686425227995757"><ele>2267</ele><speed>11.33</speed><time>2016-07-09T15:29:52Z</time><pdop>6.0</pdop><geoidheight>50.80</geoidheight><course>96.281746</course><type>1</type></trkpt>
      <trkpt lat="39.25015222016625" lon="-5.686187826538701"><ele>2262</ele><speed>10.77</speed><time>2016-07-09T15:29:54Z</time><pdop>6.0</pdop><geoidheight>50.80</geoidheight><course>99.56836</course><type>1</type></trkpt>
      <trkpt lat="39.25011766771371" lon="-5.685961755630819"><ele>2258</ele><speed>11.05</speed><time>2016-07-09T15:29:56Z</time><pdop>6.0</pdop><geoidheight>50.80</geoidheight><course>99.51991</course><type>1</type></trkpt>
      <trkpt lat="39.25008637479463" lon="-5.68570513817655"><ele>2254</ele><speed>11.72</speed><time>2016-07-09T15:29:58Z</time><pdop>6.0</pdop><geoidheight>50.80</geoidheight><course>97.81111</course><type>1</type></trkpt>
      <trkpt lat="39.25005788900849" lon="-5.685460519255354"><ele>2252</ele><speed>10.70</speed><time>2016-07-09T15:30:00Z</time><pdop>6.0</pdop><geoidheight>50.80</geoidheight><course>99.23327</course><type>1</type></trkpt>
      <trkpt lat="39.25002224559031" lon="-5.6852316380451535"><ele>2249</ele><speed>10.47</speed><time>2016-07-09T15:30:02Z</time><pdop>6.0</pdop><geoidheight>50.80</geoidheight><course>101.247215</course><type>1</type></trkpt>
      <trkpt lat="39.24997954474737" lon="-5.685001258048432"><ele>2246</ele><speed>10.84</speed><time>2016-07-09T15:30:04Z</time><pdop>6.0</pdop><geoidheight>50.80</geoidheight><course>101.9308</course><type>1</type></trkpt>
      <trkpt lat="39.24994207399544" lon="-5.684765383281498"><ele>2243</ele><speed>10.88</speed><time>2016-07-09T15:30:06Z</time><pdop>6.0</pdop><geoidheight>50.80</geoidheight><course>99.63707</course><type>1</type></trkpt>
      <trkpt lat="39.249910016999934" lon="-5.68453071722008"><ele>2239</ele><speed>10.99</speed><time>2016-07-09T15:30:08Z</time><pdop>6.0</pdop><geoidheight>50.80</geoidheight><course>99.99332</course><type>1</type></trkpt>
      <trkpt lat="39.24986686334207" lon="-5.6842975129398825"><ele>2236</ele><speed>10.67</speed><time>2016-07-09T15:30:10Z</time><pdop>6.0</pdop><geoidheight>50.80</geoidheight><course>102.5207</course><type>1</type></trkpt>
      <trkpt lat="39.24981851843382" lon="-5.684069360498235"><ele>2234</ele><speed>10.46</speed><time>2016-07-09T15:30:12Z</time><pdop>6.0</pdop><geoidheight>50.80</geoidheight><course>103.89667</course><type>1</type></trkpt>
      <trkpt lat="39.249766935803166" lon="-5.6838306333615565"><ele>2231</ele><speed>10.89</speed><time>2016-07-09T15:30:14Z</time><pdop>6.0</pdop><geoidheight>50.80</geoidheight><course>103.65526</course><type>1</type></trkpt>
      <trkpt lat="39.24971738028814" lon="-5.683595176284809"><ele>2229</ele><speed>10.83</speed><time>2016-07-09T15:30:16Z</time><pdop>6.0</pdop><geoidheight>50.80</geoidheight><course>103.71731</course><type>1</type></trkpt>
      <trkpt lat="39.24966804236711" lon="-5.683350596932666"><ele>2228</ele><speed>10.76</speed><time>2016-07-09T15:30:18Z</time><pdop>6.0</pdop><geoidheight>50.80</geoidheight><course>103.52564</course><type>1</type></trkpt>
      <trkpt lat="39.2496160131565" lon="-5.6831048735710175"><ele>2226</ele><speed>11.93</speed><time>2016-07-09T15:30:20Z</time><pdop>6.0</pdop><geoidheight>50.80</geoidheight><course>105.03646</course><type>1</type></trkpt>
      <trkpt lat="39.24956204900008" lon="-5.6828520821338335"><ele>2225</ele><speed>11.62</speed><time>2016-07-09T15:30:22Z</time><pdop>6.0</pdop><geoidheight>50.80</geoidheight><course>103.7504</course><type>1</type></trkpt>
      <trkpt lat="39.249512810721455" lon="-5.682595120749177"><ele>2223</ele><speed>11.16</speed><time>2016-07-09T15:30:24Z</time><pdop>6.0</pdop><geoidheight>50.80</geoidheight><course>103.666214</course><type>1</type></trkpt>
      <trkpt lat="39.24945289410713" lon="-5.68234566792868"><ele>2223</ele><speed>12.16</speed><time>2016-07-09T15:30:26Z</time><pdop>6.0</pdop><geoidheight>50.80</geoidheight><course>107.1757</course><type>1</type></trkpt>
      <trkpt lat="39.24938352087386" lon="-5.682080575657183"><ele>2223</ele><speed>12.49</speed><time>2016-07-09T15:30:28Z</time><pdop>6.0</pdop><geoidheight>50.80</geoidheight><course>107.94609</course><type>1</type></trkpt>
      <trkpt lat="39.249317996950126" lon="-5.6818212323728225"><ele>2223</ele><speed>11.43</speed><time>2016-07-09T15:30:30Z</time><pdop>6.0</pdop><geoidheight>50.80</geoidheight><course>106.518776</course><type>1</type></trkpt>
      <trkpt lat="39.24926065116163" lon="-5.681562611129493"><ele>2223</ele><speed>12.49</speed><time>2016-07-09T15:30:32Z</time><pdop>6.0</pdop><geoidheight>50.80</geoidheight><course>105.355286</course><type>1</type></trkpt>
      <trkpt lat="39.24922920741694" lon="-5.68142012094487"><ele>2222</ele><speed>13.26</speed><time>2016-07-09T15:30:33Z</time><pdop>6.0</pdop><geoidheight>50.80</geoidheight><course>105.95131</course><type>1</type></trkpt>
      <trkpt lat="39.249196143473625" lon="-5.681272960574836"><ele>2222</ele><speed>13.64</speed><time>2016-07-09T15:30:34Z</time><pdop>6.0</pdop><geoidheight>50.80</geoidheight><course>106.3529</course><type>1</type></trkpt>
      <trkpt lat="39.24916211232325" lon="-5.681122969825021"><ele>2222</ele><speed>13.60</speed><time>2016-07-09T15:30:35Z</time><pdop>6.0</pdop><geoidheight>50.80</geoidheight><course>105.77425</course><type>1</type></trkpt>
      <trkpt lat="39.249129636173926" lon="-5.680977827839258"><ele>2221</ele><speed>12.99</speed><time>2016-07-09T15:30:36Z</time><pdop>6.0</pdop><geoidheight>50.80</geoidheight><course>105.43699</course><type>1</type></trkpt>
      <trkpt lat="39.24910008743009" lon="-5.680832527171125"><ele>2221</ele><speed>12.67</speed><time>2016-07-09T15:30:37Z</time><pdop>6.0</pdop><geoidheight>50.80</geoidheight><course>104.62252</course><type>1</type></trkpt>
      <trkpt lat="39.2490718956954" lon="-5.680691774088368"><ele>2221</ele><speed>12.74</speed><time>2016-07-09T15:30:38Z</time><pdop>6.0</pdop><geoidheight>50.80</geoidheight><course>104.087456</course><type>1</type></trkpt>
      <trkpt lat="39.24904564578703" lon="-5.680543429614358"><ele>2221</ele><speed>13.27</speed><time>2016-07-09T15:30:39Z</time><pdop>6.0</pdop><geoidheight>50.80</geoidheight><course>103.30888</course><type>1</type></trkpt>
      <trkpt lat="39.24901933801032" lon="-5.680391339955144"><ele>2221</ele><speed>13.59</speed><time>2016-07-09T15:30:40Z</time><pdop>6.0</pdop><geoidheight>50.80</geoidheight><course>102.83344</course><type>1</type></trkpt>
      <trkpt lat="39.24899395543528" lon="-5.68024444124231"><ele>2220</ele><speed>13.60</speed><time>2016-07-09T15:30:41Z</time><pdop>6.0</pdop><geoidheight>50.80</geoidheight><course>103.33251</course><type>1</type></trkpt>
      <trkpt lat="39.248968408119566" lon="-5.6801014905194505"><ele>2220</ele><speed>13.07</speed><time>2016-07-09T15:30:42Z</time><pdop>6.0</pdop><geoidheight>50.80</geoidheight><course>103.761345</course><type>1</type></trkpt>
      <trkpt lat="39.248940016528174" lon="-5.679959150182962"><ele>2220</ele><speed>12.82</speed><time>2016-07-09T15:30:43Z</time><pdop>6.0</pdop><geoidheight>50.80</geoidheight><course>104.36961</course><type>1</type></trkpt>
      <trkpt lat="39.248911925893744" lon="-5.679821160738106"><ele>2219</ele><speed>12.33</speed><time>2016-07-09T15:30:44Z</time><pdop>6.0</pdop><geoidheight>50.80</geoidheight><course>104.89163</course><type>1</type></trkpt>
      <trkpt lat="39.24888492911138" lon="-5.679686129460509"><ele>2218</ele><speed>12.28</speed><time>2016-07-09T15:30:45Z</time><pdop>6.0</pdop><geoidheight>50.80</geoidheight><course>103.81934</course><type>1</type></trkpt>
      <trkpt lat="39.24886275678925" lon="-5.67954148525365"><ele>2218</ele><speed>13.10</speed><time>2016-07-09T15:30:46Z</time><pdop>6.0</pdop><geoidheight>50.80</geoidheight><course>101.461266</course><type>1</type></trkpt>
      <trkpt lat="39.24884552589032" lon="-5.67939019435421"><ele>2217</ele><speed>13.24</speed><time>2016-07-09T15:30:47Z</time><pdop>6.0</pdop><geoidheight>50.80</geoidheight><course>99.424385</course><type>1</type></trkpt>
      <trkpt lat="39.248813705258506" lon="-5.67913749430756"><ele>2216</ele><speed>8.63</speed><time>2016-07-09T15:30:49Z</time><pdop>6.0</pdop><geoidheight>50.80</geoidheight><course>101.553925</course><type>1</type></trkpt>
      <trkpt lat="39.24879147438736" lon="-5.67895146416726"><ele>2216</ele><speed>8.10</speed><time>2016-07-09T15:30:51Z</time><pdop>6.0</pdop><geoidheight>50.80</geoidheight><course>99.3025</course><type>1</type></trkpt>
      <trkpt lat="39.248772953712496" lon="-5.678730192640122"><ele>2217</ele><speed>11.07</speed><time>2016-07-09T15:30:52Z</time><pdop>6.0</pdop><geoidheight>50.80</geoidheight><course>98.00883</course><type>1</type></trkpt>
      <trkpt lat="39.24875507754341" lon="-5.67847175170993"><ele>2215</ele><speed>10.84</speed><time>2016-07-09T15:30:55Z</time><pdop>8.0</pdop><geoidheight>50.80</geoidheight><course>93.333244</course><type>1</type></trkpt>
      <trkpt lat="39.24877982060707" lon="-5.678243914494171"><ele>2213</ele><speed>9.67</speed><time>2016-07-09T15:30:57Z</time><pdop>6.0</pdop><geoidheight>50.80</geoidheight><course>81.02228</course><type>1</type></trkpt>
      <trkpt lat="39.24880106985521" lon="-5.678014293235159"><ele>2212</ele><speed>11.11</speed><time>2016-07-09T15:30:59Z</time><pdop>6.0</pdop><geoidheight>50.80</geoidheight><course>83.11671</course><type>1</type></trkpt>
      <trkpt lat="39.2488079546198" lon="-5.677757105338405"><ele>2210</ele><speed>10.55</speed><time>2016-07-09T15:31:01Z</time><pdop>6.0</pdop><geoidheight>50.80</geoidheight><course>88.26911</course><type>1</type></trkpt>
      <trkpt lat="39.24880191267829" lon="-5.677528393242087"><ele>2209</ele><speed>8.80</speed><time>2016-07-09T15:31:03Z</time><pdop>6.0</pdop><geoidheight>50.80</geoidheight><course>90.50848</course><type>1</type></trkpt>
      <trkpt lat="39.248800281586824" lon="-5.677323325408415"><ele>2209</ele><speed>8.95</speed><time>2016-07-09T15:31:05Z</time><pdop>6.0</pdop><geoidheight>50.80</geoidheight><course>89.1899</course><type>1</type></trkpt>
      <trkpt lat="39.24880016396186" lon="-5.67709457421021"><ele>2208</ele><speed>11.05</speed><time>2016-07-09T15:31:07Z</time><pdop>6.0</pdop><geoidheight>50.80</geoidheight><course>90.02421</course><type>1</type></trkpt>
      <trkpt lat="39.248798560921394" lon="-5.676847020490089"><ele>2207</ele><speed>10.03</speed><time>2016-07-09T15:31:09Z</time><pdop>6.0</pdop><geoidheight>50.80</geoidheight><course>90.90495</course><type>1</type></trkpt>
      <trkpt lat="39.248793010771095" lon="-5.676632227437361"><ele>2206</ele><speed>8.57</speed><time>2016-07-09T15:31:11Z</time><pdop>6.0</pdop><geoidheight>50.80</geoidheight><course>90.97821</course><type>1</type></trkpt>
      <trkpt lat="39.248793487834284" lon="-5.676421259545479"><ele>2204</ele><speed>10.25</speed><time>2016-07-09T15:31:13Z</time><pdop>6.0</pdop><geoidheight>50.80</geoidheight><course>89.129265</course><type>1</type></trkpt>
      <trkpt lat="39.24879995685673" lon="-5.6761838470380495"><ele>2202</ele><speed>10.15</speed><time>2016-07-09T15:31:15Z</time><pdop>6.0</pdop><geoidheight>50.80</geoidheight><course>87.79321</course><type>1</type></trkpt>
      <trkpt lat="39.248808406075426" lon="-5.675965207819419"><ele>2200</ele><speed>9.07</speed><time>2016-07-09T15:31:17Z</time><pdop>6.0</pdop><geoidheight>50.80</geoidheight><course>88.642265</course><type>1</type></trkpt>
      <trkpt lat="39.24880762590736" lon="-5.675747645943036"><ele>2199</ele><speed>10.15</speed><time>2016-07-09T15:31:19Z</time><pdop>6.0</pdop><geoidheight>50.80</geoidheight><course>90.12494</course><type>1</type></trkpt>
      <trkpt lat="39.248807271460834" lon="-5.675512312455162"><ele>2196</ele><speed>10.52</speed><time>2016-07-09T15:31:21Z</time><pdop>6.0</pdop><geoidheight>50.80</geoidheight><course>88.73315</course><type>1</type></trkpt>
      <trkpt lat="39.24880527475495" lon="-5.675290605814282"><ele>2195</ele><speed>9.07</speed><time>2016-07-09T15:31:23Z</time><pdop>6.0</pdop><geoidheight>50.80</geoidheight><course>91.81016</course><type>1</type></trkpt>
      <trkpt lat="39.248785275277655" lon="-5.675077409789123"><ele>2193</ele><speed>9.71</speed><time>2016-07-09T15:31:25Z</time><pdop>6.0</pdop><geoidheight>50.80</geoidheight><course>97.042984</course><type>1</type></trkpt>
      <trkpt lat="39.248749065680606" lon="-5.674856376500499"><ele>2192</ele><speed>9.36</speed><time>2016-07-09T15:31:27Z</time><pdop>6.0</pdop><geoidheight>50.80</geoidheight><course>100.68161</course><type>1</type></trkpt>
      <trkpt lat="39.248716717417366" lon="-5.674670966252682"><ele>2191</ele><speed>7.60</speed><time>2016-07-09T15:31:29Z</time><pdop>6.0</pdop><geoidheight>50.80</geoidheight><course>101.72323</course><type>1</type></trkpt>
      <trkpt lat="39.24866948895835" lon="-5.6744684757928665"><ele>2190</ele><speed>10.47</speed><time>2016-07-09T15:31:31Z</time><pdop>6.0</pdop><geoidheight>50.80</geoidheight><course>105.68926</course><type>1</type></trkpt>
      <trkpt lat="39.248619104965734" lon="-5.674245301225294"><ele>2188</ele><speed>11.86</speed><time>2016-07-09T15:31:33Z</time><pdop>6.0</pdop><geoidheight>50.80</geoidheight><course>103.43573</course><type>1</type></trkpt>
      <trkpt lat="39.24857697131088" lon="-5.674002242687801"><ele>2187</ele><speed>10.82</speed><time>2016-07-09T15:31:35Z</time><pdop>6.0</pdop><geoidheight>50.80</geoidheight><course>101.90557</course><type>1</type></trkpt>
      <trkpt lat="39.24853795612792" lon="-5.6737591120203374"><ele>2185</ele><speed>11.27</speed><time>2016-07-09T15:31:37Z</time><pdop>6.0</pdop><geoidheight>50.80</geoidheight><course>100.88125</course><type>1</type></trkpt>
      <trkpt lat="39.24850487532037" lon="-5.673504500694897"><ele>2183</ele><speed>11.67</speed><time>2016-07-09T15:31:38Z</time><pdop>6.0</pdop><geoidheight>50.80</geoidheight><course>99.13839</course><type>1</type></trkpt>
      <trkpt lat="39.24846895128961" lon="-5.6732317157066205"><ele>2179</ele><speed>11.54</speed><time>2016-07-09T15:31:41Z</time><pdop>6.0</pdop><geoidheight>50.80</geoidheight><course>100.78158</course><type>1</type></trkpt>
      <trkpt lat="39.24845054343144" lon="-5.673093428253553"><ele>2178</ele><speed>11.78</speed><time>2016-07-09T15:31:42Z</time><pdop>6.0</pdop><geoidheight>50.80</geoidheight><course>100.97675</course><type>1</type></trkpt>
      <trkpt lat="39.248417053676995" lon="-5.672819093273346"><ele>2175</ele><speed>12.30</speed><time>2016-07-09T15:31:44Z</time><pdop>6.0</pdop><geoidheight>50.80</geoidheight><course>99.627205</course><type>1</type></trkpt>
      <trkpt lat="39.24838475897924" lon="-5.672544418823479"><ele>2172</ele><speed>12.27</speed><time>2016-07-09T15:31:46Z</time><pdop>6.0</pdop><geoidheight>50.80</geoidheight><course>99.59468</course><type>1</type></trkpt>
      <trkpt lat="39.24836675960951" lon="-5.67240224557659"><ele>2171</ele><speed>11.84</speed><time>2016-07-09T15:31:47Z</time><pdop>6.0</pdop><geoidheight>50.80</geoidheight><course>100.38295</course><type>1</type></trkpt>
      <trkpt lat="39.24832093178786" lon="-5.6721365593053035"><ele>2167</ele><speed>11.78</speed><time>2016-07-09T15:31:49Z</time><pdop>6.0</pdop><geoidheight>50.80</geoidheight><course>102.48425</course><type>1</type></trkpt>
      <trkpt lat="39.24826661431983" lon="-5.671878522038117"><ele>2164</ele><speed>11.85</speed><time>2016-07-09T15:31:50Z</time><pdop>6.0</pdop><geoidheight>50.80</geoidheight><course>104.52715</course><type>1</type></trkpt>
      <trkpt lat="39.24822014594298" lon="-5.671626259141814"><ele>2161</ele><speed>11.27</speed><time>2016-07-09T15:31:53Z</time><pdop>6.0</pdop><geoidheight>50.80</geoidheight><course>101.02117</course><type>1</type></trkpt>
      <trkpt lat="39.24819076698717" lon="-5.67138249690242"><ele>2158</ele><speed>11.62</speed><time>2016-07-09T15:31:54Z</time><pdop>6.0</pdop><geoidheight>50.80</geoidheight><course>97.73883</course><type>1</type></trkpt>
      <trkpt lat="39.24815905468204" lon="-5.671107914090429"><ele>2156</ele><speed>11.37</speed><time>2016-07-09T15:31:57Z</time><pdop>6.0</pdop><geoidheight>50.80</geoidheight><course>98.49369</course><type>1</type></trkpt>
      <trkpt lat="39.24812510684572" lon="-5.670858540561586"><ele>2154</ele><speed>10.84</speed><time>2016-07-09T15:31:59Z</time><pdop>6.0</pdop><geoidheight>50.80</geoidheight><course>99.08205</course><type>1</type></trkpt>
      <trkpt lat="39.24810845866364" lon="-5.67073620727501"><ele>2153</ele><speed>11.20</speed><time>2016-07-09T15:32:00Z</time><pdop>4.0</pdop><geoidheight>50.80</geoidheight><course>99.68776</course><type>1</type></trkpt>
      <trkpt lat="39.24809158125881" lon="-5.670609647530993"><ele>2152</ele><speed>11.52</speed><time>2016-07-09T15:32:01Z</time><pdop>4.0</pdop><geoidheight>50.80</geoidheight><course>100.142525</course><type>1</type></trkpt>
      <trkpt lat="39.24807150486335" lon="-5.670478115402794"><ele>2151</ele><speed>11.44</speed><time>2016-07-09T15:32:02Z</time><pdop>4.0</pdop><geoidheight>50.80</geoidheight><course>100.48397</course><type>1</type></trkpt>
      <trkpt lat="39.24805115435579" lon="-5.670345064125636"><ele>2150</ele><speed>12.00</speed><time>2016-07-09T15:32:03Z</time><pdop>4.0</pdop><geoidheight>50.80</geoidheight><course>101.33038</course><type>1</type></trkpt>
      <trkpt lat="39.24802817316291" lon="-5.67021437703721"><ele>2149</ele><speed>11.48</speed><time>2016-07-09T15:32:04Z</time><pdop>6.0</pdop><geoidheight>50.80</geoidheight><course>102.25143</course><type>1</type></trkpt>
      <trkpt lat="39.24798287314518" lon="-5.669976474337648"><ele>2150</ele><speed>8.91</speed><time>2016-07-09T15:32:06Z</time><pdop>6.0</pdop><geoidheight>50.80</geoidheight><course>104.402916</course><type>1</type></trkpt>
      <trkpt lat="39.247936983246085" lon="-5.669765792150172"><ele>2152</ele><speed>8.59</speed><time>2016-07-09T15:32:08Z</time><pdop>6.0</pdop><geoidheight>50.80</geoidheight><course>106.84552</course><type>1</type></trkpt>
      <trkpt lat="39.24788244519763" lon="-5.669556037319847"><ele>2155</ele><speed>8.72</speed><time>2016-07-09T15:32:10Z</time><pdop>6.0</pdop><geoidheight>50.80</geoidheight><course>109.98614</course><type>1</type></trkpt>
      <trkpt lat="39.24782325086223" lon="-5.669341020106555"><ele>2158</ele><speed>9.44</speed><time>2016-07-09T15:32:12Z</time><pdop>6.0</pdop><geoidheight>50.80</geoidheight><course>110.38585</course><type>1</type></trkpt>
      <trkpt lat="39.24777194908768" lon="-5.669108061281595"><ele>2160</ele><speed>11.36</speed><time>2016-07-09T15:32:14Z</time><pdop>6.0</pdop><geoidheight>50.80</geoidheight><course>105.776405</course><type>1</type></trkpt>
      <trkpt lat="39.2477285112942" lon="-5.668848350151297"><ele>2160</ele><speed>12.51</speed><time>2016-07-09T15:32:16Z</time><pdop>6.0</pdop><geoidheight>50.80</geoidheight><course>103.45392</course><type>1</type></trkpt>
      <trkpt lat="39.2476890895132" lon="-5.668591388228728"><ele>2161</ele><speed>9.48</speed><time>2016-07-09T15:32:18Z</time><pdop>6.0</pdop><geoidheight>50.80</geoidheight><course>100.91484</course><type>1</type></trkpt>
      <trkpt lat="39.247676338417875" lon="-5.668375279651334"><ele>2162</ele><speed>9.33</speed><time>2016-07-09T15:32:19Z</time><pdop>6.0</pdop><geoidheight>50.80</geoidheight><course>95.0065</course><type>1</type></trkpt>
      <trkpt lat="39.24766601695353" lon="-5.6681491763267715"><ele>2164</ele><speed>12.63</speed><time>2016-07-09T15:32:22Z</time><pdop>6.0</pdop><geoidheight>50.80</geoidheight><course>96.27064</course><type>1</type></trkpt>
      <trkpt lat="39.247632449261964" lon="-5.667890169071687"><ele>2163</ele><speed>11.57</speed><time>2016-07-09T15:32:24Z</time><pdop>6.0</pdop><geoidheight>50.80</geoidheight><course>99.60028</course><type>1</type></trkpt>
      <trkpt lat="39.24760076702835" lon="-5.667650177633698"><ele>2162</ele><speed>9.11</speed><time>2016-07-09T15:32:26Z</time><pdop>6.0</pdop><geoidheight>50.80</geoidheight><course>97.00939</course><type>1</type></trkpt>
      <trkpt lat="39.24758350373159" lon="-5.667411048036096"><ele>2162</ele><speed>9.34</speed><time>2016-07-09T15:32:28Z</time><pdop>6.0</pdop><geoidheight>50.80</geoidheight><course>94.48826</course><type>1</type></trkpt>
      <trkpt lat="39.24756964248421" lon="-5.66716354125774"><ele>2163</ele><speed>11.37</speed><time>2016-07-09T15:32:30Z</time><pdop>6.0</pdop><geoidheight>50.80</geoidheight><course>95.857025</course><type>1</type></trkpt>
      <trkpt lat="39.247553619977666" lon="-5.666892613397251"><ele>2164</ele><speed>11.53</speed><time>2016-07-09T15:32:32Z</time><pdop>6.0</pdop><geoidheight>50.80</geoidheight><course>94.735</course><type>1</type></trkpt>
      <trkpt lat="39.24754506122835" lon="-5.666753472996359"><ele>2165</ele><speed>11.73</speed><time>2016-07-09T15:32:33Z</time><pdop>6.0</pdop><geoidheight>50.80</geoidheight><course>94.16089</course><type>1</type></trkpt>
      <trkpt lat="39.24753709609339" lon="-5.666485110986986"><ele>2167</ele><speed>11.84</speed><time>2016-07-09T15:32:35Z</time><pdop>6.0</pdop><geoidheight>50.80</geoidheight><course>93.68392</course><type>1</type></trkpt>
      <trkpt lat="39.247530711054594" lon="-5.666344976457378"><ele>2167</ele><speed>11.41</speed><time>2016-07-09T15:32:36Z</time><pdop>6.0</pdop><geoidheight>50.80</geoidheight><course>93.17764</course><type>1</type></trkpt>
      <trkpt lat="39.24752071295234" lon="-5.666077672403466"><ele>2169</ele><speed>11.17</speed><time>2016-07-09T15:32:38Z</time><pdop>6.0</pdop><geoidheight>50.80</geoidheight><course>92.784195</course><type>1</type></trkpt>
      <trkpt lat="39.24751651469513" lon="-5.665797712671694"><ele>2172</ele><speed>11.94</speed><time>2016-07-09T15:32:40Z</time><pdop>6.0</pdop><geoidheight>50.80</geoidheight><course>92.07915</course><type>1</type></trkpt>
      <trkpt lat="39.24751643479316" lon="-5.665519152286598"><ele>2175</ele><speed>10.98</speed><time>2016-07-09T15:32:42Z</time><pdop>6.0</pdop><geoidheight>50.80</geoidheight><course>90.54668</course><type>1</type></trkpt>
      <trkpt lat="39.247515076090615" lon="-5.665372675424462"><ele>2176</ele><speed>11.22</speed><time>2016-07-09T15:32:43Z</time><pdop>6.0</pdop><geoidheight>50.80</geoidheight><course>89.91554</course><type>1</type></trkpt>
      <trkpt lat="39.24751985411314" lon="-5.665121885336701"><ele>2179</ele><speed>9.85</speed><time>2016-07-09T15:32:45Z</time><pdop>6.0</pdop><geoidheight>50.80</geoidheight><course>90.403244</course><type>1</type></trkpt>
      <trkpt lat="39.24751549746656" lon="-5.664873543360811"><ele>2183</ele><speed>9.16</speed><time>2016-07-09T15:32:47Z</time><pdop>6.0</pdop><geoidheight>50.80</geoidheight><course>92.859375</course><type>1</type></trkpt>
      <trkpt lat="39.247508171815745" lon="-5.664617965962068"><ele>2186</ele><speed>11.54</speed><time>2016-07-09T15:32:49Z</time><pdop>6.0</pdop><geoidheight>50.80</geoidheight><course>93.61179</course><type>1</type></trkpt>
      <trkpt lat="39.24750037748812" lon="-5.6643509947876955"><ele>2189</ele><speed>12.32</speed><time>2016-07-09T15:32:51Z</time><pdop>6.0</pdop><geoidheight>50.80</geoidheight><course>93.05008</course><type>1</type></trkpt>
      <trkpt lat="39.247505185038314" lon="-5.664114175733341"><ele>2191</ele><speed>8.85</speed><time>2016-07-09T15:32:53Z</time><pdop>6.0</pdop><geoidheight>50.80</geoidheight><course>88.16245</course><type>1</type></trkpt>
      <trkpt lat="39.247524448750106" lon="-5.663894653327346"><ele>2194</ele><speed>9.21</speed><time>2016-07-09T15:32:55Z</time><pdop>6.0</pdop><geoidheight>50.80</geoidheight><course>86.05516</course><type>1</type></trkpt>
      <trkpt lat="39.2475239865142" lon="-5.6636375483004935"><ele>2196</ele><speed>11.96</speed><time>2016-07-09T15:32:57Z</time><pdop>6.0</pdop><geoidheight>50.80</geoidheight><course>92.56208</course><type>1</type></trkpt>
      <trkpt lat="39.24751240006862" lon="-5.663492904243156"><ele>2197</ele><speed>12.02</speed><time>2016-07-09T15:32:58Z</time><pdop>6.0</pdop><geoidheight>50.80</geoidheight><course>94.709694</course><type>1</type></trkpt>
      <trkpt lat="39.24749427575283" lon="-5.663268771909257"><ele>2199</ele><speed>9.82</speed><time>2016-07-09T15:33:00Z</time><pdop>6.0</pdop><geoidheight>50.80</geoidheight><course>93.463394</course><type>1</type></trkpt>
      <trkpt lat="39.247481705099595" lon="-5.663032586745222"><ele>2201</ele><speed>11.13</speed><time>2016-07-09T15:33:02Z</time><pdop>6.0</pdop><geoidheight>50.80</geoidheight><course>94.07682</course><type>1</type></trkpt>
      <trkpt lat="39.24745867918315" lon="-5.662756361118709"><ele>2202</ele><speed>12.15</speed><time>2016-07-09T15:33:04Z</time><pdop>6.0</pdop><geoidheight>50.80</geoidheight><course>95.14987</course><type>1</type></trkpt>
      <trkpt lat="39.2474396389079" lon="-5.662487666409485"><ele>2204</ele><speed>10.71</speed><time>2016-07-09T15:33:06Z</time><pdop>6.0</pdop><geoidheight>50.80</geoidheight><course>94.26019</course><type>1</type></trkpt>
      <trkpt lat="39.247415021863745" lon="-5.662235457208915"><ele>2206</ele><speed>9.70</speed><time>2016-07-09T15:33:08Z</time><pdop>6.0</pdop><geoidheight>50.80</geoidheight><course>98.58448</course><type>1</type></trkpt>
      <trkpt lat="39.24734221292344" lon="-5.661994194311813"><ele>2208</ele><speed>11.20</speed><time>2016-07-09T15:33:10Z</time><pdop>6.0</pdop><geoidheight>50.80</geoidheight><course>113.24737</course><type>1</type></trkpt>
      <trkpt lat="39.24726155708564" lon="-5.661746676983339"><ele>2210</ele><speed>10.99</speed><time>2016-07-09T15:33:11Z</time><pdop>6.0</pdop><geoidheight>50.80</geoidheight><course>112.707405</course><type>1</type></trkpt>
      <trkpt lat="39.24718622029121" lon="-5.661521893684728"><ele>2212</ele><speed>10.82</speed><time>2016-07-09T15:33:14Z</time><pdop>6.0</pdop><geoidheight>50.80</geoidheight><course>114.33247</course><type>1</type></trkpt>
      <trkpt lat="39.247096485230536" lon="-5.661286567942457"><ele>2214</ele><speed>10.87</speed><time>2016-07-09T15:33:15Z</time><pdop>6.0</pdop><geoidheight>50.80</geoidheight><course>114.882454</course><type>1</type></trkpt>
      <trkpt lat="39.24700500479138" lon="-5.661051010867433"><ele>2215</ele><speed>11.19</speed><time>2016-07-09T15:33:18Z</time><pdop>6.0</pdop><geoidheight>50.80</geoidheight><course>117.157616</course><type>1</type></trkpt>
      <trkpt lat="39.24690027407052" lon="-5.660849793633231"><ele>2216</ele><speed>10.00</speed><time>2016-07-09T15:33:20Z</time><pdop>6.0</pdop><geoidheight>50.80</geoidheight><course>124.13915</course><type>1</type></trkpt>
      <trkpt lat="39.24678324622233" lon="-5.660693884429081"><ele>2218</ele><speed>8.14</speed><time>2016-07-09T15:33:22Z</time><pdop>6.0</pdop><geoidheight>50.80</geoidheight><course>130.66187</course><type>1</type></trkpt>
      <trkpt lat="39.2466418372542" lon="-5.660589665526327"><ele>2219</ele><speed>8.33</speed><time>2016-07-09T15:33:24Z</time><pdop>6.0</pdop><geoidheight>50.80</geoidheight><course>150.06096</course><type>1</type></trkpt>
      <trkpt lat="39.24649008547376" lon="-5.6605526508706925"><ele>2219</ele><speed>8.73</speed><time>2016-07-09T15:33:26Z</time><pdop>4.0</pdop><geoidheight>50.80</geoidheight><course>167.75752</course><type>1</type></trkpt>
      <trkpt lat="39.24641145910334" lon="-5.660538791393243"><ele>2220</ele><speed>8.09</speed><time>2016-07-09T15:33:27Z</time><pdop>4.0</pdop><geoidheight>50.80</geoidheight><course>171.56615</course><type>1</type></trkpt>
      <trkpt lat="39.24627171626255" lon="-5.660579560593466"><ele>2220</ele><speed>6.66</speed><time>2016-07-09T15:33:29Z</time><pdop>6.0</pdop><geoidheight>50.80</geoidheight><course>201.86276</course><type>1</type></trkpt>
      <trkpt lat="39.24617215267762" lon="-5.660694411256699"><ele>2220</ele><speed>6.64</speed><time>2016-07-09T15:33:31Z</time><pdop>6.0</pdop><geoidheight>50.80</geoidheight><course>203.60783</course><type>1</type></trkpt>
      <trkpt lat="39.24616769759399" lon="-5.66094983559274"><ele>2220</ele><speed>8.62</speed><time>2016-07-09T15:33:32Z</time><pdop>6.0</pdop><geoidheight>50.80</geoidheight><course>281.4273</course><type>1</type></trkpt>
      <trkpt lat="39.246234582635026" lon="-5.661120836078143"><ele>2220</ele><speed>7.47</speed><time>2016-07-09T15:33:35Z</time><pdop>6.0</pdop><geoidheight>50.80</geoidheight><course>302.20892</course><type>1</type></trkpt>
      <trkpt lat="39.24633905048688" lon="-5.661241652305727"><ele>2220</ele><speed>8.80</speed><time>2016-07-09T15:33:37Z</time><pdop>6.0</pdop><geoidheight>50.80</geoidheight><course>318.7913</course><type>1</type></trkpt>
      <trkpt lat="39.24649700943022" lon="-5.661321332299655"><ele>2220</ele><speed>9.90</speed><time>2016-07-09T15:33:39Z</time><pdop>6.0</pdop><geoidheight>50.80</geoidheight><course>347.1719</course><type>1</type></trkpt>
      <trkpt lat="39.2466744921567" lon="-5.661296059226496"><ele>2220</ele><speed>10.25</speed><time>2016-07-09T15:33:41Z</time><pdop>6.0</pdop><geoidheight>50.80</geoidheight><course>15.688897</course><type>1</type></trkpt>
      <trkpt lat="39.246846766385964" lon="-5.661191501948509"><ele>2221</ele><speed>10.46</speed><time>2016-07-09T15:33:43Z</time><pdop>6.0</pdop><geoidheight>50.80</geoidheight><course>33.834377</course><type>1</type></trkpt>
      <trkpt lat="39.2470094887976" lon="-5.661047899920786"><ele>2223</ele><speed>10.20</speed><time>2016-07-09T15:33:45Z</time><pdop>6.0</pdop><geoidheight>50.80</geoidheight><course>36.126728</course><type>1</type></trkpt>
      <trkpt lat="39.24716733503259" lon="-5.660883426045418"><ele>2226</ele><speed>11.31</speed><time>2016-07-09T15:33:47Z</time><pdop>6.0</pdop><geoidheight>50.80</geoidheight><course>41.907112</course><type>1</type></trkpt>
      <trkpt lat="39.24723650046156" lon="-5.660760173975008"><ele>2227</ele><speed>12.80</speed><time>2016-07-09T15:33:48Z</time><pdop>6.0</pdop><geoidheight>50.80</geoidheight><course>56.051193</course><type>1</type></trkpt>
      <trkpt lat="39.24729484141159" lon="-5.660640033420892"><ele>2228</ele><speed>12.68</speed><time>2016-07-09T15:33:49Z</time><pdop>6.0</pdop><geoidheight>50.80</geoidheight><course>58.346676</course><type>1</type></trkpt>
      <trkpt lat="39.247351770521014" lon="-5.660512200261701"><ele>2229</ele><speed>12.42</speed><time>2016-07-09T15:33:50Z</time><pdop>6.0</pdop><geoidheight>50.80</geoidheight><course>61.196915</course><type>1</type></trkpt>
      <trkpt lat="39.24740118280703" lon="-5.660380579350736"><ele>2229</ele><speed>11.54</speed><time>2016-07-09T15:33:51Z</time><pdop>6.0</pdop><geoidheight>50.80</geoidheight><course>64.577515</course><type>1</type></trkpt>
      <trkpt lat="39.24742187698236" lon="-5.660247893475242"><ele>2230</ele><speed>11.38</speed><time>2016-07-09T15:33:52Z</time><pdop>4.0</pdop><geoidheight>50.80</geoidheight><course>78.43141</course><type>1</type></trkpt>
      <trkpt lat="39.24743986167792" lon="-5.660109634263278"><ele>2231</ele><speed>12.09</speed><time>2016-07-09T15:33:53Z</time><pdop>4.0</pdop><geoidheight>50.80</geoidheight><course>80.27721</course><type>1</type></trkpt>
      <trkpt lat="39.247451946084595" lon="-5.659967846006122"><ele>2233</ele><speed>12.30</speed><time>2016-07-09T15:33:54Z</time><pdop>4.0</pdop><geoidheight>50.80</geoidheight><course>82.22634</course><type>1</type></trkpt>
      <trkpt lat="39.24746336658513" lon="-5.6598216501982455"><ele>2235</ele><speed>11.95</speed><time>2016-07-09T15:33:55Z</time><pdop>4.0</pdop><geoidheight>50.80</geoidheight><course>83.28542</course><type>1</type></trkpt>
      <trkpt lat="39.247474830358264" lon="-5.659676390490067"><ele>2237</ele><speed>11.89</speed><time>2016-07-09T15:33:56Z</time><pdop>4.0</pdop><geoidheight>50.80</geoidheight><course>84.34956</course><type>1</type></trkpt>
      <trkpt lat="39.24748100234141" lon="-5.659528615689049"><ele>2239</ele><speed>12.83</speed><time>2016-07-09T15:33:57Z</time><pdop>4.0</pdop><geoidheight>50.80</geoidheight><course>86.176636</course><type>1</type></trkpt>
      <trkpt lat="39.24748354510051" lon="-5.659368155629916"><ele>2240</ele><speed>13.56</speed><time>2016-07-09T15:33:58Z</time><pdop>4.0</pdop><geoidheight>50.80</geoidheight><course>88.2519</course><type>1</type></trkpt>
      <trkpt lat="39.24748025204224" lon="-5.659207491001688"><ele>2242</ele><speed>13.84</speed><time>2016-07-09T15:33:59Z</time><pdop>4.0</pdop><geoidheight>50.80</geoidheight><course>90.496254</course><type>1</type></trkpt>
      <trkpt lat="39.24746930678702" lon="-5.659053466806436"><ele>2243</ele><speed>12.30</speed><time>2016-07-09T15:34:00Z</time><pdop>6.0</pdop><geoidheight>50.80</geoidheight><course>93.42834</course><type>1</type></trkpt>
      <trkpt lat="39.24745339627968" lon="-5.658909336848549"><ele>2245</ele><speed>10.91</speed><time>2016-07-09T15:34:01Z</time><pdop>6.0</pdop><geoidheight>50.80</geoidheight><course>96.20369</course><type>1</type></trkpt>
      <trkpt lat="39.24741395721201" lon="-5.658681335497872"><ele>2249</ele><speed>8.85</speed><time>2016-07-09T15:34:03Z</time><pdop>6.0</pdop><geoidheight>50.80</geoidheight><course>101.27771</course><type>1</type></trkpt>
      <trkpt lat="39.247368001675795" lon="-5.658424109699489"><ele>2252</ele><speed>11.98</speed><time>2016-07-09T15:34:05Z</time><pdop>6.0</pdop><geoidheight>50.80</geoidheight><course>101.36282</course><type>1</type></trkpt>
      <trkpt lat="39.247321920749485" lon="-5.658142773865322"><ele>2253</ele><speed>15.34</speed><time>2016-07-09T15:34:07Z</time><pdop>6.0</pdop><geoidheight>50.80</geoidheight><course>99.71497</course><type>1</type></trkpt>
      <trkpt lat="39.24729814860379" lon="-5.657987554839914"><ele>2253</ele><speed>13.47</speed><time>2016-07-09T15:34:08Z</time><pdop>6.0</pdop><geoidheight>50.80</geoidheight><course>98.7226</course><type>1</type></trkpt>
      <trkpt lat="39.24727850063672" lon="-5.65782582408408"><ele>2252</ele><speed>12.23</speed><time>2016-07-09T15:34:09Z</time><pdop>6.0</pdop><geoidheight>50.80</geoidheight><course>97.333664</course><type>1</type></trkpt>
      <trkpt lat="39.24725782753068" lon="-5.657569878932078"><ele>2254</ele><speed>10.10</speed><time>2016-07-09T15:34:11Z</time><pdop>6.0</pdop><geoidheight>50.80</geoidheight><course>95.06174</course><type>1</type></trkpt>
      <trkpt lat="39.24724236769532" lon="-5.657333246977872"><ele>2257</ele><speed>10.72</speed><time>2016-07-09T15:34:13Z</time><pdop>6.0</pdop><geoidheight>50.80</geoidheight><course>95.43096</course><type>1</type></trkpt>
      <trkpt lat="39.247238785621" lon="-5.657086829899734"><ele>2258</ele><speed>11.34</speed><time>2016-07-09T15:34:15Z</time><pdop>6.0</pdop><geoidheight>50.80</geoidheight><course>91.7466</course><type>1</type></trkpt>
      <trkpt lat="39.24724775901193" lon="-5.6568129420528495"><ele>2260</ele><speed>11.83</speed><time>2016-07-09T15:34:17Z</time><pdop>6.0</pdop><geoidheight>50.80</geoidheight><course>90.68351</course><type>1</type></trkpt>
      <trkpt lat="39.24722152720341" lon="-5.656574136644326"><ele>2262</ele><speed>10.31</speed><time>2016-07-09T15:34:19Z</time><pdop>6.0</pdop><geoidheight>50.80</geoidheight><course>107.39465</course><type>1</type></trkpt>
      <trkpt lat="39.2471600803074" lon="-5.656336653318213"><ele>2264</ele><speed>10.19</speed><time>2016-07-09T15:34:21Z</time><pdop>6.0</pdop><geoidheight>50.80</geoidheight><course>111.24475</course><type>1</type></trkpt>
      <trkpt lat="39.24708344987137" lon="-5.65610567898554"><ele>2267</ele><speed>10.36</speed><time>2016-07-09T15:34:23Z</time><pdop>6.0</pdop><geoidheight>50.80</geoidheight><course>115.148094</course><type>1</type></trkpt>
      <trkpt lat="39.246970551782695" lon="-5.655890600882283"><ele>2270</ele><speed>11.86</speed><time>2016-07-09T15:34:25Z</time><pdop>6.0</pdop><geoidheight>50.80</geoidheight><course>131.57782</course><type>1</type></trkpt>
      <trkpt lat="39.24683671719998" lon="-5.655701596689658"><ele>2271</ele><speed>12.00</speed><time>2016-07-09T15:34:27Z</time><pdop>6.0</pdop><geoidheight>50.80</geoidheight><course>131.09824</course><type>1</type></trkpt>
      <trkpt lat="39.24668860239827" lon="-5.655504539906438"><ele>2272</ele><speed>11.68</speed><time>2016-07-09T15:34:28Z</time><pdop>6.0</pdop><geoidheight>50.80</geoidheight><course>135.23863</course><type>1</type></trkpt>
      <trkpt lat="39.24649625234765" lon="-5.6553647161413165"><ele>2271</ele><speed>11.55</speed><time>2016-07-09T15:34:31Z</time><pdop>8.0</pdop><geoidheight>50.80</geoidheight><course>151.31886</course><type>1</type></trkpt>
      <trkpt lat="39.24629796169873" lon="-5.655259365675245"><ele>2270</ele><speed>10.56</speed><time>2016-07-09T15:34:32Z</time><pdop>6.0</pdop><geoidheight>50.80</geoidheight><course>157.65176</course><type>1</type></trkpt>
      <trkpt lat="39.24610608847711" lon="-5.655193605758107"><ele>2268</ele><speed>10.83</speed><time>2016-07-09T15:34:35Z</time><pdop>6.0</pdop><geoidheight>50.80</geoidheight><course>163.92781</course><type>1</type></trkpt>
      <trkpt lat="39.2459153018516" lon="-5.655147253253859"><ele>2266</ele><speed>11.14</speed><time>2016-07-09T15:34:37Z</time><pdop>6.0</pdop><geoidheight>50.80</geoidheight><course>165.77069</course><type>1</type></trkpt>
      <trkpt lat="39.24573469853763" lon="-5.6550991742172"><ele>2265</ele><speed>10.69</speed><time>2016-07-09T15:34:39Z</time><pdop>6.0</pdop><geoidheight>50.80</geoidheight><course>162.17006</course><type>1</type></trkpt>
      <trkpt lat="39.24553729769652" lon="-5.65501516507581"><ele>2264</ele><speed>11.68</speed><time>2016-07-09T15:34:41Z</time><pdop>6.0</pdop><geoidheight>50.80</geoidheight><course>159.04362</course><type>1</type></trkpt>
      <trkpt lat="39.24543029170639" lon="-5.654975343714846"><ele>2262</ele><speed>12.35</speed><time>2016-07-09T15:34:42Z</time><pdop>6.0</pdop><geoidheight>50.80</geoidheight><course>162.07451</course><type>1</type></trkpt>
      <trkpt lat="39.245319452077695" lon="-5.654971073694704"><ele>2261</ele><speed>12.15</speed><time>2016-07-09T15:34:43Z</time><pdop>6.0</pdop><geoidheight>50.80</geoidheight><course>179.37775</course><type>1</type></trkpt>
      <trkpt lat="39.245208138715384" lon="-5.654970681030222"><ele>2261</ele><speed>11.32</speed><time>2016-07-09T15:34:44Z</time><pdop>6.0</pdop><geoidheight>50.80</geoidheight><course>181.60298</course><type>1</type></trkpt>
      <trkpt lat="39.24502858763149" lon="-5.655014830695885"><ele>2261</ele><speed>8.93</speed><time>2016-07-09T15:34:46Z</time><pdop>4.0</pdop><geoidheight>50.80</geoidheight><course>197.27626</course><type>1</type></trkpt>
      <trkpt lat="39.24489113350772" lon="-5.655127967921606"><ele>2263</ele><speed>7.36</speed><time>2016-07-09T15:34:48Z</time><pdop>6.0</pdop><geoidheight>50.80</geoidheight><course>227.16933</course><type>1</type></trkpt>
      <trkpt lat="39.24485317698259" lon="-5.655314328425488"><ele>2263</ele><speed>5.70</speed><time>2016-07-09T15:34:51Z</time><pdop>6.0</pdop><geoidheight>50.80</geoidheight><course>270.8525</course><type>1</type></trkpt>
      <trkpt lat="39.244856452761766" lon="-5.65546728136561"><ele>2262</ele><speed>6.61</speed><time>2016-07-09T15:34:53Z</time><pdop>6.0</pdop><geoidheight>50.80</geoidheight><course>274.1127</course><type>1</type></trkpt>
      <trkpt lat="39.24487254300108" lon="-5.655599881322943"><ele>2261</ele><speed>6.61</speed><time>2016-07-09T15:34:55Z</time><pdop>4.0</pdop><geoidheight>50.80</geoidheight><course>278.22256</course><type>1</type></trkpt>
      <trkpt lat="39.2449192168462" lon="-5.655735351878078"><ele>2261</ele><speed>6.42</speed><time>2016-07-09T15:34:56Z</time><pdop>4.0</pdop><geoidheight>50.80</geoidheight><course>290.25488</course><type>1</type></trkpt>
      <trkpt lat="39.24496347821202" lon="-5.655888871804806"><ele>2260</ele><speed>7.11</speed><time>2016-07-09T15:34:59Z</time><pdop>6.0</pdop><geoidheight>50.80</geoidheight><course>290.40417</course><type>1</type></trkpt>
      <trkpt lat="39.245017926969595" lon="-5.656068771268679"><ele>2260</ele><speed>8.92</speed><time>2016-07-09T15:35:01Z</time><pdop>6.0</pdop><geoidheight>50.80</geoidheight><course>292.30054</course><type>1</type></trkpt>
      <trkpt lat="39.245081580194594" lon="-5.656222492037921"><ele>2259</ele><speed>7.27</speed><time>2016-07-09T15:35:02Z</time><pdop>6.0</pdop><geoidheight>50.80</geoidheight><course>295.91382</course><type>1</type></trkpt>
      <trkpt lat="39.245174000284386" lon="-5.656343181693622"><ele>2259</ele><speed>7.08</speed><time>2016-07-09T15:35:05Z</time><pdop>6.0</pdop><geoidheight>50.80</geoidheight><course>313.25613</course><type>1</type></trkpt>
      <trkpt lat="39.24528198946663" lon="-5.6564635920612405"><ele>2261</ele><speed>8.20</speed><time>2016-07-09T15:35:07Z</time><pdop>6.0</pdop><geoidheight>50.80</geoidheight><course>314.6087</course><type>1</type></trkpt>
      <trkpt lat="39.24539234854426" lon="-5.6566180803056865"><ele>2261</ele><speed>8.80</speed><time>2016-07-09T15:35:09Z</time><pdop>6.0</pdop><geoidheight>50.80</geoidheight><course>310.64307</course><type>1</type></trkpt>
      <trkpt lat="39.24548821795419" lon="-5.656755665468126"><ele>2261</ele><speed>7.38</speed><time>2016-07-09T15:35:11Z</time><pdop>4.0</pdop><geoidheight>50.80</geoidheight><course>311.1783</course><type>1</type></trkpt>
      <trkpt lat="39.24557120626584" lon="-5.656878491889634"><ele>2261</ele><speed>7.05</speed><time>2016-07-09T15:35:13Z</time><pdop>4.0</pdop><geoidheight>50.80</geoidheight><course>309.82794</course><type>1</type></trkpt>
      <trkpt lat="39.24565864626071" lon="-5.6570109206854395"><ele>2260</ele><speed>9.04</speed><time>2016-07-09T15:35:15Z</time><pdop>4.0</pdop><geoidheight>50.80</geoidheight><course>309.78625</course><type>1</type></trkpt>
      <trkpt lat="39.24570783453939" lon="-5.657084532871772"><ele>2259</ele><speed>8.95</speed><time>2016-07-09T15:35:16Z</time><pdop>4.0</pdop><geoidheight>50.80</geoidheight><course>308.94727</course><type>1</type></trkpt>
      <trkpt lat="39.24575472918255" lon="-5.657158915449012"><ele>2258</ele><speed>8.49</speed><time>2016-07-09T15:35:17Z</time><pdop>4.0</pdop><geoidheight>50.80</geoidheight><course>307.18884</course><type>1</type></trkpt>
      <trkpt lat="39.24584102563376" lon="-5.657305649328661"><ele>2257</ele><speed>8.53</speed><time>2016-07-09T15:35:19Z</time><pdop>4.0</pdop><geoidheight>50.80</geoidheight><course>306.47797</course><type>1</type></trkpt>
      <trkpt lat="39.24589224422455" lon="-5.657386584612312"><ele>2256</ele><speed>8.45</speed><time>2016-07-09T15:35:20Z</time><pdop>4.0</pdop><geoidheight>50.80</geoidheight><course>308.7812</course><type>1</type></trkpt>
      <trkpt lat="39.24594675955228" lon="-5.657464209900209"><ele>2256</ele><speed>8.33</speed><time>2016-07-09T15:35:21Z</time><pdop>4.0</pdop><geoidheight>50.80</geoidheight><course>311.33002</course><type>1</type></trkpt>
      <trkpt lat="39.24600132084847" lon="-5.657537622808768"><ele>2256</ele><speed>8.19</speed><time>2016-07-09T15:35:22Z</time><pdop>4.0</pdop><geoidheight>50.80</geoidheight><course>312.8062</course><type>1</type></trkpt>
      <trkpt lat="39.24605390978124" lon="-5.657608948305886"><ele>2257</ele><speed>8.25</speed><time>2016-07-09T15:35:23Z</time><pdop>4.0</pdop><geoidheight>50.80</geoidheight><course>311.9504</course><type>1</type></trkpt>
      <trkpt lat="39.24610424642926" lon="-5.657681978343818"><ele>2257</ele><speed>8.04</speed><time>2016-07-09T15:35:24Z</time><pdop>4.0</pdop><geoidheight>50.80</geoidheight><course>311.32623</course><type>1</type></trkpt>
      <trkpt lat="39.246195891339454" lon="-5.6578135937095215"><ele>2258</ele><speed>7.01</speed><time>2016-07-09T15:35:26Z</time><pdop>6.0</pdop><geoidheight>50.80</geoidheight><course>313.288</course><type>1</type></trkpt>
      <trkpt lat="39.24628087280757" lon="-5.657933537647379"><ele>2260</ele><speed>6.76</speed><time>2016-07-09T15:35:28Z</time><pdop>8.0</pdop><geoidheight>50.80</geoidheight><course>313.08884</course><type>1</type></trkpt>
      <trkpt lat="39.24636316084754" lon="-5.658048999396271"><ele>2261</ele><speed>7.14</speed><time>2016-07-09T15:35:30Z</time><pdop>4.0</pdop><geoidheight>50.80</geoidheight><course>314.90897</course><type>1</type></trkpt>
      <trkpt lat="39.24645983974634" lon="-5.658176295280669"><ele>2263</ele><speed>7.34</speed><time>2016-07-09T15:35:31Z</time><pdop>4.0</pdop><geoidheight>50.80</geoidheight><course>315.6012</course><type>1</type></trkpt>
      <trkpt lat="39.24655383914958" lon="-5.658315576401231"><ele>2265</ele><speed>7.58</speed><time>2016-07-09T15:35:34Z</time><pdop>4.0</pdop><geoidheight>50.80</geoidheight><course>312.37656</course><type>1</type></trkpt>
      <trkpt lat="39.24660139045879" lon="-5.658386422446042"><ele>2265</ele><speed>7.82</speed><time>2016-07-09T15:35:35Z</time><pdop>4.0</pdop><geoidheight>50.80</geoidheight><course>313.05188</course><type>1</type></trkpt>
      <trkpt lat="39.24665227459497" lon="-5.658454815967127"><ele>2266</ele><speed>8.32</speed><time>2016-07-09T15:35:36Z</time><pdop>4.0</pdop><geoidheight>50.80</geoidheight><course>315.00668</course><type>1</type></trkpt>
      <trkpt lat="39.24675674054749" lon="-5.658577199399693"><ele>2267</ele><speed>8.57</speed><time>2016-07-09T15:35:38Z</time><pdop>4.0</pdop><geoidheight>50.80</geoidheight><course>316.885</course><type>1</type></trkpt>
      <trkpt lat="39.24681004353479" lon="-5.658644652944946"><ele>2267</ele><speed>8.42</speed><time>2016-07-09T15:35:39Z</time><pdop>4.0</pdop><geoidheight>50.80</geoidheight><course>315.41855</course><type>1</type></trkpt>
      <trkpt lat="39.24691036050506" lon="-5.658786105265029"><ele>2268</ele><speed>8.44</speed><time>2016-07-09T15:35:41Z</time><pdop>4.0</pdop><geoidheight>50.80</geoidheight><course>313.86328</course><type>1</type></trkpt>
      <trkpt lat="39.24695882772856" lon="-5.658856215032786"><ele>2269</ele><speed>8.38</speed><time>2016-07-09T15:35:42Z</time><pdop>4.0</pdop><geoidheight>50.80</geoidheight><course>313.37253</course><type>1</type></trkpt>
      <trkpt lat="39.24701002220657" lon="-5.658929380429833"><ele>2270</ele><speed>8.20</speed><time>2016-07-09T15:35:43Z</time><pdop>4.0</pdop><geoidheight>50.80</geoidheight><course>313.83047</course><type>1</type></trkpt>
      <trkpt lat="39.24706146991622" lon="-5.659000638950119"><ele>2271</ele><speed>8.03</speed><time>2016-07-09T15:35:44Z</time><pdop>4.0</pdop><geoidheight>50.80</geoidheight><course>314.77478</course><type>1</type></trkpt>
      <trkpt lat="39.247113646047225" lon="-5.6590658549470785"><ele>2272</ele><speed>8.01</speed><time>2016-07-09T15:35:45Z</time><pdop>4.0</pdop><geoidheight>50.80</geoidheight><course>317.17374</course><type>1</type></trkpt>
      <trkpt lat="39.247168598256735" lon="-5.65912849306644"><ele>2273</ele><speed>8.39</speed><time>2016-07-09T15:35:46Z</time><pdop>4.0</pdop><geoidheight>50.80</geoidheight><course>319.46054</course><type>1</type></trkpt>
      <trkpt lat="39.247227492644875" lon="-5.659193547501374"><ele>2274</ele><speed>8.50</speed><time>2016-07-09T15:35:47Z</time><pdop>4.0</pdop><geoidheight>50.80</geoidheight><course>320.4483</course><type>1</type></trkpt>
      <trkpt lat="39.24728735779482" lon="-5.659259857441948"><ele>2276</ele><speed>8.49</speed><time>2016-07-09T15:35:48Z</time><pdop>4.0</pdop><geoidheight>50.80</geoidheight><course>319.0606</course><type>1</type></trkpt>
      <trkpt lat="39.247345285146416" lon="-5.659328369992515"><ele>2277</ele><speed>8.14</speed><time>2016-07-09T15:35:49Z</time><pdop>4.0</pdop><geoidheight>50.80</geoidheight><course>318.1729</course><type>1</type></trkpt>
      <trkpt lat="39.247401401322385" lon="-5.659392200997733"><ele>2278</ele><speed>7.89</speed><time>2016-07-09T15:35:50Z</time><pdop>4.0</pdop><geoidheight>50.80</geoidheight><course>319.29846</course><type>1</type></trkpt>
      <trkpt lat="39.24752118281771" lon="-5.659511659162812"><ele>2281</ele><speed>8.88</speed><time>2016-07-09T15:35:52Z</time><pdop>6.0</pdop><geoidheight>50.80</geoidheight><course>322.94687</course><type>1</type></trkpt>
      <trkpt lat="39.247656230221374" lon="-5.659641211064755"><ele>2284</ele><speed>9.25</speed><time>2016-07-09T15:35:54Z</time><pdop>4.0</pdop><geoidheight>50.80</geoidheight><course>322.20697</course><type>1</type></trkpt>
      <trkpt lat="39.247779423957866" lon="-5.659769155273612"><ele>2286</ele><speed>8.05</speed><time>2016-07-09T15:35:56Z</time><pdop>6.0</pdop><geoidheight>50.80</geoidheight><course>321.10492</course><type>1</type></trkpt>
      <trkpt lat="39.24790464589232" lon="-5.659892479645364"><ele>2289</ele><speed>8.96</speed><time>2016-07-09T15:35:58Z</time><pdop>6.0</pdop><geoidheight>50.80</geoidheight><course>323.97275</course><type>1</type></trkpt>
      <trkpt lat="39.24804318307038" lon="-5.66000962566628"><ele>2292</ele><speed>9.00</speed><time>2016-07-09T15:36:00Z</time><pdop>4.0</pdop><geoidheight>50.80</geoidheight><course>325.21185</course><type>1</type></trkpt>
      <trkpt lat="39.248110363411236" lon="-5.660070492342819"><ele>2294</ele><speed>8.59</speed><time>2016-07-09T15:36:01Z</time><pdop>4.0</pdop><geoidheight>50.80</geoidheight><course>323.83142</course><type>1</type></trkpt>
      <trkpt lat="39.248173444090455" lon="-5.660129788579787"><ele>2296</ele><speed>7.87</speed><time>2016-07-09T15:36:02Z</time><pdop>4.0</pdop><geoidheight>50.80</geoidheight><course>323.32852</course><type>1</type></trkpt>
      <trkpt lat="39.24823484188215" lon="-5.6601831237760525"><ele>2298</ele><speed>7.93</speed><time>2016-07-09T15:36:03Z</time><pdop>4.0</pdop><geoidheight>50.80</geoidheight><course>326.17017</course><type>1</type></trkpt>
      <trkpt lat="39.2483097499812" lon="-5.660222281729787"><ele>2300</ele><speed>9.21</speed><time>2016-07-09T15:36:04Z</time><pdop>4.0</pdop><geoidheight>50.80</geoidheight><course>339.18094</course><type>1</type></trkpt>
      <trkpt lat="39.248399222146496" lon="-5.660266147119246"><ele>2301</ele><speed>10.30</speed><time>2016-07-09T15:36:05Z</time><pdop>6.0</pdop><geoidheight>50.80</geoidheight><course>339.6329</course><type>1</type></trkpt>
      <trkpt lat="39.24858421854282" lon="-5.660364878040691"><ele>2303</ele><speed>11.00</speed><time>2016-07-09T15:36:07Z</time><pdop>6.0</pdop><geoidheight>50.80</geoidheight><course>336.02094</course><type>1</type></trkpt>
      <trkpt lat="39.24874815888029" lon="-5.660480157335522"><ele>2306</ele><speed>9.85</speed><time>2016-07-09T15:36:09Z</time><pdop>4.0</pdop><geoidheight>50.80</geoidheight><course>332.40576</course><type>1</type></trkpt>
      <trkpt lat="39.24882889051108" lon="-5.6605394986087445"><ele>2307</ele><speed>10.26</speed><time>2016-07-09T15:36:10Z</time><pdop>4.0</pdop><geoidheight>50.80</geoidheight><course>332.8217</course><type>1</type></trkpt>
      <trkpt lat="39.24891440025407" lon="-5.660591252131548"><ele>2308</ele><speed>10.43</speed><time>2016-07-09T15:36:11Z</time><pdop>4.0</pdop><geoidheight>50.80</geoidheight><course>335.55392</course><type>1</type></trkpt>
      <trkpt lat="39.249091872270334" lon="-5.660666011655754"><ele>2309</ele><speed>10.91</speed><time>2016-07-09T15:36:13Z</time><pdop>6.0</pdop><geoidheight>50.80</geoidheight><course>341.1093</course><type>1</type></trkpt>
      <trkpt lat="39.24929091040832" lon="-5.66074995657056"><ele>2310</ele><speed>11.51</speed><time>2016-07-09T15:36:14Z</time><pdop>6.0</pdop><geoidheight>50.80</geoidheight><course>339.12875</course><type>1</type></trkpt>
      <trkpt lat="39.24937946935204" lon="-5.66079298236792"><ele>2311</ele><speed>10.66</speed><time>2016-07-09T15:36:15Z</time><pdop>4.0</pdop><geoidheight>50.80</geoidheight><course>338.77502</course><type>1</type></trkpt>
      <trkpt lat="39.249471234256205" lon="-5.660839041843146"><ele>2313</ele><speed>9.45</speed><time>2016-07-09T15:36:17Z</time><pdop>6.0</pdop><geoidheight>50.80</geoidheight><course>339.44238</course><type>1</type></trkpt>
      <trkpt lat="39.249636646259965" lon="-5.6609272549264285"><ele>2316</ele><speed>8.55</speed><time>2016-07-09T15:36:19Z</time><pdop>6.0</pdop><geoidheight>50.80</geoidheight><course>334.99606</course><type>1</type></trkpt>
      <trkpt lat="39.24976147221758" lon="-5.661068226538542"><ele>2320</ele><speed>9.62</speed><time>2016-07-09T15:36:21Z</time><pdop>6.0</pdop><geoidheight>50.80</geoidheight><course>320.3352</course><type>1</type></trkpt>
      <trkpt lat="39.24991807043867" lon="-5.661184447751207"><ele>2323</ele><speed>10.98</speed><time>2016-07-09T15:36:22Z</time><pdop>6.0</pdop><geoidheight>50.80</geoidheight><course>339.33347</course><type>1</type></trkpt>
      <trkpt lat="39.250100637894484" lon="-5.66127986144486"><ele>2325</ele><speed>11.79</speed><time>2016-07-09T15:36:25Z</time><pdop>8.0</pdop><geoidheight>50.80</geoidheight><course>338.53906</course><type>1</type></trkpt>
      <trkpt lat="39.25029778118848" lon="-5.661384029612173"><ele>2328</ele><speed>11.45</speed><time>2016-07-09T15:36:27Z</time><pdop>6.0</pdop><geoidheight>50.80</geoidheight><course>338.61636</course><type>1</type></trkpt>
      <trkpt lat="39.25040139633917" lon="-5.66143586488244"><ele>2329</ele><speed>11.04</speed><time>2016-07-09T15:36:28Z</time><pdop>6.0</pdop><geoidheight>50.80</geoidheight><course>338.2466</course><type>1</type></trkpt>
      <trkpt lat="39.250591963289246" lon="-5.661535009677342"><ele>2333</ele><speed>10.57</speed><time>2016-07-09T15:36:30Z</time><pdop>4.0</pdop><geoidheight>50.80</geoidheight><course>336.91223</course><type>1</type></trkpt>
      <trkpt lat="39.25068150429382" lon="-5.6615827939480745"><ele>2335</ele><speed>10.48</speed><time>2016-07-09T15:36:31Z</time><pdop>4.0</pdop><geoidheight>50.80</geoidheight><course>336.4584</course><type>1</type></trkpt>
      <trkpt lat="39.25077086757015" lon="-5.661632940891206"><ele>2337</ele><speed>10.50</speed><time>2016-07-09T15:36:32Z</time><pdop>4.0</pdop><geoidheight>50.80</geoidheight><course>335.6515</course><type>1</type></trkpt>
      <trkpt lat="39.25086024189592" lon="-5.661684539557858"><ele>2339</ele><speed>10.84</speed><time>2016-07-09T15:36:33Z</time><pdop>6.0</pdop><geoidheight>50.80</geoidheight><course>335.17166</course><type>1</type></trkpt>
      <trkpt lat="39.25104476470008" lon="-5.661792045593022"><ele>2343</ele><speed>10.83</speed><time>2016-07-09T15:36:35Z</time><pdop>6.0</pdop><geoidheight>50.80</geoidheight><course>336.5172</course><type>1</type></trkpt>
      <trkpt lat="39.251216019965305" lon="-5.661891656858896"><ele>2348</ele><speed>9.57</speed><time>2016-07-09T15:36:37Z</time><pdop>4.0</pdop><geoidheight>50.80</geoidheight><course>335.58484</course><type>1</type></trkpt>
      <trkpt lat="39.25129989612999" lon="-5.661939609778261"><ele>2350</ele><speed>9.53</speed><time>2016-07-09T15:36:38Z</time><pdop>4.0</pdop><geoidheight>50.80</geoidheight><course>336.5465</course><type>1</type></trkpt>
      <trkpt lat="39.25138673626555" lon="-5.6619803793690835"><ele>2353</ele><speed>10.07</speed><time>2016-07-09T15:36:39Z</time><pdop>4.0</pdop><geoidheight>50.80</geoidheight><course>339.15393</course><type>1</type></trkpt>
      <trkpt lat="39.251476911984696" lon="-5.662012739160442"><ele>2355</ele><speed>10.69</speed><time>2016-07-09T15:36:40Z</time><pdop>6.0</pdop><geoidheight>50.80</geoidheight><course>342.3738</course><type>1</type></trkpt>
      <trkpt lat="39.25166486809515" lon="-5.662058045562697"><ele>2359</ele><speed>9.84</speed><time>2016-07-09T15:36:42Z</time><pdop>6.0</pdop><geoidheight>50.80</geoidheight><course>347.6092</course><type>1</type></trkpt>
      <trkpt lat="39.25183624972178" lon="-5.662047232269189"><ele>2363</ele><speed>8.73</speed><time>2016-07-09T15:36:43Z</time><pdop>4.0</pdop><geoidheight>50.80</geoidheight><course>4.0225234</course><type>1</type></trkpt>
      <trkpt lat="39.251923345147496" lon="-5.662029740707822"><ele>2365</ele><speed>9.71</speed><time>2016-07-09T15:36:45Z</time><pdop>4.0</pdop><geoidheight>50.80</geoidheight><course>7.4605184</course><type>1</type></trkpt>
      <trkpt lat="39.25201829671858" lon="-5.662001452753601"><ele>2366</ele><speed>9.92</speed><time>2016-07-09T15:36:46Z</time><pdop>4.0</pdop><geoidheight>50.80</geoidheight><course>11.499555</course><type>1</type></trkpt>
      <trkpt lat="39.25209347866903" lon="-5.661941964764585"><ele>2367</ele><speed>9.16</speed><time>2016-07-09T15:36:47Z</time><pdop>4.0</pdop><geoidheight>50.80</geoidheight><course>31.342262</course><type>1</type></trkpt>
      <trkpt lat="39.25215017452187" lon="-5.661873005557831"><ele>2369</ele><speed>7.80</speed><time>2016-07-09T15:36:48Z</time><pdop>4.0</pdop><geoidheight>50.80</geoidheight><course>47.082798</course><type>1</type></trkpt>
      <trkpt lat="39.25219065337793" lon="-5.661690934111048"><ele>2372</ele><speed>7.80</speed><time>2016-07-09T15:36:50Z</time><pdop>6.0</pdop><geoidheight>50.80</geoidheight><course>90.26364</course><type>1</type></trkpt>
      <trkpt lat="39.25216866039705" lon="-5.661529111352115"><ele>2377</ele><speed>8.77</speed><time>2016-07-09T15:36:52Z</time><pdop>6.0</pdop><geoidheight>50.80</geoidheight><course>121.20674</course><type>1</type></trkpt>
      <trkpt lat="39.25205597757417" lon="-5.661401206028266"><ele>2381</ele><speed>9.42</speed><time>2016-07-09T15:36:54Z</time><pdop>6.0</pdop><geoidheight>50.80</geoidheight><course>150.62918</course><type>1</type></trkpt>
      <trkpt lat="39.25189204752947" lon="-5.661364647537168"><ele>2382</ele><speed>10.03</speed><time>2016-07-09T15:36:56Z</time><pdop>6.0</pdop><geoidheight>50.80</geoidheight><course>180.85966</course><type>1</type></trkpt>
      <trkpt lat="39.25175302739418" lon="-5.661411422427193"><ele>2384</ele><speed>9.63</speed><time>2016-07-09T15:36:58Z</time><pdop>6.0</pdop><geoidheight>50.80</geoidheight><course>218.69107</course><type>1</type></trkpt>
      <trkpt lat="39.2516692473854" lon="-5.661567468911602"><ele>2385</ele><speed>10.18</speed><time>2016-07-09T15:37:00Z</time><pdop>6.0</pdop><geoidheight>50.80</geoidheight><course>254.62415</course><type>1</type></trkpt>
      <trkpt lat="39.25165494190099" lon="-5.661784267652345"><ele>2387</ele><speed>9.55</speed><time>2016-07-09T15:37:01Z</time><pdop>6.0</pdop><geoidheight>50.80</geoidheight><course>273.12988</course><type>1</type></trkpt>
      <trkpt lat="39.25171758823241" lon="-5.662003126363071"><ele>2390</ele><speed>11.02</speed><time>2016-07-09T15:37:03Z</time><pdop>6.0</pdop><geoidheight>50.80</geoidheight><course>294.31702</course><type>1</type></trkpt>
      <trkpt lat="39.25183272454355" lon="-5.66218438962057"><ele>2392</ele><speed>10.84</speed><time>2016-07-09T15:37:06Z</time><pdop>8.0</pdop><geoidheight>50.80</geoidheight><course>312.49124</course><type>1</type></trkpt>
      <trkpt lat="39.25195931226562" lon="-5.662359766267023"><ele>2394</ele><speed>9.56</speed><time>2016-07-09T15:37:08Z</time><pdop>6.0</pdop><geoidheight>50.80</geoidheight><course>315.95898</course><type>1</type></trkpt>
      <trkpt lat="39.25208093050601" lon="-5.662518092153863"><ele>2397</ele><speed>8.92</speed><time>2016-07-09T15:37:10Z</time><pdop>6.0</pdop><geoidheight>50.80</geoidheight><course>316.63846</course><type>1</type></trkpt>
      <trkpt lat="39.252205743885234" lon="-5.6626654943026375"><ele>2398</ele><speed>9.80</speed><time>2016-07-09T15:37:12Z</time><pdop>4.0</pdop><geoidheight>50.80</geoidheight><course>318.8482</course><type>1</type></trkpt>
      <trkpt lat="39.25227491177227" lon="-5.662737263492968"><ele>2399</ele><speed>9.76</speed><time>2016-07-09T15:37:13Z</time><pdop>4.0</pdop><geoidheight>50.80</geoidheight><course>320.63086</course><type>1</type></trkpt>
      <trkpt lat="39.25234595437135" lon="-5.662806292875738"><ele>2400</ele><speed>9.68</speed><time>2016-07-09T15:37:14Z</time><pdop>4.0</pdop><geoidheight>50.80</geoidheight><course>322.0301</course><type>1</type></trkpt>
      <trkpt lat="39.25249464096498" lon="-5.662915904060666"><ele>2402</ele><speed>8.62</speed><time>2016-07-09T15:37:15Z</time><pdop>4.0</pdop><geoidheight>50.80</geoidheight><course>337.9575</course><type>1</type></trkpt>
      <trkpt lat="39.25257427514145" lon="-5.662936348111284"><ele>2403</ele><speed>8.28</speed><time>2016-07-09T15:37:17Z</time><pdop>4.0</pdop><geoidheight>50.80</geoidheight><course>353.8659</course><type>1</type></trkpt>
      <trkpt lat="39.252655354741975" lon="-5.662923408304045"><ele>2403</ele><speed>9.98</speed><time>2016-07-09T15:37:18Z</time><pdop>4.0</pdop><geoidheight>50.80</geoidheight><course>9.575662</course><type>1</type></trkpt>
      <trkpt lat="39.252798104204395" lon="-5.662848993405204"><ele>2404</ele><speed>7.97</speed><time>2016-07-09T15:37:20Z</time><pdop>6.0</pdop><geoidheight>50.80</geoidheight><course>39.09082</course><type>1</type></trkpt>
      <trkpt lat="39.25288868357651" lon="-5.662707049452011"><ele>2406</ele><speed>7.06</speed><time>2016-07-09T15:37:21Z</time><pdop>6.0</pdop><geoidheight>50.80</geoidheight><course>55.462654</course><type>1</type></trkpt>
      <trkpt lat="39.25304262836791" lon="-5.662424638720996"><ele>2413</ele><speed>7.90</speed><time>2016-07-09T15:37:26Z</time><pdop>12.0</pdop><geoidheight>50.80</geoidheight><course>59.201607</course><type>1</type></trkpt>
      <trkpt lat="39.253139326763225" lon="-5.662189454385841"><ele>2421</ele><speed>5.92</speed><time>2016-07-09T15:37:29Z</time><pdop>6.0</pdop><geoidheight>50.80</geoidheight><course>63.292675</course><type>1</type></trkpt>
      <trkpt lat="39.25319580372542" lon="-5.66203868439697"><ele>2427</ele><speed>7.93</speed><time>2016-07-09T15:37:31Z</time><pdop>6.0</pdop><geoidheight>50.80</geoidheight><course>67.62885</course><type>1</type></trkpt>
      <trkpt lat="39.253252277322986" lon="-5.661835784385073"><ele>2432</ele><speed>10.28</speed><time>2016-07-09T15:37:32Z</time><pdop>6.0</pdop><geoidheight>50.80</geoidheight><course>72.02052</course><type>1</type></trkpt>
      <trkpt lat="39.253312321741255" lon="-5.661633125436332"><ele>2434</ele><speed>8.48</speed><time>2016-07-09T15:37:35Z</time><pdop>6.0</pdop><geoidheight>50.80</geoidheight><course>66.998085</course><type>1</type></trkpt>
      <trkpt lat="39.253375026108046" lon="-5.661473841562777"><ele>2437</ele><speed>7.20</speed><time>2016-07-09T15:37:37Z</time><pdop>6.0</pdop><geoidheight>50.80</geoidheight><course>66.74683</course><type>1</type></trkpt>
      <trkpt lat="39.25343185484691" lon="-5.661285646722175"><ele>2440</ele><speed>9.04</speed><time>2016-07-09T15:37:39Z</time><pdop>4.0</pdop><geoidheight>50.80</geoidheight><course>72.09589</course><type>1</type></trkpt>
      <trkpt lat="39.25345246338433" lon="-5.661185693405697"><ele>2441</ele><speed>8.33</speed><time>2016-07-09T15:37:40Z</time><pdop>4.0</pdop><geoidheight>50.80</geoidheight><course>75.83018</course><type>1</type></trkpt>
      <trkpt lat="39.25343217584262" lon="-5.661007154144633"><ele>2445</ele><speed>7.41</speed><time>2016-07-09T15:37:42Z</time><pdop>4.0</pdop><geoidheight>50.80</geoidheight><course>108.01477</course><type>1</type></trkpt>
      <trkpt lat="39.25334882812043" lon="-5.660857632883818"><ele>2449</ele><speed>9.48</speed><time>2016-07-09T15:37:44Z</time><pdop>8.0</pdop><geoidheight>50.80</geoidheight><course>136.2998</course><type>1</type></trkpt>
      <trkpt lat="39.253210835017526" lon="-5.660708234789899"><ele>2452</ele><speed>11.04</speed><time>2016-07-09T15:37:46Z</time><pdop>8.0</pdop><geoidheight>50.80</geoidheight><course>141.29395</course><type>1</type></trkpt>
      <trkpt lat="39.25305511524982" lon="-5.660636054198799"><ele>2455</ele><speed>8.68</speed><time>2016-07-09T15:37:48Z</time><pdop>6.0</pdop><geoidheight>50.80</geoidheight><course>162.57228</course><type>1</type></trkpt>
      <trkpt lat="39.2528953662222" lon="-5.660573226032229"><ele>2458</ele><speed>9.43</speed><time>2016-07-09T15:37:50Z</time><pdop>6.0</pdop><geoidheight>50.80</geoidheight><course>163.09651</course><type>1</type></trkpt>
      <trkpt lat="39.252734972083985" lon="-5.6604937911847975"><ele>2460</ele><speed>8.97</speed><time>2016-07-09T15:37:52Z</time><pdop>6.0</pdop><geoidheight>50.80</geoidheight><course>157.00891</course><type>1</type></trkpt>
      <trkpt lat="39.252610667556375" lon="-5.660385421199446"><ele>2463</ele><speed>7.56</speed><time>2016-07-09T15:37:54Z</time><pdop>6.0</pdop><geoidheight>50.80</geoidheight><course>140.37416</course><type>1</type></trkpt>
      <trkpt lat="39.252527502827014" lon="-5.6602738982325365"><ele>2467</ele><speed>8.04</speed><time>2016-07-09T15:37:56Z</time><pdop>6.0</pdop><geoidheight>50.80</geoidheight><course>134.93874</course><type>1</type></trkpt>
      <trkpt lat="39.25243018314238" lon="-5.660115657288577"><ele>2472</ele><speed>8.80</speed><time>2016-07-09T15:37:58Z</time><pdop>6.0</pdop><geoidheight>50.80</geoidheight><course>131.59486</course><type>1</type></trkpt>
      <trkpt lat="39.25229762242219" lon="-5.659944933614003"><ele>2476</ele><speed>9.72</speed><time>2016-07-09T15:38:00Z</time><pdop>6.0</pdop><geoidheight>50.80</geoidheight><course>146.95102</course><type>1</type></trkpt>
      <trkpt lat="39.25213507846948" lon="-5.659859785847551"><ele>2482</ele><speed>11.10</speed><time>2016-07-09T15:38:02Z</time><pdop>6.0</pdop><geoidheight>50.80</geoidheight><course>169.69058</course><type>1</type></trkpt>
      <trkpt lat="39.25193377698992" lon="-5.659863108757057"><ele>2487</ele><speed>12.00</speed><time>2016-07-09T15:38:03Z</time><pdop>6.0</pdop><geoidheight>50.80</geoidheight><course>186.20657</course><type>1</type></trkpt>
      <trkpt lat="39.25173586137743" lon="-5.659905640393966"><ele>2492</ele><speed>11.19</speed><time>2016-07-09T15:38:06Z</time><pdop>6.0</pdop><geoidheight>50.80</geoidheight><course>193.09666</course><type>1</type></trkpt>
      <trkpt lat="39.251634118609445" lon="-5.659959425334723"><ele>2493</ele><speed>10.54</speed><time>2016-07-09T15:38:07Z</time><pdop>6.0</pdop><geoidheight>50.80</geoidheight><course>206.19511</course><type>1</type></trkpt>
      <trkpt lat="39.25145647771287" lon="-5.660114911108711"><ele>2495</ele><speed>11.96</speed><time>2016-07-09T15:38:09Z</time><pdop>6.0</pdop><geoidheight>50.80</geoidheight><course>225.86894</course><type>1</type></trkpt>
      <trkpt lat="39.25133876392552" lon="-5.660341832254066"><ele>2496</ele><speed>11.63</speed><time>2016-07-09T15:38:11Z</time><pdop>6.0</pdop><geoidheight>50.80</geoidheight><course>248.4422</course><type>1</type></trkpt>
      <trkpt lat="39.251321130442115" lon="-5.660565806795215"><ele>2496</ele><speed>9.17</speed><time>2016-07-09T15:38:13Z</time><pdop>6.0</pdop><geoidheight>50.80</geoidheight><course>281.01877</course><type>1</type></trkpt>
      <trkpt lat="39.251394975566434" lon="-5.66072762332367"><ele>2497</ele><speed>8.24</speed><time>2016-07-09T15:38:15Z</time><pdop>6.0</pdop><geoidheight>50.80</geoidheight><course>308.6132</course><type>1</type></trkpt>
      <trkpt lat="39.25149152049078" lon="-5.660871708726274"><ele>2499</ele><speed>8.69</speed><time>2016-07-09T15:38:17Z</time><pdop>6.0</pdop><geoidheight>50.80</geoidheight><course>312.99365</course><type>1</type></trkpt>
      <trkpt lat="39.25173234789979" lon="-5.660953422808851"><ele>2501</ele><speed>9.66</speed><time>2016-07-09T15:38:20Z</time><pdop>6.0</pdop><geoidheight>50.80</geoidheight><course>6.748978</course><type>1</type></trkpt>
      <trkpt lat="39.25186966612481" lon="-5.6608952996806945"><ele>2501</ele><speed>8.79</speed><time>2016-07-09T15:38:21Z</time><pdop>6.0</pdop><geoidheight>50.80</geoidheight><course>34.73355</course><type>1</type></trkpt>
      <trkpt lat="39.251963543648785" lon="-5.6607631879321465"><ele>2504</ele><speed>7.14</speed><time>2016-07-09T15:38:24Z</time><pdop>6.0</pdop><geoidheight>50.80</geoidheight><course>57.84407</course><type>1</type></trkpt>
      <trkpt lat="39.25197579569922" lon="-5.660588390833898"><ele>2505</ele><speed>9.19</speed><time>2016-07-09T15:38:26Z</time><pdop>6.0</pdop><geoidheight>50.80</geoidheight><course>101.81301</course><type>1</type></trkpt>
      <trkpt lat="39.25194487658287" lon="-5.660383211330387"><ele>2508</ele><speed>8.73</speed><time>2016-07-09T15:38:28Z</time><pdop>6.0</pdop><geoidheight>50.80</geoidheight><course>106.791374</course><type>1</type></trkpt>
      <trkpt lat="39.251907443521965" lon="-5.6602027667914365"><ele>2511</ele><speed>8.10</speed><time>2016-07-09T15:38:30Z</time><pdop>4.0</pdop><geoidheight>50.80</geoidheight><course>106.11346</course><type>1</type></trkpt>
      <trkpt lat="39.251879612458026" lon="-5.660019383382125"><ele>2513</ele><speed>8.21</speed><time>2016-07-09T15:38:32Z</time><pdop>4.0</pdop><geoidheight>50.80</geoidheight><course>102.811356</course><type>1</type></trkpt>
      <trkpt lat="39.25186413385546" lon="-5.659923359418335"><ele>2515</ele><speed>9.25</speed><time>2016-07-09T15:38:33Z</time><pdop>4.0</pdop><geoidheight>50.80</geoidheight><course>104.85226</course><type>1</type></trkpt>
      <trkpt lat="39.251825088136954" lon="-5.659819387538575"><ele>2516</ele><speed>10.16</speed><time>2016-07-09T15:38:34Z</time><pdop>4.0</pdop><geoidheight>50.80</geoidheight><course>119.228584</course><type>1</type></trkpt>
      <trkpt lat="39.25178074573623" lon="-5.659720324377081"><ele>2517</ele><speed>10.00</speed><time>2016-07-09T15:38:35Z</time><pdop>4.0</pdop><geoidheight>50.80</geoidheight><course>122.27133</course><type>1</type></trkpt>
      <trkpt lat="39.251732545393935" lon="-5.659630159754473"><ele>2518</ele><speed>9.53</speed><time>2016-07-09T15:38:35Z</time><pdop>4.0</pdop><geoidheight>50.80</geoidheight><course>126.143875</course><type>1</type></trkpt>
      <trkpt lat="39.251609301511444" lon="-5.6594921589884715"><ele>2522</ele><speed>9.10</speed><time>2016-07-09T15:38:38Z</time><pdop>6.0</pdop><geoidheight>50.80</geoidheight><course>141.88957</course><type>1</type></trkpt>
      <trkpt lat="39.25144601555131" lon="-5.6593948170132915"><ele>2523</ele><speed>9.38</speed><time>2016-07-09T15:38:40Z</time><pdop>6.0</pdop><geoidheight>50.80</geoidheight><course>166.23259</course><type>1</type></trkpt>
      <trkpt lat="39.25126306233892" lon="-5.65935540348642"><ele>2523</ele><speed>9.39</speed><time>2016-07-09T15:38:42Z</time><pdop>6.0</pdop><geoidheight>50.80</geoidheight><course>172.3983</course><type>1</type></trkpt>
      <trkpt lat="39.251085244607964" lon="-5.659341677529611"><ele>2523</ele><speed>9.37</speed><time>2016-07-09T15:38:44Z</time><pdop>6.0</pdop><geoidheight>50.80</geoidheight><course>175.1541</course><type>1</type></trkpt>
      <trkpt lat="39.250920432467616" lon="-5.659330660863813"><ele>2524</ele><speed>9.39</speed><time>2016-07-09T15:38:46Z</time><pdop>4.0</pdop><geoidheight>50.80</geoidheight><course>176.33185</course><type>1</type></trkpt>
      <trkpt lat="39.25083577288716" lon="-5.659326836219438"><ele>2525</ele><speed>9.22</speed><time>2016-07-09T15:38:47Z</time><pdop>4.0</pdop><geoidheight>50.80</geoidheight><course>175.67607</course><type>1</type></trkpt>
      <trkpt lat="39.250756487362075" lon="-5.659320631509605"><ele>2525</ele><speed>8.30</speed><time>2016-07-09T15:38:48Z</time><pdop>4.0</pdop><geoidheight>50.80</geoidheight><course>174.9608</course><type>1</type></trkpt>
      <trkpt lat="39.25068230296719" lon="-5.6593115515184875"><ele>2526</ele><speed>8.40</speed><time>2016-07-09T15:38:49Z</time><pdop>4.0</pdop><geoidheight>50.80</geoidheight><course>173.47908</course><type>1</type></trkpt>
      <trkpt lat="39.25060228884144" lon="-5.659296252844076"><ele>2527</ele><speed>8.81</speed><time>2016-07-09T15:38:50Z</time><pdop>4.0</pdop><geoidheight>50.80</geoidheight><course>171.65384</course><type>1</type></trkpt>
      <trkpt lat="39.25051829087045" lon="-5.659277246314473"><ele>2527</ele><speed>9.21</speed><time>2016-07-09T15:38:51Z</time><pdop>4.0</pdop><geoidheight>50.80</geoidheight><course>170.23398</course><type>1</type></trkpt>
      <trkpt lat="39.25043605515586" lon="-5.6592559690277175"><ele>2528</ele><speed>9.58</speed><time>2016-07-09T15:38:52Z</time><pdop>4.0</pdop><geoidheight>50.80</geoidheight><course>168.74512</course><type>1</type></trkpt>
      <trkpt lat="39.25035291232103" lon="-5.659228344346084"><ele>2528</ele><speed>10.08</speed><time>2016-07-09T15:38:53Z</time><pdop>4.0</pdop><geoidheight>50.80</geoidheight><course>166.3786</course><type>1</type></trkpt>
      <trkpt lat="39.25026822607788" lon="-5.65919312130662"><ele>2528</ele><speed>10.18</speed><time>2016-07-09T15:38:54Z</time><pdop>4.0</pdop><geoidheight>50.80</geoidheight><course>164.01682</course><type>1</type></trkpt>
      <trkpt lat="39.2501855148179" lon="-5.659153569764548"><ele>2528</ele><speed>9.92</speed><time>2016-07-09T15:38:55Z</time><pdop>4.0</pdop><geoidheight>50.80</geoidheight><course>162.59497</course><type>1</type></trkpt>
      <trkpt lat="39.25009740182108" lon="-5.659109399378666"><ele>2529</ele><speed>9.91</speed><time>2016-07-09T15:38:56Z</time><pdop>4.0</pdop><geoidheight>50.80</geoidheight><course>161.95526</course><type>1</type></trkpt>
      <trkpt lat="39.25001424631858" lon="-5.659072531579371"><ele>2528</ele><speed>10.08</speed><time>2016-07-09T15:38:57Z</time><pdop>4.0</pdop><geoidheight>50.80</geoidheight><course>162.18678</course><type>1</type></trkpt>
      <trkpt lat="39.249932401956926" lon="-5.659035303597362"><ele>2528</ele><speed>9.72</speed><time>2016-07-09T15:38:58Z</time><pdop>4.0</pdop><geoidheight>50.80</geoidheight><course>161.01715</course><type>1</type></trkpt>
      <trkpt lat="39.249791441855116" lon="-5.658964803018338"><ele>2528</ele><speed>8.27</speed><time>2016-07-09T15:39:00Z</time><pdop>4.0</pdop><geoidheight>50.80</geoidheight><course>159.93076</course><type>1</type></trkpt>
      <trkpt lat="39.24970806081593" lon="-5.65893148322927"><ele>2527</ele><speed>9.02</speed><time>2016-07-09T15:39:01Z</time><pdop>4.0</pdop><geoidheight>50.80</geoidheight><course>162.83252</course><type>1</type></trkpt>
      <trkpt lat="39.249621805491124" lon="-5.658923567842755"><ele>2527</ele><speed>10.80</speed><time>2016-07-09T15:39:01Z</time><pdop>4.0</pdop><geoidheight>50.80</geoidheight><course>176.4247</course><type>1</type></trkpt>
      <trkpt lat="39.24945080980852" lon="-5.658911315461507"><ele>2526</ele><speed>8.91</speed><time>2016-07-09T15:39:04Z</time><pdop>6.0</pdop><geoidheight>50.80</geoidheight><course>177.52823</course><type>1</type></trkpt>
      <trkpt lat="39.249302667046535" lon="-5.658898981221038"><ele>2528</ele><speed>7.61</speed><time>2016-07-09T15:39:06Z</time><pdop>6.0</pdop><geoidheight>50.80</geoidheight><course>175.56522</course><type>1</type></trkpt>
      <trkpt lat="39.249142687118294" lon="-5.658876906797541"><ele>2530</ele><speed>9.33</speed><time>2016-07-09T15:39:08Z</time><pdop>4.0</pdop><geoidheight>50.80</geoidheight><course>175.73209</course><type>1</type></trkpt>
      <trkpt lat="39.24906192627478" lon="-5.658868828899785"><ele>2532</ele><speed>9.11</speed><time>2016-07-09T15:39:09Z</time><pdop>4.0</pdop><geoidheight>50.80</geoidheight><course>175.37447</course><type>1</type></trkpt>
      <trkpt lat="39.24899047363494" lon="-5.658857122086504"><ele>2533</ele><speed>7.58</speed><time>2016-07-09T15:39:10Z</time><pdop>4.0</pdop><geoidheight>50.80</geoidheight><course>173.257</course><type>1</type></trkpt>
      <trkpt lat="39.24889102493397" lon="-5.658832509944278"><ele>2537</ele><speed>5.28</speed><time>2016-07-09T15:39:12Z</time><pdop>4.0</pdop><geoidheight>50.80</geoidheight><course>172.77893</course><type>1</type></trkpt>
      <trkpt lat="39.248790990468414" lon="-5.65882429638684"><ele>2540</ele><speed>6.21</speed><time>2016-07-09T15:39:14Z</time><pdop>4.0</pdop><geoidheight>50.80</geoidheight><course>176.59462</course><type>1</type></trkpt>
      <trkpt lat="39.248673005941065" lon="-5.658801568628697"><ele>2543</ele><speed>6.27</speed><time>2016-07-09T15:39:16Z</time><pdop>4.0</pdop><geoidheight>50.80</geoidheight><course>170.7446</course><type>1</type></trkpt>
      <trkpt lat="39.24857609869537" lon="-5.658771653114368"><ele>2545</ele><speed>5.53</speed><time>2016-07-09T15:39:18Z</time><pdop>4.0</pdop><geoidheight>50.80</geoidheight><course>168.72517</course><type>1</type></trkpt>
      <trkpt lat="39.248446111442256" lon="-5.658739997326365"><ele>2546</ele><speed>7.78</speed><time>2016-07-09T15:39:20Z</time><pdop>4.0</pdop><geoidheight>50.80</geoidheight><course>171.34343</course><type>1</type></trkpt>
      <trkpt lat="39.24830429093953" lon="-5.658719888817026"><ele>2547</ele><speed>7.71</speed><time>2016-07-09T15:39:22Z</time><pdop>4.0</pdop><geoidheight>50.80</geoidheight><course>174.38159</course><type>1</type></trkpt>
      <trkpt lat="39.24819405640908" lon="-5.658705834516893"><ele>2549</ele><speed>5.76</speed><time>2016-07-09T15:39:24Z</time><pdop>4.0</pdop><geoidheight>50.80</geoidheight><course>174.15273</course><type>1</type></trkpt>
      <trkpt lat="39.24808497681164" lon="-5.658686430804044"><ele>2551</ele><speed>6.14</speed><time>2016-07-09T15:39:26Z</time><pdop>4.0</pdop><geoidheight>50.80</geoidheight><course>172.98466</course><type>1</type></trkpt>
      <trkpt lat="39.24794451204009" lon="-5.658664606121225"><ele>2553</ele><speed>8.69</speed><time>2016-07-09T15:39:28Z</time><pdop>4.0</pdop><geoidheight>50.80</geoidheight><course>174.2776</course><type>1</type></trkpt>
      <trkpt lat="39.24786351650802" lon="-5.658653413950707"><ele>2553</ele><speed>8.90</speed><time>2016-07-09T15:39:29Z</time><pdop>4.0</pdop><geoidheight>50.80</geoidheight><course>173.38452</course><type>1</type></trkpt>
      <trkpt lat="39.24778784198148" lon="-5.658634990008372"><ele>2553</ele><speed>8.57</speed><time>2016-07-09T15:39:30Z</time><pdop>4.0</pdop><geoidheight>50.80</geoidheight><course>169.54292</course><type>1</type></trkpt>
      <trkpt lat="39.247718580850744" lon="-5.658608829640496"><ele>2553</ele><speed>7.64</speed><time>2016-07-09T15:39:31Z</time><pdop>4.0</pdop><geoidheight>50.80</geoidheight><course>165.52408</course><type>1</type></trkpt>
      <trkpt lat="39.24759377277992" lon="-5.658585278641685"><ele>2553</ele><speed>7.81</speed><time>2016-07-09T15:39:33Z</time><pdop>4.0</pdop><geoidheight>50.80</geoidheight><course>182.19391</course><type>1</type></trkpt>
      <trkpt lat="39.247518848064495" lon="-5.6585870046942555"><ele>2553</ele><speed>8.86</speed><time>2016-07-09T15:39:34Z</time><pdop>4.0</pdop><geoidheight>50.80</geoidheight><course>182.82855</course><type>1</type></trkpt>
      <trkpt lat="39.2474333810432" lon="-5.658586532863824"><ele>2553</ele><speed>9.84</speed><time>2016-07-09T15:39:35Z</time><pdop>4.0</pdop><geoidheight>50.80</geoidheight><course>180.8265</course><type>1</type></trkpt>
      <trkpt lat="39.247343400984434" lon="-5.658561111075475"><ele>2553</ele><speed>9.97</speed><time>2016-07-09T15:39:35Z</time><pdop>4.0</pdop><geoidheight>50.80</geoidheight><course>167.59479</course><type>1</type></trkpt>
      <trkpt lat="39.247260792980285" lon="-5.658538819475558"><ele>2553</ele><speed>9.34</speed><time>2016-07-09T15:39:36Z</time><pdop>4.0</pdop><geoidheight>50.80</geoidheight><course>167.12779</course><type>1</type></trkpt>
      <trkpt lat="39.24710723395567" lon="-5.658522405505815"><ele>2555</ele><speed>7.81</speed><time>2016-07-09T15:39:39Z</time><pdop>6.0</pdop><geoidheight>50.80</geoidheight><course>183.5439</course><type>1</type></trkpt>
      <trkpt lat="39.24696255605884" lon="-5.658517850890692"><ele>2557</ele><speed>8.76</speed><time>2016-07-09T15:39:41Z</time><pdop>6.0</pdop><geoidheight>50.80</geoidheight><course>179.8122</course><type>1</type></trkpt>
      <trkpt lat="39.24682038280552" lon="-5.658465496569936"><ele>2560</ele><speed>9.37</speed><time>2016-07-09T15:39:43Z</time><pdop>4.0</pdop><geoidheight>50.80</geoidheight><course>165.23769</course><type>1</type></trkpt>
      <trkpt lat="39.24665169506257" lon="-5.65840288031047"><ele>2562</ele><speed>9.69</speed><time>2016-07-09T15:39:45Z</time><pdop>6.0</pdop><geoidheight>50.80</geoidheight><course>164.89986</course><type>1</type></trkpt>
      <trkpt lat="39.24646657832979" lon="-5.658334155938855"><ele>2563</ele><speed>10.70</speed><time>2016-07-09T15:39:47Z</time><pdop>6.0</pdop><geoidheight>50.80</geoidheight><course>165.01608</course><type>1</type></trkpt>
      <trkpt lat="39.24628601306045" lon="-5.658262086179041"><ele>2563</ele><speed>9.97</speed><time>2016-07-09T15:39:49Z</time><pdop>6.0</pdop><geoidheight>50.80</geoidheight><course>162.1107</course><type>1</type></trkpt>
      <trkpt lat="39.246140913261804" lon="-5.658197540818376"><ele>2566</ele><speed>9.82</speed><time>2016-07-09T15:39:51Z</time><pdop>6.0</pdop><geoidheight>50.80</geoidheight><course>159.20781</course><type>1</type></trkpt>
      <trkpt lat="39.24605679827327" lon="-5.658156646579184"><ele>2568</ele><speed>10.02</speed><time>2016-07-09T15:39:52Z</time><pdop>4.0</pdop><geoidheight>50.80</geoidheight><course>159.9439</course><type>1</type></trkpt>
      <trkpt lat="39.2459789786863" lon="-5.658119646909027"><ele>2570</ele><speed>10.14</speed><time>2016-07-09T15:39:53Z</time><pdop>4.0</pdop><geoidheight>50.80</geoidheight><course>160.44843</course><type>1</type></trkpt>
      <trkpt lat="39.245899014273846" lon="-5.658079838655146"><ele>2572</ele><speed>10.12</speed><time>2016-07-09T15:39:54Z</time><pdop>4.0</pdop><geoidheight>50.80</geoidheight><course>159.75894</course><type>1</type></trkpt>
      <trkpt lat="39.245818154263645" lon="-5.658037037280844"><ele>2575</ele><speed>10.03</speed><time>2016-07-09T15:39:55Z</time><pdop>4.0</pdop><geoidheight>50.80</geoidheight><course>158.78036</course><type>1</type></trkpt>
      <trkpt lat="39.245726572422996" lon="-5.6579866774188625"><ele>2577</ele><speed>9.83</speed><time>2016-07-09T15:39:56Z</time><pdop>4.0</pdop><geoidheight>50.80</geoidheight><course>159.23772</course><type>1</type></trkpt>
      <trkpt lat="39.2456381129459" lon="-5.657943953197821"><ele>2579</ele><speed>9.90</speed><time>2016-07-09T15:39:57Z</time><pdop>4.0</pdop><geoidheight>50.80</geoidheight><course>160.60654</course><type>1</type></trkpt>
      <trkpt lat="39.245554042790516" lon="-5.657905926497938"><ele>2580</ele><speed>9.95</speed><time>2016-07-09T15:39:58Z</time><pdop>4.0</pdop><geoidheight>50.80</geoidheight><course>161.44518</course><type>1</type></trkpt>
      <trkpt lat="39.245468516778395" lon="-5.657867811963129"><ele>2582</ele><speed>9.92</speed><time>2016-07-09T15:39:59Z</time><pdop>4.0</pdop><geoidheight>50.80</geoidheight><course>160.81554</course><type>1</type></trkpt>
      <trkpt lat="39.24538472757401" lon="-5.6578300106382695"><ele>2583</ele><speed>9.76</speed><time>2016-07-09T15:40:00Z</time><pdop>4.0</pdop><geoidheight>50.80</geoidheight><course>160.59029</course><type>1</type></trkpt>
      <trkpt lat="39.24530049303847" lon="-5.657792210356918"><ele>2584</ele><speed>9.80</speed><time>2016-07-09T15:40:01Z</time><pdop>4.0</pdop><geoidheight>50.80</geoidheight><course>161.01842</course><type>1</type></trkpt>
      <trkpt lat="39.24521385539441" lon="-5.657753986154367"><ele>2586</ele><speed>10.24</speed><time>2016-07-09T15:40:02Z</time><pdop>4.0</pdop><geoidheight>50.80</geoidheight><course>161.26901</course><type>1</type></trkpt>
      <trkpt lat="39.2451265525725" lon="-5.657714293867293"><ele>2587</ele><speed>10.31</speed><time>2016-07-09T15:40:03Z</time><pdop>6.0</pdop><geoidheight>50.80</geoidheight><course>160.36792</course><type>1</type></trkpt>
      <trkpt lat="39.24495888644408" lon="-5.6576405890651085"><ele>2591</ele><speed>9.89</speed><time>2016-07-09T15:40:05Z</time><pdop>6.0</pdop><geoidheight>50.80</geoidheight><course>161.58739</course><type>1</type></trkpt>
      <trkpt lat="39.24478967375725" lon="-5.657573574143697"><ele>2595</ele><speed>9.45</speed><time>2016-07-09T15:40:07Z</time><pdop>4.0</pdop><geoidheight>50.80</geoidheight><course>161.64546</course><type>1</type></trkpt>
      <trkpt lat="39.24471790761544" lon="-5.657542083412566"><ele>2597</ele><speed>8.58</speed><time>2016-07-09T15:40:08Z</time><pdop>4.0</pdop><geoidheight>50.80</geoidheight><course>160.24358</course><type>1</type></trkpt>
      <trkpt lat="39.24464860203609" lon="-5.657504745239998"><ele>2600</ele><speed>8.21</speed><time>2016-07-09T15:40:09Z</time><pdop>4.0</pdop><geoidheight>50.80</geoidheight><course>157.73724</course><type>1</type></trkpt>
      <trkpt lat="39.244579053333965" lon="-5.657462384929035"><ele>2602</ele><speed>8.70</speed><time>2016-07-09T15:40:10Z</time><pdop>4.0</pdop><geoidheight>50.80</geoidheight><course>156.01996</course><type>1</type></trkpt>
      <trkpt lat="39.24450649945931" lon="-5.657417792487805"><ele>2604</ele><speed>9.75</speed><time>2016-07-09T15:40:11Z</time><pdop>4.0</pdop><geoidheight>50.80</geoidheight><course>155.20015</course><type>1</type></trkpt>
      <trkpt lat="39.24442747825905" lon="-5.657370160780159"><ele>2605</ele><speed>10.10</speed><time>2016-07-09T15:40:12Z</time><pdop>4.0</pdop><geoidheight>50.80</geoidheight><course>155.20055</course><type>1</type></trkpt>
      <trkpt lat="39.244347697043246" lon="-5.657322210869351"><ele>2607</ele><speed>9.31</speed><time>2016-07-09T15:40:13Z</time><pdop>4.0</pdop><geoidheight>50.80</geoidheight><course>155.48277</course><type>1</type></trkpt>
      <trkpt lat="39.24426803078194" lon="-5.657274000776209"><ele>2609</ele><speed>8.84</speed><time>2016-07-09T15:40:14Z</time><pdop>4.0</pdop><geoidheight>50.80</geoidheight><course>156.32428</course><type>1</type></trkpt>
      <trkpt lat="39.24418646400405" lon="-5.6572298091696185"><ele>2611</ele><speed>9.50</speed><time>2016-07-09T15:40:15Z</time><pdop>4.0</pdop><geoidheight>50.80</geoidheight><course>157.66638</course><type>1</type></trkpt>
      <trkpt lat="39.24410288076045" lon="-5.657186411904734"><ele>2614</ele><speed>10.36</speed><time>2016-07-09T15:40:16Z</time><pdop>4.0</pdop><geoidheight>50.80</geoidheight><course>158.21948</course><type>1</type></trkpt>
      <trkpt lat="39.244013206199774" lon="-5.657139820236734"><ele>2616</ele><speed>11.21</speed><time>2016-07-09T15:40:17Z</time><pdop>4.0</pdop><geoidheight>50.80</geoidheight><course>158.0052</course><type>1</type></trkpt>
      <trkpt lat="39.24391722910082" lon="-5.6570889259040715"><ele>2618</ele><speed>11.54</speed><time>2016-07-09T15:40:18Z</time><pdop>4.0</pdop><geoidheight>50.80</geoidheight><course>157.77454</course><type>1</type></trkpt>
      <trkpt lat="39.24382284903191" lon="-5.657039174544495"><ele>2620</ele><speed>11.05</speed><time>2016-07-09T15:40:19Z</time><pdop>4.0</pdop><geoidheight>50.80</geoidheight><course>158.20761</course><type>1</type></trkpt>
      <trkpt lat="39.243733170668655" lon="-5.656994304231522"><ele>2622</ele><speed>10.31</speed><time>2016-07-09T15:40:20Z</time><pdop>4.0</pdop><geoidheight>50.80</geoidheight><course>159.10895</course><type>1</type></trkpt>
      <trkpt lat="39.243645217420536" lon="-5.6569509102156985"><ele>2625</ele><speed>10.41</speed><time>2016-07-09T15:40:21Z</time><pdop>4.0</pdop><geoidheight>50.80</geoidheight><course>159.45802</course><type>1</type></trkpt>
      <trkpt lat="39.24354823959061" lon="-5.65690190668732"><ele>2626</ele><speed>11.59</speed><time>2016-07-09T15:40:22Z</time><pdop>4.0</pdop><geoidheight>50.80</geoidheight><course>158.98709</course><type>1</type></trkpt>
      <trkpt lat="39.24346523390156" lon="-5.656860944003919"><ele>2629</ele><speed>11.89</speed><time>2016-07-09T15:40:23Z</time><pdop>4.0</pdop><geoidheight>50.80</geoidheight><course>158.1156</course><type>1</type></trkpt>
      <trkpt lat="39.243365756820964" lon="-5.65680478472148"><ele>2631</ele><speed>11.35</speed><time>2016-07-09T15:40:24Z</time><pdop>4.0</pdop><geoidheight>50.80</geoidheight><course>157.32379</course><type>1</type></trkpt>
      <trkpt lat="39.243274863274216" lon="-5.656752184585738"><ele>2634</ele><speed>10.11</speed><time>2016-07-09T15:40:25Z</time><pdop>4.0</pdop><geoidheight>50.80</geoidheight><course>156.36491</course><type>1</type></trkpt>
      <trkpt lat="39.24319358654827" lon="-5.6567059350802085"><ele>2636</ele><speed>9.43</speed><time>2016-07-09T15:40:26Z</time><pdop>4.0</pdop><geoidheight>50.80</geoidheight><course>157.19261</course><type>1</type></trkpt>
      <trkpt lat="39.243124115680644" lon="-5.656668479356881"><ele>2639</ele><speed>9.29</speed><time>2016-07-09T15:40:27Z</time><pdop>4.0</pdop><geoidheight>50.80</geoidheight><course>158.09387</course><type>1</type></trkpt>
      <trkpt lat="39.24304492480327" lon="-5.656629075209103"><ele>2641</ele><speed>10.01</speed><time>2016-07-09T15:40:28Z</time><pdop>4.0</pdop><geoidheight>50.80</geoidheight><course>158.80894</course><type>1</type></trkpt>
      <trkpt lat="39.242957260329824" lon="-5.656585802765249"><ele>2643</ele><speed>11.01</speed><time>2016-07-09T15:40:29Z</time><pdop>4.0</pdop><geoidheight>50.80</geoidheight><course>159.2867</course><type>1</type></trkpt>
      <trkpt lat="39.24286200271579" lon="-5.656540623292058"><ele>2645</ele><speed>11.36</speed><time>2016-07-09T15:40:30Z</time><pdop>4.0</pdop><geoidheight>50.80</geoidheight><course>160.06969</course><type>1</type></trkpt>
      <trkpt lat="39.24276707561485" lon="-5.656496322758688"><ele>2646</ele><speed>11.12</speed><time>2016-07-09T15:40:31Z</time><pdop>4.0</pdop><geoidheight>50.80</geoidheight><course>160.44649</course><type>1</type></trkpt>
      <trkpt lat="39.24267510295295" lon="-5.656452999707141"><ele>2648</ele><speed>10.66</speed><time>2016-07-09T15:40:32Z</time><pdop>4.0</pdop><geoidheight>50.80</geoidheight><course>160.01428</course><type>1</type></trkpt>
      <trkpt lat="39.242578554152715" lon="-5.656402561761055"><ele>2649</ele><speed>10.01</speed><time>2016-07-09T15:40:33Z</time><pdop>4.0</pdop><geoidheight>50.80</geoidheight><course>158.47581</course><type>1</type></trkpt>
      <trkpt lat="39.24249206763027" lon="-5.656356138043938"><ele>2649</ele><speed>9.67</speed><time>2016-07-09T15:40:34Z</time><pdop>4.0</pdop><geoidheight>50.80</geoidheight><course>157.72922</course><type>1</type></trkpt>
      <trkpt lat="39.24241112120803" lon="-5.6563135098743835"><ele>2650</ele><speed>9.42</speed><time>2016-07-09T15:40:35Z</time><pdop>4.0</pdop><geoidheight>50.80</geoidheight><course>158.69939</course><type>1</type></trkpt>
      <trkpt lat="39.24233123991578" lon="-5.656276202757201"><ele>2651</ele><speed>9.73</speed><time>2016-07-09T15:40:36Z</time><pdop>4.0</pdop><geoidheight>50.80</geoidheight><course>160.10747</course><type>1</type></trkpt>
      <trkpt lat="39.24224823124424" lon="-5.656238368215626"><ele>2651</ele><speed>9.71</speed><time>2016-07-09T15:40:37Z</time><pdop>4.0</pdop><geoidheight>50.80</geoidheight><course>160.45505</course><type>1</type></trkpt>
      <trkpt lat="39.242164535790096" lon="-5.656197597227976"><ele>2652</ele><speed>9.87</speed><time>2016-07-09T15:40:38Z</time><pdop>4.0</pdop><geoidheight>50.80</geoidheight><course>159.79805</course><type>1</type></trkpt>
      <trkpt lat="39.2420804209955" lon="-5.656154296563738"><ele>2652</ele><speed>9.94</speed><time>2016-07-09T15:40:39Z</time><pdop>4.0</pdop><geoidheight>50.80</geoidheight><course>159.09787</course><type>1</type></trkpt>
      <trkpt lat="39.24199682948583" lon="-5.6561125349224275"><ele>2652</ele><speed>9.99</speed><time>2016-07-09T15:40:40Z</time><pdop>4.0</pdop><geoidheight>50.80</geoidheight><course>159.61316</course><type>1</type></trkpt>
      <trkpt lat="39.241911753494904" lon="-5.656073755397897"><ele>2652</ele><speed>10.08</speed><time>2016-07-09T15:40:41Z</time><pdop>4.0</pdop><geoidheight>50.80</geoidheight><course>160.76942</course><type>1</type></trkpt>
      <trkpt lat="39.24182515925764" lon="-5.6560385435521034"><ele>2653</ele><speed>9.99</speed><time>2016-07-09T15:40:42Z</time><pdop>4.0</pdop><geoidheight>50.80</geoidheight><course>162.00395</course><type>1</type></trkpt>
      <trkpt lat="39.2417397891461" lon="-5.656007218188004"><ele>2653</ele><speed>9.70</speed><time>2016-07-09T15:40:43Z</time><pdop>4.0</pdop><geoidheight>50.80</geoidheight><course>163.29085</course><type>1</type></trkpt>
      <trkpt lat="39.24165525598882" lon="-5.65597698357088"><ele>2653</ele><speed>9.72</speed><time>2016-07-09T15:40:44Z</time><pdop>4.0</pdop><geoidheight>50.80</geoidheight><course>163.90666</course><type>1</type></trkpt>
      <trkpt lat="39.24156899578239" lon="-5.655942542860882"><ele>2654</ele><speed>10.21</speed><time>2016-07-09T15:40:44Z</time><pdop>4.0</pdop><geoidheight>50.80</geoidheight><course>162.1756</course><type>1</type></trkpt>
      <trkpt lat="39.241497431347014" lon="-5.655909661728357"><ele>2655</ele><speed>10.57</speed><time>2016-07-09T15:40:45Z</time><pdop>4.0</pdop><geoidheight>50.80</geoidheight><course>159.4422</course><type>1</type></trkpt>
      <trkpt lat="39.241317341452024" lon="-5.655807458299188"><ele>2656</ele><speed>10.94</speed><time>2016-07-09T15:40:48Z</time><pdop>8.0</pdop><geoidheight>50.80</geoidheight><course>156.39098</course><type>1</type></trkpt>
      <trkpt lat="39.24115182359784" lon="-5.655727337120005"><ele>2657</ele><speed>10.17</speed><time>2016-07-09T15:40:50Z</time><pdop>6.0</pdop><geoidheight>50.80</geoidheight><course>161.56444</course><type>1</type></trkpt>
      <trkpt lat="39.24096062948611" lon="-5.655657749518575"><ele>2656</ele><speed>11.16</speed><time>2016-07-09T15:40:52Z</time><pdop>6.0</pdop><geoidheight>50.80</geoidheight><course>164.8585</course><type>1</type></trkpt>
      <trkpt lat="39.24077618589959" lon="-5.655596010635227"><ele>2656</ele><speed>10.78</speed><time>2016-07-09T15:40:54Z</time><pdop>6.0</pdop><geoidheight>50.80</geoidheight><course>163.83418</course><type>1</type></trkpt>
      <trkpt lat="39.24058026932013" lon="-5.655526735964111"><ele>2655</ele><speed>11.26</speed><time>2016-07-09T15:40:56Z</time><pdop>6.0</pdop><geoidheight>50.80</geoidheight><course>165.02992</course><type>1</type></trkpt>
      <trkpt lat="39.24046727179102" lon="-5.655490480437717"><ele>2654</ele><speed>13.14</speed><time>2016-07-09T15:40:57Z</time><pdop>4.0</pdop><geoidheight>50.80</geoidheight><course>165.64091</course><type>1</type></trkpt>
      <trkpt lat="39.24034379876765" lon="-5.655449344379229"><ele>2651</ele><speed>14.53</speed><time>2016-07-09T15:40:58Z</time><pdop>4.0</pdop><geoidheight>50.80</geoidheight><course>165.0227</course><type>1</type></trkpt>
      <trkpt lat="39.240223918256554" lon="-5.655403174913764"><ele>2649</ele><speed>14.54</speed><time>2016-07-09T15:40:59Z</time><pdop>4.0</pdop><geoidheight>50.80</geoidheight><course>163.67839</course><type>1</type></trkpt>
      <trkpt lat="39.24010341846655" lon="-5.655350327995355"><ele>2646</ele><speed>13.75</speed><time>2016-07-09T15:41:00Z</time><pdop>4.0</pdop><geoidheight>50.80</geoidheight><course>162.08292</course><type>1</type></trkpt>
      <trkpt lat="39.23998839931209" lon="-5.655294632476322"><ele>2643</ele><speed>13.25</speed><time>2016-07-09T15:41:01Z</time><pdop>4.0</pdop><geoidheight>50.80</geoidheight><course>160.99507</course><type>1</type></trkpt>
      <trkpt lat="39.23987575077173" lon="-5.655240015661023"><ele>2641</ele><speed>13.17</speed><time>2016-07-09T15:41:02Z</time><pdop>4.0</pdop><geoidheight>50.80</geoidheight><course>160.27742</course><type>1</type></trkpt>
      <trkpt lat="39.239764015419475" lon="-5.655183151184869"><ele>2639</ele><speed>13.35</speed><time>2016-07-09T15:41:03Z</time><pdop>4.0</pdop><geoidheight>50.80</geoidheight><course>159.70644</course><type>1</type></trkpt>
      <trkpt lat="39.23965260926375" lon="-5.655128330424821"><ele>2637</ele><speed>13.54</speed><time>2016-07-09T15:41:04Z</time><pdop>4.0</pdop><geoidheight>50.80</geoidheight><course>160.62079</course><type>1</type></trkpt>
      <trkpt lat="39.239535759671575" lon="-5.655078811544309"><ele>2635</ele><speed>13.69</speed><time>2016-07-09T15:41:05Z</time><pdop>6.0</pdop><geoidheight>50.80</geoidheight><course>161.94826</course><type>1</type></trkpt>
      <trkpt lat="39.23942741228256" lon="-5.655036890437404"><ele>2634</ele><speed>13.46</speed><time>2016-07-09T15:41:06Z</time><pdop>4.0</pdop><geoidheight>50.80</geoidheight><course>162.87617</course><type>1</type></trkpt>
      <trkpt lat="39.23931351394734" lon="-5.654996122828127"><ele>2632</ele><speed>13.47</speed><time>2016-07-09T15:41:07Z</time><pdop>4.0</pdop><geoidheight>50.80</geoidheight><course>163.212</course><type>1</type></trkpt>
      <trkpt lat="39.23919816606666" lon="-5.654954175064281"><ele>2630</ele><speed>13.71</speed><time>2016-07-09T15:41:08Z</time><pdop>4.0</pdop><geoidheight>50.80</geoidheight><course>162.55727</course><type>1</type></trkpt>
      <trkpt lat="39.23907578850502" lon="-5.654903526114696"><ele>2627</ele><speed>14.26</speed><time>2016-07-09T15:41:09Z</time><pdop>4.0</pdop><geoidheight>50.80</geoidheight><course>161.68608</course><type>1</type></trkpt>
      <trkpt lat="39.238955378853035" lon="-5.654852883204573"><ele>2624</ele><speed>14.49</speed><time>2016-07-09T15:41:10Z</time><pdop>4.0</pdop><geoidheight>50.80</geoidheight><course>161.1514</course><type>1</type></trkpt>
      <trkpt lat="39.23883078958967" lon="-5.654798474272632"><ele>2621</ele><speed>14.79</speed><time>2016-07-09T15:41:11Z</time><pdop>4.0</pdop><geoidheight>50.80</geoidheight><course>161.16318</course><type>1</type></trkpt>
      <trkpt lat="39.238709562008836" lon="-5.65474725753836"><ele>2618</ele><speed>14.59</speed><time>2016-07-09T15:41:12Z</time><pdop>4.0</pdop><geoidheight>50.80</geoidheight><course>162.11946</course><type>1</type></trkpt>
      <trkpt lat="39.238586767499676" lon="-5.654703140888037"><ele>2615</ele><speed>14.14</speed><time>2016-07-09T15:41:13Z</time><pdop>4.0</pdop><geoidheight>50.80</geoidheight><course>163.67343</course><type>1</type></trkpt>
      <trkpt lat="39.23846586598574" lon="-5.654666095469767"><ele>2611</ele><speed>13.76</speed><time>2016-07-09T15:41:14Z</time><pdop>4.0</pdop><geoidheight>50.80</geoidheight><course>165.37344</course><type>1</type></trkpt>
      <trkpt lat="39.23833853982594" lon="-5.654631218666531"><ele>2608</ele><speed>13.67</speed><time>2016-07-09T15:41:15Z</time><pdop>4.0</pdop><geoidheight>50.80</geoidheight><course>167.07681</course><type>1</type></trkpt>
      <trkpt lat="39.23822197493306" lon="-5.654605468086469"><ele>2605</ele><speed>13.90</speed><time>2016-07-09T15:41:16Z</time><pdop>4.0</pdop><geoidheight>50.80</geoidheight><course>168.11343</course><type>1</type></trkpt>
      <trkpt lat="39.23809426626781" lon="-5.654577041638372"><ele>2602</ele><speed>14.82</speed><time>2016-07-09T15:41:17Z</time><pdop>4.0</pdop><geoidheight>50.80</geoidheight><course>168.94133</course><type>1</type></trkpt>
      <trkpt lat="39.237968870736005" lon="-5.654552221003397"><ele>2599</ele><speed>14.24</speed><time>2016-07-09T15:41:18Z</time><pdop>4.0</pdop><geoidheight>50.80</geoidheight><course>169.75536</course><type>1</type></trkpt>
      <trkpt lat="39.23785346974303" lon="-5.654534426770111"><ele>2596</ele><speed>12.32</speed><time>2016-07-09T15:41:19Z</time><pdop>4.0</pdop><geoidheight>50.80</geoidheight><course>171.1418</course><type>1</type></trkpt>
      <trkpt lat="39.23773998761691" lon="-5.654520435671815"><ele>2594</ele><speed>10.92</speed><time>2016-07-09T15:41:20Z</time><pdop>6.0</pdop><geoidheight>50.80</geoidheight><course>174.0352</course><type>1</type></trkpt>
      <trkpt lat="39.23753168970135" lon="-5.654531888200278"><ele>2590</ele><speed>12.28</speed><time>2016-07-09T15:41:22Z</time><pdop>6.0</pdop><geoidheight>50.80</geoidheight><course>181.79459</course><type>1</type></trkpt>
      <trkpt lat="39.23741607358028" lon="-5.65456117735449"><ele>2587</ele><speed>15.49</speed><time>2016-07-09T15:41:22Z</time><pdop>6.0</pdop><geoidheight>50.80</geoidheight><course>185.64464</course><type>1</type></trkpt>
      <trkpt lat="39.2372766871531" lon="-5.6545998346393445"><ele>2585</ele><speed>15.93</speed><time>2016-07-09T15:41:23Z</time><pdop>6.0</pdop><geoidheight>50.80</geoidheight><course>188.28278</course><type>1</type></trkpt>
      <trkpt lat="39.237141325916426" lon="-5.654636029187634"><ele>2582</ele><speed>15.79</speed><time>2016-07-09T15:41:25Z</time><pdop>6.0</pdop><geoidheight>50.80</geoidheight><course>189.08418</course><type>1</type></trkpt>
      <trkpt lat="39.23700274155576" lon="-5.654663300096802"><ele>2580</ele><speed>15.16</speed><time>2016-07-09T15:41:26Z</time><pdop>6.0</pdop><geoidheight>50.80</geoidheight><course>186.18687</course><type>1</type></trkpt>
      <trkpt lat="39.23687313694236" lon="-5.654672979330316"><ele>2578</ele><speed>14.32</speed><time>2016-07-09T15:41:27Z</time><pdop>6.0</pdop><geoidheight>50.80</geoidheight><course>182.76915</course><type>1</type></trkpt>
      <trkpt lat="39.23675551208242" lon="-5.654675498617871"><ele>2576</ele><speed>13.18</speed><time>2016-07-09T15:41:28Z</time><pdop>6.0</pdop><geoidheight>50.80</geoidheight><course>180.88985</course><type>1</type></trkpt>
      <trkpt lat="39.236547245443504" lon="-5.654689294213843"><ele>2571</ele><speed>9.70</speed><time>2016-07-09T15:41:30Z</time><pdop>8.0</pdop><geoidheight>50.80</geoidheight><course>184.35666</course><type>1</type></trkpt>
      <trkpt lat="39.23637021542575" lon="-5.65470934487101"><ele>2567</ele><speed>9.04</speed><time>2016-07-09T15:41:31Z</time><pdop>8.0</pdop><geoidheight>50.80</geoidheight><course>183.45383</course><type>1</type></trkpt>
      <trkpt lat="39.23617970346132" lon="-5.654713280012654"><ele>2563</ele><speed>11.62</speed><time>2016-07-09T15:41:34Z</time><pdop>8.0</pdop><geoidheight>50.80</geoidheight><course>179.95174</course><type>1</type></trkpt>
      <trkpt lat="39.235984150160334" lon="-5.654717043732479"><ele>2559</ele><speed>11.99</speed><time>2016-07-09T15:41:36Z</time><pdop>8.0</pdop><geoidheight>50.80</geoidheight><course>181.43297</course><type>1</type></trkpt>
      <trkpt lat="39.235777480881126" lon="-5.654724340705411"><ele>2554</ele><speed>11.40</speed><time>2016-07-09T15:41:38Z</time><pdop>6.0</pdop><geoidheight>50.80</geoidheight><course>181.14279</course><type>1</type></trkpt>
      <trkpt lat="39.23557908915926" lon="-5.654720138414192"><ele>2551</ele><speed>11.24</speed><time>2016-07-09T15:41:40Z</time><pdop>6.0</pdop><geoidheight>50.80</geoidheight><course>178.43193</course><type>1</type></trkpt>
      <trkpt lat="39.23536434215046" lon="-5.654702272702141"><ele>2546</ele><speed>11.76</speed><time>2016-07-09T15:41:42Z</time><pdop>6.0</pdop><geoidheight>50.80</geoidheight><course>176.17586</course><type>1</type></trkpt>
      <trkpt lat="39.235255909556976" lon="-5.654684120834516"><ele>2543</ele><speed>11.86</speed><time>2016-07-09T15:41:43Z</time><pdop>6.0</pdop><geoidheight>50.80</geoidheight><course>174.43913</course><type>1</type></trkpt>
      <trkpt lat="39.23514957446399" lon="-5.654658750182583"><ele>2540</ele><speed>11.87</speed><time>2016-07-09T15:41:44Z</time><pdop>6.0</pdop><geoidheight>50.80</geoidheight><course>172.24303</course><type>1</type></trkpt>
      <trkpt lat="39.235039898699455" lon="-5.654627234036028"><ele>2536</ele><speed>11.74</speed><time>2016-07-09T15:41:45Z</time><pdop>6.0</pdop><geoidheight>50.80</geoidheight><course>170.23505</course><type>1</type></trkpt>
      <trkpt lat="39.23493357110428" lon="-5.654597508417122"><ele>2533</ele><speed>11.70</speed><time>2016-07-09T15:41:46Z</time><pdop>4.0</pdop><geoidheight>50.80</geoidheight><course>169.71358</course><type>1</type></trkpt>
      <trkpt lat="39.23482663468084" lon="-5.654568129438839"><ele>2529</ele><speed>12.05</speed><time>2016-07-09T15:41:47Z</time><pdop>4.0</pdop><geoidheight>50.80</geoidheight><course>170.70047</course><type>1</type></trkpt>
      <trkpt lat="39.23471454249865" lon="-5.654544732693654"><ele>2526</ele><speed>12.50</speed><time>2016-07-09T15:41:48Z</time><pdop>4.0</pdop><geoidheight>50.80</geoidheight><course>172.00432</course><type>1</type></trkpt>
      <trkpt lat="39.23459935996698" lon="-5.654523096727127"><ele>2522</ele><speed>12.70</speed><time>2016-07-09T15:41:49Z</time><pdop>4.0</pdop><geoidheight>50.80</geoidheight><course>172.74376</course><type>1</type></trkpt>
      <trkpt lat="39.23448628383154" lon="-5.654506735064521"><ele>2518</ele><speed>12.74</speed><time>2016-07-09T15:41:50Z</time><pdop>4.0</pdop><geoidheight>50.80</geoidheight><course>173.07649</course><type>1</type></trkpt>
      <trkpt lat="39.23437222731163" lon="-5.654490977576679"><ele>2514</ele><speed>12.77</speed><time>2016-07-09T15:41:51Z</time><pdop>4.0</pdop><geoidheight>50.80</geoidheight><course>173.5769</course><type>1</type></trkpt>
      <trkpt lat="39.23425383891615" lon="-5.654474016113484"><ele>2510</ele><speed>12.59</speed><time>2016-07-09T15:41:52Z</time><pdop>4.0</pdop><geoidheight>50.80</geoidheight><course>172.97726</course><type>1</type></trkpt>
      <trkpt lat="39.23413852592529" lon="-5.654456684426917"><ele>2505</ele><speed>12.42</speed><time>2016-07-09T15:41:53Z</time><pdop>4.0</pdop><geoidheight>50.80</geoidheight><course>172.55023</course><type>1</type></trkpt>
      <trkpt lat="39.234025872544876" lon="-5.654434746744957"><ele>2500</ele><speed>12.29</speed><time>2016-07-09T15:41:54Z</time><pdop>4.0</pdop><geoidheight>50.80</geoidheight><course>171.46397</course><type>1</type></trkpt>
      <trkpt lat="39.23391141148107" lon="-5.654409417227784"><ele>2495</ele><speed>12.69</speed><time>2016-07-09T15:41:55Z</time><pdop>4.0</pdop><geoidheight>50.80</geoidheight><course>170.34633</course><type>1</type></trkpt>
      <trkpt lat="39.233792106953054" lon="-5.65438189042063"><ele>2490</ele><speed>13.41</speed><time>2016-07-09T15:41:56Z</time><pdop>4.0</pdop><geoidheight>50.80</geoidheight><course>169.98854</course><type>1</type></trkpt>
      <trkpt lat="39.23366777100306" lon="-5.654353506915875"><ele>2485</ele><speed>13.89</speed><time>2016-07-09T15:41:57Z</time><pdop>4.0</pdop><geoidheight>50.80</geoidheight><course>170.79446</course><type>1</type></trkpt>
      <trkpt lat="39.233551855919174" lon="-5.654335541932044"><ele>2481</ele><speed>13.47</speed><time>2016-07-09T15:41:58Z</time><pdop>4.0</pdop><geoidheight>50.80</geoidheight><course>172.40367</course><type>1</type></trkpt>
      <trkpt lat="39.23343764582612" lon="-5.65432379576525"><ele>2477</ele><speed>12.52</speed><time>2016-07-09T15:41:59Z</time><pdop>4.0</pdop><geoidheight>50.80</geoidheight><course>174.2537</course><type>1</type></trkpt>
      <trkpt lat="39.233326253000584" lon="-5.65431656122417"><ele>2474</ele><speed>12.06</speed><time>2016-07-09T15:42:00Z</time><pdop>4.0</pdop><geoidheight>50.80</geoidheight><course>175.69846</course><type>1</type></trkpt>
      <trkpt lat="39.23321415559734" lon="-5.654310130985696"><ele>2471</ele><speed>12.32</speed><time>2016-07-09T15:42:01Z</time><pdop>4.0</pdop><geoidheight>50.80</geoidheight><course>176.64793</course><type>1</type></trkpt>
      <trkpt lat="39.23309906818333" lon="-5.654307596789697"><ele>2467</ele><speed>12.73</speed><time>2016-07-09T15:42:02Z</time><pdop>4.0</pdop><geoidheight>50.80</geoidheight><course>177.58719</course><type>1</type></trkpt>
      <trkpt lat="39.23298114329744" lon="-5.65430260010403"><ele>2464</ele><speed>12.96</speed><time>2016-07-09T15:42:03Z</time><pdop>4.0</pdop><geoidheight>50.80</geoidheight><course>177.04956</course><type>1</type></trkpt>
      <trkpt lat="39.23285903658336" lon="-5.654290093751572"><ele>2460</ele><speed>13.05</speed><time>2016-07-09T15:42:04Z</time><pdop>4.0</pdop><geoidheight>50.80</geoidheight><course>175.84288</course><type>1</type></trkpt>
      <trkpt lat="39.23274579507846" lon="-5.654278237174622"><ele>2457</ele><speed>12.93</speed><time>2016-07-09T15:42:05Z</time><pdop>4.0</pdop><geoidheight>50.80</geoidheight><course>174.96617</course><type>1</type></trkpt>
      <trkpt lat="39.2326323926325" lon="-5.654265348400535"><ele>2453</ele><speed>12.50</speed><time>2016-07-09T15:42:06Z</time><pdop>4.0</pdop><geoidheight>50.80</geoidheight><course>175.30682</course><type>1</type></trkpt>
      <trkpt lat="39.23251996993675" lon="-5.6542536961306835"><ele>2450</ele><speed>12.37</speed><time>2016-07-09T15:42:07Z</time><pdop>4.0</pdop><geoidheight>50.80</geoidheight><course>176.21233</course><type>1</type></trkpt>
      <trkpt lat="39.232402496816505" lon="-5.654241372623999"><ele>2447</ele><speed>12.14</speed><time>2016-07-09T15:42:08Z</time><pdop>4.0</pdop><geoidheight>50.80</geoidheight><course>176.64955</course><type>1</type></trkpt>
      <trkpt lat="39.23228902452029" lon="-5.654230439932976"><ele>2443</ele><speed>11.95</speed><time>2016-07-09T15:42:09Z</time><pdop>4.0</pdop><geoidheight>50.80</geoidheight><course>176.02527</course><type>1</type></trkpt>
      <trkpt lat="39.232187662981566" lon="-5.654219832675714"><ele>2440</ele><speed>11.85</speed><time>2016-07-09T15:42:10Z</time><pdop>4.0</pdop><geoidheight>50.80</geoidheight><course>175.14119</course><type>1</type></trkpt>
      <trkpt lat="39.232082641412546" lon="-5.654204886259099"><ele>2436</ele><speed>12.01</speed><time>2016-07-09T15:42:11Z</time><pdop>4.0</pdop><geoidheight>50.80</geoidheight><course>173.71423</course><type>1</type></trkpt>
      <trkpt lat="39.23197472553349" lon="-5.6541834867829115"><ele>2433</ele><speed>12.16</speed><time>2016-07-09T15:42:12Z</time><pdop>4.0</pdop><geoidheight>50.80</geoidheight><course>172.39714</course><type>1</type></trkpt>
      <trkpt lat="39.23186683223565" lon="-5.65415946613871"><ele>2430</ele><speed>12.06</speed><time>2016-07-09T15:42:13Z</time><pdop>4.0</pdop><geoidheight>50.80</geoidheight><course>171.83887</course><type>1</type></trkpt>
      <trkpt lat="39.231757625945804" lon="-5.6541334539092025"><ele>2427</ele><speed>12.03</speed><time>2016-07-09T15:42:14Z</time><pdop>4.0</pdop><geoidheight>50.80</geoidheight><course>171.25716</course><type>1</type></trkpt>
      <trkpt lat="39.23164600493657" lon="-5.654107921079359"><ele>2424</ele><speed>12.06</speed><time>2016-07-09T15:42:14Z</time><pdop>4.0</pdop><geoidheight>50.80</geoidheight><course>171.11542</course><type>1</type></trkpt>
      <trkpt lat="39.23153913274418" lon="-5.65408254554921"><ele>2420</ele><speed>12.11</speed><time>2016-07-09T15:42:15Z</time><pdop>4.0</pdop><geoidheight>50.80</geoidheight><course>170.1244</course><type>1</type></trkpt>
      <trkpt lat="39.23143518941104" lon="-5.654054810418738"><ele>2417</ele><speed>12.37</speed><time>2016-07-09T15:42:17Z</time><pdop>6.0</pdop><geoidheight>50.80</geoidheight><course>169.00227</course><type>1</type></trkpt>
      <trkpt lat="39.231216876571175" lon="-5.653983149041536"><ele>2410</ele><speed>12.80</speed><time>2016-07-09T15:42:19Z</time><pdop>6.0</pdop><geoidheight>50.80</geoidheight><course>166.71274</course><type>1</type></trkpt>
      <trkpt lat="39.23110474413217" lon="-5.653945218193858"><ele>2406</ele><speed>12.56</speed><time>2016-07-09T15:42:20Z</time><pdop>6.0</pdop><geoidheight>50.80</geoidheight><course>165.94188</course><type>1</type></trkpt>
      <trkpt lat="39.23099480440314" lon="-5.653903366939509"><ele>2402</ele><speed>12.14</speed><time>2016-07-09T15:42:21Z</time><pdop>4.0</pdop><geoidheight>50.80</geoidheight><course>164.94112</course><type>1</type></trkpt>
      <trkpt lat="39.23088630063243" lon="-5.653857374396151"><ele>2398</ele><speed>11.54</speed><time>2016-07-09T15:42:22Z</time><pdop>4.0</pdop><geoidheight>50.80</geoidheight><course>162.98737</course><type>1</type></trkpt>
      <trkpt lat="39.23079113465497" lon="-5.653809953734082"><ele>2394</ele><speed>10.95</speed><time>2016-07-09T15:42:23Z</time><pdop>4.0</pdop><geoidheight>50.80</geoidheight><course>160.49693</course><type>1</type></trkpt>
      <trkpt lat="39.23069869397524" lon="-5.653759306123173"><ele>2391</ele><speed>10.90</speed><time>2016-07-09T15:42:24Z</time><pdop>4.0</pdop><geoidheight>50.80</geoidheight><course>159.1197</course><type>1</type></trkpt>
      <trkpt lat="39.23060891329297" lon="-5.653710832261931"><ele>2387</ele><speed>11.32</speed><time>2016-07-09T15:42:25Z</time><pdop>6.0</pdop><geoidheight>50.80</geoidheight><course>158.32936</course><type>1</type></trkpt>
      <trkpt lat="39.23041584335054" lon="-5.653611883414374"><ele>2381</ele><speed>12.05</speed><time>2016-07-09T15:42:27Z</time><pdop>6.0</pdop><geoidheight>50.80</geoidheight><course>158.636</course><type>1</type></trkpt>
      <trkpt lat="39.23022290880634" lon="-5.653516554877688"><ele>2375</ele><speed>11.14</speed><time>2016-07-09T15:42:29Z</time><pdop>6.0</pdop><geoidheight>50.80</geoidheight><course>158.99857</course><type>1</type></trkpt>
      <trkpt lat="39.2300312962132" lon="-5.653435264910778"><ele>2369</ele><speed>10.97</speed><time>2016-07-09T15:42:30Z</time><pdop>6.0</pdop><geoidheight>50.80</geoidheight><course>161.70636</course><type>1</type></trkpt>
      <trkpt lat="39.2298282465828" lon="-5.653359450630678"><ele>2363</ele><speed>12.47</speed><time>2016-07-09T15:42:33Z</time><pdop>8.0</pdop><geoidheight>50.80</geoidheight><course>163.3297</course><type>1</type></trkpt>
      <trkpt lat="39.229597524336604" lon="-5.653276151443021"><ele>2357</ele><speed>12.70</speed><time>2016-07-09T15:42:35Z</time><pdop>8.0</pdop><geoidheight>50.80</geoidheight><course>164.27193</course><type>1</type></trkpt>
      <trkpt lat="39.22937773277762" lon="-5.653205842943228"><ele>2350</ele><speed>11.35</speed><time>2016-07-09T15:42:37Z</time><pdop>6.0</pdop><geoidheight>50.80</geoidheight><course>163.99208</course><type>1</type></trkpt>
      <trkpt lat="39.22918540576949" lon="-5.653151337963612"><ele>2345</ele><speed>11.04</speed><time>2016-07-09T15:42:38Z</time><pdop>6.0</pdop><geoidheight>50.80</geoidheight><course>163.89464</course><type>1</type></trkpt>
      <trkpt lat="39.22898809578393" lon="-5.653081587722117"><ele>2338</ele><speed>12.03</speed><time>2016-07-09T15:42:41Z</time><pdop>8.0</pdop><geoidheight>50.80</geoidheight><course>161.35722</course><type>1</type></trkpt>
      <trkpt lat="39.228796628316374" lon="-5.653003175909016"><ele>2333</ele><speed>11.41</speed><time>2016-07-09T15:42:43Z</time><pdop>6.0</pdop><geoidheight>50.80</geoidheight><course>158.74168</course><type>1</type></trkpt>
      <trkpt lat="39.228624217093795" lon="-5.652924484266665"><ele>2327</ele><speed>10.58</speed><time>2016-07-09T15:42:45Z</time><pdop>6.0</pdop><geoidheight>50.80</geoidheight><course>156.43335</course><type>1</type></trkpt>
      <trkpt lat="39.22845242996987" lon="-5.652829635005434"><ele>2321</ele><speed>11.40</speed><time>2016-07-09T15:42:47Z</time><pdop>6.0</pdop><geoidheight>50.80</geoidheight><course>154.29584</course><type>1</type></trkpt>
      <trkpt lat="39.228269683861456" lon="-5.652736358204886"><ele>2313</ele><speed>10.61</speed><time>2016-07-09T15:42:49Z</time><pdop>6.0</pdop><geoidheight>50.80</geoidheight><course>157.39302</course><type>1</type></trkpt>
      <trkpt lat="39.22808512869038" lon="-5.652660598529141"><ele>2305</ele><speed>10.01</speed><time>2016-07-09T15:42:51Z</time><pdop>6.0</pdop><geoidheight>50.80</geoidheight><course>160.94269</course><type>1</type></trkpt>
      <trkpt lat="39.227901529778734" lon="-5.652592055642798"><ele>2298</ele><speed>11.30</speed><time>2016-07-09T15:42:53Z</time><pdop>6.0</pdop><geoidheight>50.80</geoidheight><course>159.96771</course><type>1</type></trkpt>
      <trkpt lat="39.227704562020136" lon="-5.652502640438361"><ele>2290</ele><speed>10.34</speed><time>2016-07-09T15:42:55Z</time><pdop>4.0</pdop><geoidheight>50.80</geoidheight><course>159.94594</course><type>1</type></trkpt>
      <trkpt lat="39.22762063472157" lon="-5.652467391791757"><ele>2286</ele><speed>9.58</speed><time>2016-07-09T15:42:56Z</time><pdop>4.0</pdop><geoidheight>50.80</geoidheight><course>160.37097</course><type>1</type></trkpt>
      <trkpt lat="39.22753018265052" lon="-5.652427130514323"><ele>2283</ele><speed>9.99</speed><time>2016-07-09T15:42:57Z</time><pdop>4.0</pdop><geoidheight>50.80</geoidheight><course>159.54214</course><type>1</type></trkpt>
      <trkpt lat="39.227434393941344" lon="-5.652383186303293"><ele>2279</ele><speed>11.01</speed><time>2016-07-09T15:42:58Z</time><pdop>4.0</pdop><geoidheight>50.80</geoidheight><course>158.78256</course><type>1</type></trkpt>
      <trkpt lat="39.227347828735724" lon="-5.652340782000085"><ele>2275</ele><speed>11.66</speed><time>2016-07-09T15:42:59Z</time><pdop>6.0</pdop><geoidheight>50.80</geoidheight><course>157.09874</course><type>1</type></trkpt>
      <trkpt lat="39.227158036808724" lon="-5.6522367475774615"><ele>2268</ele><speed>11.59</speed><time>2016-07-09T15:43:01Z</time><pdop>6.0</pdop><geoidheight>50.80</geoidheight><course>156.40578</course><type>1</type></trkpt>
      <trkpt lat="39.22698256265411" lon="-5.652155501807359"><ele>2262</ele><speed>11.16</speed><time>2016-07-09T15:43:03Z</time><pdop>8.0</pdop><geoidheight>50.80</geoidheight><course>157.0533</course><type>1</type></trkpt>
      <trkpt lat="39.226816131233555" lon="-5.6520789172399235"><ele>2257</ele><speed>9.93</speed><time>2016-07-09T15:43:05Z</time><pdop>8.0</pdop><geoidheight>50.80</geoidheight><course>154.92493</course><type>1</type></trkpt>
      <trkpt lat="39.226668801180864" lon="-5.652008082597196"><ele>2252</ele><speed>10.67</speed><time>2016-07-09T15:43:07Z</time><pdop>6.0</pdop><geoidheight>50.80</geoidheight><course>152.75507</course><type>1</type></trkpt>
      <trkpt lat="39.22648826948394" lon="-5.651901549108334"><ele>2247</ele><speed>11.11</speed><time>2016-07-09T15:43:08Z</time><pdop>6.0</pdop><geoidheight>50.80</geoidheight><course>153.71838</course><type>1</type></trkpt>
      <trkpt lat="39.22631506149636" lon="-5.651778577035582"><ele>2241</ele><speed>10.19</speed><time>2016-07-09T15:43:10Z</time><pdop>6.0</pdop><geoidheight>50.80</geoidheight><course>152.56274</course><type>1</type></trkpt>
      <trkpt lat="39.22616252570853" lon="-5.651650625038758"><ele>2238</ele><speed>10.04</speed><time>2016-07-09T15:43:13Z</time><pdop>6.0</pdop><geoidheight>50.80</geoidheight><course>146.43321</course><type>1</type></trkpt>
      <trkpt lat="39.22600299722339" lon="-5.65150835154864"><ele>2234</ele><speed>11.06</speed><time>2016-07-09T15:43:15Z</time><pdop>6.0</pdop><geoidheight>50.80</geoidheight><course>148.26892</course><type>1</type></trkpt>
      <trkpt lat="39.225815894797066" lon="-5.651382054430527"><ele>2229</ele><speed>11.61</speed><time>2016-07-09T15:43:17Z</time><pdop>6.0</pdop><geoidheight>50.80</geoidheight><course>154.19302</course><type>1</type></trkpt>
      <trkpt lat="39.22562953337998" lon="-5.651289549841695"><ele>2225</ele><speed>10.66</speed><time>2016-07-09T15:43:19Z</time><pdop>8.0</pdop><geoidheight>50.80</geoidheight><course>157.2996</course><type>1</type></trkpt>
      <trkpt lat="39.225433486192046" lon="-5.651206294239769"><ele>2220</ele><speed>11.64</speed><time>2016-07-09T15:43:21Z</time><pdop>6.0</pdop><geoidheight>50.80</geoidheight><course>159.0443</course><type>1</type></trkpt>
      <trkpt lat="39.22532669088865" lon="-5.651154283848248"><ele>2216</ele><speed>12.26</speed><time>2016-07-09T15:43:22Z</time><pdop>6.0</pdop><geoidheight>50.80</geoidheight><course>157.92494</course><type>1</type></trkpt>
      <trkpt lat="39.22522079539016" lon="-5.651098789347987"><ele>2213</ele><speed>12.27</speed><time>2016-07-09T15:43:23Z</time><pdop>6.0</pdop><geoidheight>50.80</geoidheight><course>156.42667</course><type>1</type></trkpt>
      <trkpt lat="39.22502739652971" lon="-5.650985735769803"><ele>2207</ele><speed>11.56</speed><time>2016-07-09T15:43:25Z</time><pdop>6.0</pdop><geoidheight>50.80</geoidheight><course>154.03354</course><type>1</type></trkpt>
      <trkpt lat="39.22483916983517" lon="-5.650869403185576"><ele>2200</ele><speed>11.60</speed><time>2016-07-09T15:43:27Z</time><pdop>6.0</pdop><geoidheight>50.80</geoidheight><course>152.9191</course><type>1</type></trkpt>
      <trkpt lat="39.224665552596434" lon="-5.650740516446064"><ele>2193</ele><speed>12.53</speed><time>2016-07-09T15:43:29Z</time><pdop>6.0</pdop><geoidheight>50.80</geoidheight><course>148.5391</course><type>1</type></trkpt>
      <trkpt lat="39.22448993239504" lon="-5.650590209423598"><ele>2188</ele><speed>11.89</speed><time>2016-07-09T15:43:31Z</time><pdop>6.0</pdop><geoidheight>50.80</geoidheight><course>145.99966</course><type>1</type></trkpt>
      <trkpt lat="39.224400431372075" lon="-5.650509178517577"><ele>2185</ele><speed>11.64</speed><time>2016-07-09T15:43:32Z</time><pdop>6.0</pdop><geoidheight>50.80</geoidheight><course>145.61945</course><type>1</type></trkpt>
      <trkpt lat="39.22422620729099" lon="-5.650350419604944"><ele>2180</ele><speed>12.14</speed><time>2016-07-09T15:43:34Z</time><pdop>6.0</pdop><geoidheight>50.80</geoidheight><course>144.36993</course><type>1</type></trkpt>
      <trkpt lat="39.22404777706919" lon="-5.650192044699047"><ele>2174</ele><speed>12.42</speed><time>2016-07-09T15:43:36Z</time><pdop>6.0</pdop><geoidheight>50.80</geoidheight><course>143.16191</course><type>1</type></trkpt>
      <trkpt lat="39.22389006248642" lon="-5.650045717838349"><ele>2168</ele><speed>10.64</speed><time>2016-07-09T15:43:38Z</time><pdop>6.0</pdop><geoidheight>50.80</geoidheight><course>140.73853</course><type>1</type></trkpt>
      <trkpt lat="39.223733922893395" lon="-5.649878244741266"><ele>2162</ele><speed>11.31</speed><time>2016-07-09T15:43:39Z</time><pdop>6.0</pdop><geoidheight>50.80</geoidheight><course>138.71281</course><type>1</type></trkpt>
      <trkpt lat="39.22357399848308" lon="-5.64970313995891"><ele>2157</ele><speed>12.28</speed><time>2016-07-09T15:43:42Z</time><pdop>8.0</pdop><geoidheight>50.80</geoidheight><course>139.94444</course><type>1</type></trkpt>
      <trkpt lat="39.22341012236588" lon="-5.649526066376326"><ele>2151</ele><speed>11.46</speed><time>2016-07-09T15:43:44Z</time><pdop>8.0</pdop><geoidheight>50.80</geoidheight><course>140.23866</course><type>1</type></trkpt>
      <trkpt lat="39.22325281776025" lon="-5.649377776137572"><ele>2146</ele><speed>10.72</speed><time>2016-07-09T15:43:46Z</time><pdop>6.0</pdop><geoidheight>50.80</geoidheight><course>143.46358</course><type>1</type></trkpt>
      <trkpt lat="39.22308237571714" lon="-5.649244988543135"><ele>2140</ele><speed>12.03</speed><time>2016-07-09T15:43:48Z</time><pdop>6.0</pdop><geoidheight>50.80</geoidheight><course>144.21533</course><type>1</type></trkpt>
      <trkpt lat="39.22290189938336" lon="-5.649110982135845"><ele>2133</ele><speed>12.18</speed><time>2016-07-09T15:43:50Z</time><pdop>6.0</pdop><geoidheight>50.80</geoidheight><course>144.60434</course><type>1</type></trkpt>
      <trkpt lat="39.222726283031534" lon="-5.648988892933279"><ele>2127</ele><speed>11.56</speed><time>2016-07-09T15:43:52Z</time><pdop>6.0</pdop><geoidheight>50.80</geoidheight><course>147.34688</course><type>1</type></trkpt>
      <trkpt lat="39.222536819785354" lon="-5.648892439548456"><ele>2122</ele><speed>11.53</speed><time>2016-07-09T15:43:54Z</time><pdop>6.0</pdop><geoidheight>50.80</geoidheight><course>152.83372</course><type>1</type></trkpt>
      <trkpt lat="39.22235021432906" lon="-5.648807737431379"><ele>2116</ele><speed>11.98</speed><time>2016-07-09T15:43:56Z</time><pdop>6.0</pdop><geoidheight>50.80</geoidheight><course>152.72636</course><type>1</type></trkpt>
      <trkpt lat="39.22224932956921" lon="-5.648749200377832"><ele>2113</ele><speed>11.91</speed><time>2016-07-09T15:43:57Z</time><pdop>6.0</pdop><geoidheight>50.80</geoidheight><course>151.41455</course><type>1</type></trkpt>
      <trkpt lat="39.22205691780165" lon="-5.648641888519519"><ele>2109</ele><speed>12.00</speed><time>2016-07-09T15:43:59Z</time><pdop>6.0</pdop><geoidheight>50.80</geoidheight><course>151.98787</course><type>1</type></trkpt>
      <trkpt lat="39.22194087098459" lon="-5.648658963403442"><ele>2107</ele><speed>13.29</speed><time>2016-07-09T15:44:00Z</time><pdop>6.0</pdop><geoidheight>50.80</geoidheight><course>187.46657</course><type>1</type></trkpt>
      <trkpt lat="39.22182180110342" lon="-5.648727838757309"><ele>2105</ele><speed>16.78</speed><time>2016-07-09T15:44:00Z</time><pdop>6.0</pdop><geoidheight>50.80</geoidheight><course>206.37076</course><type>1</type></trkpt>
      <trkpt lat="39.22170558196486" lon="-5.648802473613512"><ele>2102</ele><speed>16.09</speed><time>2016-07-09T15:44:01Z</time><pdop>6.0</pdop><geoidheight>50.80</geoidheight><course>210.21982</course><type>1</type></trkpt>
      <trkpt lat="39.22162638831432" lon="-5.64893689858749"><ele>2099</ele><speed>15.30</speed><time>2016-07-09T15:44:03Z</time><pdop>6.0</pdop><geoidheight>50.80</geoidheight><course>235.13516</course><type>1</type></trkpt>
      <trkpt lat="39.22158530168077" lon="-5.64907469429241"><ele>2097</ele><speed>13.30</speed><time>2016-07-09T15:44:04Z</time><pdop>6.0</pdop><geoidheight>50.80</geoidheight><course>252.17642</course><type>1</type></trkpt>
      <trkpt lat="39.2215971051082" lon="-5.649349330699206"><ele>2093</ele><speed>10.85</speed><time>2016-07-09T15:44:06Z</time><pdop>8.0</pdop><geoidheight>50.80</geoidheight><course>286.6917</course><type>1</type></trkpt>
      <trkpt lat="39.22164578681068" lon="-5.649584794139937"><ele>2089</ele><speed>11.06</speed><time>2016-07-09T15:44:08Z</time><pdop>8.0</pdop><geoidheight>50.80</geoidheight><course>285.11588</course><type>1</type></trkpt>
      <trkpt lat="39.22170373018736" lon="-5.6498703359173845"><ele>2083</ele><speed>12.60</speed><time>2016-07-09T15:44:10Z</time><pdop>8.0</pdop><geoidheight>50.80</geoidheight><course>284.00916</course><type>1</type></trkpt>
      <trkpt lat="39.22176672183489" lon="-5.650120381005373"><ele>2078</ele><speed>10.89</speed><time>2016-07-09T15:44:11Z</time><pdop>6.0</pdop><geoidheight>50.80</geoidheight><course>289.79105</course><type>1</type></trkpt>
      <trkpt lat="39.22184259330216" lon="-5.65034164064233"><ele>2073</ele><speed>10.36</speed><time>2016-07-09T15:44:14Z</time><pdop>8.0</pdop><geoidheight>50.80</geoidheight><course>293.98813</course><type>1</type></trkpt>
      <trkpt lat="39.22192283901742" lon="-5.65055148960702"><ele>2067</ele><speed>10.99</speed><time>2016-07-09T15:44:16Z</time><pdop>8.0</pdop><geoidheight>50.80</geoidheight><course>294.72452</course><type>1</type></trkpt>
      <trkpt lat="39.222011133760375" lon="-5.650755943841569"><ele>2061</ele><speed>10.31</speed><time>2016-07-09T15:44:17Z</time><pdop>6.0</pdop><geoidheight>50.80</geoidheight><course>298.18472</course><type>1</type></trkpt>
      <trkpt lat="39.22209678955849" lon="-5.650922564609266"><ele>2055</ele><speed>9.40</speed><time>2016-07-09T15:44:20Z</time><pdop>8.0</pdop><geoidheight>50.80</geoidheight><course>301.01572</course><type>1</type></trkpt>
      <trkpt lat="39.22219557864484" lon="-5.651107385626683"><ele>2049</ele><speed>10.59</speed><time>2016-07-09T15:44:22Z</time><pdop>8.0</pdop><geoidheight>50.80</geoidheight><course>301.1716</course><type>1</type></trkpt>
      <trkpt lat="39.22229240677895" lon="-5.651308399448711"><ele>2044</ele><speed>9.99</speed><time>2016-07-09T15:44:24Z</time><pdop>6.0</pdop><geoidheight>50.80</geoidheight><course>298.02762</course><type>1</type></trkpt>
      <trkpt lat="39.22236344970015" lon="-5.651512947703413"><ele>2039</ele><speed>10.72</speed><time>2016-07-09T15:44:26Z</time><pdop>6.0</pdop><geoidheight>50.80</geoidheight><course>293.0212</course><type>1</type></trkpt>
      <trkpt lat="39.22249831719909" lon="-5.651851790851847"><ele>2029</ele><speed>12.78</speed><time>2016-07-09T15:44:29Z</time><pdop>6.0</pdop><geoidheight>50.80</geoidheight><course>300.2319</course><type>1</type></trkpt>
      <trkpt lat="39.222562630774284" lon="-5.651970669433787"><ele>2026</ele><speed>12.94</speed><time>2016-07-09T15:44:30Z</time><pdop>6.0</pdop><geoidheight>50.80</geoidheight><course>304.07672</course><type>1</type></trkpt>
      <trkpt lat="39.222691828443764" lon="-5.652190359774322"><ele>2020</ele><speed>12.08</speed><time>2016-07-09T15:44:31Z</time><pdop>6.0</pdop><geoidheight>50.80</geoidheight><course>306.21997</course><type>1</type></trkpt>
      <trkpt lat="39.22281883259877" lon="-5.652417828536079"><ele>2015</ele><speed>12.65</speed><time>2016-07-09T15:44:34Z</time><pdop>8.0</pdop><geoidheight>50.80</geoidheight><course>304.88562</course><type>1</type></trkpt>
      <trkpt lat="39.22294949211843" lon="-5.65265329750076"><ele>2010</ele><speed>13.13</speed><time>2016-07-09T15:44:36Z</time><pdop>8.0</pdop><geoidheight>50.80</geoidheight><course>305.39688</course><type>1</type></trkpt>
      <trkpt lat="39.223079983698355" lon="-5.652895187977951"><ele>2004</ele><speed>13.04</speed><time>2016-07-09T15:44:38Z</time><pdop>6.0</pdop><geoidheight>50.80</geoidheight><course>303.811</course><type>1</type></trkpt>
      <trkpt lat="39.22314340343658" lon="-5.653020905421371"><ele>2001</ele><speed>13.00</speed><time>2016-07-09T15:44:39Z</time><pdop>6.0</pdop><geoidheight>50.80</geoidheight><course>302.7516</course><type>1</type></trkpt>
      <trkpt lat="39.223206029089326" lon="-5.653146618972482"><ele>1999</ele><speed>13.07</speed><time>2016-07-09T15:44:40Z</time><pdop>6.0</pdop><geoidheight>50.80</geoidheight><course>301.954</course><type>1</type></trkpt>
      <trkpt lat="39.22326503154875" lon="-5.653274893730031"><ele>1996</ele><speed>13.13</speed><time>2016-07-09T15:44:41Z</time><pdop>6.0</pdop><geoidheight>50.80</geoidheight><course>301.18326</course><type>1</type></trkpt>
      <trkpt lat="39.2233221689453" lon="-5.653398880170246"><ele>1994</ele><speed>13.16</speed><time>2016-07-09T15:44:42Z</time><pdop>6.0</pdop><geoidheight>50.80</geoidheight><course>300.5947</course><type>1</type></trkpt>
      <trkpt lat="39.22337915106241" lon="-5.653521968157116"><ele>1991</ele><speed>13.21</speed><time>2016-07-09T15:44:43Z</time><pdop>6.0</pdop><geoidheight>50.80</geoidheight><course>300.7267</course><type>1</type></trkpt>
      <trkpt lat="39.22343658047822" lon="-5.653647244451343"><ele>1988</ele><speed>13.26</speed><time>2016-07-09T15:44:44Z</time><pdop>6.0</pdop><geoidheight>50.80</geoidheight><course>301.27832</course><type>1</type></trkpt>
      <trkpt lat="39.22349552047273" lon="-5.65377608062667"><ele>1985</ele><speed>13.29</speed><time>2016-07-09T15:44:44Z</time><pdop>6.0</pdop><geoidheight>50.80</geoidheight><course>300.87933</course><type>1</type></trkpt>
      <trkpt lat="39.22355428690395" lon="-5.653905190614118"><ele>1983</ele><speed>13.29</speed><time>2016-07-09T15:44:45Z</time><pdop>6.0</pdop><geoidheight>50.80</geoidheight><course>300.2822</course><type>1</type></trkpt>
      <trkpt lat="39.22367681027098" lon="-5.654183885228815"><ele>1978</ele><speed>13.42</speed><time>2016-07-09T15:44:48Z</time><pdop>8.0</pdop><geoidheight>50.80</geoidheight><course>300.45526</course><type>1</type></trkpt>
      <trkpt lat="39.2237947461387" lon="-5.654456870428426"><ele>1975</ele><speed>13.39</speed><time>2016-07-09T15:44:50Z</time><pdop>6.0</pdop><geoidheight>50.80</geoidheight><course>299.40738</course><type>1</type></trkpt>
      <trkpt lat="39.223853547407785" lon="-5.654591480796071"><ele>1974</ele><speed>13.41</speed><time>2016-07-09T15:44:51Z</time><pdop>6.0</pdop><geoidheight>50.80</geoidheight><course>300.08286</course><type>1</type></trkpt>
      <trkpt lat="39.22391197727496" lon="-5.654724843348569"><ele>1972</ele><speed>13.53</speed><time>2016-07-09T15:44:52Z</time><pdop>6.0</pdop><geoidheight>50.80</geoidheight><course>300.48862</course><type>1</type></trkpt>
      <trkpt lat="39.22397260159213" lon="-5.6548618321115365"><ele>1970</ele><speed>13.67</speed><time>2016-07-09T15:44:52Z</time><pdop>6.0</pdop><geoidheight>50.80</geoidheight><course>301.0723</course><type>1</type></trkpt>
      <trkpt lat="39.2240932664898" lon="-5.655121142123318"><ele>1965</ele><speed>13.41</speed><time>2016-07-09T15:44:55Z</time><pdop>8.0</pdop><geoidheight>50.80</geoidheight><course>301.75848</course><type>1</type></trkpt>
      <trkpt lat="39.22420406000911" lon="-5.655366615836108"><ele>1961</ele><speed>13.20</speed><time>2016-07-09T15:44:57Z</time><pdop>8.0</pdop><geoidheight>50.80</geoidheight><course>302.15298</course><type>1</type></trkpt>
      <trkpt lat="39.2243173442165" lon="-5.655609955454801"><ele>1956</ele><speed>13.41</speed><time>2016-07-09T15:44:59Z</time><pdop>6.0</pdop><geoidheight>50.80</geoidheight><course>301.97467</course><type>1</type></trkpt>
      <trkpt lat="39.224378615256455" lon="-5.655739587650157"><ele>1953</ele><speed>13.64</speed><time>2016-07-09T15:45:00Z</time><pdop>6.0</pdop><geoidheight>50.80</geoidheight><course>302.4729</course><type>1</type></trkpt>
      <trkpt lat="39.22444240889118" lon="-5.655869488505583"><ele>1950</ele><speed>13.74</speed><time>2016-07-09T15:45:01Z</time><pdop>6.0</pdop><geoidheight>50.80</geoidheight><course>302.8368</course><type>1</type></trkpt>
      <trkpt lat="39.22450563142616" lon="-5.655997718872892"><ele>1948</ele><speed>13.47</speed><time>2016-07-09T15:45:02Z</time><pdop>6.0</pdop><geoidheight>50.80</geoidheight><course>303.29062</course><type>1</type></trkpt>
      <trkpt lat="39.224570829720435" lon="-5.6561300466157265"><ele>1946</ele><speed>13.11</speed><time>2016-07-09T15:45:03Z</time><pdop>6.0</pdop><geoidheight>50.80</geoidheight><course>303.1491</course><type>1</type></trkpt>
      <trkpt lat="39.22463497138774" lon="-5.65625952353548"><ele>1943</ele><speed>13.19</speed><time>2016-07-09T15:45:04Z</time><pdop>6.0</pdop><geoidheight>50.80</geoidheight><course>301.8287</course><type>1</type></trkpt>
      <trkpt lat="39.224693092549025" lon="-5.656392449624809"><ele>1941</ele><speed>13.40</speed><time>2016-07-09T15:45:05Z</time><pdop>6.0</pdop><geoidheight>50.80</geoidheight><course>300.05984</course><type>1</type></trkpt>
      <trkpt lat="39.22475052788362" lon="-5.65653414412193"><ele>1939</ele><speed>13.81</speed><time>2016-07-09T15:45:06Z</time><pdop>6.0</pdop><geoidheight>50.80</geoidheight><course>299.05197</course><type>1</type></trkpt>
      <trkpt lat="39.2248089465712" lon="-5.656680663049866"><ele>1936</ele><speed>14.08</speed><time>2016-07-09T15:45:07Z</time><pdop>6.0</pdop><geoidheight>50.80</geoidheight><course>299.43713</course><type>1</type></trkpt>
      <trkpt lat="39.22486897233826" lon="-5.656819159949311"><ele>1934</ele><speed>14.06</speed><time>2016-07-09T15:45:08Z</time><pdop>6.0</pdop><geoidheight>50.80</geoidheight><course>300.78516</course><type>1</type></trkpt>
      <trkpt lat="39.224930363371136" lon="-5.656957158514818"><ele>1931</ele><speed>13.69</speed><time>2016-07-09T15:45:09Z</time><pdop>6.0</pdop><geoidheight>50.80</geoidheight><course>301.68527</course><type>1</type></trkpt>
      <trkpt lat="39.22499363593913" lon="-5.657090633336279"><ele>1929</ele><speed>13.46</speed><time>2016-07-09T15:45:09Z</time><pdop>6.0</pdop><geoidheight>50.80</geoidheight><course>302.0418</course><type>1</type></trkpt>
      <trkpt lat="39.225055725246314" lon="-5.657221798889844"><ele>1927</ele><speed>13.40</speed><time>2016-07-09T15:45:11Z</time><pdop>6.0</pdop><geoidheight>50.80</geoidheight><course>301.3063</course><type>1</type></trkpt>
      <trkpt lat="39.22511799418303" lon="-5.657353358590408"><ele>1924</ele><speed>13.68</speed><time>2016-07-09T15:45:12Z</time><pdop>6.0</pdop><geoidheight>50.80</geoidheight><course>301.67145</course><type>1</type></trkpt>
      <trkpt lat="39.225182057024625" lon="-5.6574876060293535"><ele>1921</ele><speed>14.01</speed><time>2016-07-09T15:45:12Z</time><pdop>6.0</pdop><geoidheight>50.80</geoidheight><course>302.4669</course><type>1</type></trkpt>
      <trkpt lat="39.2252484713253" lon="-5.657619126070556"><ele>1919</ele><speed>14.28</speed><time>2016-07-09T15:45:13Z</time><pdop>6.0</pdop><geoidheight>50.80</geoidheight><course>303.34222</course><type>1</type></trkpt>
      <trkpt lat="39.22531880740239" lon="-5.657757689482798"><ele>1916</ele><speed>14.56</speed><time>2016-07-09T15:45:14Z</time><pdop>6.0</pdop><geoidheight>50.80</geoidheight><course>303.7272</course><type>1</type></trkpt>
      <trkpt lat="39.22546125730775" lon="-5.658038148208009"><ele>1910</ele><speed>13.83</speed><time>2016-07-09T15:45:16Z</time><pdop>6.0</pdop><geoidheight>50.80</geoidheight><course>303.06366</course><type>1</type></trkpt>
      <trkpt lat="39.2255340956754" lon="-5.658177137624764"><ele>1908</ele><speed>13.59</speed><time>2016-07-09T15:45:17Z</time><pdop>8.0</pdop><geoidheight>50.80</geoidheight><course>302.58176</course><type>1</type></trkpt>
      <trkpt lat="39.22566473618931" lon="-5.658438651701781"><ele>1902</ele><speed>13.89</speed><time>2016-07-09T15:45:20Z</time><pdop>8.0</pdop><geoidheight>50.80</geoidheight><course>302.8176</course><type>1</type></trkpt>
      <trkpt lat="39.225797411304285" lon="-5.6586854197329215"><ele>1896</ele><speed>14.16</speed><time>2016-07-09T15:45:21Z</time><pdop>6.0</pdop><geoidheight>50.80</geoidheight><course>304.07748</course><type>1</type></trkpt>
      <trkpt lat="39.22586898166867" lon="-5.658810846201054"><ele>1892</ele><speed>14.02</speed><time>2016-07-09T15:45:22Z</time><pdop>6.0</pdop><geoidheight>50.80</geoidheight><course>304.78552</course><type>1</type></trkpt>
      <trkpt lat="39.22594006375542" lon="-5.658936411684127"><ele>1889</ele><speed>13.89</speed><time>2016-07-09T15:45:23Z</time><pdop>6.0</pdop><geoidheight>50.80</geoidheight><course>304.60025</course><type>1</type></trkpt>
      <trkpt lat="39.226010319206864" lon="-5.6590708481356575"><ele>1885</ele><speed>14.06</speed><time>2016-07-09T15:45:24Z</time><pdop>6.0</pdop><geoidheight>50.80</geoidheight><course>303.7087</course><type>1</type></trkpt>
      <trkpt lat="39.226142274334386" lon="-5.6593408685652475"><ele>1878</ele><speed>14.42</speed><time>2016-07-09T15:45:26Z</time><pdop>6.0</pdop><geoidheight>50.80</geoidheight><course>301.95316</course><type>1</type></trkpt>
      <trkpt lat="39.22620817001965" lon="-5.6594774584452034"><ele>1875</ele><speed>14.34</speed><time>2016-07-09T15:45:27Z</time><pdop>6.0</pdop><geoidheight>50.80</geoidheight><course>302.62564</course><type>1</type></trkpt>
      <trkpt lat="39.226275331834266" lon="-5.659615142106263"><ele>1872</ele><speed>14.28</speed><time>2016-07-09T15:45:28Z</time><pdop>6.0</pdop><geoidheight>50.80</geoidheight><course>303.341</course><type>1</type></trkpt>
      <trkpt lat="39.2263428598138" lon="-5.659745532731734"><ele>1869</ele><speed>14.15</speed><time>2016-07-09T15:45:29Z</time><pdop>6.0</pdop><geoidheight>50.80</geoidheight><course>303.79935</course><type>1</type></trkpt>
      <trkpt lat="39.22640976927882" lon="-5.6598743796233855"><ele>1866</ele><speed>13.91</speed><time>2016-07-09T15:45:30Z</time><pdop>6.0</pdop><geoidheight>50.80</geoidheight><course>304.63263</course><type>1</type></trkpt>
      <trkpt lat="39.22647688773369" lon="-5.659997208375366"><ele>1863</ele><speed>13.51</speed><time>2016-07-09T15:45:31Z</time><pdop>6.0</pdop><geoidheight>50.80</geoidheight><course>304.8546</course><type>1</type></trkpt>
      <trkpt lat="39.22654592126066" lon="-5.660124751581188"><ele>1859</ele><speed>13.61</speed><time>2016-07-09T15:45:32Z</time><pdop>6.0</pdop><geoidheight>50.80</geoidheight><course>305.2396</course><type>1</type></trkpt>
      <trkpt lat="39.22669289718834" lon="-5.660397052146739"><ele>1853</ele><speed>14.52</speed><time>2016-07-09T15:45:34Z</time><pdop>12.0</pdop><geoidheight>50.80</geoidheight><course>305.99307</course><type>1</type></trkpt>
      <trkpt lat="39.226840585510054" lon="-5.660652814072079"><ele>1846</ele><speed>14.45</speed><time>2016-07-09T15:45:36Z</time><pdop>6.0</pdop><geoidheight>50.80</geoidheight><course>307.1877</course><type>1</type></trkpt>
      <trkpt lat="39.22691148903532" lon="-5.660772428600966"><ele>1842</ele><speed>13.87</speed><time>2016-07-09T15:45:38Z</time><pdop>6.0</pdop><geoidheight>50.80</geoidheight><course>307.88998</course><type>1</type></trkpt>
      <trkpt lat="39.226985574379576" lon="-5.660894983050981"><ele>1840</ele><speed>13.48</speed><time>2016-07-09T15:45:38Z</time><pdop>6.0</pdop><geoidheight>50.80</geoidheight><course>308.31482</course><type>1</type></trkpt>
      <trkpt lat="39.227062285022846" lon="-5.661020737163026"><ele>1837</ele><speed>13.48</speed><time>2016-07-09T15:45:39Z</time><pdop>4.0</pdop><geoidheight>50.80</geoidheight><course>308.79663</course><type>1</type></trkpt>
      <trkpt lat="39.227138715014625" lon="-5.661139209540234"><ele>1834</ele><speed>13.73</speed><time>2016-07-09T15:45:40Z</time><pdop>4.0</pdop><geoidheight>50.80</geoidheight><course>309.70145</course><type>1</type></trkpt>
      <trkpt lat="39.22721966327174" lon="-5.66126676859744"><ele>1831</ele><speed>13.95</speed><time>2016-07-09T15:45:41Z</time><pdop>8.0</pdop><geoidheight>50.80</geoidheight><course>310.239</course><type>1</type></trkpt>
      <trkpt lat="39.22738453568287" lon="-5.661515972312376"><ele>1826</ele><speed>13.72</speed><time>2016-07-09T15:45:43Z</time><pdop>6.0</pdop><geoidheight>50.80</geoidheight><course>311.2406</course><type>1</type></trkpt>
      <trkpt lat="39.22746301866267" lon="-5.661631931076677"><ele>1823</ele><speed>13.36</speed><time>2016-07-09T15:45:44Z</time><pdop>6.0</pdop><geoidheight>50.80</geoidheight><course>311.685</course><type>1</type></trkpt>
      <trkpt lat="39.22753639159476" lon="-5.661735983518176"><ele>1820</ele><speed>13.00</speed><time>2016-07-09T15:45:45Z</time><pdop>6.0</pdop><geoidheight>50.80</geoidheight><course>312.69632</course><type>1</type></trkpt>
      <trkpt lat="39.22768014476719" lon="-5.661939046577919"><ele>1814</ele><speed>12.76</speed><time>2016-07-09T15:45:47Z</time><pdop>4.0</pdop><geoidheight>50.80</geoidheight><course>313.15506</course><type>1</type></trkpt>
      <trkpt lat="39.22774791961361" lon="-5.662034732957477"><ele>1812</ele><speed>12.31</speed><time>2016-07-09T15:45:48Z</time><pdop>4.0</pdop><geoidheight>50.80</geoidheight><course>312.3622</course><type>1</type></trkpt>
      <trkpt lat="39.227822355442115" lon="-5.662142206277418"><ele>1810</ele><speed>12.62</speed><time>2016-07-09T15:45:49Z</time><pdop>6.0</pdop><geoidheight>50.80</geoidheight><course>312.08838</course><type>1</type></trkpt>
      <trkpt lat="39.227895507183085" lon="-5.662247943267288"><ele>1808</ele><speed>12.52</speed><time>2016-07-09T15:45:50Z</time><pdop>6.0</pdop><geoidheight>50.80</geoidheight><course>312.72412</course><type>1</type></trkpt>
      <trkpt lat="39.22804614157948" lon="-5.66244212545823"><ele>1805</ele><speed>12.06</speed><time>2016-07-09T15:45:52Z</time><pdop>6.0</pdop><geoidheight>50.80</geoidheight><course>315.82584</course><type>1</type></trkpt>
      <trkpt lat="39.22812630291868" lon="-5.662535450359594"><ele>1803</ele><speed>12.38</speed><time>2016-07-09T15:45:53Z</time><pdop>4.0</pdop><geoidheight>50.80</geoidheight><course>317.156</course><type>1</type></trkpt>
      <trkpt lat="39.228215882762605" lon="-5.662632195261239"><ele>1802</ele><speed>12.72</speed><time>2016-07-09T15:45:54Z</time><pdop>4.0</pdop><geoidheight>50.80</geoidheight><course>318.22195</course><type>1</type></trkpt>
      <trkpt lat="39.228310655839756" lon="-5.662728290644963"><ele>1800</ele><speed>13.46</speed><time>2016-07-09T15:45:55Z</time><pdop>4.0</pdop><geoidheight>50.80</geoidheight><course>319.3245</course><type>1</type></trkpt>
      <trkpt lat="39.22840674311777" lon="-5.6628265473520925"><ele>1798</ele><speed>14.20</speed><time>2016-07-09T15:45:56Z</time><pdop>4.0</pdop><geoidheight>50.80</geoidheight><course>320.25513</course><type>1</type></trkpt>
      <trkpt lat="39.22851205583359" lon="-5.66292744488993"><ele>1796</ele><speed>14.69</speed><time>2016-07-09T15:45:57Z</time><pdop>6.0</pdop><geoidheight>50.80</geoidheight><course>321.3842</course><type>1</type></trkpt>
      <trkpt lat="39.228617443780124" lon="-5.66302762117157"><ele>1794</ele><speed>14.56</speed><time>2016-07-09T15:45:58Z</time><pdop>8.0</pdop><geoidheight>50.80</geoidheight><course>321.7503</course><type>1</type></trkpt>
      <trkpt lat="39.22872071158119" lon="-5.663127418819814"><ele>1792</ele><speed>14.08</speed><time>2016-07-09T15:45:59Z</time><pdop>4.0</pdop><geoidheight>50.80</geoidheight><course>320.44873</course><type>1</type></trkpt>
      <trkpt lat="39.228813594331115" lon="-5.663230569073553"><ele>1791</ele><speed>13.34</speed><time>2016-07-09T15:46:00Z</time><pdop>4.0</pdop><geoidheight>50.80</geoidheight><course>318.1052</course><type>1</type></trkpt>
      <trkpt lat="39.22889954704383" lon="-5.663333266107299"><ele>1790</ele><speed>12.69</speed><time>2016-07-09T15:46:01Z</time><pdop>4.0</pdop><geoidheight>50.80</geoidheight><course>316.6786</course><type>1</type></trkpt>
      <trkpt lat="39.22898410196871" lon="-5.663434243443267"><ele>1789</ele><speed>12.92</speed><time>2016-07-09T15:46:02Z</time><pdop>6.0</pdop><geoidheight>50.80</geoidheight><course>317.1749</course><type>1</type></trkpt>
      <trkpt lat="39.22907526583327" lon="-5.663535879150578"><ele>1788</ele><speed>13.95</speed><time>2016-07-09T15:46:03Z</time><pdop>6.0</pdop><geoidheight>50.80</geoidheight><course>318.7673</course><type>1</type></trkpt>
      <trkpt lat="39.22917243541583" lon="-5.663642706816572"><ele>1787</ele><speed>14.94</speed><time>2016-07-09T15:46:04Z</time><pdop>4.0</pdop><geoidheight>50.80</geoidheight><course>319.26007</course><type>1</type></trkpt>
      <trkpt lat="39.229273314400274" lon="-5.663753276818553"><ele>1786</ele><speed>15.16</speed><time>2016-07-09T15:46:05Z</time><pdop>6.0</pdop><geoidheight>50.80</geoidheight><course>318.76974</course><type>1</type></trkpt>
      <trkpt lat="39.22937481154835" lon="-5.663867146950105"><ele>1785</ele><speed>13.97</speed><time>2016-07-09T15:46:06Z</time><pdop>6.0</pdop><geoidheight>50.80</geoidheight><course>318.27408</course><type>1</type></trkpt>
      <trkpt lat="39.22946659994712" lon="-5.663966769090344"><ele>1785</ele><speed>11.81</speed><time>2016-07-09T15:46:08Z</time><pdop>6.0</pdop><geoidheight>50.80</geoidheight><course>318.75647</course><type>1</type></trkpt>
      <trkpt lat="39.2296178231041" lon="-5.664115243897136"><ele>1785</ele><speed>9.45</speed><time>2016-07-09T15:46:09Z</time><pdop>8.0</pdop><geoidheight>50.80</geoidheight><course>323.3509</course><type>1</type></trkpt>
      <trkpt lat="39.22978552861312" lon="-5.664259463099174"><ele>1786</ele><speed>12.01</speed><time>2016-07-09T15:46:11Z</time><pdop>8.0</pdop><geoidheight>50.80</geoidheight><course>324.0414</course><type>1</type></trkpt>
      <trkpt lat="39.229977724969814" lon="-5.664427612914977"><ele>1787</ele><speed>12.40</speed><time>2016-07-09T15:46:13Z</time><pdop>8.0</pdop><geoidheight>50.80</geoidheight><course>322.94235</course><type>1</type></trkpt>
      <trkpt lat="39.23014355694745" lon="-5.664577205889808"><ele>1789</ele><speed>10.76</speed><time>2016-07-09T15:46:15Z</time><pdop>8.0</pdop><geoidheight>50.80</geoidheight><course>321.45456</course><type>1</type></trkpt>
      <trkpt lat="39.23029631445395" lon="-5.664739999820991"><ele>1791</ele><speed>11.34</speed><time>2016-07-09T15:46:17Z</time><pdop>8.0</pdop><geoidheight>50.80</geoidheight><course>318.77863</course><type>1</type></trkpt>
      <trkpt lat="39.23045756125234" lon="-5.664925198582774"><ele>1794</ele><speed>12.01</speed><time>2016-07-09T15:46:20Z</time><pdop>6.0</pdop><geoidheight>50.80</geoidheight><course>318.5191</course><type>1</type></trkpt>
      <trkpt lat="39.230541945524664" lon="-5.665012670398937"><ele>1795</ele><speed>11.06</speed><time>2016-07-09T15:46:21Z</time><pdop>6.0</pdop><geoidheight>50.80</geoidheight><course>321.65274</course><type>1</type></trkpt>
      <trkpt lat="39.230723182815574" lon="-5.66512278346764"><ele>1798</ele><speed>9.43</speed><time>2016-07-09T15:46:22Z</time><pdop>6.0</pdop><geoidheight>50.80</geoidheight><course>339.82034</course><type>1</type></trkpt>
      <trkpt lat="39.23088025955369" lon="-5.665106144379734"><ele>1801</ele><speed>8.24</speed><time>2016-07-09T15:46:24Z</time><pdop>6.0</pdop><geoidheight>50.80</geoidheight><course>20.723288</course><type>1</type></trkpt>
      <trkpt lat="39.23097425050279" lon="-5.664895262457089"><ele>1805</ele><speed>7.92</speed><time>2016-07-09T15:46:27Z</time><pdop>12.0</pdop><geoidheight>50.80</geoidheight><course>94.513016</course><type>1</type></trkpt>
      <trkpt lat="39.23084162493513" lon="-5.664737165977699"><ele>1809</ele><speed>9.51</speed><time>2016-07-09T15:46:30Z</time><pdop>8.0</pdop><geoidheight>50.80</geoidheight><course>174.83281</course><type>1</type></trkpt>
      <trkpt lat="39.23068014837637" lon="-5.6648252587317"><ele>1811</ele><speed>9.38</speed><time>2016-07-09T15:46:33Z</time><pdop>8.0</pdop><geoidheight>50.80</geoidheight><course>207.35963</course><type>1</type></trkpt>
      <trkpt lat="39.23055608318305" lon="-5.665002876077971"><ele>1812</ele><speed>9.88</speed><time>2016-07-09T15:46:34Z</time><pdop>6.0</pdop><geoidheight>50.80</geoidheight><course>239.61304</course><type>1</type></trkpt>
      <trkpt lat="39.2304799643358" lon="-5.665231026153244"><ele>1814</ele><speed>10.50</speed><time>2016-07-09T15:46:37Z</time><pdop>8.0</pdop><geoidheight>50.80</geoidheight><course>260.56494</course><type>1</type></trkpt>
      <trkpt lat="39.23042519321514" lon="-5.665493869456207"><ele>1818</ele><speed>11.45</speed><time>2016-07-09T15:46:38Z</time><pdop>6.0</pdop><geoidheight>50.80</geoidheight><course>258.4228</course><type>1</type></trkpt>
      <trkpt lat="39.230395290592575" lon="-5.665628403174973"><ele>1820</ele><speed>11.20</speed><time>2016-07-09T15:46:40Z</time><pdop>6.0</pdop><geoidheight>50.80</geoidheight><course>257.35007</course><type>1</type></trkpt>
      <trkpt lat="39.230366199748836" lon="-5.665762564607707"><ele>1822</ele><speed>11.14</speed><time>2016-07-09T15:46:41Z</time><pdop>4.0</pdop><geoidheight>50.80</geoidheight><course>256.41428</course><type>1</type></trkpt>
      <trkpt lat="39.23034031803379" lon="-5.665890683715399"><ele>1824</ele><speed>11.21</speed><time>2016-07-09T15:46:41Z</time><pdop>4.0</pdop><geoidheight>50.80</geoidheight><course>257.40085</course><type>1</type></trkpt>
      <trkpt lat="39.2303167963833" lon="-5.666024023886639"><ele>1827</ele><speed>11.46</speed><time>2016-07-09T15:46:42Z</time><pdop>4.0</pdop><geoidheight>50.80</geoidheight><course>258.95685</course><type>1</type></trkpt>
      <trkpt lat="39.230298491110965" lon="-5.666153803483029"><ele>1828</ele><speed>11.84</speed><time>2016-07-09T15:46:43Z</time><pdop>4.0</pdop><geoidheight>50.80</geoidheight><course>260.05313</course><type>1</type></trkpt>
      <trkpt lat="39.23028120061121" lon="-5.666285228442283"><ele>1830</ele><speed>11.20</speed><time>2016-07-09T15:46:44Z</time><pdop>6.0</pdop><geoidheight>50.80</geoidheight><course>260.8508</course><type>1</type></trkpt>
      <trkpt lat="39.230279868284924" lon="-5.666524941365982"><ele>1832</ele><speed>10.62</speed><time>2016-07-09T15:46:46Z</time><pdop>6.0</pdop><geoidheight>50.80</geoidheight><course>276.78577</course><type>1</type></trkpt>
      <trkpt lat="39.23034407955922" lon="-5.66675568564559"><ele>1834</ele><speed>11.26</speed><time>2016-07-09T15:46:48Z</time><pdop>6.0</pdop><geoidheight>50.80</geoidheight><course>298.30676</course><type>1</type></trkpt>
      <trkpt lat="39.2303994841092" lon="-5.666876546630041"><ele>1835</ele><speed>11.17</speed><time>2016-07-09T15:46:49Z</time><pdop>6.0</pdop><geoidheight>50.80</geoidheight><course>301.64157</course><type>1</type></trkpt>
      <trkpt lat="39.230581562717525" lon="-5.6670147179944665"><ele>1836</ele><speed>10.44</speed><time>2016-07-09T15:46:52Z</time><pdop>6.0</pdop><geoidheight>50.80</geoidheight><course>343.50146</course><type>1</type></trkpt>
      <trkpt lat="39.230753173884494" lon="-5.667020149704577"><ele>1836</ele><speed>9.90</speed><time>2016-07-09T15:46:53Z</time><pdop>6.0</pdop><geoidheight>50.80</geoidheight><course>10.774869</course><type>1</type></trkpt>
      <trkpt lat="39.230896301001565" lon="-5.666980755956833"><ele>1838</ele><speed>6.78</speed><time>2016-07-09T15:46:55Z</time><pdop>6.0</pdop><geoidheight>50.80</geoidheight><course>10.61499</course><type>1</type></trkpt>
      <trkpt lat="39.23104106579437" lon="-5.666942401226976"><ele>1840</ele><speed>7.32</speed><time>2016-07-09T15:46:57Z</time><pdop>6.0</pdop><geoidheight>50.80</geoidheight><course>12.670278</course><type>1</type></trkpt>
      <trkpt lat="39.23115447652992" lon="-5.666816418328606"><ele>1843</ele><speed>8.21</speed><time>2016-07-09T15:46:59Z</time><pdop>8.0</pdop><geoidheight>50.80</geoidheight><course>54.01073</course><type>1</type></trkpt>
      <trkpt lat="39.23123268259576" lon="-5.6666506140671835"><ele>1847</ele><speed>7.84</speed><time>2016-07-09T15:47:01Z</time><pdop>6.0</pdop><geoidheight>50.80</geoidheight><course>76.48699</course><type>1</type></trkpt>
      <trkpt lat="39.231185967033596" lon="-5.666453270474561"><ele>1852</ele><speed>7.90</speed><time>2016-07-09T15:47:04Z</time><pdop>8.0</pdop><geoidheight>50.80</geoidheight><course>136.09319</course><type>1</type></trkpt>
      <trkpt lat="39.231003979707125" lon="-5.666418831997889"><ele>1856</ele><speed>9.53</speed><time>2016-07-09T15:47:07Z</time><pdop>6.0</pdop><geoidheight>50.80</geoidheight><course>197.66185</course><type>1</type></trkpt>
      <trkpt lat="39.23087094466758" lon="-5.666560340237322"><ele>1858</ele><speed>11.41</speed><time>2016-07-09T15:47:10Z</time><pdop>8.0</pdop><geoidheight>50.80</geoidheight><course>231.31674</course><type>1</type></trkpt>
      <trkpt lat="39.230779342312324" lon="-5.666777521031714"><ele>1861</ele><speed>10.87</speed><time>2016-07-09T15:47:11Z</time><pdop>6.0</pdop><geoidheight>50.80</geoidheight><course>252.23375</course><type>1</type></trkpt>
      <trkpt lat="39.23077233836896" lon="-5.66699920276035"><ele>1864</ele><speed>9.32</speed><time>2016-07-09T15:47:14Z</time><pdop>6.0</pdop><geoidheight>50.80</geoidheight><course>273.13187</course><type>1</type></trkpt>
      <trkpt lat="39.2308262524233" lon="-5.667223503990126"><ele>1868</ele><speed>10.44</speed><time>2016-07-09T15:47:15Z</time><pdop>6.0</pdop><geoidheight>50.80</geoidheight><course>291.28397</course><type>1</type></trkpt>
      <trkpt lat="39.230933295152624" lon="-5.667415571722104"><ele>1870</ele><speed>11.98</speed><time>2016-07-09T15:47:17Z</time><pdop>6.0</pdop><geoidheight>50.80</geoidheight><course>307.3605</course><type>1</type></trkpt>
      <trkpt lat="39.231062036216144" lon="-5.667592148474623"><ele>1872</ele><speed>10.76</speed><time>2016-07-09T15:47:19Z</time><pdop>6.0</pdop><geoidheight>50.80</geoidheight><course>314.56238</course><type>1</type></trkpt>
      <trkpt lat="39.23120780918139" lon="-5.667746320583775"><ele>1874</ele><speed>10.07</speed><time>2016-07-09T15:47:21Z</time><pdop>6.0</pdop><geoidheight>50.80</geoidheight><course>318.868</course><type>1</type></trkpt>
      <trkpt lat="39.231369375079055" lon="-5.667894528117443"><ele>1879</ele><speed>9.80</speed><time>2016-07-09T15:47:23Z</time><pdop>4.0</pdop><geoidheight>50.80</geoidheight><course>324.1277</course><type>1</type></trkpt>
      <trkpt lat="39.23144860930221" lon="-5.667953720980477"><ele>1881</ele><speed>9.55</speed><time>2016-07-09T15:47:24Z</time><pdop>4.0</pdop><geoidheight>50.80</geoidheight><course>327.02347</course><type>1</type></trkpt>
      <trkpt lat="39.23152901966412" lon="-5.668007882146323"><ele>1884</ele><speed>9.33</speed><time>2016-07-09T15:47:25Z</time><pdop>4.0</pdop><geoidheight>50.80</geoidheight><course>328.55927</course><type>1</type></trkpt>
      <trkpt lat="39.23160823434483" lon="-5.668062804123206"><ele>1886</ele><speed>9.37</speed><time>2016-07-09T15:47:26Z</time><pdop>4.0</pdop><geoidheight>50.80</geoidheight><course>328.83368</course><type>1</type></trkpt>
      <trkpt lat="39.23168728078331" lon="-5.668119715775164"><ele>1889</ele><speed>9.67</speed><time>2016-07-09T15:47:27Z</time><pdop>4.0</pdop><geoidheight>50.80</geoidheight><course>329.34018</course><type>1</type></trkpt>
      <trkpt lat="39.23176804034487" lon="-5.668176973866691"><ele>1892</ele><speed>9.33</speed><time>2016-07-09T15:47:28Z</time><pdop>4.0</pdop><geoidheight>50.80</geoidheight><course>330.88385</course><type>1</type></trkpt>
      <trkpt lat="39.23184878690177" lon="-5.668227296101639"><ele>1894</ele><speed>9.17</speed><time>2016-07-09T15:47:29Z</time><pdop>4.0</pdop><geoidheight>50.80</geoidheight><course>333.484</course><type>1</type></trkpt>
      <trkpt lat="39.231935338575646" lon="-5.6682560446802706"><ele>1897</ele><speed>9.26</speed><time>2016-07-09T15:47:30Z</time><pdop>4.0</pdop><geoidheight>50.80</geoidheight><course>346.25226</course><type>1</type></trkpt>
      <trkpt lat="39.232025308198594" lon="-5.668280153717024"><ele>1900</ele><speed>9.41</speed><time>2016-07-09T15:47:31Z</time><pdop>6.0</pdop><geoidheight>50.80</geoidheight><course>349.37833</course><type>1</type></trkpt>
      <trkpt lat="39.232169002598006" lon="-5.668230515092024"><ele>1905</ele><speed>7.24</speed><time>2016-07-09T15:47:33Z</time><pdop>6.0</pdop><geoidheight>50.80</geoidheight><course>29.212685</course><type>1</type></trkpt>
      <trkpt lat="39.23231327764659" lon="-5.668070195233372"><ele>1910</ele><speed>9.42</speed><time>2016-07-09T15:47:35Z</time><pdop>6.0</pdop><geoidheight>50.80</geoidheight><course>57.34871</course><type>1</type></trkpt>
      <trkpt lat="39.23233840915653" lon="-5.667858310488837"><ele>1915</ele><speed>8.77</speed><time>2016-07-09T15:47:37Z</time><pdop>6.0</pdop><geoidheight>50.80</geoidheight><course>97.31494</course><type>1</type></trkpt>
      <trkpt lat="39.232300964864955" lon="-5.667695315032341"><ele>1921</ele><speed>8.69</speed><time>2016-07-09T15:47:39Z</time><pdop>6.0</pdop><geoidheight>50.80</geoidheight><course>118.01267</course><type>1</type></trkpt>
      <trkpt lat="39.23220830507939" lon="-5.667571431598352"><ele>1925</ele><speed>7.06</speed><time>2016-07-09T15:47:41Z</time><pdop>8.0</pdop><geoidheight>50.80</geoidheight><course>157.23964</course><type>1</type></trkpt>
      <trkpt lat="39.23204325484892" lon="-5.667740993944711"><ele>1932</ele><speed>8.00</speed><time>2016-07-09T15:47:45Z</time><pdop>8.0</pdop><geoidheight>50.80</geoidheight><course>223.89932</course><type>1</type></trkpt>
      <trkpt lat="39.231986648607524" lon="-5.667966132733872"><ele>1938</ele><speed>10.72</speed><time>2016-07-09T15:47:47Z</time><pdop>8.0</pdop><geoidheight>50.80</geoidheight><course>269.2955</course><type>1</type></trkpt>
      <trkpt lat="39.232060567196406" lon="-5.66821751886646"><ele>1944</ele><speed>12.72</speed><time>2016-07-09T15:47:48Z</time><pdop>8.0</pdop><geoidheight>50.80</geoidheight><course>309.94064</course><type>1</type></trkpt>
      <trkpt lat="39.2322094808473" lon="-5.668356289330712"><ele>1950</ele><speed>10.54</speed><time>2016-07-09T15:47:50Z</time><pdop>8.0</pdop><geoidheight>50.80</geoidheight><course>345.8228</course><type>1</type></trkpt>
      <trkpt lat="39.2323658854183" lon="-5.668353126251567"><ele>1960</ele><speed>7.52</speed><time>2016-07-09T15:47:53Z</time><pdop>8.0</pdop><geoidheight>50.80</geoidheight><course>27.904062</course><type>1</type></trkpt>
      <trkpt lat="39.232433676826126" lon="-5.668188399781095"><ele>1969</ele><speed>9.85</speed><time>2016-07-09T15:47:56Z</time><pdop>8.0</pdop><geoidheight>50.80</geoidheight><course>72.8549</course><type>1</type></trkpt>
      <trkpt lat="39.23238978135728" lon="-5.667997252377276"><ele>1981</ele><speed>6.49</speed><time>2016-07-09T15:47:58Z</time><pdop>8.0</pdop><geoidheight>50.80</geoidheight><course>165.8178</course><type>1</type></trkpt>
      <trkpt lat="39.23220040406255" lon="-5.668065390218122"><ele>1993</ele><speed>9.40</speed><time>2016-07-09T15:48:02Z</time><pdop>6.0</pdop><geoidheight>50.80</geoidheight><course>203.91081</course><type>1</type></trkpt>
      <trkpt lat="39.2320877759263" lon="-5.668234069887859"><ele>2001</ele><speed>9.13</speed><time>2016-07-09T15:48:03Z</time><pdop>6.0</pdop><geoidheight>50.80</geoidheight><course>234.135</course><type>1</type></trkpt>
      <trkpt lat="39.232055273286974" lon="-5.668463041065441"><ele>2008</ele><speed>11.57</speed><time>2016-07-09T15:48:06Z</time><pdop>8.0</pdop><geoidheight>50.80</geoidheight><course>275.353</course><type>1</type></trkpt>
      <trkpt lat="39.2321475769888" lon="-5.668716994095467"><ele>2015</ele><speed>11.57</speed><time>2016-07-09T15:48:07Z</time><pdop>8.0</pdop><geoidheight>50.80</geoidheight><course>314.05215</course><type>1</type></trkpt>
      <trkpt lat="39.23230027844814" lon="-5.66885206296963"><ele>2022</ele><speed>10.81</speed><time>2016-07-09T15:48:09Z</time><pdop>8.0</pdop><geoidheight>50.80</geoidheight><course>339.63953</course><type>1</type></trkpt>
      <trkpt lat="39.232483029394764" lon="-5.668922644414281"><ele>2028</ele><speed>10.47</speed><time>2016-07-09T15:48:11Z</time><pdop>8.0</pdop><geoidheight>50.80</geoidheight><course>345.8852</course><type>1</type></trkpt>
      <trkpt lat="39.232661897414125" lon="-5.6689372009648835"><ele>2033</ele><speed>10.24</speed><time>2016-07-09T15:48:13Z</time><pdop>6.0</pdop><geoidheight>50.80</geoidheight><course>1.983828</course><type>1</type></trkpt>
      <trkpt lat="39.232845680699846" lon="-5.668899494230185"><ele>2039</ele><speed>9.40</speed><time>2016-07-09T15:48:15Z</time><pdop>6.0</pdop><geoidheight>50.80</geoidheight><course>18.019073</course><type>1</type></trkpt>
      <trkpt lat="39.23301107763578" lon="-5.668795993842091"><ele>2046</ele><speed>9.49</speed><time>2016-07-09T15:48:17Z</time><pdop>4.0</pdop><geoidheight>50.80</geoidheight><course>37.934856</course><type>1</type></trkpt>
      <trkpt lat="39.23308172683972" lon="-5.668728117908146"><ele>2049</ele><speed>8.40</speed><time>2016-07-09T15:48:18Z</time><pdop>4.0</pdop><geoidheight>50.80</geoidheight><course>42.00995</course><type>1</type></trkpt>
      <trkpt lat="39.2331122429815" lon="-5.668639700193139"><ele>2052</ele><speed>8.46</speed><time>2016-07-09T15:48:19Z</time><pdop>4.0</pdop><geoidheight>50.80</geoidheight><course>75.65031</course><type>1</type></trkpt>
      <trkpt lat="39.23313595426222" lon="-5.6684621973388145"><ele>2059</ele><speed>7.44</speed><time>2016-07-09T15:48:21Z</time><pdop>6.0</pdop><geoidheight>50.80</geoidheight><course>99.7141</course><type>1</type></trkpt>
      <trkpt lat="39.23307548651511" lon="-5.668335634616628"><ele>2065</ele><speed>5.95</speed><time>2016-07-09T15:48:24Z</time><pdop>6.0</pdop><geoidheight>50.80</geoidheight><course>143.96802</course><type>1</type></trkpt>
      <trkpt lat="39.23296237614989" lon="-5.668324664266183"><ele>2070</ele><speed>8.51</speed><time>2016-07-09T15:48:25Z</time><pdop>6.0</pdop><geoidheight>50.80</geoidheight><course>202.75784</course><type>1</type></trkpt>
      <trkpt lat="39.23282496231763" lon="-5.668444934880133"><ele>2074</ele><speed>11.75</speed><time>2016-07-09T15:48:27Z</time><pdop>6.0</pdop><geoidheight>50.80</geoidheight><course>227.29639</course><type>1</type></trkpt>
      <trkpt lat="39.23274980075767" lon="-5.668547766396698"><ele>2075</ele><speed>12.30</speed><time>2016-07-09T15:48:28Z</time><pdop>6.0</pdop><geoidheight>50.80</geoidheight><course>231.12361</course><type>1</type></trkpt>
      <trkpt lat="39.23266587170296" lon="-5.668826363552799"><ele>2079</ele><speed>11.08</speed><time>2016-07-09T15:48:31Z</time><pdop>6.0</pdop><geoidheight>50.80</geoidheight><course>254.16318</course><type>1</type></trkpt>
      <trkpt lat="39.23264245106315" lon="-5.668964454286525"><ele>2082</ele><speed>10.60</speed><time>2016-07-09T15:48:31Z</time><pdop>6.0</pdop><geoidheight>50.80</geoidheight><course>258.18283</course><type>1</type></trkpt>
      <trkpt lat="39.23262550079276" lon="-5.6692359996078245"><ele>2090</ele><speed>11.34</speed><time>2016-07-09T15:48:33Z</time><pdop>6.0</pdop><geoidheight>50.80</geoidheight><course>265.1337</course><type>1</type></trkpt>
      <trkpt lat="39.23262636301014" lon="-5.669376542251837"><ele>2094</ele><speed>11.20</speed><time>2016-07-09T15:48:35Z</time><pdop>6.0</pdop><geoidheight>50.80</geoidheight><course>269.16183</course><type>1</type></trkpt>
      <trkpt lat="39.23269160494561" lon="-5.669628597731323"><ele>2101</ele><speed>11.54</speed><time>2016-07-09T15:48:36Z</time><pdop>6.0</pdop><geoidheight>50.80</geoidheight><course>287.1316</course><type>1</type></trkpt>
      <trkpt lat="39.23280328922648" lon="-5.669857595063322"><ele>2108</ele><speed>10.59</speed><time>2016-07-09T15:48:38Z</time><pdop>8.0</pdop><geoidheight>50.80</geoidheight><course>303.12375</course><type>1</type></trkpt>
      <trkpt lat="39.23296419216193" lon="-5.669995569638249"><ele>2114</ele><speed>9.35</speed><time>2016-07-09T15:48:40Z</time><pdop>8.0</pdop><geoidheight>50.80</geoidheight><course>330.83307</course><type>1</type></trkpt>
      <trkpt lat="39.23311923099438" lon="-5.670009237600067"><ele>2120</ele><speed>8.11</speed><time>2016-07-09T15:48:42Z</time><pdop>8.0</pdop><geoidheight>50.80</geoidheight><course>5.6173396</course><type>1</type></trkpt>
      <trkpt lat="39.233225224170326" lon="-5.669856140251454"><ele>2129</ele><speed>7.47</speed><time>2016-07-09T15:48:45Z</time><pdop>6.0</pdop><geoidheight>50.80</geoidheight><course>88.141525</course><type>1</type></trkpt>
      <trkpt lat="39.23318758227033" lon="-5.669714735908373"><ele>2134</ele><speed>7.18</speed><time>2016-07-09T15:48:47Z</time><pdop>6.0</pdop><geoidheight>50.80</geoidheight><course>128.20789</course><type>1</type></trkpt>
      <trkpt lat="39.2330806711027" lon="-5.669624935148515"><ele>2138</ele><speed>7.80</speed><time>2016-07-09T15:48:49Z</time><pdop>6.0</pdop><geoidheight>50.80</geoidheight><course>157.99171</course><type>1</type></trkpt>
      <trkpt lat="39.232923645973344" lon="-5.669606932710135"><ele>2141</ele><speed>8.29</speed><time>2016-07-09T15:48:51Z</time><pdop>6.0</pdop><geoidheight>50.80</geoidheight><course>186.1675</course><type>1</type></trkpt>
      <trkpt lat="39.232754372666264" lon="-5.669676063380032"><ele>2144</ele><speed>9.78</speed><time>2016-07-09T15:48:54Z</time><pdop>6.0</pdop><geoidheight>50.80</geoidheight><course>215.05316</course><type>1</type></trkpt>
      <trkpt lat="39.232621218374575" lon="-5.669859942762966"><ele>2149</ele><speed>10.58</speed><time>2016-07-09T15:48:55Z</time><pdop>6.0</pdop><geoidheight>50.80</geoidheight><course>229.06462</course><type>1</type></trkpt>
      <trkpt lat="39.23254790196425" lon="-5.670054405188793"><ele>2154</ele><speed>9.98</speed><time>2016-07-09T15:48:57Z</time><pdop>6.0</pdop><geoidheight>50.80</geoidheight><course>245.43959</course><type>1</type></trkpt>
      <trkpt lat="39.23254225156537" lon="-5.6703026424175444"><ele>2158</ele><speed>11.81</speed><time>2016-07-09T15:48:59Z</time><pdop>8.0</pdop><geoidheight>50.80</geoidheight><course>277.31174</course><type>1</type></trkpt>
      <trkpt lat="39.23259790000367" lon="-5.6705785327487455"><ele>2165</ele><speed>13.16</speed><time>2016-07-09T15:49:01Z</time><pdop>8.0</pdop><geoidheight>50.80</geoidheight><course>295.10605</course><type>1</type></trkpt>
      <trkpt lat="39.232694371010474" lon="-5.670834123301732"><ele>2171</ele><speed>11.21</speed><time>2016-07-09T15:49:03Z</time><pdop>6.0</pdop><geoidheight>50.80</geoidheight><course>301.84225</course><type>1</type></trkpt>
      <trkpt lat="39.23275141443885" lon="-5.6709622618292"><ele>2174</ele><speed>11.65</speed><time>2016-07-09T15:49:04Z</time><pdop>6.0</pdop><geoidheight>50.80</geoidheight><course>303.1427</course><type>1</type></trkpt>
      <trkpt lat="39.2328106186087" lon="-5.671084709853134"><ele>2177</ele><speed>11.38</speed><time>2016-07-09T15:49:06Z</time><pdop>6.0</pdop><geoidheight>50.80</geoidheight><course>304.71173</course><type>1</type></trkpt>
      <trkpt lat="39.23287345146177" lon="-5.671200724912571"><ele>2180</ele><speed>10.76</speed><time>2016-07-09T15:49:06Z</time><pdop>6.0</pdop><geoidheight>50.80</geoidheight><course>307.04962</course><type>1</type></trkpt>
      <trkpt lat="39.23305629424219" lon="-5.671334095328572"><ele>2184</ele><speed>10.44</speed><time>2016-07-09T15:49:08Z</time><pdop>8.0</pdop><geoidheight>50.80</geoidheight><course>336.63385</course><type>1</type></trkpt>
      <trkpt lat="39.233185520526376" lon="-5.67118599995952"><ele>2188</ele><speed>7.97</speed><time>2016-07-09T15:49:12Z</time><pdop>8.0</pdop><geoidheight>50.80</geoidheight><course>93.27492</course><type>1</type></trkpt>
      <trkpt lat="39.23306971726913" lon="-5.671040526163226"><ele>2190</ele><speed>8.57</speed><time>2016-07-09T15:49:14Z</time><pdop>6.0</pdop><geoidheight>50.80</geoidheight><course>172.23256</course><type>1</type></trkpt>
      <trkpt lat="39.23290283474979" lon="-5.671108063981251"><ele>2192</ele><speed>11.04</speed><time>2016-07-09T15:49:17Z</time><pdop>6.0</pdop><geoidheight>50.80</geoidheight><course>210.25204</course><type>1</type></trkpt>
      <trkpt lat="39.2327145156371" lon="-5.671258282585044"><ele>2192</ele><speed>13.36</speed><time>2016-07-09T15:49:18Z</time><pdop>6.0</pdop><geoidheight>50.80</geoidheight><course>214.59135</course><type>1</type></trkpt>
      <trkpt lat="39.23261601159536" lon="-5.6713594767658"><ele>2193</ele><speed>13.39</speed><time>2016-07-09T15:49:19Z</time><pdop>8.0</pdop><geoidheight>50.80</geoidheight><course>218.21802</course><type>1</type></trkpt>
      <trkpt lat="39.23246728645644" lon="-5.671601910418366"><ele>2196</ele><speed>10.53</speed><time>2016-07-09T15:49:21Z</time><pdop>6.0</pdop><geoidheight>50.80</geoidheight><course>234.58755</course><type>1</type></trkpt>
      <trkpt lat="39.23234810063383" lon="-5.671808206713347"><ele>2201</ele><speed>9.89</speed><time>2016-07-09T15:49:23Z</time><pdop>8.0</pdop><geoidheight>50.80</geoidheight><course>232.66666</course><type>1</type></trkpt>
      <trkpt lat="39.23222956356827" lon="-5.671997213640167"><ele>2205</ele><speed>10.58</speed><time>2016-07-09T15:49:25Z</time><pdop>6.0</pdop><geoidheight>50.80</geoidheight><course>231.07065</course><type>1</type></trkpt>
      <trkpt lat="39.23209251503305" lon="-5.672223474339818"><ele>2210</ele><speed>12.45</speed><time>2016-07-09T15:49:27Z</time><pdop>6.0</pdop><geoidheight>50.80</geoidheight><course>234.17899</course><type>1</type></trkpt>
      <trkpt lat="39.23202916501003" lon="-5.672350961335447"><ele>2212</ele><speed>12.42</speed><time>2016-07-09T15:49:28Z</time><pdop>6.0</pdop><geoidheight>50.80</geoidheight><course>237.53926</course><type>1</type></trkpt>
      <trkpt lat="39.23196404687465" lon="-5.672619534564065"><ele>2217</ele><speed>11.92</speed><time>2016-07-09T15:49:30Z</time><pdop>6.0</pdop><geoidheight>50.80</geoidheight><course>254.81746</course><type>1</type></trkpt>
      <trkpt lat="39.23193773937725" lon="-5.672763753569595"><ele>2220</ele><speed>11.92</speed><time>2016-07-09T15:49:31Z</time><pdop>6.0</pdop><geoidheight>50.80</geoidheight><course>258.1288</course><type>1</type></trkpt>
      <trkpt lat="39.23193620261141" lon="-5.672903868546659"><ele>2222</ele><speed>11.40</speed><time>2016-07-09T15:49:32Z</time><pdop>6.0</pdop><geoidheight>50.80</geoidheight><course>271.42853</course><type>1</type></trkpt>
      <trkpt lat="39.23193763721716" lon="-5.673043812364305"><ele>2224</ele><speed>10.66</speed><time>2016-07-09T15:49:34Z</time><pdop>6.0</pdop><geoidheight>50.80</geoidheight><course>273.0369</course><type>1</type></trkpt>
      <trkpt lat="39.231963685033406" lon="-5.6733037949230525"><ele>2227</ele><speed>10.60</speed><time>2016-07-09T15:49:35Z</time><pdop>6.0</pdop><geoidheight>50.80</geoidheight><course>280.4042</course><type>1</type></trkpt>
      <trkpt lat="39.232069385009844" lon="-5.673502680494187"><ele>2229</ele><speed>11.31</speed><time>2016-07-09T15:49:37Z</time><pdop>6.0</pdop><geoidheight>50.80</geoidheight><course>313.64856</course><type>1</type></trkpt>
      <trkpt lat="39.232272120446524" lon="-5.673609178220375"><ele>2231</ele><speed>12.94</speed><time>2016-07-09T15:49:39Z</time><pdop>8.0</pdop><geoidheight>50.80</geoidheight><course>349.30942</course><type>1</type></trkpt>
      <trkpt lat="39.232462713877844" lon="-5.673575386508514"><ele>2231</ele><speed>11.07</speed><time>2016-07-09T15:49:41Z</time><pdop>8.0</pdop><geoidheight>50.80</geoidheight><course>25.61321</course><type>1</type></trkpt>
      <trkpt lat="39.23261524863599" lon="-5.673342587900553"><ele>2232</ele><speed>6.78</speed><time>2016-07-09T15:49:44Z</time><pdop>6.0</pdop><geoidheight>50.80</geoidheight><course>79.40464</course><type>1</type></trkpt>
      <trkpt lat="39.2325602993949" lon="-5.673163006785914"><ele>2237</ele><speed>6.50</speed><time>2016-07-09T15:49:49Z</time><pdop>8.0</pdop><geoidheight>50.80</geoidheight><course>130.87108</course><type>1</type></trkpt>
      <trkpt lat="39.232408458585255" lon="-5.672988805077271"><ele>2240</ele><speed>7.12</speed><time>2016-07-09T15:49:51Z</time><pdop>6.0</pdop><geoidheight>50.80</geoidheight><course>140.92677</course><type>1</type></trkpt>
      <trkpt lat="39.232292318557064" lon="-5.672924303930617"><ele>2241</ele><speed>6.01</speed><time>2016-07-09T15:49:54Z</time><pdop>6.0</pdop><geoidheight>50.80</geoidheight><course>156.05307</course><type>1</type></trkpt>
      <trkpt lat="39.23215531753999" lon="-5.672851800985375"><ele>2242</ele><speed>4.91</speed><time>2016-07-09T15:49:56Z</time><pdop>6.0</pdop><geoidheight>50.80</geoidheight><course>152.0684</course><type>1</type></trkpt>
      <trkpt lat="39.232046762910606" lon="-5.672777350332439"><ele>2243</ele><speed>6.55</speed><time>2016-07-09T15:50:00Z</time><pdop>6.0</pdop><geoidheight>50.80</geoidheight><course>150.72342</course><type>1</type></trkpt>
      <trkpt lat="39.231907009756206" lon="-5.672785123840731"><ele>2243</ele><speed>9.31</speed><time>2016-07-09T15:50:01Z</time><pdop>8.0</pdop><geoidheight>50.80</geoidheight><course>190.04826</course><type>1</type></trkpt>
      <trkpt lat="39.23175268771504" lon="-5.672857704550579"><ele>2244</ele><speed>9.01</speed><time>2016-07-09T15:50:03Z</time><pdop>8.0</pdop><geoidheight>50.80</geoidheight><course>215.25124</course><type>1</type></trkpt>
      <trkpt lat="39.23162942724189" lon="-5.672982662847684"><ele>2245</ele><speed>9.01</speed><time>2016-07-09T15:50:05Z</time><pdop>6.0</pdop><geoidheight>50.80</geoidheight><course>231.80466</course><type>1</type></trkpt>
      <trkpt lat="39.231523191865726" lon="-5.673154442531836"><ele>2247</ele><speed>10.57</speed><time>2016-07-09T15:50:07Z</time><pdop>6.0</pdop><geoidheight>50.80</geoidheight><course>233.97331</course><type>1</type></trkpt>
      <trkpt lat="39.23145489353276" lon="-5.673382585059176"><ele>2249</ele><speed>11.49</speed><time>2016-07-09T15:50:09Z</time><pdop>6.0</pdop><geoidheight>50.80</geoidheight><course>252.73091</course><type>1</type></trkpt>
      <trkpt lat="39.23145579876985" lon="-5.673644546361075"><ele>2250</ele><speed>11.45</speed><time>2016-07-09T15:50:12Z</time><pdop>6.0</pdop><geoidheight>50.80</geoidheight><course>271.83286</course><type>1</type></trkpt>
      <trkpt lat="39.231457722386395" lon="-5.673796302854532"><ele>2250</ele><speed>11.65</speed><time>2016-07-09T15:50:12Z</time><pdop>6.0</pdop><geoidheight>50.80</geoidheight><course>272.80563</course><type>1</type></trkpt>
      <trkpt lat="39.23145881280121" lon="-5.6739468951611896"><ele>2250</ele><speed>12.24</speed><time>2016-07-09T15:50:13Z</time><pdop>6.0</pdop><geoidheight>50.80</geoidheight><course>270.9137</course><type>1</type></trkpt>
      <trkpt lat="39.231454206721985" lon="-5.674090432262588"><ele>2249</ele><speed>12.77</speed><time>2016-07-09T15:50:14Z</time><pdop>6.0</pdop><geoidheight>50.80</geoidheight><course>268.86856</course><type>1</type></trkpt>
      <trkpt lat="39.23144751255565" lon="-5.674231359920052"><ele>2248</ele><speed>12.90</speed><time>2016-07-09T15:50:15Z</time><pdop>6.0</pdop><geoidheight>50.80</geoidheight><course>267.5687</course><type>1</type></trkpt>
      <trkpt lat="39.2314390592207" lon="-5.674377475561451"><ele>2248</ele><speed>12.28</speed><time>2016-07-09T15:50:16Z</time><pdop>6.0</pdop><geoidheight>50.80</geoidheight><course>266.94113</course><type>1</type></trkpt>
      <trkpt lat="39.231420342110475" lon="-5.6746324672357895"><ele>2247</ele><speed>11.64</speed><time>2016-07-09T15:50:18Z</time><pdop>6.0</pdop><geoidheight>50.80</geoidheight><course>264.42218</course><type>1</type></trkpt>
      <trkpt lat="39.23139453014738" lon="-5.674925273949748"><ele>2246</ele><speed>13.80</speed><time>2016-07-09T15:50:20Z</time><pdop>6.0</pdop><geoidheight>50.80</geoidheight><course>264.6706</course><type>1</type></trkpt>
      <trkpt lat="39.231388408745445" lon="-5.675074529088998"><ele>2245</ele><speed>13.06</speed><time>2016-07-09T15:50:21Z</time><pdop>6.0</pdop><geoidheight>50.80</geoidheight><course>267.43097</course><type>1</type></trkpt>
      <trkpt lat="39.231392629463635" lon="-5.675321750935386"><ele>2244</ele><speed>8.78</speed><time>2016-07-09T15:50:23Z</time><pdop>6.0</pdop><geoidheight>50.80</geoidheight><course>271.69684</course><type>1</type></trkpt>
      <trkpt lat="39.23140823225011" lon="-5.675526683990084"><ele>2245</ele><speed>9.79</speed><time>2016-07-09T15:50:25Z</time><pdop>8.0</pdop><geoidheight>50.80</geoidheight><course>275.30127</course><type>1</type></trkpt>
      <trkpt lat="39.23145240486894" lon="-5.675782178418396"><ele>2245</ele><speed>13.45</speed><time>2016-07-09T15:50:27Z</time><pdop>6.0</pdop><geoidheight>50.80</geoidheight><course>281.3366</course><type>1</type></trkpt>
      <trkpt lat="39.23148217126569" lon="-5.6759437391175425"><ele>2245</ele><speed>13.70</speed><time>2016-07-09T15:50:28Z</time><pdop>6.0</pdop><geoidheight>50.80</geoidheight><course>282.92538</course><type>1</type></trkpt>
      <trkpt lat="39.2315136161263" lon="-5.6760874880204275"><ele>2245</ele><speed>11.79</speed><time>2016-07-09T15:50:29Z</time><pdop>6.0</pdop><geoidheight>50.80</geoidheight><course>284.893</course><type>1</type></trkpt>
      <trkpt lat="39.23154557346241" lon="-5.676225859089248"><ele>2245</ele><speed>10.88</speed><time>2016-07-09T15:50:30Z</time><pdop>6.0</pdop><geoidheight>50.80</geoidheight><course>286.26407</course><type>1</type></trkpt>
      <trkpt lat="39.231613752094795" lon="-5.676485211273148"><ele>2249</ele><speed>11.29</speed><time>2016-07-09T15:50:32Z</time><pdop>6.0</pdop><geoidheight>50.80</geoidheight><course>286.63638</course><type>1</type></trkpt>
      <trkpt lat="39.231646862760094" lon="-5.676623652728847"><ele>2251</ele><speed>12.18</speed><time>2016-07-09T15:50:33Z</time><pdop>6.0</pdop><geoidheight>50.80</geoidheight><course>285.91165</course><type>1</type></trkpt>
      <trkpt lat="39.23167817014024" lon="-5.676770520272879"><ele>2253</ele><speed>13.57</speed><time>2016-07-09T15:50:34Z</time><pdop>6.0</pdop><geoidheight>50.80</geoidheight><course>284.7936</course><type>1</type></trkpt>
      <trkpt lat="39.23171402932839" lon="-5.676937058902181"><ele>2254</ele><speed>15.13</speed><time>2016-07-09T15:50:35Z</time><pdop>6.0</pdop><geoidheight>50.80</geoidheight><course>283.88727</course><type>1</type></trkpt>
      <trkpt lat="39.23174636303516" lon="-5.677117061802614"><ele>2256</ele><speed>15.69</speed><time>2016-07-09T15:50:36Z</time><pdop>6.0</pdop><geoidheight>50.80</geoidheight><course>283.09116</course><type>1</type></trkpt>
      <trkpt lat="39.23177820104906" lon="-5.6773003952358945"><ele>2257</ele><speed>14.91</speed><time>2016-07-09T15:50:37Z</time><pdop>6.0</pdop><geoidheight>50.80</geoidheight><course>283.44806</course><type>1</type></trkpt>
      <trkpt lat="39.231809713155826" lon="-5.677455451854693"><ele>2260</ele><speed>12.76</speed><time>2016-07-09T15:50:38Z</time><pdop>4.0</pdop><geoidheight>50.80</geoidheight><course>285.6264</course><type>1</type></trkpt>
      <trkpt lat="39.23184541474792" lon="-5.677595888209156"><ele>2262</ele><speed>12.21</speed><time>2016-07-09T15:50:39Z</time><pdop>4.0</pdop><geoidheight>50.80</geoidheight><course>288.29904</course><type>1</type></trkpt>
      <trkpt lat="39.23188660744908" lon="-5.677739404146295"><ele>2264</ele><speed>12.50</speed><time>2016-07-09T15:50:40Z</time><pdop>4.0</pdop><geoidheight>50.80</geoidheight><course>291.02295</course><type>1</type></trkpt>
      <trkpt lat="39.23193286639111" lon="-5.677880920057367"><ele>2267</ele><speed>13.11</speed><time>2016-07-09T15:50:41Z</time><pdop>4.0</pdop><geoidheight>50.80</geoidheight><course>293.6774</course><type>1</type></trkpt>
      <trkpt lat="39.231983606119975" lon="-5.6780279090691215"><ele>2269</ele><speed>13.34</speed><time>2016-07-09T15:50:42Z</time><pdop>6.0</pdop><geoidheight>50.80</geoidheight><course>294.87903</course><type>1</type></trkpt>
      <trkpt lat="39.232032228266604" lon="-5.6781771740034594"><ele>2272</ele><speed>14.20</speed><time>2016-07-09T15:50:43Z</time><pdop>6.0</pdop><geoidheight>50.80</geoidheight><course>292.72977</course><type>1</type></trkpt>
      <trkpt lat="39.23207236595545" lon="-5.6783112025715825"><ele>2274</ele><speed>12.69</speed><time>2016-07-09T15:50:44Z</time><pdop>6.0</pdop><geoidheight>50.80</geoidheight><course>290.26007</course><type>1</type></trkpt>
      <trkpt lat="39.23210817018366" lon="-5.678453556542944"><ele>2278</ele><speed>12.18</speed><time>2016-07-09T15:50:45Z</time><pdop>6.0</pdop><geoidheight>50.80</geoidheight><course>288.0883</course><type>1</type></trkpt>
      <trkpt lat="39.2321725018154" lon="-5.678713951688219"><ele>2286</ele><speed>11.12</speed><time>2016-07-09T15:50:47Z</time><pdop>6.0</pdop><geoidheight>50.80</geoidheight><course>289.1594</course><type>1</type></trkpt>
      <trkpt lat="39.23220919581424" lon="-5.678853198699467"><ele>2291</ele><speed>13.38</speed><time>2016-07-09T15:50:48Z</time><pdop>6.0</pdop><geoidheight>50.80</geoidheight><course>290.35556</course><type>1</type></trkpt>
      <trkpt lat="39.23227367609345" lon="-5.679104483809771"><ele>2300</ele><speed>9.31</speed><time>2016-07-09T15:50:50Z</time><pdop>8.0</pdop><geoidheight>50.80</geoidheight><course>286.84476</course><type>1</type></trkpt>
      <trkpt lat="39.23231434315323" lon="-5.679340626331659"><ele>2308</ele><speed>9.83</speed><time>2016-07-09T15:50:52Z</time><pdop>6.0</pdop><geoidheight>50.80</geoidheight><course>283.6372</course><type>1</type></trkpt>
      <trkpt lat="39.232357496222235" lon="-5.679571815668698"><ele>2315</ele><speed>12.60</speed><time>2016-07-09T15:50:54Z</time><pdop>6.0</pdop><geoidheight>50.80</geoidheight><course>288.12955</course><type>1</type></trkpt>
      <trkpt lat="39.23254239697722" lon="-5.67979150665259"><ele>2321</ele><speed>14.48</speed><time>2016-07-09T15:50:57Z</time><pdop>8.0</pdop><geoidheight>50.80</geoidheight><course>326.9609</course><type>1</type></trkpt>
      <trkpt lat="39.232741252385736" lon="-5.679925506333789"><ele>2325</ele><speed>9.13</speed><time>2016-07-09T15:50:58Z</time><pdop>8.0</pdop><geoidheight>50.80</geoidheight><course>345.82385</course><type>1</type></trkpt>
      <trkpt lat="39.23289524736669" lon="-5.679896401500446"><ele>2332</ele><speed>9.53</speed><time>2016-07-09T15:51:00Z</time><pdop>6.0</pdop><geoidheight>50.80</geoidheight><course>15.578608</course><type>1</type></trkpt>
      <trkpt lat="39.23303301748191" lon="-5.6796467453120085"><ele>2343</ele><speed>7.86</speed><time>2016-07-09T15:51:04Z</time><pdop>12.0</pdop><geoidheight>50.80</geoidheight><course>93.41977</course><type>1</type></trkpt>
      <trkpt lat="39.23282477225232" lon="-5.679565883225062"><ele>2349</ele><speed>10.48</speed><time>2016-07-09T15:51:09Z</time><pdop>6.0</pdop><geoidheight>50.80</geoidheight><course>192.47522</course><type>1</type></trkpt>
      <trkpt lat="39.23272146465453" lon="-5.679619198068975"><ele>2351</ele><speed>10.80</speed><time>2016-07-09T15:51:10Z</time><pdop>6.0</pdop><geoidheight>50.80</geoidheight><course>195.48921</course><type>1</type></trkpt>
      <trkpt lat="39.23255784329364" lon="-5.679747162190929"><ele>2356</ele><speed>9.86</speed><time>2016-07-09T15:51:11Z</time><pdop>6.0</pdop><geoidheight>50.80</geoidheight><course>222.81113</course><type>1</type></trkpt>
      <trkpt lat="39.23246579007865" lon="-5.679900735759035"><ele>2360</ele><speed>7.81</speed><time>2016-07-09T15:51:14Z</time><pdop>6.0</pdop><geoidheight>50.80</geoidheight><course>247.34877</course><type>1</type></trkpt>
      <trkpt lat="39.232393044211406" lon="-5.680091584468497"><ele>2365</ele><speed>9.69</speed><time>2016-07-09T15:51:15Z</time><pdop>6.0</pdop><geoidheight>50.80</geoidheight><course>246.27284</course><type>1</type></trkpt>
      <trkpt lat="39.2323091889613" lon="-5.680306753906582"><ele>2371</ele><speed>9.62</speed><time>2016-07-09T15:51:18Z</time><pdop>6.0</pdop><geoidheight>50.80</geoidheight><course>244.53485</course><type>1</type></trkpt>
      <trkpt lat="39.23225671920068" lon="-5.680474694117978"><ele>2378</ele><speed>7.68</speed><time>2016-07-09T15:51:19Z</time><pdop>6.0</pdop><geoidheight>50.80</geoidheight><course>251.50946</course><type>1</type></trkpt>
      <trkpt lat="39.23221030964647" lon="-5.68069103801607"><ele>2387</ele><speed>9.46</speed><time>2016-07-09T15:51:21Z</time><pdop>6.0</pdop><geoidheight>50.80</geoidheight><course>257.26572</course><type>1</type></trkpt>
      <trkpt lat="39.23222453791244" lon="-5.681039324583531"><ele>2396</ele><speed>15.04</speed><time>2016-07-09T15:51:23Z</time><pdop>8.0</pdop><geoidheight>50.80</geoidheight><course>276.3135</course><type>1</type></trkpt>
      <trkpt lat="39.23225820106197" lon="-5.6814074350228045"><ele>2406</ele><speed>19.60</speed><time>2016-07-09T15:51:25Z</time><pdop>8.0</pdop><geoidheight>50.80</geoidheight><course>261.87665</course><type>1</type></trkpt>
      <trkpt lat="39.232412912079965" lon="-5.681619430769018"><ele>2415</ele><speed>13.63</speed><time>2016-07-09T15:51:27Z</time><pdop>8.0</pdop><geoidheight>50.80</geoidheight><course>325.1424</course><type>1</type></trkpt>
      <trkpt lat="39.23256652420061" lon="-5.681563634827169"><ele>2421</ele><speed>14.07</speed><time>2016-07-09T15:51:28Z</time><pdop>8.0</pdop><geoidheight>50.80</geoidheight><course>5.657996</course><type>1</type></trkpt>
      <trkpt lat="39.23271337585874" lon="-5.681496004683947"><ele>2426</ele><speed>11.94</speed><time>2016-07-09T15:51:29Z</time><pdop>8.0</pdop><geoidheight>50.80</geoidheight><course>20.909794</course><type>1</type></trkpt>
      <trkpt lat="39.23285552706166" lon="-5.681316285546596"><ele>2438</ele><speed>8.58</speed><time>2016-07-09T15:51:31Z</time><pdop>8.0</pdop><geoidheight>50.80</geoidheight><course>64.45437</course><type>1</type></trkpt>
      <trkpt lat="39.232695452685775" lon="-5.681225027957832"><ele>2462</ele><speed>6.77</speed><time>2016-07-09T15:51:36Z</time><pdop>8.0</pdop><geoidheight>50.80</geoidheight><course>195.29028</course><type>1</type></trkpt>
      <trkpt lat="39.23258488467556" lon="-5.681348963666718"><ele>2474</ele><speed>10.39</speed><time>2016-07-09T15:51:38Z</time><pdop>6.0</pdop><geoidheight>50.80</geoidheight><course>246.69789</course><type>1</type></trkpt>
      <trkpt lat="39.23257713007439" lon="-5.6816249310928955"><ele>2484</ele><speed>14.72</speed><time>2016-07-09T15:51:40Z</time><pdop>12.0</pdop><geoidheight>50.80</geoidheight><course>279.71048</course><type>1</type></trkpt>
      <trkpt lat="39.23272113369153" lon="-5.68191654951449"><ele>2492</ele><speed>15.14</speed><time>2016-07-09T15:51:42Z</time><pdop>12.0</pdop><geoidheight>50.80</geoidheight><course>305.8544</course><type>1</type></trkpt>
      <trkpt lat="39.23288973747411" lon="-5.6821169467362855"><ele>2501</ele><speed>12.07</speed><time>2016-07-09T15:51:44Z</time><pdop>8.0</pdop><geoidheight>50.80</geoidheight><course>326.00656</course><type>1</type></trkpt>
      <trkpt lat="39.23306837319704" lon="-5.682109152140655"><ele>2511</ele><speed>11.03</speed><time>2016-07-09T15:51:46Z</time><pdop>8.0</pdop><geoidheight>50.80</geoidheight><course>13.448216</course><type>1</type></trkpt>
      <trkpt lat="39.23319812084666" lon="-5.681988505096701"><ele>2520</ele><speed>6.43</speed><time>2016-07-09T15:51:49Z</time><pdop>6.0</pdop><geoidheight>50.80</geoidheight><course>33.838276</course><type>1</type></trkpt>
      <trkpt lat="39.23323961636459" lon="-5.681843478334574"><ele>2529</ele><speed>4.56</speed><time>2016-07-09T15:51:50Z</time><pdop>6.0</pdop><geoidheight>50.80</geoidheight><course>97.723045</course><type>1</type></trkpt>
      <trkpt lat="39.23310336102309" lon="-5.681705906767887"><ele>2543</ele><speed>7.07</speed><time>2016-07-09T15:51:55Z</time><pdop>8.0</pdop><geoidheight>50.80</geoidheight><course>147.26295</course><type>1</type></trkpt>
      <trkpt lat="39.23293890749168" lon="-5.681715913178085"><ele>2551</ele><speed>8.00</speed><time>2016-07-09T15:51:56Z</time><pdop>8.0</pdop><geoidheight>50.80</geoidheight><course>186.19003</course><type>1</type></trkpt>
      <trkpt lat="39.23282136631956" lon="-5.681866177404616"><ele>2558</ele><speed>5.79</speed><time>2016-07-09T15:51:58Z</time><pdop>8.0</pdop><geoidheight>50.80</geoidheight><course>243.31418</course><type>1</type></trkpt>
      <trkpt lat="39.23278005459766" lon="-5.682206273172835"><ele>2570</ele><speed>13.31</speed><time>2016-07-09T15:52:01Z</time><pdop>8.0</pdop><geoidheight>50.80</geoidheight><course>263.11624</course><type>1</type></trkpt>
      <trkpt lat="39.23281251550717" lon="-5.68258911499404"><ele>2577</ele><speed>15.58</speed><time>2016-07-09T15:52:03Z</time><pdop>12.0</pdop><geoidheight>50.80</geoidheight><course>279.01123</course><type>1</type></trkpt>
      <trkpt lat="39.23290719712827" lon="-5.682925723299913"><ele>2585</ele><speed>14.11</speed><time>2016-07-09T15:52:06Z</time><pdop>12.0</pdop><geoidheight>50.80</geoidheight><course>293.6539</course><type>1</type></trkpt>
      <trkpt lat="39.23303273527778" lon="-5.6832441216921525"><ele>2592</ele><speed>14.57</speed><time>2016-07-09T15:52:07Z</time><pdop>8.0</pdop><geoidheight>50.80</geoidheight><course>300.3028</course><type>1</type></trkpt>
      <trkpt lat="39.2332589705788" lon="-5.68338587147385"><ele>2600</ele><speed>13.12</speed><time>2016-07-09T15:52:10Z</time><pdop>8.0</pdop><geoidheight>50.80</geoidheight><course>355.67773</course><type>1</type></trkpt>
      <trkpt lat="39.23346541017431" lon="-5.683305979810311"><ele>2611</ele><speed>6.59</speed><time>2016-07-09T15:52:12Z</time><pdop>8.0</pdop><geoidheight>50.80</geoidheight><course>359.9772</course><type>1</type></trkpt>
      <trkpt lat="39.23343853356642" lon="-5.683092777165656"><ele>2622</ele><speed>7.44</speed><time>2016-07-09T15:52:15Z</time><pdop>6.0</pdop><geoidheight>50.80</geoidheight><course>137.5933</course><type>1</type></trkpt>
      <trkpt lat="39.23331842564907" lon="-5.683031803479079"><ele>2628</ele><speed>7.36</speed><time>2016-07-09T15:52:18Z</time><pdop>6.0</pdop><geoidheight>50.80</geoidheight><course>176.31879</course><type>1</type></trkpt>
      <trkpt lat="39.23317906352096" lon="-5.683055156884907"><ele>2634</ele><speed>6.97</speed><time>2016-07-09T15:52:19Z</time><pdop>8.0</pdop><geoidheight>50.80</geoidheight><course>192.60481</course><type>1</type></trkpt>
      <trkpt lat="39.233005570877744" lon="-5.683119488199711"><ele>2646</ele><speed>6.58</speed><time>2016-07-09T15:52:22Z</time><pdop>6.0</pdop><geoidheight>50.80</geoidheight><course>194.83282</course><type>1</type></trkpt>
      <trkpt lat="39.23290806064762" lon="-5.683144077211606"><ele>2653</ele><speed>4.88</speed><time>2016-07-09T15:52:24Z</time><pdop>4.0</pdop><geoidheight>50.80</geoidheight><course>191.81328</course><type>1</type></trkpt>
      <trkpt lat="39.23283425338175" lon="-5.683211288275484"><ele>2659</ele><speed>7.45</speed><time>2016-07-09T15:52:26Z</time><pdop>6.0</pdop><geoidheight>50.80</geoidheight><course>234.05383</course><type>1</type></trkpt>
      <trkpt lat="39.23276895574865" lon="-5.683474222018555"><ele>2664</ele><speed>14.29</speed><time>2016-07-09T15:52:29Z</time><pdop>8.0</pdop><geoidheight>50.80</geoidheight><course>261.9021</course><type>1</type></trkpt>
      <trkpt lat="39.23282618522419" lon="-5.683792039099788"><ele>2668</ele><speed>15.24</speed><time>2016-07-09T15:52:31Z</time><pdop>8.0</pdop><geoidheight>50.80</geoidheight><course>300.28546</course><type>1</type></trkpt>
      <trkpt lat="39.23304059984255" lon="-5.684012787279215"><ele>2672</ele><speed>14.01</speed><time>2016-07-09T15:52:32Z</time><pdop>6.0</pdop><geoidheight>50.80</geoidheight><course>332.008</course><type>1</type></trkpt>
      <trkpt lat="39.23316320784449" lon="-5.684057227098432"><ele>2673</ele><speed>13.06</speed><time>2016-07-09T15:52:33Z</time><pdop>6.0</pdop><geoidheight>50.80</geoidheight><course>347.48712</course><type>1</type></trkpt>
      <trkpt lat="39.233285281406786" lon="-5.684087657640322"><ele>2675</ele><speed>14.24</speed><time>2016-07-09T15:52:34Z</time><pdop>6.0</pdop><geoidheight>50.80</geoidheight><course>350.7734</course><type>1</type></trkpt>
      <trkpt lat="39.2334490846288" lon="-5.684070839249506"><ele>2678</ele><speed>7.22</speed><time>2016-07-09T15:52:36Z</time><pdop>6.0</pdop><geoidheight>50.80</geoidheight><course>6.7004867</course><type>1</type></trkpt>
      <trkpt lat="39.233606033665815" lon="-5.6839817309187906"><ele>2686</ele><speed>6.03</speed><time>2016-07-09T15:52:39Z</time><pdop>6.0</pdop><geoidheight>50.80</geoidheight><course>34.80398</course><type>1</type></trkpt>
      <trkpt lat="39.2336789651279" lon="-5.683869990050019"><ele>2691</ele><speed>4.96</speed><time>2016-07-09T15:52:41Z</time><pdop>6.0</pdop><geoidheight>50.80</geoidheight><course>67.65906</course><type>1</type></trkpt>
      <trkpt lat="39.23366084902254" lon="-5.683682669310347"><ele>2697</ele><speed>6.47</speed><time>2016-07-09T15:52:45Z</time><pdop>6.0</pdop><geoidheight>50.80</geoidheight><course>125.61419</course><type>1</type></trkpt>
      <trkpt lat="39.233584440897744" lon="-5.683566202459112"><ele>2700</ele><speed>5.45</speed><time>2016-07-09T15:52:46Z</time><pdop>6.0</pdop><geoidheight>50.80</geoidheight><course>141.82759</course><type>1</type></trkpt>
      <trkpt lat="39.233419200835456" lon="-5.683604337005535"><ele>2709</ele><speed>8.12</speed><time>2016-07-09T15:52:50Z</time><pdop>8.0</pdop><geoidheight>50.80</geoidheight><course>214.85843</course><type>1</type></trkpt>
      <trkpt lat="39.23331933185775" lon="-5.683759909196586"><ele>2712</ele><speed>10.72</speed><time>2016-07-09T15:52:53Z</time><pdop>8.0</pdop><geoidheight>50.80</geoidheight><course>247.03584</course><type>1</type></trkpt>
      <trkpt lat="39.23329311421324" lon="-5.684018555322528"><ele>2715</ele><speed>12.69</speed><time>2016-07-09T15:52:55Z</time><pdop>8.0</pdop><geoidheight>50.80</geoidheight><course>263.87003</course><type>1</type></trkpt>
      <trkpt lat="39.233342255867996" lon="-5.684327594402495"><ele>2719</ele><speed>13.68</speed><time>2016-07-09T15:52:56Z</time><pdop>8.0</pdop><geoidheight>50.80</geoidheight><course>289.9378</course><type>1</type></trkpt>
      <trkpt lat="39.23345795474151" lon="-5.684611265149435"><ele>2722</ele><speed>14.57</speed><time>2016-07-09T15:52:59Z</time><pdop>8.0</pdop><geoidheight>50.80</geoidheight><course>305.39166</course><type>1</type></trkpt>
      <trkpt lat="39.23364390214229" lon="-5.684847989799969"><ele>2723</ele><speed>14.23</speed><time>2016-07-09T15:53:00Z</time><pdop>8.0</pdop><geoidheight>50.80</geoidheight><course>324.10297</course><type>1</type></trkpt>
      <trkpt lat="39.233868014188005" lon="-5.684989285819395"><ele>2723</ele><speed>12.81</speed><time>2016-07-09T15:53:02Z</time><pdop>6.0</pdop><geoidheight>50.80</geoidheight><course>346.8032</course><type>1</type></trkpt>
      <trkpt lat="39.23405198573598" lon="-5.684961665233744"><ele>2725</ele><speed>9.08</speed><time>2016-07-09T15:53:04Z</time><pdop>6.0</pdop><geoidheight>50.80</geoidheight><course>25.06822</course><type>1</type></trkpt>
      <trkpt lat="39.23416228331021" lon="-5.684862704017577"><ele>2728</ele><speed>6.18</speed><time>2016-07-09T15:53:06Z</time><pdop>8.0</pdop><geoidheight>50.80</geoidheight><course>52.499466</course><type>1</type></trkpt>
      <trkpt lat="39.23410137788754" lon="-5.68465834311284"><ele>2731</ele><speed>7.08</speed><time>2016-07-09T15:53:10Z</time><pdop>6.0</pdop><geoidheight>50.80</geoidheight><course>131.08162</course><type>1</type></trkpt>
      <trkpt lat="39.23396260715476" lon="-5.684638673364415"><ele>2733</ele><speed>5.92</speed><time>2016-07-09T15:53:13Z</time><pdop>6.0</pdop><geoidheight>50.80</geoidheight><course>179.30023</course><type>1</type></trkpt>
      <trkpt lat="39.23384369255254" lon="-5.684649625310863"><ele>2735</ele><speed>7.41</speed><time>2016-07-09T15:53:16Z</time><pdop>6.0</pdop><geoidheight>50.80</geoidheight><course>186.00526</course><type>1</type></trkpt>
      <trkpt lat="39.23368995880893" lon="-5.684693733190309"><ele>2735</ele><speed>8.96</speed><time>2016-07-09T15:53:18Z</time><pdop>6.0</pdop><geoidheight>50.80</geoidheight><course>192.61977</course><type>1</type></trkpt>
      <trkpt lat="39.23354771543873" lon="-5.684751669146873"><ele>2736</ele><speed>7.01</speed><time>2016-07-09T15:53:19Z</time><pdop>4.0</pdop><geoidheight>50.80</geoidheight><course>196.72516</course><type>1</type></trkpt>
      <trkpt lat="39.233441374812514" lon="-5.6847963676553235"><ele>2737</ele><speed>5.72</speed><time>2016-07-09T15:53:21Z</time><pdop>4.0</pdop><geoidheight>50.80</geoidheight><course>195.16125</course><type>1</type></trkpt>
      <trkpt lat="39.233322104091016" lon="-5.684814459505548"><ele>2739</ele><speed>6.67</speed><time>2016-07-09T15:53:23Z</time><pdop>6.0</pdop><geoidheight>50.80</geoidheight><course>177.35785</course><type>1</type></trkpt>
      <trkpt lat="39.233190090212396" lon="-5.684805991236343"><ele>2741</ele><speed>7.36</speed><time>2016-07-09T15:53:25Z</time><pdop>6.0</pdop><geoidheight>50.80</geoidheight><course>174.6792</course><type>1</type></trkpt>
      <trkpt lat="39.23306287822896" lon="-5.684777213442124"><ele>2742</ele><speed>7.20</speed><time>2016-07-09T15:53:28Z</time><pdop>4.0</pdop><geoidheight>50.80</geoidheight><course>171.11473</course><type>1</type></trkpt>
      <trkpt lat="39.232927848777734" lon="-5.684748295049567"><ele>2741</ele><speed>7.56</speed><time>2016-07-09T15:53:29Z</time><pdop>4.0</pdop><geoidheight>50.80</geoidheight><course>173.1661</course><type>1</type></trkpt>
      <trkpt lat="39.23277292422485" lon="-5.6847418395452864"><ele>2740</ele><speed>9.21</speed><time>2016-07-09T15:53:31Z</time><pdop>6.0</pdop><geoidheight>50.80</geoidheight><course>179.18484</course><type>1</type></trkpt>
      <trkpt lat="39.23261104433589" lon="-5.684764945977437"><ele>2739</ele><speed>9.35</speed><time>2016-07-09T15:53:33Z</time><pdop>6.0</pdop><geoidheight>50.80</geoidheight><course>185.9963</course><type>1</type></trkpt>
      <trkpt lat="39.2324560929138" lon="-5.68483689779714"><ele>2739</ele><speed>9.27</speed><time>2016-07-09T15:53:35Z</time><pdop>6.0</pdop><geoidheight>50.80</geoidheight><course>205.88275</course><type>1</type></trkpt>
      <trkpt lat="39.23230195757772" lon="-5.684967978460673"><ele>2740</ele><speed>11.31</speed><time>2016-07-09T15:53:37Z</time><pdop>6.0</pdop><geoidheight>50.80</geoidheight><course>211.93309</course><type>1</type></trkpt>
      <trkpt lat="39.232229102553084" lon="-5.685092056253775"><ele>2740</ele><speed>12.95</speed><time>2016-07-09T15:53:38Z</time><pdop>6.0</pdop><geoidheight>50.80</geoidheight><course>232.45816</course><type>1</type></trkpt>
      <trkpt lat="39.23216222169708" lon="-5.685224548048075"><ele>2741</ele><speed>13.70</speed><time>2016-07-09T15:53:39Z</time><pdop>6.0</pdop><geoidheight>50.80</geoidheight><course>236.29784</course><type>1</type></trkpt>
      <trkpt lat="39.23211998846956" lon="-5.685375668799152"><ele>2741</ele><speed>12.81</speed><time>2016-07-09T15:53:41Z</time><pdop>6.0</pdop><geoidheight>50.80</geoidheight><course>250.36427</course><type>1</type></trkpt>
      <trkpt lat="39.232085804413146" lon="-5.685511110512634"><ele>2742</ele><speed>11.52</speed><time>2016-07-09T15:53:42Z</time><pdop>6.0</pdop><geoidheight>50.80</geoidheight><course>251.71526</course><type>1</type></trkpt>
      <trkpt lat="39.23204623336218" lon="-5.685655514664846"><ele>2742</ele><speed>12.15</speed><time>2016-07-09T15:53:42Z</time><pdop>6.0</pdop><geoidheight>50.80</geoidheight><course>250.43217</course><type>1</type></trkpt>
      <trkpt lat="39.232002478577876" lon="-5.68579736183351"><ele>2743</ele><speed>12.32</speed><time>2016-07-09T15:53:43Z</time><pdop>6.0</pdop><geoidheight>50.80</geoidheight><course>248.21985</course><type>1</type></trkpt>
      <trkpt lat="39.23195493733394" lon="-5.685928757862182"><ele>2743</ele><speed>12.30</speed><time>2016-07-09T15:53:44Z</time><pdop>6.0</pdop><geoidheight>50.80</geoidheight><course>245.20677</course><type>1</type></trkpt>
      <trkpt lat="39.231902700234755" lon="-5.686051253015911"><ele>2744</ele><speed>11.83</speed><time>2016-07-09T15:53:45Z</time><pdop>6.0</pdop><geoidheight>50.80</geoidheight><course>242.20244</course><type>1</type></trkpt>
      <trkpt lat="39.231808902031" lon="-5.686254816621749"><ele>2744</ele><speed>10.54</speed><time>2016-07-09T15:53:47Z</time><pdop>8.0</pdop><geoidheight>50.80</geoidheight><course>239.31429</course><type>1</type></trkpt>
      <trkpt lat="39.231685085316705" lon="-5.6864270541308874"><ele>2747</ele><speed>9.23</speed><time>2016-07-09T15:53:49Z</time><pdop>6.0</pdop><geoidheight>50.80</geoidheight><course>221.91335</course><type>1</type></trkpt>
      <trkpt lat="39.23152463432795" lon="-5.686594997131768"><ele>2751</ele><speed>10.04</speed><time>2016-07-09T15:53:52Z</time><pdop>6.0</pdop><geoidheight>50.80</geoidheight><course>220.85141</course><type>1</type></trkpt>
      <trkpt lat="39.23144346961932" lon="-5.686676098518337"><ele>2752</ele><speed>11.47</speed><time>2016-07-09T15:53:53Z</time><pdop>4.0</pdop><geoidheight>50.80</geoidheight><course>219.77853</course><type>1</type></trkpt>
      <trkpt lat="39.23137023860585" lon="-5.686747465101816"><ele>2754</ele><speed>12.52</speed><time>2016-07-09T15:53:53Z</time><pdop>4.0</pdop><geoidheight>50.80</geoidheight><course>218.66164</course><type>1</type></trkpt>
      <trkpt lat="39.231287159340035" lon="-5.6868293489882085"><ele>2755</ele><speed>12.54</speed><time>2016-07-09T15:53:54Z</time><pdop>6.0</pdop><geoidheight>50.80</geoidheight><course>217.77115</course><type>1</type></trkpt>
      <trkpt lat="39.23119808351063" lon="-5.686916793510249"><ele>2757</ele><speed>11.92</speed><time>2016-07-09T15:53:55Z</time><pdop>6.0</pdop><geoidheight>50.80</geoidheight><course>218.36334</course><type>1</type></trkpt>
      <trkpt lat="39.2311102266422" lon="-5.6870131703417774"><ele>2759</ele><speed>10.91</speed><time>2016-07-09T15:53:56Z</time><pdop>6.0</pdop><geoidheight>50.80</geoidheight><course>221.38603</course><type>1</type></trkpt>
      <trkpt lat="39.230972140753856" lon="-5.687181552583027"><ele>2764</ele><speed>10.06</speed><time>2016-07-09T15:53:58Z</time><pdop>6.0</pdop><geoidheight>50.80</geoidheight><course>224.42305</course><type>1</type></trkpt>
      <trkpt lat="39.23082694563964" lon="-5.6873695007868665"><ele>2768</ele><speed>11.91</speed><time>2016-07-09T15:54:00Z</time><pdop>6.0</pdop><geoidheight>50.80</geoidheight><course>224.5406</course><type>1</type></trkpt>
      <trkpt lat="39.23076144881978" lon="-5.687456333146556"><ele>2770</ele><speed>11.84</speed><time>2016-07-09T15:54:01Z</time><pdop>4.0</pdop><geoidheight>50.80</geoidheight><course>225.62502</course><type>1</type></trkpt>
      <trkpt lat="39.23062506754826" lon="-5.687651696894524"><ele>2773</ele><speed>10.83</speed><time>2016-07-09T15:54:03Z</time><pdop>8.0</pdop><geoidheight>50.80</geoidheight><course>228.94777</course><type>1</type></trkpt>
      <trkpt lat="39.230497573747975" lon="-5.687857911465534"><ele>2778</ele><speed>11.32</speed><time>2016-07-09T15:54:05Z</time><pdop>8.0</pdop><geoidheight>50.80</geoidheight><course>230.84091</course><type>1</type></trkpt>
      <trkpt lat="39.23035739174395" lon="-5.688065352984551"><ele>2783</ele><speed>11.18</speed><time>2016-07-09T15:54:07Z</time><pdop>6.0</pdop><geoidheight>50.80</geoidheight><course>228.90561</course><type>1</type></trkpt>
      <trkpt lat="39.23028367277984" lon="-5.688170030129994"><ele>2784</ele><speed>11.74</speed><time>2016-07-09T15:54:08Z</time><pdop>6.0</pdop><geoidheight>50.80</geoidheight><course>228.23479</course><type>1</type></trkpt>
      <trkpt lat="39.230203135166136" lon="-5.688283434716734"><ele>2787</ele><speed>12.53</speed><time>2016-07-09T15:54:09Z</time><pdop>6.0</pdop><geoidheight>50.80</geoidheight><course>229.0511</course><type>1</type></trkpt>
      <trkpt lat="39.23012601281359" lon="-5.688413458405492"><ele>2789</ele><speed>13.80</speed><time>2016-07-09T15:54:10Z</time><pdop>8.0</pdop><geoidheight>50.80</geoidheight><course>232.74477</course><type>1</type></trkpt>
      <trkpt lat="39.230078818948805" lon="-5.688751825163938"><ele>2791</ele><speed>16.66</speed><time>2016-07-09T15:54:12Z</time><pdop>8.0</pdop><geoidheight>50.80</geoidheight><course>266.95126</course><type>1</type></trkpt>
      <trkpt lat="39.23010203319562" lon="-5.689078156583806"><ele>2795</ele><speed>13.67</speed><time>2016-07-09T15:54:15Z</time><pdop>6.0</pdop><geoidheight>50.80</geoidheight><course>283.42694</course><type>1</type></trkpt>
      <trkpt lat="39.23012978196775" lon="-5.689230059983449"><ele>2798</ele><speed>12.47</speed><time>2016-07-09T15:54:16Z</time><pdop>6.0</pdop><geoidheight>50.80</geoidheight><course>285.2552</course><type>1</type></trkpt>
      <trkpt lat="39.23016105328138" lon="-5.689371954878788"><ele>2800</ele><speed>12.31</speed><time>2016-07-09T15:54:16Z</time><pdop>6.0</pdop><geoidheight>50.80</geoidheight><course>288.34387</course><type>1</type></trkpt>
      <trkpt lat="39.23020744000468" lon="-5.689526665633641"><ele>2802</ele><speed>13.89</speed><time>2016-07-09T15:54:17Z</time><pdop>6.0</pdop><geoidheight>50.80</geoidheight><course>292.39304</course><type>1</type></trkpt>
      <trkpt lat="39.23028959774188" lon="-5.689669504008573"><ele>2804</ele><speed>15.09</speed><time>2016-07-09T15:54:18Z</time><pdop>8.0</pdop><geoidheight>50.80</geoidheight><course>308.2545</course><type>1</type></trkpt>
      <trkpt lat="39.23049382150354" lon="-5.689906854848555"><ele>2808</ele><speed>15.31</speed><time>2016-07-09T15:54:20Z</time><pdop>8.0</pdop><geoidheight>50.80</geoidheight><course>328.3007</course><type>1</type></trkpt>
      <trkpt lat="39.23071495540538" lon="-5.690040019743852"><ele>2811</ele><speed>12.31</speed><time>2016-07-09T15:54:22Z</time><pdop>6.0</pdop><geoidheight>50.80</geoidheight><course>346.37558</course><type>1</type></trkpt>
      <trkpt lat="39.23090206659851" lon="-5.690074956847303"><ele>2815</ele><speed>8.60</speed><time>2016-07-09T15:54:24Z</time><pdop>6.0</pdop><geoidheight>50.80</geoidheight><course>1.0337142</course><type>1</type></trkpt>
      <trkpt lat="39.2310309844184" lon="-5.690011690432345"><ele>2818</ele><speed>6.85</speed><time>2016-07-09T15:54:26Z</time><pdop>6.0</pdop><geoidheight>50.80</geoidheight><course>38.01112</course><type>1</type></trkpt>
      <trkpt lat="39.231026967887786" lon="-5.689836358923146"><ele>2823</ele><speed>4.23</speed><time>2016-07-09T15:54:30Z</time><pdop>6.0</pdop><geoidheight>50.80</geoidheight><course>124.4404</course><type>1</type></trkpt>
      <trkpt lat="39.23100129751836" lon="-5.689677245871412"><ele>2829</ele><speed>5.08</speed><time>2016-07-09T15:54:33Z</time><pdop>6.0</pdop><geoidheight>50.80</geoidheight><course>101.47134</course><type>1</type></trkpt>
      <trkpt lat="39.23101793182736" lon="-5.689480112273994"><ele>2836</ele><speed>5.11</speed><time>2016-07-09T15:54:36Z</time><pdop>6.0</pdop><geoidheight>50.80</geoidheight><course>62.352192</course><type>1</type></trkpt>
      <trkpt lat="39.23114186262188" lon="-5.689410761071102"><ele>2838</ele><speed>8.79</speed><time>2016-07-09T15:54:38Z</time><pdop>8.0</pdop><geoidheight>50.80</geoidheight><course>10.746236</course><type>1</type></trkpt>
      <trkpt lat="39.231351960501286" lon="-5.689435645939452"><ele>2839</ele><speed>11.53</speed><time>2016-07-09T15:54:41Z</time><pdop>8.0</pdop><geoidheight>50.80</geoidheight><course>344.3551</course><type>1</type></trkpt>
      <trkpt lat="39.231536675193496" lon="-5.689537011081797"><ele>2841</ele><speed>11.19</speed><time>2016-07-09T15:54:42Z</time><pdop>6.0</pdop><geoidheight>50.80</geoidheight><course>326.4588</course><type>1</type></trkpt>
      <trkpt lat="39.231708213931746" lon="-5.689694104858687"><ele>2843</ele><speed>12.51</speed><time>2016-07-09T15:54:44Z</time><pdop>6.0</pdop><geoidheight>50.80</geoidheight><course>322.41397</course><type>1</type></trkpt>
      <trkpt lat="39.231799586952754" lon="-5.6897967087887515"><ele>2844</ele><speed>13.73</speed><time>2016-07-09T15:54:45Z</time><pdop>6.0</pdop><geoidheight>50.80</geoidheight><course>318.81027</course><type>1</type></trkpt>
      <trkpt lat="39.23189374618806" lon="-5.6899190729035185"><ele>2844</ele><speed>14.92</speed><time>2016-07-09T15:54:46Z</time><pdop>8.0</pdop><geoidheight>50.80</geoidheight><course>314.87796</course><type>1</type></trkpt>
      <trkpt lat="39.2320120537642" lon="-5.690213557702802"><ele>2847</ele><speed>12.89</speed><time>2016-07-09T15:54:48Z</time><pdop>8.0</pdop><geoidheight>50.80</geoidheight><course>296.56903</course><type>1</type></trkpt>
      <trkpt lat="39.23210647707816" lon="-5.690496861178747"><ele>2850</ele><speed>12.52</speed><time>2016-07-09T15:54:50Z</time><pdop>6.0</pdop><geoidheight>50.80</geoidheight><course>296.18506</course><type>1</type></trkpt>
      <trkpt lat="39.232155285337036" lon="-5.690635723827946"><ele>2852</ele><speed>13.59</speed><time>2016-07-09T15:54:51Z</time><pdop>6.0</pdop><geoidheight>50.80</geoidheight><course>296.76596</course><type>1</type></trkpt>
      <trkpt lat="39.23220646203863" lon="-5.690778365401059"><ele>2854</ele><speed>14.03</speed><time>2016-07-09T15:54:52Z</time><pdop>6.0</pdop><geoidheight>50.80</geoidheight><course>297.17917</course><type>1</type></trkpt>
      <trkpt lat="39.23225692293445" lon="-5.690916854115899"><ele>2856</ele><speed>12.29</speed><time>2016-07-09T15:54:53Z</time><pdop>6.0</pdop><geoidheight>50.80</geoidheight><course>297.99387</course><type>1</type></trkpt>
      <trkpt lat="39.23235621194817" lon="-5.691157793627062"><ele>2860</ele><speed>10.37</speed><time>2016-07-09T15:54:55Z</time><pdop>6.0</pdop><geoidheight>50.80</geoidheight><course>301.00278</course><type>1</type></trkpt>
      <trkpt lat="39.23251147376751" lon="-5.6913138850091265"><ele>2863</ele><speed>10.66</speed><time>2016-07-09T15:54:57Z</time><pdop>6.0</pdop><geoidheight>50.80</geoidheight><course>329.97565</course><type>1</type></trkpt>
      <trkpt lat="39.23269524173563" lon="-5.691382180397006"><ele>2865</ele><speed>11.75</speed><time>2016-07-09T15:54:59Z</time><pdop>6.0</pdop><geoidheight>50.80</geoidheight><course>349.574</course><type>1</type></trkpt>
      <trkpt lat="39.232860471196915" lon="-5.691225177619135"><ele>2866</ele><speed>9.18</speed><time>2016-07-09T15:55:02Z</time><pdop>6.0</pdop><geoidheight>50.80</geoidheight><course>63.036137</course><type>1</type></trkpt>
      <trkpt lat="39.23285559225929" lon="-5.691055352345503"><ele>2867</ele><speed>7.51</speed><time>2016-07-09T15:55:05Z</time><pdop>6.0</pdop><geoidheight>50.80</geoidheight><course>101.213425</course><type>1</type></trkpt>
      <trkpt lat="39.23277374724254" lon="-5.690911457328373"><ele>2871</ele><speed>5.45</speed><time>2016-07-09T15:55:07Z</time><pdop>8.0</pdop><geoidheight>50.80</geoidheight><course>151.62018</course><type>1</type></trkpt>
      <trkpt lat="39.232612004735614" lon="-5.690902040640611"><ele>2876</ele><speed>8.12</speed><time>2016-07-09T15:55:11Z</time><pdop>6.0</pdop><geoidheight>50.80</geoidheight><course>192.97832</course><type>1</type></trkpt>
      <trkpt lat="39.23245318471297" lon="-5.691003091324793"><ele>2878</ele><speed>10.93</speed><time>2016-07-09T15:55:12Z</time><pdop>6.0</pdop><geoidheight>50.80</geoidheight><course>210.07042</course><type>1</type></trkpt>
      <trkpt lat="39.23231878066187" lon="-5.6911885648483285"><ele>2881</ele><speed>12.40</speed><time>2016-07-09T15:55:15Z</time><pdop>6.0</pdop><geoidheight>50.80</geoidheight><course>233.12921</course><type>1</type></trkpt>
      <trkpt lat="39.23224077529488" lon="-5.691432174255348"><ele>2885</ele><speed>12.98</speed><time>2016-07-09T15:55:16Z</time><pdop>6.0</pdop><geoidheight>50.80</geoidheight><course>252.30339</course><type>1</type></trkpt>
      <trkpt lat="39.232227093912414" lon="-5.691593993017542"><ele>2887</ele><speed>14.89</speed><time>2016-07-09T15:55:17Z</time><pdop>6.0</pdop><geoidheight>50.80</geoidheight><course>264.89835</course><type>1</type></trkpt>
      <trkpt lat="39.23227560012233" lon="-5.691919571310021"><ele>2889</ele><speed>15.75</speed><time>2016-07-09T15:55:19Z</time><pdop>8.0</pdop><geoidheight>50.80</geoidheight><course>283.74982</course><type>1</type></trkpt>
      <trkpt lat="39.2324271439631" lon="-5.69222625955832"><ele>2891</ele><speed>15.18</speed><time>2016-07-09T15:55:21Z</time><pdop>8.0</pdop><geoidheight>50.80</geoidheight><course>305.5947</course><type>1</type></trkpt>
      <trkpt lat="39.23259484390113" lon="-5.69250296813379"><ele>2894</ele><speed>14.09</speed><time>2016-07-09T15:55:24Z</time><pdop>8.0</pdop><geoidheight>50.80</geoidheight><course>309.4158</course><type>1</type></trkpt>
      <trkpt lat="39.23274523993065" lon="-5.692730008648562"><ele>2897</ele><speed>11.15</speed><time>2016-07-09T15:55:25Z</time><pdop>8.0</pdop><geoidheight>50.80</geoidheight><course>310.64896</course><type>1</type></trkpt>
      <trkpt lat="39.232899802056544" lon="-5.692919249061044"><ele>2899</ele><speed>11.12</speed><time>2016-07-09T15:55:27Z</time><pdop>6.0</pdop><geoidheight>50.80</geoidheight><course>316.8172</course><type>1</type></trkpt>
      <trkpt lat="39.23306264966459" lon="-5.693060450515776"><ele>2899</ele><speed>12.84</speed><time>2016-07-09T15:55:29Z</time><pdop>6.0</pdop><geoidheight>50.80</geoidheight><course>323.27094</course><type>1</type></trkpt>
      <trkpt lat="39.23315632402486" lon="-5.693138640879594"><ele>2899</ele><speed>13.69</speed><time>2016-07-09T15:55:30Z</time><pdop>6.0</pdop><geoidheight>50.80</geoidheight><course>324.44897</course><type>1</type></trkpt>
      <trkpt lat="39.23326152500545" lon="-5.6932219331045015"><ele>2898</ele><speed>13.94</speed><time>2016-07-09T15:55:31Z</time><pdop>6.0</pdop><geoidheight>50.80</geoidheight><course>325.9144</course><type>1</type></trkpt>
      <trkpt lat="39.233369984525154" lon="-5.693301554537153"><ele>2897</ele><speed>12.64</speed><time>2016-07-09T15:55:32Z</time><pdop>6.0</pdop><geoidheight>50.80</geoidheight><course>327.34445</course><type>1</type></trkpt>
      <trkpt lat="39.23346951254525" lon="-5.693375391282539"><ele>2897</ele><speed>12.02</speed><time>2016-07-09T15:55:33Z</time><pdop>6.0</pdop><geoidheight>50.80</geoidheight><course>326.37274</course><type>1</type></trkpt>
      <trkpt lat="39.23364741164076" lon="-5.693538856912831"><ele>2896</ele><speed>11.92</speed><time>2016-07-09T15:55:35Z</time><pdop>8.0</pdop><geoidheight>50.80</geoidheight><course>322.27017</course><type>1</type></trkpt>
      <trkpt lat="39.23382458996415" lon="-5.693699182735125"><ele>2894</ele><speed>13.22</speed><time>2016-07-09T15:55:37Z</time><pdop>6.0</pdop><geoidheight>50.80</geoidheight><course>325.76257</course><type>1</type></trkpt>
      <trkpt lat="39.233918492515" lon="-5.6937747928305225"><ele>2893</ele><speed>14.61</speed><time>2016-07-09T15:55:38Z</time><pdop>6.0</pdop><geoidheight>50.80</geoidheight><course>327.15292</course><type>1</type></trkpt>
      <trkpt lat="39.234019240279004" lon="-5.693855887053809"><ele>2890</ele><speed>15.00</speed><time>2016-07-09T15:55:39Z</time><pdop>6.0</pdop><geoidheight>50.80</geoidheight><course>326.69003</course><type>1</type></trkpt>
      <trkpt lat="39.23411821079164" lon="-5.693944708175201"><ele>2888</ele><speed>14.65</speed><time>2016-07-09T15:55:40Z</time><pdop>6.0</pdop><geoidheight>50.80</geoidheight><course>325.15778</course><type>1</type></trkpt>
      <trkpt lat="39.23422083198541" lon="-5.6940430346573"><ele>2886</ele><speed>14.51</speed><time>2016-07-09T15:55:42Z</time><pdop>6.0</pdop><geoidheight>50.80</geoidheight><course>323.13797</course><type>1</type></trkpt>
      <trkpt lat="39.2343232292407" lon="-5.694155657600196"><ele>2885</ele><speed>14.40</speed><time>2016-07-09T15:55:43Z</time><pdop>6.0</pdop><geoidheight>50.80</geoidheight><course>320.55185</course><type>1</type></trkpt>
      <trkpt lat="39.23442193337072" lon="-5.694271219677182"><ele>2883</ele><speed>14.43</speed><time>2016-07-09T15:55:43Z</time><pdop>6.0</pdop><geoidheight>50.80</geoidheight><course>319.06848</course><type>1</type></trkpt>
      <trkpt lat="39.2345136472754" lon="-5.694370334665179"><ele>2881</ele><speed>13.48</speed><time>2016-07-09T15:55:44Z</time><pdop>6.0</pdop><geoidheight>50.80</geoidheight><course>320.7366</course><type>1</type></trkpt>
      <trkpt lat="39.23460244307148" lon="-5.694453251512494"><ele>2879</ele><speed>12.99</speed><time>2016-07-09T15:55:45Z</time><pdop>6.0</pdop><geoidheight>50.80</geoidheight><course>323.3339</course><type>1</type></trkpt>
      <trkpt lat="39.23469533788523" lon="-5.694529099386948"><ele>2876</ele><speed>12.90</speed><time>2016-07-09T15:55:46Z</time><pdop>6.0</pdop><geoidheight>50.80</geoidheight><course>325.3444</course><type>1</type></trkpt>
      <trkpt lat="39.234888349104345" lon="-5.694669591898982"><ele>2870</ele><speed>13.75</speed><time>2016-07-09T15:55:48Z</time><pdop>6.0</pdop><geoidheight>50.80</geoidheight><course>328.53818</course><type>1</type></trkpt>
      <trkpt lat="39.234997548933244" lon="-5.694740728475863"><ele>2867</ele><speed>14.74</speed><time>2016-07-09T15:55:49Z</time><pdop>6.0</pdop><geoidheight>50.80</geoidheight><course>330.5443</course><type>1</type></trkpt>
      <trkpt lat="39.235112177860536" lon="-5.694808307075826"><ele>2864</ele><speed>14.05</speed><time>2016-07-09T15:55:50Z</time><pdop>6.0</pdop><geoidheight>50.80</geoidheight><course>332.45734</course><type>1</type></trkpt>
      <trkpt lat="39.23522815815219" lon="-5.694873097568208"><ele>2862</ele><speed>13.75</speed><time>2016-07-09T15:55:51Z</time><pdop>6.0</pdop><geoidheight>50.80</geoidheight><course>333.76898</course><type>1</type></trkpt>
      <trkpt lat="39.235339007966836" lon="-5.694934047323379"><ele>2859</ele><speed>13.58</speed><time>2016-07-09T15:55:52Z</time><pdop>6.0</pdop><geoidheight>50.80</geoidheight><course>334.74496</course><type>1</type></trkpt>
      <trkpt lat="39.23545488172266" lon="-5.6949938222934895"><ele>2856</ele><speed>14.28</speed><time>2016-07-09T15:55:53Z</time><pdop>6.0</pdop><geoidheight>50.80</geoidheight><course>335.18378</course><type>1</type></trkpt>
      <trkpt lat="39.235576155493746" lon="-5.695055780283088"><ele>2853</ele><speed>15.53</speed><time>2016-07-09T15:55:54Z</time><pdop>6.0</pdop><geoidheight>50.80</geoidheight><course>335.82065</course><type>1</type></trkpt>
      <trkpt lat="39.23570957439358" lon="-5.695120188648078"><ele>2850</ele><speed>16.42</speed><time>2016-07-09T15:55:55Z</time><pdop>6.0</pdop><geoidheight>50.80</geoidheight><course>337.1013</course><type>1</type></trkpt>
      <trkpt lat="39.235849988964524" lon="-5.695180308309388"><ele>2847</ele><speed>16.49</speed><time>2016-07-09T15:55:56Z</time><pdop>6.0</pdop><geoidheight>50.80</geoidheight><course>338.7885</course><type>1</type></trkpt>
      <trkpt lat="39.23598299784641" lon="-5.695228354278279"><ele>2845</ele><speed>16.07</speed><time>2016-07-09T15:55:57Z</time><pdop>8.0</pdop><geoidheight>50.80</geoidheight><course>340.28043</course><type>1</type></trkpt>
      <trkpt lat="39.23611850444596" lon="-5.695281102624491"><ele>2843</ele><speed>15.22</speed><time>2016-07-09T15:55:58Z</time><pdop>4.0</pdop><geoidheight>50.80</geoidheight><course>340.6526</course><type>1</type></trkpt>
      <trkpt lat="39.23637391103303" lon="-5.695385056291584"><ele>2838</ele><speed>15.26</speed><time>2016-07-09T15:56:00Z</time><pdop>12.0</pdop><geoidheight>50.80</geoidheight><course>339.3589</course><type>1</type></trkpt>
      <trkpt lat="39.236630978810226" lon="-5.695496930244538"><ele>2834</ele><speed>15.72</speed><time>2016-07-09T15:56:02Z</time><pdop>8.0</pdop><geoidheight>50.80</geoidheight><course>340.37433</course><type>1</type></trkpt>
      <trkpt lat="39.23676865269724" lon="-5.69556080946634"><ele>2832</ele><speed>15.91</speed><time>2016-07-09T15:56:03Z</time><pdop>8.0</pdop><geoidheight>50.80</geoidheight><course>339.7914</course><type>1</type></trkpt>
      <trkpt lat="39.23690140374871" lon="-5.695632808235386"><ele>2830</ele><speed>15.39</speed><time>2016-07-09T15:56:04Z</time><pdop>8.0</pdop><geoidheight>50.80</geoidheight><course>337.39053</course><type>1</type></trkpt>
      <trkpt lat="39.237148857861285" lon="-5.695798157557964"><ele>2827</ele><speed>14.34</speed><time>2016-07-09T15:56:06Z</time><pdop>8.0</pdop><geoidheight>50.80</geoidheight><course>332.94632</course><type>1</type></trkpt>
      <trkpt lat="39.237375347928065" lon="-5.695957271506319"><ele>2823</ele><speed>15.07</speed><time>2016-07-09T15:56:08Z</time><pdop>8.0</pdop><geoidheight>50.80</geoidheight><course>332.65414</course><type>1</type></trkpt>
      <trkpt lat="39.237585969897665" lon="-5.696122077975873"><ele>2818</ele><speed>13.22</speed><time>2016-07-09T15:56:11Z</time><pdop>12.0</pdop><geoidheight>50.80</geoidheight><course>326.9588</course><type>1</type></trkpt>
      <trkpt lat="39.2377963944586" lon="-5.696326381379957"><ele>2814</ele><speed>8.84</speed><time>2016-07-09T15:56:13Z</time><pdop>12.0</pdop><geoidheight>50.80</geoidheight><course>326.47705</course><type>1</type></trkpt>
      <trkpt lat="39.237971170202684" lon="-5.696456752044398"><ele>2808</ele><speed>14.82</speed><time>2016-07-09T15:56:15Z</time><pdop>8.0</pdop><geoidheight>50.80</geoidheight><course>330.34598</course><type>1</type></trkpt>
      <trkpt lat="39.23820715407472" lon="-5.696608058734958"><ele>2801</ele><speed>15.39</speed><time>2016-07-09T15:56:17Z</time><pdop>8.0</pdop><geoidheight>50.80</geoidheight><course>333.1964</course><type>1</type></trkpt>
      <trkpt lat="39.23840565024616" lon="-5.6967392471727765"><ele>2795</ele><speed>11.73</speed><time>2016-07-09T15:56:19Z</time><pdop>12.0</pdop><geoidheight>50.80</geoidheight><course>330.06805</course><type>1</type></trkpt>
      <trkpt lat="39.23856819120181" lon="-5.696926978290199"><ele>2790</ele><speed>13.78</speed><time>2016-07-09T15:56:21Z</time><pdop>8.0</pdop><geoidheight>50.80</geoidheight><course>312.0934</course><type>1</type></trkpt>
      <trkpt lat="39.23873644804426" lon="-5.697163557653556"><ele>2785</ele><speed>14.58</speed><time>2016-07-09T15:56:23Z</time><pdop>8.0</pdop><geoidheight>50.80</geoidheight><course>314.4136</course><type>1</type></trkpt>
      <trkpt lat="39.23890982577292" lon="-5.697358733451682"><ele>2778</ele><speed>13.25</speed><time>2016-07-09T15:56:25Z</time><pdop>6.0</pdop><geoidheight>50.80</geoidheight><course>319.97363</course><type>1</type></trkpt>
      <trkpt lat="39.23900089677131" lon="-5.6974378695751335"><ele>2775</ele><speed>13.22</speed><time>2016-07-09T15:56:26Z</time><pdop>6.0</pdop><geoidheight>50.80</geoidheight><course>323.92612</course><type>1</type></trkpt>
      <trkpt lat="39.23919963819797" lon="-5.697544136254035"><ele>2765</ele><speed>13.32</speed><time>2016-07-09T15:56:28Z</time><pdop>6.0</pdop><geoidheight>50.80</geoidheight><course>328.5795</course><type>1</type></trkpt>
      <trkpt lat="39.23931222221112" lon="-5.69760877678799"><ele>2760</ele><speed>14.56</speed><time>2016-07-09T15:56:29Z</time><pdop>6.0</pdop><geoidheight>50.80</geoidheight><course>328.66437</course><type>1</type></trkpt>
      <trkpt lat="39.23942551554513" lon="-5.697680801790748"><ele>2755</ele><speed>14.95</speed><time>2016-07-09T15:56:30Z</time><pdop>6.0</pdop><geoidheight>50.80</geoidheight><course>329.37454</course><type>1</type></trkpt>
      <trkpt lat="39.23954347208224" lon="-5.6977554584908425"><ele>2750</ele><speed>14.15</speed><time>2016-07-09T15:56:31Z</time><pdop>6.0</pdop><geoidheight>50.80</geoidheight><course>330.30817</course><type>1</type></trkpt>
      <trkpt lat="39.2396475533107" lon="-5.697820343254053"><ele>2745</ele><speed>13.11</speed><time>2016-07-09T15:56:32Z</time><pdop>6.0</pdop><geoidheight>50.80</geoidheight><course>330.72235</course><type>1</type></trkpt>
      <trkpt lat="39.239856158154545" lon="-5.697966040602972"><ele>2736</ele><speed>13.46</speed><time>2016-07-09T15:56:34Z</time><pdop>12.0</pdop><geoidheight>50.80</geoidheight><course>330.53055</course><type>1</type></trkpt>
      <trkpt lat="39.240053053044726" lon="-5.698089492125774"><ele>2725</ele><speed>13.77</speed><time>2016-07-09T15:56:37Z</time><pdop>8.0</pdop><geoidheight>50.80</geoidheight><course>332.70358</course><type>1</type></trkpt>
      <trkpt lat="39.24025660676975" lon="-5.698216394753895"><ele>2715</ele><speed>13.67</speed><time>2016-07-09T15:56:38Z</time><pdop>6.0</pdop><geoidheight>50.80</geoidheight><course>331.91727</course><type>1</type></trkpt>
      <trkpt lat="39.24036617169466" lon="-5.698289717602408"><ele>2711</ele><speed>12.94</speed><time>2016-07-09T15:56:39Z</time><pdop>6.0</pdop><geoidheight>50.80</geoidheight><course>331.28937</course><type>1</type></trkpt>
      <trkpt lat="39.24058913537438" lon="-5.6984417828552525"><ele>2703</ele><speed>14.11</speed><time>2016-07-09T15:56:41Z</time><pdop>8.0</pdop><geoidheight>50.80</geoidheight><course>331.711</course><type>1</type></trkpt>
      <trkpt lat="39.24080550007796" lon="-5.698589194644956"><ele>2695</ele><speed>14.47</speed><time>2016-07-09T15:56:43Z</time><pdop>12.0</pdop><geoidheight>50.80</geoidheight><course>331.0078</course><type>1</type></trkpt>
      <trkpt lat="39.241003461722826" lon="-5.698741073042583"><ele>2688</ele><speed>12.67</speed><time>2016-07-09T15:56:45Z</time><pdop>6.0</pdop><geoidheight>50.80</geoidheight><course>329.34064</course><type>1</type></trkpt>
      <trkpt lat="39.24123079106936" lon="-5.698841272656222"><ele>2681</ele><speed>14.98</speed><time>2016-07-09T15:56:47Z</time><pdop>8.0</pdop><geoidheight>50.80</geoidheight><course>344.23914</course><type>1</type></trkpt>
      <trkpt lat="39.241453698037" lon="-5.698952357037297"><ele>2672</ele><speed>16.19</speed><time>2016-07-09T15:56:49Z</time><pdop>6.0</pdop><geoidheight>50.80</geoidheight><course>342.74133</course><type>1</type></trkpt>
      <trkpt lat="39.24158426834584" lon="-5.6990206334482005"><ele>2668</ele><speed>17.60</speed><time>2016-07-09T15:56:50Z</time><pdop>6.0</pdop><geoidheight>50.80</geoidheight><course>341.3625</course><type>1</type></trkpt>
      <trkpt lat="39.2417003751751" lon="-5.6990942928681045"><ele>2665</ele><speed>15.77</speed><time>2016-07-09T15:56:51Z</time><pdop>6.0</pdop><geoidheight>50.80</geoidheight><course>337.53693</course><type>1</type></trkpt>
      <trkpt lat="39.241792798116336" lon="-5.699196404703071"><ele>2661</ele><speed>14.84</speed><time>2016-07-09T15:56:52Z</time><pdop>6.0</pdop><geoidheight>50.80</geoidheight><course>323.4442</course><type>1</type></trkpt>
      <trkpt lat="39.24197458176545" lon="-5.699386777748801"><ele>2653</ele><speed>13.71</speed><time>2016-07-09T15:56:54Z</time><pdop>8.0</pdop><geoidheight>50.80</geoidheight><course>323.2161</course><type>1</type></trkpt>
      <trkpt lat="39.242167616062254" lon="-5.6995666133592735"><ele>2645</ele><speed>14.11</speed><time>2016-07-09T15:56:57Z</time><pdop>12.0</pdop><geoidheight>50.80</geoidheight><course>325.73016</course><type>1</type></trkpt>
      <trkpt lat="39.24234961283957" lon="-5.6997414731857035"><ele>2639</ele><speed>12.04</speed><time>2016-07-09T15:56:58Z</time><pdop>12.0</pdop><geoidheight>50.80</geoidheight><course>321.9266</course><type>1</type></trkpt>
      <trkpt lat="39.24251315074832" lon="-5.699920206794507"><ele>2634</ele><speed>11.25</speed><time>2016-07-09T15:57:00Z</time><pdop>8.0</pdop><geoidheight>50.80</geoidheight><course>321.43192</course><type>1</type></trkpt>
      <trkpt lat="39.24268986408281" lon="-5.700096911608944"><ele>2629</ele><speed>13.63</speed><time>2016-07-09T15:57:02Z</time><pdop>8.0</pdop><geoidheight>50.80</geoidheight><course>323.75156</course><type>1</type></trkpt>
      <trkpt lat="39.24289735232568" lon="-5.7002831340049624"><ele>2622</ele><speed>13.09</speed><time>2016-07-09T15:57:04Z</time><pdop>8.0</pdop><geoidheight>50.80</geoidheight><course>326.53067</course><type>1</type></trkpt>
      <trkpt lat="39.243073340944775" lon="-5.70041780156232"><ele>2616</ele><speed>11.94</speed><time>2016-07-09T15:57:06Z</time><pdop>8.0</pdop><geoidheight>50.80</geoidheight><course>329.65427</course><type>1</type></trkpt>
      <trkpt lat="39.24323988636233" lon="-5.700552016957321"><ele>2610</ele><speed>12.55</speed><time>2016-07-09T15:57:09Z</time><pdop>8.0</pdop><geoidheight>50.80</geoidheight><course>326.08484</course><type>1</type></trkpt>
      <trkpt lat="39.243406058061716" lon="-5.700712341546322"><ele>2603</ele><speed>12.03</speed><time>2016-07-09T15:57:10Z</time><pdop>8.0</pdop><geoidheight>50.80</geoidheight><course>323.15665</course><type>1</type></trkpt>
      <trkpt lat="39.24356529648402" lon="-5.700864589363837"><ele>2597</ele><speed>11.00</speed><time>2016-07-09T15:57:12Z</time><pdop>12.0</pdop><geoidheight>50.80</geoidheight><course>323.12473</course><type>1</type></trkpt>
      <trkpt lat="39.24371246853531" lon="-5.701023988078132"><ele>2591</ele><speed>11.35</speed><time>2016-07-09T15:57:14Z</time><pdop>8.0</pdop><geoidheight>50.80</geoidheight><course>319.98615</course><type>1</type></trkpt>
      <trkpt lat="39.243859532203054" lon="-5.701185944414238"><ele>2586</ele><speed>11.61</speed><time>2016-07-09T15:57:16Z</time><pdop>12.0</pdop><geoidheight>50.80</geoidheight><course>320.39627</course><type>1</type></trkpt>
      <trkpt lat="39.24401233794351" lon="-5.7013431186791825"><ele>2580</ele><speed>11.10</speed><time>2016-07-09T15:57:18Z</time><pdop>4.0</pdop><geoidheight>50.80</geoidheight><course>320.8101</course><type>1</type></trkpt>
      <trkpt lat="39.24408357269294" lon="-5.701414135038333"><ele>2578</ele><speed>10.04</speed><time>2016-07-09T15:57:19Z</time><pdop>4.0</pdop><geoidheight>50.80</geoidheight><course>320.99298</course><type>1</type></trkpt>
      <trkpt lat="39.24415183085095" lon="-5.701481684814066"><ele>2575</ele><speed>9.39</speed><time>2016-07-09T15:57:20Z</time><pdop>4.0</pdop><geoidheight>50.80</geoidheight><course>321.98767</course><type>1</type></trkpt>
      <trkpt lat="39.24421676775281" lon="-5.701542053181326"><ele>2573</ele><speed>9.59</speed><time>2016-07-09T15:57:21Z</time><pdop>4.0</pdop><geoidheight>50.80</geoidheight><course>322.30637</course><type>1</type></trkpt>
      <trkpt lat="39.244282622533504" lon="-5.7016047123522"><ele>2570</ele><speed>10.50</speed><time>2016-07-09T15:57:22Z</time><pdop>4.0</pdop><geoidheight>50.80</geoidheight><course>321.5604</course><type>1</type></trkpt>
      <trkpt lat="39.244350232938125" lon="-5.701673226573"><ele>2567</ele><speed>11.04</speed><time>2016-07-09T15:57:23Z</time><pdop>4.0</pdop><geoidheight>50.80</geoidheight><course>321.01517</course><type>1</type></trkpt>
      <trkpt lat="39.24442402863156" lon="-5.7017516881070165"><ele>2564</ele><speed>11.35</speed><time>2016-07-09T15:57:24Z</time><pdop>4.0</pdop><geoidheight>50.80</geoidheight><course>319.4795</course><type>1</type></trkpt>
      <trkpt lat="39.24449285673656" lon="-5.7018260283516105"><ele>2561</ele><speed>10.24</speed><time>2016-07-09T15:57:25Z</time><pdop>4.0</pdop><geoidheight>50.80</geoidheight><course>318.85684</course><type>1</type></trkpt>
      <trkpt lat="39.24455827587996" lon="-5.701900748051696"><ele>2558</ele><speed>9.38</speed><time>2016-07-09T15:57:26Z</time><pdop>4.0</pdop><geoidheight>50.80</geoidheight><course>318.44803</course><type>1</type></trkpt>
      <trkpt lat="39.244616625514254" lon="-5.701971714605656"><ele>2556</ele><speed>9.22</speed><time>2016-07-09T15:57:27Z</time><pdop>4.0</pdop><geoidheight>50.80</geoidheight><course>316.51743</course><type>1</type></trkpt>
      <trkpt lat="39.24468166179793" lon="-5.702060042099171"><ele>2554</ele><speed>9.48</speed><time>2016-07-09T15:57:28Z</time><pdop>6.0</pdop><geoidheight>50.80</geoidheight><course>314.07526</course><type>1</type></trkpt>
      <trkpt lat="39.24481125407936" lon="-5.702247095846161"><ele>2550</ele><speed>10.82</speed><time>2016-07-09T15:57:30Z</time><pdop>6.0</pdop><geoidheight>50.80</geoidheight><course>311.2275</course><type>1</type></trkpt>
      <trkpt lat="39.2449248248042" lon="-5.7024155947566575"><ele>2546</ele><speed>9.47</speed><time>2016-07-09T15:57:32Z</time><pdop>6.0</pdop><geoidheight>50.80</geoidheight><course>311.6968</course><type>1</type></trkpt>
      <trkpt lat="39.245030903691976" lon="-5.702549495633263"><ele>2541</ele><speed>9.11</speed><time>2016-07-09T15:57:34Z</time><pdop>6.0</pdop><geoidheight>50.80</geoidheight><course>316.4259</course><type>1</type></trkpt>
      <trkpt lat="39.24514918979153" lon="-5.702674037760493"><ele>2536</ele><speed>9.43</speed><time>2016-07-09T15:57:36Z</time><pdop>6.0</pdop><geoidheight>50.80</geoidheight><course>317.69565</course><type>1</type></trkpt>
      <trkpt lat="39.24527997596815" lon="-5.702820144901115"><ele>2530</ele><speed>10.52</speed><time>2016-07-09T15:57:38Z</time><pdop>6.0</pdop><geoidheight>50.80</geoidheight><course>316.22763</course><type>1</type></trkpt>
      <trkpt lat="39.24541444365966" lon="-5.702963972291497"><ele>2525</ele><speed>10.08</speed><time>2016-07-09T15:57:40Z</time><pdop>8.0</pdop><geoidheight>50.80</geoidheight><course>318.7515</course><type>1</type></trkpt>
      <trkpt lat="39.24554975986047" lon="-5.703122837457828"><ele>2519</ele><speed>11.81</speed><time>2016-07-09T15:57:42Z</time><pdop>8.0</pdop><geoidheight>50.80</geoidheight><course>315.79285</course><type>1</type></trkpt>
      <trkpt lat="39.24567363824419" lon="-5.703294337807024"><ele>2514</ele><speed>12.08</speed><time>2016-07-09T15:57:44Z</time><pdop>8.0</pdop><geoidheight>50.80</geoidheight><course>311.74707</course><type>1</type></trkpt>
      <trkpt lat="39.24579216897719" lon="-5.703475245287613"><ele>2510</ele><speed>11.41</speed><time>2016-07-09T15:57:46Z</time><pdop>8.0</pdop><geoidheight>50.80</geoidheight><course>310.1317</course><type>1</type></trkpt>
      <trkpt lat="39.24592342370294" lon="-5.703657050742023"><ele>2503</ele><speed>12.85</speed><time>2016-07-09T15:57:48Z</time><pdop>6.0</pdop><geoidheight>50.80</geoidheight><course>312.3029</course><type>1</type></trkpt>
      <trkpt lat="39.24608181176185" lon="-5.703842157300501"><ele>2496</ele><speed>12.98</speed><time>2016-07-09T15:57:50Z</time><pdop>6.0</pdop><geoidheight>50.80</geoidheight><course>315.00613</course><type>1</type></trkpt>
      <trkpt lat="39.24616685781183" lon="-5.703933320756406"><ele>2493</ele><speed>12.36</speed><time>2016-07-09T15:57:51Z</time><pdop>6.0</pdop><geoidheight>50.80</geoidheight><course>316.8494</course><type>1</type></trkpt>
      <trkpt lat="39.2462489540974" lon="-5.704017439369773"><ele>2490</ele><speed>11.81</speed><time>2016-07-09T15:57:52Z</time><pdop>4.0</pdop><geoidheight>50.80</geoidheight><course>317.88336</course><type>1</type></trkpt>
      <trkpt lat="39.24633117218133" lon="-5.704101336749732"><ele>2487</ele><speed>12.03</speed><time>2016-07-09T15:57:53Z</time><pdop>4.0</pdop><geoidheight>50.80</geoidheight><course>318.29462</course><type>1</type></trkpt>
      <trkpt lat="39.246419570708284" lon="-5.704191585895123"><ele>2484</ele><speed>13.06</speed><time>2016-07-09T15:57:54Z</time><pdop>4.0</pdop><geoidheight>50.80</geoidheight><course>317.83612</course><type>1</type></trkpt>
      <trkpt lat="39.24651082686102" lon="-5.704287793449754"><ele>2481</ele><speed>13.48</speed><time>2016-07-09T15:57:55Z</time><pdop>4.0</pdop><geoidheight>50.80</geoidheight><course>317.0141</course><type>1</type></trkpt>
      <trkpt lat="39.246598404637474" lon="-5.704390529866323"><ele>2478</ele><speed>14.74</speed><time>2016-07-09T15:57:56Z</time><pdop>4.0</pdop><geoidheight>50.80</geoidheight><course>315.2032</course><type>1</type></trkpt>
      <trkpt lat="39.24668716479638" lon="-5.704503155609347"><ele>2475</ele><speed>14.98</speed><time>2016-07-09T15:57:57Z</time><pdop>4.0</pdop><geoidheight>50.80</geoidheight><course>313.74246</course><type>1</type></trkpt>
      <trkpt lat="39.246771456960545" lon="-5.704615133185113"><ele>2473</ele><speed>13.39</speed><time>2016-07-09T15:57:58Z</time><pdop>4.0</pdop><geoidheight>50.80</geoidheight><course>314.09476</course><type>1</type></trkpt>
      <trkpt lat="39.246853979130385" lon="-5.704719552743766"><ele>2471</ele><speed>12.90</speed><time>2016-07-09T15:57:59Z</time><pdop>4.0</pdop><geoidheight>50.80</geoidheight><course>315.4073</course><type>1</type></trkpt>
      <trkpt lat="39.24693424544412" lon="-5.704818487340596"><ele>2469</ele><speed>13.19</speed><time>2016-07-09T15:58:00Z</time><pdop>6.0</pdop><geoidheight>50.80</geoidheight><course>316.31186</course><type>1</type></trkpt>
      <trkpt lat="39.247018209115495" lon="-5.704919305847529"><ele>2466</ele><speed>14.25</speed><time>2016-07-09T15:58:01Z</time><pdop>6.0</pdop><geoidheight>50.80</geoidheight><course>315.00876</course><type>1</type></trkpt>
      <trkpt lat="39.247102450641485" lon="-5.705031664203484"><ele>2464</ele><speed>14.61</speed><time>2016-07-09T15:58:02Z</time><pdop>6.0</pdop><geoidheight>50.80</geoidheight><course>313.85376</course><type>1</type></trkpt>
      <trkpt lat="39.24718774343897" lon="-5.705145699598275"><ele>2462</ele><speed>14.26</speed><time>2016-07-09T15:58:03Z</time><pdop>6.0</pdop><geoidheight>50.80</geoidheight><course>314.25455</course><type>1</type></trkpt>
      <trkpt lat="39.24727334109946" lon="-5.70525393117606"><ele>2459</ele><speed>13.77</speed><time>2016-07-09T15:58:04Z</time><pdop>6.0</pdop><geoidheight>50.80</geoidheight><course>315.10074</course><type>1</type></trkpt>
      <trkpt lat="39.24736103850555" lon="-5.705358735811256"><ele>2457</ele><speed>14.09</speed><time>2016-07-09T15:58:05Z</time><pdop>6.0</pdop><geoidheight>50.80</geoidheight><course>316.14117</course><type>1</type></trkpt>
      <trkpt lat="39.247454039816915" lon="-5.705463579939549"><ele>2454</ele><speed>14.15</speed><time>2016-07-09T15:58:06Z</time><pdop>6.0</pdop><geoidheight>50.80</geoidheight><course>317.33304</course><type>1</type></trkpt>
      <trkpt lat="39.24754951304773" lon="-5.705569310140795"><ele>2452</ele><speed>14.92</speed><time>2016-07-09T15:58:07Z</time><pdop>6.0</pdop><geoidheight>50.80</geoidheight><course>317.78723</course><type>1</type></trkpt>
      <trkpt lat="39.24764682042164" lon="-5.705676136659541"><ele>2449</ele><speed>15.79</speed><time>2016-07-09T15:58:09Z</time><pdop>6.0</pdop><geoidheight>50.80</geoidheight><course>317.92468</course><type>1</type></trkpt>
      <trkpt lat="39.24774534726887" lon="-5.705762798762947"><ele>2445</ele><speed>15.60</speed><time>2016-07-09T15:58:10Z</time><pdop>6.0</pdop><geoidheight>50.80</geoidheight><course>318.42795</course><type>1</type></trkpt>
      <trkpt lat="39.247848033452506" lon="-5.705859532612624"><ele>2441</ele><speed>14.78</speed><time>2016-07-09T15:58:10Z</time><pdop>4.0</pdop><geoidheight>50.80</geoidheight><course>318.18713</course><type>1</type></trkpt>
      <trkpt lat="39.247945325602046" lon="-5.705958764684602"><ele>2438</ele><speed>13.57</speed><time>2016-07-09T15:58:11Z</time><pdop>4.0</pdop><geoidheight>50.80</geoidheight><course>317.3608</course><type>1</type></trkpt>
      <trkpt lat="39.24803322198022" lon="-5.706059059351103"><ele>2436</ele><speed>12.85</speed><time>2016-07-09T15:58:12Z</time><pdop>4.0</pdop><geoidheight>50.80</geoidheight><course>315.7606</course><type>1</type></trkpt>
      <trkpt lat="39.24811159898965" lon="-5.706162637088913"><ele>2434</ele><speed>12.12</speed><time>2016-07-09T15:58:13Z</time><pdop>6.0</pdop><geoidheight>50.80</geoidheight><course>313.98056</course><type>1</type></trkpt>
      <trkpt lat="39.248185989854385" lon="-5.706270432459537"><ele>2433</ele><speed>12.32</speed><time>2016-07-09T15:58:14Z</time><pdop>6.0</pdop><geoidheight>50.80</geoidheight><course>312.19272</course><type>1</type></trkpt>
      <trkpt lat="39.24825651050386" lon="-5.706382862694841"><ele>2431</ele><speed>13.58</speed><time>2016-07-09T15:58:15Z</time><pdop>6.0</pdop><geoidheight>50.80</geoidheight><course>310.281</course><type>1</type></trkpt>
      <trkpt lat="39.2483307910024" lon="-5.706502297104164"><ele>2429</ele><speed>14.40</speed><time>2016-07-09T15:58:16Z</time><pdop>6.0</pdop><geoidheight>50.80</geoidheight><course>309.2844</course><type>1</type></trkpt>
      <trkpt lat="39.24840827011653" lon="-5.706625975084439"><ele>2427</ele><speed>14.78</speed><time>2016-07-09T15:58:17Z</time><pdop>6.0</pdop><geoidheight>50.80</geoidheight><course>309.3454</course><type>1</type></trkpt>
      <trkpt lat="39.248485315337376" lon="-5.706746518330124"><ele>2424</ele><speed>13.81</speed><time>2016-07-09T15:58:18Z</time><pdop>6.0</pdop><geoidheight>50.80</geoidheight><course>309.76025</course><type>1</type></trkpt>
      <trkpt lat="39.24856023033611" lon="-5.706861448232036"><ele>2422</ele><speed>12.71</speed><time>2016-07-09T15:58:19Z</time><pdop>6.0</pdop><geoidheight>50.80</geoidheight><course>310.10947</course><type>1</type></trkpt>
      <trkpt lat="39.2487015623248" lon="-5.70705822888774"><ele>2418</ele><speed>11.69</speed><time>2016-07-09T15:58:21Z</time><pdop>6.0</pdop><geoidheight>50.80</geoidheight><course>313.1734</course><type>1</type></trkpt>
      <trkpt lat="39.24885874117388" lon="-5.707256894706372"><ele>2414</ele><speed>13.89</speed><time>2016-07-09T15:58:23Z</time><pdop>8.0</pdop><geoidheight>50.80</geoidheight><course>314.68472</course><type>1</type></trkpt>
      <trkpt lat="39.2490353825707" lon="-5.707489209302875"><ele>2409</ele><speed>14.56</speed><time>2016-07-09T15:58:25Z</time><pdop>8.0</pdop><geoidheight>50.80</geoidheight><course>313.03226</course><type>1</type></trkpt>
      <trkpt lat="39.24919942451021" lon="-5.707716146799968"><ele>2405</ele><speed>13.19</speed><time>2016-07-09T15:58:27Z</time><pdop>6.0</pdop><geoidheight>50.80</geoidheight><course>311.81772</course><type>1</type></trkpt>
      <trkpt lat="39.249275813786966" lon="-5.707822257571416"><ele>2403</ele><speed>12.56</speed><time>2016-07-09T15:58:28Z</time><pdop>6.0</pdop><geoidheight>50.80</geoidheight><course>312.2008</course><type>1</type></trkpt>
      <trkpt lat="39.24935396595891" lon="-5.707926366783909"><ele>2401</ele><speed>12.31</speed><time>2016-07-09T15:58:30Z</time><pdop>6.0</pdop><geoidheight>50.80</geoidheight><course>312.58337</course><type>1</type></trkpt>
      <trkpt lat="39.249433673973805" lon="-5.708022699105428"><ele>2399</ele><speed>12.09</speed><time>2016-07-09T15:58:31Z</time><pdop>6.0</pdop><geoidheight>50.80</geoidheight><course>313.19327</course><type>1</type></trkpt>
      <trkpt lat="39.249514328485986" lon="-5.7081191200629835"><ele>2397</ele><speed>12.84</speed><time>2016-07-09T15:58:31Z</time><pdop>6.0</pdop><geoidheight>50.80</geoidheight><course>313.6415</course><type>1</type></trkpt>
      <trkpt lat="39.24960030412517" lon="-5.7082146039232695"><ele>2394</ele><speed>13.20</speed><time>2016-07-09T15:58:32Z</time><pdop>6.0</pdop><geoidheight>50.80</geoidheight><course>314.96457</course><type>1</type></trkpt>
      <trkpt lat="39.24969271129366" lon="-5.708316590577833"><ele>2392</ele><speed>13.44</speed><time>2016-07-09T15:58:33Z</time><pdop>6.0</pdop><geoidheight>50.80</geoidheight><course>317.0987</course><type>1</type></trkpt>
      <trkpt lat="39.249782853010466" lon="-5.708403745999283"><ele>2391</ele><speed>13.14</speed><time>2016-07-09T15:58:34Z</time><pdop>6.0</pdop><geoidheight>50.80</geoidheight><course>319.2364</course><type>1</type></trkpt>
      <trkpt lat="39.24996467124068" lon="-5.70857146651121"><ele>2386</ele><speed>12.81</speed><time>2016-07-09T15:58:36Z</time><pdop>6.0</pdop><geoidheight>50.80</geoidheight><course>319.09567</course><type>1</type></trkpt>
      <trkpt lat="39.25005446809971" lon="-5.7086577162010315"><ele>2384</ele><speed>12.38</speed><time>2016-07-09T15:58:37Z</time><pdop>6.0</pdop><geoidheight>50.80</geoidheight><course>318.3926</course><type>1</type></trkpt>
      <trkpt lat="39.25022218972555" lon="-5.708822663058037"><ele>2380</ele><speed>11.81</speed><time>2016-07-09T15:58:39Z</time><pdop>6.0</pdop><geoidheight>50.80</geoidheight><course>319.9585</course><type>1</type></trkpt>
      <trkpt lat="39.250379787648875" lon="-5.70897199715709"><ele>2376</ele><speed>12.12</speed><time>2016-07-09T15:58:41Z</time><pdop>6.0</pdop><geoidheight>50.80</geoidheight><course>319.79144</course><type>1</type></trkpt>
      <trkpt lat="39.25054510967815" lon="-5.709165741438581"><ele>2372</ele><speed>14.08</speed><time>2016-07-09T15:58:43Z</time><pdop>6.0</pdop><geoidheight>50.80</geoidheight><course>316.597</course><type>1</type></trkpt>
      <trkpt lat="39.25063446488107" lon="-5.7092803188395775"><ele>2369</ele><speed>15.53</speed><time>2016-07-09T15:58:44Z</time><pdop>6.0</pdop><geoidheight>50.80</geoidheight><course>315.53857</course><type>1</type></trkpt>
      <trkpt lat="39.25078981513029" lon="-5.709455514723999"><ele>2364</ele><speed>12.68</speed><time>2016-07-09T15:58:46Z</time><pdop>6.0</pdop><geoidheight>50.80</geoidheight><course>317.91205</course><type>1</type></trkpt>
      <trkpt lat="39.25094817871161" lon="-5.709633965522271"><ele>2360</ele><speed>12.24</speed><time>2016-07-09T15:58:48Z</time><pdop>6.0</pdop><geoidheight>50.80</geoidheight><course>316.01135</course><type>1</type></trkpt>
      <trkpt lat="39.2511044564352" lon="-5.709833862704304"><ele>2356</ele><speed>13.43</speed><time>2016-07-09T15:58:50Z</time><pdop>6.0</pdop><geoidheight>50.80</geoidheight><course>313.27222</course><type>1</type></trkpt>
      <trkpt lat="39.25118246954571" lon="-5.709938734789302"><ele>2354</ele><speed>12.64</speed><time>2016-07-09T15:58:51Z</time><pdop>6.0</pdop><geoidheight>50.80</geoidheight><course>312.87286</course><type>1</type></trkpt>
      <trkpt lat="39.251323050579174" lon="-5.710127795889561"><ele>2350</ele><speed>11.89</speed><time>2016-07-09T15:58:53Z</time><pdop>6.0</pdop><geoidheight>50.80</geoidheight><course>311.94974</course><type>1</type></trkpt>
      <trkpt lat="39.25147534915702" lon="-5.7103237801407065"><ele>2346</ele><speed>12.80</speed><time>2016-07-09T15:58:55Z</time><pdop>6.0</pdop><geoidheight>50.80</geoidheight><course>314.50262</course><type>1</type></trkpt>
      <trkpt lat="39.251561713724975" lon="-5.710424571733873"><ele>2345</ele><speed>13.19</speed><time>2016-07-09T15:58:56Z</time><pdop>6.0</pdop><geoidheight>50.80</geoidheight><course>315.84912</course><type>1</type></trkpt>
      <trkpt lat="39.25164541444194" lon="-5.710523631320821"><ele>2343</ele><speed>13.57</speed><time>2016-07-09T15:58:57Z</time><pdop>6.0</pdop><geoidheight>50.80</geoidheight><course>315.439</course><type>1</type></trkpt>
      <trkpt lat="39.25172200601703" lon="-5.71062334154798"><ele>2342</ele><speed>12.81</speed><time>2016-07-09T15:58:58Z</time><pdop>6.0</pdop><geoidheight>50.80</geoidheight><course>314.18982</course><type>1</type></trkpt>
      <trkpt lat="39.251798775515255" lon="-5.710726044047903"><ele>2341</ele><speed>12.34</speed><time>2016-07-09T15:58:59Z</time><pdop>6.0</pdop><geoidheight>50.80</geoidheight><course>313.45032</course><type>1</type></trkpt>
      <trkpt lat="39.25187569424002" lon="-5.710829748091386"><ele>2340</ele><speed>12.90</speed><time>2016-07-09T15:59:00Z</time><pdop>6.0</pdop><geoidheight>50.80</geoidheight><course>313.42056</course><type>1</type></trkpt>
      <trkpt lat="39.251950968136185" lon="-5.7109365293352"><ele>2340</ele><speed>12.87</speed><time>2016-07-09T15:59:01Z</time><pdop>6.0</pdop><geoidheight>50.80</geoidheight><course>312.69943</course><type>1</type></trkpt>
      <trkpt lat="39.25202207547666" lon="-5.711047036577742"><ele>2339</ele><speed>12.59</speed><time>2016-07-09T15:59:02Z</time><pdop>6.0</pdop><geoidheight>50.80</geoidheight><course>310.22803</course><type>1</type></trkpt>
      <trkpt lat="39.252140563537274" lon="-5.711269660361858"><ele>2336</ele><speed>13.22</speed><time>2016-07-09T15:59:04Z</time><pdop>6.0</pdop><geoidheight>50.80</geoidheight><course>304.59024</course><type>1</type></trkpt>
      <trkpt lat="39.252249930729874" lon="-5.711473106502024"><ele>2332</ele><speed>12.29</speed><time>2016-07-09T15:59:06Z</time><pdop>6.0</pdop><geoidheight>50.80</geoidheight><course>306.58145</course><type>1</type></trkpt>
      <trkpt lat="39.252379848987474" lon="-5.711686151759115"><ele>2326</ele><speed>12.83</speed><time>2016-07-09T15:59:08Z</time><pdop>6.0</pdop><geoidheight>50.80</geoidheight><course>308.0822</course><type>1</type></trkpt>
      <trkpt lat="39.252513725500215" lon="-5.711884062366346"><ele>2319</ele><speed>12.21</speed><time>2016-07-09T15:59:10Z</time><pdop>6.0</pdop><geoidheight>50.80</geoidheight><course>309.9837</course><type>1</type></trkpt>
      <trkpt lat="39.252659671515325" lon="-5.712073482126524"><ele>2313</ele><speed>11.93</speed><time>2016-07-09T15:59:12Z</time><pdop>6.0</pdop><geoidheight>50.80</geoidheight><course>313.77136</course><type>1</type></trkpt>
      <trkpt lat="39.25279182982852" lon="-5.712229348807875"><ele>2307</ele><speed>9.78</speed><time>2016-07-09T15:59:14Z</time><pdop>6.0</pdop><geoidheight>50.80</geoidheight><course>314.29242</course><type>1</type></trkpt>
      <trkpt lat="39.252912188344524" lon="-5.712368107380146"><ele>2302</ele><speed>9.10</speed><time>2016-07-09T15:59:16Z</time><pdop>6.0</pdop><geoidheight>50.80</geoidheight><course>312.98456</course><type>1</type></trkpt>
      <trkpt lat="39.25303451278771" lon="-5.712502489987961"><ele>2297</ele><speed>9.87</speed><time>2016-07-09T15:59:18Z</time><pdop>6.0</pdop><geoidheight>50.80</geoidheight><course>315.64432</course><type>1</type></trkpt>
      <trkpt lat="39.25316819682096" lon="-5.712628710574012"><ele>2290</ele><speed>9.90</speed><time>2016-07-09T15:59:20Z</time><pdop>6.0</pdop><geoidheight>50.80</geoidheight><course>320.62167</course><type>1</type></trkpt>
      <trkpt lat="39.25329434762588" lon="-5.7127266471925155"><ele>2284</ele><speed>8.49</speed><time>2016-07-09T15:59:22Z</time><pdop>6.0</pdop><geoidheight>50.80</geoidheight><course>319.81686</course><type>1</type></trkpt>
      <trkpt lat="39.25343666933816" lon="-5.712855477473289"><ele>2278</ele><speed>10.27</speed><time>2016-07-09T15:59:24Z</time><pdop>4.0</pdop><geoidheight>50.80</geoidheight><course>319.62677</course><type>1</type></trkpt>
      <trkpt lat="39.25351348901524" lon="-5.712924300835591"><ele>2276</ele><speed>10.83</speed><time>2016-07-09T15:59:25Z</time><pdop>6.0</pdop><geoidheight>50.80</geoidheight><course>321.0597</course><type>1</type></trkpt>
      <trkpt lat="39.25365835485358" lon="-5.713052475179361"><ele>2271</ele><speed>9.52</speed><time>2016-07-09T15:59:27Z</time><pdop>6.0</pdop><geoidheight>50.80</geoidheight><course>321.06308</course><type>1</type></trkpt>
      <trkpt lat="39.25379826456348" lon="-5.71318974847804"><ele>2266</ele><speed>10.21</speed><time>2016-07-09T15:59:29Z</time><pdop>8.0</pdop><geoidheight>50.80</geoidheight><course>319.1281</course><type>1</type></trkpt>
      <trkpt lat="39.25394759339043" lon="-5.7133369913713175"><ele>2261</ele><speed>11.48</speed><time>2016-07-09T15:59:31Z</time><pdop>8.0</pdop><geoidheight>50.80</geoidheight><course>321.165</course><type>1</type></trkpt>
      <trkpt lat="39.2541027065396" lon="-5.713476178121445"><ele>2255</ele><speed>10.60</speed><time>2016-07-09T15:59:33Z</time><pdop>8.0</pdop><geoidheight>50.80</geoidheight><course>321.50626</course><type>1</type></trkpt>
      <trkpt lat="39.25423922210485" lon="-5.71358508280255"><ele>2249</ele><speed>9.57</speed><time>2016-07-09T15:59:35Z</time><pdop>4.0</pdop><geoidheight>50.80</geoidheight><course>325.85843</course><type>1</type></trkpt>
      <trkpt lat="39.25430847211491" lon="-5.713641705373606"><ele>2247</ele><speed>9.22</speed><time>2016-07-09T15:59:36Z</time><pdop>4.0</pdop><geoidheight>50.80</geoidheight><course>326.72092</course><type>1</type></trkpt>
      <trkpt lat="39.25437402154094" lon="-5.713698407399309"><ele>2244</ele><speed>8.86</speed><time>2016-07-09T15:59:37Z</time><pdop>4.0</pdop><geoidheight>50.80</geoidheight><course>324.49875</course><type>1</type></trkpt>
      <trkpt lat="39.25443733264045" lon="-5.713759244214917"><ele>2242</ele><speed>9.16</speed><time>2016-07-09T15:59:38Z</time><pdop>4.0</pdop><geoidheight>50.80</geoidheight><course>322.36676</course><type>1</type></trkpt>
      <trkpt lat="39.25450492116981" lon="-5.713821626700187"><ele>2240</ele><speed>9.74</speed><time>2016-07-09T15:59:39Z</time><pdop>4.0</pdop><geoidheight>50.80</geoidheight><course>323.52924</course><type>1</type></trkpt>
      <trkpt lat="39.25458621240761" lon="-5.713867498319398"><ele>2239</ele><speed>9.67</speed><time>2016-07-09T15:59:40Z</time><pdop>4.0</pdop><geoidheight>50.80</geoidheight><course>336.557</course><type>1</type></trkpt>
      <trkpt lat="39.2547431722016" lon="-5.713934377338717"><ele>2236</ele><speed>8.08</speed><time>2016-07-09T15:59:42Z</time><pdop>8.0</pdop><geoidheight>50.80</geoidheight><course>340.55917</course><type>1</type></trkpt>
      <trkpt lat="39.25488128514173" lon="-5.714000646301399"><ele>2235</ele><speed>8.52</speed><time>2016-07-09T15:59:44Z</time><pdop>4.0</pdop><geoidheight>50.80</geoidheight><course>336.22235</course><type>1</type></trkpt>
      <trkpt lat="39.25494789060404" lon="-5.714045321176101"><ele>2233</ele><speed>9.93</speed><time>2016-07-09T15:59:45Z</time><pdop>4.0</pdop><geoidheight>50.80</geoidheight><course>333.57794</course><type>1</type></trkpt>
      <trkpt lat="39.25511288603312" lon="-5.714157909404052"><ele>2229</ele><speed>11.10</speed><time>2016-07-09T15:59:47Z</time><pdop>6.0</pdop><geoidheight>50.80</geoidheight><course>332.08896</course><type>1</type></trkpt>
      <trkpt lat="39.25527073113247" lon="-5.714257613843826"><ele>2226</ele><speed>9.11</speed><time>2016-07-09T15:59:49Z</time><pdop>4.0</pdop><geoidheight>50.80</geoidheight><course>332.95392</course><type>1</type></trkpt>
      <trkpt lat="39.25534501961057" lon="-5.714302327692889"><ele>2225</ele><speed>8.77</speed><time>2016-07-09T15:59:50Z</time><pdop>4.0</pdop><geoidheight>50.80</geoidheight><course>333.417</course><type>1</type></trkpt>
      <trkpt lat="39.25541958379185" lon="-5.714344013382858"><ele>2224</ele><speed>8.91</speed><time>2016-07-09T15:59:51Z</time><pdop>4.0</pdop><geoidheight>50.80</geoidheight><course>334.70267</course><type>1</type></trkpt>
      <trkpt lat="39.25549772446334" lon="-5.714390349314143"><ele>2222</ele><speed>9.90</speed><time>2016-07-09T15:59:52Z</time><pdop>4.0</pdop><geoidheight>50.80</geoidheight><course>334.2676</course><type>1</type></trkpt>
      <trkpt lat="39.25558568815221" lon="-5.714446510622535"><ele>2221</ele><speed>11.60</speed><time>2016-07-09T15:59:53Z</time><pdop>6.0</pdop><geoidheight>50.80</geoidheight><course>332.60507</course><type>1</type></trkpt>
      <trkpt lat="39.25578245635326" lon="-5.714584328431168"><ele>2218</ele><speed>11.74</speed><time>2016-07-09T15:59:55Z</time><pdop>8.0</pdop><geoidheight>50.80</geoidheight><course>328.41</course><type>1</type></trkpt>
      <trkpt lat="39.25593345076615" lon="-5.714702531106095"><ele>2217</ele><speed>9.08</speed><time>2016-07-09T15:59:58Z</time><pdop>8.0</pdop><geoidheight>50.80</geoidheight><course>326.98566</course><type>1</type></trkpt>
      <trkpt lat="39.25607367200399" lon="-5.714825156731151"><ele>2217</ele><speed>9.83</speed><time>2016-07-09T15:59:59Z</time><pdop>6.0</pdop><geoidheight>50.80</geoidheight><course>325.57846</course><type>1</type></trkpt>
      <trkpt lat="39.256238072247214" lon="-5.7149646851143565"><ele>2218</ele><speed>10.53</speed><time>2016-07-09T16:00:02Z</time><pdop>6.0</pdop><geoidheight>50.80</geoidheight><course>327.9437</course><type>1</type></trkpt>
      <trkpt lat="39.256390456183595" lon="-5.715078078248455"><ele>2219</ele><speed>8.19</speed><time>2016-07-09T16:00:03Z</time><pdop>6.0</pdop><geoidheight>50.80</geoidheight><course>330.11978</course><type>1</type></trkpt>
      <trkpt lat="39.2565090375394" lon="-5.715178733995828"><ele>2221</ele><speed>8.45</speed><time>2016-07-09T16:00:05Z</time><pdop>6.0</pdop><geoidheight>50.80</geoidheight><course>328.7675</course><type>1</type></trkpt>
      <trkpt lat="39.256649324493665" lon="-5.715299552511057"><ele>2224</ele><speed>9.48</speed><time>2016-07-09T16:00:07Z</time><pdop>4.0</pdop><geoidheight>50.80</geoidheight><course>328.69168</course><type>1</type></trkpt>
      <trkpt lat="39.2567189425463" lon="-5.7153549868306674"><ele>2225</ele><speed>9.20</speed><time>2016-07-09T16:00:08Z</time><pdop>4.0</pdop><geoidheight>50.80</geoidheight><course>330.63104</course><type>1</type></trkpt>
      <trkpt lat="39.25679358333973" lon="-5.71540654509565"><ele>2227</ele><speed>8.42</speed><time>2016-07-09T16:00:09Z</time><pdop>4.0</pdop><geoidheight>50.80</geoidheight><course>333.70758</course><type>1</type></trkpt>
      <trkpt lat="39.25686187862431" lon="-5.715447904496162"><ele>2229</ele><speed>7.52</speed><time>2016-07-09T16:00:10Z</time><pdop>4.0</pdop><geoidheight>50.80</geoidheight><course>337.10233</course><type>1</type></trkpt>
      <trkpt lat="39.256990475406994" lon="-5.715511891634624"><ele>2233</ele><speed>7.73</speed><time>2016-07-09T16:00:12Z</time><pdop>6.0</pdop><geoidheight>50.80</geoidheight><course>340.77448</course><type>1</type></trkpt>
      <trkpt lat="39.257136832145044" lon="-5.715576049532675"><ele>2236</ele><speed>9.20</speed><time>2016-07-09T16:00:14Z</time><pdop>6.0</pdop><geoidheight>50.80</geoidheight><course>340.90714</course><type>1</type></trkpt>
      <trkpt lat="39.2572609966855" lon="-5.715664265416568"><ele>2237</ele><speed>8.51</speed><time>2016-07-09T16:00:16Z</time><pdop>8.0</pdop><geoidheight>50.80</geoidheight><course>324.81824</course><type>1</type></trkpt>
      <trkpt lat="39.25738411846604" lon="-5.7157847270340385"><ele>2240</ele><speed>8.62</speed><time>2016-07-09T16:00:18Z</time><pdop>6.0</pdop><geoidheight>50.80</geoidheight><course>322.49704</course><type>1</type></trkpt>
      <trkpt lat="39.25753430119169" lon="-5.7159256848240005"><ele>2243</ele><speed>9.59</speed><time>2016-07-09T16:00:21Z</time><pdop>6.0</pdop><geoidheight>50.80</geoidheight><course>324.6345</course><type>1</type></trkpt>
      <trkpt lat="39.25767787402673" lon="-5.716041778335778"><ele>2245</ele><speed>7.34</speed><time>2016-07-09T16:00:22Z</time><pdop>6.0</pdop><geoidheight>50.80</geoidheight><course>327.12604</course><type>1</type></trkpt>
      <trkpt lat="39.257809978776315" lon="-5.7161614657931255"><ele>2249</ele><speed>7.99</speed><time>2016-07-09T16:00:24Z</time><pdop>4.0</pdop><geoidheight>50.80</geoidheight><course>323.38364</course><type>1</type></trkpt>
      <trkpt lat="39.25786646748044" lon="-5.716228448752745"><ele>2251</ele><speed>7.76</speed><time>2016-07-09T16:00:25Z</time><pdop>4.0</pdop><geoidheight>50.80</geoidheight><course>320.23535</course><type>1</type></trkpt>
      <trkpt lat="39.2579207471193" lon="-5.7163049073352425"><ele>2253</ele><speed>7.90</speed><time>2016-07-09T16:00:26Z</time><pdop>4.0</pdop><geoidheight>50.80</geoidheight><course>317.6484</course><type>1</type></trkpt>
      <trkpt lat="39.25797393823173" lon="-5.716381469418674"><ele>2256</ele><speed>8.11</speed><time>2016-07-09T16:00:27Z</time><pdop>4.0</pdop><geoidheight>50.80</geoidheight><course>316.88232</course><type>1</type></trkpt>
      <trkpt lat="39.258087004064414" lon="-5.716525902710323"><ele>2260</ele><speed>8.97</speed><time>2016-07-09T16:00:29Z</time><pdop>6.0</pdop><geoidheight>50.80</geoidheight><course>318.38577</course><type>1</type></trkpt>
      <trkpt lat="39.25822027706687" lon="-5.716672375187516"><ele>2263</ele><speed>10.14</speed><time>2016-07-09T16:00:31Z</time><pdop>6.0</pdop><geoidheight>50.80</geoidheight><course>321.82355</course><type>1</type></trkpt>
      <trkpt lat="39.25835785801691" lon="-5.71681762162921"><ele>2266</ele><speed>10.07</speed><time>2016-07-09T16:00:33Z</time><pdop>8.0</pdop><geoidheight>50.80</geoidheight><course>320.97836</course><type>1</type></trkpt>
      <trkpt lat="39.258483971651025" lon="-5.716976838044255"><ele>2269</ele><speed>9.18</speed><time>2016-07-09T16:00:35Z</time><pdop>8.0</pdop><geoidheight>50.80</geoidheight><course>317.52365</course><type>1</type></trkpt>
      <trkpt lat="39.25861018322552" lon="-5.717140900799722"><ele>2271</ele><speed>10.98</speed><time>2016-07-09T16:00:38Z</time><pdop>6.0</pdop><geoidheight>50.80</geoidheight><course>317.5861</course><type>1</type></trkpt>
      <trkpt lat="39.258758794683416" lon="-5.7173427801143015"><ele>2270</ele><speed>12.42</speed><time>2016-07-09T16:00:39Z</time><pdop>6.0</pdop><geoidheight>50.80</geoidheight><course>312.78854</course><type>1</type></trkpt>
      <trkpt lat="39.25888189458121" lon="-5.717552245104113"><ele>2269</ele><speed>10.78</speed><time>2016-07-09T16:00:41Z</time><pdop>6.0</pdop><geoidheight>50.80</geoidheight><course>307.8387</course><type>1</type></trkpt>
      <trkpt lat="39.25900353117973" lon="-5.717741736686305"><ele>2269</ele><speed>10.84</speed><time>2016-07-09T16:00:43Z</time><pdop>6.0</pdop><geoidheight>50.80</geoidheight><course>312.34964</course><type>1</type></trkpt>
      <trkpt lat="39.25914584206056" lon="-5.717915224501208"><ele>2268</ele><speed>12.14</speed><time>2016-07-09T16:00:45Z</time><pdop>8.0</pdop><geoidheight>50.80</geoidheight><course>317.76334</course><type>1</type></trkpt>
      <trkpt lat="39.25929391988664" lon="-5.718077034598996"><ele>2268</ele><speed>11.07</speed><time>2016-07-09T16:00:47Z</time><pdop>8.0</pdop><geoidheight>50.80</geoidheight><course>321.63416</course><type>1</type></trkpt>
      <trkpt lat="39.259453097655175" lon="-5.71821093343956"><ele>2267</ele><speed>9.42</speed><time>2016-07-09T16:00:50Z</time><pdop>8.0</pdop><geoidheight>50.80</geoidheight><course>327.61023</course><type>1</type></trkpt>
      <trkpt lat="39.25961238577509" lon="-5.718307565738775"><ele>2266</ele><speed>10.65</speed><time>2016-07-09T16:00:51Z</time><pdop>8.0</pdop><geoidheight>50.80</geoidheight><course>330.69504</course><type>1</type></trkpt>
      <trkpt lat="39.25979174875677" lon="-5.718418820078537"><ele>2263</ele><speed>11.81</speed><time>2016-07-09T16:00:53Z</time><pdop>6.0</pdop><geoidheight>50.80</geoidheight><course>330.29974</course><type>1</type></trkpt>
      <trkpt lat="39.259972850728104" lon="-5.718553302005288"><ele>2260</ele><speed>11.57</speed><time>2016-07-09T16:00:55Z</time><pdop>6.0</pdop><geoidheight>50.80</geoidheight><course>327.35025</course><type>1</type></trkpt>
      <trkpt lat="39.2601466026769" lon="-5.718704271116129"><ele>2259</ele><speed>12.08</speed><time>2016-07-09T16:00:57Z</time><pdop>6.0</pdop><geoidheight>50.80</geoidheight><course>325.52505</course><type>1</type></trkpt>
      <trkpt lat="39.2603179756407" lon="-5.718844540520181"><ele>2257</ele><speed>11.40</speed><time>2016-07-09T16:00:59Z</time><pdop>6.0</pdop><geoidheight>50.80</geoidheight><course>328.36966</course><type>1</type></trkpt>
      <trkpt lat="39.26048905253128" lon="-5.718975140387526"><ele>2255</ele><speed>10.29</speed><time>2016-07-09T16:01:01Z</time><pdop>8.0</pdop><geoidheight>50.80</geoidheight><course>327.18616</course><type>1</type></trkpt>
      <trkpt lat="39.260634507055634" lon="-5.719106340977035"><ele>2253</ele><speed>10.08</speed><time>2016-07-09T16:01:03Z</time><pdop>8.0</pdop><geoidheight>50.80</geoidheight><course>322.50647</course><type>1</type></trkpt>
      <trkpt lat="39.26077863083182" lon="-5.71924124991485"><ele>2252</ele><speed>10.50</speed><time>2016-07-09T16:01:05Z</time><pdop>8.0</pdop><geoidheight>50.80</geoidheight><course>326.30188</course><type>1</type></trkpt>
      <trkpt lat="39.2609362141409" lon="-5.719362683660692"><ele>2253</ele><speed>9.76</speed><time>2016-07-09T16:01:07Z</time><pdop>8.0</pdop><geoidheight>50.80</geoidheight><course>328.42</course><type>1</type></trkpt>
      <trkpt lat="39.261081874877995" lon="-5.719490133173644"><ele>2254</ele><speed>9.67</speed><time>2016-07-09T16:01:09Z</time><pdop>8.0</pdop><geoidheight>50.80</geoidheight><course>324.94318</course><type>1</type></trkpt>
      <trkpt lat="39.26124278155535" lon="-5.719637820203817"><ele>2254</ele><speed>12.06</speed><time>2016-07-09T16:01:11Z</time><pdop>8.0</pdop><geoidheight>50.80</geoidheight><course>325.47168</course><type>1</type></trkpt>
      <trkpt lat="39.26140999641961" lon="-5.71979739482584"><ele>2254</ele><speed>11.32</speed><time>2016-07-09T16:01:13Z</time><pdop>6.0</pdop><geoidheight>50.80</geoidheight><course>322.5327</course><type>1</type></trkpt>
      <trkpt lat="39.26156058094212" lon="-5.719973641021383"><ele>2254</ele><speed>10.80</speed><time>2016-07-09T16:01:15Z</time><pdop>6.0</pdop><geoidheight>50.80</geoidheight><course>318.40192</course><type>1</type></trkpt>
      <trkpt lat="39.261716550237715" lon="-5.72013844929779"><ele>2254</ele><speed>12.37</speed><time>2016-07-09T16:01:17Z</time><pdop>6.0</pdop><geoidheight>50.80</geoidheight><course>322.9409</course><type>1</type></trkpt>
      <trkpt lat="39.261812570100886" lon="-5.7202178598995355"><ele>2253</ele><speed>13.93</speed><time>2016-07-09T16:01:18Z</time><pdop>6.0</pdop><geoidheight>50.80</geoidheight><course>325.84326</course><type>1</type></trkpt>
      <trkpt lat="39.261917129416275" lon="-5.720296558693304"><ele>2252</ele><speed>14.03</speed><time>2016-07-09T16:01:19Z</time><pdop>6.0</pdop><geoidheight>50.80</geoidheight><course>327.50555</course><type>1</type></trkpt>
      <trkpt lat="39.2621182233614" lon="-5.720453810477835"><ele>2251</ele><speed>12.10</speed><time>2016-07-09T16:01:21Z</time><pdop>8.0</pdop><geoidheight>50.80</geoidheight><course>326.424</course><type>1</type></trkpt>
      <trkpt lat="39.26230550666125" lon="-5.720605833823343"><ele>2250</ele><speed>11.61</speed><time>2016-07-09T16:01:23Z</time><pdop>6.0</pdop><geoidheight>50.80</geoidheight><course>326.9313</course><type>1</type></trkpt>
      <trkpt lat="39.26247747134673" lon="-5.720738688378416"><ele>2249</ele><speed>11.59</speed><time>2016-07-09T16:01:25Z</time><pdop>6.0</pdop><geoidheight>50.80</geoidheight><course>327.2913</course><type>1</type></trkpt>
      <trkpt lat="39.26265803061079" lon="-5.720887760527372"><ele>2247</ele><speed>11.90</speed><time>2016-07-09T16:01:27Z</time><pdop>6.0</pdop><geoidheight>50.80</geoidheight><course>325.78732</course><type>1</type></trkpt>
      <trkpt lat="39.262747507686115" lon="-5.720968049328258"><ele>2247</ele><speed>12.15</speed><time>2016-07-09T16:01:28Z</time><pdop>6.0</pdop><geoidheight>50.80</geoidheight><course>325.09296</course><type>1</type></trkpt>
      <trkpt lat="39.26283747589696" lon="-5.721048872474564"><ele>2246</ele><speed>12.26</speed><time>2016-07-09T16:01:29Z</time><pdop>6.0</pdop><geoidheight>50.80</geoidheight><course>324.14105</course><type>1</type></trkpt>
      <trkpt lat="39.26300059958635" lon="-5.721226041922363"><ele>2245</ele><speed>12.12</speed><time>2016-07-09T16:01:31Z</time><pdop>4.0</pdop><geoidheight>50.80</geoidheight><course>319.3192</course><type>1</type></trkpt>
      <trkpt lat="39.26307734977359" lon="-5.721322240470923"><ele>2245</ele><speed>11.98</speed><time>2016-07-09T16:01:32Z</time><pdop>4.0</pdop><geoidheight>50.80</geoidheight><course>317.57776</course><type>1</type></trkpt>
      <trkpt lat="39.263152150002334" lon="-5.721415690633638"><ele>2245</ele><speed>12.12</speed><time>2016-07-09T16:01:33Z</time><pdop>4.0</pdop><geoidheight>50.80</geoidheight><course>317.01437</course><type>1</type></trkpt>
      <trkpt lat="39.26322971604314" lon="-5.721511384885824"><ele>2244</ele><speed>12.85</speed><time>2016-07-09T16:01:34Z</time><pdop>4.0</pdop><geoidheight>50.80</geoidheight><course>317.3635</course><type>1</type></trkpt>
      <trkpt lat="39.2633142846347" lon="-5.72161638563888"><ele>2243</ele><speed>13.80</speed><time>2016-07-09T16:01:35Z</time><pdop>4.0</pdop><geoidheight>50.80</geoidheight><course>316.9977</course><type>1</type></trkpt>
      <trkpt lat="39.26339751897271" lon="-5.721726592850506"><ele>2242</ele><speed>13.74</speed><time>2016-07-09T16:01:36Z</time><pdop>4.0</pdop><geoidheight>50.80</geoidheight><course>315.97226</course><type>1</type></trkpt>
      <trkpt lat="39.26347715744803" lon="-5.7218375762717155"><ele>2241</ele><speed>12.31</speed><time>2016-07-09T16:01:37Z</time><pdop>4.0</pdop><geoidheight>50.80</geoidheight><course>314.28577</course><type>1</type></trkpt>
      <trkpt lat="39.26354680372059" lon="-5.721940045303922"><ele>2241</ele><speed>10.98</speed><time>2016-07-09T16:01:38Z</time><pdop>4.0</pdop><geoidheight>50.80</geoidheight><course>312.81226</course><type>1</type></trkpt>
      <trkpt lat="39.263611476403135" lon="-5.722037484251488"><ele>2241</ele><speed>10.63</speed><time>2016-07-09T16:01:39Z</time><pdop>4.0</pdop><geoidheight>50.80</geoidheight><course>312.2606</course><type>1</type></trkpt>
      <trkpt lat="39.2636740823904" lon="-5.722133807104848"><ele>2241</ele><speed>11.22</speed><time>2016-07-09T16:01:40Z</time><pdop>4.0</pdop><geoidheight>50.80</geoidheight><course>312.65652</course><type>1</type></trkpt>
      <trkpt lat="39.26374149800918" lon="-5.722235088050298"><ele>2241</ele><speed>12.03</speed><time>2016-07-09T16:01:41Z</time><pdop>4.0</pdop><geoidheight>50.80</geoidheight><course>313.5933</course><type>1</type></trkpt>
      <trkpt lat="39.263815497907736" lon="-5.722336336338058"><ele>2241</ele><speed>12.38</speed><time>2016-07-09T16:01:42Z</time><pdop>4.0</pdop><geoidheight>50.80</geoidheight><course>314.5807</course><type>1</type></trkpt>
      <trkpt lat="39.263892676672754" lon="-5.7224397471262884"><ele>2240</ele><speed>12.98</speed><time>2016-07-09T16:01:43Z</time><pdop>6.0</pdop><geoidheight>50.80</geoidheight><course>314.13547</course><type>1</type></trkpt>
      <trkpt lat="39.2639709240283" lon="-5.722549101701376"><ele>2240</ele><speed>12.91</speed><time>2016-07-09T16:01:44Z</time><pdop>6.0</pdop><geoidheight>50.80</geoidheight><course>313.10107</course><type>1</type></trkpt>
      <trkpt lat="39.26404730814447" lon="-5.722656062284655"><ele>2239</ele><speed>12.83</speed><time>2016-07-09T16:01:45Z</time><pdop>6.0</pdop><geoidheight>50.80</geoidheight><course>313.6267</course><type>1</type></trkpt>
      <trkpt lat="39.26412676658513" lon="-5.7227600155340435"><ele>2238</ele><speed>13.06</speed><time>2016-07-09T16:01:46Z</time><pdop>6.0</pdop><geoidheight>50.80</geoidheight><course>314.70197</course><type>1</type></trkpt>
      <trkpt lat="39.26420633351633" lon="-5.72286215858301"><ele>2238</ele><speed>13.50</speed><time>2016-07-09T16:01:47Z</time><pdop>6.0</pdop><geoidheight>50.80</geoidheight><course>315.36008</course><type>1</type></trkpt>
      <trkpt lat="39.26428764193187" lon="-5.722966016091872"><ele>2237</ele><speed>13.28</speed><time>2016-07-09T16:01:48Z</time><pdop>6.0</pdop><geoidheight>50.80</geoidheight><course>314.92773</course><type>1</type></trkpt>
      <trkpt lat="39.26437098072096" lon="-5.723072528287474"><ele>2236</ele><speed>13.51</speed><time>2016-07-09T16:01:49Z</time><pdop>6.0</pdop><geoidheight>50.80</geoidheight><course>314.5434</course><type>1</type></trkpt>
      <trkpt lat="39.264459606386396" lon="-5.723185920950325"><ele>2235</ele><speed>14.14</speed><time>2016-07-09T16:01:50Z</time><pdop>6.0</pdop><geoidheight>50.80</geoidheight><course>315.13223</course><type>1</type></trkpt>
      <trkpt lat="39.264550281644155" lon="-5.723293593225192"><ele>2234</ele><speed>13.76</speed><time>2016-07-09T16:01:51Z</time><pdop>6.0</pdop><geoidheight>50.80</geoidheight><course>316.46704</course><type>1</type></trkpt>
      <trkpt lat="39.26463924385853" lon="-5.723397700560454"><ele>2233</ele><speed>12.75</speed><time>2016-07-09T16:01:52Z</time><pdop>6.0</pdop><geoidheight>50.80</geoidheight><course>316.76837</course><type>1</type></trkpt>
      <trkpt lat="39.26479261372217" lon="-5.723593620640675"><ele>2233</ele><speed>11.77</speed><time>2016-07-09T16:01:54Z</time><pdop>6.0</pdop><geoidheight>50.80</geoidheight><course>312.60226</course><type>1</type></trkpt>
      <trkpt lat="39.264862792372014" lon="-5.723696810975372"><ele>2232</ele><speed>12.18</speed><time>2016-07-09T16:01:55Z</time><pdop>4.0</pdop><geoidheight>50.80</geoidheight><course>310.5154</course><type>1</type></trkpt>
      <trkpt lat="39.26493581233475" lon="-5.723811132573136"><ele>2232</ele><speed>13.03</speed><time>2016-07-09T16:01:56Z</time><pdop>4.0</pdop><geoidheight>50.80</geoidheight><course>309.68204</course><type>1</type></trkpt>
      <trkpt lat="39.265010436345314" lon="-5.72393393061021"><ele>2231</ele><speed>13.85</speed><time>2016-07-09T16:01:57Z</time><pdop>4.0</pdop><geoidheight>50.80</geoidheight><course>309.2372</course><type>1</type></trkpt>
      <trkpt lat="39.26508681565501" lon="-5.72405758089404"><ele>2231</ele><speed>13.55</speed><time>2016-07-09T16:01:58Z</time><pdop>4.0</pdop><geoidheight>50.80</geoidheight><course>308.7404</course><type>1</type></trkpt>
      <trkpt lat="39.26515806786603" lon="-5.724180557606455"><ele>2231</ele><speed>12.52</speed><time>2016-07-09T16:01:59Z</time><pdop>4.0</pdop><geoidheight>50.80</geoidheight><course>307.54965</course><type>1</type></trkpt>
      <trkpt lat="39.26522210081397" lon="-5.72430029655285"><ele>2231</ele><speed>11.41</speed><time>2016-07-09T16:02:00Z</time><pdop>4.0</pdop><geoidheight>50.80</geoidheight><course>305.8003</course><type>1</type></trkpt>
      <trkpt lat="39.2652781929484" lon="-5.724406903589022"><ele>2232</ele><speed>10.55</speed><time>2016-07-09T16:02:01Z</time><pdop>4.0</pdop><geoidheight>50.80</geoidheight><course>304.53592</course><type>1</type></trkpt>
      <trkpt lat="39.26533249697608" lon="-5.7245129164027375"><ele>2232</ele><speed>10.70</speed><time>2016-07-09T16:02:02Z</time><pdop>4.0</pdop><geoidheight>50.80</geoidheight><course>304.98776</course><type>1</type></trkpt>
      <trkpt lat="39.2653873244197" lon="-5.724616588733475"><ele>2233</ele><speed>11.15</speed><time>2016-07-09T16:02:03Z</time><pdop>6.0</pdop><geoidheight>50.80</geoidheight><course>305.7167</course><type>1</type></trkpt>
      <trkpt lat="39.26550063287362" lon="-5.72484425740273"><ele>2233</ele><speed>12.37</speed><time>2016-07-09T16:02:05Z</time><pdop>6.0</pdop><geoidheight>50.80</geoidheight><course>303.01434</course><type>1</type></trkpt>
      <trkpt lat="39.26556042863618" lon="-5.7249736732343095"><ele>2233</ele><speed>13.48</speed><time>2016-07-09T16:02:06Z</time><pdop>4.0</pdop><geoidheight>50.80</geoidheight><course>302.36118</course><type>1</type></trkpt>
      <trkpt lat="39.265624151348405" lon="-5.7251087148915945"><ele>2233</ele><speed>13.74</speed><time>2016-07-09T16:02:08Z</time><pdop>4.0</pdop><geoidheight>50.80</geoidheight><course>303.0284</course><type>1</type></trkpt>
      <trkpt lat="39.26568946264405" lon="-5.725238837963498"><ele>2234</ele><speed>12.59</speed><time>2016-07-09T16:02:08Z</time><pdop>4.0</pdop><geoidheight>50.80</geoidheight><course>304.1067</course><type>1</type></trkpt>
      <trkpt lat="39.26575147095405" lon="-5.725359655649724"><ele>2234</ele><speed>11.76</speed><time>2016-07-09T16:02:09Z</time><pdop>4.0</pdop><geoidheight>50.80</geoidheight><course>303.42874</course><type>1</type></trkpt>
      <trkpt lat="39.26580595143627" lon="-5.725476648039682"><ele>2235</ele><speed>11.40</speed><time>2016-07-09T16:02:10Z</time><pdop>4.0</pdop><geoidheight>50.80</geoidheight><course>301.6981</course><type>1</type></trkpt>
      <trkpt lat="39.265860972489605" lon="-5.725602778454656"><ele>2236</ele><speed>12.00</speed><time>2016-07-09T16:02:11Z</time><pdop>6.0</pdop><geoidheight>50.80</geoidheight><course>300.0334</course><type>1</type></trkpt>
      <trkpt lat="39.26591590445008" lon="-5.725734812521479"><ele>2237</ele><speed>12.37</speed><time>2016-07-09T16:02:12Z</time><pdop>6.0</pdop><geoidheight>50.80</geoidheight><course>299.5733</course><type>1</type></trkpt>
      <trkpt lat="39.26596622291714" lon="-5.725861747143323"><ele>2239</ele><speed>12.24</speed><time>2016-07-09T16:02:13Z</time><pdop>6.0</pdop><geoidheight>50.80</geoidheight><course>300.0204</course><type>1</type></trkpt>
      <trkpt lat="39.266016830602396" lon="-5.725987102422036"><ele>2240</ele><speed>12.35</speed><time>2016-07-09T16:02:14Z</time><pdop>6.0</pdop><geoidheight>50.80</geoidheight><course>300.69357</course><type>1</type></trkpt>
      <trkpt lat="39.2660717857406" lon="-5.72611155753566"><ele>2242</ele><speed>12.72</speed><time>2016-07-09T16:02:15Z</time><pdop>6.0</pdop><geoidheight>50.80</geoidheight><course>300.62402</course><type>1</type></trkpt>
      <trkpt lat="39.26612642543743" lon="-5.7262338747502115"><ele>2243</ele><speed>13.11</speed><time>2016-07-09T16:02:16Z</time><pdop>6.0</pdop><geoidheight>50.80</geoidheight><course>300.07623</course><type>1</type></trkpt>
      <trkpt lat="39.266186029090505" lon="-5.726366256696746"><ele>2244</ele><speed>12.93</speed><time>2016-07-09T16:02:17Z</time><pdop>6.0</pdop><geoidheight>50.80</geoidheight><course>299.1678</course><type>1</type></trkpt>
      <trkpt lat="39.26624332300157" lon="-5.726499138777085"><ele>2244</ele><speed>12.71</speed><time>2016-07-09T16:02:18Z</time><pdop>6.0</pdop><geoidheight>50.80</geoidheight><course>298.28214</course><type>1</type></trkpt>
      <trkpt lat="39.26629931127204" lon="-5.726627262391966"><ele>2246</ele><speed>12.18</speed><time>2016-07-09T16:02:19Z</time><pdop>4.0</pdop><geoidheight>50.80</geoidheight><course>299.1475</course><type>1</type></trkpt>
      <trkpt lat="39.26635800245019" lon="-5.726747014568023"><ele>2247</ele><speed>12.35</speed><time>2016-07-09T16:02:21Z</time><pdop>4.0</pdop><geoidheight>50.80</geoidheight><course>300.77148</course><type>1</type></trkpt>
      <trkpt lat="39.2664230849902" lon="-5.7268695298977494"><ele>2248</ele><speed>12.82</speed><time>2016-07-09T16:02:22Z</time><pdop>4.0</pdop><geoidheight>50.80</geoidheight><course>302.72714</course><type>1</type></trkpt>
      <trkpt lat="39.26649196673443" lon="-5.726990349799849"><ele>2249</ele><speed>12.50</speed><time>2016-07-09T16:02:22Z</time><pdop>4.0</pdop><geoidheight>50.80</geoidheight><course>304.34256</course><type>1</type></trkpt>
      <trkpt lat="39.266560922910145" lon="-5.7271105217485445"><ele>2250</ele><speed>12.29</speed><time>2016-07-09T16:02:23Z</time><pdop>4.0</pdop><geoidheight>50.80</geoidheight><course>305.3082</course><type>1</type></trkpt>
      <trkpt lat="39.26663051548221" lon="-5.727226598247944"><ele>2251</ele><speed>12.27</speed><time>2016-07-09T16:02:24Z</time><pdop>4.0</pdop><geoidheight>50.80</geoidheight><course>305.683</course><type>1</type></trkpt>
      <trkpt lat="39.26669268814327" lon="-5.727336867260731"><ele>2252</ele><speed>12.40</speed><time>2016-07-09T16:02:25Z</time><pdop>6.0</pdop><geoidheight>50.80</geoidheight><course>306.0233</course><type>1</type></trkpt>
      <trkpt lat="39.266758155410066" lon="-5.72745113555762"><ele>2253</ele><speed>12.33</speed><time>2016-07-09T16:02:27Z</time><pdop>6.0</pdop><geoidheight>50.80</geoidheight><course>306.62427</course><type>1</type></trkpt>
      <trkpt lat="39.26682689204168" lon="-5.72756257602632"><ele>2255</ele><speed>11.97</speed><time>2016-07-09T16:02:28Z</time><pdop>6.0</pdop><geoidheight>50.80</geoidheight><course>307.33142</course><type>1</type></trkpt>
      <trkpt lat="39.266963640146756" lon="-5.727772533782136"><ele>2256</ele><speed>11.21</speed><time>2016-07-09T16:02:29Z</time><pdop>4.0</pdop><geoidheight>50.80</geoidheight><course>309.32816</course><type>1</type></trkpt>
      <trkpt lat="39.26703310965835" lon="-5.727868491179877"><ele>2256</ele><speed>11.12</speed><time>2016-07-09T16:02:30Z</time><pdop>4.0</pdop><geoidheight>50.80</geoidheight><course>311.10495</course><type>1</type></trkpt>
      <trkpt lat="39.26710519362475" lon="-5.727961460800637"><ele>2257</ele><speed>11.48</speed><time>2016-07-09T16:02:31Z</time><pdop>4.0</pdop><geoidheight>50.80</geoidheight><course>313.29294</course><type>1</type></trkpt>
      <trkpt lat="39.26717788997009" lon="-5.728054226539876"><ele>2257</ele><speed>10.98</speed><time>2016-07-09T16:02:32Z</time><pdop>4.0</pdop><geoidheight>50.80</geoidheight><course>314.40213</course><type>1</type></trkpt>
      <trkpt lat="39.26731173969623" lon="-5.72822513056683"><ele>2257</ele><speed>10.40</speed><time>2016-07-09T16:02:34Z</time><pdop>6.0</pdop><geoidheight>50.80</geoidheight><course>314.0393</course><type>1</type></trkpt>
      <trkpt lat="39.26744881189263" lon="-5.728397329777666"><ele>2257</ele><speed>11.15</speed><time>2016-07-09T16:02:36Z</time><pdop>6.0</pdop><geoidheight>50.80</geoidheight><course>316.39902</course><type>1</type></trkpt>
      <trkpt lat="39.26759828207756" lon="-5.7285708756140785"><ele>2258</ele><speed>10.67</speed><time>2016-07-09T16:02:38Z</time><pdop>6.0</pdop><geoidheight>50.80</geoidheight><course>318.79254</course><type>1</type></trkpt>
      <trkpt lat="39.26774903644149" lon="-5.728717941729531"><ele>2257</ele><speed>9.72</speed><time>2016-07-09T16:02:40Z</time><pdop>6.0</pdop><geoidheight>50.80</geoidheight><course>323.29645</course><type>1</type></trkpt>
      <trkpt lat="39.26789981819205" lon="-5.7288248756933475"><ele>2257</ele><speed>10.05</speed><time>2016-07-09T16:02:43Z</time><pdop>8.0</pdop><geoidheight>50.80</geoidheight><course>328.37183</course><type>1</type></trkpt>
      <trkpt lat="39.26807353125476" lon="-5.728927390154458"><ele>2257</ele><speed>10.16</speed><time>2016-07-09T16:02:44Z</time><pdop>8.0</pdop><geoidheight>50.80</geoidheight><course>331.2705</course><type>1</type></trkpt>
      <trkpt lat="39.26824345105874" lon="-5.729017379766646"><ele>2257</ele><speed>9.22</speed><time>2016-07-09T16:02:46Z</time><pdop>8.0</pdop><geoidheight>50.80</geoidheight><course>333.52042</course><type>1</type></trkpt>
      <trkpt lat="39.26838497370225" lon="-5.729112479713868"><ele>2258</ele><speed>8.42</speed><time>2016-07-09T16:02:48Z</time><pdop>8.0</pdop><geoidheight>50.80</geoidheight><course>329.74628</course><type>1</type></trkpt>
      <trkpt lat="39.26850887464147" lon="-5.729225537388755"><ele>2257</ele><speed>9.53</speed><time>2016-07-09T16:02:50Z</time><pdop>8.0</pdop><geoidheight>50.80</geoidheight><course>326.4895</course><type>1</type></trkpt>
      <trkpt lat="39.26865085463732" lon="-5.72933608408469"><ele>2256</ele><speed>10.08</speed><time>2016-07-09T16:02:52Z</time><pdop>8.0</pdop><geoidheight>50.80</geoidheight><course>330.46555</course><type>1</type></trkpt>
      <trkpt lat="39.268792282075644" lon="-5.729450483175412"><ele>2254</ele><speed>8.80</speed><time>2016-07-09T16:02:55Z</time><pdop>8.0</pdop><geoidheight>50.80</geoidheight><course>317.43182</course><type>1</type></trkpt>
      <trkpt lat="39.268906120055895" lon="-5.729597991951171"><ele>2253</ele><speed>8.51</speed><time>2016-07-09T16:02:56Z</time><pdop>8.0</pdop><geoidheight>50.80</geoidheight><course>312.20474</course><type>1</type></trkpt>
      <trkpt lat="39.269041126483174" lon="-5.729719511850703"><ele>2254</ele><speed>10.19</speed><time>2016-07-09T16:02:58Z</time><pdop>6.0</pdop><geoidheight>50.80</geoidheight><course>336.15546</course><type>1</type></trkpt>
      <trkpt lat="39.26920190840883" lon="-5.729806680927544"><ele>2253</ele><speed>9.37</speed><time>2016-07-09T16:03:00Z</time><pdop>8.0</pdop><geoidheight>50.80</geoidheight><course>337.28317</course><type>1</type></trkpt>
      <trkpt lat="39.2693604234071" lon="-5.72989942812659"><ele>2254</ele><speed>8.29</speed><time>2016-07-09T16:03:02Z</time><pdop>8.0</pdop><geoidheight>50.80</geoidheight><course>334.7388</course><type>1</type></trkpt>
      <trkpt lat="39.26950309529351" lon="-5.729981051738962"><ele>2256</ele><speed>8.91</speed><time>2016-07-09T16:03:05Z</time><pdop>8.0</pdop><geoidheight>50.80</geoidheight><course>336.13626</course><type>1</type></trkpt>
      <trkpt lat="39.26965758521124" lon="-5.730063624799222"><ele>2257</ele><speed>9.95</speed><time>2016-07-09T16:03:06Z</time><pdop>8.0</pdop><geoidheight>50.80</geoidheight><course>337.76733</course><type>1</type></trkpt>
      <trkpt lat="39.26983162403122" lon="-5.730154582499925"><ele>2257</ele><speed>9.88</speed><time>2016-07-09T16:03:09Z</time><pdop>6.0</pdop><geoidheight>50.80</geoidheight><course>336.18588</course><type>1</type></trkpt>
      <trkpt lat="39.269991273597896" lon="-5.7302448529867664"><ele>2258</ele><speed>9.23</speed><time>2016-07-09T16:03:10Z</time><pdop>8.0</pdop><geoidheight>50.80</geoidheight><course>335.17654</course><type>1</type></trkpt>
      <trkpt lat="39.27012861197989" lon="-5.730327858256699"><ele>2260</ele><speed>8.78</speed><time>2016-07-09T16:03:12Z</time><pdop>8.0</pdop><geoidheight>50.80</geoidheight><course>336.54208</course><type>1</type></trkpt>
      <trkpt lat="39.27028922551577" lon="-5.7304155853588385"><ele>2262</ele><speed>9.07</speed><time>2016-07-09T16:03:14Z</time><pdop>6.0</pdop><geoidheight>50.80</geoidheight><course>335.758</course><type>1</type></trkpt>
      <trkpt lat="39.27042844244197" lon="-5.730514908063277"><ele>2264</ele><speed>8.56</speed><time>2016-07-09T16:03:17Z</time><pdop>6.0</pdop><geoidheight>50.80</geoidheight><course>328.31833</course><type>1</type></trkpt>
      <trkpt lat="39.27058214469145" lon="-5.7306420364552695"><ele>2264</ele><speed>10.93</speed><time>2016-07-09T16:03:18Z</time><pdop>6.0</pdop><geoidheight>50.80</geoidheight><course>329.1534</course><type>1</type></trkpt>
      <trkpt lat="39.270760577719344" lon="-5.730706009703784"><ele>2264</ele><speed>9.87</speed><time>2016-07-09T16:03:20Z</time><pdop>6.0</pdop><geoidheight>50.80</geoidheight><course>346.84012</course><type>1</type></trkpt>
      <trkpt lat="39.270913600324036" lon="-5.730737141758944"><ele>2264</ele><speed>5.68</speed><time>2016-07-09T16:03:22Z</time><pdop>8.0</pdop><geoidheight>50.80</geoidheight><course>351.56766</course><type>1</type></trkpt>
      <trkpt lat="39.271077885683134" lon="-5.730762819143236"><ele>2263</ele><speed>9.13</speed><time>2016-07-09T16:03:25Z</time><pdop>8.0</pdop><geoidheight>50.80</geoidheight><course>350.2507</course><type>1</type></trkpt>
      <trkpt lat="39.27125364287737" lon="-5.7308021623974605"><ele>2263</ele><speed>10.46</speed><time>2016-07-09T16:03:27Z</time><pdop>8.0</pdop><geoidheight>50.80</geoidheight><course>348.92303</course><type>1</type></trkpt>
      <trkpt lat="39.27142051612209" lon="-5.730846029158011"><ele>2263</ele><speed>9.66</speed><time>2016-07-09T16:03:28Z</time><pdop>8.0</pdop><geoidheight>50.80</geoidheight><course>346.70602</course><type>1</type></trkpt>
      <trkpt lat="39.27164573325941" lon="-5.730946911106612"><ele>2263</ele><speed>9.12</speed><time>2016-07-09T16:03:31Z</time><pdop>12.0</pdop><geoidheight>50.80</geoidheight><course>343.45746</course><type>1</type></trkpt>
      <trkpt lat="39.27192900863516" lon="-5.731053507548267"><ele>2264</ele><speed>11.82</speed><time>2016-07-09T16:03:34Z</time><pdop>12.0</pdop><geoidheight>50.80</geoidheight><course>344.5798</course><type>1</type></trkpt>
      <trkpt lat="39.27222442684009" lon="-5.731167495521118"><ele>2265</ele><speed>10.86</speed><time>2016-07-09T16:03:37Z</time><pdop>12.0</pdop><geoidheight>50.80</geoidheight><course>342.70074</course><type>1</type></trkpt>
      <trkpt lat="39.27241185132314" lon="-5.731256574691903"><ele>2267</ele><speed>10.40</speed><time>2016-07-09T16:03:39Z</time><pdop>8.0</pdop><geoidheight>50.80</geoidheight><course>339.71704</course><type>1</type></trkpt>
      <trkpt lat="39.27261174560357" lon="-5.731347830662532"><ele>2270</ele><speed>11.68</speed><time>2016-07-09T16:03:41Z</time><pdop>8.0</pdop><geoidheight>50.80</geoidheight><course>341.6471</course><type>1</type></trkpt>
      <trkpt lat="39.27280747564204" lon="-5.731433552102378"><ele>2273</ele><speed>10.70</speed><time>2016-07-09T16:03:43Z</time><pdop>8.0</pdop><geoidheight>50.80</geoidheight><course>340.25494</course><type>1</type></trkpt>
      <trkpt lat="39.273003827653675" lon="-5.73152532291536"><ele>2277</ele><speed>10.94</speed><time>2016-07-09T16:03:45Z</time><pdop>12.0</pdop><geoidheight>50.80</geoidheight><course>340.54922</course><type>1</type></trkpt>
      <trkpt lat="39.27328635347446" lon="-5.731625570133265"><ele>2282</ele><speed>9.34</speed><time>2016-07-09T16:03:48Z</time><pdop>12.0</pdop><geoidheight>50.80</geoidheight><course>344.5861</course><type>1</type></trkpt>
      <trkpt lat="39.27345157740693" lon="-5.731689706047477"><ele>2286</ele><speed>9.77</speed><time>2016-07-09T16:03:50Z</time><pdop>6.0</pdop><geoidheight>50.80</geoidheight><course>342.2006</course><type>1</type></trkpt>
      <trkpt lat="39.27362006624414" lon="-5.731764437322708"><ele>2290</ele><speed>10.40</speed><time>2016-07-09T16:03:52Z</time><pdop>6.0</pdop><geoidheight>50.80</geoidheight><course>343.69733</course><type>1</type></trkpt>
      <trkpt lat="39.273821753398735" lon="-5.731825847178715"><ele>2293</ele><speed>11.12</speed><time>2016-07-09T16:03:54Z</time><pdop>6.0</pdop><geoidheight>50.80</geoidheight><course>347.3032</course><type>1</type></trkpt>
      <trkpt lat="39.274004289601145" lon="-5.731871372232362"><ele>2296</ele><speed>8.33</speed><time>2016-07-09T16:03:57Z</time><pdop>6.0</pdop><geoidheight>50.80</geoidheight><course>345.73825</course><type>1</type></trkpt>
      <trkpt lat="39.274180048599085" lon="-5.731906367138316"><ele>2299</ele><speed>9.84</speed><time>2016-07-09T16:03:58Z</time><pdop>6.0</pdop><geoidheight>50.80</geoidheight><course>349.37064</course><type>1</type></trkpt>
      <trkpt lat="39.2743725334549" lon="-5.7319360268021855"><ele>2301</ele><speed>10.46</speed><time>2016-07-09T16:04:00Z</time><pdop>6.0</pdop><geoidheight>50.80</geoidheight><course>350.83545</course><type>1</type></trkpt>
      <trkpt lat="39.27455666806167" lon="-5.731967776925833"><ele>2303</ele><speed>10.03</speed><time>2016-07-09T16:04:02Z</time><pdop>6.0</pdop><geoidheight>50.80</geoidheight><course>350.6581</course><type>1</type></trkpt>
      <trkpt lat="39.27475094099973" lon="-5.732003189662373"><ele>2305</ele><speed>9.99</speed><time>2016-07-09T16:04:04Z</time><pdop>6.0</pdop><geoidheight>50.80</geoidheight><course>351.50467</course><type>1</type></trkpt>
      <trkpt lat="39.27492874417718" lon="-5.7319961201017255"><ele>2306</ele><speed>7.77</speed><time>2016-07-09T16:04:06Z</time><pdop>6.0</pdop><geoidheight>50.80</geoidheight><course>14.13857</course><type>1</type></trkpt>
      <trkpt lat="39.27506468686568" lon="-5.7318606727951735"><ele>2307</ele><speed>10.09</speed><time>2016-07-09T16:04:09Z</time><pdop>6.0</pdop><geoidheight>50.80</geoidheight><course>48.810055</course><type>1</type></trkpt>
      <trkpt lat="39.27517462069377" lon="-5.731689575051524"><ele>2308</ele><speed>8.01</speed><time>2016-07-09T16:04:10Z</time><pdop>6.0</pdop><geoidheight>50.80</geoidheight><course>52.55269</course><type>1</type></trkpt>
      <trkpt lat="39.275257469707654" lon="-5.731531380052521"><ele>2311</ele><speed>6.98</speed><time>2016-07-09T16:04:12Z</time><pdop>6.0</pdop><geoidheight>50.80</geoidheight><course>57.365425</course><type>1</type></trkpt>
      <trkpt lat="39.27529748701056" lon="-5.731370548337004"><ele>2314</ele><speed>6.51</speed><time>2016-07-09T16:04:14Z</time><pdop>4.0</pdop><geoidheight>50.80</geoidheight><course>82.69103</course><type>1</type></trkpt>
      <trkpt lat="39.275260474439285" lon="-5.731213821953813"><ele>2317</ele><speed>7.20</speed><time>2016-07-09T16:04:16Z</time><pdop>6.0</pdop><geoidheight>50.80</geoidheight><course>119.811966</course><type>1</type></trkpt>
      <trkpt lat="39.27515663750159" lon="-5.7311100018321595"><ele>2318</ele><speed>9.02</speed><time>2016-07-09T16:04:19Z</time><pdop>6.0</pdop><geoidheight>50.80</geoidheight><course>146.16353</course><type>1</type></trkpt>
      <trkpt lat="39.27499782933186" lon="-5.731054878509215"><ele>2320</ele><speed>8.95</speed><time>2016-07-09T16:04:21Z</time><pdop>6.0</pdop><geoidheight>50.80</geoidheight><course>167.10345</course><type>1</type></trkpt>
      <trkpt lat="39.27485019456444" lon="-5.731011768577739"><ele>2321</ele><speed>7.38</speed><time>2016-07-09T16:04:22Z</time><pdop>6.0</pdop><geoidheight>50.80</geoidheight><course>170.32585</course><type>1</type></trkpt>
      <trkpt lat="39.27470092028037" lon="-5.731008074145048"><ele>2323</ele><speed>9.48</speed><time>2016-07-09T16:04:24Z</time><pdop>4.0</pdop><geoidheight>50.80</geoidheight><course>187.96635</course><type>1</type></trkpt>
      <trkpt lat="39.274619654329875" lon="-5.7310243739797215"><ele>2325</ele><speed>9.70</speed><time>2016-07-09T16:04:25Z</time><pdop>4.0</pdop><geoidheight>50.80</geoidheight><course>189.44301</course><type>1</type></trkpt>
      <trkpt lat="39.27453057509317" lon="-5.731053769190412"><ele>2327</ele><speed>9.29</speed><time>2016-07-09T16:04:26Z</time><pdop>6.0</pdop><geoidheight>50.80</geoidheight><course>193.06346</course><type>1</type></trkpt>
      <trkpt lat="39.27442589000918" lon="-5.731143289106486"><ele>2330</ele><speed>8.16</speed><time>2016-07-09T16:04:28Z</time><pdop>6.0</pdop><geoidheight>50.80</geoidheight><course>218.38866</course><type>1</type></trkpt>
      <trkpt lat="39.274347976683835" lon="-5.731303454020513"><ele>2333</ele><speed>7.84</speed><time>2016-07-09T16:04:31Z</time><pdop>4.0</pdop><geoidheight>50.80</geoidheight><course>243.06857</course><type>1</type></trkpt>
      <trkpt lat="39.2743133961337" lon="-5.731389837363175"><ele>2334</ele><speed>7.21</speed><time>2016-07-09T16:04:31Z</time><pdop>4.0</pdop><geoidheight>50.80</geoidheight><course>246.72862</course><type>1</type></trkpt>
      <trkpt lat="39.27434731149601" lon="-5.731584438075141"><ele>2339</ele><speed>9.80</speed><time>2016-07-09T16:04:33Z</time><pdop>6.0</pdop><geoidheight>50.80</geoidheight><course>299.59805</course><type>1</type></trkpt>
      <trkpt lat="39.274521158340235" lon="-5.731771796644356"><ele>2342</ele><speed>11.98</speed><time>2016-07-09T16:04:35Z</time><pdop>8.0</pdop><geoidheight>50.80</geoidheight><course>308.50006</course><type>1</type></trkpt>
      <trkpt lat="39.27470634904986" lon="-5.7317086269960695"><ele>2346</ele><speed>11.04</speed><time>2016-07-09T16:04:37Z</time><pdop>6.0</pdop><geoidheight>50.80</geoidheight><course>33.2325</course><type>1</type></trkpt>
      <trkpt lat="39.27480083408552" lon="-5.731491549678744"><ele>2348</ele><speed>9.62</speed><time>2016-07-09T16:04:39Z</time><pdop>8.0</pdop><geoidheight>50.80</geoidheight><course>71.73397</course><type>1</type></trkpt>
      <trkpt lat="39.274770118105764" lon="-5.73126398979249"><ele>2352</ele><speed>9.12</speed><time>2016-07-09T16:04:42Z</time><pdop>6.0</pdop><geoidheight>50.80</geoidheight><course>113.73316</course><type>1</type></trkpt>
      <trkpt lat="39.27465443081086" lon="-5.731134816003805"><ele>2355</ele><speed>9.26</speed><time>2016-07-09T16:04:44Z</time><pdop>6.0</pdop><geoidheight>50.80</geoidheight><course>149.41296</course><type>1</type></trkpt>
      <trkpt lat="39.274491121938446" lon="-5.731104311716535"><ele>2357</ele><speed>9.19</speed><time>2016-07-09T16:04:46Z</time><pdop>6.0</pdop><geoidheight>50.80</geoidheight><course>184.38666</course><type>1</type></trkpt>
      <trkpt lat="39.27432268137734" lon="-5.7312032682853875"><ele>2359</ele><speed>10.45</speed><time>2016-07-09T16:04:47Z</time><pdop>6.0</pdop><geoidheight>50.80</geoidheight><course>217.1705</course><type>1</type></trkpt>
      <trkpt lat="39.27422152431167" lon="-5.731394665611235"><ele>2361</ele><speed>11.08</speed><time>2016-07-09T16:04:49Z</time><pdop>8.0</pdop><geoidheight>50.80</geoidheight><course>239.636</course><type>1</type></trkpt>
      <trkpt lat="39.27417551579518" lon="-5.731613924851074"><ele>2364</ele><speed>9.41</speed><time>2016-07-09T16:04:51Z</time><pdop>6.0</pdop><geoidheight>50.80</geoidheight><course>256.57394</course><type>1</type></trkpt>
      <trkpt lat="39.274151789582696" lon="-5.731829591695892"><ele>2368</ele><speed>8.19</speed><time>2016-07-09T16:04:54Z</time><pdop>8.0</pdop><geoidheight>50.80</geoidheight><course>262.98157</course><type>1</type></trkpt>
      <trkpt lat="39.27414942252232" lon="-5.732050201927573"><ele>2372</ele><speed>9.94</speed><time>2016-07-09T16:04:55Z</time><pdop>6.0</pdop><geoidheight>50.80</geoidheight><course>269.8555</course><type>1</type></trkpt>
      <trkpt lat="39.2742004180947" lon="-5.7323210803053115"><ele>2375</ele><speed>11.76</speed><time>2016-07-09T16:04:57Z</time><pdop>6.0</pdop><geoidheight>50.80</geoidheight><course>284.91205</course><type>1</type></trkpt>
      <trkpt lat="39.27427248143138" lon="-5.732579823896156"><ele>2376</ele><speed>10.02</speed><time>2016-07-09T16:04:59Z</time><pdop>8.0</pdop><geoidheight>50.80</geoidheight><course>289.9507</course><type>1</type></trkpt>
      <trkpt lat="39.27436329003382" lon="-5.7327843404080605"><ele>2377</ele><speed>9.99</speed><time>2016-07-09T16:05:01Z</time><pdop>8.0</pdop><geoidheight>50.80</geoidheight><course>296.56747</course><type>1</type></trkpt>
      <trkpt lat="39.27449543498072" lon="-5.732949999985754"><ele>2381</ele><speed>9.21</speed><time>2016-07-09T16:05:03Z</time><pdop>6.0</pdop><geoidheight>50.80</geoidheight><course>314.66464</course><type>1</type></trkpt>
      <trkpt lat="39.27462672343851" lon="-5.733079388054727"><ele>2386</ele><speed>8.64</speed><time>2016-07-09T16:05:05Z</time><pdop>8.0</pdop><geoidheight>50.80</geoidheight><course>321.86163</course><type>1</type></trkpt>
      <trkpt lat="39.2747818946634" lon="-5.733146191230811"><ele>2392</ele><speed>8.22</speed><time>2016-07-09T16:05:07Z</time><pdop>6.0</pdop><geoidheight>50.80</geoidheight><course>349.68918</course><type>1</type></trkpt>
      <trkpt lat="39.27493064498407" lon="-5.733138474880583"><ele>2397</ele><speed>7.85</speed><time>2016-07-09T16:05:09Z</time><pdop>8.0</pdop><geoidheight>50.80</geoidheight><course>13.134853</course><type>1</type></trkpt>
      <trkpt lat="39.27511911589278" lon="-5.733072514490695"><ele>2401</ele><speed>6.97</speed><time>2016-07-09T16:05:12Z</time><pdop>6.0</pdop><geoidheight>50.80</geoidheight><course>15.469574</course><type>1</type></trkpt>
      <trkpt lat="39.27526862727867" lon="-5.7330223644802345"><ele>2405</ele><speed>8.38</speed><time>2016-07-09T16:05:15Z</time><pdop>6.0</pdop><geoidheight>50.80</geoidheight><course>17.956966</course><type>1</type></trkpt>
      <trkpt lat="39.275446520211794" lon="-5.7329954886343755"><ele>2409</ele><speed>9.06</speed><time>2016-07-09T16:05:16Z</time><pdop>6.0</pdop><geoidheight>50.80</geoidheight><course>359.1055</course><type>1</type></trkpt>
      <trkpt lat="39.27563047757654" lon="-5.733065556996688"><ele>2413</ele><speed>10.45</speed><time>2016-07-09T16:05:18Z</time><pdop>6.0</pdop><geoidheight>50.80</geoidheight><course>339.7974</course><type>1</type></trkpt>
      <trkpt lat="39.275804594212104" lon="-5.733209847933984"><ele>2416</ele><speed>13.31</speed><time>2016-07-09T16:05:20Z</time><pdop>8.0</pdop><geoidheight>50.80</geoidheight><course>327.25928</course><type>1</type></trkpt>
      <trkpt lat="39.27598235861401" lon="-5.733336436842242"><ele>2417</ele><speed>11.61</speed><time>2016-07-09T16:05:22Z</time><pdop>6.0</pdop><geoidheight>50.80</geoidheight><course>332.06033</course><type>1</type></trkpt>
      <trkpt lat="39.276136889360735" lon="-5.7334145895731625"><ele>2418</ele><speed>7.47</speed><time>2016-07-09T16:05:24Z</time><pdop>6.0</pdop><geoidheight>50.80</geoidheight><course>336.7149</course><type>1</type></trkpt>
      <trkpt lat="39.276289282372055" lon="-5.73347276640362"><ele>2420</ele><speed>8.60</speed><time>2016-07-09T16:05:26Z</time><pdop>6.0</pdop><geoidheight>50.80</geoidheight><course>342.06155</course><type>1</type></trkpt>
      <trkpt lat="39.27645768490328" lon="-5.733512666105912"><ele>2422</ele><speed>8.64</speed><time>2016-07-09T16:05:28Z</time><pdop>6.0</pdop><geoidheight>50.80</geoidheight><course>347.3545</course><type>1</type></trkpt>
      <trkpt lat="39.276645233945096" lon="-5.733532611216467"><ele>2425</ele><speed>8.21</speed><time>2016-07-09T16:05:30Z</time><pdop>6.0</pdop><geoidheight>50.80</geoidheight><course>350.96436</course><type>1</type></trkpt>
      <trkpt lat="39.276810656266036" lon="-5.73355293008656"><ele>2429</ele><speed>7.62</speed><time>2016-07-09T16:05:32Z</time><pdop>6.0</pdop><geoidheight>50.80</geoidheight><course>352.79123</course><type>1</type></trkpt>
      <trkpt lat="39.27701741755834" lon="-5.733548259022955"><ele>2433</ele><speed>9.79</speed><time>2016-07-09T16:05:34Z</time><pdop>6.0</pdop><geoidheight>50.80</geoidheight><course>357.63812</course><type>1</type></trkpt>
      <trkpt lat="39.277200590259454" lon="-5.733557026500961"><ele>2438</ele><speed>7.81</speed><time>2016-07-09T16:05:36Z</time><pdop>12.0</pdop><geoidheight>50.80</geoidheight><course>353.29663</course><type>1</type></trkpt>
      <trkpt lat="39.27737023569001" lon="-5.733578329831232"><ele>2444</ele><speed>7.94</speed><time>2016-07-09T16:05:38Z</time><pdop>6.0</pdop><geoidheight>50.80</geoidheight><course>353.81796</course><type>1</type></trkpt>
      <trkpt lat="39.277578171366464" lon="-5.733479510586662"><ele>2451</ele><speed>8.17</speed><time>2016-07-09T16:05:41Z</time><pdop>6.0</pdop><geoidheight>50.80</geoidheight><course>36.09149</course><type>1</type></trkpt>
      <trkpt lat="39.277656531795245" lon="-5.733321643438088"><ele>2454</ele><speed>7.56</speed><time>2016-07-09T16:05:43Z</time><pdop>6.0</pdop><geoidheight>50.80</geoidheight><course>73.14315</course><type>1</type></trkpt>
      <trkpt lat="39.277603378125264" lon="-5.733128439798559"><ele>2456</ele><speed>9.08</speed><time>2016-07-09T16:05:46Z</time><pdop>8.0</pdop><geoidheight>50.80</geoidheight><course>127.49512</course><type>1</type></trkpt>
      <trkpt lat="39.27746132258816" lon="-5.733084549136441"><ele>2458</ele><speed>10.52</speed><time>2016-07-09T16:05:47Z</time><pdop>6.0</pdop><geoidheight>50.80</geoidheight><course>180.36069</course><type>1</type></trkpt>
      <trkpt lat="39.27727068793006" lon="-5.733175032339893"><ele>2460</ele><speed>11.52</speed><time>2016-07-09T16:05:50Z</time><pdop>6.0</pdop><geoidheight>50.80</geoidheight><course>213.19246</course><type>1</type></trkpt>
      <trkpt lat="39.277173910310104" lon="-5.733256017333266"><ele>2461</ele><speed>11.61</speed><time>2016-07-09T16:05:51Z</time><pdop>6.0</pdop><geoidheight>50.80</geoidheight><course>216.6694</course><type>1</type></trkpt>
      <trkpt lat="39.27706036564846" lon="-5.733476941354246"><ele>2464</ele><speed>11.94</speed><time>2016-07-09T16:05:52Z</time><pdop>6.0</pdop><geoidheight>50.80</geoidheight><course>246.95459</course><type>1</type></trkpt>
      <trkpt lat="39.27702312011087" lon="-5.733607726638646"><ele>2465</ele><speed>11.99</speed><time>2016-07-09T16:05:53Z</time><pdop>6.0</pdop><geoidheight>50.80</geoidheight><course>250.57616</course><type>1</type></trkpt>
      <trkpt lat="39.277017268640115" lon="-5.733754772269895"><ele>2466</ele><speed>12.07</speed><time>2016-07-09T16:05:54Z</time><pdop>6.0</pdop><geoidheight>50.80</geoidheight><course>269.6484</course><type>1</type></trkpt>
      <trkpt lat="39.27707108916862" lon="-5.7340087585939346"><ele>2468</ele><speed>10.50</speed><time>2016-07-09T16:05:56Z</time><pdop>6.0</pdop><geoidheight>50.80</geoidheight><course>289.42288</course><type>1</type></trkpt>
      <trkpt lat="39.27719552242108" lon="-5.7341862497205565"><ele>2472</ele><speed>9.74</speed><time>2016-07-09T16:05:58Z</time><pdop>6.0</pdop><geoidheight>50.80</geoidheight><course>314.56235</course><type>1</type></trkpt>
      <trkpt lat="39.27736186204043" lon="-5.734265213250364"><ele>2477</ele><speed>10.93</speed><time>2016-07-09T16:06:01Z</time><pdop>6.0</pdop><geoidheight>50.80</geoidheight><course>2.8362818</course><type>1</type></trkpt>
      <trkpt lat="39.27745982605681" lon="-5.734128862198574"><ele>2481</ele><speed>9.05</speed><time>2016-07-09T16:06:02Z</time><pdop>6.0</pdop><geoidheight>50.80</geoidheight><course>70.90039</course><type>1</type></trkpt>
      <trkpt lat="39.27744588793925" lon="-5.733948032879276"><ele>2485</ele><speed>8.29</speed><time>2016-07-09T16:06:05Z</time><pdop>8.0</pdop><geoidheight>50.80</geoidheight><course>122.03132</course><type>1</type></trkpt>
      <trkpt lat="39.277306341147984" lon="-5.733828312314478"><ele>2486</ele><speed>10.31</speed><time>2016-07-09T16:06:06Z</time><pdop>8.0</pdop><geoidheight>50.80</geoidheight><course>157.41335</course><type>1</type></trkpt>
      <trkpt lat="39.27711039322857" lon="-5.733831724045083"><ele>2488</ele><speed>10.67</speed><time>2016-07-09T16:06:08Z</time><pdop>6.0</pdop><geoidheight>50.80</geoidheight><course>194.24826</course><type>1</type></trkpt>
      <trkpt lat="39.27693237312099" lon="-5.733979647706749"><ele>2489</ele><speed>12.87</speed><time>2016-07-09T16:06:10Z</time><pdop>8.0</pdop><geoidheight>50.80</geoidheight><course>233.54243</course><type>1</type></trkpt>
      <trkpt lat="39.27686876739939" lon="-5.734285756344531"><ele>2493</ele><speed>15.16</speed><time>2016-07-09T16:06:13Z</time><pdop>8.0</pdop><geoidheight>50.80</geoidheight><course>259.0502</course><type>1</type></trkpt>
      <trkpt lat="39.276895568927316" lon="-5.7344688417431975"><ele>2495</ele><speed>13.64</speed><time>2016-07-09T16:06:14Z</time><pdop>8.0</pdop><geoidheight>50.80</geoidheight><course>284.02838</course><type>1</type></trkpt>
      <trkpt lat="39.27701727813878" lon="-5.73473048552203"><ele>2501</ele><speed>10.43</speed><time>2016-07-09T16:06:15Z</time><pdop>6.0</pdop><geoidheight>50.80</geoidheight><course>314.0088</course><type>1</type></trkpt>
      <trkpt lat="39.277178440406836" lon="-5.734855950465134"><ele>2507</ele><speed>8.27</speed><time>2016-07-09T16:06:17Z</time><pdop>6.0</pdop><geoidheight>50.80</geoidheight><course>335.113</course><type>1</type></trkpt>
      <trkpt lat="39.277330708781584" lon="-5.734840083063739"><ele>2512</ele><speed>10.21</speed><time>2016-07-09T16:06:19Z</time><pdop>8.0</pdop><geoidheight>50.80</geoidheight><course>13.838387</course><type>1</type></trkpt>
      <trkpt lat="39.27742435844271" lon="-5.734692186450066"><ele>2516</ele><speed>9.19</speed><time>2016-07-09T16:06:21Z</time><pdop>8.0</pdop><geoidheight>50.80</geoidheight><course>74.721756</course><type>1</type></trkpt>
      <trkpt lat="39.277370708172775" lon="-5.734493088599308"><ele>2520</ele><speed>9.96</speed><time>2016-07-09T16:06:24Z</time><pdop>6.0</pdop><geoidheight>50.80</geoidheight><course>123.88075</course><type>1</type></trkpt>
      <trkpt lat="39.27724530435084" lon="-5.734362838409553"><ele>2524</ele><speed>9.53</speed><time>2016-07-09T16:06:25Z</time><pdop>8.0</pdop><geoidheight>50.80</geoidheight><course>147.76994</course><type>1</type></trkpt>
      <trkpt lat="39.27706780381305" lon="-5.734374933973881"><ele>2527</ele><speed>12.81</speed><time>2016-07-09T16:06:27Z</time><pdop>8.0</pdop><geoidheight>50.80</geoidheight><course>198.19122</course><type>1</type></trkpt>
      <trkpt lat="39.276871949121826" lon="-5.734566756907069"><ele>2528</ele><speed>14.35</speed><time>2016-07-09T16:06:30Z</time><pdop>8.0</pdop><geoidheight>50.80</geoidheight><course>231.15103</course><type>1</type></trkpt>
      <trkpt lat="39.27676858919436" lon="-5.7348318502466835"><ele>2530</ele><speed>13.33</speed><time>2016-07-09T16:06:31Z</time><pdop>8.0</pdop><geoidheight>50.80</geoidheight><course>248.73035</course><type>1</type></trkpt>
      <trkpt lat="39.276747708646575" lon="-5.735130604616112"><ele>2533</ele><speed>12.73</speed><time>2016-07-09T16:06:33Z</time><pdop>6.0</pdop><geoidheight>50.80</geoidheight><course>267.40018</course><type>1</type></trkpt>
      <trkpt lat="39.276776284123315" lon="-5.735285494724038"><ele>2535</ele><speed>12.52</speed><time>2016-07-09T16:06:34Z</time><pdop>6.0</pdop><geoidheight>50.80</geoidheight><course>282.62296</course><type>1</type></trkpt>
      <trkpt lat="39.276812561201886" lon="-5.735419981557653"><ele>2536</ele><speed>10.96</speed><time>2016-07-09T16:06:35Z</time><pdop>6.0</pdop><geoidheight>50.80</geoidheight><course>286.6729</course><type>1</type></trkpt>
      <trkpt lat="39.276879975763656" lon="-5.735540518234887"><ele>2538</ele><speed>11.43</speed><time>2016-07-09T16:06:36Z</time><pdop>6.0</pdop><geoidheight>50.80</geoidheight><course>305.03455</course><type>1</type></trkpt>
      <trkpt lat="39.27701651724025" lon="-5.73571255304718"><ele>2543</ele><speed>8.93</speed><time>2016-07-09T16:06:38Z</time><pdop>6.0</pdop><geoidheight>50.80</geoidheight><course>319.05487</course><type>1</type></trkpt>
      <trkpt lat="39.27717588804365" lon="-5.735769410457594"><ele>2549</ele><speed>9.19</speed><time>2016-07-09T16:06:40Z</time><pdop>6.0</pdop><geoidheight>50.80</geoidheight><course>0.48599696</course><type>1</type></trkpt>
      <trkpt lat="39.277324835504494" lon="-5.735710677789039"><ele>2555</ele><speed>6.31</speed><time>2016-07-09T16:06:43Z</time><pdop>6.0</pdop><geoidheight>50.80</geoidheight><course>41.382244</course><type>1</type></trkpt>
      <trkpt lat="39.27734443706654" lon="-5.735551441037238"><ele>2561</ele><speed>6.78</speed><time>2016-07-09T16:06:44Z</time><pdop>6.0</pdop><geoidheight>50.80</geoidheight><course>101.51491</course><type>1</type></trkpt>
      <trkpt lat="39.2772669544289" lon="-5.735395378569578"><ele>2566</ele><speed>9.10</speed><time>2016-07-09T16:06:46Z</time><pdop>6.0</pdop><geoidheight>50.80</geoidheight><course>135.03372</course><type>1</type></trkpt>
      <trkpt lat="39.27710475930544" lon="-5.73531134899392"><ele>2571</ele><speed>10.97</speed><time>2016-07-09T16:06:48Z</time><pdop>6.0</pdop><geoidheight>50.80</geoidheight><course>170.5792</course><type>1</type></trkpt>
      <trkpt lat="39.27690333297183" lon="-5.735352286114582"><ele>2575</ele><speed>11.41</speed><time>2016-07-09T16:06:51Z</time><pdop>8.0</pdop><geoidheight>50.80</geoidheight><course>211.03261</course><type>1</type></trkpt>
      <trkpt lat="39.27677050567112" lon="-5.735618759941998"><ele>2580</ele><speed>14.28</speed><time>2016-07-09T16:06:52Z</time><pdop>6.0</pdop><geoidheight>50.80</geoidheight><course>240.41864</course><type>1</type></trkpt>
      <trkpt lat="39.27673707594751" lon="-5.735781963902012"><ele>2582</ele><speed>14.29</speed><time>2016-07-09T16:06:53Z</time><pdop>6.0</pdop><geoidheight>50.80</geoidheight><course>259.56778</course><type>1</type></trkpt>
      <trkpt lat="39.27674503320488" lon="-5.735952800363903"><ele>2585</ele><speed>13.48</speed><time>2016-07-09T16:06:54Z</time><pdop>6.0</pdop><geoidheight>50.80</geoidheight><course>275.65237</course><type>1</type></trkpt>
      <trkpt lat="39.276829545313284" lon="-5.736230970214848"><ele>2589</ele><speed>11.75</speed><time>2016-07-09T16:06:56Z</time><pdop>8.0</pdop><geoidheight>50.80</geoidheight><course>306.86813</course><type>1</type></trkpt>
      <trkpt lat="39.277000802062595" lon="-5.736404832506851"><ele>2594</ele><speed>10.26</speed><time>2016-07-09T16:06:58Z</time><pdop>8.0</pdop><geoidheight>50.80</geoidheight><course>328.4573</course><type>1</type></trkpt>
      <trkpt lat="39.27715400992181" lon="-5.736388496154484"><ele>2599</ele><speed>8.04</speed><time>2016-07-09T16:07:00Z</time><pdop>6.0</pdop><geoidheight>50.80</geoidheight><course>26.364006</course><type>1</type></trkpt>
      <trkpt lat="39.277209985548474" lon="-5.736222285809715"><ele>2604</ele><speed>7.36</speed><time>2016-07-09T16:07:02Z</time><pdop>8.0</pdop><geoidheight>50.80</geoidheight><course>93.57415</course><type>1</type></trkpt>
      <trkpt lat="39.277145929345615" lon="-5.736077219110677"><ele>2610</ele><speed>9.55</speed><time>2016-07-09T16:07:04Z</time><pdop>6.0</pdop><geoidheight>50.80</geoidheight><course>141.90924</course><type>1</type></trkpt>
      <trkpt lat="39.27697829183267" lon="-5.736033600577288"><ele>2614</ele><speed>10.32</speed><time>2016-07-09T16:07:07Z</time><pdop>6.0</pdop><geoidheight>50.80</geoidheight><course>179.80078</course><type>1</type></trkpt>
      <trkpt lat="39.27678652177962" lon="-5.736189575091464"><ele>2619</ele><speed>14.49</speed><time>2016-07-09T16:07:09Z</time><pdop>6.0</pdop><geoidheight>50.80</geoidheight><course>223.97522</course><type>1</type></trkpt>
      <trkpt lat="39.276722831455686" lon="-5.736316777399791"><ele>2621</ele><speed>14.54</speed><time>2016-07-09T16:07:10Z</time><pdop>6.0</pdop><geoidheight>50.80</geoidheight><course>239.29533</course><type>1</type></trkpt>
      <trkpt lat="39.27667986769137" lon="-5.736457609692137"><ele>2623</ele><speed>13.54</speed><time>2016-07-09T16:07:10Z</time><pdop>6.0</pdop><geoidheight>50.80</geoidheight><course>252.00426</course><type>1</type></trkpt>
      <trkpt lat="39.27665034891903" lon="-5.736766740197403"><ele>2625</ele><speed>13.64</speed><time>2016-07-09T16:07:12Z</time><pdop>8.0</pdop><geoidheight>50.80</geoidheight><course>273.30884</course><type>1</type></trkpt>
      <trkpt lat="39.27670966927996" lon="-5.737074081466663"><ele>2628</ele><speed>12.39</speed><time>2016-07-09T16:07:14Z</time><pdop>6.0</pdop><geoidheight>50.80</geoidheight><course>294.6053</course><type>1</type></trkpt>
      <trkpt lat="39.27675771365453" lon="-5.7372087598136465"><ele>2630</ele><speed>10.95</speed><time>2016-07-09T16:07:15Z</time><pdop>6.0</pdop><geoidheight>50.80</geoidheight><course>298.446</course><type>1</type></trkpt>
      <trkpt lat="39.27690709012229" lon="-5.73738248220907"><ele>2634</ele><speed>8.90</speed><time>2016-07-09T16:07:17Z</time><pdop>8.0</pdop><geoidheight>50.80</geoidheight><course>323.6802</course><type>1</type></trkpt>
      <trkpt lat="39.27707754145536" lon="-5.737460862334819"><ele>2638</ele><speed>8.39</speed><time>2016-07-09T16:07:19Z</time><pdop>6.0</pdop><geoidheight>50.80</geoidheight><course>345.42203</course><type>1</type></trkpt>
      <trkpt lat="39.27722707181381" lon="-5.737422653549837"><ele>2642</ele><speed>7.79</speed><time>2016-07-09T16:07:21Z</time><pdop>6.0</pdop><geoidheight>50.80</geoidheight><course>23.976154</course><type>1</type></trkpt>
      <trkpt lat="39.2772862973258" lon="-5.737303170206125"><ele>2646</ele><speed>6.44</speed><time>2016-07-09T16:07:23Z</time><pdop>4.0</pdop><geoidheight>50.80</geoidheight><course>79.42403</course><type>1</type></trkpt>
      <trkpt lat="39.27726094585138" lon="-5.737164269949692"><ele>2651</ele><speed>7.65</speed><time>2016-07-09T16:07:25Z</time><pdop>6.0</pdop><geoidheight>50.80</geoidheight><course>131.22377</course><type>1</type></trkpt>
      <trkpt lat="39.27712584586889" lon="-5.737093094734678"><ele>2654</ele><speed>8.79</speed><time>2016-07-09T16:07:27Z</time><pdop>6.0</pdop><geoidheight>50.80</geoidheight><course>173.26894</course><type>1</type></trkpt>
      <trkpt lat="39.27697623578414" lon="-5.737112624949321"><ele>2658</ele><speed>6.93</speed><time>2016-07-09T16:07:29Z</time><pdop>8.0</pdop><geoidheight>50.80</geoidheight><course>190.7739</course><type>1</type></trkpt>
      <trkpt lat="39.2768370219819" lon="-5.73719648699453"><ele>2665</ele><speed>11.46</speed><time>2016-07-09T16:07:31Z</time><pdop>8.0</pdop><geoidheight>50.80</geoidheight><course>211.37564</course><type>1</type></trkpt>
      <trkpt lat="39.27665483755474" lon="-5.737396478566044"><ele>2670</ele><speed>14.07</speed><time>2016-07-09T16:07:33Z</time><pdop>8.0</pdop><geoidheight>50.80</geoidheight><course>231.9734</course><type>1</type></trkpt>
      <trkpt lat="39.27658002720019" lon="-5.737708614563167"><ele>2676</ele><speed>13.96</speed><time>2016-07-09T16:07:35Z</time><pdop>8.0</pdop><geoidheight>50.80</geoidheight><course>265.72086</course><type>1</type></trkpt>
      <trkpt lat="39.276664136326694" lon="-5.737995886062759"><ele>2681</ele><speed>13.31</speed><time>2016-07-09T16:07:37Z</time><pdop>8.0</pdop><geoidheight>50.80</geoidheight><course>302.09137</course><type>1</type></trkpt>
      <trkpt lat="39.276801054791754" lon="-5.738177453355779"><ele>2684</ele><speed>10.84</speed><time>2016-07-09T16:07:40Z</time><pdop>8.0</pdop><geoidheight>50.80</geoidheight><course>319.46622</course><type>1</type></trkpt>
      <trkpt lat="39.27701256740273" lon="-5.738280074482579"><ele>2691</ele><speed>9.66</speed><time>2016-07-09T16:07:42Z</time><pdop>6.0</pdop><geoidheight>50.80</geoidheight><course>354.51263</course><type>1</type></trkpt>
      <trkpt lat="39.27713890903357" lon="-5.73823129642609"><ele>2694</ele><speed>5.13</speed><time>2016-07-09T16:07:45Z</time><pdop>8.0</pdop><geoidheight>50.80</geoidheight><course>16.197805</course><type>1</type></trkpt>
      <trkpt lat="39.2771601174701" lon="-5.738012857510559"><ele>2700</ele><speed>7.94</speed><time>2016-07-09T16:07:47Z</time><pdop>8.0</pdop><geoidheight>50.80</geoidheight><course>102.383835</course><type>1</type></trkpt>
      <trkpt lat="39.27714121174024" lon="-5.7378507250364"><ele>2704</ele><speed>6.75</speed><time>2016-07-09T16:07:49Z</time><pdop>6.0</pdop><geoidheight>50.80</geoidheight><course>115.17031</course><type>1</type></trkpt>
      <trkpt lat="39.27704452847728" lon="-5.7377516197019744"><ele>2709</ele><speed>9.33</speed><time>2016-07-09T16:07:51Z</time><pdop>6.0</pdop><geoidheight>50.80</geoidheight><course>165.15222</course><type>1</type></trkpt>
      <trkpt lat="39.2768638598717" lon="-5.737771345390705"><ele>2714</ele><speed>11.60</speed><time>2016-07-09T16:07:54Z</time><pdop>8.0</pdop><geoidheight>50.80</geoidheight><course>186.88531</course><type>1</type></trkpt>
      <trkpt lat="39.276727402983596" lon="-5.737967069511436"><ele>2718</ele><speed>13.56</speed><time>2016-07-09T16:07:55Z</time><pdop>8.0</pdop><geoidheight>50.80</geoidheight><course>247.75119</course><type>1</type></trkpt>
      <trkpt lat="39.27666566902768" lon="-5.738282823554198"><ele>2722</ele><speed>12.94</speed><time>2016-07-09T16:07:57Z</time><pdop>8.0</pdop><geoidheight>50.80</geoidheight><course>270.84592</course><type>1</type></trkpt>
      <trkpt lat="39.2767234896259" lon="-5.738508351029263"><ele>2726</ele><speed>10.74</speed><time>2016-07-09T16:07:59Z</time><pdop>8.0</pdop><geoidheight>50.80</geoidheight><course>308.779</course><type>1</type></trkpt>
      <trkpt lat="39.27688220010728" lon="-5.738653039809946"><ele>2731</ele><speed>9.98</speed><time>2016-07-09T16:08:01Z</time><pdop>6.0</pdop><geoidheight>50.80</geoidheight><course>328.56445</course><type>1</type></trkpt>
      <trkpt lat="39.27706823550651" lon="-5.7386815973378225"><ele>2736</ele><speed>10.50</speed><time>2016-07-09T16:08:03Z</time><pdop>12.0</pdop><geoidheight>50.80</geoidheight><course>8.007716</course><type>1</type></trkpt>
      <trkpt lat="39.27715826328818" lon="-5.738434115828748"><ele>2746</ele><speed>7.79</speed><time>2016-07-09T16:08:08Z</time><pdop>8.0</pdop><geoidheight>50.80</geoidheight><course>120.32963</course><type>1</type></trkpt>
      <trkpt lat="39.27704365936354" lon="-5.738311669822632"><ele>2752</ele><speed>9.45</speed><time>2016-07-09T16:08:09Z</time><pdop>8.0</pdop><geoidheight>50.80</geoidheight><course>156.11716</course><type>1</type></trkpt>
      <trkpt lat="39.27688529927902" lon="-5.7383181749298355"><ele>2757</ele><speed>10.80</speed><time>2016-07-09T16:08:11Z</time><pdop>6.0</pdop><geoidheight>50.80</geoidheight><course>190.98862</course><type>1</type></trkpt>
      <trkpt lat="39.2766996232742" lon="-5.738497311742215"><ele>2761</ele><speed>12.49</speed><time>2016-07-09T16:08:14Z</time><pdop>8.0</pdop><geoidheight>50.80</geoidheight><course>228.21117</course><type>1</type></trkpt>
      <trkpt lat="39.27658737162015" lon="-5.738719364287346"><ele>2767</ele><speed>11.34</speed><time>2016-07-09T16:08:16Z</time><pdop>8.0</pdop><geoidheight>50.80</geoidheight><course>254.94318</course><type>1</type></trkpt>
      <trkpt lat="39.27662290200273" lon="-5.738964531701956"><ele>2771</ele><speed>10.93</speed><time>2016-07-09T16:08:17Z</time><pdop>8.0</pdop><geoidheight>50.80</geoidheight><course>289.45096</course><type>1</type></trkpt>
      <trkpt lat="39.27674841242954" lon="-5.739144257613251"><ele>2775</ele><speed>10.68</speed><time>2016-07-09T16:08:19Z</time><pdop>8.0</pdop><geoidheight>50.80</geoidheight><course>320.5978</course><type>1</type></trkpt>
      <trkpt lat="39.27690407987125" lon="-5.739256583544527"><ele>2779</ele><speed>7.55</speed><time>2016-07-09T16:08:21Z</time><pdop>6.0</pdop><geoidheight>50.80</geoidheight><course>343.32703</course><type>1</type></trkpt>
      <trkpt lat="39.27707006776913" lon="-5.7391536710939315"><ele>2782</ele><speed>10.07</speed><time>2016-07-09T16:08:23Z</time><pdop>8.0</pdop><geoidheight>50.80</geoidheight><course>2.500077</course><type>1</type></trkpt>
      <trkpt lat="39.27703424671208" lon="-5.738951082555469"><ele>2785</ele><speed>7.80</speed><time>2016-07-09T16:08:26Z</time><pdop>8.0</pdop><geoidheight>50.80</geoidheight><course>114.910736</course><type>1</type></trkpt>
      <trkpt lat="39.27688613785092" lon="-5.738875200255303"><ele>2790</ele><speed>8.07</speed><time>2016-07-09T16:08:27Z</time><pdop>8.0</pdop><geoidheight>50.80</geoidheight><course>159.66325</course><type>1</type></trkpt>
      <trkpt lat="39.27669450348046" lon="-5.738888612003954"><ele>2795</ele><speed>9.35</speed><time>2016-07-09T16:08:29Z</time><pdop>8.0</pdop><geoidheight>50.80</geoidheight><course>186.05151</course><type>1</type></trkpt>
      <trkpt lat="39.27651532459812" lon="-5.739087522153844"><ele>2800</ele><speed>12.86</speed><time>2016-07-09T16:08:31Z</time><pdop>6.0</pdop><geoidheight>50.80</geoidheight><course>233.14578</course><type>1</type></trkpt>
      <trkpt lat="39.2764644882849" lon="-5.739239840299094"><ele>2802</ele><speed>12.47</speed><time>2016-07-09T16:08:32Z</time><pdop>6.0</pdop><geoidheight>50.80</geoidheight><course>248.54303</course><type>1</type></trkpt>
      <trkpt lat="39.276479724279476" lon="-5.7393837514333645"><ele>2805</ele><speed>11.60</speed><time>2016-07-09T16:08:33Z</time><pdop>6.0</pdop><geoidheight>50.80</geoidheight><course>281.89413</course><type>1</type></trkpt>
      <trkpt lat="39.276576384047395" lon="-5.739626599227751"><ele>2810</ele><speed>10.60</speed><time>2016-07-09T16:08:35Z</time><pdop>8.0</pdop><geoidheight>50.80</geoidheight><course>310.20456</course><type>1</type></trkpt>
      <trkpt lat="39.27672852314077" lon="-5.73976112115293"><ele>2815</ele><speed>10.58</speed><time>2016-07-09T16:08:37Z</time><pdop>6.0</pdop><geoidheight>50.80</geoidheight><course>342.70868</course><type>1</type></trkpt>
      <trkpt lat="39.27689169897456" lon="-5.7397779127486785"><ele>2818</ele><speed>9.26</speed><time>2016-07-09T16:08:39Z</time><pdop>6.0</pdop><geoidheight>50.80</geoidheight><course>19.665945</course><type>1</type></trkpt>
      <trkpt lat="39.27697728547051" lon="-5.73959215165836"><ele>2820</ele><speed>8.69</speed><time>2016-07-09T16:08:41Z</time><pdop>12.0</pdop><geoidheight>50.80</geoidheight><course>31.101871</course><type>1</type></trkpt>
      <trkpt lat="39.27683614228421" lon="-5.739471379694594"><ele>2822</ele><speed>9.60</speed><time>2016-07-09T16:08:44Z</time><pdop>6.0</pdop><geoidheight>50.80</geoidheight><course>157.92793</course><type>1</type></trkpt>
      <trkpt lat="39.27666186215826" lon="-5.739497110360988"><ele>2827</ele><speed>10.08</speed><time>2016-07-09T16:08:45Z</time><pdop>6.0</pdop><geoidheight>50.80</geoidheight><course>201.38608</course><type>1</type></trkpt>
      <trkpt lat="39.276496372409646" lon="-5.739624748350322"><ele>2832</ele><speed>10.25</speed><time>2016-07-09T16:08:47Z</time><pdop>6.0</pdop><geoidheight>50.80</geoidheight><course>222.6221</course><type>1</type></trkpt>
      <trkpt lat="39.276415583509966" lon="-5.73972301597674"><ele>2834</ele><speed>11.83</speed><time>2016-07-09T16:08:48Z</time><pdop>6.0</pdop><geoidheight>50.80</geoidheight><course>226.1154</course><type>1</type></trkpt>
      <trkpt lat="39.27636869804837" lon="-5.7399654455144855"><ele>2839</ele><speed>12.57</speed><time>2016-07-09T16:08:50Z</time><pdop>6.0</pdop><geoidheight>50.80</geoidheight><course>266.76193</course><type>1</type></trkpt>
      <trkpt lat="39.27638434052655" lon="-5.740129239017329"><ele>2841</ele><speed>12.90</speed><time>2016-07-09T16:08:51Z</time><pdop>6.0</pdop><geoidheight>50.80</geoidheight><course>281.38953</course><type>1</type></trkpt>
      <trkpt lat="39.27643894542776" lon="-5.740250121204454"><ele>2843</ele><speed>11.84</speed><time>2016-07-09T16:08:52Z</time><pdop>6.0</pdop><geoidheight>50.80</geoidheight><course>303.9593</course><type>1</type></trkpt>
      <trkpt lat="39.27657828587842" lon="-5.740406672105008"><ele>2847</ele><speed>8.82</speed><time>2016-07-09T16:08:54Z</time><pdop>6.0</pdop><geoidheight>50.80</geoidheight><course>331.89725</course><type>1</type></trkpt>
      <trkpt lat="39.276723248966235" lon="-5.74040902441918"><ele>2850</ele><speed>8.65</speed><time>2016-07-09T16:08:56Z</time><pdop>6.0</pdop><geoidheight>50.80</geoidheight><course>14.574039</course><type>1</type></trkpt>
      <trkpt lat="39.27680599884353" lon="-5.740299946162781"><ele>2854</ele><speed>6.85</speed><time>2016-07-09T16:08:58Z</time><pdop>6.0</pdop><geoidheight>50.80</geoidheight><course>63.25878</course><type>1</type></trkpt>
      <trkpt lat="39.276823301207884" lon="-5.740150001088237"><ele>2857</ele><speed>6.41</speed><time>2016-07-09T16:09:01Z</time><pdop>6.0</pdop><geoidheight>50.80</geoidheight><course>96.29824</course><type>1</type></trkpt>
      <trkpt lat="39.27678471560455" lon="-5.740016855459253"><ele>2861</ele><speed>6.70</speed><time>2016-07-09T16:09:02Z</time><pdop>6.0</pdop><geoidheight>50.80</geoidheight><course>129.32404</course><type>1</type></trkpt>
      <trkpt lat="39.27667150831638" lon="-5.739948601741794"><ele>2864</ele><speed>9.53</speed><time>2016-07-09T16:09:04Z</time><pdop>6.0</pdop><geoidheight>50.80</geoidheight><course>168.3145</course><type>1</type></trkpt>
      <trkpt lat="39.27648605375365" lon="-5.739982981959202"><ele>2867</ele><speed>11.08</speed><time>2016-07-09T16:09:07Z</time><pdop>6.0</pdop><geoidheight>50.80</geoidheight><course>197.76877</course><type>1</type></trkpt>
      <trkpt lat="39.2763406662367" lon="-5.740174230083761"><ele>2870</ele><speed>12.75</speed><time>2016-07-09T16:09:08Z</time><pdop>8.0</pdop><geoidheight>50.80</geoidheight><course>229.55423</course><type>1</type></trkpt>
      <trkpt lat="39.27630094324527" lon="-5.740382258968669"><ele>2873</ele><speed>11.71</speed><time>2016-07-09T16:09:10Z</time><pdop>6.0</pdop><geoidheight>50.80</geoidheight><course>276.1778</course><type>1</type></trkpt>
      <trkpt lat="39.276410100661785" lon="-5.740611918126878"><ele>2876</ele><speed>11.98</speed><time>2016-07-09T16:09:12Z</time><pdop>6.0</pdop><geoidheight>50.80</geoidheight><course>312.52872</course><type>1</type></trkpt>
      <trkpt lat="39.27658229156922" lon="-5.7407524399698415"><ele>2880</ele><speed>11.02</speed><time>2016-07-09T16:09:14Z</time><pdop>6.0</pdop><geoidheight>50.80</geoidheight><course>341.3059</course><type>1</type></trkpt>
      <trkpt lat="39.27674594860199" lon="-5.740812670630838"><ele>2884</ele><speed>9.05</speed><time>2016-07-09T16:09:16Z</time><pdop>6.0</pdop><geoidheight>50.80</geoidheight><course>5.5129747</course><type>1</type></trkpt>
      <trkpt lat="39.27686237916162" lon="-5.740723637255511"><ele>2888</ele><speed>7.51</speed><time>2016-07-09T16:09:19Z</time><pdop>8.0</pdop><geoidheight>50.80</geoidheight><course>41.067657</course><type>1</type></trkpt>
      <trkpt lat="39.276878284293694" lon="-5.740500904606033"><ele>2893</ele><speed>8.13</speed><time>2016-07-09T16:09:21Z</time><pdop>6.0</pdop><geoidheight>50.80</geoidheight><course>121.64534</course><type>1</type></trkpt>
      <trkpt lat="39.276718811004656" lon="-5.7404288316693775"><ele>2896</ele><speed>10.61</speed><time>2016-07-09T16:09:24Z</time><pdop>8.0</pdop><geoidheight>50.80</geoidheight><course>176.94412</course><type>1</type></trkpt>
      <trkpt lat="39.27653269440047" lon="-5.740517102705395"><ele>2899</ele><speed>11.92</speed><time>2016-07-09T16:09:25Z</time><pdop>8.0</pdop><geoidheight>50.80</geoidheight><course>209.12592</course><type>1</type></trkpt>
      <trkpt lat="39.276403331050496" lon="-5.74072186619706"><ele>2902</ele><speed>12.14</speed><time>2016-07-09T16:09:27Z</time><pdop>6.0</pdop><geoidheight>50.80</geoidheight><course>242.48248</course><type>1</type></trkpt>
      <trkpt lat="39.27637432967658" lon="-5.740861357818265"><ele>2904</ele><speed>12.25</speed><time>2016-07-09T16:09:29Z</time><pdop>6.0</pdop><geoidheight>50.80</geoidheight><course>259.81638</course><type>1</type></trkpt>
      <trkpt lat="39.276356945840014" lon="-5.741027833091139"><ele>2905</ele><speed>12.72</speed><time>2016-07-09T16:09:30Z</time><pdop>6.0</pdop><geoidheight>50.80</geoidheight><course>263.6099</course><type>1</type></trkpt>
      <trkpt lat="39.27643185493056" lon="-5.741293477444106"><ele>2907</ele><speed>12.80</speed><time>2016-07-09T16:09:31Z</time><pdop>8.0</pdop><geoidheight>50.80</geoidheight><course>293.5574</course><type>1</type></trkpt>
      <trkpt lat="39.276597527336904" lon="-5.741457888742515"><ele>2909</ele><speed>12.68</speed><time>2016-07-09T16:09:33Z</time><pdop>8.0</pdop><geoidheight>50.80</geoidheight><course>330.14148</course><type>1</type></trkpt>
      <trkpt lat="39.27679825451493" lon="-5.741510747396111"><ele>2910</ele><speed>11.16</speed><time>2016-07-09T16:09:35Z</time><pdop>8.0</pdop><geoidheight>50.80</geoidheight><course>2.570201</course><type>1</type></trkpt>
      <trkpt lat="39.276944896550006" lon="-5.7414316284662075"><ele>2911</ele><speed>7.21</speed><time>2016-07-09T16:09:37Z</time><pdop>6.0</pdop><geoidheight>50.80</geoidheight><course>28.51083</course><type>1</type></trkpt>
      <trkpt lat="39.27702898847693" lon="-5.741319934251362"><ele>2914</ele><speed>6.30</speed><time>2016-07-09T16:09:39Z</time><pdop>6.0</pdop><geoidheight>50.80</geoidheight><course>46.81802</course><type>1</type></trkpt>
      <trkpt lat="39.277066186592975" lon="-5.741184112645674"><ele>2917</ele><speed>7.32</speed><time>2016-07-09T16:09:42Z</time><pdop>6.0</pdop><geoidheight>50.80</geoidheight><course>76.05841</course><type>1</type></trkpt>
      <trkpt lat="39.27705382609956" lon="-5.741009174754491"><ele>2919</ele><speed>8.31</speed><time>2016-07-09T16:09:43Z</time><pdop>6.0</pdop><geoidheight>50.80</geoidheight><course>107.37665</course><type>1</type></trkpt>
      <trkpt lat="39.2770114431132" lon="-5.740853976633268"><ele>2922</ele><speed>6.39</speed><time>2016-07-09T16:09:45Z</time><pdop>6.0</pdop><geoidheight>50.80</geoidheight><course>113.8486</course><type>1</type></trkpt>
      <trkpt lat="39.27695638330127" lon="-5.740730980573857"><ele>2925</ele><speed>6.07</speed><time>2016-07-09T16:09:47Z</time><pdop>6.0</pdop><geoidheight>50.80</geoidheight><course>120.32163</course><type>1</type></trkpt>
      <trkpt lat="39.276885317590484" lon="-5.7406085983060535"><ele>2927</ele><speed>8.17</speed><time>2016-07-09T16:09:50Z</time><pdop>4.0</pdop><geoidheight>50.80</geoidheight><course>125.409035</course><type>1</type></trkpt>
      <trkpt lat="39.27678326863175" lon="-5.740467944936525"><ele>2928</ele><speed>8.13</speed><time>2016-07-09T16:09:51Z</time><pdop>8.0</pdop><geoidheight>50.80</geoidheight><course>132.47801</course><type>1</type></trkpt>
      <trkpt lat="39.276623688150664" lon="-5.740310335119004"><ele>2931</ele><speed>6.83</speed><time>2016-07-09T16:09:55Z</time><pdop>6.0</pdop><geoidheight>50.80</geoidheight><course>142.16493</course><type>1</type></trkpt>
      <trkpt lat="39.2764986750318" lon="-5.740207042146583"><ele>2933</ele><speed>8.75</speed><time>2016-07-09T16:09:56Z</time><pdop>6.0</pdop><geoidheight>50.80</geoidheight><course>144.91533</course><type>1</type></trkpt>
      <trkpt lat="39.27634847473365" lon="-5.740075500409054"><ele>2935</ele><speed>9.18</speed><time>2016-07-09T16:09:58Z</time><pdop>8.0</pdop><geoidheight>50.80</geoidheight><course>146.1136</course><type>1</type></trkpt>
      <trkpt lat="39.27621505688041" lon="-5.739957829723341"><ele>2936</ele><speed>8.41</speed><time>2016-07-09T16:10:00Z</time><pdop>6.0</pdop><geoidheight>50.80</geoidheight><course>147.20905</course><type>1</type></trkpt>
      <trkpt lat="39.27607515518282" lon="-5.739852860263881"><ele>2938</ele><speed>9.63</speed><time>2016-07-09T16:10:02Z</time><pdop>6.0</pdop><geoidheight>50.80</geoidheight><course>149.99942</course><type>1</type></trkpt>
      <trkpt lat="39.275920509043736" lon="-5.739748337433184"><ele>2939</ele><speed>9.91</speed><time>2016-07-09T16:10:04Z</time><pdop>8.0</pdop><geoidheight>50.80</geoidheight><course>150.52599</course><type>1</type></trkpt>
      <trkpt lat="39.27577309537984" lon="-5.739641477155172"><ele>2940</ele><speed>9.28</speed><time>2016-07-09T16:10:06Z</time><pdop>8.0</pdop><geoidheight>50.80</geoidheight><course>149.15971</course><type>1</type></trkpt>
      <trkpt lat="39.275620564151495" lon="-5.739535965173687"><ele>2941</ele><speed>10.13</speed><time>2016-07-09T16:10:08Z</time><pdop>8.0</pdop><geoidheight>50.80</geoidheight><course>151.48843</course><type>1</type></trkpt>
      <trkpt lat="39.27542979216564" lon="-5.739420337493235"><ele>2941</ele><speed>11.85</speed><time>2016-07-09T16:10:10Z</time><pdop>6.0</pdop><geoidheight>50.80</geoidheight><course>154.45268</course><type>1</type></trkpt>
      <trkpt lat="39.27532893060179" lon="-5.739354667670975"><ele>2941</ele><speed>11.45</speed><time>2016-07-09T16:10:11Z</time><pdop>6.0</pdop><geoidheight>50.80</geoidheight><course>153.38068</course><type>1</type></trkpt>
      <trkpt lat="39.27516368039866" lon="-5.739231534983287"><ele>2942</ele><speed>9.82</speed><time>2016-07-09T16:10:13Z</time><pdop>6.0</pdop><geoidheight>50.80</geoidheight><course>149.64305</course><type>1</type></trkpt>
      <trkpt lat="39.27501780128766" lon="-5.739115936127132"><ele>2942</ele><speed>10.21</speed><time>2016-07-09T16:10:15Z</time><pdop>6.0</pdop><geoidheight>50.80</geoidheight><course>149.52905</course><type>1</type></trkpt>
      <trkpt lat="39.27484982064394" lon="-5.738971664231599"><ele>2943</ele><speed>12.01</speed><time>2016-07-09T16:10:17Z</time><pdop>4.0</pdop><geoidheight>50.80</geoidheight><course>146.37894</course><type>1</type></trkpt>
      <trkpt lat="39.274767072425135" lon="-5.738888662300513"><ele>2943</ele><speed>11.85</speed><time>2016-07-09T16:10:18Z</time><pdop>6.0</pdop><geoidheight>50.80</geoidheight><course>144.12431</course><type>1</type></trkpt>
      <trkpt lat="39.27461452829023" lon="-5.738731859704488"><ele>2945</ele><speed>10.14</speed><time>2016-07-09T16:10:20Z</time><pdop>6.0</pdop><geoidheight>50.80</geoidheight><course>145.06557</course><type>1</type></trkpt>
      <trkpt lat="39.27445470764142" lon="-5.738605815884708"><ele>2947</ele><speed>10.76</speed><time>2016-07-09T16:10:22Z</time><pdop>12.0</pdop><geoidheight>50.80</geoidheight><course>148.53532</course><type>1</type></trkpt>
      <trkpt lat="39.27427536287466" lon="-5.73846611488463"><ele>2948</ele><speed>11.78</speed><time>2016-07-09T16:10:24Z</time><pdop>4.0</pdop><geoidheight>50.80</geoidheight><course>149.63611</course><type>1</type></trkpt>
      <trkpt lat="39.27418501928757" lon="-5.738395425872458"><ele>2950</ele><speed>11.59</speed><time>2016-07-09T16:10:25Z</time><pdop>4.0</pdop><geoidheight>50.80</geoidheight><course>148.67348</course><type>1</type></trkpt>
      <trkpt lat="39.27403113427319" lon="-5.738277640119753"><ele>2952</ele><speed>8.91</speed><time>2016-07-09T16:10:27Z</time><pdop>6.0</pdop><geoidheight>50.80</geoidheight><course>149.83661</course><type>1</type></trkpt>
      <trkpt lat="39.27388903226643" lon="-5.738166762890886"><ele>2954</ele><speed>8.85</speed><time>2016-07-09T16:10:29Z</time><pdop>6.0</pdop><geoidheight>50.80</geoidheight><course>148.7212</course><type>1</type></trkpt>
      <trkpt lat="39.27381422113411" lon="-5.738101233409492"><ele>2956</ele><speed>9.43</speed><time>2016-07-09T16:10:30Z</time><pdop>4.0</pdop><geoidheight>50.80</geoidheight><course>147.93036</course><type>1</type></trkpt>
      <trkpt lat="39.27367752843102" lon="-5.737974354305327"><ele>2959</ele><speed>10.01</speed><time>2016-07-09T16:10:32Z</time><pdop>6.0</pdop><geoidheight>50.80</geoidheight><course>144.62776</course><type>1</type></trkpt>
      <trkpt lat="39.2735394932199" lon="-5.73783568549477"><ele>2961</ele><speed>9.65</speed><time>2016-07-09T16:10:35Z</time><pdop>8.0</pdop><geoidheight>50.80</geoidheight><course>144.11147</course><type>1</type></trkpt>
      <trkpt lat="39.27339683383446" lon="-5.737712497815723"><ele>2964</ele><speed>9.02</speed><time>2016-07-09T16:10:36Z</time><pdop>6.0</pdop><geoidheight>50.80</geoidheight><course>148.30733</course><type>1</type></trkpt>
      <trkpt lat="39.273249586366944" lon="-5.737603724980987"><ele>2966</ele><speed>8.97</speed><time>2016-07-09T16:10:38Z</time><pdop>6.0</pdop><geoidheight>50.80</geoidheight><course>150.79591</course><type>1</type></trkpt>
      <trkpt lat="39.27307729601812" lon="-5.737448488504733"><ele>2969</ele><speed>9.21</speed><time>2016-07-09T16:10:40Z</time><pdop>4.0</pdop><geoidheight>50.80</geoidheight><course>152.30132</course><type>1</type></trkpt>
      <trkpt lat="39.2729925432056" lon="-5.737370996433877"><ele>2971</ele><speed>9.78</speed><time>2016-07-09T16:10:41Z</time><pdop>4.0</pdop><geoidheight>50.80</geoidheight><course>152.38156</course><type>1</type></trkpt>
      <trkpt lat="39.27291399297045" lon="-5.737309230754705"><ele>2973</ele><speed>9.30</speed><time>2016-07-09T16:10:42Z</time><pdop>4.0</pdop><geoidheight>50.80</geoidheight><course>153.381</course><type>1</type></trkpt>
      <trkpt lat="39.272844004532224" lon="-5.737252401986158"><ele>2974</ele><speed>8.92</speed><time>2016-07-09T16:10:43Z</time><pdop>4.0</pdop><geoidheight>50.80</geoidheight><course>152.08725</course><type>1</type></trkpt>
      <trkpt lat="39.27271487373505" lon="-5.737138350340796"><ele>2977</ele><speed>9.72</speed><time>2016-07-09T16:10:45Z</time><pdop>6.0</pdop><geoidheight>50.80</geoidheight><course>147.29851</course><type>1</type></trkpt>
      <trkpt lat="39.272562259344866" lon="-5.736988218323068"><ele>2979</ele><speed>9.67</speed><time>2016-07-09T16:10:47Z</time><pdop>6.0</pdop><geoidheight>50.80</geoidheight><course>146.37527</course><type>1</type></trkpt>
      <trkpt lat="39.27242688371368" lon="-5.736872154301758"><ele>2981</ele><speed>8.54</speed><time>2016-07-09T16:10:49Z</time><pdop>6.0</pdop><geoidheight>50.80</geoidheight><course>149.79292</course><type>1</type></trkpt>
      <trkpt lat="39.272272261217324" lon="-5.736805065166267"><ele>2983</ele><speed>10.00</speed><time>2016-07-09T16:10:51Z</time><pdop>6.0</pdop><geoidheight>50.80</geoidheight><course>165.67606</course><type>1</type></trkpt>
      <trkpt lat="39.27208546479512" lon="-5.736765070790664"><ele>2986</ele><speed>11.65</speed><time>2016-07-09T16:10:53Z</time><pdop>6.0</pdop><geoidheight>50.80</geoidheight><course>172.48114</course><type>1</type></trkpt>
      <trkpt lat="39.27186480645956" lon="-5.736818407698432"><ele>2988</ele><speed>12.25</speed><time>2016-07-09T16:10:56Z</time><pdop>6.0</pdop><geoidheight>50.80</geoidheight><course>192.904</course><type>1</type></trkpt>
      <trkpt lat="39.27176013840437" lon="-5.7368739736619565"><ele>2989</ele><speed>12.56</speed><time>2016-07-09T16:10:57Z</time><pdop>6.0</pdop><geoidheight>50.80</geoidheight><course>205.65953</course><type>1</type></trkpt>
      <trkpt lat="39.2716548495541" lon="-5.736939204453527"><ele>2990</ele><speed>13.03</speed><time>2016-07-09T16:10:58Z</time><pdop>4.0</pdop><geoidheight>50.80</geoidheight><course>207.76523</course><type>1</type></trkpt>
      <trkpt lat="39.27155682051018" lon="-5.737008546143334"><ele>2991</ele><speed>13.13</speed><time>2016-07-09T16:10:58Z</time><pdop>4.0</pdop><geoidheight>50.80</geoidheight><course>209.8989</course><type>1</type></trkpt>
      <trkpt lat="39.271459121472766" lon="-5.737081386326621"><ele>2991</ele><speed>12.24</speed><time>2016-07-09T16:10:59Z</time><pdop>4.0</pdop><geoidheight>50.80</geoidheight><course>210.76726</course><type>1</type></trkpt>
      <trkpt lat="39.27136780441545" lon="-5.737153841904509"><ele>2992</ele><speed>11.13</speed><time>2016-07-09T16:11:01Z</time><pdop>4.0</pdop><geoidheight>50.80</geoidheight><course>211.40645</course><type>1</type></trkpt>
      <trkpt lat="39.2712700922373" lon="-5.737233036160829"><ele>2993</ele><speed>11.27</speed><time>2016-07-09T16:11:02Z</time><pdop>6.0</pdop><geoidheight>50.80</geoidheight><course>212.30481</course><type>1</type></trkpt>
      <trkpt lat="39.27109045190335" lon="-5.737387005192645"><ele>2995</ele><speed>11.45</speed><time>2016-07-09T16:11:03Z</time><pdop>6.0</pdop><geoidheight>50.80</geoidheight><course>213.54575</course><type>1</type></trkpt>
      <trkpt lat="39.271002442346465" lon="-5.73747047531677"><ele>2995</ele><speed>11.63</speed><time>2016-07-09T16:11:04Z</time><pdop>6.0</pdop><geoidheight>50.80</geoidheight><course>215.05748</course><type>1</type></trkpt>
      <trkpt lat="39.270913697340674" lon="-5.737560839648031"><ele>2996</ele><speed>12.16</speed><time>2016-07-09T16:11:05Z</time><pdop>4.0</pdop><geoidheight>50.80</geoidheight><course>216.95471</course><type>1</type></trkpt>
      <trkpt lat="39.27082767344113" lon="-5.7376498774265885"><ele>2996</ele><speed>12.22</speed><time>2016-07-09T16:11:06Z</time><pdop>4.0</pdop><geoidheight>50.80</geoidheight><course>217.8923</course><type>1</type></trkpt>
      <trkpt lat="39.27075080788256" lon="-5.737736012532537"><ele>2996</ele><speed>11.85</speed><time>2016-07-09T16:11:07Z</time><pdop>6.0</pdop><geoidheight>50.80</geoidheight><course>218.81613</course><type>1</type></trkpt>
      <trkpt lat="39.27060218762274" lon="-5.737925658331689"><ele>2997</ele><speed>12.00</speed><time>2016-07-09T16:11:09Z</time><pdop>6.0</pdop><geoidheight>50.80</geoidheight><course>223.65689</course><type>1</type></trkpt>
      <trkpt lat="39.27052633173101" lon="-5.738034793023331"><ele>2997</ele><speed>12.51</speed><time>2016-07-09T16:11:10Z</time><pdop>6.0</pdop><geoidheight>50.80</geoidheight><course>225.24324</course><type>1</type></trkpt>
      <trkpt lat="39.270452156150036" lon="-5.738146208438578"><ele>2997</ele><speed>12.63</speed><time>2016-07-09T16:11:11Z</time><pdop>6.0</pdop><geoidheight>50.80</geoidheight><course>226.43452</course><type>1</type></trkpt>
      <trkpt lat="39.2703776851985" lon="-5.7382669622018"><ele>2997</ele><speed>12.64</speed><time>2016-07-09T16:11:12Z</time><pdop>6.0</pdop><geoidheight>50.80</geoidheight><course>228.97314</course><type>1</type></trkpt>
      <trkpt lat="39.27032661821733" lon="-5.738397761050485"><ele>2997</ele><speed>12.68</speed><time>2016-07-09T16:11:13Z</time><pdop>6.0</pdop><geoidheight>50.80</geoidheight><course>241.96584</course><type>1</type></trkpt>
      <trkpt lat="39.27027637400806" lon="-5.73853540397089"><ele>2997</ele><speed>12.65</speed><time>2016-07-09T16:11:14Z</time><pdop>6.0</pdop><geoidheight>50.80</geoidheight><course>244.08179</course><type>1</type></trkpt>
      <trkpt lat="39.27023336308001" lon="-5.738672818936728"><ele>2996</ele><speed>12.54</speed><time>2016-07-09T16:11:15Z</time><pdop>6.0</pdop><geoidheight>50.80</geoidheight><course>246.37508</course><type>1</type></trkpt>
      <trkpt lat="39.2701941096901" lon="-5.73880985950536"><ele>2996</ele><speed>12.59</speed><time>2016-07-09T16:11:16Z</time><pdop>6.0</pdop><geoidheight>50.80</geoidheight><course>247.62701</course><type>1</type></trkpt>
      <trkpt lat="39.270158208354005" lon="-5.738942418074242"><ele>2995</ele><speed>13.00</speed><time>2016-07-09T16:11:17Z</time><pdop>6.0</pdop><geoidheight>50.80</geoidheight><course>248.31235</course><type>1</type></trkpt>
      <trkpt lat="39.27012255447232" lon="-5.739085205243369"><ele>2994</ele><speed>13.45</speed><time>2016-07-09T16:11:18Z</time><pdop>6.0</pdop><geoidheight>50.80</geoidheight><course>249.05832</course><type>1</type></trkpt>
      <trkpt lat="39.270086425215645" lon="-5.73923698087255"><ele>2993</ele><speed>13.97</speed><time>2016-07-09T16:11:19Z</time><pdop>6.0</pdop><geoidheight>50.80</geoidheight><course>250.21661</course><type>1</type></trkpt>
      <trkpt lat="39.27005111322901" lon="-5.739384325693023"><ele>2993</ele><speed>13.92</speed><time>2016-07-09T16:11:20Z</time><pdop>6.0</pdop><geoidheight>50.80</geoidheight><course>251.78813</course><type>1</type></trkpt>
      <trkpt lat="39.27001775540271" lon="-5.739540777133994"><ele>2992</ele><speed>13.31</speed><time>2016-07-09T16:11:21Z</time><pdop>6.0</pdop><geoidheight>50.80</geoidheight><course>253.33286</course><type>1</type></trkpt>
      <trkpt lat="39.26998875880775" lon="-5.739694334902692"><ele>2992</ele><speed>12.63</speed><time>2016-07-09T16:11:22Z</time><pdop>6.0</pdop><geoidheight>50.80</geoidheight><course>254.64868</course><type>1</type></trkpt>
      <trkpt lat="39.269960889858645" lon="-5.7398417287560015"><ele>2992</ele><speed>12.15</speed><time>2016-07-09T16:11:23Z</time><pdop>6.0</pdop><geoidheight>50.80</geoidheight><course>254.13214</course><type>1</type></trkpt>
      <trkpt lat="39.26992748282162" lon="-5.739983127440684"><ele>2992</ele><speed>12.12</speed><time>2016-07-09T16:11:24Z</time><pdop>6.0</pdop><geoidheight>50.80</geoidheight><course>251.8553</course><type>1</type></trkpt>
      <trkpt lat="39.26984631286059" lon="-5.740261702288908"><ele>2992</ele><speed>13.90</speed><time>2016-07-09T16:11:26Z</time><pdop>8.0</pdop><geoidheight>50.80</geoidheight><course>248.38194</course><type>1</type></trkpt>
      <trkpt lat="39.269765350283016" lon="-5.7405351372158595"><ele>2991</ele><speed>12.42</speed><time>2016-07-09T16:11:28Z</time><pdop>6.0</pdop><geoidheight>50.80</geoidheight><course>249.46596</course><type>1</type></trkpt>
      <trkpt lat="39.26969526896425" lon="-5.740784474090902"><ele>2991</ele><speed>10.98</speed><time>2016-07-09T16:11:30Z</time><pdop>6.0</pdop><geoidheight>50.80</geoidheight><course>249.7443</course><type>1</type></trkpt>
      <trkpt lat="39.26961845468174" lon="-5.741052802489526"><ele>2991</ele><speed>13.07</speed><time>2016-07-09T16:11:32Z</time><pdop>6.0</pdop><geoidheight>50.80</geoidheight><course>250.15471</course><type>1</type></trkpt>
      <trkpt lat="39.269578528786305" lon="-5.741197129643557"><ele>2991</ele><speed>13.88</speed><time>2016-07-09T16:11:33Z</time><pdop>6.0</pdop><geoidheight>50.80</geoidheight><course>250.86143</course><type>1</type></trkpt>
      <trkpt lat="39.26954216584722" lon="-5.741341933066187"><ele>2990</ele><speed>13.56</speed><time>2016-07-09T16:11:34Z</time><pdop>6.0</pdop><geoidheight>50.80</geoidheight><course>251.80925</course><type>1</type></trkpt>
      <trkpt lat="39.26950757506689" lon="-5.741482971273666"><ele>2989</ele><speed>12.38</speed><time>2016-07-09T16:11:35Z</time><pdop>6.0</pdop><geoidheight>50.80</geoidheight><course>252.76857</course><type>1</type></trkpt>
      <trkpt lat="39.269479978083" lon="-5.7416122089232235"><ele>2989</ele><speed>11.17</speed><time>2016-07-09T16:11:36Z</time><pdop>4.0</pdop><geoidheight>50.80</geoidheight><course>253.65575</course><type>1</type></trkpt>
      <trkpt lat="39.26945231540101" lon="-5.7417361677332135"><ele>2988</ele><speed>11.01</speed><time>2016-07-09T16:11:37Z</time><pdop>4.0</pdop><geoidheight>50.80</geoidheight><course>252.69603</course><type>1</type></trkpt>
      <trkpt lat="39.26941862648935" lon="-5.7418655766510875"><ele>2988</ele><speed>11.88</speed><time>2016-07-09T16:11:38Z</time><pdop>4.0</pdop><geoidheight>50.80</geoidheight><course>251.6034</course><type>1</type></trkpt>
      <trkpt lat="39.26938134736821" lon="-5.742006369226122"><ele>2987</ele><speed>13.31</speed><time>2016-07-09T16:11:39Z</time><pdop>4.0</pdop><geoidheight>50.80</geoidheight><course>251.98965</course><type>1</type></trkpt>
      <trkpt lat="39.2693447574508" lon="-5.742160179352032"><ele>2987</ele><speed>14.31</speed><time>2016-07-09T16:11:40Z</time><pdop>6.0</pdop><geoidheight>50.80</geoidheight><course>252.97954</course><type>1</type></trkpt>
      <trkpt lat="39.26931210503912" lon="-5.742314890722427"><ele>2986</ele><speed>13.95</speed><time>2016-07-09T16:11:41Z</time><pdop>6.0</pdop><geoidheight>50.80</geoidheight><course>254.3559</course><type>1</type></trkpt>
      <trkpt lat="39.26928171358585" lon="-5.742464881549749"><ele>2986</ele><speed>12.91</speed><time>2016-07-09T16:11:42Z</time><pdop>6.0</pdop><geoidheight>50.80</geoidheight><course>255.17009</course><type>1</type></trkpt>
      <trkpt lat="39.269253658390916" lon="-5.742605630000932"><ele>2985</ele><speed>12.08</speed><time>2016-07-09T16:11:43Z</time><pdop>6.0</pdop><geoidheight>50.80</geoidheight><course>254.60753</course><type>1</type></trkpt>
      <trkpt lat="39.269228420661285" lon="-5.74273422769998"><ele>2985</ele><speed>11.87</speed><time>2016-07-09T16:11:44Z</time><pdop>4.0</pdop><geoidheight>50.80</geoidheight><course>253.87729</course><type>1</type></trkpt>
      <trkpt lat="39.269197053954585" lon="-5.742880622344862"><ele>2984</ele><speed>13.18</speed><time>2016-07-09T16:11:45Z</time><pdop>4.0</pdop><geoidheight>50.80</geoidheight><course>253.72864</course><type>1</type></trkpt>
      <trkpt lat="39.269165343412276" lon="-5.743028747149615"><ele>2984</ele><speed>13.31</speed><time>2016-07-09T16:11:46Z</time><pdop>4.0</pdop><geoidheight>50.80</geoidheight><course>254.1584</course><type>1</type></trkpt>
      <trkpt lat="39.26913347293068" lon="-5.743176395459137"><ele>2983</ele><speed>12.79</speed><time>2016-07-09T16:11:47Z</time><pdop>4.0</pdop><geoidheight>50.80</geoidheight><course>254.95352</course><type>1</type></trkpt>
      <trkpt lat="39.269100583723024" lon="-5.7433231652562755"><ele>2983</ele><speed>12.50</speed><time>2016-07-09T16:11:48Z</time><pdop>6.0</pdop><geoidheight>50.80</geoidheight><course>254.13943</course><type>1</type></trkpt>
      <trkpt lat="39.269064777342244" lon="-5.743467019598198"><ele>2982</ele><speed>12.88</speed><time>2016-07-09T16:11:49Z</time><pdop>6.0</pdop><geoidheight>50.80</geoidheight><course>252.98927</course><type>1</type></trkpt>
      <trkpt lat="39.26902787843995" lon="-5.743613480291213"><ele>2982</ele><speed>13.45</speed><time>2016-07-09T16:11:50Z</time><pdop>6.0</pdop><geoidheight>50.80</geoidheight><course>252.54797</course><type>1</type></trkpt>
      <trkpt lat="39.26899068238661" lon="-5.743762948321198"><ele>2981</ele><speed>13.69</speed><time>2016-07-09T16:11:51Z</time><pdop>6.0</pdop><geoidheight>50.80</geoidheight><course>253.00696</course><type>1</type></trkpt>
      <trkpt lat="39.26895542991143" lon="-5.743915776736983"><ele>2981</ele><speed>13.48</speed><time>2016-07-09T16:11:52Z</time><pdop>6.0</pdop><geoidheight>50.80</geoidheight><course>253.99234</course><type>1</type></trkpt>
      <trkpt lat="39.268922542239096" lon="-5.744064130933669"><ele>2980</ele><speed>12.87</speed><time>2016-07-09T16:11:53Z</time><pdop>6.0</pdop><geoidheight>50.80</geoidheight><course>254.42876</course><type>1</type></trkpt>
      <trkpt lat="39.268891784647124" lon="-5.744205480536916"><ele>2980</ele><speed>12.39</speed><time>2016-07-09T16:11:54Z</time><pdop>6.0</pdop><geoidheight>50.80</geoidheight><course>253.64412</course><type>1</type></trkpt>
      <trkpt lat="39.268860799594556" lon="-5.744343942782919"><ele>2980</ele><speed>12.48</speed><time>2016-07-09T16:11:55Z</time><pdop>6.0</pdop><geoidheight>50.80</geoidheight><course>253.20279</course><type>1</type></trkpt>
      <trkpt lat="39.26882903115659" lon="-5.744484184311478"><ele>2979</ele><speed>12.93</speed><time>2016-07-09T16:11:56Z</time><pdop>6.0</pdop><geoidheight>50.80</geoidheight><course>253.36409</course><type>1</type></trkpt>
      <trkpt lat="39.2687933585532" lon="-5.744630665386175"><ele>2979</ele><speed>13.34</speed><time>2016-07-09T16:11:57Z</time><pdop>6.0</pdop><geoidheight>50.80</geoidheight><course>252.58046</course><type>1</type></trkpt>
      <trkpt lat="39.26875761884523" lon="-5.744777354669912"><ele>2979</ele><speed>13.30</speed><time>2016-07-09T16:11:58Z</time><pdop>6.0</pdop><geoidheight>50.80</geoidheight><course>252.11859</course><type>1</type></trkpt>
      <trkpt lat="39.26872120296536" lon="-5.744917460789948"><ele>2979</ele><speed>12.61</speed><time>2016-07-09T16:11:59Z</time><pdop>6.0</pdop><geoidheight>50.80</geoidheight><course>251.4839</course><type>1</type></trkpt>
      <trkpt lat="39.268686100245596" lon="-5.745052601313272"><ele>2980</ele><speed>12.06</speed><time>2016-07-09T16:12:00Z</time><pdop>6.0</pdop><geoidheight>50.80</geoidheight><course>251.74762</course><type>1</type></trkpt>
      <trkpt lat="39.26862103102528" lon="-5.745306300150861"><ele>2980</ele><speed>11.52</speed><time>2016-07-09T16:12:02Z</time><pdop>6.0</pdop><geoidheight>50.80</geoidheight><course>251.19666</course><type>1</type></trkpt>
      <trkpt lat="39.268557716626646" lon="-5.745577374250275"><ele>2980</ele><speed>13.00</speed><time>2016-07-09T16:12:04Z</time><pdop>6.0</pdop><geoidheight>50.80</geoidheight><course>253.46407</course><type>1</type></trkpt>
      <trkpt lat="39.26852553836809" lon="-5.745729533205712"><ele>2979</ele><speed>13.99</speed><time>2016-07-09T16:12:05Z</time><pdop>6.0</pdop><geoidheight>50.80</geoidheight><course>253.94626</course><type>1</type></trkpt>
      <trkpt lat="39.26848893096627" lon="-5.745892971887094"><ele>2977</ele><speed>14.43</speed><time>2016-07-09T16:12:06Z</time><pdop>6.0</pdop><geoidheight>50.80</geoidheight><course>253.26334</course><type>1</type></trkpt>
      <trkpt lat="39.268449786581805" lon="-5.74604780219099"><ele>2976</ele><speed>13.72</speed><time>2016-07-09T16:12:07Z</time><pdop>6.0</pdop><geoidheight>50.80</geoidheight><course>252.05989</course><type>1</type></trkpt>
      <trkpt lat="39.26841273652247" lon="-5.746190281461061"><ele>2975</ele><speed>12.62</speed><time>2016-07-09T16:12:08Z</time><pdop>6.0</pdop><geoidheight>50.80</geoidheight><course>251.53043</course><type>1</type></trkpt>
      <trkpt lat="39.26837675722016" lon="-5.746327925142127"><ele>2974</ele><speed>12.31</speed><time>2016-07-09T16:12:09Z</time><pdop>6.0</pdop><geoidheight>50.80</geoidheight><course>252.0347</course><type>1</type></trkpt>
      <trkpt lat="39.268340206335985" lon="-5.7464685508392"><ele>2973</ele><speed>12.85</speed><time>2016-07-09T16:12:10Z</time><pdop>6.0</pdop><geoidheight>50.80</geoidheight><course>251.4236</course><type>1</type></trkpt>
      <trkpt lat="39.268302107402086" lon="-5.746615908389029"><ele>2972</ele><speed>13.68</speed><time>2016-07-09T16:12:11Z</time><pdop>6.0</pdop><geoidheight>50.80</geoidheight><course>251.65038</course><type>1</type></trkpt>
      <trkpt lat="39.26826281915236" lon="-5.746769152272289"><ele>2970</ele><speed>14.12</speed><time>2016-07-09T16:12:12Z</time><pdop>6.0</pdop><geoidheight>50.80</geoidheight><course>252.08905</course><type>1</type></trkpt>
      <trkpt lat="39.26822681657848" lon="-5.746923817405928"><ele>2968</ele><speed>13.98</speed><time>2016-07-09T16:12:13Z</time><pdop>6.0</pdop><geoidheight>50.80</geoidheight><course>253.20822</course><type>1</type></trkpt>
      <trkpt lat="39.26819504890796" lon="-5.7470788096494605"><ele>2967</ele><speed>13.53</speed><time>2016-07-09T16:12:14Z</time><pdop>6.0</pdop><geoidheight>50.80</geoidheight><course>254.68787</course><type>1</type></trkpt>
      <trkpt lat="39.268167805659566" lon="-5.747224882756615"><ele>2966</ele><speed>13.10</speed><time>2016-07-09T16:12:15Z</time><pdop>6.0</pdop><geoidheight>50.80</geoidheight><course>255.65833</course><type>1</type></trkpt>
      <trkpt lat="39.26814053837502" lon="-5.747371087402773"><ele>2965</ele><speed>12.93</speed><time>2016-07-09T16:12:16Z</time><pdop>6.0</pdop><geoidheight>50.80</geoidheight><course>255.49173</course><type>1</type></trkpt>
      <trkpt lat="39.26811237965187" lon="-5.74751578939351"><ele>2963</ele><speed>13.05</speed><time>2016-07-09T16:12:17Z</time><pdop>6.0</pdop><geoidheight>50.80</geoidheight><course>254.5185</course><type>1</type></trkpt>
      <trkpt lat="39.26807718659535" lon="-5.747665403322417"><ele>2962</ele><speed>13.33</speed><time>2016-07-09T16:12:18Z</time><pdop>6.0</pdop><geoidheight>50.80</geoidheight><course>253.06465</course><type>1</type></trkpt>
      <trkpt lat="39.26803806939116" lon="-5.747811614977524"><ele>2961</ele><speed>13.58</speed><time>2016-07-09T16:12:19Z</time><pdop>6.0</pdop><geoidheight>50.80</geoidheight><course>251.6133</course><type>1</type></trkpt>
      <trkpt lat="39.267998315363535" lon="-5.747955708890165"><ele>2959</ele><speed>13.43</speed><time>2016-07-09T16:12:20Z</time><pdop>6.0</pdop><geoidheight>50.80</geoidheight><course>250.77626</course><type>1</type></trkpt>
      <trkpt lat="39.26795637242409" lon="-5.748100244937833"><ele>2958</ele><speed>13.54</speed><time>2016-07-09T16:12:21Z</time><pdop>6.0</pdop><geoidheight>50.80</geoidheight><course>250.55267</course><type>1</type></trkpt>
      <trkpt lat="39.26791429425071" lon="-5.7482485392939635"><ele>2956</ele><speed>13.92</speed><time>2016-07-09T16:12:22Z</time><pdop>6.0</pdop><geoidheight>50.80</geoidheight><course>251.22041</course><type>1</type></trkpt>
      <trkpt lat="39.26787219625652" lon="-5.748399882504583"><ele>2954</ele><speed>14.15</speed><time>2016-07-09T16:12:23Z</time><pdop>6.0</pdop><geoidheight>50.80</geoidheight><course>251.3577</course><type>1</type></trkpt>
      <trkpt lat="39.26783275327323" lon="-5.748553441261884"><ele>2953</ele><speed>14.26</speed><time>2016-07-09T16:12:24Z</time><pdop>6.0</pdop><geoidheight>50.80</geoidheight><course>251.83368</course><type>1</type></trkpt>
      <trkpt lat="39.267795426870336" lon="-5.748702091313661"><ele>2951</ele><speed>13.63</speed><time>2016-07-09T16:12:25Z</time><pdop>6.0</pdop><geoidheight>50.80</geoidheight><course>252.35004</course><type>1</type></trkpt>
      <trkpt lat="39.26776161012524" lon="-5.748846543564847"><ele>2949</ele><speed>13.12</speed><time>2016-07-09T16:12:26Z</time><pdop>6.0</pdop><geoidheight>50.80</geoidheight><course>252.9348</course><type>1</type></trkpt>
      <trkpt lat="39.26773132380016" lon="-5.748981891146973"><ele>2947</ele><speed>12.86</speed><time>2016-07-09T16:12:27Z</time><pdop>6.0</pdop><geoidheight>50.80</geoidheight><course>253.30293</course><type>1</type></trkpt>
      <trkpt lat="39.26770207901387" lon="-5.749120967533882"><ele>2945</ele><speed>13.11</speed><time>2016-07-09T16:12:28Z</time><pdop>6.0</pdop><geoidheight>50.80</geoidheight><course>254.142</course><type>1</type></trkpt>
      <trkpt lat="39.267671668030914" lon="-5.7492616462919495"><ele>2942</ele><speed>13.51</speed><time>2016-07-09T16:12:29Z</time><pdop>6.0</pdop><geoidheight>50.80</geoidheight><course>253.74936</course><type>1</type></trkpt>
      <trkpt lat="39.2676371280936" lon="-5.749403733545198"><ele>2940</ele><speed>13.90</speed><time>2016-07-09T16:12:30Z</time><pdop>6.0</pdop><geoidheight>50.80</geoidheight><course>252.73323</course><type>1</type></trkpt>
      <trkpt lat="39.26759541139724" lon="-5.749556353001874"><ele>2937</ele><speed>13.75</speed><time>2016-07-09T16:12:31Z</time><pdop>6.0</pdop><geoidheight>50.80</geoidheight><course>251.49063</course><type>1</type></trkpt>
      <trkpt lat="39.267554780752455" lon="-5.74969473129135"><ele>2934</ele><speed>13.26</speed><time>2016-07-09T16:12:32Z</time><pdop>6.0</pdop><geoidheight>50.80</geoidheight><course>250.22366</course><type>1</type></trkpt>
      <trkpt lat="39.26751440128807" lon="-5.749830820889366"><ele>2932</ele><speed>12.76</speed><time>2016-07-09T16:12:33Z</time><pdop>6.0</pdop><geoidheight>50.80</geoidheight><course>249.88855</course><type>1</type></trkpt>
      <trkpt lat="39.26747651303078" lon="-5.749962198540934"><ele>2930</ele><speed>11.95</speed><time>2016-07-09T16:12:34Z</time><pdop>6.0</pdop><geoidheight>50.80</geoidheight><course>250.88272</course><type>1</type></trkpt>
      <trkpt lat="39.267412664284876" lon="-5.750224588133722"><ele>2926</ele><speed>12.03</speed><time>2016-07-09T16:12:36Z</time><pdop>6.0</pdop><geoidheight>50.80</geoidheight><course>252.72739</course><type>1</type></trkpt>
      <trkpt lat="39.267379971455796" lon="-5.7503577292895605"><ele>2924</ele><speed>12.30</speed><time>2016-07-09T16:12:37Z</time><pdop>6.0</pdop><geoidheight>50.80</geoidheight><course>251.76633</course><type>1</type></trkpt>
      <trkpt lat="39.2673126271051" lon="-5.750606957235546"><ele>2920</ele><speed>11.78</speed><time>2016-07-09T16:12:39Z</time><pdop>6.0</pdop><geoidheight>50.80</geoidheight><course>251.75365</course><type>1</type></trkpt>
      <trkpt lat="39.26728229246212" lon="-5.750736106788229"><ele>2918</ele><speed>11.54</speed><time>2016-07-09T16:12:40Z</time><pdop>4.0</pdop><geoidheight>50.80</geoidheight><course>253.01762</course><type>1</type></trkpt>
      <trkpt lat="39.267253624174394" lon="-5.750862726716169"><ele>2916</ele><speed>11.30</speed><time>2016-07-09T16:12:41Z</time><pdop>4.0</pdop><geoidheight>50.80</geoidheight><course>253.81602</course><type>1</type></trkpt>
      <trkpt lat="39.267226896585754" lon="-5.750981426956219"><ele>2914</ele><speed>10.62</speed><time>2016-07-09T16:12:42Z</time><pdop>4.0</pdop><geoidheight>50.80</geoidheight><course>253.122</course><type>1</type></trkpt>
      <trkpt lat="39.267197032911916" lon="-5.751093565871592"><ele>2912</ele><speed>10.16</speed><time>2016-07-09T16:12:43Z</time><pdop>4.0</pdop><geoidheight>50.80</geoidheight><course>250.94554</course><type>1</type></trkpt>
      <trkpt lat="39.26712745858438" lon="-5.751307683951827"><ele>2909</ele><speed>10.15</speed><time>2016-07-09T16:12:45Z</time><pdop>6.0</pdop><geoidheight>50.80</geoidheight><course>247.9075</course><type>1</type></trkpt>
      <trkpt lat="39.267054144360685" lon="-5.751536686415472"><ele>2906</ele><speed>11.10</speed><time>2016-07-09T16:12:47Z</time><pdop>6.0</pdop><geoidheight>50.80</geoidheight><course>249.13708</course><type>1</type></trkpt>
      <trkpt lat="39.26698172065659" lon="-5.751777158786752"><ele>2902</ele><speed>10.97</speed><time>2016-07-09T16:12:49Z</time><pdop>6.0</pdop><geoidheight>50.80</geoidheight><course>249.35194</course><type>1</type></trkpt>
      <trkpt lat="39.26691311605265" lon="-5.752005943074164"><ele>2898</ele><speed>10.88</speed><time>2016-07-09T16:12:51Z</time><pdop>6.0</pdop><geoidheight>50.80</geoidheight><course>249.11838</course><type>1</type></trkpt>
      <trkpt lat="39.266843615429224" lon="-5.75224697574522"><ele>2895</ele><speed>11.52</speed><time>2016-07-09T16:12:53Z</time><pdop>6.0</pdop><geoidheight>50.80</geoidheight><course>249.84985</course><type>1</type></trkpt>
      <trkpt lat="39.26676951616377" lon="-5.7525019327138995"><ele>2891</ele><speed>12.41</speed><time>2016-07-09T16:12:55Z</time><pdop>6.0</pdop><geoidheight>50.80</geoidheight><course>248.44621</course><type>1</type></trkpt>
      <trkpt lat="39.26672769187734" lon="-5.752635624414047"><ele>2889</ele><speed>12.89</speed><time>2016-07-09T16:12:56Z</time><pdop>6.0</pdop><geoidheight>50.80</geoidheight><course>248.03458</course><type>1</type></trkpt>
      <trkpt lat="39.26668337676976" lon="-5.752773839662101"><ele>2887</ele><speed>13.42</speed><time>2016-07-09T16:12:57Z</time><pdop>6.0</pdop><geoidheight>50.80</geoidheight><course>247.31538</course><type>1</type></trkpt>
      <trkpt lat="39.26663425880428" lon="-5.752917310269972"><ele>2885</ele><speed>14.03</speed><time>2016-07-09T16:12:58Z</time><pdop>6.0</pdop><geoidheight>50.80</geoidheight><course>246.88919</course><type>1</type></trkpt>
      <trkpt lat="39.266583059863635" lon="-5.753066222941612"><ele>2883</ele><speed>14.54</speed><time>2016-07-09T16:12:59Z</time><pdop>6.0</pdop><geoidheight>50.80</geoidheight><course>246.44698</course><type>1</type></trkpt>
      <trkpt lat="39.26653100508496" lon="-5.753216194997603"><ele>2881</ele><speed>14.71</speed><time>2016-07-09T16:13:00Z</time><pdop>6.0</pdop><geoidheight>50.80</geoidheight><course>245.90683</course><type>1</type></trkpt>
      <trkpt lat="39.266475569041866" lon="-5.75336317998585"><ele>2879</ele><speed>14.18</speed><time>2016-07-09T16:13:01Z</time><pdop>6.0</pdop><geoidheight>50.80</geoidheight><course>245.12688</course><type>1</type></trkpt>
      <trkpt lat="39.26642233769578" lon="-5.753506450907494"><ele>2878</ele><speed>13.36</speed><time>2016-07-09T16:13:02Z</time><pdop>6.0</pdop><geoidheight>50.80</geoidheight><course>244.53961</course><type>1</type></trkpt>
      <trkpt lat="39.26637138661589" lon="-5.753639023629506"><ele>2876</ele><speed>12.74</speed><time>2016-07-09T16:13:03Z</time><pdop>6.0</pdop><geoidheight>50.80</geoidheight><course>244.41235</course><type>1</type></trkpt>
      <trkpt lat="39.2662725776312" lon="-5.753910349922485"><ele>2873</ele><speed>12.70</speed><time>2016-07-09T16:13:06Z</time><pdop>8.0</pdop><geoidheight>50.80</geoidheight><course>245.42043</course><type>1</type></trkpt>
      <trkpt lat="39.26616420137482" lon="-5.754219795572344"><ele>2871</ele><speed>14.81</speed><time>2016-07-09T16:13:07Z</time><pdop>8.0</pdop><geoidheight>50.80</geoidheight><course>246.42679</course><type>1</type></trkpt>
      <trkpt lat="39.266108707034284" lon="-5.754378596983756"><ele>2869</ele><speed>14.88</speed><time>2016-07-09T16:13:08Z</time><pdop>6.0</pdop><geoidheight>50.80</geoidheight><course>247.19154</course><type>1</type></trkpt>
      <trkpt lat="39.26605794816648" lon="-5.754534722062939"><ele>2868</ele><speed>14.35</speed><time>2016-07-09T16:13:09Z</time><pdop>6.0</pdop><geoidheight>50.80</geoidheight><course>247.73904</course><type>1</type></trkpt>
      <trkpt lat="39.26600882874301" lon="-5.754687682701843"><ele>2867</ele><speed>14.09</speed><time>2016-07-09T16:13:10Z</time><pdop>6.0</pdop><geoidheight>50.80</geoidheight><course>247.97096</course><type>1</type></trkpt>
      <trkpt lat="39.26595877989871" lon="-5.7548427317956055"><ele>2865</ele><speed>14.71</speed><time>2016-07-09T16:13:11Z</time><pdop>6.0</pdop><geoidheight>50.80</geoidheight><course>247.59956</course><type>1</type></trkpt>
      <trkpt lat="39.26590726653902" lon="-5.754999993623006"><ele>2864</ele><speed>15.68</speed><time>2016-07-09T16:13:12Z</time><pdop>6.0</pdop><geoidheight>50.80</geoidheight><course>247.04779</course><type>1</type></trkpt>
      <trkpt lat="39.26585235754975" lon="-5.755159240372783"><ele>2862</ele><speed>15.59</speed><time>2016-07-09T16:13:13Z</time><pdop>8.0</pdop><geoidheight>50.80</geoidheight><course>246.57823</course><type>1</type></trkpt>
      <trkpt lat="39.2657550249298" lon="-5.755445336909182"><ele>2859</ele><speed>13.53</speed><time>2016-07-09T16:13:16Z</time><pdop>6.0</pdop><geoidheight>50.80</geoidheight><course>247.62172</course><type>1</type></trkpt>
      <trkpt lat="39.26571040354777" lon="-5.755582234103282"><ele>2858</ele><speed>12.77</speed><time>2016-07-09T16:13:16Z</time><pdop>6.0</pdop><geoidheight>50.80</geoidheight><course>246.803</course><type>1</type></trkpt>
      <trkpt lat="39.26566391026232" lon="-5.755715437331525"><ele>2857</ele><speed>13.04</speed><time>2016-07-09T16:13:17Z</time><pdop>6.0</pdop><geoidheight>50.80</geoidheight><course>245.99081</course><type>1</type></trkpt>
      <trkpt lat="39.26561445022185" lon="-5.755855607994505"><ele>2855</ele><speed>13.73</speed><time>2016-07-09T16:13:18Z</time><pdop>6.0</pdop><geoidheight>50.80</geoidheight><course>246.0887</course><type>1</type></trkpt>
      <trkpt lat="39.26556765674684" lon="-5.756000842940876"><ele>2854</ele><speed>14.04</speed><time>2016-07-09T16:13:19Z</time><pdop>6.0</pdop><geoidheight>50.80</geoidheight><course>247.48138</course><type>1</type></trkpt>
      <trkpt lat="39.265528181360985" lon="-5.756146277755406"><ele>2853</ele><speed>13.50</speed><time>2016-07-09T16:13:20Z</time><pdop>6.0</pdop><geoidheight>50.80</geoidheight><course>249.9448</course><type>1</type></trkpt>
      <trkpt lat="39.26549461320809" lon="-5.756290390317538"><ele>2852</ele><speed>13.13</speed><time>2016-07-09T16:13:21Z</time><pdop>6.0</pdop><geoidheight>50.80</geoidheight><course>251.53091</course><type>1</type></trkpt>
      <trkpt lat="39.26543341601785" lon="-5.756572329409711"><ele>2851</ele><speed>12.73</speed><time>2016-07-09T16:13:23Z</time><pdop>8.0</pdop><geoidheight>50.80</geoidheight><course>252.82303</course><type>1</type></trkpt>
      <trkpt lat="39.265366839902406" lon="-5.756871535343027"><ele>2850</ele><speed>14.15</speed><time>2016-07-09T16:13:25Z</time><pdop>6.0</pdop><geoidheight>50.80</geoidheight><course>253.16899</course><type>1</type></trkpt>
      <trkpt lat="39.26532953162754" lon="-5.757032173850813"><ele>2850</ele><speed>14.86</speed><time>2016-07-09T16:13:26Z</time><pdop>6.0</pdop><geoidheight>50.80</geoidheight><course>252.51848</course><type>1</type></trkpt>
      <trkpt lat="39.265288256413896" lon="-5.757190271030799"><ele>2850</ele><speed>14.61</speed><time>2016-07-09T16:13:27Z</time><pdop>6.0</pdop><geoidheight>50.80</geoidheight><course>251.25311</course><type>1</type></trkpt>
      <trkpt lat="39.2652474812799" lon="-5.757340706848903"><ele>2850</ele><speed>13.50</speed><time>2016-07-09T16:13:28Z</time><pdop>6.0</pdop><geoidheight>50.80</geoidheight><course>250.41605</course><type>1</type></trkpt>
      <trkpt lat="39.26520654681877" lon="-5.757491788019618"><ele>2850</ele><speed>12.73</speed><time>2016-07-09T16:13:29Z</time><pdop>4.0</pdop><geoidheight>50.80</geoidheight><course>251.04613</course><type>1</type></trkpt>
      <trkpt lat="39.26516763844849" lon="-5.757639002382946"><ele>2850</ele><speed>12.81</speed><time>2016-07-09T16:13:30Z</time><pdop>4.0</pdop><geoidheight>50.80</geoidheight><course>251.92693</course><type>1</type></trkpt>
      <trkpt lat="39.26513430418945" lon="-5.757774666991322"><ele>2851</ele><speed>13.22</speed><time>2016-07-09T16:13:31Z</time><pdop>8.0</pdop><geoidheight>50.80</geoidheight><course>252.59756</course><type>1</type></trkpt>
      <trkpt lat="39.26506208492061" lon="-5.758075944205524"><ele>2852</ele><speed>14.07</speed><time>2016-07-09T16:13:33Z</time><pdop>8.0</pdop><geoidheight>50.80</geoidheight><course>252.32631</course><type>1</type></trkpt>
      <trkpt lat="39.26497804066773" lon="-5.758386419458148"><ele>2853</ele><speed>14.84</speed><time>2016-07-09T16:13:35Z</time><pdop>6.0</pdop><geoidheight>50.80</geoidheight><course>249.68936</course><type>1</type></trkpt>
      <trkpt lat="39.264923941674276" lon="-5.758547720127844"><ele>2854</ele><speed>15.62</speed><time>2016-07-09T16:13:36Z</time><pdop>6.0</pdop><geoidheight>50.80</geoidheight><course>246.92421</course><type>1</type></trkpt>
      <trkpt lat="39.26486193123527" lon="-5.758705659469539"><ele>2854</ele><speed>15.61</speed><time>2016-07-09T16:13:37Z</time><pdop>6.0</pdop><geoidheight>50.80</geoidheight><course>244.52232</course><type>1</type></trkpt>
      <trkpt lat="39.264800174805615" lon="-5.7588574552055825"><ele>2854</ele><speed>14.29</speed><time>2016-07-09T16:13:38Z</time><pdop>8.0</pdop><geoidheight>50.80</geoidheight><course>243.81464</course><type>1</type></trkpt>
      <trkpt lat="39.2646871371881" lon="-5.759133394273562"><ele>2855</ele><speed>13.13</speed><time>2016-07-09T16:13:40Z</time><pdop>8.0</pdop><geoidheight>50.80</geoidheight><course>243.43356</course><type>1</type></trkpt>
      <trkpt lat="39.26456836492529" lon="-5.759421425823957"><ele>2856</ele><speed>13.70</speed><time>2016-07-09T16:13:42Z</time><pdop>8.0</pdop><geoidheight>50.80</geoidheight><course>242.28593</course><type>1</type></trkpt>
      <trkpt lat="39.2644501858571" lon="-5.759699022049829"><ele>2856</ele><speed>13.46</speed><time>2016-07-09T16:13:45Z</time><pdop>8.0</pdop><geoidheight>50.80</geoidheight><course>242.05185</course><type>1</type></trkpt>
      <trkpt lat="39.26433715774956" lon="-5.7599990851586576"><ele>2856</ele><speed>15.25</speed><time>2016-07-09T16:13:46Z</time><pdop>8.0</pdop><geoidheight>50.80</geoidheight><course>245.15509</course><type>1</type></trkpt>
      <trkpt lat="39.264236557625814" lon="-5.760292941954803"><ele>2855</ele><speed>12.72</speed><time>2016-07-09T16:13:48Z</time><pdop>8.0</pdop><geoidheight>50.80</geoidheight><course>245.25745</course><type>1</type></trkpt>
      <trkpt lat="39.26414143852613" lon="-5.760533819897764"><ele>2857</ele><speed>10.70</speed><time>2016-07-09T16:13:50Z</time><pdop>6.0</pdop><geoidheight>50.80</geoidheight><course>243.3214</course><type>1</type></trkpt>
      <trkpt lat="39.26409036477997" lon="-5.760660797504137"><ele>2858</ele><speed>11.75</speed><time>2016-07-09T16:13:51Z</time><pdop>6.0</pdop><geoidheight>50.80</geoidheight><course>244.52786</course><type>1</type></trkpt>
      <trkpt lat="39.26404062940474" lon="-5.760809177981394"><ele>2858</ele><speed>13.79</speed><time>2016-07-09T16:13:52Z</time><pdop>6.0</pdop><geoidheight>50.80</geoidheight><course>246.87592</course><type>1</type></trkpt>
      <trkpt lat="39.2639958781594" lon="-5.760969911188558"><ele>2858</ele><speed>15.14</speed><time>2016-07-09T16:13:53Z</time><pdop>6.0</pdop><geoidheight>50.80</geoidheight><course>249.2933</course><type>1</type></trkpt>
      <trkpt lat="39.2639189761859" lon="-5.761280697400546"><ele>2857</ele><speed>13.35</speed><time>2016-07-09T16:13:55Z</time><pdop>12.0</pdop><geoidheight>50.80</geoidheight><course>249.91293</course><type>1</type></trkpt>
      <trkpt lat="39.26379644354781" lon="-5.761676674235219"><ele>2854</ele><speed>14.28</speed><time>2016-07-09T16:13:58Z</time><pdop>8.0</pdop><geoidheight>50.80</geoidheight><course>247.40002</course><type>1</type></trkpt>
      <trkpt lat="39.26374995746565" lon="-5.761833028219182"><ele>2853</ele><speed>15.26</speed><time>2016-07-09T16:13:59Z</time><pdop>6.0</pdop><geoidheight>50.80</geoidheight><course>248.71014</course><type>1</type></trkpt>
      <trkpt lat="39.26370348711625" lon="-5.761999622336022"><ele>2852</ele><speed>15.38</speed><time>2016-07-09T16:14:00Z</time><pdop>6.0</pdop><geoidheight>50.80</geoidheight><course>249.94608</course><type>1</type></trkpt>
      <trkpt lat="39.263658917505374" lon="-5.762163022451479"><ele>2851</ele><speed>14.73</speed><time>2016-07-09T16:14:01Z</time><pdop>6.0</pdop><geoidheight>50.80</geoidheight><course>250.37239</course><type>1</type></trkpt>
      <trkpt lat="39.263616611926416" lon="-5.762319094695851"><ele>2851</ele><speed>14.00</speed><time>2016-07-09T16:14:02Z</time><pdop>8.0</pdop><geoidheight>50.80</geoidheight><course>250.11462</course><type>1</type></trkpt>
      <trkpt lat="39.263535965134025" lon="-5.762610291227457"><ele>2851</ele><speed>12.80</speed><time>2016-07-09T16:14:04Z</time><pdop>6.0</pdop><geoidheight>50.80</geoidheight><course>249.37611</course><type>1</type></trkpt>
      <trkpt lat="39.263491700721694" lon="-5.762755251433318"><ele>2850</ele><speed>13.20</speed><time>2016-07-09T16:14:05Z</time><pdop>6.0</pdop><geoidheight>50.80</geoidheight><course>248.42015</course><type>1</type></trkpt>
      <trkpt lat="39.26344424563961" lon="-5.762910630332013"><ele>2850</ele><speed>14.56</speed><time>2016-07-09T16:14:06Z</time><pdop>6.0</pdop><geoidheight>50.80</geoidheight><course>249.01506</course><type>1</type></trkpt>
      <trkpt lat="39.26339775805349" lon="-5.763073335971766"><ele>2849</ele><speed>15.33</speed><time>2016-07-09T16:14:07Z</time><pdop>6.0</pdop><geoidheight>50.80</geoidheight><course>249.55978</course><type>1</type></trkpt>
      <trkpt lat="39.26335201369883" lon="-5.763236978630099"><ele>2848</ele><speed>14.96</speed><time>2016-07-09T16:14:08Z</time><pdop>6.0</pdop><geoidheight>50.80</geoidheight><course>250.53545</course><type>1</type></trkpt>
      <trkpt lat="39.26331266433774" lon="-5.763393702035109"><ele>2848</ele><speed>13.92</speed><time>2016-07-09T16:14:09Z</time><pdop>6.0</pdop><geoidheight>50.80</geoidheight><course>251.33894</course><type>1</type></trkpt>
      <trkpt lat="39.2632766767349" lon="-5.763538077796987"><ele>2847</ele><speed>12.49</speed><time>2016-07-09T16:14:10Z</time><pdop>6.0</pdop><geoidheight>50.80</geoidheight><course>251.17392</course><type>1</type></trkpt>
      <trkpt lat="39.26320387529152" lon="-5.763817430486585"><ele>2845</ele><speed>13.30</speed><time>2016-07-09T16:14:12Z</time><pdop>6.0</pdop><geoidheight>50.80</geoidheight><course>250.6817</course><type>1</type></trkpt>
      <trkpt lat="39.263121896539666" lon="-5.764119090243069"><ele>2842</ele><speed>14.85</speed><time>2016-07-09T16:14:14Z</time><pdop>8.0</pdop><geoidheight>50.80</geoidheight><course>250.18544</course><type>1</type></trkpt>
      <trkpt lat="39.26303049034979" lon="-5.764415067035111"><ele>2840</ele><speed>13.15</speed><time>2016-07-09T16:14:16Z</time><pdop>8.0</pdop><geoidheight>50.80</geoidheight><course>248.2354</course><type>1</type></trkpt>
      <trkpt lat="39.2629415877848" lon="-5.76469691994368"><ele>2837</ele><speed>13.37</speed><time>2016-07-09T16:14:18Z</time><pdop>12.0</pdop><geoidheight>50.80</geoidheight><course>248.79172</course><type>1</type></trkpt>
      <trkpt lat="39.26284611576397" lon="-5.764990154520271"><ele>2835</ele><speed>14.16</speed><time>2016-07-09T16:14:20Z</time><pdop>12.0</pdop><geoidheight>50.80</geoidheight><course>247.45108</course><type>1</type></trkpt>
      <trkpt lat="39.262749614731234" lon="-5.765287319108502"><ele>2832</ele><speed>13.85</speed><time>2016-07-09T16:14:22Z</time><pdop>12.0</pdop><geoidheight>50.80</geoidheight><course>248.59547</course><type>1</type></trkpt>
      <trkpt lat="39.26266636918503" lon="-5.765583102431307"><ele>2829</ele><speed>13.90</speed><time>2016-07-09T16:14:24Z</time><pdop>12.0</pdop><geoidheight>50.80</geoidheight><course>250.4075</course><type>1</type></trkpt>
      <trkpt lat="39.26258313051369" lon="-5.765909968600129"><ele>2826</ele><speed>16.03</speed><time>2016-07-09T16:14:26Z</time><pdop>12.0</pdop><geoidheight>50.80</geoidheight><course>250.93977</course><type>1</type></trkpt>
      <trkpt lat="39.262494854261035" lon="-5.766234598917113"><ele>2823</ele><speed>14.69</speed><time>2016-07-09T16:14:28Z</time><pdop>12.0</pdop><geoidheight>50.80</geoidheight><course>249.90895</course><type>1</type></trkpt>
      <trkpt lat="39.26241177095693" lon="-5.766546185240282"><ele>2820</ele><speed>14.22</speed><time>2016-07-09T16:14:30Z</time><pdop>12.0</pdop><geoidheight>50.80</geoidheight><course>251.61955</course><type>1</type></trkpt>
      <trkpt lat="39.26234250153226" lon="-5.7668805703450765"><ele>2817</ele><speed>15.27</speed><time>2016-07-09T16:14:32Z</time><pdop>12.0</pdop><geoidheight>50.80</geoidheight><course>254.50737</course><type>1</type></trkpt>
      <trkpt lat="39.2622737553289" lon="-5.7671955542490085"><ele>2815</ele><speed>13.76</speed><time>2016-07-09T16:14:34Z</time><pdop>12.0</pdop><geoidheight>50.80</geoidheight><course>252.14752</course><type>1</type></trkpt>
      <trkpt lat="39.26219242004922" lon="-5.767489292263549"><ele>2812</ele><speed>13.87</speed><time>2016-07-09T16:14:36Z</time><pdop>12.0</pdop><geoidheight>50.80</geoidheight><course>250.5299</course><type>1</type></trkpt>
      <trkpt lat="39.26211033699991" lon="-5.7678075314028545"><ele>2809</ele><speed>15.21</speed><time>2016-07-09T16:14:38Z</time><pdop>12.0</pdop><geoidheight>50.80</geoidheight><course>252.34187</course><type>1</type></trkpt>
      <trkpt lat="39.262033603832876" lon="-5.768125969020345"><ele>2805</ele><speed>14.29</speed><time>2016-07-09T16:14:40Z</time><pdop>12.0</pdop><geoidheight>50.80</geoidheight><course>251.80624</course><type>1</type></trkpt>
      <trkpt lat="39.261951300174495" lon="-5.7684177057090515"><ele>2802</ele><speed>13.71</speed><time>2016-07-09T16:14:42Z</time><pdop>12.0</pdop><geoidheight>50.80</geoidheight><course>249.59947</course><type>1</type></trkpt>
      <trkpt lat="39.2618588915309" lon="-5.76871777088036"><ele>2798</ele><speed>14.62</speed><time>2016-07-09T16:14:44Z</time><pdop>12.0</pdop><geoidheight>50.80</geoidheight><course>249.77475</course><type>1</type></trkpt>
      <trkpt lat="39.26177630755871" lon="-5.769026592057235"><ele>2793</ele><speed>14.15</speed><time>2016-07-09T16:14:46Z</time><pdop>12.0</pdop><geoidheight>50.80</geoidheight><course>251.12791</course><type>1</type></trkpt>
      <trkpt lat="39.261697077087334" lon="-5.7693258250365345"><ele>2789</ele><speed>13.69</speed><time>2016-07-09T16:14:48Z</time><pdop>12.0</pdop><geoidheight>50.80</geoidheight><course>249.76144</course><type>1</type></trkpt>
      <trkpt lat="39.2616167064898" lon="-5.7696246440395145"><ele>2784</ele><speed>14.07</speed><time>2016-07-09T16:14:50Z</time><pdop>12.0</pdop><geoidheight>50.80</geoidheight><course>251.03435</course><type>1</type></trkpt>
      <trkpt lat="39.26154865565759" lon="-5.769925762949549"><ele>2780</ele><speed>13.54</speed><time>2016-07-09T16:14:52Z</time><pdop>12.0</pdop><geoidheight>50.80</geoidheight><course>253.76184</course><type>1</type></trkpt>
      <trkpt lat="39.26149783968136" lon="-5.770222935904489"><ele>2776</ele><speed>13.02</speed><time>2016-07-09T16:14:54Z</time><pdop>12.0</pdop><geoidheight>50.80</geoidheight><course>256.7489</course><type>1</type></trkpt>
      <trkpt lat="39.26145524372073" lon="-5.770529903142407"><ele>2771</ele><speed>13.89</speed><time>2016-07-09T16:14:56Z</time><pdop>12.0</pdop><geoidheight>50.80</geoidheight><course>258.71762</course><type>1</type></trkpt>
      <trkpt lat="39.26141590998671" lon="-5.770841752822333"><ele>2767</ele><speed>13.89</speed><time>2016-07-09T16:14:58Z</time><pdop>12.0</pdop><geoidheight>50.80</geoidheight><course>259.9555</course><type>1</type></trkpt>
      <trkpt lat="39.26137731505232" lon="-5.771142004345522"><ele>2762</ele><speed>13.24</speed><time>2016-07-09T16:15:00Z</time><pdop>12.0</pdop><geoidheight>50.80</geoidheight><course>259.37454</course><type>1</type></trkpt>
      <trkpt lat="39.26133633017868" lon="-5.771446442171542"><ele>2758</ele><speed>14.15</speed><time>2016-07-09T16:15:02Z</time><pdop>12.0</pdop><geoidheight>50.80</geoidheight><course>258.92322</course><type>1</type></trkpt>
      <trkpt lat="39.26129314502267" lon="-5.771758355602583"><ele>2752</ele><speed>14.04</speed><time>2016-07-09T16:15:04Z</time><pdop>12.0</pdop><geoidheight>50.80</geoidheight><course>259.0035</course><type>1</type></trkpt>
      <trkpt lat="39.26125428993481" lon="-5.772058632899841"><ele>2747</ele><speed>13.25</speed><time>2016-07-09T16:15:06Z</time><pdop>12.0</pdop><geoidheight>50.80</geoidheight><course>260.19946</course><type>1</type></trkpt>
      <trkpt lat="39.26122444245299" lon="-5.772362633090436"><ele>2742</ele><speed>14.07</speed><time>2016-07-09T16:15:08Z</time><pdop>12.0</pdop><geoidheight>50.80</geoidheight><course>261.91455</course><type>1</type></trkpt>
      <trkpt lat="39.26119442765766" lon="-5.772677712410483"><ele>2736</ele><speed>14.38</speed><time>2016-07-09T16:15:10Z</time><pdop>12.0</pdop><geoidheight>50.80</geoidheight><course>260.87195</course><type>1</type></trkpt>
      <trkpt lat="39.26116559774998" lon="-5.772981280822425"><ele>2730</ele><speed>13.76</speed><time>2016-07-09T16:15:12Z</time><pdop>8.0</pdop><geoidheight>50.80</geoidheight><course>262.1326</course><type>1</type></trkpt>
      <trkpt lat="39.26114980348228" lon="-5.773285929382608"><ele>2724</ele><speed>14.15</speed><time>2016-07-09T16:15:15Z</time><pdop>8.0</pdop><geoidheight>50.80</geoidheight><course>265.16974</course><type>1</type></trkpt>
      <trkpt lat="39.26113501780361" lon="-5.773607520340665"><ele>2717</ele><speed>15.53</speed><time>2016-07-09T16:15:16Z</time><pdop>8.0</pdop><geoidheight>50.80</geoidheight><course>265.37103</course><type>1</type></trkpt>
      <trkpt lat="39.26111785425304" lon="-5.773931720688037"><ele>2711</ele><speed>15.19</speed><time>2016-07-09T16:15:18Z</time><pdop>8.0</pdop><geoidheight>50.80</geoidheight><course>264.3053</course><type>1</type></trkpt>
      <trkpt lat="39.261107895451715" lon="-5.774097940874437"><ele>2708</ele><speed>15.35</speed><time>2016-07-09T16:15:19Z</time><pdop>6.0</pdop><geoidheight>50.80</geoidheight><course>264.93637</course><type>1</type></trkpt>
      <trkpt lat="39.261103490518934" lon="-5.774263478803295"><ele>2705</ele><speed>15.08</speed><time>2016-07-09T16:15:20Z</time><pdop>6.0</pdop><geoidheight>50.80</geoidheight><course>267.09647</course><type>1</type></trkpt>
      <trkpt lat="39.26110896906004" lon="-5.7744368279470555"><ele>2702</ele><speed>15.55</speed><time>2016-07-09T16:15:21Z</time><pdop>6.0</pdop><geoidheight>50.80</geoidheight><course>269.94138</course><type>1</type></trkpt>
      <trkpt lat="39.26112204128636" lon="-5.774617446820451"><ele>2699</ele><speed>16.07</speed><time>2016-07-09T16:15:22Z</time><pdop>6.0</pdop><geoidheight>50.80</geoidheight><course>272.3735</course><type>1</type></trkpt>
      <trkpt lat="39.26113620654893" lon="-5.774802690258062"><ele>2695</ele><speed>16.36</speed><time>2016-07-09T16:15:23Z</time><pdop>8.0</pdop><geoidheight>50.80</geoidheight><course>273.8636</course><type>1</type></trkpt>
      <trkpt lat="39.26115219355675" lon="-5.774988560608621"><ele>2692</ele><speed>16.25</speed><time>2016-07-09T16:15:24Z</time><pdop>8.0</pdop><geoidheight>50.80</geoidheight><course>274.50574</course><type>1</type></trkpt>
      <trkpt lat="39.261170641433004" lon="-5.775164604607207"><ele>2689</ele><speed>16.04</speed><time>2016-07-09T16:15:25Z</time><pdop>6.0</pdop><geoidheight>50.80</geoidheight><course>274.9416</course><type>1</type></trkpt>
      <trkpt lat="39.261189058207805" lon="-5.775342848373722"><ele>2686</ele><speed>16.07</speed><time>2016-07-09T16:15:26Z</time><pdop>6.0</pdop><geoidheight>50.80</geoidheight><course>274.3267</course><type>1</type></trkpt>
      <trkpt lat="39.26120272316661" lon="-5.775520038340153"><ele>2683</ele><speed>16.07</speed><time>2016-07-09T16:15:27Z</time><pdop>6.0</pdop><geoidheight>50.80</geoidheight><course>273.65472</course><type>1</type></trkpt>
      <trkpt lat="39.26121553932495" lon="-5.775699694054643"><ele>2679</ele><speed>16.47</speed><time>2016-07-09T16:15:28Z</time><pdop>6.0</pdop><geoidheight>50.80</geoidheight><course>272.7047</course><type>1</type></trkpt>
      <trkpt lat="39.26122239680424" lon="-5.7758834767927105"><ele>2676</ele><speed>16.81</speed><time>2016-07-09T16:15:29Z</time><pdop>6.0</pdop><geoidheight>50.80</geoidheight><course>271.2971</course><type>1</type></trkpt>
      <trkpt lat="39.26122237932781" lon="-5.776072903234861"><ele>2673</ele><speed>17.05</speed><time>2016-07-09T16:15:30Z</time><pdop>6.0</pdop><geoidheight>50.80</geoidheight><course>269.2191</course><type>1</type></trkpt>
      <trkpt lat="39.26121439962218" lon="-5.776264251619515"><ele>2670</ele><speed>17.27</speed><time>2016-07-09T16:15:31Z</time><pdop>6.0</pdop><geoidheight>50.80</geoidheight><course>266.8714</course><type>1</type></trkpt>
      <trkpt lat="39.26119871481273" lon="-5.776454172339349"><ele>2667</ele><speed>17.47</speed><time>2016-07-09T16:15:32Z</time><pdop>6.0</pdop><geoidheight>50.80</geoidheight><course>264.59778</course><type>1</type></trkpt>
      <trkpt lat="39.26117727685628" lon="-5.776641365146344"><ele>2664</ele><speed>17.37</speed><time>2016-07-09T16:15:33Z</time><pdop>6.0</pdop><geoidheight>50.80</geoidheight><course>262.86328</course><type>1</type></trkpt>
      <trkpt lat="39.261155215996126" lon="-5.776830981595988"><ele>2661</ele><speed>17.01</speed><time>2016-07-09T16:15:34Z</time><pdop>6.0</pdop><geoidheight>50.80</geoidheight><course>262.0464</course><type>1</type></trkpt>
      <trkpt lat="39.261130050983034" lon="-5.7770178123224625"><ele>2658</ele><speed>16.70</speed><time>2016-07-09T16:15:35Z</time><pdop>6.0</pdop><geoidheight>50.80</geoidheight><course>261.52145</course><type>1</type></trkpt>
      <trkpt lat="39.26110294743517" lon="-5.777218174462414"><ele>2655</ele><speed>16.89</speed><time>2016-07-09T16:15:36Z</time><pdop>6.0</pdop><geoidheight>50.80</geoidheight><course>260.45157</course><type>1</type></trkpt>
      <trkpt lat="39.26107403410991" lon="-5.777409842046541"><ele>2652</ele><speed>16.50</speed><time>2016-07-09T16:15:38Z</time><pdop>8.0</pdop><geoidheight>50.80</geoidheight><course>259.21576</course><type>1</type></trkpt>
      <trkpt lat="39.26104389586716" lon="-5.777598125401385"><ele>2649</ele><speed>17.04</speed><time>2016-07-09T16:15:39Z</time><pdop>8.0</pdop><geoidheight>50.80</geoidheight><course>258.40402</course><type>1</type></trkpt>
      <trkpt lat="39.2610075506077" lon="-5.777786635383328"><ele>2646</ele><speed>17.65</speed><time>2016-07-09T16:15:39Z</time><pdop>6.0</pdop><geoidheight>50.80</geoidheight><course>257.83627</course><type>1</type></trkpt>
      <trkpt lat="39.26097183208869" lon="-5.777977963477269"><ele>2643</ele><speed>17.71</speed><time>2016-07-09T16:15:40Z</time><pdop>8.0</pdop><geoidheight>50.80</geoidheight><course>258.29834</course><type>1</type></trkpt>
      <trkpt lat="39.26094070756974" lon="-5.7781670916995544"><ele>2640</ele><speed>17.29</speed><time>2016-07-09T16:15:41Z</time><pdop>8.0</pdop><geoidheight>50.80</geoidheight><course>259.08887</course><type>1</type></trkpt>
      <trkpt lat="39.26091175486714" lon="-5.778353532358433"><ele>2637</ele><speed>16.74</speed><time>2016-07-09T16:15:42Z</time><pdop>8.0</pdop><geoidheight>50.80</geoidheight><course>259.95416</course><type>1</type></trkpt>
      <trkpt lat="39.26086846043575" lon="-5.778715004557099"><ele>2632</ele><speed>16.44</speed><time>2016-07-09T16:15:44Z</time><pdop>8.0</pdop><geoidheight>50.80</geoidheight><course>260.39056</course><type>1</type></trkpt>
      <trkpt lat="39.260846019512854" lon="-5.7788975322351055"><ele>2629</ele><speed>16.96</speed><time>2016-07-09T16:15:45Z</time><pdop>6.0</pdop><geoidheight>50.80</geoidheight><course>260.00278</course><type>1</type></trkpt>
      <trkpt lat="39.260823641332394" lon="-5.7790829872927185"><ele>2626</ele><speed>17.33</speed><time>2016-07-09T16:15:46Z</time><pdop>6.0</pdop><geoidheight>50.80</geoidheight><course>260.51648</course><type>1</type></trkpt>
      <trkpt lat="39.26079955672917" lon="-5.779279562221308"><ele>2623</ele><speed>18.03</speed><time>2016-07-09T16:15:47Z</time><pdop>6.0</pdop><geoidheight>50.80</geoidheight><course>261.24146</course><type>1</type></trkpt>
      <trkpt lat="39.260780484497225" lon="-5.779476111041724"><ele>2621</ele><speed>17.73</speed><time>2016-07-09T16:15:48Z</time><pdop>8.0</pdop><geoidheight>50.80</geoidheight><course>262.22092</course><type>1</type></trkpt>
      <trkpt lat="39.26076216854541" lon="-5.779669280449308"><ele>2618</ele><speed>17.15</speed><time>2016-07-09T16:15:49Z</time><pdop>8.0</pdop><geoidheight>50.80</geoidheight><course>262.82315</course><type>1</type></trkpt>
      <trkpt lat="39.26073572462552" lon="-5.78002781138984"><ele>2613</ele><speed>15.27</speed><time>2016-07-09T16:15:51Z</time><pdop>8.0</pdop><geoidheight>50.80</geoidheight><course>264.17505</course><type>1</type></trkpt>
      <trkpt lat="39.26072554672678" lon="-5.780192921459088"><ele>2611</ele><speed>15.30</speed><time>2016-07-09T16:15:53Z</time><pdop>6.0</pdop><geoidheight>50.80</geoidheight><course>264.8856</course><type>1</type></trkpt>
      <trkpt lat="39.260714687976474" lon="-5.7803727152561"><ele>2608</ele><speed>15.84</speed><time>2016-07-09T16:15:53Z</time><pdop>6.0</pdop><geoidheight>50.80</geoidheight><course>265.25974</course><type>1</type></trkpt>
      <trkpt lat="39.26070700375708" lon="-5.780554697747955"><ele>2606</ele><speed>16.03</speed><time>2016-07-09T16:15:54Z</time><pdop>8.0</pdop><geoidheight>50.80</geoidheight><course>266.11053</course><type>1</type></trkpt>
      <trkpt lat="39.26069973696566" lon="-5.780743330155787"><ele>2603</ele><speed>16.69</speed><time>2016-07-09T16:15:55Z</time><pdop>8.0</pdop><geoidheight>50.80</geoidheight><course>266.9111</course><type>1</type></trkpt>
      <trkpt lat="39.26069221999008" lon="-5.781121116285221"><ele>2598</ele><speed>17.22</speed><time>2016-07-09T16:15:57Z</time><pdop>8.0</pdop><geoidheight>50.80</geoidheight><course>267.72107</course><type>1</type></trkpt>
      <trkpt lat="39.26068648710279" lon="-5.781316022074365"><ele>2596</ele><speed>17.07</speed><time>2016-07-09T16:15:58Z</time><pdop>8.0</pdop><geoidheight>50.80</geoidheight><course>268.24823</course><type>1</type></trkpt>
      <trkpt lat="39.260685282888645" lon="-5.781506517242414"><ele>2594</ele><speed>16.64</speed><time>2016-07-09T16:15:59Z</time><pdop>8.0</pdop><geoidheight>50.80</geoidheight><course>268.8328</course><type>1</type></trkpt>
      <trkpt lat="39.26068786632333" lon="-5.781871552085043"><ele>2588</ele><speed>16.23</speed><time>2016-07-09T16:16:02Z</time><pdop>8.0</pdop><geoidheight>50.80</geoidheight><course>270.16397</course><type>1</type></trkpt>
      <trkpt lat="39.26070218508011" lon="-5.78223336811743"><ele>2582</ele><speed>16.21</speed><time>2016-07-09T16:16:03Z</time><pdop>8.0</pdop><geoidheight>50.80</geoidheight><course>271.82242</course><type>1</type></trkpt>
      <trkpt lat="39.26072523441391" lon="-5.782599495739116"><ele>2576</ele><speed>16.26</speed><time>2016-07-09T16:16:05Z</time><pdop>8.0</pdop><geoidheight>50.80</geoidheight><course>273.27383</course><type>1</type></trkpt>
      <trkpt lat="39.26074094239" lon="-5.782978067121756"><ele>2570</ele><speed>18.01</speed><time>2016-07-09T16:16:07Z</time><pdop>8.0</pdop><geoidheight>50.80</geoidheight><course>270.34607</course><type>1</type></trkpt>
      <trkpt lat="39.260744757588355" lon="-5.783177325612239"><ele>2567</ele><speed>17.80</speed><time>2016-07-09T16:16:08Z</time><pdop>8.0</pdop><geoidheight>50.80</geoidheight><course>269.76746</course><type>1</type></trkpt>
      <trkpt lat="39.260748081900886" lon="-5.783373023757641"><ele>2564</ele><speed>17.28</speed><time>2016-07-09T16:16:09Z</time><pdop>8.0</pdop><geoidheight>50.80</geoidheight><course>270.21747</course><type>1</type></trkpt>
      <trkpt lat="39.26074913947146" lon="-5.783561419463308"><ele>2562</ele><speed>16.69</speed><time>2016-07-09T16:16:10Z</time><pdop>8.0</pdop><geoidheight>50.80</geoidheight><course>271.06863</course><type>1</type></trkpt>
      <trkpt lat="39.26074945492792" lon="-5.783748067601249"><ele>2561</ele><speed>16.73</speed><time>2016-07-09T16:16:11Z</time><pdop>8.0</pdop><geoidheight>50.80</geoidheight><course>270.64703</course><type>1</type></trkpt>
      <trkpt lat="39.26074906910393" lon="-5.783941981631807"><ele>2559</ele><speed>16.98</speed><time>2016-07-09T16:16:12Z</time><pdop>8.0</pdop><geoidheight>50.80</geoidheight><course>269.34695</course><type>1</type></trkpt>
      <trkpt lat="39.2607432169797" lon="-5.784139144049015"><ele>2558</ele><speed>17.32</speed><time>2016-07-09T16:16:13Z</time><pdop>8.0</pdop><geoidheight>50.80</geoidheight><course>268.08466</course><type>1</type></trkpt>
      <trkpt lat="39.260736915676645" lon="-5.7843361518976435"><ele>2556</ele><speed>16.92</speed><time>2016-07-09T16:16:14Z</time><pdop>6.0</pdop><geoidheight>50.80</geoidheight><course>267.58853</course><type>1</type></trkpt>
      <trkpt lat="39.26073036123525" lon="-5.78452745668217"><ele>2555</ele><speed>16.02</speed><time>2016-07-09T16:16:15Z</time><pdop>6.0</pdop><geoidheight>50.80</geoidheight><course>268.30014</course><type>1</type></trkpt>
      <trkpt lat="39.26072589517404" lon="-5.7847045328295925"><ele>2554</ele><speed>15.22</speed><time>2016-07-09T16:16:16Z</time><pdop>6.0</pdop><geoidheight>50.80</geoidheight><course>267.69635</course><type>1</type></trkpt>
      <trkpt lat="39.26071715038752" lon="-5.784882988735853"><ele>2553</ele><speed>14.71</speed><time>2016-07-09T16:16:17Z</time><pdop>6.0</pdop><geoidheight>50.80</geoidheight><course>266.97034</course><type>1</type></trkpt>
      <trkpt lat="39.260708870188864" lon="-5.7850530087682595"><ele>2553</ele><speed>14.85</speed><time>2016-07-09T16:16:18Z</time><pdop>6.0</pdop><geoidheight>50.80</geoidheight><course>266.1947</course><type>1</type></trkpt>
      <trkpt lat="39.26069833160565" lon="-5.785224410599321"><ele>2552</ele><speed>15.10</speed><time>2016-07-09T16:16:19Z</time><pdop>6.0</pdop><geoidheight>50.80</geoidheight><course>265.62857</course><type>1</type></trkpt>
      <trkpt lat="39.2606873647901" lon="-5.785389632805033"><ele>2551</ele><speed>15.12</speed><time>2016-07-09T16:16:21Z</time><pdop>6.0</pdop><geoidheight>50.80</geoidheight><course>264.95657</course><type>1</type></trkpt>
      <trkpt lat="39.26067221218749" lon="-5.785557928820238"><ele>2550</ele><speed>15.11</speed><time>2016-07-09T16:16:22Z</time><pdop>6.0</pdop><geoidheight>50.80</geoidheight><course>264.06573</course><type>1</type></trkpt>
      <trkpt lat="39.26065696665939" lon="-5.78572662445011"><ele>2549</ele><speed>15.08</speed><time>2016-07-09T16:16:22Z</time><pdop>6.0</pdop><geoidheight>50.80</geoidheight><course>263.49326</course><type>1</type></trkpt>
      <trkpt lat="39.26064107725636" lon="-5.785898930036467"><ele>2548</ele><speed>15.24</speed><time>2016-07-09T16:16:23Z</time><pdop>6.0</pdop><geoidheight>50.80</geoidheight><course>263.9832</course><type>1</type></trkpt>
      <trkpt lat="39.260625657007985" lon="-5.7860785420587835"><ele>2546</ele><speed>15.82</speed><time>2016-07-09T16:16:24Z</time><pdop>6.0</pdop><geoidheight>50.80</geoidheight><course>264.95102</course><type>1</type></trkpt>
      <trkpt lat="39.26061740807571" lon="-5.786263565941496"><ele>2545</ele><speed>16.00</speed><time>2016-07-09T16:16:25Z</time><pdop>6.0</pdop><geoidheight>50.80</geoidheight><course>266.54913</course><type>1</type></trkpt>
      <trkpt lat="39.26061533217013" lon="-5.786451034423272"><ele>2544</ele><speed>16.13</speed><time>2016-07-09T16:16:26Z</time><pdop>6.0</pdop><geoidheight>50.80</geoidheight><course>268.41837</course><type>1</type></trkpt>
      <trkpt lat="39.260616722420096" lon="-5.786637346233037"><ele>2543</ele><speed>15.80</speed><time>2016-07-09T16:16:27Z</time><pdop>6.0</pdop><geoidheight>50.80</geoidheight><course>269.58572</course><type>1</type></trkpt>
      <trkpt lat="39.26061682610949" lon="-5.786828828006528"><ele>2542</ele><speed>15.12</speed><time>2016-07-09T16:16:28Z</time><pdop>6.0</pdop><geoidheight>50.80</geoidheight><course>269.8891</course><type>1</type></trkpt>
      <trkpt lat="39.26061698201926" lon="-5.786996750806313"><ele>2542</ele><speed>13.88</speed><time>2016-07-09T16:16:29Z</time><pdop>6.0</pdop><geoidheight>50.80</geoidheight><course>268.969</course><type>1</type></trkpt>
      <trkpt lat="39.26061384946187" lon="-5.787296757133098"><ele>2542</ele><speed>11.89</speed><time>2016-07-09T16:16:31Z</time><pdop>8.0</pdop><geoidheight>50.80</geoidheight><course>268.54565</course><type>1</type></trkpt>
      <trkpt lat="39.26062081988359" lon="-5.787592801233312"><ele>2542</ele><speed>14.15</speed><time>2016-07-09T16:16:33Z</time><pdop>6.0</pdop><geoidheight>50.80</geoidheight><course>270.6077</course><type>1</type></trkpt>
      <trkpt lat="39.2606287074206" lon="-5.787757217490913"><ele>2541</ele><speed>15.18</speed><time>2016-07-09T16:16:34Z</time><pdop>6.0</pdop><geoidheight>50.80</geoidheight><course>271.8244</course><type>1</type></trkpt>
      <trkpt lat="39.26063653631182" lon="-5.787922743051272"><ele>2540</ele><speed>14.97</speed><time>2016-07-09T16:16:35Z</time><pdop>6.0</pdop><geoidheight>50.80</geoidheight><course>272.67612</course><type>1</type></trkpt>
      <trkpt lat="39.26064902789973" lon="-5.7880857019359"><ele>2539</ele><speed>14.24</speed><time>2016-07-09T16:16:36Z</time><pdop>6.0</pdop><geoidheight>50.80</geoidheight><course>273.25912</course><type>1</type></trkpt>
      <trkpt lat="39.26066001927776" lon="-5.788243754371793"><ele>2537</ele><speed>13.83</speed><time>2016-07-09T16:16:37Z</time><pdop>6.0</pdop><geoidheight>50.80</geoidheight><course>273.7323</course><type>1</type></trkpt>
      <trkpt lat="39.260671181528" lon="-5.788391613805862"><ele>2536</ele><speed>13.22</speed><time>2016-07-09T16:16:39Z</time><pdop>6.0</pdop><geoidheight>50.80</geoidheight><course>274.30066</course><type>1</type></trkpt>
      <trkpt lat="39.260681001782515" lon="-5.78854072948005"><ele>2534</ele><speed>13.24</speed><time>2016-07-09T16:16:40Z</time><pdop>6.0</pdop><geoidheight>50.80</geoidheight><course>273.7489</course><type>1</type></trkpt>
      <trkpt lat="39.26068796957903" lon="-5.788695307370948"><ele>2533</ele><speed>13.98</speed><time>2016-07-09T16:16:40Z</time><pdop>6.0</pdop><geoidheight>50.80</geoidheight><course>272.74655</course><type>1</type></trkpt>
      <trkpt lat="39.26069442187217" lon="-5.788855506103152"><ele>2531</ele><speed>14.61</speed><time>2016-07-09T16:16:41Z</time><pdop>6.0</pdop><geoidheight>50.80</geoidheight><course>272.30313</course><type>1</type></trkpt>
      <trkpt lat="39.26070042660411" lon="-5.7890287290644995"><ele>2529</ele><speed>14.93</speed><time>2016-07-09T16:16:42Z</time><pdop>6.0</pdop><geoidheight>50.80</geoidheight><course>273.28098</course><type>1</type></trkpt>
      <trkpt lat="39.26070710007619" lon="-5.789203898774485"><ele>2527</ele><speed>14.71</speed><time>2016-07-09T16:16:43Z</time><pdop>6.0</pdop><geoidheight>50.80</geoidheight><course>272.3842</course><type>1</type></trkpt>
      <trkpt lat="39.26071503434938" lon="-5.789528750271791"><ele>2522</ele><speed>14.00</speed><time>2016-07-09T16:16:45Z</time><pdop>8.0</pdop><geoidheight>50.80</geoidheight><course>271.4096</course><type>1</type></trkpt>
      <trkpt lat="39.26072266246834" lon="-5.789857214469501"><ele>2518</ele><speed>14.77</speed><time>2016-07-09T16:16:47Z</time><pdop>8.0</pdop><geoidheight>50.80</geoidheight><course>271.4567</course><type>1</type></trkpt>
      <trkpt lat="39.26073800423609" lon="-5.790190416902278"><ele>2514</ele><speed>13.85</speed><time>2016-07-09T16:16:49Z</time><pdop>12.0</pdop><geoidheight>50.80</geoidheight><course>273.6335</course><type>1</type></trkpt>
      <trkpt lat="39.26075388629781" lon="-5.790507544271691"><ele>2511</ele><speed>13.39</speed><time>2016-07-09T16:16:52Z</time><pdop>8.0</pdop><geoidheight>50.80</geoidheight><course>273.52487</course><type>1</type></trkpt>
      <trkpt lat="39.26076383134213" lon="-5.790825864505632"><ele>2508</ele><speed>14.80</speed><time>2016-07-09T16:16:53Z</time><pdop>8.0</pdop><geoidheight>50.80</geoidheight><course>272.22104</course><type>1</type></trkpt>
      <trkpt lat="39.26077932339711" lon="-5.7911567928906935"><ele>2505</ele><speed>14.21</speed><time>2016-07-09T16:16:56Z</time><pdop>8.0</pdop><geoidheight>50.80</geoidheight><course>274.0658</course><type>1</type></trkpt>
      <trkpt lat="39.260796777487066" lon="-5.791469644140671"><ele>2503</ele><speed>13.67</speed><time>2016-07-09T16:16:57Z</time><pdop>8.0</pdop><geoidheight>50.80</geoidheight><course>273.49213</course><type>1</type></trkpt>
      <trkpt lat="39.26081195499506" lon="-5.791813942334916"><ele>2501</ele><speed>15.33</speed><time>2016-07-09T16:16:59Z</time><pdop>6.0</pdop><geoidheight>50.80</geoidheight><course>272.55847</course><type>1</type></trkpt>
      <trkpt lat="39.26081763344221" lon="-5.791996985119949"><ele>2500</ele><speed>15.00</speed><time>2016-07-09T16:17:00Z</time><pdop>6.0</pdop><geoidheight>50.80</geoidheight><course>271.68155</course><type>1</type></trkpt>
      <trkpt lat="39.260818657499556" lon="-5.792172976929199"><ele>2500</ele><speed>14.51</speed><time>2016-07-09T16:17:01Z</time><pdop>6.0</pdop><geoidheight>50.80</geoidheight><course>271.23715</course><type>1</type></trkpt>
      <trkpt lat="39.26082011541687" lon="-5.792494516837335"><ele>2498</ele><speed>14.80</speed><time>2016-07-09T16:17:03Z</time><pdop>8.0</pdop><geoidheight>50.80</geoidheight><course>269.71744</course><type>1</type></trkpt>
      <trkpt lat="39.26080449676108" lon="-5.792825181265971"><ele>2495</ele><speed>14.87</speed><time>2016-07-09T16:17:05Z</time><pdop>8.0</pdop><geoidheight>50.80</geoidheight><course>264.93387</course><type>1</type></trkpt>
      <trkpt lat="39.260761953607464" lon="-5.793125083850813"><ele>2492</ele><speed>14.37</speed><time>2016-07-09T16:17:08Z</time><pdop>6.0</pdop><geoidheight>50.80</geoidheight><course>260.4097</course><type>1</type></trkpt>
      <trkpt lat="39.260737751729245" lon="-5.7932856331368825"><ele>2490</ele><speed>14.29</speed><time>2016-07-09T16:17:08Z</time><pdop>6.0</pdop><geoidheight>50.80</geoidheight><course>260.88113</course><type>1</type></trkpt>
      <trkpt lat="39.260715974129866" lon="-5.79345057786811"><ele>2488</ele><speed>14.30</speed><time>2016-07-09T16:17:09Z</time><pdop>6.0</pdop><geoidheight>50.80</geoidheight><course>261.55377</course><type>1</type></trkpt>
      <trkpt lat="39.26069557090016" lon="-5.793614674064672"><ele>2486</ele><speed>14.21</speed><time>2016-07-09T16:17:10Z</time><pdop>6.0</pdop><geoidheight>50.80</geoidheight><course>262.04633</course><type>1</type></trkpt>
      <trkpt lat="39.2606563818281" lon="-5.79392708762976"><ele>2482</ele><speed>14.05</speed><time>2016-07-09T16:17:12Z</time><pdop>8.0</pdop><geoidheight>50.80</geoidheight><course>261.8544</course><type>1</type></trkpt>
      <trkpt lat="39.260617369044795" lon="-5.794262635602861"><ele>2477</ele><speed>14.83</speed><time>2016-07-09T16:17:14Z</time><pdop>8.0</pdop><geoidheight>50.80</geoidheight><course>261.75687</course><type>1</type></trkpt>
      <trkpt lat="39.26057311680761" lon="-5.7945864153967985"><ele>2473</ele><speed>13.36</speed><time>2016-07-09T16:17:16Z</time><pdop>8.0</pdop><geoidheight>50.80</geoidheight><course>260.01083</course><type>1</type></trkpt>
      <trkpt lat="39.26052543539779" lon="-5.794896160910389"><ele>2471</ele><speed>13.39</speed><time>2016-07-09T16:17:19Z</time><pdop>8.0</pdop><geoidheight>50.80</geoidheight><course>259.24274</course><type>1</type></trkpt>
      <trkpt lat="39.26048071643345" lon="-5.795199695591528"><ele>2467</ele><speed>14.14</speed><time>2016-07-09T16:17:21Z</time><pdop>8.0</pdop><geoidheight>50.80</geoidheight><course>260.3553</course><type>1</type></trkpt>
      <trkpt lat="39.26045042609791" lon="-5.7955113747200375"><ele>2463</ele><speed>13.64</speed><time>2016-07-09T16:17:22Z</time><pdop>6.0</pdop><geoidheight>50.80</geoidheight><course>263.5191</course><type>1</type></trkpt>
      <trkpt lat="39.26044349877385" lon="-5.795658288314115"><ele>2461</ele><speed>12.54</speed><time>2016-07-09T16:17:23Z</time><pdop>6.0</pdop><geoidheight>50.80</geoidheight><course>265.24014</course><type>1</type></trkpt>
      <trkpt lat="39.260435369677914" lon="-5.795806033293419"><ele>2459</ele><speed>11.93</speed><time>2016-07-09T16:17:24Z</time><pdop>6.0</pdop><geoidheight>50.80</geoidheight><course>265.60797</course><type>1</type></trkpt>
      <trkpt lat="39.26042888987393" lon="-5.79594913029613"><ele>2457</ele><speed>12.09</speed><time>2016-07-09T16:17:25Z</time><pdop>6.0</pdop><geoidheight>50.80</geoidheight><course>264.9103</course><type>1</type></trkpt>
      <trkpt lat="39.260413624453356" lon="-5.796221263678019"><ele>2454</ele><speed>13.45</speed><time>2016-07-09T16:17:27Z</time><pdop>6.0</pdop><geoidheight>50.80</geoidheight><course>263.76532</course><type>1</type></trkpt>
      <trkpt lat="39.26040661988112" lon="-5.796366537048185"><ele>2452</ele><speed>13.80</speed><time>2016-07-09T16:17:28Z</time><pdop>6.0</pdop><geoidheight>50.80</geoidheight><course>264.57303</course><type>1</type></trkpt>
      <trkpt lat="39.26040214281853" lon="-5.7965156359535115"><ele>2450</ele><speed>13.55</speed><time>2016-07-09T16:17:29Z</time><pdop>6.0</pdop><geoidheight>50.80</geoidheight><course>264.93246</course><type>1</type></trkpt>
      <trkpt lat="39.2603903862025" lon="-5.796798206869413"><ele>2446</ele><speed>12.89</speed><time>2016-07-09T16:17:31Z</time><pdop>6.0</pdop><geoidheight>50.80</geoidheight><course>263.40295</course><type>1</type></trkpt>
      <trkpt lat="39.2603813120375" lon="-5.796939250886834"><ele>2444</ele><speed>12.68</speed><time>2016-07-09T16:17:32Z</time><pdop>6.0</pdop><geoidheight>50.80</geoidheight><course>263.88986</course><type>1</type></trkpt>
      <trkpt lat="39.26037608203265" lon="-5.797079599195377"><ele>2442</ele><speed>12.77</speed><time>2016-07-09T16:17:33Z</time><pdop>6.0</pdop><geoidheight>50.80</geoidheight><course>265.4015</course><type>1</type></trkpt>
      <trkpt lat="39.260374927216596" lon="-5.797234400029435"><ele>2440</ele><speed>12.87</speed><time>2016-07-09T16:17:34Z</time><pdop>6.0</pdop><geoidheight>50.80</geoidheight><course>267.30017</course><type>1</type></trkpt>
      <trkpt lat="39.260376232222974" lon="-5.7975319515864845"><ele>2436</ele><speed>12.71</speed><time>2016-07-09T16:17:36Z</time><pdop>8.0</pdop><geoidheight>50.80</geoidheight><course>269.52484</course><type>1</type></trkpt>
      <trkpt lat="39.260384710469474" lon="-5.797839003315562"><ele>2432</ele><speed>11.87</speed><time>2016-07-09T16:17:38Z</time><pdop>8.0</pdop><geoidheight>50.80</geoidheight><course>271.7398</course><type>1</type></trkpt>
      <trkpt lat="39.2604062736076" lon="-5.798119445911331"><ele>2429</ele><speed>11.98</speed><time>2016-07-09T16:17:40Z</time><pdop>6.0</pdop><geoidheight>50.80</geoidheight><course>274.6597</course><type>1</type></trkpt>
      <trkpt lat="39.26043366845194" lon="-5.798355861609765"><ele>2426</ele><speed>11.92</speed><time>2016-07-09T16:17:42Z</time><pdop>6.0</pdop><geoidheight>50.80</geoidheight><course>276.21594</course><type>1</type></trkpt>
      <trkpt lat="39.26046088492373" lon="-5.798602611764827"><ele>2422</ele><speed>11.72</speed><time>2016-07-09T16:17:45Z</time><pdop>6.0</pdop><geoidheight>50.80</geoidheight><course>274.5793</course><type>1</type></trkpt>
      <trkpt lat="39.26048718322027" lon="-5.79886306794305"><ele>2416</ele><speed>12.03</speed><time>2016-07-09T16:17:46Z</time><pdop>6.0</pdop><geoidheight>50.80</geoidheight><course>274.61154</course><type>1</type></trkpt>
      <trkpt lat="39.26051649028045" lon="-5.799137956559169"><ele>2410</ele><speed>12.21</speed><time>2016-07-09T16:17:48Z</time><pdop>6.0</pdop><geoidheight>50.80</geoidheight><course>274.83856</course><type>1</type></trkpt>
      <trkpt lat="39.26052841881098" lon="-5.799277018052467"><ele>2408</ele><speed>12.43</speed><time>2016-07-09T16:17:49Z</time><pdop>6.0</pdop><geoidheight>50.80</geoidheight><course>273.98517</course><type>1</type></trkpt>
      <trkpt lat="39.26054006596707" lon="-5.799420320471369"><ele>2406</ele><speed>12.69</speed><time>2016-07-09T16:17:50Z</time><pdop>6.0</pdop><geoidheight>50.80</geoidheight><course>273.64297</course><type>1</type></trkpt>
      <trkpt lat="39.260550444817284" lon="-5.799565065548778"><ele>2404</ele><speed>12.45</speed><time>2016-07-09T16:17:51Z</time><pdop>6.0</pdop><geoidheight>50.80</geoidheight><course>273.29797</course><type>1</type></trkpt>
      <trkpt lat="39.260557183573056" lon="-5.799706254758882"><ele>2402</ele><speed>11.98</speed><time>2016-07-09T16:17:52Z</time><pdop>6.0</pdop><geoidheight>50.80</geoidheight><course>272.52005</course><type>1</type></trkpt>
      <trkpt lat="39.26056003487342" lon="-5.7999763667230235"><ele>2399</ele><speed>12.07</speed><time>2016-07-09T16:17:54Z</time><pdop>6.0</pdop><geoidheight>50.80</geoidheight><course>270.28912</course><type>1</type></trkpt>
      <trkpt lat="39.260560342283895" lon="-5.800122974231679"><ele>2398</ele><speed>12.32</speed><time>2016-07-09T16:17:55Z</time><pdop>6.0</pdop><geoidheight>50.80</geoidheight><course>269.57483</course><type>1</type></trkpt>
      <trkpt lat="39.26056079083689" lon="-5.800268201803966"><ele>2397</ele><speed>12.24</speed><time>2016-07-09T16:17:56Z</time><pdop>6.0</pdop><geoidheight>50.80</geoidheight><course>271.16202</course><type>1</type></trkpt>
      <trkpt lat="39.26058424967285" lon="-5.800536711625078"><ele>2395</ele><speed>10.96</speed><time>2016-07-09T16:17:58Z</time><pdop>6.0</pdop><geoidheight>50.80</geoidheight><course>277.73407</course><type>1</type></trkpt>
      <trkpt lat="39.26061794087931" lon="-5.800771590786394"><ele>2392</ele><speed>10.85</speed><time>2016-07-09T16:18:00Z</time><pdop>6.0</pdop><geoidheight>50.80</geoidheight><course>278.36246</course><type>1</type></trkpt>
      <trkpt lat="39.260643937405206" lon="-5.801040019833232"><ele>2388</ele><speed>12.83</speed><time>2016-07-09T16:18:03Z</time><pdop>6.0</pdop><geoidheight>50.80</geoidheight><course>275.50034</course><type>1</type></trkpt>
      <trkpt lat="39.260655993902965" lon="-5.801185413421838"><ele>2387</ele><speed>13.36</speed><time>2016-07-09T16:18:03Z</time><pdop>6.0</pdop><geoidheight>50.80</geoidheight><course>275.01318</course><type>1</type></trkpt>
      <trkpt lat="39.26066788198103" lon="-5.801333808549714"><ele>2385</ele><speed>12.57</speed><time>2016-07-09T16:18:04Z</time><pdop>6.0</pdop><geoidheight>50.80</geoidheight><course>274.52585</course><type>1</type></trkpt>
      <trkpt lat="39.260675443532236" lon="-5.801594027999295"><ele>2382</ele><speed>8.88</speed><time>2016-07-09T16:18:06Z</time><pdop>8.0</pdop><geoidheight>50.80</geoidheight><course>271.8938</course><type>1</type></trkpt>
      <trkpt lat="39.26066848127041" lon="-5.801824831750924"><ele>2380</ele><speed>9.58</speed><time>2016-07-09T16:18:08Z</time><pdop>6.0</pdop><geoidheight>50.80</geoidheight><course>269.5668</course><type>1</type></trkpt>
      <trkpt lat="39.26067938264632" lon="-5.802051036889099"><ele>2377</ele><speed>10.36</speed><time>2016-07-09T16:18:10Z</time><pdop>6.0</pdop><geoidheight>50.80</geoidheight><course>275.40112</course><type>1</type></trkpt>
      <trkpt lat="39.260703140899274" lon="-5.8022511208363845"><ele>2374</ele><speed>8.58</speed><time>2016-07-09T16:18:12Z</time><pdop>6.0</pdop><geoidheight>50.80</geoidheight><course>274.93964</course><type>1</type></trkpt>
      <trkpt lat="39.2607188509041" lon="-5.802442763349034"><ele>2371</ele><speed>9.43</speed><time>2016-07-09T16:18:14Z</time><pdop>6.0</pdop><geoidheight>50.80</geoidheight><course>273.42938</course><type>1</type></trkpt>
      <trkpt lat="39.260741758168365" lon="-5.802685747543441"><ele>2368</ele><speed>10.70</speed><time>2016-07-09T16:18:16Z</time><pdop>6.0</pdop><geoidheight>50.80</geoidheight><course>276.69788</course><type>1</type></trkpt>
      <trkpt lat="39.26076632811981" lon="-5.8029235810977715"><ele>2366</ele><speed>9.96</speed><time>2016-07-09T16:18:18Z</time><pdop>6.0</pdop><geoidheight>50.80</geoidheight><course>275.7441</course><type>1</type></trkpt>
      <trkpt lat="39.26077835250066" lon="-5.803136733820622"><ele>2365</ele><speed>9.37</speed><time>2016-07-09T16:18:20Z</time><pdop>6.0</pdop><geoidheight>50.80</geoidheight><course>274.9253</course><type>1</type></trkpt>
      <trkpt lat="39.26080744733788" lon="-5.803380940783332"><ele>2363</ele><speed>11.35</speed><time>2016-07-09T16:18:22Z</time><pdop>6.0</pdop><geoidheight>50.80</geoidheight><course>279.4546</course><type>1</type></trkpt>
      <trkpt lat="39.260825916325864" lon="-5.803520360207428"><ele>2362</ele><speed>11.77</speed><time>2016-07-09T16:18:23Z</time><pdop>6.0</pdop><geoidheight>50.80</geoidheight><course>279.80725</course><type>1</type></trkpt>
      <trkpt lat="39.26084162659068" lon="-5.803661001082774"><ele>2362</ele><speed>10.54</speed><time>2016-07-09T16:18:24Z</time><pdop>6.0</pdop><geoidheight>50.80</geoidheight><course>278.32382</course><type>1</type></trkpt>
      <trkpt lat="39.2608603682586" lon="-5.803868182820006"><ele>2361</ele><speed>8.39</speed><time>2016-07-09T16:18:26Z</time><pdop>6.0</pdop><geoidheight>50.80</geoidheight><course>277.61462</course><type>1</type></trkpt>
      <trkpt lat="39.260877747710836" lon="-5.8040833631467175"><ele>2361</ele><speed>10.29</speed><time>2016-07-09T16:18:28Z</time><pdop>6.0</pdop><geoidheight>50.80</geoidheight><course>277.62918</course><type>1</type></trkpt>
      <trkpt lat="39.260898455540456" lon="-5.804327923710031"><ele>2359</ele><speed>11.68</speed><time>2016-07-09T16:18:30Z</time><pdop>6.0</pdop><geoidheight>50.80</geoidheight><course>275.44733</course><type>1</type></trkpt>
      <trkpt lat="39.26090726060715" lon="-5.804468407003837"><ele>2358</ele><speed>12.02</speed><time>2016-07-09T16:18:31Z</time><pdop>6.0</pdop><geoidheight>50.80</geoidheight><course>274.6851</course><type>1</type></trkpt>
      <trkpt lat="39.26091638074484" lon="-5.804611014942822"><ele>2357</ele><speed>11.98</speed><time>2016-07-09T16:18:32Z</time><pdop>6.0</pdop><geoidheight>50.80</geoidheight><course>275.9072</course><type>1</type></trkpt>
      <trkpt lat="39.26093012457197" lon="-5.80475561722483"><ele>2356</ele><speed>12.23</speed><time>2016-07-09T16:18:33Z</time><pdop>6.0</pdop><geoidheight>50.80</geoidheight><course>277.22296</course><type>1</type></trkpt>
      <trkpt lat="39.260947754510376" lon="-5.804898103272367"><ele>2355</ele><speed>12.43</speed><time>2016-07-09T16:18:34Z</time><pdop>6.0</pdop><geoidheight>50.80</geoidheight><course>278.4017</course><type>1</type></trkpt>
      <trkpt lat="39.26096926461515" lon="-5.805041034301152"><ele>2354</ele><speed>12.56</speed><time>2016-07-09T16:18:35Z</time><pdop>6.0</pdop><geoidheight>50.80</geoidheight><course>279.84445</course><type>1</type></trkpt>
      <trkpt lat="39.260993047524614" lon="-5.805178463762549"><ele>2353</ele><speed>12.17</speed><time>2016-07-09T16:18:36Z</time><pdop>6.0</pdop><geoidheight>50.80</geoidheight><course>281.0927</course><type>1</type></trkpt>
      <trkpt lat="39.26103900465592" lon="-5.80542903850662"><ele>2351</ele><speed>11.32</speed><time>2016-07-09T16:18:38Z</time><pdop>6.0</pdop><geoidheight>50.80</geoidheight><course>280.1344</course><type>1</type></trkpt>
      <trkpt lat="39.261085553557045" lon="-5.8056852938331325"><ele>2348</ele><speed>11.53</speed><time>2016-07-09T16:18:40Z</time><pdop>12.0</pdop><geoidheight>50.80</geoidheight><course>281.0183</course><type>1</type></trkpt>
      <trkpt lat="39.261127310533176" lon="-5.805943332841704"><ele>2346</ele><speed>10.28</speed><time>2016-07-09T16:18:42Z</time><pdop>6.0</pdop><geoidheight>50.80</geoidheight><course>280.93738</course><type>1</type></trkpt>
      <trkpt lat="39.2611550579848" lon="-5.806175178668186"><ele>2343</ele><speed>10.74</speed><time>2016-07-09T16:18:45Z</time><pdop>8.0</pdop><geoidheight>50.80</geoidheight><course>278.7414</course><type>1</type></trkpt>
      <trkpt lat="39.26118505299612" lon="-5.8064161142988535"><ele>2339</ele><speed>12.00</speed><time>2016-07-09T16:18:46Z</time><pdop>8.0</pdop><geoidheight>50.80</geoidheight><course>281.25452</course><type>1</type></trkpt>
      <trkpt lat="39.26123075369412" lon="-5.806674349443664"><ele>2337</ele><speed>10.25</speed><time>2016-07-09T16:18:48Z</time><pdop>6.0</pdop><geoidheight>50.80</geoidheight><course>281.89047</course><type>1</type></trkpt>
      <trkpt lat="39.26125831872811" lon="-5.806900004343118"><ele>2337</ele><speed>10.20</speed><time>2016-07-09T16:18:50Z</time><pdop>6.0</pdop><geoidheight>50.80</geoidheight><course>277.7456</course><type>1</type></trkpt>
      <trkpt lat="39.26128684625592" lon="-5.807153374296477"><ele>2337</ele><speed>10.64</speed><time>2016-07-09T16:18:52Z</time><pdop>6.0</pdop><geoidheight>50.80</geoidheight><course>279.86575</course><type>1</type></trkpt>
      <trkpt lat="39.26133171555779" lon="-5.807414868583064"><ele>2337</ele><speed>11.25</speed><time>2016-07-09T16:18:54Z</time><pdop>6.0</pdop><geoidheight>50.80</geoidheight><course>283.20535</course><type>1</type></trkpt>
      <trkpt lat="39.26138379759375" lon="-5.807678622149949"><ele>2337</ele><speed>11.75</speed><time>2016-07-09T16:18:56Z</time><pdop>8.0</pdop><geoidheight>50.80</geoidheight><course>282.69333</course><type>1</type></trkpt>
      <trkpt lat="39.2614338981496" lon="-5.8079389035863755"><ele>2338</ele><speed>11.45</speed><time>2016-07-09T16:18:59Z</time><pdop>6.0</pdop><geoidheight>50.80</geoidheight><course>283.7329</course><type>1</type></trkpt>
      <trkpt lat="39.261487355077854" lon="-5.808189663348726"><ele>2339</ele><speed>11.67</speed><time>2016-07-09T16:19:00Z</time><pdop>6.0</pdop><geoidheight>50.80</geoidheight><course>284.82278</course><type>1</type></trkpt>
      <trkpt lat="39.26151555024075" lon="-5.808324392860212"><ele>2339</ele><speed>11.96</speed><time>2016-07-09T16:19:01Z</time><pdop>6.0</pdop><geoidheight>50.80</geoidheight><course>284.32956</course><type>1</type></trkpt>
      <trkpt lat="39.2615682513879" lon="-5.808585043774936"><ele>2340</ele><speed>11.74</speed><time>2016-07-09T16:19:03Z</time><pdop>6.0</pdop><geoidheight>50.80</geoidheight><course>284.52304</course><type>1</type></trkpt>
      <trkpt lat="39.26162369426285" lon="-5.8088412388701816"><ele>2339</ele><speed>11.40</speed><time>2016-07-09T16:19:05Z</time><pdop>6.0</pdop><geoidheight>50.80</geoidheight><course>285.58893</course><type>1</type></trkpt>
      <trkpt lat="39.26168123065747" lon="-5.809095400827582"><ele>2339</ele><speed>11.75</speed><time>2016-07-09T16:19:07Z</time><pdop>6.0</pdop><geoidheight>50.80</geoidheight><course>285.86972</course><type>1</type></trkpt>
      <trkpt lat="39.26174178911244" lon="-5.809354056565807"><ele>2338</ele><speed>12.13</speed><time>2016-07-09T16:19:09Z</time><pdop>6.0</pdop><geoidheight>50.80</geoidheight><course>286.32193</course><type>1</type></trkpt>
      <trkpt lat="39.26181176817751" lon="-5.80961169826853"><ele>2338</ele><speed>12.38</speed><time>2016-07-09T16:19:11Z</time><pdop>6.0</pdop><geoidheight>50.80</geoidheight><course>287.9248</course><type>1</type></trkpt>
      <trkpt lat="39.26185214210776" lon="-5.809746382657168"><ele>2338</ele><speed>12.30</speed><time>2016-07-09T16:19:12Z</time><pdop>6.0</pdop><geoidheight>50.80</geoidheight><course>289.12256</course><type>1</type></trkpt>
      <trkpt lat="39.261890942880086" lon="-5.8098781693119"><ele>2338</ele><speed>11.77</speed><time>2016-07-09T16:19:13Z</time><pdop>6.0</pdop><geoidheight>50.80</geoidheight><course>289.48795</course><type>1</type></trkpt>
      <trkpt lat="39.261958530396385" lon="-5.810122103688676"><ele>2338</ele><speed>11.05</speed><time>2016-07-09T16:19:15Z</time><pdop>6.0</pdop><geoidheight>50.80</geoidheight><course>287.98044</course><type>1</type></trkpt>
      <trkpt lat="39.26202509986533" lon="-5.810379809382753"><ele>2336</ele><speed>12.98</speed><time>2016-07-09T16:19:17Z</time><pdop>6.0</pdop><geoidheight>50.80</geoidheight><course>287.4494</course><type>1</type></trkpt>
      <trkpt lat="39.26206437292816" lon="-5.810529462681129"><ele>2335</ele><speed>13.64</speed><time>2016-07-09T16:19:18Z</time><pdop>6.0</pdop><geoidheight>50.80</geoidheight><course>288.2374</course><type>1</type></trkpt>
      <trkpt lat="39.262101028267324" lon="-5.810678965841327"><ele>2334</ele><speed>13.90</speed><time>2016-07-09T16:19:19Z</time><pdop>6.0</pdop><geoidheight>50.80</geoidheight><course>286.7872</course><type>1</type></trkpt>
      <trkpt lat="39.26211108003224" lon="-5.810828454249469"><ele>2332</ele><speed>13.22</speed><time>2016-07-09T16:19:20Z</time><pdop>6.0</pdop><geoidheight>50.80</geoidheight><course>273.93167</course><type>1</type></trkpt>
      <trkpt lat="39.262114897898904" lon="-5.810968803685896"><ele>2331</ele><speed>11.30</speed><time>2016-07-09T16:19:21Z</time><pdop>6.0</pdop><geoidheight>50.80</geoidheight><course>270.29</course><type>1</type></trkpt>
      <trkpt lat="39.262126146324576" lon="-5.8112070268713945"><ele>2328</ele><speed>11.50</speed><time>2016-07-09T16:19:23Z</time><pdop>8.0</pdop><geoidheight>50.80</geoidheight><course>280.97928</course><type>1</type></trkpt>
      <trkpt lat="39.26217806526895" lon="-5.811474876083719"><ele>2320</ele><speed>10.69</speed><time>2016-07-09T16:19:27Z</time><pdop>6.0</pdop><geoidheight>50.80</geoidheight><course>286.73627</course><type>1</type></trkpt>
      <trkpt lat="39.26223077937902" lon="-5.811717475155074"><ele>2313</ele><speed>12.87</speed><time>2016-07-09T16:19:28Z</time><pdop>6.0</pdop><geoidheight>50.80</geoidheight><course>285.40912</course><type>1</type></trkpt>
      <trkpt lat="39.26228743318908" lon="-5.811975938532834"><ele>2306</ele><speed>10.58</speed><time>2016-07-09T16:19:30Z</time><pdop>8.0</pdop><geoidheight>50.80</geoidheight><course>285.36996</course><type>1</type></trkpt>
      <trkpt lat="39.26235620798318" lon="-5.812195953029056"><ele>2298</ele><speed>10.51</speed><time>2016-07-09T16:19:32Z</time><pdop>8.0</pdop><geoidheight>50.80</geoidheight><course>289.3501</course><type>1</type></trkpt>
      <trkpt lat="39.262436025167894" lon="-5.81243163520984"><ele>2288</ele><speed>13.64</speed><time>2016-07-09T16:19:34Z</time><pdop>6.0</pdop><geoidheight>50.80</geoidheight><course>290.88593</course><type>1</type></trkpt>
      <trkpt lat="39.26251686595409" lon="-5.812687346154289"><ele>2277</ele><speed>14.14</speed><time>2016-07-09T16:19:36Z</time><pdop>6.0</pdop><geoidheight>50.80</geoidheight><course>289.55676</course><type>1</type></trkpt>
      <trkpt lat="39.26258774085162" lon="-5.812927168731651"><ele>2267</ele><speed>10.74</speed><time>2016-07-09T16:19:38Z</time><pdop>6.0</pdop><geoidheight>50.80</geoidheight><course>288.20645</course><type>1</type></trkpt>
      <trkpt lat="39.26264069165865" lon="-5.81316557868596"><ele>2256</ele><speed>10.68</speed><time>2016-07-09T16:19:41Z</time><pdop>6.0</pdop><geoidheight>50.80</geoidheight><course>283.2171</course><type>1</type></trkpt>
      <trkpt lat="39.26267470006292" lon="-5.813408322578659"><ele>2245</ele><speed>12.31</speed><time>2016-07-09T16:19:42Z</time><pdop>12.0</pdop><geoidheight>50.80</geoidheight><course>278.65115</course><type>1</type></trkpt>
      <trkpt lat="39.2627094613055" lon="-5.813665632873074"><ele>2235</ele><speed>10.28</speed><time>2016-07-09T16:19:44Z</time><pdop>6.0</pdop><geoidheight>50.80</geoidheight><course>281.8697</course><type>1</type></trkpt>
      <trkpt lat="39.262746450876456" lon="-5.813862019105926"><ele>2226</ele><speed>8.77</speed><time>2016-07-09T16:19:46Z</time><pdop>8.0</pdop><geoidheight>50.80</geoidheight><course>282.20712</course><type>1</type></trkpt>
      <trkpt lat="39.26279225498214" lon="-5.814137989720126"><ele>2214</ele><speed>10.29</speed><time>2016-07-09T16:19:49Z</time><pdop>8.0</pdop><geoidheight>50.80</geoidheight><course>285.02527</course><type>1</type></trkpt>
      <trkpt lat="39.26284354019845" lon="-5.8143570227710955"><ele>2205</ele><speed>11.42</speed><time>2016-07-09T16:19:51Z</time><pdop>6.0</pdop><geoidheight>50.80</geoidheight><course>286.08972</course><type>1</type></trkpt>
      <trkpt lat="39.26288401656186" lon="-5.814586331403561"><ele>2195</ele><speed>11.51</speed><time>2016-07-09T16:19:53Z</time><pdop>6.0</pdop><geoidheight>50.80</geoidheight><course>282.30118</course><type>1</type></trkpt>
      <trkpt lat="39.26292035318139" lon="-5.814807298322154"><ele>2185</ele><speed>10.77</speed><time>2016-07-09T16:19:55Z</time><pdop>6.0</pdop><geoidheight>50.80</geoidheight><course>282.6987</course><type>1</type></trkpt>
      <trkpt lat="39.26296167910598" lon="-5.815052741719914"><ele>2174</ele><speed>12.35</speed><time>2016-07-09T16:19:58Z</time><pdop>6.0</pdop><geoidheight>50.80</geoidheight><course>279.7546</course><type>1</type></trkpt>
      <trkpt lat="39.262986106442284" lon="-5.815299769018235"><ele>2164</ele><speed>11.49</speed><time>2016-07-09T16:19:59Z</time><pdop>8.0</pdop><geoidheight>50.80</geoidheight><course>276.005</course><type>1</type></trkpt>
      <trkpt lat="39.263000925086445" lon="-5.815548779038545"><ele>2153</ele><speed>10.01</speed><time>2016-07-09T16:20:02Z</time><pdop>8.0</pdop><geoidheight>50.80</geoidheight><course>274.5741</course><type>1</type></trkpt>
      <trkpt lat="39.263006620562656" lon="-5.815806397874731"><ele>2142</ele><speed>13.45</speed><time>2016-07-09T16:20:03Z</time><pdop>8.0</pdop><geoidheight>50.80</geoidheight><course>272.69226</course><type>1</type></trkpt>
      <trkpt lat="39.263000027706425" lon="-5.816066704288526"><ele>2131</ele><speed>12.92</speed><time>2016-07-09T16:20:05Z</time><pdop>8.0</pdop><geoidheight>50.80</geoidheight><course>268.94794</course><type>1</type></trkpt>
      <trkpt lat="39.262976276490626" lon="-5.816320265552804"><ele>2121</ele><speed>12.25</speed><time>2016-07-09T16:20:07Z</time><pdop>8.0</pdop><geoidheight>50.80</geoidheight><course>265.19513</course><type>1</type></trkpt>
      <trkpt lat="39.262948393139496" lon="-5.816604361545914"><ele>2111</ele><speed>14.90</speed><time>2016-07-09T16:20:09Z</time><pdop>8.0</pdop><geoidheight>50.80</geoidheight><course>265.07837</course><type>1</type></trkpt>
      <trkpt lat="39.262933830880314" lon="-5.816882949134824"><ele>2101</ele><speed>12.34</speed><time>2016-07-09T16:20:11Z</time><pdop>8.0</pdop><geoidheight>50.80</geoidheight><course>267.47717</course><type>1</type></trkpt>
      <trkpt lat="39.262940309623644" lon="-5.817110065442305"><ele>2093</ele><speed>9.65</speed><time>2016-07-09T16:20:13Z</time><pdop>6.0</pdop><geoidheight>50.80</geoidheight><course>272.10593</course><type>1</type></trkpt>
      <trkpt lat="39.262951188326355" lon="-5.817287600395704"><ele>2083</ele><speed>9.65</speed><time>2016-07-09T16:20:16Z</time><pdop>6.0</pdop><geoidheight>50.80</geoidheight><course>273.12408</course><type>1</type></trkpt>
      <trkpt lat="39.26297379164392" lon="-5.817505179745854"><ele>2073</ele><speed>10.85</speed><time>2016-07-09T16:20:17Z</time><pdop>8.0</pdop><geoidheight>50.80</geoidheight><course>276.05667</course><type>1</type></trkpt>
      <trkpt lat="39.263020556649494" lon="-5.8177391702666705"><ele>2063</ele><speed>10.54</speed><time>2016-07-09T16:20:19Z</time><pdop>8.0</pdop><geoidheight>50.80</geoidheight><course>282.2764</course><type>1</type></trkpt>
      <trkpt lat="39.263074603474344" lon="-5.817965512458365"><ele>2055</ele><speed>10.01</speed><time>2016-07-09T16:20:21Z</time><pdop>8.0</pdop><geoidheight>50.80</geoidheight><course>285.0999</course><type>1</type></trkpt>
      <trkpt lat="39.263132926177896" lon="-5.818182243272983"><ele>2047</ele><speed>10.00</speed><time>2016-07-09T16:20:23Z</time><pdop>8.0</pdop><geoidheight>50.80</geoidheight><course>286.65363</course><type>1</type></trkpt>
      <trkpt lat="39.26320090159728" lon="-5.8184261378216995"><ele>2041</ele><speed>10.86</speed><time>2016-07-09T16:20:25Z</time><pdop>6.0</pdop><geoidheight>50.80</geoidheight><course>287.90564</course><type>1</type></trkpt>
      <trkpt lat="39.26327279726959" lon="-5.81866494660822"><ele>2036</ele><speed>10.50</speed><time>2016-07-09T16:20:27Z</time><pdop>6.0</pdop><geoidheight>50.80</geoidheight><course>288.37857</course><type>1</type></trkpt>
      <trkpt lat="39.26333150038837" lon="-5.818880044059352"><ele>2031</ele><speed>9.65</speed><time>2016-07-09T16:20:30Z</time><pdop>6.0</pdop><geoidheight>50.80</geoidheight><course>287.1419</course><type>1</type></trkpt>
      <trkpt lat="39.26337841940435" lon="-5.81909802973521"><ele>2026</ele><speed>10.52</speed><time>2016-07-09T16:20:31Z</time><pdop>6.0</pdop><geoidheight>50.80</geoidheight><course>285.1466</course><type>1</type></trkpt>
      <trkpt lat="39.26343927176238" lon="-5.819344291579708"><ele>2018</ele><speed>13.21</speed><time>2016-07-09T16:20:33Z</time><pdop>6.0</pdop><geoidheight>50.80</geoidheight><course>287.66592</course><type>1</type></trkpt>
      <trkpt lat="39.26348401734389" lon="-5.819486248939175"><ele>2014</ele><speed>13.86</speed><time>2016-07-09T16:20:34Z</time><pdop>6.0</pdop><geoidheight>50.80</geoidheight><course>289.9408</course><type>1</type></trkpt>
      <trkpt lat="39.2635297483665" lon="-5.819633770629708"><ele>2010</ele><speed>13.16</speed><time>2016-07-09T16:20:35Z</time><pdop>6.0</pdop><geoidheight>50.80</geoidheight><course>290.2891</course><type>1</type></trkpt>
      <trkpt lat="39.26357171791165" lon="-5.819766468050001"><ele>2007</ele><speed>11.52</speed><time>2016-07-09T16:20:36Z</time><pdop>6.0</pdop><geoidheight>50.80</geoidheight><course>289.57275</course><type>1</type></trkpt>
      <trkpt lat="39.26362735824732" lon="-5.819941050818466"><ele>1999</ele><speed>10.26</speed><time>2016-07-09T16:20:38Z</time><pdop>6.0</pdop><geoidheight>50.80</geoidheight><course>291.423</course><type>1</type></trkpt>
      <trkpt lat="39.26369796798424" lon="-5.820143967578533"><ele>1990</ele><speed>12.01</speed><time>2016-07-09T16:20:40Z</time><pdop>6.0</pdop><geoidheight>50.80</geoidheight><course>293.4883</course><type>1</type></trkpt>
      <trkpt lat="39.263783336557246" lon="-5.820399604091984"><ele>1981</ele><speed>12.51</speed><time>2016-07-09T16:20:42Z</time><pdop>12.0</pdop><geoidheight>50.80</geoidheight><course>291.65085</course><type>1</type></trkpt>
      <trkpt lat="39.26385818413552" lon="-5.820646590572803"><ele>1972</ele><speed>11.00</speed><time>2016-07-09T16:20:44Z</time><pdop>8.0</pdop><geoidheight>50.80</geoidheight><course>289.39343</course><type>1</type></trkpt>
      <trkpt lat="39.263904813154404" lon="-5.820861207404813"><ele>1964</ele><speed>10.89</speed><time>2016-07-09T16:20:47Z</time><pdop>8.0</pdop><geoidheight>50.80</geoidheight><course>284.18777</course><type>1</type></trkpt>
      <trkpt lat="39.26394503897537" lon="-5.8211139375909715"><ele>1956</ele><speed>11.99</speed><time>2016-07-09T16:20:48Z</time><pdop>8.0</pdop><geoidheight>50.80</geoidheight><course>279.83826</course><type>1</type></trkpt>
      <trkpt lat="39.2639879166288" lon="-5.821377658909506"><ele>1948</ele><speed>12.09</speed><time>2016-07-09T16:20:50Z</time><pdop>8.0</pdop><geoidheight>50.80</geoidheight><course>280.50842</course><type>1</type></trkpt>
      <trkpt lat="39.26403853627892" lon="-5.821637742143422"><ele>1940</ele><speed>11.98</speed><time>2016-07-09T16:20:52Z</time><pdop>8.0</pdop><geoidheight>50.80</geoidheight><course>282.61176</course><type>1</type></trkpt>
      <trkpt lat="39.26409228666718" lon="-5.82190364390861"><ele>1933</ele><speed>11.97</speed><time>2016-07-09T16:20:54Z</time><pdop>8.0</pdop><geoidheight>50.80</geoidheight><course>282.63245</course><type>1</type></trkpt>
      <trkpt lat="39.2641383403757" lon="-5.822170699690747"><ele>1926</ele><speed>12.18</speed><time>2016-07-09T16:20:56Z</time><pdop>8.0</pdop><geoidheight>50.80</geoidheight><course>282.576</course><type>1</type></trkpt>
      <trkpt lat="39.26418405839217" lon="-5.822435635226402"><ele>1919</ele><speed>12.04</speed><time>2016-07-09T16:20:58Z</time><pdop>8.0</pdop><geoidheight>50.80</geoidheight><course>282.7312</course><type>1</type></trkpt>
      <trkpt lat="39.2642348431306" lon="-5.822702343595997"><ele>1912</ele><speed>11.85</speed><time>2016-07-09T16:21:00Z</time><pdop>8.0</pdop><geoidheight>50.80</geoidheight><course>283.66702</course><type>1</type></trkpt>
      <trkpt lat="39.26428825904255" lon="-5.8229679963717125"><ele>1905</ele><speed>12.89</speed><time>2016-07-09T16:21:02Z</time><pdop>8.0</pdop><geoidheight>50.80</geoidheight><course>284.6259</course><type>1</type></trkpt>
      <trkpt lat="39.26434089709515" lon="-5.82323642979943"><ele>1898</ele><speed>12.67</speed><time>2016-07-09T16:21:04Z</time><pdop>8.0</pdop><geoidheight>50.80</geoidheight><course>283.62393</course><type>1</type></trkpt>
      <trkpt lat="39.26438434809326" lon="-5.823506509276557"><ele>1891</ele><speed>12.43</speed><time>2016-07-09T16:21:06Z</time><pdop>8.0</pdop><geoidheight>50.80</geoidheight><course>281.1316</course><type>1</type></trkpt>
      <trkpt lat="39.26442343765986" lon="-5.8237782571052685"><ele>1883</ele><speed>12.35</speed><time>2016-07-09T16:21:08Z</time><pdop>8.0</pdop><geoidheight>50.80</geoidheight><course>279.78033</course><type>1</type></trkpt>
      <trkpt lat="39.26445987173347" lon="-5.824052372414927"><ele>1876</ele><speed>12.32</speed><time>2016-07-09T16:21:10Z</time><pdop>8.0</pdop><geoidheight>50.80</geoidheight><course>278.58963</course><type>1</type></trkpt>
      <trkpt lat="39.26449321592041" lon="-5.824328591061486"><ele>1869</ele><speed>12.43</speed><time>2016-07-09T16:21:12Z</time><pdop>8.0</pdop><geoidheight>50.80</geoidheight><course>278.89566</course><type>1</type></trkpt>
      <trkpt lat="39.26453010776239" lon="-5.82461179766403"><ele>1861</ele><speed>13.03</speed><time>2016-07-09T16:21:14Z</time><pdop>8.0</pdop><geoidheight>50.80</geoidheight><course>278.69205</course><type>1</type></trkpt>
      <trkpt lat="39.26456921378736" lon="-5.824900793371152"><ele>1854</ele><speed>12.99</speed><time>2016-07-09T16:21:16Z</time><pdop>8.0</pdop><geoidheight>50.80</geoidheight><course>278.6242</course><type>1</type></trkpt>
      <trkpt lat="39.26460983777111" lon="-5.82518229001362"><ele>1847</ele><speed>12.50</speed><time>2016-07-09T16:21:18Z</time><pdop>8.0</pdop><geoidheight>50.80</geoidheight><course>278.9958</course><type>1</type></trkpt>
      <trkpt lat="39.2646522181437" lon="-5.825463341821106"><ele>1841</ele><speed>12.69</speed><time>2016-07-09T16:21:20Z</time><pdop>8.0</pdop><geoidheight>50.80</geoidheight><course>279.8866</course><type>1</type></trkpt>
      <trkpt lat="39.26470233174109" lon="-5.82574292299179"><ele>1834</ele><speed>12.62</speed><time>2016-07-09T16:21:22Z</time><pdop>8.0</pdop><geoidheight>50.80</geoidheight><course>281.42734</course><type>1</type></trkpt>
      <trkpt lat="39.26475695070126" lon="-5.826021253364165"><ele>1827</ele><speed>12.71</speed><time>2016-07-09T16:21:24Z</time><pdop>8.0</pdop><geoidheight>50.80</geoidheight><course>282.73672</course><type>1</type></trkpt>
      <trkpt lat="39.26481620360503" lon="-5.8263004188435135"><ele>1821</ele><speed>12.94</speed><time>2016-07-09T16:21:26Z</time><pdop>8.0</pdop><geoidheight>50.80</geoidheight><course>283.55734</course><type>1</type></trkpt>
      <trkpt lat="39.26488160908016" lon="-5.8265819297692545"><ele>1814</ele><speed>13.11</speed><time>2016-07-09T16:21:28Z</time><pdop>8.0</pdop><geoidheight>50.80</geoidheight><course>284.16763</course><type>1</type></trkpt>
      <trkpt lat="39.264945209881986" lon="-5.826863098602287"><ele>1808</ele><speed>12.89</speed><time>2016-07-09T16:21:30Z</time><pdop>8.0</pdop><geoidheight>50.80</geoidheight><course>284.23386</course><type>1</type></trkpt>
      <trkpt lat="39.26500542678087" lon="-5.827145859206351"><ele>1802</ele><speed>13.04</speed><time>2016-07-09T16:21:32Z</time><pdop>8.0</pdop><geoidheight>50.80</geoidheight><course>283.1834</course><type>1</type></trkpt>
      <trkpt lat="39.26506089192427" lon="-5.827433909276654"><ele>1796</ele><speed>13.52</speed><time>2016-07-09T16:21:34Z</time><pdop>8.0</pdop><geoidheight>50.80</geoidheight><course>281.89615</course><type>1</type></trkpt>
      <trkpt lat="39.26511465157328" lon="-5.8277292622519505"><ele>1790</ele><speed>13.31</speed><time>2016-07-09T16:21:36Z</time><pdop>8.0</pdop><geoidheight>50.80</geoidheight><course>281.76532</course><type>1</type></trkpt>
      <trkpt lat="39.265164927267136" lon="-5.828023565438067"><ele>1784</ele><speed>13.36</speed><time>2016-07-09T16:21:38Z</time><pdop>8.0</pdop><geoidheight>50.80</geoidheight><course>280.48724</course><type>1</type></trkpt>
      <trkpt lat="39.26521734336639" lon="-5.82832444869428"><ele>1779</ele><speed>13.85</speed><time>2016-07-09T16:21:40Z</time><pdop>8.0</pdop><geoidheight>50.80</geoidheight><course>282.0273</course><type>1</type></trkpt>
      <trkpt lat="39.265284264006034" lon="-5.828623918060131"><ele>1774</ele><speed>13.17</speed><time>2016-07-09T16:21:42Z</time><pdop>8.0</pdop><geoidheight>50.80</geoidheight><course>284.9604</course><type>1</type></trkpt>
      <trkpt lat="39.265351853792" lon="-5.828903051908203"><ele>1770</ele><speed>12.47</speed><time>2016-07-09T16:21:44Z</time><pdop>8.0</pdop><geoidheight>50.80</geoidheight><course>285.69766</course><type>1</type></trkpt>
      <trkpt lat="39.2654175710212" lon="-5.829181433097474"><ele>1766</ele><speed>13.15</speed><time>2016-07-09T16:21:46Z</time><pdop>8.0</pdop><geoidheight>50.80</geoidheight><course>285.08374</course><type>1</type></trkpt>
      <trkpt lat="39.26549154246588" lon="-5.829478725942078"><ele>1762</ele><speed>14.13</speed><time>2016-07-09T16:21:48Z</time><pdop>8.0</pdop><geoidheight>50.80</geoidheight><course>286.91904</course><type>1</type></trkpt>
      <trkpt lat="39.2655858847873" lon="-5.829775672406838"><ele>1758</ele><speed>13.48</speed><time>2016-07-09T16:21:50Z</time><pdop>8.0</pdop><geoidheight>50.80</geoidheight><course>291.01913</course><type>1</type></trkpt>
      <trkpt lat="39.26567786700881" lon="-5.830048998159695"><ele>1756</ele><speed>12.26</speed><time>2016-07-09T16:21:52Z</time><pdop>8.0</pdop><geoidheight>50.80</geoidheight><course>290.43057</course><type>1</type></trkpt>
      <trkpt lat="39.26574650849821" lon="-5.830312776151798"><ele>1755</ele><speed>12.22</speed><time>2016-07-09T16:21:54Z</time><pdop>8.0</pdop><geoidheight>50.80</geoidheight><course>286.74915</course><type>1</type></trkpt>
      <trkpt lat="39.26580828270005" lon="-5.830580518693814"><ele>1754</ele><speed>12.01</speed><time>2016-07-09T16:21:56Z</time><pdop>8.0</pdop><geoidheight>50.80</geoidheight><course>287.30087</course><type>1</type></trkpt>
      <trkpt lat="39.265872066728" lon="-5.83081055175866"><ele>1753</ele><speed>9.51</speed><time>2016-07-09T16:21:58Z</time><pdop>6.0</pdop><geoidheight>50.80</geoidheight><course>289.9825</course><type>1</type></trkpt>
      <trkpt lat="39.26592513053991" lon="-5.83100907290835"><ele>1753</ele><speed>8.83</speed><time>2016-07-09T16:22:00Z</time><pdop>6.0</pdop><geoidheight>50.80</geoidheight><course>287.73975</course><type>1</type></trkpt>
      <trkpt lat="39.26599149258" lon="-5.831245069614773"><ele>1753</ele><speed>11.49</speed><time>2016-07-09T16:22:02Z</time><pdop>6.0</pdop><geoidheight>50.80</geoidheight><course>288.94366</course><type>1</type></trkpt>
      <trkpt lat="39.26605366690954" lon="-5.831468265950167"><ele>1752</ele><speed>10.18</speed><time>2016-07-09T16:22:04Z</time><pdop>6.0</pdop><geoidheight>50.80</geoidheight><course>289.1897</course><type>1</type></trkpt>
      <trkpt lat="39.26610492549625" lon="-5.831676284692157"><ele>1751</ele><speed>9.42</speed><time>2016-07-09T16:22:06Z</time><pdop>8.0</pdop><geoidheight>50.80</geoidheight><course>286.36612</course><type>1</type></trkpt>
      <trkpt lat="39.26615739171304" lon="-5.831905011949244"><ele>1751</ele><speed>10.72</speed><time>2016-07-09T16:22:08Z</time><pdop>6.0</pdop><geoidheight>50.80</geoidheight><course>286.22217</course><type>1</type></trkpt>
      <trkpt lat="39.26621093577791" lon="-5.832138566640504"><ele>1750</ele><speed>10.37</speed><time>2016-07-09T16:22:11Z</time><pdop>6.0</pdop><geoidheight>50.80</geoidheight><course>286.6404</course><type>1</type></trkpt>
      <trkpt lat="39.26625541648367" lon="-5.8323504473035115"><ele>1750</ele><speed>8.27</speed><time>2016-07-09T16:22:12Z</time><pdop>8.0</pdop><geoidheight>50.80</geoidheight><course>282.70456</course><type>1</type></trkpt>
      <trkpt lat="39.266276182862235" lon="-5.832535054515621"><ele>1751</ele><speed>8.36</speed><time>2016-07-09T16:22:14Z</time><pdop>8.0</pdop><geoidheight>50.80</geoidheight><course>278.64847</course><type>1</type></trkpt>
      <trkpt lat="39.26630142551961" lon="-5.832769245792119"><ele>1751</ele><speed>12.04</speed><time>2016-07-09T16:22:16Z</time><pdop>8.0</pdop><geoidheight>50.80</geoidheight><course>279.4182</course><type>1</type></trkpt>
      <trkpt lat="39.266333947100684" lon="-5.83301766165438"><ele>1751</ele><speed>9.71</speed><time>2016-07-09T16:22:18Z</time><pdop>8.0</pdop><geoidheight>50.80</geoidheight><course>279.35825</course><type>1</type></trkpt>
      <trkpt lat="39.26635649346721" lon="-5.833220195813949"><ele>1752</ele><speed>7.11</speed><time>2016-07-09T16:22:20Z</time><pdop>8.0</pdop><geoidheight>50.80</geoidheight><course>279.15652</course><type>1</type></trkpt>
      <trkpt lat="39.266372000958754" lon="-5.833406852499895"><ele>1753</ele><speed>8.72</speed><time>2016-07-09T16:22:22Z</time><pdop>6.0</pdop><geoidheight>50.80</geoidheight><course>279.60913</course><type>1</type></trkpt>
      <trkpt lat="39.26640854487395" lon="-5.833640487898837"><ele>1752</ele><speed>11.23</speed><time>2016-07-09T16:22:24Z</time><pdop>6.0</pdop><geoidheight>50.80</geoidheight><course>281.64468</course><type>1</type></trkpt>
      <trkpt lat="39.26644799920331" lon="-5.833871038169418"><ele>1751</ele><speed>9.04</speed><time>2016-07-09T16:22:26Z</time><pdop>6.0</pdop><geoidheight>50.80</geoidheight><course>282.80127</course><type>1</type></trkpt>
      <trkpt lat="39.26647737719941" lon="-5.834058395496681"><ele>1751</ele><speed>8.16</speed><time>2016-07-09T16:22:29Z</time><pdop>6.0</pdop><geoidheight>50.80</geoidheight><course>281.3851</course><type>1</type></trkpt>
      <trkpt lat="39.266506783893185" lon="-5.8342631255946"><ele>1750</ele><speed>9.86</speed><time>2016-07-09T16:22:30Z</time><pdop>6.0</pdop><geoidheight>50.80</geoidheight><course>280.20047</course><type>1</type></trkpt>
      <trkpt lat="39.26652832451303" lon="-5.8344866516719405"><ele>1748</ele><speed>9.85</speed><time>2016-07-09T16:22:32Z</time><pdop>6.0</pdop><geoidheight>50.80</geoidheight><course>276.4105</course><type>1</type></trkpt>
      <trkpt lat="39.26653788521162" lon="-5.834723683292589"><ele>1748</ele><speed>9.68</speed><time>2016-07-09T16:22:34Z</time><pdop>6.0</pdop><geoidheight>50.80</geoidheight><course>272.01797</course><type>1</type></trkpt>
      <trkpt lat="39.266545332666716" lon="-5.834946068862652"><ele>1747</ele><speed>9.73</speed><time>2016-07-09T16:22:36Z</time><pdop>6.0</pdop><geoidheight>50.80</geoidheight><course>273.73447</course><type>1</type></trkpt>
      <trkpt lat="39.2665637927006" lon="-5.835158890805457"><ele>1747</ele><speed>9.66</speed><time>2016-07-09T16:22:38Z</time><pdop>6.0</pdop><geoidheight>50.80</geoidheight><course>276.55328</course><type>1</type></trkpt>
      <trkpt lat="39.266575685106815" lon="-5.835337998786814"><ele>1746</ele><speed>6.30</speed><time>2016-07-09T16:22:40Z</time><pdop>8.0</pdop><geoidheight>50.80</geoidheight><course>274.46008</course><type>1</type></trkpt>
      <trkpt lat="39.266614031147355" lon="-5.835595036353896"><ele>1742</ele><speed>7.77</speed><time>2016-07-09T16:22:44Z</time><pdop>8.0</pdop><geoidheight>50.80</geoidheight><course>289.29608</course><type>1</type></trkpt>
      <trkpt lat="39.26670601363687" lon="-5.835837456934217"><ele>1738</ele><speed>8.31</speed><time>2016-07-09T16:22:46Z</time><pdop>8.0</pdop><geoidheight>50.80</geoidheight><course>296.28616</course><type>1</type></trkpt>
      <trkpt lat="39.26679386157837" lon="-5.836062380287663"><ele>1737</ele><speed>7.38</speed><time>2016-07-09T16:22:49Z</time><pdop>8.0</pdop><geoidheight>50.80</geoidheight><course>293.3786</course><type>1</type></trkpt>
      <trkpt lat="39.26686608055631" lon="-5.836239205700923"><ele>1735</ele><speed>6.15</speed><time>2016-07-09T16:22:53Z</time><pdop>8.0</pdop><geoidheight>50.80</geoidheight><course>296.953</course><type>1</type></trkpt>
      <trkpt lat="39.26694656274834" lon="-5.836457345081238"><ele>1733</ele><speed>7.69</speed><time>2016-07-09T16:22:56Z</time><pdop>6.0</pdop><geoidheight>50.80</geoidheight><course>290.30792</course><type>1</type></trkpt>
      <trkpt lat="39.26698558383759" lon="-5.836604453525309"><ele>1733</ele><speed>6.11</speed><time>2016-07-09T16:22:57Z</time><pdop>4.0</pdop><geoidheight>50.80</geoidheight><course>288.70648</course><type>1</type></trkpt>
      <trkpt lat="39.26702540849781" lon="-5.836734469246708"><ele>1733</ele><speed>6.13</speed><time>2016-07-09T16:22:59Z</time><pdop>4.0</pdop><geoidheight>50.80</geoidheight><course>294.1677</course><type>1</type></trkpt>
      <trkpt lat="39.267077558847745" lon="-5.836867500894482"><ele>1733</ele><speed>6.95</speed><time>2016-07-09T16:23:01Z</time><pdop>8.0</pdop><geoidheight>50.80</geoidheight><course>299.00992</course><type>1</type></trkpt>
      <trkpt lat="39.267182916935205" lon="-5.837123428964658"><ele>1730</ele><speed>8.74</speed><time>2016-07-09T16:23:04Z</time><pdop>8.0</pdop><geoidheight>50.80</geoidheight><course>297.8427</course><type>1</type></trkpt>
      <trkpt lat="39.267277501241814" lon="-5.837349383537374"><ele>1727</ele><speed>5.98</speed><time>2016-07-09T16:23:08Z</time><pdop>8.0</pdop><geoidheight>50.80</geoidheight><course>301.90604</course><type>1</type></trkpt>
      <trkpt lat="39.2673683244723" lon="-5.837499496413132"><ele>1720</ele><speed>7.55</speed><time>2016-07-09T16:23:10Z</time><pdop>8.0</pdop><geoidheight>50.80</geoidheight><course>307.3469</course><type>1</type></trkpt>
      <trkpt lat="39.26749180926117" lon="-5.837711355131553"><ele>1713</ele><speed>7.33</speed><time>2016-07-09T16:23:14Z</time><pdop>8.0</pdop><geoidheight>50.80</geoidheight><course>302.27063</course><type>1</type></trkpt>
      <trkpt lat="39.26758538414604" lon="-5.837931625790766"><ele>1708</ele><speed>6.96</speed><time>2016-07-09T16:23:16Z</time><pdop>8.0</pdop><geoidheight>50.80</geoidheight><course>297.1689</course><type>1</type></trkpt>
      <trkpt lat="39.26765680533472" lon="-5.838167152849755"><ele>1703</ele><speed>9.36</speed><time>2016-07-09T16:23:19Z</time><pdop>8.0</pdop><geoidheight>50.80</geoidheight><course>289.54303</course><type>1</type></trkpt>
      <trkpt lat="39.26769441014563" lon="-5.838363483241243"><ele>1698</ele><speed>8.80</speed><time>2016-07-09T16:23:21Z</time><pdop>6.0</pdop><geoidheight>50.80</geoidheight><course>285.25763</course><type>1</type></trkpt>
      <trkpt lat="39.26773110429622" lon="-5.838565200424202"><ele>1694</ele><speed>8.24</speed><time>2016-07-09T16:23:23Z</time><pdop>8.0</pdop><geoidheight>50.80</geoidheight><course>283.1839</course><type>1</type></trkpt>
      <trkpt lat="39.26775869013806" lon="-5.838754885994498"><ele>1690</ele><speed>8.66</speed><time>2016-07-09T16:23:25Z</time><pdop>6.0</pdop><geoidheight>50.80</geoidheight><course>281.42407</course><type>1</type></trkpt>
      <trkpt lat="39.267789681263785" lon="-5.8389309139037415"><ele>1685</ele><speed>7.45</speed><time>2016-07-09T16:23:27Z</time><pdop>6.0</pdop><geoidheight>50.80</geoidheight><course>285.27243</course><type>1</type></trkpt>
      <trkpt lat="39.26782114263531" lon="-5.839092973716509"><ele>1682</ele><speed>7.46</speed><time>2016-07-09T16:23:29Z</time><pdop>8.0</pdop><geoidheight>50.80</geoidheight><course>283.0499</course><type>1</type></trkpt>
      <trkpt lat="39.267846237921205" lon="-5.8393597041602945"><ele>1675</ele><speed>8.48</speed><time>2016-07-09T16:23:32Z</time><pdop>8.0</pdop><geoidheight>50.80</geoidheight><course>276.64484</course><type>1</type></trkpt>
      <trkpt lat="39.267862334877066" lon="-5.839557688209944"><ele>1671</ele><speed>7.69</speed><time>2016-07-09T16:23:34Z</time><pdop>6.0</pdop><geoidheight>50.80</geoidheight><course>277.83768</course><type>1</type></trkpt>
      <trkpt lat="39.26787556820594" lon="-5.839742078334633"><ele>1667</ele><speed>8.82</speed><time>2016-07-09T16:23:36Z</time><pdop>6.0</pdop><geoidheight>50.80</geoidheight><course>273.27856</course><type>1</type></trkpt>
      <trkpt lat="39.2678766838542" lon="-5.8399356007191825"><ele>1661</ele><speed>9.55</speed><time>2016-07-09T16:23:39Z</time><pdop>6.0</pdop><geoidheight>50.80</geoidheight><course>270.2314</course><type>1</type></trkpt>
      <trkpt lat="39.267882344306116" lon="-5.840130881228623"><ele>1654</ele><speed>8.81</speed><time>2016-07-09T16:23:40Z</time><pdop>6.0</pdop><geoidheight>50.80</geoidheight><course>273.77563</course><type>1</type></trkpt>
      <trkpt lat="39.26790591320426" lon="-5.840303768892328"><ele>1648</ele><speed>8.38</speed><time>2016-07-09T16:23:42Z</time><pdop>6.0</pdop><geoidheight>50.80</geoidheight><course>278.2425</course><type>1</type></trkpt>
      <trkpt lat="39.267938580538136" lon="-5.840483782368883"><ele>1642</ele><speed>8.28</speed><time>2016-07-09T16:23:44Z</time><pdop>6.0</pdop><geoidheight>50.80</geoidheight><course>280.20926</course><type>1</type></trkpt>
      <trkpt lat="39.26798101705193" lon="-5.840672922595806"><ele>1635</ele><speed>8.96</speed><time>2016-07-09T16:23:46Z</time><pdop>6.0</pdop><geoidheight>50.80</geoidheight><course>283.36896</course><type>1</type></trkpt>
      <trkpt lat="39.26802877724692" lon="-5.840854381178129"><ele>1630</ele><speed>8.44</speed><time>2016-07-09T16:23:48Z</time><pdop>6.0</pdop><geoidheight>50.80</geoidheight><course>285.2405</course><type>1</type></trkpt>
      <trkpt lat="39.26807681208265" lon="-5.841019332748188"><ele>1624</ele><speed>7.89</speed><time>2016-07-09T16:23:50Z</time><pdop>8.0</pdop><geoidheight>50.80</geoidheight><course>285.1332</course><type>1</type></trkpt>
      <trkpt lat="39.268134492497836" lon="-5.841199550488937"><ele>1619</ele><speed>8.23</speed><time>2016-07-09T16:23:53Z</time><pdop>8.0</pdop><geoidheight>50.80</geoidheight><course>290.06778</course><type>1</type></trkpt>
      <trkpt lat="39.2682287460678" lon="-5.841340967384327"><ele>1613</ele><speed>8.01</speed><time>2016-07-09T16:23:54Z</time><pdop>8.0</pdop><geoidheight>50.80</geoidheight><course>308.55066</course><type>1</type></trkpt>
      <trkpt lat="39.268358970421524" lon="-5.841549983443776"><ele>1605</ele><speed>8.36</speed><time>2016-07-09T16:23:57Z</time><pdop>6.0</pdop><geoidheight>50.80</geoidheight><course>305.57236</course><type>1</type></trkpt>
      <trkpt lat="39.268447969692744" lon="-5.841695468430224"><ele>1600</ele><speed>9.11</speed><time>2016-07-09T16:23:59Z</time><pdop>8.0</pdop><geoidheight>50.80</geoidheight><course>307.91306</course><type>1</type></trkpt>
      <trkpt lat="39.26856474482505" lon="-5.841874325261225"><ele>1594</ele><speed>10.28</speed><time>2016-07-09T16:24:01Z</time><pdop>8.0</pdop><geoidheight>50.80</geoidheight><course>311.12427</course><type>1</type></trkpt>
      <trkpt lat="39.268696980277404" lon="-5.842053539147218"><ele>1589</ele><speed>10.67</speed><time>2016-07-09T16:24:03Z</time><pdop>8.0</pdop><geoidheight>50.80</geoidheight><course>313.30518</course><type>1</type></trkpt>
      <trkpt lat="39.268816024889205" lon="-5.842203970380341"><ele>1586</ele><speed>10.45</speed><time>2016-07-09T16:24:05Z</time><pdop>8.0</pdop><geoidheight>50.80</geoidheight><course>313.3914</course><type>1</type></trkpt>
      <trkpt lat="39.26893769693677" lon="-5.842352484208547"><ele>1581</ele><speed>11.07</speed><time>2016-07-09T16:24:07Z</time><pdop>8.0</pdop><geoidheight>50.80</geoidheight><course>314.5253</course><type>1</type></trkpt>
      <trkpt lat="39.26907864695411" lon="-5.842518953356222"><ele>1577</ele><speed>11.00</speed><time>2016-07-09T16:24:09Z</time><pdop>8.0</pdop><geoidheight>50.80</geoidheight><course>314.7633</course><type>1</type></trkpt>
      <trkpt lat="39.26922801482145" lon="-5.842694963698273"><ele>1573</ele><speed>10.85</speed><time>2016-07-09T16:24:12Z</time><pdop>8.0</pdop><geoidheight>50.80</geoidheight><course>314.3281</course><type>1</type></trkpt>
      <trkpt lat="39.26937636282605" lon="-5.842858492233924"><ele>1568</ele><speed>11.22</speed><time>2016-07-09T16:24:13Z</time><pdop>8.0</pdop><geoidheight>50.80</geoidheight><course>316.39047</course><type>1</type></trkpt>
      <trkpt lat="39.26953390760906" lon="-5.8430235704911775"><ele>1562</ele><speed>11.23</speed><time>2016-07-09T16:24:15Z</time><pdop>8.0</pdop><geoidheight>50.80</geoidheight><course>317.98288</course><type>1</type></trkpt>
      <trkpt lat="39.26967837138831" lon="-5.843161819493979"><ele>1557</ele><speed>9.35</speed><time>2016-07-09T16:24:17Z</time><pdop>8.0</pdop><geoidheight>50.80</geoidheight><course>320.27734</course><type>1</type></trkpt>
      <trkpt lat="39.269818376402476" lon="-5.843299645894332"><ele>1552</ele><speed>10.26</speed><time>2016-07-09T16:24:19Z</time><pdop>8.0</pdop><geoidheight>50.80</geoidheight><course>318.49655</course><type>1</type></trkpt>
      <trkpt lat="39.269957782456935" lon="-5.843464261903713"><ele>1547</ele><speed>10.79</speed><time>2016-07-09T16:24:21Z</time><pdop>8.0</pdop><geoidheight>50.80</geoidheight><course>316.76883</course><type>1</type></trkpt>
      <trkpt lat="39.270089109309495" lon="-5.84362013175271"><ele>1542</ele><speed>9.81</speed><time>2016-07-09T16:24:23Z</time><pdop>8.0</pdop><geoidheight>50.80</geoidheight><course>316.425</course><type>1</type></trkpt>
      <trkpt lat="39.2702150854008" lon="-5.843775312723894"><ele>1536</ele><speed>9.79</speed><time>2016-07-09T16:24:25Z</time><pdop>8.0</pdop><geoidheight>50.80</geoidheight><course>315.4921</course><type>1</type></trkpt>
      <trkpt lat="39.270342330726216" lon="-5.843940522813236"><ele>1531</ele><speed>10.80</speed><time>2016-07-09T16:24:27Z</time><pdop>8.0</pdop><geoidheight>50.80</geoidheight><course>314.84808</course><type>1</type></trkpt>
      <trkpt lat="39.27047423849049" lon="-5.844123610670959"><ele>1526</ele><speed>10.80</speed><time>2016-07-09T16:24:29Z</time><pdop>8.0</pdop><geoidheight>50.80</geoidheight><course>311.8107</course><type>1</type></trkpt>
      <trkpt lat="39.27059430283047" lon="-5.8442997267882335"><ele>1520</ele><speed>10.46</speed><time>2016-07-09T16:24:31Z</time><pdop>8.0</pdop><geoidheight>50.80</geoidheight><course>311.38464</course><type>1</type></trkpt>
      <trkpt lat="39.2707140072374" lon="-5.844467313520916"><ele>1513</ele><speed>10.10</speed><time>2016-07-09T16:24:33Z</time><pdop>8.0</pdop><geoidheight>50.80</geoidheight><course>311.30423</course><type>1</type></trkpt>
      <trkpt lat="39.27083177809401" lon="-5.844633898008593"><ele>1506</ele><speed>10.82</speed><time>2016-07-09T16:24:35Z</time><pdop>8.0</pdop><geoidheight>50.80</geoidheight><course>310.44543</course><type>1</type></trkpt>
      <trkpt lat="39.27095603952733" lon="-5.844813452450885"><ele>1499</ele><speed>11.54</speed><time>2016-07-09T16:24:37Z</time><pdop>8.0</pdop><geoidheight>50.80</geoidheight><course>311.21136</course><type>1</type></trkpt>
      <trkpt lat="39.27109115850096" lon="-5.844994616819127"><ele>1493</ele><speed>10.65</speed><time>2016-07-09T16:24:39Z</time><pdop>6.0</pdop><geoidheight>50.80</geoidheight><course>312.1991</course><type>1</type></trkpt>
      <trkpt lat="39.27122648575785" lon="-5.845164101202342"><ele>1487</ele><speed>10.13</speed><time>2016-07-09T16:24:41Z</time><pdop>6.0</pdop><geoidheight>50.80</geoidheight><course>313.57034</course><type>1</type></trkpt>
      <trkpt lat="39.27129791039891" lon="-5.84525085212386"><ele>1484</ele><speed>10.59</speed><time>2016-07-09T16:24:42Z</time><pdop>4.0</pdop><geoidheight>50.80</geoidheight><course>313.38828</course><type>1</type></trkpt>
      <trkpt lat="39.27136633711618" lon="-5.845335797933594"><ele>1481</ele><speed>11.19</speed><time>2016-07-09T16:24:43Z</time><pdop>4.0</pdop><geoidheight>50.80</geoidheight><course>312.60403</course><type>1</type></trkpt>
      <trkpt lat="39.27143954473872" lon="-5.845426387737965"><ele>1478</ele><speed>11.34</speed><time>2016-07-09T16:24:44Z</time><pdop>4.0</pdop><geoidheight>50.80</geoidheight><course>313.0046</course><type>1</type></trkpt>
      <trkpt lat="39.27151533573207" lon="-5.845513421627495"><ele>1474</ele><speed>10.95</speed><time>2016-07-09T16:24:45Z</time><pdop>4.0</pdop><geoidheight>50.80</geoidheight><course>314.42352</course><type>1</type></trkpt>
      <trkpt lat="39.271589624811945" lon="-5.845593314446652"><ele>1472</ele><speed>10.35</speed><time>2016-07-09T16:24:46Z</time><pdop>4.0</pdop><geoidheight>50.80</geoidheight><course>315.73773</course><type>1</type></trkpt>
      <trkpt lat="39.27166237660822" lon="-5.845669254664164"><ele>1469</ele><speed>9.99</speed><time>2016-07-09T16:24:47Z</time><pdop>4.0</pdop><geoidheight>50.80</geoidheight><course>316.20096</course><type>1</type></trkpt>
      <trkpt lat="39.27173352998484" lon="-5.845744624261141"><ele>1466</ele><speed>9.92</speed><time>2016-07-09T16:24:48Z</time><pdop>4.0</pdop><geoidheight>50.80</geoidheight><course>314.99252</course><type>1</type></trkpt>
      <trkpt lat="39.27179922808228" lon="-5.845823275100481"><ele>1463</ele><speed>10.33</speed><time>2016-07-09T16:24:49Z</time><pdop>4.0</pdop><geoidheight>50.80</geoidheight><course>313.85956</course><type>1</type></trkpt>
      <trkpt lat="39.271928183198774" lon="-5.845992622927906"><ele>1459</ele><speed>10.40</speed><time>2016-07-09T16:24:51Z</time><pdop>8.0</pdop><geoidheight>50.80</geoidheight><course>312.27457</course><type>1</type></trkpt>
      <trkpt lat="39.27205798657383" lon="-5.846167328417455"><ele>1455</ele><speed>10.24</speed><time>2016-07-09T16:24:53Z</time><pdop>8.0</pdop><geoidheight>50.80</geoidheight><course>312.61908</course><type>1</type></trkpt>
      <trkpt lat="39.27218740865277" lon="-5.846339988579747"><ele>1452</ele><speed>10.04</speed><time>2016-07-09T16:24:55Z</time><pdop>8.0</pdop><geoidheight>50.80</geoidheight><course>314.17758</course><type>1</type></trkpt>
      <trkpt lat="39.27231766320206" lon="-5.846502675567633"><ele>1449</ele><speed>10.78</speed><time>2016-07-09T16:24:57Z</time><pdop>8.0</pdop><geoidheight>50.80</geoidheight><course>315.98358</course><type>1</type></trkpt>
      <trkpt lat="39.27245195499581" lon="-5.846666323947667"><ele>1445</ele><speed>11.37</speed><time>2016-07-09T16:24:59Z</time><pdop>8.0</pdop><geoidheight>50.80</geoidheight><course>315.43143</course><type>1</type></trkpt>
      <trkpt lat="39.2725980316253" lon="-5.846844768075599"><ele>1440</ele><speed>11.77</speed><time>2016-07-09T16:25:01Z</time><pdop>8.0</pdop><geoidheight>50.80</geoidheight><course>313.94537</course><type>1</type></trkpt>
      <trkpt lat="39.272747385801175" lon="-5.847038100934581"><ele>1435</ele><speed>11.52</speed><time>2016-07-09T16:25:04Z</time><pdop>8.0</pdop><geoidheight>50.80</geoidheight><course>314.38382</course><type>1</type></trkpt>
      <trkpt lat="39.27289975130619" lon="-5.847208102332424"><ele>1432</ele><speed>10.34</speed><time>2016-07-09T16:25:05Z</time><pdop>8.0</pdop><geoidheight>50.80</geoidheight><course>318.6749</course><type>1</type></trkpt>
      <trkpt lat="39.27304622801319" lon="-5.847356855022238"><ele>1431</ele><speed>9.80</speed><time>2016-07-09T16:25:07Z</time><pdop>8.0</pdop><geoidheight>50.80</geoidheight><course>320.1766</course><type>1</type></trkpt>
      <trkpt lat="39.27319712036077" lon="-5.84750765356556"><ele>1429</ele><speed>10.48</speed><time>2016-07-09T16:25:09Z</time><pdop>8.0</pdop><geoidheight>50.80</geoidheight><course>320.67484</course><type>1</type></trkpt>
      <trkpt lat="39.273363550243054" lon="-5.847650685487098"><ele>1428</ele><speed>11.24</speed><time>2016-07-09T16:25:12Z</time><pdop>8.0</pdop><geoidheight>50.80</geoidheight><course>325.74622</course><type>1</type></trkpt>
      <trkpt lat="39.27354139112165" lon="-5.847778595444057"><ele>1426</ele><speed>11.20</speed><time>2016-07-09T16:25:13Z</time><pdop>6.0</pdop><geoidheight>50.80</geoidheight><course>328.18927</course><type>1</type></trkpt>
      <trkpt lat="39.27370173099547" lon="-5.84789494387895"><ele>1424</ele><speed>9.73</speed><time>2016-07-09T16:25:15Z</time><pdop>8.0</pdop><geoidheight>50.80</geoidheight><course>326.94693</course><type>1</type></trkpt>
      <trkpt lat="39.273841740718936" lon="-5.848001590957681"><ele>1421</ele><speed>9.66</speed><time>2016-07-09T16:25:17Z</time><pdop>8.0</pdop><geoidheight>50.80</geoidheight><course>325.60867</course><type>1</type></trkpt>
      <trkpt lat="39.2739921498389" lon="-5.848134221650351"><ele>1418</ele><speed>10.12</speed><time>2016-07-09T16:25:19Z</time><pdop>6.0</pdop><geoidheight>50.80</geoidheight><course>323.78644</course><type>1</type></trkpt>
      <trkpt lat="39.274145797043914" lon="-5.848271205403721"><ele>1416</ele><speed>9.49</speed><time>2016-07-09T16:25:21Z</time><pdop>6.0</pdop><geoidheight>50.80</geoidheight><course>324.56674</course><type>1</type></trkpt>
      <trkpt lat="39.274265546056995" lon="-5.848376978434412"><ele>1415</ele><speed>7.07</speed><time>2016-07-09T16:25:23Z</time><pdop>8.0</pdop><geoidheight>50.80</geoidheight><course>323.89212</course><type>1</type></trkpt>
      <trkpt lat="39.274372844222434" lon="-5.848478296974243"><ele>1414</ele><speed>7.81</speed><time>2016-07-09T16:25:25Z</time><pdop>6.0</pdop><geoidheight>50.80</geoidheight><course>322.4099</course><type>1</type></trkpt>
      <trkpt lat="39.2745004562131" lon="-5.84860487752131"><ele>1412</ele><speed>9.81</speed><time>2016-07-09T16:25:27Z</time><pdop>6.0</pdop><geoidheight>50.80</geoidheight><course>321.05896</course><type>1</type></trkpt>
      <trkpt lat="39.27461789145475" lon="-5.848741757616634"><ele>1411</ele><speed>8.57</speed><time>2016-07-09T16:25:29Z</time><pdop>8.0</pdop><geoidheight>50.80</geoidheight><course>317.1609</course><type>1</type></trkpt>
      <trkpt lat="39.27471679690504" lon="-5.848893292578588"><ele>1412</ele><speed>8.34</speed><time>2016-07-09T16:25:31Z</time><pdop>6.0</pdop><geoidheight>50.80</geoidheight><course>310.93326</course><type>1</type></trkpt>
      <trkpt lat="39.27481526191516" lon="-5.849069448497699"><ele>1413</ele><speed>9.00</speed><time>2016-07-09T16:25:33Z</time><pdop>6.0</pdop><geoidheight>50.80</geoidheight><course>309.44348</course><type>1</type></trkpt>
      <trkpt lat="39.27491711247256" lon="-5.849231890046415"><ele>1413</ele><speed>8.73</speed><time>2016-07-09T16:25:35Z</time><pdop>4.0</pdop><geoidheight>50.80</geoidheight><course>311.84967</course><type>1</type></trkpt>
      <trkpt lat="39.27502396879545" lon="-5.849377575448109"><ele>1414</ele><speed>9.01</speed><time>2016-07-09T16:25:37Z</time><pdop>4.0</pdop><geoidheight>50.80</geoidheight><course>314.5407</course><type>1</type></trkpt>
      <trkpt lat="39.27508352880599" lon="-5.849453895954215"><ele>1414</ele><speed>9.22</speed><time>2016-07-09T16:25:38Z</time><pdop>4.0</pdop><geoidheight>50.80</geoidheight><course>315.25137</course><type>1</type></trkpt>
      <trkpt lat="39.275145064416805" lon="-5.849530839897742"><ele>1414</ele><speed>9.14</speed><time>2016-07-09T16:25:39Z</time><pdop>4.0</pdop><geoidheight>50.80</geoidheight><course>314.6002</course><type>1</type></trkpt>
      <trkpt lat="39.27520705318588" lon="-5.849608882732944"><ele>1414</ele><speed>9.04</speed><time>2016-07-09T16:25:40Z</time><pdop>4.0</pdop><geoidheight>50.80</geoidheight><course>315.24057</course><type>1</type></trkpt>
      <trkpt lat="39.27526701904694" lon="-5.849679826718712"><ele>1415</ele><speed>8.92</speed><time>2016-07-09T16:25:41Z</time><pdop>4.0</pdop><geoidheight>50.80</geoidheight><course>316.2348</course><type>1</type></trkpt>
      <trkpt lat="39.275373737390034" lon="-5.849810389554096"><ele>1416</ele><speed>7.68</speed><time>2016-07-09T16:25:44Z</time><pdop>6.0</pdop><geoidheight>50.80</geoidheight><course>316.22214</course><type>1</type></trkpt>
      <trkpt lat="39.27546700072917" lon="-5.849932868148152"><ele>1418</ele><speed>7.84</speed><time>2016-07-09T16:25:46Z</time><pdop>6.0</pdop><geoidheight>50.80</geoidheight><course>313.7998</course><type>1</type></trkpt>
      <trkpt lat="39.275559413769344" lon="-5.850075046704324"><ele>1418</ele><speed>9.12</speed><time>2016-07-09T16:25:47Z</time><pdop>6.0</pdop><geoidheight>50.80</geoidheight><course>311.1947</course><type>1</type></trkpt>
      <trkpt lat="39.275655145614934" lon="-5.8502243064756625"><ele>1418</ele><speed>8.48</speed><time>2016-07-09T16:25:49Z</time><pdop>8.0</pdop><geoidheight>50.80</geoidheight><course>310.64185</course><type>1</type></trkpt>
      <trkpt lat="39.27575305195337" lon="-5.8503866402727205"><ele>1419</ele><speed>7.39</speed><time>2016-07-09T16:25:51Z</time><pdop>8.0</pdop><geoidheight>50.80</geoidheight><course>306.94562</course><type>1</type></trkpt>
      <trkpt lat="39.27584776422589" lon="-5.850535738351616"><ele>1419</ele><speed>9.05</speed><time>2016-07-09T16:25:54Z</time><pdop>8.0</pdop><geoidheight>50.80</geoidheight><course>310.41574</course><type>1</type></trkpt>
      <trkpt lat="39.27596243790673" lon="-5.850690000767444"><ele>1418</ele><speed>9.86</speed><time>2016-07-09T16:25:55Z</time><pdop>8.0</pdop><geoidheight>50.80</geoidheight><course>311.13403</course><type>1</type></trkpt>
      <trkpt lat="39.276062709165835" lon="-5.850844016622999"><ele>1416</ele><speed>7.98</speed><time>2016-07-09T16:25:57Z</time><pdop>8.0</pdop><geoidheight>50.80</geoidheight><course>306.54797</course><type>1</type></trkpt>
      <trkpt lat="39.2761568939003" lon="-5.851003412771462"><ele>1416</ele><speed>8.78</speed><time>2016-07-09T16:25:59Z</time><pdop>8.0</pdop><geoidheight>50.80</geoidheight><course>306.77994</course><type>1</type></trkpt>
      <trkpt lat="39.276292764555365" lon="-5.851154366020185"><ele>1417</ele><speed>9.51</speed><time>2016-07-09T16:26:01Z</time><pdop>8.0</pdop><geoidheight>50.80</geoidheight><course>327.70953</course><type>1</type></trkpt>
      <trkpt lat="39.2764317360302" lon="-5.8512646849991725"><ele>1417</ele><speed>8.71</speed><time>2016-07-09T16:26:03Z</time><pdop>8.0</pdop><geoidheight>50.80</geoidheight><course>327.61118</course><type>1</type></trkpt>
      <trkpt lat="39.27659390532167" lon="-5.8514049430615875"><ele>1416</ele><speed>7.00</speed><time>2016-07-09T16:26:06Z</time><pdop>8.0</pdop><geoidheight>50.80</geoidheight><course>326.82697</course><type>1</type></trkpt>
      <trkpt lat="39.276731761855" lon="-5.851535198716623"><ele>1414</ele><speed>6.98</speed><time>2016-07-09T16:26:10Z</time><pdop>6.0</pdop><geoidheight>50.80</geoidheight><course>322.68243</course><type>1</type></trkpt>
      <trkpt lat="39.27684177236831" lon="-5.85164426413388"><ele>1414</ele><speed>7.47</speed><time>2016-07-09T16:26:11Z</time><pdop>6.0</pdop><geoidheight>50.80</geoidheight><course>323.9101</course><type>1</type></trkpt>
      <trkpt lat="39.27695433194073" lon="-5.851757345247952"><ele>1413</ele><speed>7.16</speed><time>2016-07-09T16:26:13Z</time><pdop>6.0</pdop><geoidheight>50.80</geoidheight><course>321.26083</course><type>1</type></trkpt>
      <trkpt lat="39.277091222349014" lon="-5.851907477309129"><ele>1412</ele><speed>7.19</speed><time>2016-07-09T16:26:16Z</time><pdop>8.0</pdop><geoidheight>50.80</geoidheight><course>315.82864</course><type>1</type></trkpt>
      <trkpt lat="39.27721593981023" lon="-5.852122339548928"><ele>1408</ele><speed>8.07</speed><time>2016-07-09T16:26:19Z</time><pdop>8.0</pdop><geoidheight>50.80</geoidheight><course>306.35568</course><type>1</type></trkpt>
      <trkpt lat="39.277334488870714" lon="-5.852233951802514"><ele>1405</ele><speed>6.80</speed><time>2016-07-09T16:26:21Z</time><pdop>4.0</pdop><geoidheight>50.80</geoidheight><course>324.92227</course><type>1</type></trkpt>
      <trkpt lat="39.27742585535434" lon="-5.852309407867671"><ele>1401</ele><speed>6.61</speed><time>2016-07-09T16:26:23Z</time><pdop>6.0</pdop><geoidheight>50.80</geoidheight><course>326.47296</course><type>1</type></trkpt>
      <trkpt lat="39.277527741093884" lon="-5.852406739312642"><ele>1396</ele><speed>7.94</speed><time>2016-07-09T16:26:25Z</time><pdop>6.0</pdop><geoidheight>50.80</geoidheight><course>323.4723</course><type>1</type></trkpt>
      <trkpt lat="39.277642936380346" lon="-5.8524893500223545"><ele>1392</ele><speed>7.33</speed><time>2016-07-09T16:26:27Z</time><pdop>8.0</pdop><geoidheight>50.80</geoidheight><course>338.8822</course><type>1</type></trkpt>
      <trkpt lat="39.2778171592631" lon="-5.852576126814468"><ele>1387</ele><speed>7.77</speed><time>2016-07-09T16:26:30Z</time><pdop>8.0</pdop><geoidheight>50.80</geoidheight><course>337.33084</course><type>1</type></trkpt>
      <trkpt lat="39.277950158559634" lon="-5.852665825528728"><ele>1383</ele><speed>8.12</speed><time>2016-07-09T16:26:32Z</time><pdop>8.0</pdop><geoidheight>50.80</geoidheight><course>333.5416</course><type>1</type></trkpt>
      <trkpt lat="39.27808634276279" lon="-5.852758310671109"><ele>1380</ele><speed>8.59</speed><time>2016-07-09T16:26:34Z</time><pdop>8.0</pdop><geoidheight>50.80</geoidheight><course>334.37317</course><type>1</type></trkpt>
      <trkpt lat="39.27826222141332" lon="-5.8528936501083315"><ele>1375</ele><speed>7.86</speed><time>2016-07-09T16:26:37Z</time><pdop>8.0</pdop><geoidheight>50.80</geoidheight><course>326.12027</course><type>1</type></trkpt>
      <trkpt lat="39.278427214409355" lon="-5.8530658942358915"><ele>1371</ele><speed>8.23</speed><time>2016-07-09T16:26:40Z</time><pdop>8.0</pdop><geoidheight>50.80</geoidheight><course>323.46906</course><type>1</type></trkpt>
      <trkpt lat="39.27857565108349" lon="-5.853202240861173"><ele>1369</ele><speed>8.86</speed><time>2016-07-09T16:26:43Z</time><pdop>4.0</pdop><geoidheight>50.80</geoidheight><course>323.91403</course><type>1</type></trkpt>
      <trkpt lat="39.278650077882276" lon="-5.853268349588115"><ele>1368</ele><speed>8.55</speed><time>2016-07-09T16:26:43Z</time><pdop>4.0</pdop><geoidheight>50.80</geoidheight><course>324.63312</course><type>1</type></trkpt>
      <trkpt lat="39.278723765283395" lon="-5.853328069713077"><ele>1368</ele><speed>8.27</speed><time>2016-07-09T16:26:45Z</time><pdop>4.0</pdop><geoidheight>50.80</geoidheight><course>325.70706</course><type>1</type></trkpt>
      <trkpt lat="39.2787935920326" lon="-5.853383944829182"><ele>1367</ele><speed>8.12</speed><time>2016-07-09T16:26:46Z</time><pdop>4.0</pdop><geoidheight>50.80</geoidheight><course>326.33914</course><type>1</type></trkpt>
      <trkpt lat="39.27891213443708" lon="-5.8534843361244295"><ele>1365</ele><speed>8.44</speed><time>2016-07-09T16:26:47Z</time><pdop>6.0</pdop><geoidheight>50.80</geoidheight><course>325.42123</course><type>1</type></trkpt>
      <trkpt lat="39.27903356598742" lon="-5.853585670261431"><ele>1361</ele><speed>8.66</speed><time>2016-07-09T16:26:49Z</time><pdop>6.0</pdop><geoidheight>50.80</geoidheight><course>327.77628</course><type>1</type></trkpt>
      <trkpt lat="39.27916356334659" lon="-5.853667485704956"><ele>1357</ele><speed>7.97</speed><time>2016-07-09T16:26:51Z</time><pdop>4.0</pdop><geoidheight>50.80</geoidheight><course>333.85513</course><type>1</type></trkpt>
      <trkpt lat="39.27928855270547" lon="-5.853731178411992"><ele>1354</ele><speed>7.51</speed><time>2016-07-09T16:26:53Z</time><pdop>8.0</pdop><geoidheight>50.80</geoidheight><course>336.40335</course><type>1</type></trkpt>
      <trkpt lat="39.279486005242426" lon="-5.8538189380631485"><ele>1350</ele><speed>8.08</speed><time>2016-07-09T16:26:56Z</time><pdop>8.0</pdop><geoidheight>50.80</geoidheight><course>338.77466</course><type>1</type></trkpt>
      <trkpt lat="39.279680275067825" lon="-5.853887221787764"><ele>1347</ele><speed>7.99</speed><time>2016-07-09T16:27:00Z</time><pdop>8.0</pdop><geoidheight>50.80</geoidheight><course>342.03906</course><type>1</type></trkpt>
      <trkpt lat="39.2798716788331" lon="-5.853969510233197"><ele>1345</ele><speed>7.68</speed><time>2016-07-09T16:27:03Z</time><pdop>8.0</pdop><geoidheight>50.80</geoidheight><course>341.94162</course><type>1</type></trkpt>
      <trkpt lat="39.28001442137117" lon="-5.854031991056166"><ele>1342</ele><speed>8.07</speed><time>2016-07-09T16:27:05Z</time><pdop>8.0</pdop><geoidheight>50.80</geoidheight><course>340.7977</course><type>1</type></trkpt>
      <trkpt lat="39.28022075126429" lon="-5.8541008459377695"><ele>1339</ele><speed>7.56</speed><time>2016-07-09T16:27:08Z</time><pdop>8.0</pdop><geoidheight>50.80</geoidheight><course>347.1309</course><type>1</type></trkpt>
      <trkpt lat="39.28041712292916" lon="-5.854163749030181"><ele>1335</ele><speed>7.80</speed><time>2016-07-09T16:27:11Z</time><pdop>8.0</pdop><geoidheight>50.80</geoidheight><course>342.0316</course><type>1</type></trkpt>
      <trkpt lat="39.28054554858314" lon="-5.854225927629381"><ele>1332</ele><speed>7.99</speed><time>2016-07-09T16:27:13Z</time><pdop>4.0</pdop><geoidheight>50.80</geoidheight><course>340.2271</course><type>1</type></trkpt>
      <trkpt lat="39.28067889091499" lon="-5.8542948931247905"><ele>1328</ele><speed>8.21</speed><time>2016-07-09T16:27:15Z</time><pdop>4.0</pdop><geoidheight>50.80</geoidheight><course>337.67102</course><type>1</type></trkpt>
      <trkpt lat="39.28085839341651" lon="-5.854414586927434"><ele>1322</ele><speed>7.46</speed><time>2016-07-09T16:27:18Z</time><pdop>8.0</pdop><geoidheight>50.80</geoidheight><course>335.30472</course><type>1</type></trkpt>
      <trkpt lat="39.2810482159117" lon="-5.854511888388931"><ele>1316</ele><speed>8.31</speed><time>2016-07-09T16:27:21Z</time><pdop>8.0</pdop><geoidheight>50.80</geoidheight><course>338.77518</course><type>1</type></trkpt>
      <trkpt lat="39.28124012987076" lon="-5.854606891332604"><ele>1311</ele><speed>7.33</speed><time>2016-07-09T16:27:24Z</time><pdop>8.0</pdop><geoidheight>50.80</geoidheight><course>339.66006</course><type>1</type></trkpt>
      <trkpt lat="39.2814347127651" lon="-5.854701099149517"><ele>1306</ele><speed>8.38</speed><time>2016-07-09T16:27:27Z</time><pdop>8.0</pdop><geoidheight>50.80</geoidheight><course>337.65094</course><type>1</type></trkpt>
      <trkpt lat="39.28157170668398" lon="-5.854776680246391"><ele>1302</ele><speed>8.18</speed><time>2016-07-09T16:27:29Z</time><pdop>8.0</pdop><geoidheight>50.80</geoidheight><course>337.9028</course><type>1</type></trkpt>
      <trkpt lat="39.28177496393575" lon="-5.854869190166732"><ele>1296</ele><speed>8.35</speed><time>2016-07-09T16:27:31Z</time><pdop>12.0</pdop><geoidheight>50.80</geoidheight><course>339.61652</course><type>1</type></trkpt>
      <trkpt lat="39.282043375340294" lon="-5.854998126773748"><ele>1289</ele><speed>8.66</speed><time>2016-07-09T16:27:36Z</time><pdop>8.0</pdop><geoidheight>50.80</geoidheight><course>343.10455</course><type>1</type></trkpt>
      <trkpt lat="39.282183541389564" lon="-5.855042711884184"><ele>1286</ele><speed>8.40</speed><time>2016-07-09T16:27:38Z</time><pdop>8.0</pdop><geoidheight>50.80</geoidheight><course>343.74133</course><type>1</type></trkpt>
      <trkpt lat="39.28232340213148" lon="-5.855085909330966"><ele>1283</ele><speed>7.86</speed><time>2016-07-09T16:27:40Z</time><pdop>8.0</pdop><geoidheight>50.80</geoidheight><course>346.5147</course><type>1</type></trkpt>
      <trkpt lat="39.28247220398545" lon="-5.855116979484972"><ele>1279</ele><speed>8.46</speed><time>2016-07-09T16:27:42Z</time><pdop>8.0</pdop><geoidheight>50.80</geoidheight><course>349.1955</course><type>1</type></trkpt>
      <trkpt lat="39.282619627961054" lon="-5.855164584874858"><ele>1274</ele><speed>8.70</speed><time>2016-07-09T16:27:43Z</time><pdop>8.0</pdop><geoidheight>50.80</geoidheight><course>344.29422</course><type>1</type></trkpt>
      <trkpt lat="39.28275691956761" lon="-5.855220765715509"><ele>1271</ele><speed>7.98</speed><time>2016-07-09T16:27:46Z</time><pdop>8.0</pdop><geoidheight>50.80</geoidheight><course>343.334</course><type>1</type></trkpt>
      <trkpt lat="39.282969029142954" lon="-5.855296050568603"><ele>1265</ele><speed>8.56</speed><time>2016-07-09T16:27:49Z</time><pdop>8.0</pdop><geoidheight>50.80</geoidheight><course>344.56216</course><type>1</type></trkpt>
      <trkpt lat="39.28312487233472" lon="-5.855360504171086"><ele>1261</ele><speed>8.87</speed><time>2016-07-09T16:27:51Z</time><pdop>8.0</pdop><geoidheight>50.80</geoidheight><course>341.37134</course><type>1</type></trkpt>
      <trkpt lat="39.28326323897466" lon="-5.855431483497539"><ele>1258</ele><speed>8.27</speed><time>2016-07-09T16:27:53Z</time><pdop>8.0</pdop><geoidheight>50.80</geoidheight><course>338.2403</course><type>1</type></trkpt>
      <trkpt lat="39.28340499940339" lon="-5.8555026878349015"><ele>1255</ele><speed>8.54</speed><time>2016-07-09T16:27:55Z</time><pdop>8.0</pdop><geoidheight>50.80</geoidheight><course>340.5456</course><type>1</type></trkpt>
      <trkpt lat="39.283556169751904" lon="-5.855555869376771"><ele>1253</ele><speed>8.84</speed><time>2016-07-09T16:27:57Z</time><pdop>8.0</pdop><geoidheight>50.80</geoidheight><course>344.8333</course><type>1</type></trkpt>
      <trkpt lat="39.28370121521768" lon="-5.855590717602792"><ele>1250</ele><speed>7.95</speed><time>2016-07-09T16:27:58Z</time><pdop>8.0</pdop><geoidheight>50.80</geoidheight><course>349.27423</course><type>1</type></trkpt>
      <trkpt lat="39.283913422848265" lon="-5.855602791285632"><ele>1246</ele><speed>7.88</speed><time>2016-07-09T16:28:02Z</time><pdop>8.0</pdop><geoidheight>50.80</geoidheight><course>358.1878</course><type>1</type></trkpt>
      <trkpt lat="39.28405881140875" lon="-5.855595351700578"><ele>1244</ele><speed>8.04</speed><time>2016-07-09T16:28:04Z</time><pdop>8.0</pdop><geoidheight>50.80</geoidheight><course>357.80673</course><type>1</type></trkpt>
      <trkpt lat="39.28420286121389" lon="-5.855594436907938"><ele>1242</ele><speed>7.71</speed><time>2016-07-09T16:28:06Z</time><pdop>8.0</pdop><geoidheight>50.80</geoidheight><course>358.97928</course><type>1</type></trkpt>
      <trkpt lat="39.284411668068095" lon="-5.855585595856321"><ele>1239</ele><speed>7.46</speed><time>2016-07-09T16:28:09Z</time><pdop>8.0</pdop><geoidheight>50.80</geoidheight><course>1.8505713</course><type>1</type></trkpt>
      <trkpt lat="39.2845869623658" lon="-5.855574764190521"><ele>1237</ele><speed>5.77</speed><time>2016-07-09T16:28:12Z</time><pdop>8.0</pdop><geoidheight>50.80</geoidheight><course>358.15967</course><type>1</type></trkpt>
      <trkpt lat="39.284759425349144" lon="-5.855583097083623"><ele>1236</ele><speed>8.57</speed><time>2016-07-09T16:28:15Z</time><pdop>8.0</pdop><geoidheight>50.80</geoidheight><course>358.96204</course><type>1</type></trkpt>
      <trkpt lat="39.28490560030121" lon="-5.855594174362159"><ele>1235</ele><speed>8.51</speed><time>2016-07-09T16:28:17Z</time><pdop>8.0</pdop><geoidheight>50.80</geoidheight><course>354.42847</course><type>1</type></trkpt>
      <trkpt lat="39.285087385524584" lon="-5.85565234626461"><ele>1234</ele><speed>7.18</speed><time>2016-07-09T16:28:20Z</time><pdop>8.0</pdop><geoidheight>50.80</geoidheight><course>346.22308</course><type>1</type></trkpt>
      <trkpt lat="39.285234795382536" lon="-5.855699657061481"><ele>1232</ele><speed>9.20</speed><time>2016-07-09T16:28:21Z</time><pdop>8.0</pdop><geoidheight>50.80</geoidheight><course>347.18527</course><type>1</type></trkpt>
      <trkpt lat="39.28538807077169" lon="-5.855753937317204"><ele>1229</ele><speed>8.66</speed><time>2016-07-09T16:28:24Z</time><pdop>8.0</pdop><geoidheight>50.80</geoidheight><course>345.86176</course><type>1</type></trkpt>
      <trkpt lat="39.28556474497233" lon="-5.855819128485942"><ele>1224</ele><speed>7.03</speed><time>2016-07-09T16:28:27Z</time><pdop>8.0</pdop><geoidheight>50.80</geoidheight><course>345.95508</course><type>1</type></trkpt>
      <trkpt lat="39.28571329318952" lon="-5.855873515897308"><ele>1219</ele><speed>9.59</speed><time>2016-07-09T16:28:28Z</time><pdop>8.0</pdop><geoidheight>50.80</geoidheight><course>346.3776</course><type>1</type></trkpt>
      <trkpt lat="39.28586726504087" lon="-5.855911557945681"><ele>1214</ele><speed>8.42</speed><time>2016-07-09T16:28:31Z</time><pdop>8.0</pdop><geoidheight>50.80</geoidheight><course>349.76083</course><type>1</type></trkpt>
      <trkpt lat="39.28607660066691" lon="-5.855938944232723"><ele>1204</ele><speed>8.47</speed><time>2016-07-09T16:28:34Z</time><pdop>8.0</pdop><geoidheight>50.80</geoidheight><course>350.77374</course><type>1</type></trkpt>
      <trkpt lat="39.28622511620921" lon="-5.855968418835951"><ele>1197</ele><speed>8.40</speed><time>2016-07-09T16:28:36Z</time><pdop>8.0</pdop><geoidheight>50.80</geoidheight><course>349.11606</course><type>1</type></trkpt>
      <trkpt lat="39.286421133142355" lon="-5.85603262505276"><ele>1185</ele><speed>6.96</speed><time>2016-07-09T16:28:39Z</time><pdop>8.0</pdop><geoidheight>50.80</geoidheight><course>343.02676</course><type>1</type></trkpt>
      <trkpt lat="39.286607749150086" lon="-5.856127281432501"><ele>1174</ele><speed>8.86</speed><time>2016-07-09T16:28:42Z</time><pdop>8.0</pdop><geoidheight>50.80</geoidheight><course>341.28986</course><type>1</type></trkpt>
      <trkpt lat="39.28675460640275" lon="-5.856187765704003"><ele>1167</ele><speed>8.75</speed><time>2016-07-09T16:28:44Z</time><pdop>8.0</pdop><geoidheight>50.80</geoidheight><course>341.7028</course><type>1</type></trkpt>
      <trkpt lat="39.28695324335921" lon="-5.85629991766059"><ele>1156</ele><speed>8.37</speed><time>2016-07-09T16:28:47Z</time><pdop>8.0</pdop><geoidheight>50.80</geoidheight><course>336.17285</course><type>1</type></trkpt>
      <trkpt lat="39.28715597210245" lon="-5.85640820006939"><ele>1145</ele><speed>8.95</speed><time>2016-07-09T16:28:50Z</time><pdop>12.0</pdop><geoidheight>50.80</geoidheight><course>339.4867</course><type>1</type></trkpt>
      <trkpt lat="39.287351444143425" lon="-5.856489923665993"><ele>1136</ele><speed>8.84</speed><time>2016-07-09T16:28:53Z</time><pdop>8.0</pdop><geoidheight>50.80</geoidheight><course>341.02136</course><type>1</type></trkpt>
      <trkpt lat="39.287490532527734" lon="-5.856544438119042"><ele>1129</ele><speed>8.08</speed><time>2016-07-09T16:28:55Z</time><pdop>8.0</pdop><geoidheight>50.80</geoidheight><course>342.85797</course><type>1</type></trkpt>
      <trkpt lat="39.28764318422882" lon="-5.856586198837496"><ele>1122</ele><speed>8.23</speed><time>2016-07-09T16:28:57Z</time><pdop>8.0</pdop><geoidheight>50.80</geoidheight><course>348.5216</course><type>1</type></trkpt>
      <trkpt lat="39.287808020533326" lon="-5.856618140150363"><ele>1114</ele><speed>8.73</speed><time>2016-07-09T16:28:59Z</time><pdop>8.0</pdop><geoidheight>50.80</geoidheight><course>349.1098</course><type>1</type></trkpt>
      <trkpt lat="39.28796688394328" lon="-5.856669455727434"><ele>1106</ele><speed>8.91</speed><time>2016-07-09T16:29:01Z</time><pdop>8.0</pdop><geoidheight>50.80</geoidheight><course>344.7693</course><type>1</type></trkpt>
      <trkpt lat="39.28810848862664" lon="-5.856730249114218"><ele>1100</ele><speed>8.25</speed><time>2016-07-09T16:29:03Z</time><pdop>8.0</pdop><geoidheight>50.80</geoidheight><course>342.33408</course><type>1</type></trkpt>
      <trkpt lat="39.28824385783469" lon="-5.856793228747426"><ele>1093</ele><speed>8.19</speed><time>2016-07-09T16:29:05Z</time><pdop>8.0</pdop><geoidheight>50.80</geoidheight><course>341.52597</course><type>1</type></trkpt>
      <trkpt lat="39.28838407420188" lon="-5.856851476226254"><ele>1087</ele><speed>8.39</speed><time>2016-07-09T16:29:07Z</time><pdop>8.0</pdop><geoidheight>50.80</geoidheight><course>343.98965</course><type>1</type></trkpt>
      <trkpt lat="39.28853273823626" lon="-5.856895659061016"><ele>1082</ele><speed>8.66</speed><time>2016-07-09T16:29:09Z</time><pdop>8.0</pdop><geoidheight>50.80</geoidheight><course>345.9215</course><type>1</type></trkpt>
      <trkpt lat="39.28868120962844" lon="-5.856948514736235"><ele>1077</ele><speed>9.05</speed><time>2016-07-09T16:29:11Z</time><pdop>8.0</pdop><geoidheight>50.80</geoidheight><course>343.43338</course><type>1</type></trkpt>
      <trkpt lat="39.28882544669342" lon="-5.857008224665824"><ele>1072</ele><speed>8.88</speed><time>2016-07-09T16:29:12Z</time><pdop>8.0</pdop><geoidheight>50.80</geoidheight><course>344.1654</course><type>1</type></trkpt>
      <trkpt lat="39.288981629699826" lon="-5.8570556166262095"><ele>1067</ele><speed>9.92</speed><time>2016-07-09T16:29:15Z</time><pdop>8.0</pdop><geoidheight>50.80</geoidheight><course>345.85513</course><type>1</type></trkpt>
      <trkpt lat="39.289215010867544" lon="-5.857129380652374"><ele>1060</ele><speed>8.57</speed><time>2016-07-09T16:29:18Z</time><pdop>12.0</pdop><geoidheight>50.80</geoidheight><course>342.96368</course><type>1</type></trkpt>
      <trkpt lat="39.2894498038572" lon="-5.857192226524227"><ele>1054</ele><speed>9.79</speed><time>2016-07-09T16:29:21Z</time><pdop>8.0</pdop><geoidheight>50.80</geoidheight><course>349.59152</course><type>1</type></trkpt>
      <trkpt lat="39.28961894280651" lon="-5.857205803230285"><ele>1050</ele><speed>9.06</speed><time>2016-07-09T16:29:23Z</time><pdop>8.0</pdop><geoidheight>50.80</geoidheight><course>355.24847</course><type>1</type></trkpt>
      <trkpt lat="39.289823822313934" lon="-5.857192562001427"><ele>1046</ele><speed>7.93</speed><time>2016-07-09T16:29:26Z</time><pdop>8.0</pdop><geoidheight>50.80</geoidheight><course>357.01038</course><type>1</type></trkpt>
      <trkpt lat="39.29004328247012" lon="-5.857205809532836"><ele>1042</ele><speed>9.71</speed><time>2016-07-09T16:29:29Z</time><pdop>8.0</pdop><geoidheight>50.80</geoidheight><course>355.33032</course><type>1</type></trkpt>
      <trkpt lat="39.29020877647724" lon="-5.857214611501423"><ele>1039</ele><speed>9.16</speed><time>2016-07-09T16:29:31Z</time><pdop>8.0</pdop><geoidheight>50.80</geoidheight><course>357.0188</course><type>1</type></trkpt>
      <trkpt lat="39.290370104872004" lon="-5.857224622545044"><ele>1036</ele><speed>8.59</speed><time>2016-07-09T16:29:33Z</time><pdop>8.0</pdop><geoidheight>50.80</geoidheight><course>355.6305</course><type>1</type></trkpt>
      <trkpt lat="39.290526024465315" lon="-5.857231282548821"><ele>1033</ele><speed>9.37</speed><time>2016-07-09T16:29:35Z</time><pdop>8.0</pdop><geoidheight>50.80</geoidheight><course>358.32388</course><type>1</type></trkpt>
      <trkpt lat="39.29069498084298" lon="-5.857219475199054"><ele>1029</ele><speed>9.55</speed><time>2016-07-09T16:29:37Z</time><pdop>8.0</pdop><geoidheight>50.80</geoidheight><course>1.778748</course><type>1</type></trkpt>
      <trkpt lat="39.29085892586613" lon="-5.857204800978344"><ele>1025</ele><speed>8.80</speed><time>2016-07-09T16:29:39Z</time><pdop>8.0</pdop><geoidheight>50.80</geoidheight><course>3.1856716</course><type>1</type></trkpt>
      <trkpt lat="39.291021162182375" lon="-5.8571780264209075"><ele>1021</ele><speed>10.03</speed><time>2016-07-09T16:29:41Z</time><pdop>8.0</pdop><geoidheight>50.80</geoidheight><course>5.498366</course><type>1</type></trkpt>
      <trkpt lat="39.29119166948645" lon="-5.857163156156889"><ele>1017</ele><speed>10.28</speed><time>2016-07-09T16:29:43Z</time><pdop>8.0</pdop><geoidheight>50.80</geoidheight><course>0.8563941</course><type>1</type></trkpt>
      <trkpt lat="39.29135069069608" lon="-5.857163979116528"><ele>1015</ele><speed>9.23</speed><time>2016-07-09T16:29:45Z</time><pdop>6.0</pdop><geoidheight>50.80</geoidheight><course>0.31293228</course><type>1</type></trkpt>
      <trkpt lat="39.29152886666826" lon="-5.857159600831166"><ele>1012</ele><speed>9.96</speed><time>2016-07-09T16:29:47Z</time><pdop>6.0</pdop><geoidheight>50.80</geoidheight><course>1.3095747</course><type>1</type></trkpt>
      <trkpt lat="39.2917073874313" lon="-5.857173168910979"><ele>1009</ele><speed>9.81</speed><time>2016-07-09T16:29:49Z</time><pdop>8.0</pdop><geoidheight>50.80</geoidheight><course>356.80533</course><type>1</type></trkpt>
      <trkpt lat="39.2918742282685" lon="-5.857199774385272"><ele>1008</ele><speed>8.99</speed><time>2016-07-09T16:29:51Z</time><pdop>6.0</pdop><geoidheight>50.80</geoidheight><course>355.2569</course><type>1</type></trkpt>
      <trkpt lat="39.29206491844614" lon="-5.857225196908553"><ele>1006</ele><speed>11.34</speed><time>2016-07-09T16:29:53Z</time><pdop>6.0</pdop><geoidheight>50.80</geoidheight><course>356.52097</course><type>1</type></trkpt>
      <trkpt lat="39.29224178489619" lon="-5.857246286992484"><ele>1003</ele><speed>10.55</speed><time>2016-07-09T16:29:55Z</time><pdop>6.0</pdop><geoidheight>50.80</geoidheight><course>353.16605</course><type>1</type></trkpt>
      <trkpt lat="39.292402187583306" lon="-5.857276713186422"><ele>1000</ele><speed>10.18</speed><time>2016-07-09T16:29:57Z</time><pdop>6.0</pdop><geoidheight>50.80</geoidheight><course>351.44098</course><type>1</type></trkpt>
      <trkpt lat="39.29257405354537" lon="-5.857298960171165"><ele>997</ele><speed>11.05</speed><time>2016-07-09T16:29:58Z</time><pdop>8.0</pdop><geoidheight>50.80</geoidheight><course>354.7431</course><type>1</type></trkpt>
      <trkpt lat="39.292775531435495" lon="-5.857321288525355"><ele>993</ele><speed>10.52</speed><time>2016-07-09T16:30:01Z</time><pdop>8.0</pdop><geoidheight>50.80</geoidheight><course>355.05856</course><type>1</type></trkpt>
      <trkpt lat="39.29296200894177" lon="-5.857346351288498"><ele>990</ele><speed>10.27</speed><time>2016-07-09T16:30:03Z</time><pdop>8.0</pdop><geoidheight>50.80</geoidheight><course>353.356</course><type>1</type></trkpt>
      <trkpt lat="39.29313908180838" lon="-5.857379759345567"><ele>986</ele><speed>10.22</speed><time>2016-07-09T16:30:05Z</time><pdop>8.0</pdop><geoidheight>50.80</geoidheight><course>354.1718</course><type>1</type></trkpt>
      <trkpt lat="39.29332374032949" lon="-5.85741519288939"><ele>982</ele><speed>10.42</speed><time>2016-07-09T16:30:07Z</time><pdop>8.0</pdop><geoidheight>50.80</geoidheight><course>352.5568</course><type>1</type></trkpt>
      <trkpt lat="39.293499402328365" lon="-5.857454791999822"><ele>978</ele><speed>9.53</speed><time>2016-07-09T16:30:09Z</time><pdop>8.0</pdop><geoidheight>50.80</geoidheight><course>351.6596</course><type>1</type></trkpt>
      <trkpt lat="39.29366688149073" lon="-5.857497999280735"><ele>973</ele><speed>9.90</speed><time>2016-07-09T16:30:11Z</time><pdop>8.0</pdop><geoidheight>50.80</geoidheight><course>349.30713</course><type>1</type></trkpt>
      <trkpt lat="39.29383402541985" lon="-5.857544719534676"><ele>968</ele><speed>9.97</speed><time>2016-07-09T16:30:13Z</time><pdop>8.0</pdop><geoidheight>50.80</geoidheight><course>349.54904</course><type>1</type></trkpt>
      <trkpt lat="39.29400100514153" lon="-5.857568696573103"><ele>962</ele><speed>9.61</speed><time>2016-07-09T16:30:15Z</time><pdop>8.0</pdop><geoidheight>50.80</geoidheight><course>354.36404</course><type>1</type></trkpt>
      <trkpt lat="39.294154511709166" lon="-5.857566350165423"><ele>957</ele><speed>9.54</speed><time>2016-07-09T16:30:17Z</time><pdop>8.0</pdop><geoidheight>50.80</geoidheight><course>357.39</course><type>1</type></trkpt>
      <trkpt lat="39.29431238553998" lon="-5.857556053250015"><ele>951</ele><speed>10.33</speed><time>2016-07-09T16:30:19Z</time><pdop>8.0</pdop><geoidheight>50.80</geoidheight><course>358.44424</course><type>1</type></trkpt>
      <trkpt lat="39.2944641087498" lon="-5.857549305240495"><ele>945</ele><speed>9.20</speed><time>2016-07-09T16:30:21Z</time><pdop>8.0</pdop><geoidheight>50.80</geoidheight><course>358.14307</course><type>1</type></trkpt>
      <trkpt lat="39.294628820207755" lon="-5.857553219226596"><ele>940</ele><speed>10.03</speed><time>2016-07-09T16:30:23Z</time><pdop>8.0</pdop><geoidheight>50.80</geoidheight><course>356.99487</course><type>1</type></trkpt>
      <trkpt lat="39.294807509162986" lon="-5.857560860654788"><ele>934</ele><speed>10.37</speed><time>2016-07-09T16:30:25Z</time><pdop>8.0</pdop><geoidheight>50.80</geoidheight><course>358.14343</course><type>1</type></trkpt>
      <trkpt lat="39.29498321102203" lon="-5.857560835653679"><ele>928</ele><speed>9.89</speed><time>2016-07-09T16:30:27Z</time><pdop>8.0</pdop><geoidheight>50.80</geoidheight><course>359.68005</course><type>1</type></trkpt>
      <trkpt lat="39.29514610816814" lon="-5.857561010659702"><ele>923</ele><speed>9.45</speed><time>2016-07-09T16:30:29Z</time><pdop>8.0</pdop><geoidheight>50.80</geoidheight><course>358.6526</course><type>1</type></trkpt>
      <trkpt lat="39.29530675873359" lon="-5.857559024450847"><ele>918</ele><speed>9.34</speed><time>2016-07-09T16:30:31Z</time><pdop>8.0</pdop><geoidheight>50.80</geoidheight><course>0.4740963</course><type>1</type></trkpt>
      <trkpt lat="39.295467184453564" lon="-5.857541080449564"><ele>914</ele><speed>9.17</speed><time>2016-07-09T16:30:33Z</time><pdop>8.0</pdop><geoidheight>50.80</geoidheight><course>3.3161705</course><type>1</type></trkpt>
      <trkpt lat="39.295627445730375" lon="-5.857525439463927"><ele>910</ele><speed>9.53</speed><time>2016-07-09T16:30:35Z</time><pdop>8.0</pdop><geoidheight>50.80</geoidheight><course>2.1634872</course><type>1</type></trkpt>
      <trkpt lat="39.29580652801921" lon="-5.857515814644917"><ele>905</ele><speed>10.10</speed><time>2016-07-09T16:30:37Z</time><pdop>8.0</pdop><geoidheight>50.80</geoidheight><course>3.4771872</course><type>1</type></trkpt>
      <trkpt lat="39.295992264218576" lon="-5.857498613675621"><ele>902</ele><speed>9.39</speed><time>2016-07-09T16:30:39Z</time><pdop>8.0</pdop><geoidheight>50.80</geoidheight><course>5.24883</course><type>1</type></trkpt>
      <trkpt lat="39.29615798047018" lon="-5.857483664694311"><ele>898</ele><speed>8.95</speed><time>2016-07-09T16:30:41Z</time><pdop>8.0</pdop><geoidheight>50.80</geoidheight><course>3.508022</course><type>1</type></trkpt>
      <trkpt lat="39.296316830207644" lon="-5.857477822694726"><ele>895</ele><speed>9.18</speed><time>2016-07-09T16:30:43Z</time><pdop>8.0</pdop><geoidheight>50.80</geoidheight><course>1.4102795</course><type>1</type></trkpt>
      <trkpt lat="39.29648333882858" lon="-5.857476589022813"><ele>891</ele><speed>10.03</speed><time>2016-07-09T16:30:45Z</time><pdop>8.0</pdop><geoidheight>50.80</geoidheight><course>359.6166</course><type>1</type></trkpt>
      <trkpt lat="39.29664704945397" lon="-5.857478213368699"><ele>886</ele><speed>9.24</speed><time>2016-07-09T16:30:47Z</time><pdop>8.0</pdop><geoidheight>50.80</geoidheight><course>358.07382</course><type>1</type></trkpt>
      <trkpt lat="39.296807757122316" lon="-5.857488967758638"><ele>881</ele><speed>8.97</speed><time>2016-07-09T16:30:49Z</time><pdop>8.0</pdop><geoidheight>50.80</geoidheight><course>356.96335</course><type>1</type></trkpt>
      <trkpt lat="39.2969789714879" lon="-5.857499508217756"><ele>875</ele><speed>9.79</speed><time>2016-07-09T16:30:51Z</time><pdop>8.0</pdop><geoidheight>50.80</geoidheight><course>358.10016</course><type>1</type></trkpt>
      <trkpt lat="39.2971488580432" lon="-5.857506376742391"><ele>870</ele><speed>9.43</speed><time>2016-07-09T16:30:53Z</time><pdop>8.0</pdop><geoidheight>50.80</geoidheight><course>357.107</course><type>1</type></trkpt>
      <trkpt lat="39.29731201459738" lon="-5.857517893947334"><ele>865</ele><speed>9.30</speed><time>2016-07-09T16:30:55Z</time><pdop>8.0</pdop><geoidheight>50.80</geoidheight><course>356.21194</course><type>1</type></trkpt>
      <trkpt lat="39.29747764242173" lon="-5.8575294770962945"><ele>860</ele><speed>10.03</speed><time>2016-07-09T16:30:57Z</time><pdop>8.0</pdop><geoidheight>50.80</geoidheight><course>355.523</course><type>1</type></trkpt>
      <trkpt lat="39.2976514212561" lon="-5.857548943894142"><ele>855</ele><speed>10.46</speed><time>2016-07-09T16:30:59Z</time><pdop>8.0</pdop><geoidheight>50.80</geoidheight><course>354.20255</course><type>1</type></trkpt>
      <trkpt lat="39.2978276143469" lon="-5.857575152201528"><ele>851</ele><speed>10.98</speed><time>2016-07-09T16:31:01Z</time><pdop>8.0</pdop><geoidheight>50.80</geoidheight><course>354.0553</course><type>1</type></trkpt>
      <trkpt lat="39.29801542784319" lon="-5.8575877782502435"><ele>846</ele><speed>11.03</speed><time>2016-07-09T16:31:03Z</time><pdop>8.0</pdop><geoidheight>50.80</geoidheight><course>356.82864</course><type>1</type></trkpt>
      <trkpt lat="39.29820194091816" lon="-5.857576243582018"><ele>841</ele><speed>10.71</speed><time>2016-07-09T16:31:05Z</time><pdop>8.0</pdop><geoidheight>50.80</geoidheight><course>0.9747059</course><type>1</type></trkpt>
      <trkpt lat="39.29839018538022" lon="-5.857559640379373"><ele>836</ele><speed>11.57</speed><time>2016-07-09T16:31:07Z</time><pdop>8.0</pdop><geoidheight>50.80</geoidheight><course>1.3284651</course><type>1</type></trkpt>
      <trkpt lat="39.298579372817784" lon="-5.857546300037505"><ele>831</ele><speed>11.47</speed><time>2016-07-09T16:31:09Z</time><pdop>8.0</pdop><geoidheight>50.80</geoidheight><course>1.4196099</course><type>1</type></trkpt>
      <trkpt lat="39.298762248127396" lon="-5.857537120312601"><ele>826</ele><speed>11.30</speed><time>2016-07-09T16:31:11Z</time><pdop>8.0</pdop><geoidheight>50.80</geoidheight><course>359.9944</course><type>1</type></trkpt>
      <trkpt lat="39.29894105050353" lon="-5.857531607419055"><ele>821</ele><speed>10.98</speed><time>2016-07-09T16:31:12Z</time><pdop>8.0</pdop><geoidheight>50.80</geoidheight><course>0.77502245</course><type>1</type></trkpt>
      <trkpt lat="39.299137307735144" lon="-5.857506703877493"><ele>817</ele><speed>10.80</speed><time>2016-07-09T16:31:15Z</time><pdop>8.0</pdop><geoidheight>50.80</geoidheight><course>5.3011227</course><type>1</type></trkpt>
      <trkpt lat="39.29933935381788" lon="-5.857472775772124"><ele>814</ele><speed>11.00</speed><time>2016-07-09T16:31:17Z</time><pdop>8.0</pdop><geoidheight>50.80</geoidheight><course>5.5868306</course><type>1</type></trkpt>
      <trkpt lat="39.29953198540318" lon="-5.857443296928573"><ele>813</ele><speed>10.90</speed><time>2016-07-09T16:31:19Z</time><pdop>8.0</pdop><geoidheight>50.80</geoidheight><course>4.551888</course><type>1</type></trkpt>
      <trkpt lat="39.299733335666104" lon="-5.857426216494636"><ele>812</ele><speed>11.76</speed><time>2016-07-09T16:31:21Z</time><pdop>8.0</pdop><geoidheight>50.80</geoidheight><course>2.7420163</course><type>1</type></trkpt>
      <trkpt lat="39.299948586532274" lon="-5.857416872126591"><ele>810</ele><speed>12.14</speed><time>2016-07-09T16:31:23Z</time><pdop>8.0</pdop><geoidheight>50.80</geoidheight><course>2.6445854</course><type>1</type></trkpt>
      <trkpt lat="39.30014807461475" lon="-5.857412219072792"><ele>807</ele><speed>11.36</speed><time>2016-07-09T16:31:25Z</time><pdop>8.0</pdop><geoidheight>50.80</geoidheight><course>359.79498</course><type>1</type></trkpt>
      <trkpt lat="39.300326768850745" lon="-5.8574267204469885"><ele>805</ele><speed>11.09</speed><time>2016-07-09T16:31:27Z</time><pdop>8.0</pdop><geoidheight>50.80</geoidheight><course>356.7498</course><type>1</type></trkpt>
      <trkpt lat="39.30051764925708" lon="-5.857432718285793"><ele>803</ele><speed>11.29</speed><time>2016-07-09T16:31:29Z</time><pdop>8.0</pdop><geoidheight>50.80</geoidheight><course>359.97415</course><type>1</type></trkpt>
      <trkpt lat="39.30071257644322" lon="-5.857429929795244"><ele>798</ele><speed>11.37</speed><time>2016-07-09T16:31:31Z</time><pdop>8.0</pdop><geoidheight>50.80</geoidheight><course>359.5911</course><type>1</type></trkpt>
      <trkpt lat="39.300895893631726" lon="-5.857427465895233"><ele>790</ele><speed>11.39</speed><time>2016-07-09T16:31:33Z</time><pdop>8.0</pdop><geoidheight>50.80</geoidheight><course>359.4468</course><type>1</type></trkpt>
      <trkpt lat="39.3010961741329" lon="-5.857418120256049"><ele>783</ele><speed>11.84</speed><time>2016-07-09T16:31:35Z</time><pdop>8.0</pdop><geoidheight>50.80</geoidheight><course>0.9802481</course><type>1</type></trkpt>
      <trkpt lat="39.301299846526064" lon="-5.85741028403043"><ele>778</ele><speed>11.48</speed><time>2016-07-09T16:31:37Z</time><pdop>8.0</pdop><geoidheight>50.80</geoidheight><course>359.6874</course><type>1</type></trkpt>
      <trkpt lat="39.30149650234882" lon="-5.857399184706421"><ele>773</ele><speed>11.67</speed><time>2016-07-09T16:31:39Z</time><pdop>8.0</pdop><geoidheight>50.80</geoidheight><course>1.7450444</course><type>1</type></trkpt>
      <trkpt lat="39.301708279660986" lon="-5.857373682120644"><ele>768</ele><speed>12.21</speed><time>2016-07-09T16:31:41Z</time><pdop>8.0</pdop><geoidheight>50.80</geoidheight><course>3.8431227</course><type>1</type></trkpt>
      <trkpt lat="39.30191073172851" lon="-5.857350613671155"><ele>764</ele><speed>11.21</speed><time>2016-07-09T16:31:43Z</time><pdop>8.0</pdop><geoidheight>50.80</geoidheight><course>2.8492253</course><type>1</type></trkpt>
      <trkpt lat="39.30210510305842" lon="-5.857329363476272"><ele>760</ele><speed>11.33</speed><time>2016-07-09T16:31:45Z</time><pdop>8.0</pdop><geoidheight>50.80</geoidheight><course>3.9046857</course><type>1</type></trkpt>
      <trkpt lat="39.30231130714001" lon="-5.8573020872584864"><ele>757</ele><speed>12.00</speed><time>2016-07-09T16:31:47Z</time><pdop>8.0</pdop><geoidheight>50.80</geoidheight><course>4.9443135</course><type>1</type></trkpt>
      <trkpt lat="39.30251959602143" lon="-5.857278127135737"><ele>755</ele><speed>11.67</speed><time>2016-07-09T16:31:49Z</time><pdop>8.0</pdop><geoidheight>50.80</geoidheight><course>3.864184</course><type>1</type></trkpt>
      <trkpt lat="39.30271282302686" lon="-5.85725340282506"><ele>751</ele><speed>11.67</speed><time>2016-07-09T16:31:51Z</time><pdop>8.0</pdop><geoidheight>50.80</geoidheight><course>2.7730618</course><type>1</type></trkpt>
      <trkpt lat="39.302909974355046" lon="-5.857234039772052"><ele>747</ele><speed>11.97</speed><time>2016-07-09T16:31:53Z</time><pdop>8.0</pdop><geoidheight>50.80</geoidheight><course>2.300363</course><type>1</type></trkpt>
      <trkpt lat="39.30311020799107" lon="-5.857216960397678"><ele>743</ele><speed>11.48</speed><time>2016-07-09T16:31:55Z</time><pdop>8.0</pdop><geoidheight>50.80</geoidheight><course>2.1812313</course><type>1</type></trkpt>
      <trkpt lat="39.30330442599776" lon="-5.857200451338767"><ele>741</ele><speed>10.78</speed><time>2016-07-09T16:31:57Z</time><pdop>8.0</pdop><geoidheight>50.80</geoidheight><course>3.8366094</course><type>1</type></trkpt>
      <trkpt lat="39.303499110281535" lon="-5.857173338814639"><ele>738</ele><speed>10.80</speed><time>2016-07-09T16:31:59Z</time><pdop>8.0</pdop><geoidheight>50.80</geoidheight><course>5.6449456</course><type>1</type></trkpt>
      <trkpt lat="39.30368412080179" lon="-5.8571478763145235"><ele>735</ele><speed>10.99</speed><time>2016-07-09T16:32:00Z</time><pdop>8.0</pdop><geoidheight>50.80</geoidheight><course>4.198453</course><type>1</type></trkpt>
      <trkpt lat="39.30388451101484" lon="-5.857130037088122"><ele>732</ele><speed>11.66</speed><time>2016-07-09T16:32:03Z</time><pdop>8.0</pdop><geoidheight>50.80</geoidheight><course>3.2553551</course><type>1</type></trkpt>
      <trkpt lat="39.304103740479285" lon="-5.857124411729908"><ele>730</ele><speed>12.51</speed><time>2016-07-09T16:32:05Z</time><pdop>8.0</pdop><geoidheight>50.80</geoidheight><course>0.27885273</course><type>1</type></trkpt>
      <trkpt lat="39.30431609469405" lon="-5.857132967404807"><ele>727</ele><speed>11.57</speed><time>2016-07-09T16:32:07Z</time><pdop>12.0</pdop><geoidheight>50.80</geoidheight><course>357.7332</course><type>1</type></trkpt>
      <trkpt lat="39.3045042555101" lon="-5.857146947190863"><ele>724</ele><speed>11.59</speed><time>2016-07-09T16:32:09Z</time><pdop>8.0</pdop><geoidheight>50.80</geoidheight><course>356.11386</course><type>1</type></trkpt>
      <trkpt lat="39.304689550012505" lon="-5.857172940930784"><ele>720</ele><speed>11.84</speed><time>2016-07-09T16:32:10Z</time><pdop>8.0</pdop><geoidheight>50.80</geoidheight><course>353.5759</course><type>1</type></trkpt>
      <trkpt lat="39.30495942813775" lon="-5.857234300865667"><ele>712</ele><speed>10.38</speed><time>2016-07-09T16:32:14Z</time><pdop>12.0</pdop><geoidheight>50.80</geoidheight><course>352.60052</course><type>1</type></trkpt>
      <trkpt lat="39.30517187922497" lon="-5.857259122551886"><ele>706</ele><speed>11.56</speed><time>2016-07-09T16:32:16Z</time><pdop>8.0</pdop><geoidheight>50.80</geoidheight><course>355.99612</course><type>1</type></trkpt>
      <trkpt lat="39.30537455131096" lon="-5.85726127668224"><ele>701</ele><speed>11.37</speed><time>2016-07-09T16:32:18Z</time><pdop>8.0</pdop><geoidheight>50.80</geoidheight><course>358.499</course><type>1</type></trkpt>
      <trkpt lat="39.30555833132381" lon="-5.8572537265247675"><ele>695</ele><speed>11.74</speed><time>2016-07-09T16:32:20Z</time><pdop>8.0</pdop><geoidheight>50.80</geoidheight><course>359.0743</course><type>1</type></trkpt>
      <trkpt lat="39.30576549915958" lon="-5.857248090134143"><ele>689</ele><speed>12.66</speed><time>2016-07-09T16:32:22Z</time><pdop>8.0</pdop><geoidheight>50.80</geoidheight><course>357.82843</course><type>1</type></trkpt>
      <trkpt lat="39.30598656677997" lon="-5.85725154794237"><ele>683</ele><speed>12.63</speed><time>2016-07-09T16:32:24Z</time><pdop>8.0</pdop><geoidheight>50.80</geoidheight><course>357.59134</course><type>1</type></trkpt>
      <trkpt lat="39.30617376671366" lon="-5.857252439295133"><ele>677</ele><speed>11.62</speed><time>2016-07-09T16:32:26Z</time><pdop>8.0</pdop><geoidheight>50.80</geoidheight><course>356.87308</course><type>1</type></trkpt>
      <trkpt lat="39.30636495827228" lon="-5.857274708794708"><ele>670</ele><speed>11.99</speed><time>2016-07-09T16:32:27Z</time><pdop>8.0</pdop><geoidheight>50.80</geoidheight><course>354.67725</course><type>1</type></trkpt>
      <trkpt lat="39.30655033083728" lon="-5.857237349655995"><ele>664</ele><speed>11.49</speed><time>2016-07-09T16:32:30Z</time><pdop>8.0</pdop><geoidheight>50.80</geoidheight><course>11.477607</course><type>1</type></trkpt>
      <trkpt lat="39.30674055259582" lon="-5.857212254622609"><ele>659</ele><speed>12.02</speed><time>2016-07-09T16:32:32Z</time><pdop>8.0</pdop><geoidheight>50.80</geoidheight><course>355.52243</course><type>1</type></trkpt>
      <trkpt lat="39.30694219719032" lon="-5.857231454250119"><ele>654</ele><speed>11.93</speed><time>2016-07-09T16:32:34Z</time><pdop>8.0</pdop><geoidheight>50.80</geoidheight><course>353.54425</course><type>1</type></trkpt>
      <trkpt lat="39.30713381969835" lon="-5.857250044588428"><ele>650</ele><speed>11.16</speed><time>2016-07-09T16:32:35Z</time><pdop>8.0</pdop><geoidheight>50.80</geoidheight><course>353.43857</course><type>1</type></trkpt>
      <trkpt lat="39.307315454123" lon="-5.857290776938785"><ele>645</ele><speed>11.15</speed><time>2016-07-09T16:32:38Z</time><pdop>8.0</pdop><geoidheight>50.80</geoidheight><course>349.31372</course><type>1</type></trkpt>
      <trkpt lat="39.30751645749848" lon="-5.857353751448406"><ele>638</ele><speed>13.06</speed><time>2016-07-09T16:32:40Z</time><pdop>8.0</pdop><geoidheight>50.80</geoidheight><course>347.96002</course><type>1</type></trkpt>
      <trkpt lat="39.307692384896164" lon="-5.857413033120704"><ele>632</ele><speed>9.58</speed><time>2016-07-09T16:32:42Z</time><pdop>8.0</pdop><geoidheight>50.80</geoidheight><course>344.87863</course><type>1</type></trkpt>
      <trkpt lat="39.30783944032655" lon="-5.8574751137373084"><ele>627</ele><speed>9.32</speed><time>2016-07-09T16:32:44Z</time><pdop>8.0</pdop><geoidheight>50.80</geoidheight><course>340.46985</course><type>1</type></trkpt>
      <trkpt lat="39.30800556743568" lon="-5.857551937517477"><ele>621</ele><speed>10.91</speed><time>2016-07-09T16:32:46Z</time><pdop>8.0</pdop><geoidheight>50.80</geoidheight><course>342.90244</course><type>1</type></trkpt>
      <trkpt lat="39.30819270566125" lon="-5.857625893391812"><ele>615</ele><speed>11.27</speed><time>2016-07-09T16:32:47Z</time><pdop>8.0</pdop><geoidheight>50.80</geoidheight><course>345.0053</course><type>1</type></trkpt>
      <trkpt lat="39.308400365084765" lon="-5.857654544671119"><ele>608</ele><speed>11.56</speed><time>2016-07-09T16:32:50Z</time><pdop>12.0</pdop><geoidheight>50.80</geoidheight><course>349.1229</course><type>1</type></trkpt>
      <trkpt lat="39.308609235137645" lon="-5.857677194784225"><ele>599</ele><speed>11.57</speed><time>2016-07-09T16:32:52Z</time><pdop>8.0</pdop><geoidheight>50.80</geoidheight><course>348.4042</course><type>1</type></trkpt>
      <trkpt lat="39.30880501365947" lon="-5.857732688408048"><ele>590</ele><speed>12.16</speed><time>2016-07-09T16:32:54Z</time><pdop>8.0</pdop><geoidheight>50.80</geoidheight><course>346.00174</course><type>1</type></trkpt>
      <trkpt lat="39.309016740679525" lon="-5.857805064477232"><ele>581</ele><speed>13.22</speed><time>2016-07-09T16:32:56Z</time><pdop>8.0</pdop><geoidheight>50.80</geoidheight><course>346.986</course><type>1</type></trkpt>
      <trkpt lat="39.30923780547084" lon="-5.857875383965756"><ele>575</ele><speed>12.58</speed><time>2016-07-09T16:32:58Z</time><pdop>12.0</pdop><geoidheight>50.80</geoidheight><course>346.09387</course><type>1</type></trkpt>
      <trkpt lat="39.30952805447878" lon="-5.858004846039387"><ele>573</ele><speed>11.39</speed><time>2016-07-09T16:33:01Z</time><pdop>12.0</pdop><geoidheight>50.80</geoidheight><course>341.33517</course><type>1</type></trkpt>
      <trkpt lat="39.309822318611545" lon="-5.858141798569124"><ele>573</ele><speed>11.35</speed><time>2016-07-09T16:33:04Z</time><pdop>12.0</pdop><geoidheight>50.80</geoidheight><course>340.71295</course><type>1</type></trkpt>
      <trkpt lat="39.31003967300917" lon="-5.858242342319258"><ele>573</ele><speed>12.92</speed><time>2016-07-09T16:33:05Z</time><pdop>8.0</pdop><geoidheight>50.80</geoidheight><course>340.00113</course><type>1</type></trkpt>
      <trkpt lat="39.310253829991666" lon="-5.858336690478234"><ele>570</ele><speed>12.21</speed><time>2016-07-09T16:33:08Z</time><pdop>12.0</pdop><geoidheight>50.80</geoidheight><course>342.46875</course><type>1</type></trkpt>
      <trkpt lat="39.31047947679291" lon="-5.858406016663119"><ele>566</ele><speed>14.13</speed><time>2016-07-09T16:33:10Z</time><pdop>12.0</pdop><geoidheight>50.80</geoidheight><course>340.81174</course><type>1</type></trkpt>
      <trkpt lat="39.310742594200754" lon="-5.858547427650567"><ele>563</ele><speed>10.53</speed><time>2016-07-09T16:33:13Z</time><pdop>8.0</pdop><geoidheight>50.80</geoidheight><course>336.29123</course><type>1</type></trkpt>
      <trkpt lat="39.3109340356433" lon="-5.858676716545157"><ele>562</ele><speed>13.17</speed><time>2016-07-09T16:33:15Z</time><pdop>12.0</pdop><geoidheight>50.80</geoidheight><course>333.61322</course><type>1</type></trkpt>
      <trkpt lat="39.311125946168076" lon="-5.858813771163578"><ele>561</ele><speed>11.65</speed><time>2016-07-09T16:33:17Z</time><pdop>8.0</pdop><geoidheight>50.80</geoidheight><course>331.79788</course><type>1</type></trkpt>
      <trkpt lat="39.311288421707964" lon="-5.858940300808717"><ele>561</ele><speed>10.45</speed><time>2016-07-09T16:33:19Z</time><pdop>8.0</pdop><geoidheight>50.80</geoidheight><course>330.03442</course><type>1</type></trkpt>
      <trkpt lat="39.31147378704119" lon="-5.8590941935091445"><ele>562</ele><speed>11.97</speed><time>2016-07-09T16:33:21Z</time><pdop>12.0</pdop><geoidheight>50.80</geoidheight><course>327.47614</course><type>1</type></trkpt>
      <trkpt lat="39.311678623944665" lon="-5.8592695010189555"><ele>561</ele><speed>12.73</speed><time>2016-07-09T16:33:23Z</time><pdop>12.0</pdop><geoidheight>50.80</geoidheight><course>322.13007</course><type>1</type></trkpt>
      <trkpt lat="39.311857805395846" lon="-5.859458927965606"><ele>559</ele><speed>11.65</speed><time>2016-07-09T16:33:25Z</time><pdop>8.0</pdop><geoidheight>50.80</geoidheight><course>324.54758</course><type>1</type></trkpt>
      <trkpt lat="39.312119836127" lon="-5.859673122573351"><ele>560</ele><speed>10.55</speed><time>2016-07-09T16:33:28Z</time><pdop>16.0</pdop><geoidheight>50.80</geoidheight><course>332.42514</course><type>1</type></trkpt>
      <trkpt lat="39.31242891924576" lon="-5.85976940475927"><ele>555</ele><speed>12.20</speed><time>2016-07-09T16:33:31Z</time><pdop>12.0</pdop><geoidheight>50.80</geoidheight><course>344.42715</course><type>1</type></trkpt>
      <trkpt lat="39.312657159856165" lon="-5.859797234120591"><ele>550</ele><speed>12.10</speed><time>2016-07-09T16:33:33Z</time><pdop>12.0</pdop><geoidheight>50.80</geoidheight><course>349.50305</course><type>1</type></trkpt>
      <trkpt lat="39.31288118070304" lon="-5.8598354384633895"><ele>547</ele><speed>12.16</speed><time>2016-07-09T16:33:34Z</time><pdop>12.0</pdop><geoidheight>50.80</geoidheight><course>352.7756</course><type>1</type></trkpt>
      <trkpt lat="39.31310263498196" lon="-5.85986911609437"><ele>545</ele><speed>12.16</speed><time>2016-07-09T16:33:37Z</time><pdop>12.0</pdop><geoidheight>50.80</geoidheight><course>351.93283</course><type>1</type></trkpt>
      <trkpt lat="39.31332800240218" lon="-5.859890459226189"><ele>543</ele><speed>12.41</speed><time>2016-07-09T16:33:39Z</time><pdop>12.0</pdop><geoidheight>50.80</geoidheight><course>350.45908</course><type>1</type></trkpt>
      <trkpt lat="39.313539218449534" lon="-5.8599359555817685"><ele>539</ele><speed>12.46</speed><time>2016-07-09T16:33:41Z</time><pdop>8.0</pdop><geoidheight>50.80</geoidheight><course>348.6608</course><type>1</type></trkpt>
      <trkpt lat="39.31374366678799" lon="-5.859985960225375"><ele>531</ele><speed>11.65</speed><time>2016-07-09T16:33:42Z</time><pdop>12.0</pdop><geoidheight>50.80</geoidheight><course>347.45154</course><type>1</type></trkpt>
      <trkpt lat="39.31406121117367" lon="-5.860052878505154"><ele>522</ele><speed>12.79</speed><time>2016-07-09T16:33:46Z</time><pdop>12.0</pdop><geoidheight>50.80</geoidheight><course>348.6368</course><type>1</type></trkpt>
      <trkpt lat="39.31427577304846" lon="-5.860117736912025"><ele>518</ele><speed>11.87</speed><time>2016-07-09T16:33:48Z</time><pdop>8.0</pdop><geoidheight>50.80</geoidheight><course>344.15472</course><type>1</type></trkpt>
      <trkpt lat="39.31446555772415" lon="-5.860209911293042"><ele>515</ele><speed>12.23</speed><time>2016-07-09T16:33:50Z</time><pdop>8.0</pdop><geoidheight>50.80</geoidheight><course>340.53436</course><type>1</type></trkpt>
      <trkpt lat="39.314656733611706" lon="-5.860319800062878"><ele>513</ele><speed>12.02</speed><time>2016-07-09T16:33:52Z</time><pdop>8.0</pdop><geoidheight>50.80</geoidheight><course>340.32944</course><type>1</type></trkpt>
      <trkpt lat="39.31484151628426" lon="-5.860418198927481"><ele>512</ele><speed>11.54</speed><time>2016-07-09T16:33:54Z</time><pdop>8.0</pdop><geoidheight>50.80</geoidheight><course>337.55896</course><type>1</type></trkpt>
      <trkpt lat="39.31504174851503" lon="-5.860537154190069"><ele>512</ele><speed>12.77</speed><time>2016-07-09T16:33:56Z</time><pdop>8.0</pdop><geoidheight>50.80</geoidheight><course>336.3199</course><type>1</type></trkpt>
      <trkpt lat="39.31524094788621" lon="-5.8606558333716325"><ele>512</ele><speed>12.73</speed><time>2016-07-09T16:33:58Z</time><pdop>8.0</pdop><geoidheight>50.80</geoidheight><course>336.0482</course><type>1</type></trkpt>
      <trkpt lat="39.3154307253272" lon="-5.8607725069542935"><ele>512</ele><speed>11.15</speed><time>2016-07-09T16:34:00Z</time><pdop>8.0</pdop><geoidheight>50.80</geoidheight><course>335.03897</course><type>1</type></trkpt>
      <trkpt lat="39.31565265005034" lon="-5.860943219702295"><ele>511</ele><speed>8.64</speed><time>2016-07-09T16:34:03Z</time><pdop>12.0</pdop><geoidheight>50.80</geoidheight><course>327.30783</course><type>1</type></trkpt>
      <trkpt lat="39.31585871473892" lon="-5.861110893378714"><ele>511</ele><speed>9.88</speed><time>2016-07-09T16:34:06Z</time><pdop>8.0</pdop><geoidheight>50.80</geoidheight><course>328.06198</course><type>1</type></trkpt>
      <trkpt lat="39.31599148260401" lon="-5.861233496864894"><ele>510</ele><speed>8.25</speed><time>2016-07-09T16:34:08Z</time><pdop>8.0</pdop><geoidheight>50.80</geoidheight><course>322.65668</course><type>1</type></trkpt>
      <trkpt lat="39.316076846673155" lon="-5.861394768974318"><ele>511</ele><speed>7.64</speed><time>2016-07-09T16:34:10Z</time><pdop>8.0</pdop><geoidheight>50.80</geoidheight><course>302.49432</course><type>1</type></trkpt>
      <trkpt lat="39.31612321508628" lon="-5.861601784661702"><ele>512</ele><speed>10.59</speed><time>2016-07-09T16:34:12Z</time><pdop>8.0</pdop><geoidheight>50.80</geoidheight><course>290.50238</course><type>1</type></trkpt>
      <trkpt lat="39.31625284677665" lon="-5.861800142194875"><ele>512</ele><speed>12.09</speed><time>2016-07-09T16:34:13Z</time><pdop>8.0</pdop><geoidheight>50.80</geoidheight><course>320.17416</course><type>1</type></trkpt>
      <trkpt lat="39.31641500852832" lon="-5.8619138943234885"><ele>512</ele><speed>9.42</speed><time>2016-07-09T16:34:16Z</time><pdop>8.0</pdop><geoidheight>50.80</geoidheight><course>340.44073</course><type>1</type></trkpt>
      <trkpt lat="39.31666994828242" lon="-5.861993164754365"><ele>508</ele><speed>10.27</speed><time>2016-07-09T16:34:19Z</time><pdop>8.0</pdop><geoidheight>50.80</geoidheight><course>348.32776</course><type>1</type></trkpt>
      <trkpt lat="39.31686749368841" lon="-5.861816307500363"><ele>505</ele><speed>9.96</speed><time>2016-07-09T16:34:22Z</time><pdop>8.0</pdop><geoidheight>50.80</geoidheight><course>58.83516</course><type>1</type></trkpt>
      <trkpt lat="39.31679812421876" lon="-5.861564123190614"><ele>505</ele><speed>8.57</speed><time>2016-07-09T16:34:25Z</time><pdop>8.0</pdop><geoidheight>50.80</geoidheight><course>122.149895</course><type>1</type></trkpt>
      <trkpt lat="39.31666388207491" lon="-5.861408278378586"><ele>500</ele><speed>8.89</speed><time>2016-07-09T16:34:27Z</time><pdop>12.0</pdop><geoidheight>50.80</geoidheight><course>125.085915</course><type>1</type></trkpt>
      <trkpt lat="39.316469996479675" lon="-5.861322055441245"><ele>497</ele><speed>8.75</speed><time>2016-07-09T16:34:30Z</time><pdop>8.0</pdop><geoidheight>50.80</geoidheight><course>178.67805</course><type>1</type></trkpt>
      <trkpt lat="39.31633070629195" lon="-5.861395651921202"><ele>498</ele><speed>7.80</speed><time>2016-07-09T16:34:32Z</time><pdop>8.0</pdop><geoidheight>50.80</geoidheight><course>197.29779</course><type>1</type></trkpt>
      <trkpt lat="39.316128455383364" lon="-5.861497462546653"><ele>500</ele><speed>8.11</speed><time>2016-07-09T16:34:35Z</time><pdop>12.0</pdop><geoidheight>50.80</geoidheight><course>201.53508</course><type>1</type></trkpt>
      <trkpt lat="39.31591320761646" lon="-5.861477007865841"><ele>503</ele><speed>6.12</speed><time>2016-07-09T16:34:39Z</time><pdop>12.0</pdop><geoidheight>50.80</geoidheight><course>169.11832</course><type>1</type></trkpt>
      <trkpt lat="39.31575877780586" lon="-5.861277320254208"><ele>505</ele><speed>7.79</speed><time>2016-07-09T16:34:43Z</time><pdop>12.0</pdop><geoidheight>50.80</geoidheight><course>106.296364</course><type>1</type></trkpt>
      <trkpt lat="39.315834966685124" lon="-5.860997436690466"><ele>503</ele><speed>8.91</speed><time>2016-07-09T16:34:46Z</time><pdop>12.0</pdop><geoidheight>50.80</geoidheight><course>47.374134</course><type>1</type></trkpt>
      <trkpt lat="39.316004593596254" lon="-5.8608170433923865"><ele>503</ele><speed>8.53</speed><time>2016-07-09T16:34:48Z</time><pdop>8.0</pdop><geoidheight>50.80</geoidheight><course>26.042046</course><type>1</type></trkpt>
      <trkpt lat="39.316219906193076" lon="-5.860902967138519"><ele>499</ele><speed>10.02</speed><time>2016-07-09T16:34:52Z</time><pdop>8.0</pdop><geoidheight>50.80</geoidheight><course>312.91922</course><type>1</type></trkpt>
      <trkpt lat="39.31618727731428" lon="-5.8611348408564705"><ele>499</ele><speed>7.05</speed><time>2016-07-09T16:34:54Z</time><pdop>8.0</pdop><geoidheight>50.80</geoidheight><course>208.54263</course><type>1</type></trkpt>
      <trkpt lat="39.316018550033114" lon="-5.861090694079547"><ele>503</ele><speed>5.72</speed><time>2016-07-09T16:34:57Z</time><pdop>6.0</pdop><geoidheight>50.80</geoidheight><course>152.1688</course><type>1</type></trkpt>
      <trkpt lat="39.31588520625111" lon="-5.860970054970433"><ele>507</ele><speed>6.99</speed><time>2016-07-09T16:35:01Z</time><pdop>6.0</pdop><geoidheight>50.80</geoidheight><course>122.80042</course><type>1</type></trkpt>
      <trkpt lat="39.31591082943235" lon="-5.860694891006351"><ele>505</ele><speed>9.31</speed><time>2016-07-09T16:35:04Z</time><pdop>16.0</pdop><geoidheight>50.80</geoidheight><course>63.34846</course><type>1</type></trkpt>
      <trkpt lat="39.31615798735509" lon="-5.860541083485984"><ele>502</ele><speed>10.49</speed><time>2016-07-09T16:35:07Z</time><pdop>8.0</pdop><geoidheight>50.80</geoidheight><course>6.7548327</course><type>1</type></trkpt>
      <trkpt lat="39.31633019818336" lon="-5.860610140946996"><ele>501</ele><speed>10.71</speed><time>2016-07-09T16:35:09Z</time><pdop>12.0</pdop><geoidheight>50.80</geoidheight><course>329.36877</course><type>1</type></trkpt>
      <trkpt lat="39.31640607898216" lon="-5.860826970690891"><ele>498</ele><speed>5.36</speed><time>2016-07-09T16:35:12Z</time><pdop>8.0</pdop><geoidheight>50.80</geoidheight><course>284.9499</course><type>1</type></trkpt>
      <trkpt lat="39.316333925654035" lon="-5.86104219410821"><ele>499</ele><speed>5.40</speed><time>2016-07-09T16:35:16Z</time><pdop>8.0</pdop><geoidheight>50.80</geoidheight><course>215.2485</course><type>1</type></trkpt>
      <trkpt lat="39.31614872415747" lon="-5.861125774432521"><ele>499</ele><speed>8.67</speed><time>2016-07-09T16:35:19Z</time><pdop>12.0</pdop><geoidheight>50.80</geoidheight><course>194.26239</course><type>1</type></trkpt>
      <trkpt lat="39.31595232157841" lon="-5.861103927245802"><ele>502</ele><speed>7.37</speed><time>2016-07-09T16:35:21Z</time><pdop>8.0</pdop><geoidheight>50.80</geoidheight><course>175.485</course><type>1</type></trkpt>
      <trkpt lat="39.315797364612884" lon="-5.860977727508093"><ele>503</ele><speed>6.72</speed><time>2016-07-09T16:35:25Z</time><pdop>12.0</pdop><geoidheight>50.80</geoidheight><course>143.06918</course><type>1</type></trkpt>
      <trkpt lat="39.31561980539267" lon="-5.860948639185116"><ele>498</ele><speed>7.84</speed><time>2016-07-09T16:35:28Z</time><pdop>6.0</pdop><geoidheight>50.80</geoidheight><course>195.58072</course><type>1</type></trkpt>
      <trkpt lat="39.315424570890706" lon="-5.861037711347424"><ele>494</ele><speed>6.83</speed><time>2016-07-09T16:35:31Z</time><pdop>12.0</pdop><geoidheight>50.80</geoidheight><course>193.65736</course><type>1</type></trkpt>
      <trkpt lat="39.3152308509689" lon="-5.86110996222649"><ele>494</ele><speed>5.60</speed><time>2016-07-09T16:35:34Z</time><pdop>8.0</pdop><geoidheight>50.80</geoidheight><course>214.1568</course><type>1</type></trkpt>
      <trkpt lat="39.315132374478026" lon="-5.8612472019067114"><ele>493</ele><speed>8.77</speed><time>2016-07-09T16:35:37Z</time><pdop>6.0</pdop><geoidheight>50.80</geoidheight><course>234.04672</course><type>1</type></trkpt>
      <trkpt lat="39.315158573438815" lon="-5.861442323244399"><ele>490</ele><speed>7.93</speed><time>2016-07-09T16:35:38Z</time><pdop>6.0</pdop><geoidheight>50.80</geoidheight><course>291.1213</course><type>1</type></trkpt>
      <trkpt lat="39.3152697323928" lon="-5.861634860132501"><ele>488</ele><speed>11.46</speed><time>2016-07-09T16:35:41Z</time><pdop>6.0</pdop><geoidheight>50.80</geoidheight><course>313.31128</course><type>1</type></trkpt>
      <trkpt lat="39.315441520980514" lon="-5.861744873365491"><ele>484</ele><speed>12.11</speed><time>2016-07-09T16:35:43Z</time><pdop>8.0</pdop><geoidheight>50.80</geoidheight><course>338.96014</course><type>1</type></trkpt>
      <trkpt lat="39.31567496012618" lon="-5.861769912801339"><ele>481</ele><speed>12.76</speed><time>2016-07-09T16:35:44Z</time><pdop>8.0</pdop><geoidheight>50.80</geoidheight><course>354.59558</course><type>1</type></trkpt>
      <trkpt lat="39.315881099343976" lon="-5.861772839544082"><ele>478</ele><speed>9.63</speed><time>2016-07-09T16:35:47Z</time><pdop>8.0</pdop><geoidheight>50.80</geoidheight><course>355.1568</course><type>1</type></trkpt>
      <trkpt lat="39.31603383557208" lon="-5.861834908986629"><ele>477</ele><speed>9.13</speed><time>2016-07-09T16:35:49Z</time><pdop>8.0</pdop><geoidheight>50.80</geoidheight><course>336.1797</course><type>1</type></trkpt>
      <trkpt lat="39.316118183650865" lon="-5.861995897985133"><ele>477</ele><speed>9.09</speed><time>2016-07-09T16:35:51Z</time><pdop>6.0</pdop><geoidheight>50.80</geoidheight><course>288.6306</course><type>1</type></trkpt>
      <trkpt lat="39.31609006108713" lon="-5.8621753495913875"><ele>476</ele><speed>7.42</speed><time>2016-07-09T16:35:53Z</time><pdop>6.0</pdop><geoidheight>50.80</geoidheight><course>238.41162</course><type>1</type></trkpt>
      <trkpt lat="39.31593294922076" lon="-5.862248516309017"><ele>475</ele><speed>5.64</speed><time>2016-07-09T16:35:56Z</time><pdop>8.0</pdop><geoidheight>50.80</geoidheight><course>190.93861</course><type>1</type></trkpt>
      <trkpt lat="39.31577272594283" lon="-5.862319561688551"><ele>471</ele><speed>8.59</speed><time>2016-07-09T16:35:59Z</time><pdop>8.0</pdop><geoidheight>50.80</geoidheight><course>198.52802</course><type>1</type></trkpt>
      <trkpt lat="39.31562676443279" lon="-5.862329565903493"><ele>467</ele><speed>6.18</speed><time>2016-07-09T16:36:01Z</time><pdop>8.0</pdop><geoidheight>50.80</geoidheight><course>184.53836</course><type>1</type></trkpt>
      <trkpt lat="39.315479083929176" lon="-5.8623276571537595"><ele>461</ele><speed>5.01</speed><time>2016-07-09T16:36:04Z</time><pdop>8.0</pdop><geoidheight>50.80</geoidheight><course>170.90768</course><type>1</type></trkpt>
      <trkpt lat="39.315351762252206" lon="-5.862308304228763"><ele>459</ele><speed>0.00</speed><time>2016-07-09T16:36:14Z</time><pdop>6.0</pdop><geoidheight>50.80</geoidheight><course>206.36266</course><type>1</type></trkpt>
    </trkseg>
  </trk>
</gpx>